<?xml version="1.0" encoding="UTF-8" standalone="no" ?>
<gpx xmlns="http://www.topografix.com/GPX/1/1" xmlns:xsi="http://www.w3.org/2001/XMLSchema-instance" xsi:schemaLocation="http://www.topografix.com/GPX/1/1 http://www.topografix.com/GPX/1/1/gpx.xsd" version="1.1" creator="VisuGPX - https://www.visugpx.com">
  <metadata>
    <name>ski rando QUERMOZ CROIX DE LA BAGNAZ</name>
  </metadata>
  <trk>
    <name><![CDATA[ski rando QUERMOZ CROIX DE LA BAGNAZ]]></name>
    <trkseg>
      <trkpt lat="45.55645" lon="6.60598">
        <ele>1171.8000488281</ele>
        <time>2014-01-31T08:17:59.000Z</time>
      </trkpt>
      <trkpt lat="45.55645" lon="6.60598">
        <ele>1171.8000488281</ele>
        <time>2014-01-31T08:18:05.000Z</time>
      </trkpt>
      <trkpt lat="45.55645" lon="6.60598">
        <ele>1171.5999755859</ele>
        <time>2014-01-31T08:18:06.000Z</time>
      </trkpt>
      <trkpt lat="45.55644" lon="6.60598">
        <ele>1171.5999755859</ele>
        <time>2014-01-31T08:18:07.000Z</time>
      </trkpt>
      <trkpt lat="45.55644" lon="6.60598">
        <ele>1171.5999755859</ele>
        <time>2014-01-31T08:18:08.000Z</time>
      </trkpt>
      <trkpt lat="45.55644" lon="6.60598">
        <ele>1171.5999755859</ele>
        <time>2014-01-31T08:18:09.000Z</time>
      </trkpt>
      <trkpt lat="45.55644" lon="6.60598">
        <ele>1171.4000244141</ele>
        <time>2014-01-31T08:18:10.000Z</time>
      </trkpt>
      <trkpt lat="45.55644" lon="6.60598">
        <ele>1171.4000244141</ele>
        <time>2014-01-31T08:18:11.000Z</time>
      </trkpt>
      <trkpt lat="45.55644" lon="6.60598">
        <ele>1171.4000244141</ele>
        <time>2014-01-31T08:18:12.000Z</time>
      </trkpt>
      <trkpt lat="45.55644" lon="6.60598">
        <ele>1171.4000244141</ele>
        <time>2014-01-31T08:18:13.000Z</time>
      </trkpt>
      <trkpt lat="45.55644" lon="6.60598">
        <ele>1171.1999511719</ele>
        <time>2014-01-31T08:18:14.000Z</time>
      </trkpt>
      <trkpt lat="45.55644" lon="6.60598">
        <ele>1171.1999511719</ele>
        <time>2014-01-31T08:18:15.000Z</time>
      </trkpt>
      <trkpt lat="45.55644" lon="6.60598">
        <ele>1171.1999511719</ele>
        <time>2014-01-31T08:18:16.000Z</time>
      </trkpt>
      <trkpt lat="45.55644" lon="6.60598">
        <ele>1171.1999511719</ele>
        <time>2014-01-31T08:18:17.000Z</time>
      </trkpt>
      <trkpt lat="45.55644" lon="6.60598">
        <ele>1171.1999511719</ele>
        <time>2014-01-31T08:18:18.000Z</time>
      </trkpt>
      <trkpt lat="45.55644" lon="6.60598">
        <ele>1171.1999511719</ele>
        <time>2014-01-31T08:18:19.000Z</time>
      </trkpt>
      <trkpt lat="45.55644" lon="6.60598">
        <ele>1171.1999511719</ele>
        <time>2014-01-31T08:18:20.000Z</time>
      </trkpt>
      <trkpt lat="45.55644" lon="6.60598">
        <ele>1171</ele>
        <time>2014-01-31T08:18:21.000Z</time>
      </trkpt>
      <trkpt lat="45.55644" lon="6.60598">
        <ele>1171</ele>
        <time>2014-01-31T08:18:22.000Z</time>
      </trkpt>
      <trkpt lat="45.55644" lon="6.60598">
        <ele>1171</ele>
        <time>2014-01-31T08:18:23.000Z</time>
      </trkpt>
      <trkpt lat="45.55644" lon="6.60598">
        <ele>1171</ele>
        <time>2014-01-31T08:18:24.000Z</time>
      </trkpt>
      <trkpt lat="45.55644" lon="6.60598">
        <ele>1170.8000488281</ele>
        <time>2014-01-31T08:18:25.000Z</time>
      </trkpt>
      <trkpt lat="45.55644" lon="6.60598">
        <ele>1170.8000488281</ele>
        <time>2014-01-31T08:18:26.000Z</time>
      </trkpt>
      <trkpt lat="45.55644" lon="6.60598">
        <ele>1170.8000488281</ele>
        <time>2014-01-31T08:18:27.000Z</time>
      </trkpt>
      <trkpt lat="45.55644" lon="6.60598">
        <ele>1170.8000488281</ele>
        <time>2014-01-31T08:18:28.000Z</time>
      </trkpt>
      <trkpt lat="45.55644" lon="6.60598">
        <ele>1170.5999755859</ele>
        <time>2014-01-31T08:18:29.000Z</time>
      </trkpt>
      <trkpt lat="45.55644" lon="6.60598">
        <ele>1170.5999755859</ele>
        <time>2014-01-31T08:18:30.000Z</time>
      </trkpt>
      <trkpt lat="45.55644" lon="6.60598">
        <ele>1170.8000488281</ele>
        <time>2014-01-31T08:18:31.000Z</time>
      </trkpt>
      <trkpt lat="45.55644" lon="6.60598">
        <ele>1170.8000488281</ele>
        <time>2014-01-31T08:18:32.000Z</time>
      </trkpt>
      <trkpt lat="45.55644" lon="6.60598">
        <ele>1170.8000488281</ele>
        <time>2014-01-31T08:18:33.000Z</time>
      </trkpt>
      <trkpt lat="45.55644" lon="6.60598">
        <ele>1170.8000488281</ele>
        <time>2014-01-31T08:18:35.000Z</time>
      </trkpt>
      <trkpt lat="45.55644" lon="6.60598">
        <ele>1170.8000488281</ele>
        <time>2014-01-31T08:18:36.000Z</time>
      </trkpt>
      <trkpt lat="45.55645" lon="6.60598">
        <ele>1170.8000488281</ele>
        <time>2014-01-31T08:18:38.000Z</time>
      </trkpt>
      <trkpt lat="45.55645" lon="6.60598">
        <ele>1170.5999755859</ele>
        <time>2014-01-31T08:18:39.000Z</time>
      </trkpt>
      <trkpt lat="45.55645" lon="6.60598">
        <ele>1170.5999755859</ele>
        <time>2014-01-31T08:18:40.000Z</time>
      </trkpt>
      <trkpt lat="45.55645" lon="6.60598">
        <ele>1170.5999755859</ele>
        <time>2014-01-31T08:18:41.000Z</time>
      </trkpt>
      <trkpt lat="45.55645" lon="6.60598">
        <ele>1170.5999755859</ele>
        <time>2014-01-31T08:18:42.000Z</time>
      </trkpt>
      <trkpt lat="45.55645" lon="6.60598">
        <ele>1170.5999755859</ele>
        <time>2014-01-31T08:18:43.000Z</time>
      </trkpt>
      <trkpt lat="45.55645" lon="6.60598">
        <ele>1170.8000488281</ele>
        <time>2014-01-31T08:18:44.000Z</time>
      </trkpt>
      <trkpt lat="45.55646" lon="6.60597">
        <ele>1171</ele>
        <time>2014-01-31T08:18:45.000Z</time>
      </trkpt>
      <trkpt lat="45.55646" lon="6.60595">
        <ele>1171</ele>
        <time>2014-01-31T08:18:46.000Z</time>
      </trkpt>
      <trkpt lat="45.55646" lon="6.60595">
        <ele>1171.1999511719</ele>
        <time>2014-01-31T08:18:47.000Z</time>
      </trkpt>
      <trkpt lat="45.55646" lon="6.60594">
        <ele>1171</ele>
        <time>2014-01-31T08:18:48.000Z</time>
      </trkpt>
      <trkpt lat="45.55646" lon="6.60594">
        <ele>1171</ele>
        <time>2014-01-31T08:18:49.000Z</time>
      </trkpt>
      <trkpt lat="45.55646" lon="6.60594">
        <ele>1170.8000488281</ele>
        <time>2014-01-31T08:18:50.000Z</time>
      </trkpt>
      <trkpt lat="45.55646" lon="6.60594">
        <ele>1170.5999755859</ele>
        <time>2014-01-31T08:18:51.000Z</time>
      </trkpt>
      <trkpt lat="45.55646" lon="6.60594">
        <ele>1170.5999755859</ele>
        <time>2014-01-31T08:18:52.000Z</time>
      </trkpt>
      <trkpt lat="45.55646" lon="6.60594">
        <ele>1170.5999755859</ele>
        <time>2014-01-31T08:18:53.000Z</time>
      </trkpt>
      <trkpt lat="45.55646" lon="6.60594">
        <ele>1170.4000244141</ele>
        <time>2014-01-31T08:18:54.000Z</time>
      </trkpt>
      <trkpt lat="45.55646" lon="6.60594">
        <ele>1170.5999755859</ele>
        <time>2014-01-31T08:18:55.000Z</time>
      </trkpt>
      <trkpt lat="45.55646" lon="6.60594">
        <ele>1170.8000488281</ele>
        <time>2014-01-31T08:18:56.000Z</time>
      </trkpt>
      <trkpt lat="45.55646" lon="6.60594">
        <ele>1171</ele>
        <time>2014-01-31T08:18:57.000Z</time>
      </trkpt>
      <trkpt lat="45.55646" lon="6.60594">
        <ele>1171</ele>
        <time>2014-01-31T08:18:58.000Z</time>
      </trkpt>
      <trkpt lat="45.55646" lon="6.60594">
        <ele>1170.8000488281</ele>
        <time>2014-01-31T08:18:59.000Z</time>
      </trkpt>
      <trkpt lat="45.55646" lon="6.60594">
        <ele>1170.8000488281</ele>
        <time>2014-01-31T08:19:00.000Z</time>
      </trkpt>
      <trkpt lat="45.55646" lon="6.60594">
        <ele>1171</ele>
        <time>2014-01-31T08:19:01.000Z</time>
      </trkpt>
      <trkpt lat="45.55646" lon="6.60594">
        <ele>1171.1999511719</ele>
        <time>2014-01-31T08:19:02.000Z</time>
      </trkpt>
      <trkpt lat="45.55646" lon="6.60594">
        <ele>1171.1999511719</ele>
        <time>2014-01-31T08:19:03.000Z</time>
      </trkpt>
      <trkpt lat="45.55646" lon="6.60594">
        <ele>1171.1999511719</ele>
        <time>2014-01-31T08:19:04.000Z</time>
      </trkpt>
      <trkpt lat="45.55646" lon="6.60594">
        <ele>1171.1999511719</ele>
        <time>2014-01-31T08:19:05.000Z</time>
      </trkpt>
      <trkpt lat="45.55646" lon="6.60594">
        <ele>1171.1999511719</ele>
        <time>2014-01-31T08:19:07.000Z</time>
      </trkpt>
      <trkpt lat="45.55646" lon="6.60594">
        <ele>1171.1999511719</ele>
        <time>2014-01-31T08:19:11.000Z</time>
      </trkpt>
      <trkpt lat="45.55646" lon="6.60594">
        <ele>1171.1999511719</ele>
        <time>2014-01-31T08:19:13.000Z</time>
      </trkpt>
      <trkpt lat="45.55646" lon="6.60594">
        <ele>1171</ele>
        <time>2014-01-31T08:19:14.000Z</time>
      </trkpt>
      <trkpt lat="45.55646" lon="6.60594">
        <ele>1171</ele>
        <time>2014-01-31T08:19:15.000Z</time>
      </trkpt>
      <trkpt lat="45.55646" lon="6.60594">
        <ele>1171</ele>
        <time>2014-01-31T08:19:16.000Z</time>
      </trkpt>
      <trkpt lat="45.55646" lon="6.60594">
        <ele>1170.8000488281</ele>
        <time>2014-01-31T08:19:17.000Z</time>
      </trkpt>
      <trkpt lat="45.55646" lon="6.60594">
        <ele>1170.8000488281</ele>
        <time>2014-01-31T08:19:18.000Z</time>
      </trkpt>
      <trkpt lat="45.55646" lon="6.60594">
        <ele>1170.8000488281</ele>
        <time>2014-01-31T08:19:19.000Z</time>
      </trkpt>
      <trkpt lat="45.55646" lon="6.60594">
        <ele>1171.1999511719</ele>
        <time>2014-01-31T08:19:20.000Z</time>
      </trkpt>
      <trkpt lat="45.55646" lon="6.60594">
        <ele>1171.1999511719</ele>
        <time>2014-01-31T08:19:21.000Z</time>
      </trkpt>
      <trkpt lat="45.55646" lon="6.60594">
        <ele>1171.4000244141</ele>
        <time>2014-01-31T08:19:22.000Z</time>
      </trkpt>
      <trkpt lat="45.55646" lon="6.60594">
        <ele>1171.4000244141</ele>
        <time>2014-01-31T08:19:23.000Z</time>
      </trkpt>
      <trkpt lat="45.55646" lon="6.60594">
        <ele>1171.4000244141</ele>
        <time>2014-01-31T08:19:24.000Z</time>
      </trkpt>
      <trkpt lat="45.55646" lon="6.60594">
        <ele>1171.1999511719</ele>
        <time>2014-01-31T08:19:25.000Z</time>
      </trkpt>
      <trkpt lat="45.55646" lon="6.60594">
        <ele>1171.1999511719</ele>
        <time>2014-01-31T08:19:26.000Z</time>
      </trkpt>
      <trkpt lat="45.55646" lon="6.60594">
        <ele>1171</ele>
        <time>2014-01-31T08:19:27.000Z</time>
      </trkpt>
      <trkpt lat="45.55646" lon="6.60594">
        <ele>1171</ele>
        <time>2014-01-31T08:19:28.000Z</time>
      </trkpt>
      <trkpt lat="45.55646" lon="6.60594">
        <ele>1171</ele>
        <time>2014-01-31T08:19:29.000Z</time>
      </trkpt>
      <trkpt lat="45.55646" lon="6.60594">
        <ele>1171</ele>
        <time>2014-01-31T08:19:30.000Z</time>
      </trkpt>
      <trkpt lat="45.55646" lon="6.60594">
        <ele>1171</ele>
        <time>2014-01-31T08:19:31.000Z</time>
      </trkpt>
      <trkpt lat="45.55646" lon="6.60594">
        <ele>1171.1999511719</ele>
        <time>2014-01-31T08:19:32.000Z</time>
      </trkpt>
      <trkpt lat="45.55646" lon="6.60594">
        <ele>1171.1999511719</ele>
        <time>2014-01-31T08:19:33.000Z</time>
      </trkpt>
      <trkpt lat="45.55646" lon="6.60594">
        <ele>1171.1999511719</ele>
        <time>2014-01-31T08:19:34.000Z</time>
      </trkpt>
      <trkpt lat="45.55646" lon="6.60594">
        <ele>1171.1999511719</ele>
        <time>2014-01-31T08:19:35.000Z</time>
      </trkpt>
      <trkpt lat="45.55646" lon="6.60594">
        <ele>1171.4000244141</ele>
        <time>2014-01-31T08:19:36.000Z</time>
      </trkpt>
      <trkpt lat="45.55646" lon="6.60594">
        <ele>1171.4000244141</ele>
        <time>2014-01-31T08:19:37.000Z</time>
      </trkpt>
      <trkpt lat="45.55646" lon="6.60594">
        <ele>1171.4000244141</ele>
        <time>2014-01-31T08:19:38.000Z</time>
      </trkpt>
      <trkpt lat="45.55646" lon="6.60594">
        <ele>1171.4000244141</ele>
        <time>2014-01-31T08:19:39.000Z</time>
      </trkpt>
      <trkpt lat="45.55646" lon="6.60594">
        <ele>1171.5999755859</ele>
        <time>2014-01-31T08:19:40.000Z</time>
      </trkpt>
      <trkpt lat="45.55646" lon="6.60594">
        <ele>1171.5999755859</ele>
        <time>2014-01-31T08:19:41.000Z</time>
      </trkpt>
      <trkpt lat="45.55646" lon="6.60594">
        <ele>1171.8000488281</ele>
        <time>2014-01-31T08:19:42.000Z</time>
      </trkpt>
      <trkpt lat="45.55646" lon="6.60594">
        <ele>1171.8000488281</ele>
        <time>2014-01-31T08:19:43.000Z</time>
      </trkpt>
      <trkpt lat="45.55646" lon="6.60594">
        <ele>1171.5999755859</ele>
        <time>2014-01-31T08:19:44.000Z</time>
      </trkpt>
      <trkpt lat="45.55646" lon="6.60594">
        <ele>1171.5999755859</ele>
        <time>2014-01-31T08:19:45.000Z</time>
      </trkpt>
      <trkpt lat="45.55646" lon="6.60594">
        <ele>1171.4000244141</ele>
        <time>2014-01-31T08:19:46.000Z</time>
      </trkpt>
      <trkpt lat="45.55646" lon="6.60594">
        <ele>1171.4000244141</ele>
        <time>2014-01-31T08:19:47.000Z</time>
      </trkpt>
      <trkpt lat="45.55646" lon="6.60594">
        <ele>1171.4000244141</ele>
        <time>2014-01-31T08:19:48.000Z</time>
      </trkpt>
      <trkpt lat="45.55646" lon="6.60594">
        <ele>1171.4000244141</ele>
        <time>2014-01-31T08:19:49.000Z</time>
      </trkpt>
      <trkpt lat="45.55646" lon="6.60594">
        <ele>1171.1999511719</ele>
        <time>2014-01-31T08:19:50.000Z</time>
      </trkpt>
      <trkpt lat="45.55646" lon="6.60594">
        <ele>1171.1999511719</ele>
        <time>2014-01-31T08:19:51.000Z</time>
      </trkpt>
      <trkpt lat="45.55646" lon="6.60594">
        <ele>1171.1999511719</ele>
        <time>2014-01-31T08:19:52.000Z</time>
      </trkpt>
      <trkpt lat="45.55646" lon="6.60594">
        <ele>1171.1999511719</ele>
        <time>2014-01-31T08:19:53.000Z</time>
      </trkpt>
      <trkpt lat="45.55646" lon="6.60594">
        <ele>1171.1999511719</ele>
        <time>2014-01-31T08:19:54.000Z</time>
      </trkpt>
      <trkpt lat="45.55646" lon="6.60594">
        <ele>1171.1999511719</ele>
        <time>2014-01-31T08:19:55.000Z</time>
      </trkpt>
      <trkpt lat="45.55646" lon="6.60594">
        <ele>1171.1999511719</ele>
        <time>2014-01-31T08:19:56.000Z</time>
      </trkpt>
      <trkpt lat="45.55646" lon="6.60594">
        <ele>1171.1999511719</ele>
        <time>2014-01-31T08:19:57.000Z</time>
      </trkpt>
      <trkpt lat="45.55646" lon="6.60594">
        <ele>1171.4000244141</ele>
        <time>2014-01-31T08:19:58.000Z</time>
      </trkpt>
      <trkpt lat="45.55647" lon="6.60594">
        <ele>1171.5999755859</ele>
        <time>2014-01-31T08:19:59.000Z</time>
      </trkpt>
      <trkpt lat="45.55647" lon="6.60594">
        <ele>1171.8000488281</ele>
        <time>2014-01-31T08:20:00.000Z</time>
      </trkpt>
      <trkpt lat="45.55647" lon="6.60594">
        <ele>1171.8000488281</ele>
        <time>2014-01-31T08:20:01.000Z</time>
      </trkpt>
      <trkpt lat="45.55647" lon="6.60594">
        <ele>1171.8000488281</ele>
        <time>2014-01-31T08:20:03.000Z</time>
      </trkpt>
      <trkpt lat="45.55647" lon="6.60594">
        <ele>1171.8000488281</ele>
        <time>2014-01-31T08:20:04.000Z</time>
      </trkpt>
      <trkpt lat="45.55647" lon="6.60594">
        <ele>1171.5999755859</ele>
        <time>2014-01-31T08:20:05.000Z</time>
      </trkpt>
      <trkpt lat="45.55647" lon="6.60594">
        <ele>1171.5999755859</ele>
        <time>2014-01-31T08:20:06.000Z</time>
      </trkpt>
      <trkpt lat="45.55647" lon="6.60594">
        <ele>1171.5999755859</ele>
        <time>2014-01-31T08:20:07.000Z</time>
      </trkpt>
      <trkpt lat="45.55647" lon="6.60594">
        <ele>1171.5999755859</ele>
        <time>2014-01-31T08:20:08.000Z</time>
      </trkpt>
      <trkpt lat="45.55647" lon="6.60594">
        <ele>1171.4000244141</ele>
        <time>2014-01-31T08:20:09.000Z</time>
      </trkpt>
      <trkpt lat="45.55647" lon="6.60594">
        <ele>1171.4000244141</ele>
        <time>2014-01-31T08:20:10.000Z</time>
      </trkpt>
      <trkpt lat="45.55647" lon="6.60594">
        <ele>1171.4000244141</ele>
        <time>2014-01-31T08:20:11.000Z</time>
      </trkpt>
      <trkpt lat="45.55647" lon="6.60594">
        <ele>1171.5999755859</ele>
        <time>2014-01-31T08:20:12.000Z</time>
      </trkpt>
      <trkpt lat="45.55647" lon="6.60594">
        <ele>1171.5999755859</ele>
        <time>2014-01-31T08:20:13.000Z</time>
      </trkpt>
      <trkpt lat="45.55647" lon="6.60594">
        <ele>1171.5999755859</ele>
        <time>2014-01-31T08:20:14.000Z</time>
      </trkpt>
      <trkpt lat="45.55647" lon="6.60594">
        <ele>1171.5999755859</ele>
        <time>2014-01-31T08:20:15.000Z</time>
      </trkpt>
      <trkpt lat="45.55647" lon="6.60594">
        <ele>1171.5999755859</ele>
        <time>2014-01-31T08:20:16.000Z</time>
      </trkpt>
      <trkpt lat="45.55647" lon="6.60594">
        <ele>1171.5999755859</ele>
        <time>2014-01-31T08:20:19.000Z</time>
      </trkpt>
      <trkpt lat="45.55647" lon="6.60594">
        <ele>1171.5999755859</ele>
        <time>2014-01-31T08:20:20.000Z</time>
      </trkpt>
      <trkpt lat="45.55647" lon="6.60594">
        <ele>1171.5999755859</ele>
        <time>2014-01-31T08:20:21.000Z</time>
      </trkpt>
      <trkpt lat="45.55647" lon="6.60594">
        <ele>1171.5999755859</ele>
        <time>2014-01-31T08:20:22.000Z</time>
      </trkpt>
      <trkpt lat="45.55647" lon="6.60594">
        <ele>1171.4000244141</ele>
        <time>2014-01-31T08:20:23.000Z</time>
      </trkpt>
      <trkpt lat="45.55647" lon="6.60594">
        <ele>1171.4000244141</ele>
        <time>2014-01-31T08:20:24.000Z</time>
      </trkpt>
      <trkpt lat="45.55647" lon="6.60594">
        <ele>1171.4000244141</ele>
        <time>2014-01-31T08:20:25.000Z</time>
      </trkpt>
      <trkpt lat="45.55647" lon="6.60594">
        <ele>1171.4000244141</ele>
        <time>2014-01-31T08:20:26.000Z</time>
      </trkpt>
      <trkpt lat="45.55647" lon="6.60594">
        <ele>1171.4000244141</ele>
        <time>2014-01-31T08:20:27.000Z</time>
      </trkpt>
      <trkpt lat="45.55647" lon="6.60594">
        <ele>1171.5999755859</ele>
        <time>2014-01-31T08:20:28.000Z</time>
      </trkpt>
      <trkpt lat="45.55647" lon="6.60594">
        <ele>1171.5999755859</ele>
        <time>2014-01-31T08:20:29.000Z</time>
      </trkpt>
      <trkpt lat="45.55647" lon="6.60594">
        <ele>1171.5999755859</ele>
        <time>2014-01-31T08:20:30.000Z</time>
      </trkpt>
      <trkpt lat="45.55647" lon="6.60594">
        <ele>1171</ele>
        <time>2014-01-31T08:20:31.000Z</time>
      </trkpt>
      <trkpt lat="45.55647" lon="6.60594">
        <ele>1170.5999755859</ele>
        <time>2014-01-31T08:20:32.000Z</time>
      </trkpt>
      <trkpt lat="45.55647" lon="6.60594">
        <ele>1170.5999755859</ele>
        <time>2014-01-31T08:20:33.000Z</time>
      </trkpt>
      <trkpt lat="45.55647" lon="6.60594">
        <ele>1170.8000488281</ele>
        <time>2014-01-31T08:20:34.000Z</time>
      </trkpt>
      <trkpt lat="45.55647" lon="6.60594">
        <ele>1171.5999755859</ele>
        <time>2014-01-31T08:20:35.000Z</time>
      </trkpt>
      <trkpt lat="45.55646" lon="6.60593">
        <ele>1172.1999511719</ele>
        <time>2014-01-31T08:20:36.000Z</time>
      </trkpt>
      <trkpt lat="45.55647" lon="6.60592">
        <ele>1172.4000244141</ele>
        <time>2014-01-31T08:20:37.000Z</time>
      </trkpt>
      <trkpt lat="45.55647" lon="6.6059">
        <ele>1172.5999755859</ele>
        <time>2014-01-31T08:20:38.000Z</time>
      </trkpt>
      <trkpt lat="45.55647" lon="6.60586">
        <ele>1172.4000244141</ele>
        <time>2014-01-31T08:20:40.000Z</time>
      </trkpt>
      <trkpt lat="45.55648" lon="6.60585">
        <ele>1172.4000244141</ele>
        <time>2014-01-31T08:20:41.000Z</time>
      </trkpt>
      <trkpt lat="45.55648" lon="6.60583">
        <ele>1172.1999511719</ele>
        <time>2014-01-31T08:20:42.000Z</time>
      </trkpt>
      <trkpt lat="45.55648" lon="6.60582">
        <ele>1172</ele>
        <time>2014-01-31T08:20:43.000Z</time>
      </trkpt>
      <trkpt lat="45.55647" lon="6.6058">
        <ele>1172.1999511719</ele>
        <time>2014-01-31T08:20:44.000Z</time>
      </trkpt>
      <trkpt lat="45.55647" lon="6.60579">
        <ele>1172.1999511719</ele>
        <time>2014-01-31T08:20:45.000Z</time>
      </trkpt>
      <trkpt lat="45.55647" lon="6.60578">
        <ele>1172.1999511719</ele>
        <time>2014-01-31T08:20:46.000Z</time>
      </trkpt>
      <trkpt lat="45.55647" lon="6.60577">
        <ele>1172.1999511719</ele>
        <time>2014-01-31T08:20:47.000Z</time>
      </trkpt>
      <trkpt lat="45.55647" lon="6.60576">
        <ele>1172.4000244141</ele>
        <time>2014-01-31T08:20:48.000Z</time>
      </trkpt>
      <trkpt lat="45.55646" lon="6.60576">
        <ele>1172.5999755859</ele>
        <time>2014-01-31T08:20:49.000Z</time>
      </trkpt>
      <trkpt lat="45.55645" lon="6.60576">
        <ele>1172.8000488281</ele>
        <time>2014-01-31T08:20:50.000Z</time>
      </trkpt>
      <trkpt lat="45.55645" lon="6.60575">
        <ele>1172.8000488281</ele>
        <time>2014-01-31T08:20:51.000Z</time>
      </trkpt>
      <trkpt lat="45.55644" lon="6.60574">
        <ele>1173</ele>
        <time>2014-01-31T08:20:52.000Z</time>
      </trkpt>
      <trkpt lat="45.55643" lon="6.60573">
        <ele>1173</ele>
        <time>2014-01-31T08:20:53.000Z</time>
      </trkpt>
      <trkpt lat="45.55642" lon="6.60573">
        <ele>1173</ele>
        <time>2014-01-31T08:20:54.000Z</time>
      </trkpt>
      <trkpt lat="45.55642" lon="6.60574">
        <ele>1173</ele>
        <time>2014-01-31T08:20:55.000Z</time>
      </trkpt>
      <trkpt lat="45.55641" lon="6.60573">
        <ele>1173</ele>
        <time>2014-01-31T08:20:56.000Z</time>
      </trkpt>
      <trkpt lat="45.55641" lon="6.60573">
        <ele>1173</ele>
        <time>2014-01-31T08:20:57.000Z</time>
      </trkpt>
      <trkpt lat="45.55641" lon="6.60573">
        <ele>1173</ele>
        <time>2014-01-31T08:20:58.000Z</time>
      </trkpt>
      <trkpt lat="45.55641" lon="6.60573">
        <ele>1173.1999511719</ele>
        <time>2014-01-31T08:20:59.000Z</time>
      </trkpt>
      <trkpt lat="45.55641" lon="6.60573">
        <ele>1173.4000244141</ele>
        <time>2014-01-31T08:21:00.000Z</time>
      </trkpt>
      <trkpt lat="45.55641" lon="6.60573">
        <ele>1173.5999755859</ele>
        <time>2014-01-31T08:21:01.000Z</time>
      </trkpt>
      <trkpt lat="45.55641" lon="6.60573">
        <ele>1173.8000488281</ele>
        <time>2014-01-31T08:21:02.000Z</time>
      </trkpt>
      <trkpt lat="45.55641" lon="6.60573">
        <ele>1173.8000488281</ele>
        <time>2014-01-31T08:21:03.000Z</time>
      </trkpt>
      <trkpt lat="45.55641" lon="6.60573">
        <ele>1173.8000488281</ele>
        <time>2014-01-31T08:21:04.000Z</time>
      </trkpt>
      <trkpt lat="45.55641" lon="6.60573">
        <ele>1173.8000488281</ele>
        <time>2014-01-31T08:21:05.000Z</time>
      </trkpt>
      <trkpt lat="45.55641" lon="6.60573">
        <ele>1173.5999755859</ele>
        <time>2014-01-31T08:21:06.000Z</time>
      </trkpt>
      <trkpt lat="45.55641" lon="6.60573">
        <ele>1173.8000488281</ele>
        <time>2014-01-31T08:21:07.000Z</time>
      </trkpt>
      <trkpt lat="45.55641" lon="6.60573">
        <ele>1173.5999755859</ele>
        <time>2014-01-31T08:21:08.000Z</time>
      </trkpt>
      <trkpt lat="45.55641" lon="6.60573">
        <ele>1173.5999755859</ele>
        <time>2014-01-31T08:21:09.000Z</time>
      </trkpt>
      <trkpt lat="45.55641" lon="6.60573">
        <ele>1173.5999755859</ele>
        <time>2014-01-31T08:21:10.000Z</time>
      </trkpt>
      <trkpt lat="45.55641" lon="6.60573">
        <ele>1173.8000488281</ele>
        <time>2014-01-31T08:21:11.000Z</time>
      </trkpt>
      <trkpt lat="45.55641" lon="6.60573">
        <ele>1173.8000488281</ele>
        <time>2014-01-31T08:21:12.000Z</time>
      </trkpt>
      <trkpt lat="45.55641" lon="6.60573">
        <ele>1173.8000488281</ele>
        <time>2014-01-31T08:21:15.000Z</time>
      </trkpt>
      <trkpt lat="45.55641" lon="6.60573">
        <ele>1173.8000488281</ele>
        <time>2014-01-31T08:21:16.000Z</time>
      </trkpt>
      <trkpt lat="45.55641" lon="6.60573">
        <ele>1173.8000488281</ele>
        <time>2014-01-31T08:21:17.000Z</time>
      </trkpt>
      <trkpt lat="45.55641" lon="6.60573">
        <ele>1173.8000488281</ele>
        <time>2014-01-31T08:21:18.000Z</time>
      </trkpt>
      <trkpt lat="45.55641" lon="6.60573">
        <ele>1173.8000488281</ele>
        <time>2014-01-31T08:21:20.000Z</time>
      </trkpt>
      <trkpt lat="45.55641" lon="6.60573">
        <ele>1174</ele>
        <time>2014-01-31T08:21:21.000Z</time>
      </trkpt>
      <trkpt lat="45.55641" lon="6.60573">
        <ele>1174</ele>
        <time>2014-01-31T08:21:22.000Z</time>
      </trkpt>
      <trkpt lat="45.55641" lon="6.60573">
        <ele>1174</ele>
        <time>2014-01-31T08:21:23.000Z</time>
      </trkpt>
      <trkpt lat="45.55641" lon="6.60573">
        <ele>1174.1999511719</ele>
        <time>2014-01-31T08:21:24.000Z</time>
      </trkpt>
      <trkpt lat="45.55641" lon="6.60573">
        <ele>1174.1999511719</ele>
        <time>2014-01-31T08:21:25.000Z</time>
      </trkpt>
      <trkpt lat="45.55641" lon="6.60573">
        <ele>1174.1999511719</ele>
        <time>2014-01-31T08:21:26.000Z</time>
      </trkpt>
      <trkpt lat="45.55641" lon="6.60573">
        <ele>1174.1999511719</ele>
        <time>2014-01-31T08:21:27.000Z</time>
      </trkpt>
      <trkpt lat="45.55641" lon="6.60573">
        <ele>1174.4000244141</ele>
        <time>2014-01-31T08:21:29.000Z</time>
      </trkpt>
      <trkpt lat="45.55641" lon="6.60573">
        <ele>1174.4000244141</ele>
        <time>2014-01-31T08:21:30.000Z</time>
      </trkpt>
      <trkpt lat="45.55641" lon="6.60573">
        <ele>1174.1999511719</ele>
        <time>2014-01-31T08:21:31.000Z</time>
      </trkpt>
      <trkpt lat="45.55641" lon="6.60573">
        <ele>1174.1999511719</ele>
        <time>2014-01-31T08:21:32.000Z</time>
      </trkpt>
      <trkpt lat="45.55641" lon="6.60572">
        <ele>1174.1999511719</ele>
        <time>2014-01-31T08:21:33.000Z</time>
      </trkpt>
      <trkpt lat="45.5564" lon="6.60571">
        <ele>1174.1999511719</ele>
        <time>2014-01-31T08:21:34.000Z</time>
      </trkpt>
      <trkpt lat="45.5564" lon="6.6057">
        <ele>1174.1999511719</ele>
        <time>2014-01-31T08:21:35.000Z</time>
      </trkpt>
      <trkpt lat="45.5564" lon="6.6057">
        <ele>1174.1999511719</ele>
        <time>2014-01-31T08:21:36.000Z</time>
      </trkpt>
      <trkpt lat="45.5564" lon="6.6057">
        <ele>1174.1999511719</ele>
        <time>2014-01-31T08:21:37.000Z</time>
      </trkpt>
      <trkpt lat="45.5564" lon="6.6057">
        <ele>1174.1999511719</ele>
        <time>2014-01-31T08:21:38.000Z</time>
      </trkpt>
      <trkpt lat="45.55639" lon="6.60568">
        <ele>1174.4000244141</ele>
        <time>2014-01-31T08:21:40.000Z</time>
      </trkpt>
      <trkpt lat="45.55639" lon="6.60566">
        <ele>1174.4000244141</ele>
        <time>2014-01-31T08:21:41.000Z</time>
      </trkpt>
      <trkpt lat="45.55638" lon="6.60565">
        <ele>1174.4000244141</ele>
        <time>2014-01-31T08:21:42.000Z</time>
      </trkpt>
      <trkpt lat="45.55638" lon="6.60563">
        <ele>1174.4000244141</ele>
        <time>2014-01-31T08:21:43.000Z</time>
      </trkpt>
      <trkpt lat="45.55637" lon="6.60562">
        <ele>1174.4000244141</ele>
        <time>2014-01-31T08:21:44.000Z</time>
      </trkpt>
      <trkpt lat="45.55637" lon="6.6056">
        <ele>1174.4000244141</ele>
        <time>2014-01-31T08:21:45.000Z</time>
      </trkpt>
      <trkpt lat="45.55636" lon="6.60559">
        <ele>1174.4000244141</ele>
        <time>2014-01-31T08:21:46.000Z</time>
      </trkpt>
      <trkpt lat="45.55636" lon="6.60558">
        <ele>1174.5999755859</ele>
        <time>2014-01-31T08:21:47.000Z</time>
      </trkpt>
      <trkpt lat="45.55635" lon="6.60556">
        <ele>1174.8000488281</ele>
        <time>2014-01-31T08:21:48.000Z</time>
      </trkpt>
      <trkpt lat="45.55635" lon="6.60555">
        <ele>1175</ele>
        <time>2014-01-31T08:21:49.000Z</time>
      </trkpt>
      <trkpt lat="45.55634" lon="6.60553">
        <ele>1175.4000244141</ele>
        <time>2014-01-31T08:21:50.000Z</time>
      </trkpt>
      <trkpt lat="45.55634" lon="6.60552">
        <ele>1175.5999755859</ele>
        <time>2014-01-31T08:21:51.000Z</time>
      </trkpt>
      <trkpt lat="45.55633" lon="6.60551">
        <ele>1175.5999755859</ele>
        <time>2014-01-31T08:21:52.000Z</time>
      </trkpt>
      <trkpt lat="45.55633" lon="6.6055">
        <ele>1175.8000488281</ele>
        <time>2014-01-31T08:21:53.000Z</time>
      </trkpt>
      <trkpt lat="45.55632" lon="6.60546">
        <ele>1175.8000488281</ele>
        <time>2014-01-31T08:21:56.000Z</time>
      </trkpt>
      <trkpt lat="45.55631" lon="6.60545">
        <ele>1176</ele>
        <time>2014-01-31T08:21:57.000Z</time>
      </trkpt>
      <trkpt lat="45.55631" lon="6.60543">
        <ele>1176.1999511719</ele>
        <time>2014-01-31T08:21:58.000Z</time>
      </trkpt>
      <trkpt lat="45.5563" lon="6.60542">
        <ele>1176.1999511719</ele>
        <time>2014-01-31T08:21:59.000Z</time>
      </trkpt>
      <trkpt lat="45.55629" lon="6.60541">
        <ele>1176.4000244141</ele>
        <time>2014-01-31T08:22:00.000Z</time>
      </trkpt>
      <trkpt lat="45.55628" lon="6.60539">
        <ele>1176.5999755859</ele>
        <time>2014-01-31T08:22:01.000Z</time>
      </trkpt>
      <trkpt lat="45.55628" lon="6.60538">
        <ele>1176.8000488281</ele>
        <time>2014-01-31T08:22:02.000Z</time>
      </trkpt>
      <trkpt lat="45.55627" lon="6.60537">
        <ele>1177</ele>
        <time>2014-01-31T08:22:03.000Z</time>
      </trkpt>
      <trkpt lat="45.55626" lon="6.60536">
        <ele>1177</ele>
        <time>2014-01-31T08:22:04.000Z</time>
      </trkpt>
      <trkpt lat="45.55626" lon="6.60535">
        <ele>1177.1999511719</ele>
        <time>2014-01-31T08:22:05.000Z</time>
      </trkpt>
      <trkpt lat="45.55625" lon="6.60534">
        <ele>1177.1999511719</ele>
        <time>2014-01-31T08:22:06.000Z</time>
      </trkpt>
      <trkpt lat="45.55625" lon="6.60533">
        <ele>1177.4000244141</ele>
        <time>2014-01-31T08:22:07.000Z</time>
      </trkpt>
      <trkpt lat="45.55625" lon="6.60532">
        <ele>1177.5999755859</ele>
        <time>2014-01-31T08:22:08.000Z</time>
      </trkpt>
      <trkpt lat="45.55624" lon="6.60532">
        <ele>1177.8000488281</ele>
        <time>2014-01-31T08:22:09.000Z</time>
      </trkpt>
      <trkpt lat="45.55623" lon="6.60532">
        <ele>1178</ele>
        <time>2014-01-31T08:22:10.000Z</time>
      </trkpt>
      <trkpt lat="45.55623" lon="6.6053">
        <ele>1178</ele>
        <time>2014-01-31T08:22:11.000Z</time>
      </trkpt>
      <trkpt lat="45.55622" lon="6.60528">
        <ele>1178.1999511719</ele>
        <time>2014-01-31T08:22:12.000Z</time>
      </trkpt>
      <trkpt lat="45.55622" lon="6.60527">
        <ele>1178.1999511719</ele>
        <time>2014-01-31T08:22:13.000Z</time>
      </trkpt>
      <trkpt lat="45.55622" lon="6.60526">
        <ele>1178.4000244141</ele>
        <time>2014-01-31T08:22:14.000Z</time>
      </trkpt>
      <trkpt lat="45.55622" lon="6.60523">
        <ele>1178.8000488281</ele>
        <time>2014-01-31T08:22:15.000Z</time>
      </trkpt>
      <trkpt lat="45.55622" lon="6.60522">
        <ele>1178.8000488281</ele>
        <time>2014-01-31T08:22:16.000Z</time>
      </trkpt>
      <trkpt lat="45.55622" lon="6.6052">
        <ele>1179</ele>
        <time>2014-01-31T08:22:17.000Z</time>
      </trkpt>
      <trkpt lat="45.55622" lon="6.60518">
        <ele>1179</ele>
        <time>2014-01-31T08:22:18.000Z</time>
      </trkpt>
      <trkpt lat="45.55621" lon="6.60516">
        <ele>1179.1999511719</ele>
        <time>2014-01-31T08:22:19.000Z</time>
      </trkpt>
      <trkpt lat="45.55621" lon="6.60515">
        <ele>1179.1999511719</ele>
        <time>2014-01-31T08:22:20.000Z</time>
      </trkpt>
      <trkpt lat="45.55621" lon="6.60514">
        <ele>1179.5999755859</ele>
        <time>2014-01-31T08:22:21.000Z</time>
      </trkpt>
      <trkpt lat="45.5562" lon="6.60512">
        <ele>1179.8000488281</ele>
        <time>2014-01-31T08:22:22.000Z</time>
      </trkpt>
      <trkpt lat="45.55621" lon="6.6051">
        <ele>1180</ele>
        <time>2014-01-31T08:22:23.000Z</time>
      </trkpt>
      <trkpt lat="45.55621" lon="6.60509">
        <ele>1180</ele>
        <time>2014-01-31T08:22:24.000Z</time>
      </trkpt>
      <trkpt lat="45.55621" lon="6.60507">
        <ele>1180.1999511719</ele>
        <time>2014-01-31T08:22:25.000Z</time>
      </trkpt>
      <trkpt lat="45.5562" lon="6.60505">
        <ele>1180.1999511719</ele>
        <time>2014-01-31T08:22:26.000Z</time>
      </trkpt>
      <trkpt lat="45.5562" lon="6.60503">
        <ele>1180.4000244141</ele>
        <time>2014-01-31T08:22:27.000Z</time>
      </trkpt>
      <trkpt lat="45.5562" lon="6.60501">
        <ele>1180.5999755859</ele>
        <time>2014-01-31T08:22:28.000Z</time>
      </trkpt>
      <trkpt lat="45.55619" lon="6.60499">
        <ele>1180.8000488281</ele>
        <time>2014-01-31T08:22:29.000Z</time>
      </trkpt>
      <trkpt lat="45.55619" lon="6.60498">
        <ele>1181</ele>
        <time>2014-01-31T08:22:30.000Z</time>
      </trkpt>
      <trkpt lat="45.55619" lon="6.60497">
        <ele>1181.1999511719</ele>
        <time>2014-01-31T08:22:31.000Z</time>
      </trkpt>
      <trkpt lat="45.55618" lon="6.60496">
        <ele>1181.4000244141</ele>
        <time>2014-01-31T08:22:32.000Z</time>
      </trkpt>
      <trkpt lat="45.55618" lon="6.60495">
        <ele>1181.4000244141</ele>
        <time>2014-01-31T08:22:33.000Z</time>
      </trkpt>
      <trkpt lat="45.55618" lon="6.60494">
        <ele>1181.5999755859</ele>
        <time>2014-01-31T08:22:34.000Z</time>
      </trkpt>
      <trkpt lat="45.55619" lon="6.60493">
        <ele>1181.5999755859</ele>
        <time>2014-01-31T08:22:35.000Z</time>
      </trkpt>
      <trkpt lat="45.55618" lon="6.60492">
        <ele>1181.5999755859</ele>
        <time>2014-01-31T08:22:36.000Z</time>
      </trkpt>
      <trkpt lat="45.55619" lon="6.6049">
        <ele>1181.5999755859</ele>
        <time>2014-01-31T08:22:37.000Z</time>
      </trkpt>
      <trkpt lat="45.55618" lon="6.60488">
        <ele>1181.8000488281</ele>
        <time>2014-01-31T08:22:38.000Z</time>
      </trkpt>
      <trkpt lat="45.55618" lon="6.60486">
        <ele>1181.8000488281</ele>
        <time>2014-01-31T08:22:39.000Z</time>
      </trkpt>
      <trkpt lat="45.55618" lon="6.60485">
        <ele>1182</ele>
        <time>2014-01-31T08:22:40.000Z</time>
      </trkpt>
      <trkpt lat="45.55618" lon="6.60484">
        <ele>1182.1999511719</ele>
        <time>2014-01-31T08:22:41.000Z</time>
      </trkpt>
      <trkpt lat="45.55618" lon="6.60482">
        <ele>1182.1999511719</ele>
        <time>2014-01-31T08:22:42.000Z</time>
      </trkpt>
      <trkpt lat="45.55618" lon="6.60481">
        <ele>1182.4000244141</ele>
        <time>2014-01-31T08:22:43.000Z</time>
      </trkpt>
      <trkpt lat="45.55617" lon="6.60479">
        <ele>1182.4000244141</ele>
        <time>2014-01-31T08:22:44.000Z</time>
      </trkpt>
      <trkpt lat="45.55617" lon="6.60477">
        <ele>1182.4000244141</ele>
        <time>2014-01-31T08:22:45.000Z</time>
      </trkpt>
      <trkpt lat="45.55617" lon="6.60476">
        <ele>1182.4000244141</ele>
        <time>2014-01-31T08:22:46.000Z</time>
      </trkpt>
      <trkpt lat="45.55617" lon="6.60475">
        <ele>1182.4000244141</ele>
        <time>2014-01-31T08:22:47.000Z</time>
      </trkpt>
      <trkpt lat="45.55616" lon="6.60474">
        <ele>1182.5999755859</ele>
        <time>2014-01-31T08:22:48.000Z</time>
      </trkpt>
      <trkpt lat="45.55616" lon="6.60473">
        <ele>1182.5999755859</ele>
        <time>2014-01-31T08:22:49.000Z</time>
      </trkpt>
      <trkpt lat="45.55616" lon="6.60472">
        <ele>1182.8000488281</ele>
        <time>2014-01-31T08:22:50.000Z</time>
      </trkpt>
      <trkpt lat="45.55616" lon="6.6047">
        <ele>1183</ele>
        <time>2014-01-31T08:22:51.000Z</time>
      </trkpt>
      <trkpt lat="45.55615" lon="6.60469">
        <ele>1183</ele>
        <time>2014-01-31T08:22:52.000Z</time>
      </trkpt>
      <trkpt lat="45.55615" lon="6.60468">
        <ele>1183.1999511719</ele>
        <time>2014-01-31T08:22:53.000Z</time>
      </trkpt>
      <trkpt lat="45.55615" lon="6.60467">
        <ele>1183.4000244141</ele>
        <time>2014-01-31T08:22:54.000Z</time>
      </trkpt>
      <trkpt lat="45.55615" lon="6.60466">
        <ele>1183.4000244141</ele>
        <time>2014-01-31T08:22:55.000Z</time>
      </trkpt>
      <trkpt lat="45.55615" lon="6.60465">
        <ele>1183.5999755859</ele>
        <time>2014-01-31T08:22:56.000Z</time>
      </trkpt>
      <trkpt lat="45.55615" lon="6.60464">
        <ele>1183.8000488281</ele>
        <time>2014-01-31T08:22:57.000Z</time>
      </trkpt>
      <trkpt lat="45.55615" lon="6.60463">
        <ele>1184</ele>
        <time>2014-01-31T08:22:58.000Z</time>
      </trkpt>
      <trkpt lat="45.55615" lon="6.60462">
        <ele>1184.1999511719</ele>
        <time>2014-01-31T08:22:59.000Z</time>
      </trkpt>
      <trkpt lat="45.55615" lon="6.60461">
        <ele>1184.4000244141</ele>
        <time>2014-01-31T08:23:00.000Z</time>
      </trkpt>
      <trkpt lat="45.55615" lon="6.60461">
        <ele>1184.4000244141</ele>
        <time>2014-01-31T08:23:01.000Z</time>
      </trkpt>
      <trkpt lat="45.55615" lon="6.6046">
        <ele>1184.5999755859</ele>
        <time>2014-01-31T08:23:02.000Z</time>
      </trkpt>
      <trkpt lat="45.55615" lon="6.60459">
        <ele>1184.8000488281</ele>
        <time>2014-01-31T08:23:03.000Z</time>
      </trkpt>
      <trkpt lat="45.55614" lon="6.60458">
        <ele>1184.8000488281</ele>
        <time>2014-01-31T08:23:04.000Z</time>
      </trkpt>
      <trkpt lat="45.55614" lon="6.60456">
        <ele>1185</ele>
        <time>2014-01-31T08:23:05.000Z</time>
      </trkpt>
      <trkpt lat="45.55614" lon="6.60455">
        <ele>1185</ele>
        <time>2014-01-31T08:23:06.000Z</time>
      </trkpt>
      <trkpt lat="45.55614" lon="6.60453">
        <ele>1185</ele>
        <time>2014-01-31T08:23:07.000Z</time>
      </trkpt>
      <trkpt lat="45.55614" lon="6.60452">
        <ele>1185.1999511719</ele>
        <time>2014-01-31T08:23:08.000Z</time>
      </trkpt>
      <trkpt lat="45.55613" lon="6.6045">
        <ele>1185.1999511719</ele>
        <time>2014-01-31T08:23:09.000Z</time>
      </trkpt>
      <trkpt lat="45.55614" lon="6.60448">
        <ele>1185.4000244141</ele>
        <time>2014-01-31T08:23:10.000Z</time>
      </trkpt>
      <trkpt lat="45.55613" lon="6.60446">
        <ele>1185.4000244141</ele>
        <time>2014-01-31T08:23:11.000Z</time>
      </trkpt>
      <trkpt lat="45.55613" lon="6.60444">
        <ele>1185.5999755859</ele>
        <time>2014-01-31T08:23:12.000Z</time>
      </trkpt>
      <trkpt lat="45.55612" lon="6.60443">
        <ele>1185.8000488281</ele>
        <time>2014-01-31T08:23:13.000Z</time>
      </trkpt>
      <trkpt lat="45.55612" lon="6.60441">
        <ele>1185.8000488281</ele>
        <time>2014-01-31T08:23:14.000Z</time>
      </trkpt>
      <trkpt lat="45.55611" lon="6.6044">
        <ele>1186</ele>
        <time>2014-01-31T08:23:15.000Z</time>
      </trkpt>
      <trkpt lat="45.55611" lon="6.60438">
        <ele>1186</ele>
        <time>2014-01-31T08:23:16.000Z</time>
      </trkpt>
      <trkpt lat="45.5561" lon="6.60436">
        <ele>1186</ele>
        <time>2014-01-31T08:23:17.000Z</time>
      </trkpt>
      <trkpt lat="45.5561" lon="6.60435">
        <ele>1186.1999511719</ele>
        <time>2014-01-31T08:23:18.000Z</time>
      </trkpt>
      <trkpt lat="45.5561" lon="6.60434">
        <ele>1186.4000244141</ele>
        <time>2014-01-31T08:23:19.000Z</time>
      </trkpt>
      <trkpt lat="45.5561" lon="6.60433">
        <ele>1187</ele>
        <time>2014-01-31T08:23:20.000Z</time>
      </trkpt>
      <trkpt lat="45.55609" lon="6.60432">
        <ele>1187</ele>
        <time>2014-01-31T08:23:21.000Z</time>
      </trkpt>
      <trkpt lat="45.55609" lon="6.60431">
        <ele>1187.1999511719</ele>
        <time>2014-01-31T08:23:22.000Z</time>
      </trkpt>
      <trkpt lat="45.55609" lon="6.60429">
        <ele>1187.4000244141</ele>
        <time>2014-01-31T08:23:23.000Z</time>
      </trkpt>
      <trkpt lat="45.55609" lon="6.60428">
        <ele>1187.5999755859</ele>
        <time>2014-01-31T08:23:24.000Z</time>
      </trkpt>
      <trkpt lat="45.55608" lon="6.60427">
        <ele>1187.5999755859</ele>
        <time>2014-01-31T08:23:25.000Z</time>
      </trkpt>
      <trkpt lat="45.55607" lon="6.60425">
        <ele>1187.8000488281</ele>
        <time>2014-01-31T08:23:26.000Z</time>
      </trkpt>
      <trkpt lat="45.55606" lon="6.60423">
        <ele>1187.8000488281</ele>
        <time>2014-01-31T08:23:27.000Z</time>
      </trkpt>
      <trkpt lat="45.55606" lon="6.60422">
        <ele>1188</ele>
        <time>2014-01-31T08:23:28.000Z</time>
      </trkpt>
      <trkpt lat="45.55605" lon="6.6042">
        <ele>1188</ele>
        <time>2014-01-31T08:23:29.000Z</time>
      </trkpt>
      <trkpt lat="45.55605" lon="6.60419">
        <ele>1188.1999511719</ele>
        <time>2014-01-31T08:23:30.000Z</time>
      </trkpt>
      <trkpt lat="45.55604" lon="6.60417">
        <ele>1188.1999511719</ele>
        <time>2014-01-31T08:23:31.000Z</time>
      </trkpt>
      <trkpt lat="45.55604" lon="6.60415">
        <ele>1188.1999511719</ele>
        <time>2014-01-31T08:23:32.000Z</time>
      </trkpt>
      <trkpt lat="45.55603" lon="6.60414">
        <ele>1188.1999511719</ele>
        <time>2014-01-31T08:23:33.000Z</time>
      </trkpt>
      <trkpt lat="45.55603" lon="6.60413">
        <ele>1188.4000244141</ele>
        <time>2014-01-31T08:23:34.000Z</time>
      </trkpt>
      <trkpt lat="45.55602" lon="6.60413">
        <ele>1188.4000244141</ele>
        <time>2014-01-31T08:23:35.000Z</time>
      </trkpt>
      <trkpt lat="45.55602" lon="6.60413">
        <ele>1188.5999755859</ele>
        <time>2014-01-31T08:23:36.000Z</time>
      </trkpt>
      <trkpt lat="45.55602" lon="6.60413">
        <ele>1188.8000488281</ele>
        <time>2014-01-31T08:23:37.000Z</time>
      </trkpt>
      <trkpt lat="45.55602" lon="6.60413">
        <ele>1188.8000488281</ele>
        <time>2014-01-31T08:23:38.000Z</time>
      </trkpt>
      <trkpt lat="45.55602" lon="6.60413">
        <ele>1189</ele>
        <time>2014-01-31T08:23:39.000Z</time>
      </trkpt>
      <trkpt lat="45.55602" lon="6.60413">
        <ele>1189.1999511719</ele>
        <time>2014-01-31T08:23:40.000Z</time>
      </trkpt>
      <trkpt lat="45.55602" lon="6.60413">
        <ele>1189.1999511719</ele>
        <time>2014-01-31T08:23:41.000Z</time>
      </trkpt>
      <trkpt lat="45.55602" lon="6.60413">
        <ele>1189.1999511719</ele>
        <time>2014-01-31T08:23:42.000Z</time>
      </trkpt>
      <trkpt lat="45.55602" lon="6.60413">
        <ele>1189.1999511719</ele>
        <time>2014-01-31T08:23:43.000Z</time>
      </trkpt>
      <trkpt lat="45.55602" lon="6.60413">
        <ele>1189.1999511719</ele>
        <time>2014-01-31T08:23:44.000Z</time>
      </trkpt>
      <trkpt lat="45.55602" lon="6.60412">
        <ele>1189.1999511719</ele>
        <time>2014-01-31T08:23:46.000Z</time>
      </trkpt>
      <trkpt lat="45.55601" lon="6.60411">
        <ele>1189.1999511719</ele>
        <time>2014-01-31T08:23:47.000Z</time>
      </trkpt>
      <trkpt lat="45.55601" lon="6.6041">
        <ele>1189.4000244141</ele>
        <time>2014-01-31T08:23:48.000Z</time>
      </trkpt>
      <trkpt lat="45.556" lon="6.6041">
        <ele>1189.5999755859</ele>
        <time>2014-01-31T08:23:49.000Z</time>
      </trkpt>
      <trkpt lat="45.55599" lon="6.60409">
        <ele>1189.8000488281</ele>
        <time>2014-01-31T08:23:50.000Z</time>
      </trkpt>
      <trkpt lat="45.55599" lon="6.60408">
        <ele>1190</ele>
        <time>2014-01-31T08:23:51.000Z</time>
      </trkpt>
      <trkpt lat="45.55598" lon="6.60406">
        <ele>1190</ele>
        <time>2014-01-31T08:23:52.000Z</time>
      </trkpt>
      <trkpt lat="45.55597" lon="6.60404">
        <ele>1190</ele>
        <time>2014-01-31T08:23:53.000Z</time>
      </trkpt>
      <trkpt lat="45.55596" lon="6.60403">
        <ele>1190</ele>
        <time>2014-01-31T08:23:54.000Z</time>
      </trkpt>
      <trkpt lat="45.55596" lon="6.60402">
        <ele>1190.1999511719</ele>
        <time>2014-01-31T08:23:55.000Z</time>
      </trkpt>
      <trkpt lat="45.55595" lon="6.604">
        <ele>1190.1999511719</ele>
        <time>2014-01-31T08:23:56.000Z</time>
      </trkpt>
      <trkpt lat="45.55595" lon="6.60399">
        <ele>1190.1999511719</ele>
        <time>2014-01-31T08:23:57.000Z</time>
      </trkpt>
      <trkpt lat="45.55595" lon="6.60398">
        <ele>1190.1999511719</ele>
        <time>2014-01-31T08:23:58.000Z</time>
      </trkpt>
      <trkpt lat="45.55595" lon="6.60396">
        <ele>1190.4000244141</ele>
        <time>2014-01-31T08:23:59.000Z</time>
      </trkpt>
      <trkpt lat="45.55595" lon="6.60396">
        <ele>1190.5999755859</ele>
        <time>2014-01-31T08:24:00.000Z</time>
      </trkpt>
      <trkpt lat="45.55594" lon="6.60395">
        <ele>1190.5999755859</ele>
        <time>2014-01-31T08:24:01.000Z</time>
      </trkpt>
      <trkpt lat="45.55594" lon="6.60393">
        <ele>1190.8000488281</ele>
        <time>2014-01-31T08:24:02.000Z</time>
      </trkpt>
      <trkpt lat="45.55594" lon="6.60392">
        <ele>1191</ele>
        <time>2014-01-31T08:24:03.000Z</time>
      </trkpt>
      <trkpt lat="45.55594" lon="6.6039">
        <ele>1191.1999511719</ele>
        <time>2014-01-31T08:24:04.000Z</time>
      </trkpt>
      <trkpt lat="45.55594" lon="6.60388">
        <ele>1191.1999511719</ele>
        <time>2014-01-31T08:24:05.000Z</time>
      </trkpt>
      <trkpt lat="45.55593" lon="6.60386">
        <ele>1191.4000244141</ele>
        <time>2014-01-31T08:24:06.000Z</time>
      </trkpt>
      <trkpt lat="45.55593" lon="6.60386">
        <ele>1191.4000244141</ele>
        <time>2014-01-31T08:24:07.000Z</time>
      </trkpt>
      <trkpt lat="45.55593" lon="6.60385">
        <ele>1191.8000488281</ele>
        <time>2014-01-31T08:24:08.000Z</time>
      </trkpt>
      <trkpt lat="45.55593" lon="6.60383">
        <ele>1192</ele>
        <time>2014-01-31T08:24:09.000Z</time>
      </trkpt>
      <trkpt lat="45.55593" lon="6.60382">
        <ele>1192.1999511719</ele>
        <time>2014-01-31T08:24:10.000Z</time>
      </trkpt>
      <trkpt lat="45.55593" lon="6.60381">
        <ele>1192.4000244141</ele>
        <time>2014-01-31T08:24:11.000Z</time>
      </trkpt>
      <trkpt lat="45.55594" lon="6.6038">
        <ele>1192.4000244141</ele>
        <time>2014-01-31T08:24:12.000Z</time>
      </trkpt>
      <trkpt lat="45.55594" lon="6.60379">
        <ele>1192.5999755859</ele>
        <time>2014-01-31T08:24:13.000Z</time>
      </trkpt>
      <trkpt lat="45.55594" lon="6.60378">
        <ele>1192.5999755859</ele>
        <time>2014-01-31T08:24:14.000Z</time>
      </trkpt>
      <trkpt lat="45.55595" lon="6.60377">
        <ele>1192.8000488281</ele>
        <time>2014-01-31T08:24:15.000Z</time>
      </trkpt>
      <trkpt lat="45.55595" lon="6.60376">
        <ele>1192.8000488281</ele>
        <time>2014-01-31T08:24:16.000Z</time>
      </trkpt>
      <trkpt lat="45.55596" lon="6.60375">
        <ele>1193</ele>
        <time>2014-01-31T08:24:17.000Z</time>
      </trkpt>
      <trkpt lat="45.55597" lon="6.60374">
        <ele>1193</ele>
        <time>2014-01-31T08:24:18.000Z</time>
      </trkpt>
      <trkpt lat="45.55597" lon="6.60373">
        <ele>1193.1999511719</ele>
        <time>2014-01-31T08:24:19.000Z</time>
      </trkpt>
      <trkpt lat="45.55598" lon="6.60372">
        <ele>1193.4000244141</ele>
        <time>2014-01-31T08:24:20.000Z</time>
      </trkpt>
      <trkpt lat="45.55599" lon="6.60371">
        <ele>1193.5999755859</ele>
        <time>2014-01-31T08:24:21.000Z</time>
      </trkpt>
      <trkpt lat="45.55599" lon="6.60371">
        <ele>1193.5999755859</ele>
        <time>2014-01-31T08:24:22.000Z</time>
      </trkpt>
      <trkpt lat="45.556" lon="6.60369">
        <ele>1193.8000488281</ele>
        <time>2014-01-31T08:24:23.000Z</time>
      </trkpt>
      <trkpt lat="45.55601" lon="6.60367">
        <ele>1194</ele>
        <time>2014-01-31T08:24:24.000Z</time>
      </trkpt>
      <trkpt lat="45.55602" lon="6.60366">
        <ele>1194</ele>
        <time>2014-01-31T08:24:25.000Z</time>
      </trkpt>
      <trkpt lat="45.55602" lon="6.60365">
        <ele>1194.1999511719</ele>
        <time>2014-01-31T08:24:26.000Z</time>
      </trkpt>
      <trkpt lat="45.55603" lon="6.60363">
        <ele>1194.4000244141</ele>
        <time>2014-01-31T08:24:27.000Z</time>
      </trkpt>
      <trkpt lat="45.55604" lon="6.60362">
        <ele>1194.4000244141</ele>
        <time>2014-01-31T08:24:28.000Z</time>
      </trkpt>
      <trkpt lat="45.55605" lon="6.6036">
        <ele>1194.5999755859</ele>
        <time>2014-01-31T08:24:29.000Z</time>
      </trkpt>
      <trkpt lat="45.55605" lon="6.60359">
        <ele>1194.8000488281</ele>
        <time>2014-01-31T08:24:30.000Z</time>
      </trkpt>
      <trkpt lat="45.55606" lon="6.60357">
        <ele>1194.8000488281</ele>
        <time>2014-01-31T08:24:31.000Z</time>
      </trkpt>
      <trkpt lat="45.55606" lon="6.60356">
        <ele>1195</ele>
        <time>2014-01-31T08:24:32.000Z</time>
      </trkpt>
      <trkpt lat="45.55607" lon="6.60355">
        <ele>1195.1999511719</ele>
        <time>2014-01-31T08:24:33.000Z</time>
      </trkpt>
      <trkpt lat="45.55607" lon="6.60354">
        <ele>1195.1999511719</ele>
        <time>2014-01-31T08:24:34.000Z</time>
      </trkpt>
      <trkpt lat="45.55607" lon="6.60353">
        <ele>1195.4000244141</ele>
        <time>2014-01-31T08:24:35.000Z</time>
      </trkpt>
      <trkpt lat="45.55608" lon="6.60352">
        <ele>1195.5999755859</ele>
        <time>2014-01-31T08:24:36.000Z</time>
      </trkpt>
      <trkpt lat="45.55608" lon="6.60351">
        <ele>1195.5999755859</ele>
        <time>2014-01-31T08:24:37.000Z</time>
      </trkpt>
      <trkpt lat="45.55609" lon="6.60349">
        <ele>1195.5999755859</ele>
        <time>2014-01-31T08:24:38.000Z</time>
      </trkpt>
      <trkpt lat="45.5561" lon="6.60347">
        <ele>1195.8000488281</ele>
        <time>2014-01-31T08:24:39.000Z</time>
      </trkpt>
      <trkpt lat="45.5561" lon="6.60345">
        <ele>1195.8000488281</ele>
        <time>2014-01-31T08:24:40.000Z</time>
      </trkpt>
      <trkpt lat="45.55611" lon="6.60343">
        <ele>1196</ele>
        <time>2014-01-31T08:24:41.000Z</time>
      </trkpt>
      <trkpt lat="45.55612" lon="6.60341">
        <ele>1196.1999511719</ele>
        <time>2014-01-31T08:24:42.000Z</time>
      </trkpt>
      <trkpt lat="45.55612" lon="6.60339">
        <ele>1196.4000244141</ele>
        <time>2014-01-31T08:24:43.000Z</time>
      </trkpt>
      <trkpt lat="45.55613" lon="6.60337">
        <ele>1196.4000244141</ele>
        <time>2014-01-31T08:24:44.000Z</time>
      </trkpt>
      <trkpt lat="45.55613" lon="6.60336">
        <ele>1196.5999755859</ele>
        <time>2014-01-31T08:24:45.000Z</time>
      </trkpt>
      <trkpt lat="45.55614" lon="6.60335">
        <ele>1196.8000488281</ele>
        <time>2014-01-31T08:24:46.000Z</time>
      </trkpt>
      <trkpt lat="45.55614" lon="6.60334">
        <ele>1196.8000488281</ele>
        <time>2014-01-31T08:24:47.000Z</time>
      </trkpt>
      <trkpt lat="45.55614" lon="6.60332">
        <ele>1197</ele>
        <time>2014-01-31T08:24:48.000Z</time>
      </trkpt>
      <trkpt lat="45.55614" lon="6.60331">
        <ele>1197</ele>
        <time>2014-01-31T08:24:49.000Z</time>
      </trkpt>
      <trkpt lat="45.55615" lon="6.6033">
        <ele>1197</ele>
        <time>2014-01-31T08:24:50.000Z</time>
      </trkpt>
      <trkpt lat="45.55615" lon="6.60328">
        <ele>1197.1999511719</ele>
        <time>2014-01-31T08:24:51.000Z</time>
      </trkpt>
      <trkpt lat="45.55615" lon="6.60327">
        <ele>1197.4000244141</ele>
        <time>2014-01-31T08:24:52.000Z</time>
      </trkpt>
      <trkpt lat="45.55616" lon="6.60325">
        <ele>1197.4000244141</ele>
        <time>2014-01-31T08:24:53.000Z</time>
      </trkpt>
      <trkpt lat="45.55615" lon="6.60324">
        <ele>1197.5999755859</ele>
        <time>2014-01-31T08:24:54.000Z</time>
      </trkpt>
      <trkpt lat="45.55615" lon="6.60323">
        <ele>1197.8000488281</ele>
        <time>2014-01-31T08:24:55.000Z</time>
      </trkpt>
      <trkpt lat="45.55615" lon="6.60321">
        <ele>1198.1999511719</ele>
        <time>2014-01-31T08:24:56.000Z</time>
      </trkpt>
      <trkpt lat="45.55615" lon="6.60319">
        <ele>1198.4000244141</ele>
        <time>2014-01-31T08:24:57.000Z</time>
      </trkpt>
      <trkpt lat="45.55615" lon="6.60318">
        <ele>1198.5999755859</ele>
        <time>2014-01-31T08:24:58.000Z</time>
      </trkpt>
      <trkpt lat="45.55615" lon="6.60317">
        <ele>1198.5999755859</ele>
        <time>2014-01-31T08:24:59.000Z</time>
      </trkpt>
      <trkpt lat="45.55614" lon="6.60315">
        <ele>1198.8000488281</ele>
        <time>2014-01-31T08:25:00.000Z</time>
      </trkpt>
      <trkpt lat="45.55614" lon="6.60313">
        <ele>1198.8000488281</ele>
        <time>2014-01-31T08:25:01.000Z</time>
      </trkpt>
      <trkpt lat="45.55614" lon="6.60311">
        <ele>1199</ele>
        <time>2014-01-31T08:25:02.000Z</time>
      </trkpt>
      <trkpt lat="45.55614" lon="6.60309">
        <ele>1199.1999511719</ele>
        <time>2014-01-31T08:25:03.000Z</time>
      </trkpt>
      <trkpt lat="45.55614" lon="6.60307">
        <ele>1199.1999511719</ele>
        <time>2014-01-31T08:25:04.000Z</time>
      </trkpt>
      <trkpt lat="45.55614" lon="6.60305">
        <ele>1199.4000244141</ele>
        <time>2014-01-31T08:25:05.000Z</time>
      </trkpt>
      <trkpt lat="45.55614" lon="6.60303">
        <ele>1199.5999755859</ele>
        <time>2014-01-31T08:25:06.000Z</time>
      </trkpt>
      <trkpt lat="45.55613" lon="6.60302">
        <ele>1199.8000488281</ele>
        <time>2014-01-31T08:25:07.000Z</time>
      </trkpt>
      <trkpt lat="45.55612" lon="6.603">
        <ele>1200</ele>
        <time>2014-01-31T08:25:08.000Z</time>
      </trkpt>
      <trkpt lat="45.55611" lon="6.60299">
        <ele>1200</ele>
        <time>2014-01-31T08:25:09.000Z</time>
      </trkpt>
      <trkpt lat="45.5561" lon="6.60298">
        <ele>1200.1999511719</ele>
        <time>2014-01-31T08:25:10.000Z</time>
      </trkpt>
      <trkpt lat="45.55609" lon="6.60297">
        <ele>1200.1999511719</ele>
        <time>2014-01-31T08:25:11.000Z</time>
      </trkpt>
      <trkpt lat="45.55608" lon="6.60295">
        <ele>1200.4000244141</ele>
        <time>2014-01-31T08:25:12.000Z</time>
      </trkpt>
      <trkpt lat="45.55607" lon="6.60294">
        <ele>1200.4000244141</ele>
        <time>2014-01-31T08:25:13.000Z</time>
      </trkpt>
      <trkpt lat="45.55606" lon="6.60293">
        <ele>1200.4000244141</ele>
        <time>2014-01-31T08:25:14.000Z</time>
      </trkpt>
      <trkpt lat="45.55605" lon="6.60292">
        <ele>1200.5999755859</ele>
        <time>2014-01-31T08:25:15.000Z</time>
      </trkpt>
      <trkpt lat="45.55604" lon="6.60291">
        <ele>1200.5999755859</ele>
        <time>2014-01-31T08:25:16.000Z</time>
      </trkpt>
      <trkpt lat="45.55604" lon="6.60289">
        <ele>1200.8000488281</ele>
        <time>2014-01-31T08:25:17.000Z</time>
      </trkpt>
      <trkpt lat="45.55602" lon="6.60289">
        <ele>1201</ele>
        <time>2014-01-31T08:25:18.000Z</time>
      </trkpt>
      <trkpt lat="45.55601" lon="6.60289">
        <ele>1201</ele>
        <time>2014-01-31T08:25:19.000Z</time>
      </trkpt>
      <trkpt lat="45.55599" lon="6.60288">
        <ele>1201.1999511719</ele>
        <time>2014-01-31T08:25:20.000Z</time>
      </trkpt>
      <trkpt lat="45.55598" lon="6.60287">
        <ele>1201.1999511719</ele>
        <time>2014-01-31T08:25:21.000Z</time>
      </trkpt>
      <trkpt lat="45.55596" lon="6.60286">
        <ele>1201.4000244141</ele>
        <time>2014-01-31T08:25:22.000Z</time>
      </trkpt>
      <trkpt lat="45.55595" lon="6.60284">
        <ele>1201.5999755859</ele>
        <time>2014-01-31T08:25:23.000Z</time>
      </trkpt>
      <trkpt lat="45.55594" lon="6.60283">
        <ele>1201.5999755859</ele>
        <time>2014-01-31T08:25:24.000Z</time>
      </trkpt>
      <trkpt lat="45.55593" lon="6.60282">
        <ele>1201.8000488281</ele>
        <time>2014-01-31T08:25:25.000Z</time>
      </trkpt>
      <trkpt lat="45.55592" lon="6.60281">
        <ele>1202</ele>
        <time>2014-01-31T08:25:26.000Z</time>
      </trkpt>
      <trkpt lat="45.55591" lon="6.60279">
        <ele>1202</ele>
        <time>2014-01-31T08:25:27.000Z</time>
      </trkpt>
      <trkpt lat="45.55591" lon="6.60278">
        <ele>1202.1999511719</ele>
        <time>2014-01-31T08:25:28.000Z</time>
      </trkpt>
      <trkpt lat="45.5559" lon="6.60276">
        <ele>1202.4000244141</ele>
        <time>2014-01-31T08:25:29.000Z</time>
      </trkpt>
      <trkpt lat="45.55589" lon="6.60275">
        <ele>1202.5999755859</ele>
        <time>2014-01-31T08:25:30.000Z</time>
      </trkpt>
      <trkpt lat="45.55587" lon="6.60274">
        <ele>1202.8000488281</ele>
        <time>2014-01-31T08:25:31.000Z</time>
      </trkpt>
      <trkpt lat="45.55586" lon="6.60274">
        <ele>1203</ele>
        <time>2014-01-31T08:25:32.000Z</time>
      </trkpt>
      <trkpt lat="45.55585" lon="6.60273">
        <ele>1203.1999511719</ele>
        <time>2014-01-31T08:25:33.000Z</time>
      </trkpt>
      <trkpt lat="45.55584" lon="6.60272">
        <ele>1203.4000244141</ele>
        <time>2014-01-31T08:25:34.000Z</time>
      </trkpt>
      <trkpt lat="45.55583" lon="6.60271">
        <ele>1203.4000244141</ele>
        <time>2014-01-31T08:25:35.000Z</time>
      </trkpt>
      <trkpt lat="45.55582" lon="6.60271">
        <ele>1203.5999755859</ele>
        <time>2014-01-31T08:25:36.000Z</time>
      </trkpt>
      <trkpt lat="45.55582" lon="6.6027">
        <ele>1203.5999755859</ele>
        <time>2014-01-31T08:25:37.000Z</time>
      </trkpt>
      <trkpt lat="45.55581" lon="6.6027">
        <ele>1203.8000488281</ele>
        <time>2014-01-31T08:25:38.000Z</time>
      </trkpt>
      <trkpt lat="45.5558" lon="6.60269">
        <ele>1204</ele>
        <time>2014-01-31T08:25:39.000Z</time>
      </trkpt>
      <trkpt lat="45.55578" lon="6.60269">
        <ele>1204</ele>
        <time>2014-01-31T08:25:40.000Z</time>
      </trkpt>
      <trkpt lat="45.55577" lon="6.60268">
        <ele>1204</ele>
        <time>2014-01-31T08:25:41.000Z</time>
      </trkpt>
      <trkpt lat="45.55576" lon="6.60268">
        <ele>1204.1999511719</ele>
        <time>2014-01-31T08:25:42.000Z</time>
      </trkpt>
      <trkpt lat="45.55575" lon="6.60268">
        <ele>1204.1999511719</ele>
        <time>2014-01-31T08:25:43.000Z</time>
      </trkpt>
      <trkpt lat="45.55574" lon="6.60268">
        <ele>1204.5999755859</ele>
        <time>2014-01-31T08:25:44.000Z</time>
      </trkpt>
      <trkpt lat="45.55573" lon="6.60267">
        <ele>1204.5999755859</ele>
        <time>2014-01-31T08:25:45.000Z</time>
      </trkpt>
      <trkpt lat="45.55572" lon="6.60267">
        <ele>1204.8000488281</ele>
        <time>2014-01-31T08:25:46.000Z</time>
      </trkpt>
      <trkpt lat="45.55571" lon="6.60266">
        <ele>1205</ele>
        <time>2014-01-31T08:25:47.000Z</time>
      </trkpt>
      <trkpt lat="45.5557" lon="6.60266">
        <ele>1205</ele>
        <time>2014-01-31T08:25:48.000Z</time>
      </trkpt>
      <trkpt lat="45.55569" lon="6.60265">
        <ele>1205.1999511719</ele>
        <time>2014-01-31T08:25:49.000Z</time>
      </trkpt>
      <trkpt lat="45.55567" lon="6.60265">
        <ele>1205.1999511719</ele>
        <time>2014-01-31T08:25:50.000Z</time>
      </trkpt>
      <trkpt lat="45.55566" lon="6.60265">
        <ele>1205.4000244141</ele>
        <time>2014-01-31T08:25:51.000Z</time>
      </trkpt>
      <trkpt lat="45.55565" lon="6.60264">
        <ele>1205.5999755859</ele>
        <time>2014-01-31T08:25:52.000Z</time>
      </trkpt>
      <trkpt lat="45.55563" lon="6.60264">
        <ele>1205.5999755859</ele>
        <time>2014-01-31T08:25:53.000Z</time>
      </trkpt>
      <trkpt lat="45.55562" lon="6.60263">
        <ele>1205.8000488281</ele>
        <time>2014-01-31T08:25:54.000Z</time>
      </trkpt>
      <trkpt lat="45.5556" lon="6.60263">
        <ele>1206</ele>
        <time>2014-01-31T08:25:55.000Z</time>
      </trkpt>
      <trkpt lat="45.55559" lon="6.60263">
        <ele>1206</ele>
        <time>2014-01-31T08:25:56.000Z</time>
      </trkpt>
      <trkpt lat="45.55558" lon="6.60263">
        <ele>1206.1999511719</ele>
        <time>2014-01-31T08:25:57.000Z</time>
      </trkpt>
      <trkpt lat="45.55557" lon="6.60262">
        <ele>1206.1999511719</ele>
        <time>2014-01-31T08:25:58.000Z</time>
      </trkpt>
      <trkpt lat="45.55556" lon="6.60261">
        <ele>1206.4000244141</ele>
        <time>2014-01-31T08:25:59.000Z</time>
      </trkpt>
      <trkpt lat="45.55555" lon="6.6026">
        <ele>1206.4000244141</ele>
        <time>2014-01-31T08:26:00.000Z</time>
      </trkpt>
      <trkpt lat="45.55554" lon="6.60259">
        <ele>1206.5999755859</ele>
        <time>2014-01-31T08:26:01.000Z</time>
      </trkpt>
      <trkpt lat="45.55553" lon="6.60259">
        <ele>1206.5999755859</ele>
        <time>2014-01-31T08:26:02.000Z</time>
      </trkpt>
      <trkpt lat="45.55552" lon="6.60258">
        <ele>1206.8000488281</ele>
        <time>2014-01-31T08:26:03.000Z</time>
      </trkpt>
      <trkpt lat="45.55551" lon="6.60257">
        <ele>1206.8000488281</ele>
        <time>2014-01-31T08:26:04.000Z</time>
      </trkpt>
      <trkpt lat="45.5555" lon="6.60256">
        <ele>1207</ele>
        <time>2014-01-31T08:26:05.000Z</time>
      </trkpt>
      <trkpt lat="45.55549" lon="6.60255">
        <ele>1207</ele>
        <time>2014-01-31T08:26:06.000Z</time>
      </trkpt>
      <trkpt lat="45.55548" lon="6.60255">
        <ele>1207.1999511719</ele>
        <time>2014-01-31T08:26:07.000Z</time>
      </trkpt>
      <trkpt lat="45.55547" lon="6.60254">
        <ele>1207.5999755859</ele>
        <time>2014-01-31T08:26:08.000Z</time>
      </trkpt>
      <trkpt lat="45.55546" lon="6.60254">
        <ele>1207.8000488281</ele>
        <time>2014-01-31T08:26:09.000Z</time>
      </trkpt>
      <trkpt lat="45.55545" lon="6.60254">
        <ele>1208</ele>
        <time>2014-01-31T08:26:10.000Z</time>
      </trkpt>
      <trkpt lat="45.55544" lon="6.60254">
        <ele>1208</ele>
        <time>2014-01-31T08:26:11.000Z</time>
      </trkpt>
      <trkpt lat="45.55543" lon="6.60253">
        <ele>1208.1999511719</ele>
        <time>2014-01-31T08:26:12.000Z</time>
      </trkpt>
      <trkpt lat="45.55542" lon="6.60252">
        <ele>1208.4000244141</ele>
        <time>2014-01-31T08:26:13.000Z</time>
      </trkpt>
      <trkpt lat="45.55541" lon="6.60251">
        <ele>1208.5999755859</ele>
        <time>2014-01-31T08:26:14.000Z</time>
      </trkpt>
      <trkpt lat="45.5554" lon="6.6025">
        <ele>1208.5999755859</ele>
        <time>2014-01-31T08:26:15.000Z</time>
      </trkpt>
      <trkpt lat="45.55539" lon="6.60249">
        <ele>1208.8000488281</ele>
        <time>2014-01-31T08:26:16.000Z</time>
      </trkpt>
      <trkpt lat="45.55538" lon="6.60248">
        <ele>1208.8000488281</ele>
        <time>2014-01-31T08:26:17.000Z</time>
      </trkpt>
      <trkpt lat="45.55537" lon="6.60247">
        <ele>1209</ele>
        <time>2014-01-31T08:26:18.000Z</time>
      </trkpt>
      <trkpt lat="45.55535" lon="6.60246">
        <ele>1209</ele>
        <time>2014-01-31T08:26:19.000Z</time>
      </trkpt>
      <trkpt lat="45.55534" lon="6.60245">
        <ele>1209</ele>
        <time>2014-01-31T08:26:20.000Z</time>
      </trkpt>
      <trkpt lat="45.55533" lon="6.60244">
        <ele>1209.1999511719</ele>
        <time>2014-01-31T08:26:21.000Z</time>
      </trkpt>
      <trkpt lat="45.55532" lon="6.60243">
        <ele>1209.1999511719</ele>
        <time>2014-01-31T08:26:22.000Z</time>
      </trkpt>
      <trkpt lat="45.55531" lon="6.60242">
        <ele>1209.5999755859</ele>
        <time>2014-01-31T08:26:23.000Z</time>
      </trkpt>
      <trkpt lat="45.5553" lon="6.60241">
        <ele>1209.8000488281</ele>
        <time>2014-01-31T08:26:24.000Z</time>
      </trkpt>
      <trkpt lat="45.5553" lon="6.6024">
        <ele>1209.8000488281</ele>
        <time>2014-01-31T08:26:25.000Z</time>
      </trkpt>
      <trkpt lat="45.55529" lon="6.60239">
        <ele>1210</ele>
        <time>2014-01-31T08:26:26.000Z</time>
      </trkpt>
      <trkpt lat="45.55528" lon="6.60238">
        <ele>1210</ele>
        <time>2014-01-31T08:26:27.000Z</time>
      </trkpt>
      <trkpt lat="45.55527" lon="6.60236">
        <ele>1210.1999511719</ele>
        <time>2014-01-31T08:26:28.000Z</time>
      </trkpt>
      <trkpt lat="45.55527" lon="6.60235">
        <ele>1210.1999511719</ele>
        <time>2014-01-31T08:26:29.000Z</time>
      </trkpt>
      <trkpt lat="45.55526" lon="6.60234">
        <ele>1210.4000244141</ele>
        <time>2014-01-31T08:26:30.000Z</time>
      </trkpt>
      <trkpt lat="45.55525" lon="6.60233">
        <ele>1210.5999755859</ele>
        <time>2014-01-31T08:26:31.000Z</time>
      </trkpt>
      <trkpt lat="45.55525" lon="6.60232">
        <ele>1210.8000488281</ele>
        <time>2014-01-31T08:26:32.000Z</time>
      </trkpt>
      <trkpt lat="45.55524" lon="6.60231">
        <ele>1211</ele>
        <time>2014-01-31T08:26:33.000Z</time>
      </trkpt>
      <trkpt lat="45.55523" lon="6.6023">
        <ele>1211.1999511719</ele>
        <time>2014-01-31T08:26:34.000Z</time>
      </trkpt>
      <trkpt lat="45.55523" lon="6.60229">
        <ele>1211.1999511719</ele>
        <time>2014-01-31T08:26:35.000Z</time>
      </trkpt>
      <trkpt lat="45.55522" lon="6.60228">
        <ele>1211.4000244141</ele>
        <time>2014-01-31T08:26:36.000Z</time>
      </trkpt>
      <trkpt lat="45.55522" lon="6.60227">
        <ele>1211.4000244141</ele>
        <time>2014-01-31T08:26:37.000Z</time>
      </trkpt>
      <trkpt lat="45.55521" lon="6.60225">
        <ele>1211.5999755859</ele>
        <time>2014-01-31T08:26:38.000Z</time>
      </trkpt>
      <trkpt lat="45.55521" lon="6.60224">
        <ele>1211.8000488281</ele>
        <time>2014-01-31T08:26:39.000Z</time>
      </trkpt>
      <trkpt lat="45.55521" lon="6.60222">
        <ele>1212</ele>
        <time>2014-01-31T08:26:40.000Z</time>
      </trkpt>
      <trkpt lat="45.55521" lon="6.6022">
        <ele>1212</ele>
        <time>2014-01-31T08:26:41.000Z</time>
      </trkpt>
      <trkpt lat="45.55521" lon="6.60219">
        <ele>1212.1999511719</ele>
        <time>2014-01-31T08:26:42.000Z</time>
      </trkpt>
      <trkpt lat="45.55521" lon="6.60217">
        <ele>1212.1999511719</ele>
        <time>2014-01-31T08:26:43.000Z</time>
      </trkpt>
      <trkpt lat="45.55521" lon="6.60216">
        <ele>1212.4000244141</ele>
        <time>2014-01-31T08:26:44.000Z</time>
      </trkpt>
      <trkpt lat="45.55521" lon="6.60215">
        <ele>1212.4000244141</ele>
        <time>2014-01-31T08:26:45.000Z</time>
      </trkpt>
      <trkpt lat="45.55521" lon="6.60213">
        <ele>1212.5999755859</ele>
        <time>2014-01-31T08:26:46.000Z</time>
      </trkpt>
      <trkpt lat="45.55521" lon="6.60212">
        <ele>1212.5999755859</ele>
        <time>2014-01-31T08:26:47.000Z</time>
      </trkpt>
      <trkpt lat="45.5552" lon="6.60209">
        <ele>1212.8000488281</ele>
        <time>2014-01-31T08:26:48.000Z</time>
      </trkpt>
      <trkpt lat="45.5552" lon="6.60207">
        <ele>1213</ele>
        <time>2014-01-31T08:26:50.000Z</time>
      </trkpt>
      <trkpt lat="45.5552" lon="6.60206">
        <ele>1213</ele>
        <time>2014-01-31T08:26:51.000Z</time>
      </trkpt>
      <trkpt lat="45.5552" lon="6.60204">
        <ele>1213.1999511719</ele>
        <time>2014-01-31T08:26:52.000Z</time>
      </trkpt>
      <trkpt lat="45.55519" lon="6.60204">
        <ele>1213.4000244141</ele>
        <time>2014-01-31T08:26:53.000Z</time>
      </trkpt>
      <trkpt lat="45.55518" lon="6.60204">
        <ele>1213.4000244141</ele>
        <time>2014-01-31T08:26:54.000Z</time>
      </trkpt>
      <trkpt lat="45.55517" lon="6.60203">
        <ele>1213.5999755859</ele>
        <time>2014-01-31T08:26:55.000Z</time>
      </trkpt>
      <trkpt lat="45.55517" lon="6.60202">
        <ele>1214</ele>
        <time>2014-01-31T08:26:56.000Z</time>
      </trkpt>
      <trkpt lat="45.55517" lon="6.60201">
        <ele>1214.1999511719</ele>
        <time>2014-01-31T08:26:57.000Z</time>
      </trkpt>
      <trkpt lat="45.55517" lon="6.60199">
        <ele>1214.4000244141</ele>
        <time>2014-01-31T08:26:58.000Z</time>
      </trkpt>
      <trkpt lat="45.55517" lon="6.60198">
        <ele>1214.5999755859</ele>
        <time>2014-01-31T08:26:59.000Z</time>
      </trkpt>
      <trkpt lat="45.55517" lon="6.60196">
        <ele>1214.5999755859</ele>
        <time>2014-01-31T08:27:00.000Z</time>
      </trkpt>
      <trkpt lat="45.55517" lon="6.60195">
        <ele>1214.5999755859</ele>
        <time>2014-01-31T08:27:01.000Z</time>
      </trkpt>
      <trkpt lat="45.55517" lon="6.60193">
        <ele>1214.8000488281</ele>
        <time>2014-01-31T08:27:02.000Z</time>
      </trkpt>
      <trkpt lat="45.55516" lon="6.60192">
        <ele>1214.8000488281</ele>
        <time>2014-01-31T08:27:03.000Z</time>
      </trkpt>
      <trkpt lat="45.55516" lon="6.60191">
        <ele>1214.8000488281</ele>
        <time>2014-01-31T08:27:04.000Z</time>
      </trkpt>
      <trkpt lat="45.55516" lon="6.6019">
        <ele>1215</ele>
        <time>2014-01-31T08:27:05.000Z</time>
      </trkpt>
      <trkpt lat="45.55516" lon="6.60189">
        <ele>1215</ele>
        <time>2014-01-31T08:27:06.000Z</time>
      </trkpt>
      <trkpt lat="45.55516" lon="6.60188">
        <ele>1215</ele>
        <time>2014-01-31T08:27:07.000Z</time>
      </trkpt>
      <trkpt lat="45.55516" lon="6.60186">
        <ele>1215.1999511719</ele>
        <time>2014-01-31T08:27:08.000Z</time>
      </trkpt>
      <trkpt lat="45.55516" lon="6.60185">
        <ele>1215.1999511719</ele>
        <time>2014-01-31T08:27:09.000Z</time>
      </trkpt>
      <trkpt lat="45.55516" lon="6.60183">
        <ele>1215.4000244141</ele>
        <time>2014-01-31T08:27:10.000Z</time>
      </trkpt>
      <trkpt lat="45.55515" lon="6.60182">
        <ele>1215.4000244141</ele>
        <time>2014-01-31T08:27:11.000Z</time>
      </trkpt>
      <trkpt lat="45.55515" lon="6.60181">
        <ele>1215.5999755859</ele>
        <time>2014-01-31T08:27:12.000Z</time>
      </trkpt>
      <trkpt lat="45.55515" lon="6.6018">
        <ele>1215.8000488281</ele>
        <time>2014-01-31T08:27:13.000Z</time>
      </trkpt>
      <trkpt lat="45.55515" lon="6.60179">
        <ele>1216</ele>
        <time>2014-01-31T08:27:14.000Z</time>
      </trkpt>
      <trkpt lat="45.55515" lon="6.60178">
        <ele>1216</ele>
        <time>2014-01-31T08:27:15.000Z</time>
      </trkpt>
      <trkpt lat="45.55515" lon="6.60177">
        <ele>1216.1999511719</ele>
        <time>2014-01-31T08:27:16.000Z</time>
      </trkpt>
      <trkpt lat="45.55514" lon="6.60176">
        <ele>1216.1999511719</ele>
        <time>2014-01-31T08:27:17.000Z</time>
      </trkpt>
      <trkpt lat="45.55514" lon="6.60175">
        <ele>1216.4000244141</ele>
        <time>2014-01-31T08:27:18.000Z</time>
      </trkpt>
      <trkpt lat="45.55513" lon="6.60174">
        <ele>1216.4000244141</ele>
        <time>2014-01-31T08:27:19.000Z</time>
      </trkpt>
      <trkpt lat="45.55512" lon="6.60172">
        <ele>1216.8000488281</ele>
        <time>2014-01-31T08:27:20.000Z</time>
      </trkpt>
      <trkpt lat="45.55512" lon="6.60171">
        <ele>1217</ele>
        <time>2014-01-31T08:27:21.000Z</time>
      </trkpt>
      <trkpt lat="45.55511" lon="6.60169">
        <ele>1217</ele>
        <time>2014-01-31T08:27:22.000Z</time>
      </trkpt>
      <trkpt lat="45.5551" lon="6.60168">
        <ele>1217.1999511719</ele>
        <time>2014-01-31T08:27:23.000Z</time>
      </trkpt>
      <trkpt lat="45.5551" lon="6.60167">
        <ele>1217.4000244141</ele>
        <time>2014-01-31T08:27:24.000Z</time>
      </trkpt>
      <trkpt lat="45.5551" lon="6.60166">
        <ele>1217.4000244141</ele>
        <time>2014-01-31T08:27:25.000Z</time>
      </trkpt>
      <trkpt lat="45.55509" lon="6.60165">
        <ele>1217.5999755859</ele>
        <time>2014-01-31T08:27:26.000Z</time>
      </trkpt>
      <trkpt lat="45.55508" lon="6.60164">
        <ele>1217.8000488281</ele>
        <time>2014-01-31T08:27:27.000Z</time>
      </trkpt>
      <trkpt lat="45.55508" lon="6.60163">
        <ele>1218</ele>
        <time>2014-01-31T08:27:28.000Z</time>
      </trkpt>
      <trkpt lat="45.55507" lon="6.60161">
        <ele>1218.1999511719</ele>
        <time>2014-01-31T08:27:29.000Z</time>
      </trkpt>
      <trkpt lat="45.55507" lon="6.60161">
        <ele>1218.1999511719</ele>
        <time>2014-01-31T08:27:30.000Z</time>
      </trkpt>
      <trkpt lat="45.55506" lon="6.6016">
        <ele>1218.1999511719</ele>
        <time>2014-01-31T08:27:31.000Z</time>
      </trkpt>
      <trkpt lat="45.55505" lon="6.60158">
        <ele>1218.4000244141</ele>
        <time>2014-01-31T08:27:32.000Z</time>
      </trkpt>
      <trkpt lat="45.55505" lon="6.60158">
        <ele>1218.4000244141</ele>
        <time>2014-01-31T08:27:33.000Z</time>
      </trkpt>
      <trkpt lat="45.55504" lon="6.60157">
        <ele>1218.5999755859</ele>
        <time>2014-01-31T08:27:34.000Z</time>
      </trkpt>
      <trkpt lat="45.55503" lon="6.60156">
        <ele>1218.5999755859</ele>
        <time>2014-01-31T08:27:35.000Z</time>
      </trkpt>
      <trkpt lat="45.55502" lon="6.60155">
        <ele>1218.8000488281</ele>
        <time>2014-01-31T08:27:36.000Z</time>
      </trkpt>
      <trkpt lat="45.55501" lon="6.60154">
        <ele>1218.8000488281</ele>
        <time>2014-01-31T08:27:37.000Z</time>
      </trkpt>
      <trkpt lat="45.55501" lon="6.60153">
        <ele>1219</ele>
        <time>2014-01-31T08:27:38.000Z</time>
      </trkpt>
      <trkpt lat="45.555" lon="6.60153">
        <ele>1219</ele>
        <time>2014-01-31T08:27:39.000Z</time>
      </trkpt>
      <trkpt lat="45.555" lon="6.60153">
        <ele>1219.1999511719</ele>
        <time>2014-01-31T08:27:40.000Z</time>
      </trkpt>
      <trkpt lat="45.555" lon="6.60153">
        <ele>1219.4000244141</ele>
        <time>2014-01-31T08:27:41.000Z</time>
      </trkpt>
      <trkpt lat="45.555" lon="6.60153">
        <ele>1219.5999755859</ele>
        <time>2014-01-31T08:27:42.000Z</time>
      </trkpt>
      <trkpt lat="45.555" lon="6.60153">
        <ele>1219.5999755859</ele>
        <time>2014-01-31T08:27:43.000Z</time>
      </trkpt>
      <trkpt lat="45.555" lon="6.60153">
        <ele>1219.8000488281</ele>
        <time>2014-01-31T08:27:44.000Z</time>
      </trkpt>
      <trkpt lat="45.555" lon="6.60153">
        <ele>1219.8000488281</ele>
        <time>2014-01-31T08:27:45.000Z</time>
      </trkpt>
      <trkpt lat="45.55499" lon="6.60153">
        <ele>1219.8000488281</ele>
        <time>2014-01-31T08:27:46.000Z</time>
      </trkpt>
      <trkpt lat="45.55497" lon="6.60151">
        <ele>1219.8000488281</ele>
        <time>2014-01-31T08:27:48.000Z</time>
      </trkpt>
      <trkpt lat="45.55496" lon="6.60149">
        <ele>1220</ele>
        <time>2014-01-31T08:27:50.000Z</time>
      </trkpt>
      <trkpt lat="45.55496" lon="6.60148">
        <ele>1220</ele>
        <time>2014-01-31T08:27:51.000Z</time>
      </trkpt>
      <trkpt lat="45.55495" lon="6.60146">
        <ele>1220.1999511719</ele>
        <time>2014-01-31T08:27:52.000Z</time>
      </trkpt>
      <trkpt lat="45.55494" lon="6.60145">
        <ele>1220.1999511719</ele>
        <time>2014-01-31T08:27:53.000Z</time>
      </trkpt>
      <trkpt lat="45.55493" lon="6.60144">
        <ele>1220.4000244141</ele>
        <time>2014-01-31T08:27:54.000Z</time>
      </trkpt>
      <trkpt lat="45.55493" lon="6.60142">
        <ele>1220.4000244141</ele>
        <time>2014-01-31T08:27:55.000Z</time>
      </trkpt>
      <trkpt lat="45.55492" lon="6.6014">
        <ele>1220.5999755859</ele>
        <time>2014-01-31T08:27:56.000Z</time>
      </trkpt>
      <trkpt lat="45.55492" lon="6.60138">
        <ele>1220.5999755859</ele>
        <time>2014-01-31T08:27:57.000Z</time>
      </trkpt>
      <trkpt lat="45.55491" lon="6.60136">
        <ele>1220.5999755859</ele>
        <time>2014-01-31T08:27:58.000Z</time>
      </trkpt>
      <trkpt lat="45.55491" lon="6.60134">
        <ele>1220.8000488281</ele>
        <time>2014-01-31T08:27:59.000Z</time>
      </trkpt>
      <trkpt lat="45.55491" lon="6.60132">
        <ele>1221</ele>
        <time>2014-01-31T08:28:00.000Z</time>
      </trkpt>
      <trkpt lat="45.55491" lon="6.6013">
        <ele>1221.1999511719</ele>
        <time>2014-01-31T08:28:01.000Z</time>
      </trkpt>
      <trkpt lat="45.5549" lon="6.60129">
        <ele>1221.1999511719</ele>
        <time>2014-01-31T08:28:02.000Z</time>
      </trkpt>
      <trkpt lat="45.5549" lon="6.60127">
        <ele>1221.4000244141</ele>
        <time>2014-01-31T08:28:03.000Z</time>
      </trkpt>
      <trkpt lat="45.5549" lon="6.60127">
        <ele>1221.5999755859</ele>
        <time>2014-01-31T08:28:04.000Z</time>
      </trkpt>
      <trkpt lat="45.5549" lon="6.60127">
        <ele>1221.8000488281</ele>
        <time>2014-01-31T08:28:05.000Z</time>
      </trkpt>
      <trkpt lat="45.5549" lon="6.60127">
        <ele>1221.8000488281</ele>
        <time>2014-01-31T08:28:06.000Z</time>
      </trkpt>
      <trkpt lat="45.5549" lon="6.60127">
        <ele>1222</ele>
        <time>2014-01-31T08:28:07.000Z</time>
      </trkpt>
      <trkpt lat="45.5549" lon="6.60125">
        <ele>1222.1999511719</ele>
        <time>2014-01-31T08:28:08.000Z</time>
      </trkpt>
      <trkpt lat="45.55491" lon="6.60124">
        <ele>1222.1999511719</ele>
        <time>2014-01-31T08:28:09.000Z</time>
      </trkpt>
      <trkpt lat="45.5549" lon="6.60122">
        <ele>1222.4000244141</ele>
        <time>2014-01-31T08:28:10.000Z</time>
      </trkpt>
      <trkpt lat="45.55491" lon="6.60121">
        <ele>1222.4000244141</ele>
        <time>2014-01-31T08:28:11.000Z</time>
      </trkpt>
      <trkpt lat="45.55491" lon="6.6012">
        <ele>1222.4000244141</ele>
        <time>2014-01-31T08:28:12.000Z</time>
      </trkpt>
      <trkpt lat="45.55491" lon="6.60118">
        <ele>1222.5999755859</ele>
        <time>2014-01-31T08:28:13.000Z</time>
      </trkpt>
      <trkpt lat="45.55491" lon="6.60117">
        <ele>1222.5999755859</ele>
        <time>2014-01-31T08:28:14.000Z</time>
      </trkpt>
      <trkpt lat="45.55492" lon="6.60115">
        <ele>1222.8000488281</ele>
        <time>2014-01-31T08:28:15.000Z</time>
      </trkpt>
      <trkpt lat="45.55492" lon="6.60114">
        <ele>1222.8000488281</ele>
        <time>2014-01-31T08:28:16.000Z</time>
      </trkpt>
      <trkpt lat="45.55492" lon="6.60113">
        <ele>1223</ele>
        <time>2014-01-31T08:28:17.000Z</time>
      </trkpt>
      <trkpt lat="45.55492" lon="6.60111">
        <ele>1223</ele>
        <time>2014-01-31T08:28:18.000Z</time>
      </trkpt>
      <trkpt lat="45.55492" lon="6.6011">
        <ele>1223.1999511719</ele>
        <time>2014-01-31T08:28:19.000Z</time>
      </trkpt>
      <trkpt lat="45.55492" lon="6.60109">
        <ele>1223.1999511719</ele>
        <time>2014-01-31T08:28:20.000Z</time>
      </trkpt>
      <trkpt lat="45.55492" lon="6.60107">
        <ele>1223.4000244141</ele>
        <time>2014-01-31T08:28:21.000Z</time>
      </trkpt>
      <trkpt lat="45.55491" lon="6.60105">
        <ele>1223.4000244141</ele>
        <time>2014-01-31T08:28:22.000Z</time>
      </trkpt>
      <trkpt lat="45.55491" lon="6.60104">
        <ele>1223.5999755859</ele>
        <time>2014-01-31T08:28:23.000Z</time>
      </trkpt>
      <trkpt lat="45.55491" lon="6.60102">
        <ele>1223.5999755859</ele>
        <time>2014-01-31T08:28:24.000Z</time>
      </trkpt>
      <trkpt lat="45.55491" lon="6.60101">
        <ele>1223.5999755859</ele>
        <time>2014-01-31T08:28:25.000Z</time>
      </trkpt>
      <trkpt lat="45.55491" lon="6.60099">
        <ele>1223.8000488281</ele>
        <time>2014-01-31T08:28:26.000Z</time>
      </trkpt>
      <trkpt lat="45.55491" lon="6.60098">
        <ele>1223.8000488281</ele>
        <time>2014-01-31T08:28:27.000Z</time>
      </trkpt>
      <trkpt lat="45.55491" lon="6.60097">
        <ele>1224</ele>
        <time>2014-01-31T08:28:28.000Z</time>
      </trkpt>
      <trkpt lat="45.5549" lon="6.60095">
        <ele>1224.1999511719</ele>
        <time>2014-01-31T08:28:29.000Z</time>
      </trkpt>
      <trkpt lat="45.5549" lon="6.60094">
        <ele>1224.4000244141</ele>
        <time>2014-01-31T08:28:30.000Z</time>
      </trkpt>
      <trkpt lat="45.5549" lon="6.60092">
        <ele>1224.5999755859</ele>
        <time>2014-01-31T08:28:31.000Z</time>
      </trkpt>
      <trkpt lat="45.5549" lon="6.60091">
        <ele>1224.8000488281</ele>
        <time>2014-01-31T08:28:32.000Z</time>
      </trkpt>
      <trkpt lat="45.55489" lon="6.60089">
        <ele>1224.8000488281</ele>
        <time>2014-01-31T08:28:33.000Z</time>
      </trkpt>
      <trkpt lat="45.55489" lon="6.60088">
        <ele>1225</ele>
        <time>2014-01-31T08:28:34.000Z</time>
      </trkpt>
      <trkpt lat="45.55488" lon="6.60086">
        <ele>1225</ele>
        <time>2014-01-31T08:28:35.000Z</time>
      </trkpt>
      <trkpt lat="45.55488" lon="6.60085">
        <ele>1225.1999511719</ele>
        <time>2014-01-31T08:28:36.000Z</time>
      </trkpt>
      <trkpt lat="45.55488" lon="6.60084">
        <ele>1225.1999511719</ele>
        <time>2014-01-31T08:28:37.000Z</time>
      </trkpt>
      <trkpt lat="45.55488" lon="6.60083">
        <ele>1225.4000244141</ele>
        <time>2014-01-31T08:28:38.000Z</time>
      </trkpt>
      <trkpt lat="45.55488" lon="6.60082">
        <ele>1225.4000244141</ele>
        <time>2014-01-31T08:28:39.000Z</time>
      </trkpt>
      <trkpt lat="45.55487" lon="6.60081">
        <ele>1225.5999755859</ele>
        <time>2014-01-31T08:28:40.000Z</time>
      </trkpt>
      <trkpt lat="45.55487" lon="6.6008">
        <ele>1225.5999755859</ele>
        <time>2014-01-31T08:28:41.000Z</time>
      </trkpt>
      <trkpt lat="45.55486" lon="6.60079">
        <ele>1225.8000488281</ele>
        <time>2014-01-31T08:28:42.000Z</time>
      </trkpt>
      <trkpt lat="45.55486" lon="6.60078">
        <ele>1225.8000488281</ele>
        <time>2014-01-31T08:28:43.000Z</time>
      </trkpt>
      <trkpt lat="45.55486" lon="6.60077">
        <ele>1226</ele>
        <time>2014-01-31T08:28:44.000Z</time>
      </trkpt>
      <trkpt lat="45.55485" lon="6.60076">
        <ele>1226</ele>
        <time>2014-01-31T08:28:45.000Z</time>
      </trkpt>
      <trkpt lat="45.55485" lon="6.60074">
        <ele>1226.1999511719</ele>
        <time>2014-01-31T08:28:46.000Z</time>
      </trkpt>
      <trkpt lat="45.55484" lon="6.60073">
        <ele>1226.4000244141</ele>
        <time>2014-01-31T08:28:47.000Z</time>
      </trkpt>
      <trkpt lat="45.55483" lon="6.60072">
        <ele>1226.5999755859</ele>
        <time>2014-01-31T08:28:48.000Z</time>
      </trkpt>
      <trkpt lat="45.55483" lon="6.60071">
        <ele>1226.5999755859</ele>
        <time>2014-01-31T08:28:49.000Z</time>
      </trkpt>
      <trkpt lat="45.55482" lon="6.6007">
        <ele>1226.8000488281</ele>
        <time>2014-01-31T08:28:50.000Z</time>
      </trkpt>
      <trkpt lat="45.55481" lon="6.60069">
        <ele>1227</ele>
        <time>2014-01-31T08:28:51.000Z</time>
      </trkpt>
      <trkpt lat="45.55481" lon="6.60068">
        <ele>1227</ele>
        <time>2014-01-31T08:28:52.000Z</time>
      </trkpt>
      <trkpt lat="45.5548" lon="6.60068">
        <ele>1227.1999511719</ele>
        <time>2014-01-31T08:28:53.000Z</time>
      </trkpt>
      <trkpt lat="45.55479" lon="6.60067">
        <ele>1227.1999511719</ele>
        <time>2014-01-31T08:28:54.000Z</time>
      </trkpt>
      <trkpt lat="45.55479" lon="6.60066">
        <ele>1227.1999511719</ele>
        <time>2014-01-31T08:28:55.000Z</time>
      </trkpt>
      <trkpt lat="45.55477" lon="6.60064">
        <ele>1227.4000244141</ele>
        <time>2014-01-31T08:28:57.000Z</time>
      </trkpt>
      <trkpt lat="45.55477" lon="6.60062">
        <ele>1227.4000244141</ele>
        <time>2014-01-31T08:28:58.000Z</time>
      </trkpt>
      <trkpt lat="45.55477" lon="6.60062">
        <ele>1227.4000244141</ele>
        <time>2014-01-31T08:28:59.000Z</time>
      </trkpt>
      <trkpt lat="45.55477" lon="6.60061">
        <ele>1227.5999755859</ele>
        <time>2014-01-31T08:29:00.000Z</time>
      </trkpt>
      <trkpt lat="45.55478" lon="6.60061">
        <ele>1227.5999755859</ele>
        <time>2014-01-31T08:29:01.000Z</time>
      </trkpt>
      <trkpt lat="45.55478" lon="6.60061">
        <ele>1227.5999755859</ele>
        <time>2014-01-31T08:29:02.000Z</time>
      </trkpt>
      <trkpt lat="45.55478" lon="6.6006">
        <ele>1227.5999755859</ele>
        <time>2014-01-31T08:29:03.000Z</time>
      </trkpt>
      <trkpt lat="45.55479" lon="6.60059">
        <ele>1227.5999755859</ele>
        <time>2014-01-31T08:29:04.000Z</time>
      </trkpt>
      <trkpt lat="45.55478" lon="6.60057">
        <ele>1227.8000488281</ele>
        <time>2014-01-31T08:29:05.000Z</time>
      </trkpt>
      <trkpt lat="45.55478" lon="6.60056">
        <ele>1227.8000488281</ele>
        <time>2014-01-31T08:29:06.000Z</time>
      </trkpt>
      <trkpt lat="45.55478" lon="6.60054">
        <ele>1227.8000488281</ele>
        <time>2014-01-31T08:29:07.000Z</time>
      </trkpt>
      <trkpt lat="45.55477" lon="6.60053">
        <ele>1227.8000488281</ele>
        <time>2014-01-31T08:29:08.000Z</time>
      </trkpt>
      <trkpt lat="45.55476" lon="6.60051">
        <ele>1227.8000488281</ele>
        <time>2014-01-31T08:29:09.000Z</time>
      </trkpt>
      <trkpt lat="45.55475" lon="6.6005">
        <ele>1228</ele>
        <time>2014-01-31T08:29:10.000Z</time>
      </trkpt>
      <trkpt lat="45.55474" lon="6.60049">
        <ele>1228.1999511719</ele>
        <time>2014-01-31T08:29:11.000Z</time>
      </trkpt>
      <trkpt lat="45.55473" lon="6.60048">
        <ele>1228.1999511719</ele>
        <time>2014-01-31T08:29:12.000Z</time>
      </trkpt>
      <trkpt lat="45.55472" lon="6.60047">
        <ele>1228.4000244141</ele>
        <time>2014-01-31T08:29:13.000Z</time>
      </trkpt>
      <trkpt lat="45.55471" lon="6.60046">
        <ele>1228.5999755859</ele>
        <time>2014-01-31T08:29:14.000Z</time>
      </trkpt>
      <trkpt lat="45.55471" lon="6.60044">
        <ele>1228.8000488281</ele>
        <time>2014-01-31T08:29:15.000Z</time>
      </trkpt>
      <trkpt lat="45.5547" lon="6.60043">
        <ele>1228.8000488281</ele>
        <time>2014-01-31T08:29:16.000Z</time>
      </trkpt>
      <trkpt lat="45.5547" lon="6.60041">
        <ele>1229</ele>
        <time>2014-01-31T08:29:17.000Z</time>
      </trkpt>
      <trkpt lat="45.5547" lon="6.6004">
        <ele>1229</ele>
        <time>2014-01-31T08:29:18.000Z</time>
      </trkpt>
      <trkpt lat="45.5547" lon="6.60038">
        <ele>1229.1999511719</ele>
        <time>2014-01-31T08:29:19.000Z</time>
      </trkpt>
      <trkpt lat="45.5547" lon="6.60036">
        <ele>1229.1999511719</ele>
        <time>2014-01-31T08:29:20.000Z</time>
      </trkpt>
      <trkpt lat="45.55468" lon="6.60035">
        <ele>1229.4000244141</ele>
        <time>2014-01-31T08:29:21.000Z</time>
      </trkpt>
      <trkpt lat="45.55467" lon="6.60034">
        <ele>1229.5999755859</ele>
        <time>2014-01-31T08:29:22.000Z</time>
      </trkpt>
      <trkpt lat="45.55466" lon="6.60033">
        <ele>1229.5999755859</ele>
        <time>2014-01-31T08:29:23.000Z</time>
      </trkpt>
      <trkpt lat="45.55466" lon="6.60031">
        <ele>1229.8000488281</ele>
        <time>2014-01-31T08:29:24.000Z</time>
      </trkpt>
      <trkpt lat="45.55465" lon="6.6003">
        <ele>1230</ele>
        <time>2014-01-31T08:29:25.000Z</time>
      </trkpt>
      <trkpt lat="45.55465" lon="6.60028">
        <ele>1230</ele>
        <time>2014-01-31T08:29:26.000Z</time>
      </trkpt>
      <trkpt lat="45.55465" lon="6.60027">
        <ele>1230.1999511719</ele>
        <time>2014-01-31T08:29:27.000Z</time>
      </trkpt>
      <trkpt lat="45.55465" lon="6.60025">
        <ele>1230.1999511719</ele>
        <time>2014-01-31T08:29:28.000Z</time>
      </trkpt>
      <trkpt lat="45.55464" lon="6.60024">
        <ele>1230.4000244141</ele>
        <time>2014-01-31T08:29:29.000Z</time>
      </trkpt>
      <trkpt lat="45.55464" lon="6.60022">
        <ele>1230.5999755859</ele>
        <time>2014-01-31T08:29:30.000Z</time>
      </trkpt>
      <trkpt lat="45.55464" lon="6.60021">
        <ele>1230.5999755859</ele>
        <time>2014-01-31T08:29:31.000Z</time>
      </trkpt>
      <trkpt lat="45.55463" lon="6.6002">
        <ele>1230.8000488281</ele>
        <time>2014-01-31T08:29:32.000Z</time>
      </trkpt>
      <trkpt lat="45.55463" lon="6.60018">
        <ele>1230.8000488281</ele>
        <time>2014-01-31T08:29:33.000Z</time>
      </trkpt>
      <trkpt lat="45.55463" lon="6.60017">
        <ele>1230.8000488281</ele>
        <time>2014-01-31T08:29:34.000Z</time>
      </trkpt>
      <trkpt lat="45.55463" lon="6.60016">
        <ele>1231</ele>
        <time>2014-01-31T08:29:35.000Z</time>
      </trkpt>
      <trkpt lat="45.55462" lon="6.60013">
        <ele>1231</ele>
        <time>2014-01-31T08:29:36.000Z</time>
      </trkpt>
      <trkpt lat="45.55462" lon="6.60012">
        <ele>1231</ele>
        <time>2014-01-31T08:29:37.000Z</time>
      </trkpt>
      <trkpt lat="45.55462" lon="6.6001">
        <ele>1231.1999511719</ele>
        <time>2014-01-31T08:29:38.000Z</time>
      </trkpt>
      <trkpt lat="45.55462" lon="6.60008">
        <ele>1231.1999511719</ele>
        <time>2014-01-31T08:29:39.000Z</time>
      </trkpt>
      <trkpt lat="45.55462" lon="6.60007">
        <ele>1231.4000244141</ele>
        <time>2014-01-31T08:29:40.000Z</time>
      </trkpt>
      <trkpt lat="45.55462" lon="6.60006">
        <ele>1231.5999755859</ele>
        <time>2014-01-31T08:29:41.000Z</time>
      </trkpt>
      <trkpt lat="45.55462" lon="6.60004">
        <ele>1231.5999755859</ele>
        <time>2014-01-31T08:29:42.000Z</time>
      </trkpt>
      <trkpt lat="45.55462" lon="6.60003">
        <ele>1231.8000488281</ele>
        <time>2014-01-31T08:29:43.000Z</time>
      </trkpt>
      <trkpt lat="45.55462" lon="6.60002">
        <ele>1231.8000488281</ele>
        <time>2014-01-31T08:29:44.000Z</time>
      </trkpt>
      <trkpt lat="45.55462" lon="6.60001">
        <ele>1231.8000488281</ele>
        <time>2014-01-31T08:29:45.000Z</time>
      </trkpt>
      <trkpt lat="45.55462" lon="6.6">
        <ele>1232</ele>
        <time>2014-01-31T08:29:46.000Z</time>
      </trkpt>
      <trkpt lat="45.55463" lon="6.59998">
        <ele>1232.1999511719</ele>
        <time>2014-01-31T08:29:47.000Z</time>
      </trkpt>
      <trkpt lat="45.55463" lon="6.59997">
        <ele>1232.4000244141</ele>
        <time>2014-01-31T08:29:48.000Z</time>
      </trkpt>
      <trkpt lat="45.55464" lon="6.59996">
        <ele>1232.5999755859</ele>
        <time>2014-01-31T08:29:49.000Z</time>
      </trkpt>
      <trkpt lat="45.55464" lon="6.59995">
        <ele>1232.8000488281</ele>
        <time>2014-01-31T08:29:50.000Z</time>
      </trkpt>
      <trkpt lat="45.55464" lon="6.59994">
        <ele>1233</ele>
        <time>2014-01-31T08:29:51.000Z</time>
      </trkpt>
      <trkpt lat="45.55464" lon="6.59992">
        <ele>1233</ele>
        <time>2014-01-31T08:29:52.000Z</time>
      </trkpt>
      <trkpt lat="45.55464" lon="6.59991">
        <ele>1233.1999511719</ele>
        <time>2014-01-31T08:29:53.000Z</time>
      </trkpt>
      <trkpt lat="45.55464" lon="6.5999">
        <ele>1233.1999511719</ele>
        <time>2014-01-31T08:29:54.000Z</time>
      </trkpt>
      <trkpt lat="45.55464" lon="6.59988">
        <ele>1233.4000244141</ele>
        <time>2014-01-31T08:29:55.000Z</time>
      </trkpt>
      <trkpt lat="45.55465" lon="6.59986">
        <ele>1233.4000244141</ele>
        <time>2014-01-31T08:29:56.000Z</time>
      </trkpt>
      <trkpt lat="45.55465" lon="6.59985">
        <ele>1233.4000244141</ele>
        <time>2014-01-31T08:29:57.000Z</time>
      </trkpt>
      <trkpt lat="45.55465" lon="6.59983">
        <ele>1233.5999755859</ele>
        <time>2014-01-31T08:29:58.000Z</time>
      </trkpt>
      <trkpt lat="45.55465" lon="6.59981">
        <ele>1233.5999755859</ele>
        <time>2014-01-31T08:29:59.000Z</time>
      </trkpt>
      <trkpt lat="45.55465" lon="6.59979">
        <ele>1233.8000488281</ele>
        <time>2014-01-31T08:30:00.000Z</time>
      </trkpt>
      <trkpt lat="45.55465" lon="6.59977">
        <ele>1233.8000488281</ele>
        <time>2014-01-31T08:30:01.000Z</time>
      </trkpt>
      <trkpt lat="45.55465" lon="6.59976">
        <ele>1233.8000488281</ele>
        <time>2014-01-31T08:30:02.000Z</time>
      </trkpt>
      <trkpt lat="45.55465" lon="6.59974">
        <ele>1234</ele>
        <time>2014-01-31T08:30:03.000Z</time>
      </trkpt>
      <trkpt lat="45.55465" lon="6.59973">
        <ele>1234.1999511719</ele>
        <time>2014-01-31T08:30:04.000Z</time>
      </trkpt>
      <trkpt lat="45.55465" lon="6.59971">
        <ele>1234.4000244141</ele>
        <time>2014-01-31T08:30:05.000Z</time>
      </trkpt>
      <trkpt lat="45.55465" lon="6.5997">
        <ele>1234.5999755859</ele>
        <time>2014-01-31T08:30:06.000Z</time>
      </trkpt>
      <trkpt lat="45.55465" lon="6.59968">
        <ele>1234.8000488281</ele>
        <time>2014-01-31T08:30:07.000Z</time>
      </trkpt>
      <trkpt lat="45.55465" lon="6.59967">
        <ele>1235</ele>
        <time>2014-01-31T08:30:08.000Z</time>
      </trkpt>
      <trkpt lat="45.55465" lon="6.59962">
        <ele>1235.4000244141</ele>
        <time>2014-01-31T08:30:10.000Z</time>
      </trkpt>
      <trkpt lat="45.55465" lon="6.5996">
        <ele>1235.4000244141</ele>
        <time>2014-01-31T08:30:11.000Z</time>
      </trkpt>
      <trkpt lat="45.55465" lon="6.59958">
        <ele>1235.4000244141</ele>
        <time>2014-01-31T08:30:12.000Z</time>
      </trkpt>
      <trkpt lat="45.55465" lon="6.59956">
        <ele>1235.4000244141</ele>
        <time>2014-01-31T08:30:13.000Z</time>
      </trkpt>
      <trkpt lat="45.55465" lon="6.59954">
        <ele>1235.5999755859</ele>
        <time>2014-01-31T08:30:14.000Z</time>
      </trkpt>
      <trkpt lat="45.55465" lon="6.59952">
        <ele>1235.5999755859</ele>
        <time>2014-01-31T08:30:15.000Z</time>
      </trkpt>
      <trkpt lat="45.55466" lon="6.59951">
        <ele>1235.8000488281</ele>
        <time>2014-01-31T08:30:16.000Z</time>
      </trkpt>
      <trkpt lat="45.55466" lon="6.59949">
        <ele>1235.8000488281</ele>
        <time>2014-01-31T08:30:17.000Z</time>
      </trkpt>
      <trkpt lat="45.55466" lon="6.59948">
        <ele>1236</ele>
        <time>2014-01-31T08:30:18.000Z</time>
      </trkpt>
      <trkpt lat="45.55466" lon="6.59946">
        <ele>1236</ele>
        <time>2014-01-31T08:30:19.000Z</time>
      </trkpt>
      <trkpt lat="45.55466" lon="6.59945">
        <ele>1236</ele>
        <time>2014-01-31T08:30:20.000Z</time>
      </trkpt>
      <trkpt lat="45.55465" lon="6.59944">
        <ele>1236.1999511719</ele>
        <time>2014-01-31T08:30:21.000Z</time>
      </trkpt>
      <trkpt lat="45.55465" lon="6.59943">
        <ele>1236.1999511719</ele>
        <time>2014-01-31T08:30:22.000Z</time>
      </trkpt>
      <trkpt lat="45.55464" lon="6.59941">
        <ele>1236.4000244141</ele>
        <time>2014-01-31T08:30:23.000Z</time>
      </trkpt>
      <trkpt lat="45.55464" lon="6.59941">
        <ele>1236.5999755859</ele>
        <time>2014-01-31T08:30:24.000Z</time>
      </trkpt>
      <trkpt lat="45.55463" lon="6.59939">
        <ele>1236.8000488281</ele>
        <time>2014-01-31T08:30:25.000Z</time>
      </trkpt>
      <trkpt lat="45.55463" lon="6.59938">
        <ele>1236.8000488281</ele>
        <time>2014-01-31T08:30:26.000Z</time>
      </trkpt>
      <trkpt lat="45.55463" lon="6.59936">
        <ele>1236.8000488281</ele>
        <time>2014-01-31T08:30:27.000Z</time>
      </trkpt>
      <trkpt lat="45.55463" lon="6.59935">
        <ele>1237</ele>
        <time>2014-01-31T08:30:28.000Z</time>
      </trkpt>
      <trkpt lat="45.55463" lon="6.59933">
        <ele>1237</ele>
        <time>2014-01-31T08:30:29.000Z</time>
      </trkpt>
      <trkpt lat="45.55463" lon="6.59932">
        <ele>1237.1999511719</ele>
        <time>2014-01-31T08:30:30.000Z</time>
      </trkpt>
      <trkpt lat="45.55462" lon="6.5993">
        <ele>1237.4000244141</ele>
        <time>2014-01-31T08:30:31.000Z</time>
      </trkpt>
      <trkpt lat="45.55462" lon="6.59929">
        <ele>1237.5999755859</ele>
        <time>2014-01-31T08:30:32.000Z</time>
      </trkpt>
      <trkpt lat="45.55461" lon="6.59926">
        <ele>1237.5999755859</ele>
        <time>2014-01-31T08:30:34.000Z</time>
      </trkpt>
      <trkpt lat="45.55461" lon="6.59925">
        <ele>1237.8000488281</ele>
        <time>2014-01-31T08:30:35.000Z</time>
      </trkpt>
      <trkpt lat="45.55461" lon="6.59924">
        <ele>1238</ele>
        <time>2014-01-31T08:30:36.000Z</time>
      </trkpt>
      <trkpt lat="45.55461" lon="6.59924">
        <ele>1238</ele>
        <time>2014-01-31T08:30:37.000Z</time>
      </trkpt>
      <trkpt lat="45.55461" lon="6.59922">
        <ele>1238.1999511719</ele>
        <time>2014-01-31T08:30:38.000Z</time>
      </trkpt>
      <trkpt lat="45.55461" lon="6.59921">
        <ele>1238.1999511719</ele>
        <time>2014-01-31T08:30:39.000Z</time>
      </trkpt>
      <trkpt lat="45.55461" lon="6.59919">
        <ele>1238.1999511719</ele>
        <time>2014-01-31T08:30:40.000Z</time>
      </trkpt>
      <trkpt lat="45.55461" lon="6.59917">
        <ele>1238.4000244141</ele>
        <time>2014-01-31T08:30:41.000Z</time>
      </trkpt>
      <trkpt lat="45.55461" lon="6.59915">
        <ele>1238.5999755859</ele>
        <time>2014-01-31T08:30:42.000Z</time>
      </trkpt>
      <trkpt lat="45.5546" lon="6.59914">
        <ele>1238.5999755859</ele>
        <time>2014-01-31T08:30:43.000Z</time>
      </trkpt>
      <trkpt lat="45.55459" lon="6.59912">
        <ele>1238.8000488281</ele>
        <time>2014-01-31T08:30:44.000Z</time>
      </trkpt>
      <trkpt lat="45.55459" lon="6.59911">
        <ele>1238.8000488281</ele>
        <time>2014-01-31T08:30:45.000Z</time>
      </trkpt>
      <trkpt lat="45.55459" lon="6.5991">
        <ele>1238.8000488281</ele>
        <time>2014-01-31T08:30:46.000Z</time>
      </trkpt>
      <trkpt lat="45.55459" lon="6.59909">
        <ele>1239</ele>
        <time>2014-01-31T08:30:47.000Z</time>
      </trkpt>
      <trkpt lat="45.55459" lon="6.59908">
        <ele>1239</ele>
        <time>2014-01-31T08:30:48.000Z</time>
      </trkpt>
      <trkpt lat="45.55459" lon="6.59907">
        <ele>1239.1999511719</ele>
        <time>2014-01-31T08:30:49.000Z</time>
      </trkpt>
      <trkpt lat="45.55459" lon="6.59907">
        <ele>1239.1999511719</ele>
        <time>2014-01-31T08:30:50.000Z</time>
      </trkpt>
      <trkpt lat="45.55459" lon="6.59906">
        <ele>1239.4000244141</ele>
        <time>2014-01-31T08:30:51.000Z</time>
      </trkpt>
      <trkpt lat="45.55459" lon="6.59904">
        <ele>1239.4000244141</ele>
        <time>2014-01-31T08:30:52.000Z</time>
      </trkpt>
      <trkpt lat="45.55459" lon="6.59903">
        <ele>1239.4000244141</ele>
        <time>2014-01-31T08:30:53.000Z</time>
      </trkpt>
      <trkpt lat="45.55459" lon="6.59901">
        <ele>1239.4000244141</ele>
        <time>2014-01-31T08:30:54.000Z</time>
      </trkpt>
      <trkpt lat="45.55459" lon="6.59899">
        <ele>1239.4000244141</ele>
        <time>2014-01-31T08:30:55.000Z</time>
      </trkpt>
      <trkpt lat="45.55459" lon="6.59898">
        <ele>1239.5999755859</ele>
        <time>2014-01-31T08:30:56.000Z</time>
      </trkpt>
      <trkpt lat="45.55459" lon="6.59895">
        <ele>1239.5999755859</ele>
        <time>2014-01-31T08:30:57.000Z</time>
      </trkpt>
      <trkpt lat="45.55459" lon="6.59893">
        <ele>1239.8000488281</ele>
        <time>2014-01-31T08:30:58.000Z</time>
      </trkpt>
      <trkpt lat="45.55459" lon="6.59892">
        <ele>1240.1999511719</ele>
        <time>2014-01-31T08:30:59.000Z</time>
      </trkpt>
      <trkpt lat="45.55459" lon="6.5989">
        <ele>1240.4000244141</ele>
        <time>2014-01-31T08:31:00.000Z</time>
      </trkpt>
      <trkpt lat="45.55459" lon="6.59889">
        <ele>1240.5999755859</ele>
        <time>2014-01-31T08:31:01.000Z</time>
      </trkpt>
      <trkpt lat="45.55459" lon="6.59887">
        <ele>1240.8000488281</ele>
        <time>2014-01-31T08:31:02.000Z</time>
      </trkpt>
      <trkpt lat="45.5546" lon="6.59884">
        <ele>1240.8000488281</ele>
        <time>2014-01-31T08:31:03.000Z</time>
      </trkpt>
      <trkpt lat="45.5546" lon="6.59883">
        <ele>1241</ele>
        <time>2014-01-31T08:31:04.000Z</time>
      </trkpt>
      <trkpt lat="45.55461" lon="6.5988">
        <ele>1241</ele>
        <time>2014-01-31T08:31:05.000Z</time>
      </trkpt>
      <trkpt lat="45.55462" lon="6.59878">
        <ele>1241.1999511719</ele>
        <time>2014-01-31T08:31:06.000Z</time>
      </trkpt>
      <trkpt lat="45.55462" lon="6.59876">
        <ele>1241.1999511719</ele>
        <time>2014-01-31T08:31:07.000Z</time>
      </trkpt>
      <trkpt lat="45.55463" lon="6.59875">
        <ele>1241.4000244141</ele>
        <time>2014-01-31T08:31:08.000Z</time>
      </trkpt>
      <trkpt lat="45.55464" lon="6.59874">
        <ele>1241.5999755859</ele>
        <time>2014-01-31T08:31:09.000Z</time>
      </trkpt>
      <trkpt lat="45.55465" lon="6.59872">
        <ele>1241.8000488281</ele>
        <time>2014-01-31T08:31:10.000Z</time>
      </trkpt>
      <trkpt lat="45.55466" lon="6.59871">
        <ele>1242</ele>
        <time>2014-01-31T08:31:11.000Z</time>
      </trkpt>
      <trkpt lat="45.55466" lon="6.5987">
        <ele>1242.1999511719</ele>
        <time>2014-01-31T08:31:12.000Z</time>
      </trkpt>
      <trkpt lat="45.55466" lon="6.59868">
        <ele>1242.4000244141</ele>
        <time>2014-01-31T08:31:13.000Z</time>
      </trkpt>
      <trkpt lat="45.55466" lon="6.59868">
        <ele>1242.4000244141</ele>
        <time>2014-01-31T08:31:14.000Z</time>
      </trkpt>
      <trkpt lat="45.55466" lon="6.59867">
        <ele>1242.5999755859</ele>
        <time>2014-01-31T08:31:15.000Z</time>
      </trkpt>
      <trkpt lat="45.55466" lon="6.59867">
        <ele>1242.5999755859</ele>
        <time>2014-01-31T08:31:16.000Z</time>
      </trkpt>
      <trkpt lat="45.55465" lon="6.59866">
        <ele>1242.8000488281</ele>
        <time>2014-01-31T08:31:17.000Z</time>
      </trkpt>
      <trkpt lat="45.55465" lon="6.59865">
        <ele>1242.8000488281</ele>
        <time>2014-01-31T08:31:18.000Z</time>
      </trkpt>
      <trkpt lat="45.55463" lon="6.59864">
        <ele>1243.1999511719</ele>
        <time>2014-01-31T08:31:19.000Z</time>
      </trkpt>
      <trkpt lat="45.55462" lon="6.59864">
        <ele>1243.4000244141</ele>
        <time>2014-01-31T08:31:20.000Z</time>
      </trkpt>
      <trkpt lat="45.55461" lon="6.59862">
        <ele>1243.5999755859</ele>
        <time>2014-01-31T08:31:21.000Z</time>
      </trkpt>
      <trkpt lat="45.55461" lon="6.59861">
        <ele>1244</ele>
        <time>2014-01-31T08:31:22.000Z</time>
      </trkpt>
      <trkpt lat="45.55461" lon="6.5986">
        <ele>1244</ele>
        <time>2014-01-31T08:31:23.000Z</time>
      </trkpt>
      <trkpt lat="45.5546" lon="6.59859">
        <ele>1244.1999511719</ele>
        <time>2014-01-31T08:31:24.000Z</time>
      </trkpt>
      <trkpt lat="45.5546" lon="6.59858">
        <ele>1244.1999511719</ele>
        <time>2014-01-31T08:31:25.000Z</time>
      </trkpt>
      <trkpt lat="45.5546" lon="6.59857">
        <ele>1244.1999511719</ele>
        <time>2014-01-31T08:31:26.000Z</time>
      </trkpt>
      <trkpt lat="45.5546" lon="6.59856">
        <ele>1244.1999511719</ele>
        <time>2014-01-31T08:31:27.000Z</time>
      </trkpt>
      <trkpt lat="45.55459" lon="6.59855">
        <ele>1244.4000244141</ele>
        <time>2014-01-31T08:31:28.000Z</time>
      </trkpt>
      <trkpt lat="45.55459" lon="6.59854">
        <ele>1244.4000244141</ele>
        <time>2014-01-31T08:31:29.000Z</time>
      </trkpt>
      <trkpt lat="45.55459" lon="6.59852">
        <ele>1244.5999755859</ele>
        <time>2014-01-31T08:31:30.000Z</time>
      </trkpt>
      <trkpt lat="45.55459" lon="6.59851">
        <ele>1244.5999755859</ele>
        <time>2014-01-31T08:31:31.000Z</time>
      </trkpt>
      <trkpt lat="45.55458" lon="6.5985">
        <ele>1244.5999755859</ele>
        <time>2014-01-31T08:31:32.000Z</time>
      </trkpt>
      <trkpt lat="45.55458" lon="6.59848">
        <ele>1244.8000488281</ele>
        <time>2014-01-31T08:31:33.000Z</time>
      </trkpt>
      <trkpt lat="45.55458" lon="6.59846">
        <ele>1244.8000488281</ele>
        <time>2014-01-31T08:31:34.000Z</time>
      </trkpt>
      <trkpt lat="45.55457" lon="6.59845">
        <ele>1244.8000488281</ele>
        <time>2014-01-31T08:31:35.000Z</time>
      </trkpt>
      <trkpt lat="45.55457" lon="6.59843">
        <ele>1244.8000488281</ele>
        <time>2014-01-31T08:31:36.000Z</time>
      </trkpt>
      <trkpt lat="45.55457" lon="6.59842">
        <ele>1244.8000488281</ele>
        <time>2014-01-31T08:31:37.000Z</time>
      </trkpt>
      <trkpt lat="45.55456" lon="6.59841">
        <ele>1245</ele>
        <time>2014-01-31T08:31:38.000Z</time>
      </trkpt>
      <trkpt lat="45.55455" lon="6.5984">
        <ele>1245</ele>
        <time>2014-01-31T08:31:39.000Z</time>
      </trkpt>
      <trkpt lat="45.55455" lon="6.59838">
        <ele>1245.1999511719</ele>
        <time>2014-01-31T08:31:40.000Z</time>
      </trkpt>
      <trkpt lat="45.55455" lon="6.59837">
        <ele>1245.1999511719</ele>
        <time>2014-01-31T08:31:41.000Z</time>
      </trkpt>
      <trkpt lat="45.55454" lon="6.59836">
        <ele>1245.4000244141</ele>
        <time>2014-01-31T08:31:42.000Z</time>
      </trkpt>
      <trkpt lat="45.55453" lon="6.59834">
        <ele>1245.5999755859</ele>
        <time>2014-01-31T08:31:43.000Z</time>
      </trkpt>
      <trkpt lat="45.55453" lon="6.59833">
        <ele>1245.5999755859</ele>
        <time>2014-01-31T08:31:44.000Z</time>
      </trkpt>
      <trkpt lat="45.55452" lon="6.59832">
        <ele>1245.5999755859</ele>
        <time>2014-01-31T08:31:45.000Z</time>
      </trkpt>
      <trkpt lat="45.55452" lon="6.59831">
        <ele>1245.5999755859</ele>
        <time>2014-01-31T08:31:46.000Z</time>
      </trkpt>
      <trkpt lat="45.55451" lon="6.5983">
        <ele>1245.8000488281</ele>
        <time>2014-01-31T08:31:47.000Z</time>
      </trkpt>
      <trkpt lat="45.55451" lon="6.59829">
        <ele>1246</ele>
        <time>2014-01-31T08:31:48.000Z</time>
      </trkpt>
      <trkpt lat="45.5545" lon="6.59828">
        <ele>1246.1999511719</ele>
        <time>2014-01-31T08:31:49.000Z</time>
      </trkpt>
      <trkpt lat="45.5545" lon="6.59827">
        <ele>1246.4000244141</ele>
        <time>2014-01-31T08:31:50.000Z</time>
      </trkpt>
      <trkpt lat="45.55449" lon="6.59825">
        <ele>1246.5999755859</ele>
        <time>2014-01-31T08:31:51.000Z</time>
      </trkpt>
      <trkpt lat="45.55448" lon="6.59823">
        <ele>1246.5999755859</ele>
        <time>2014-01-31T08:31:52.000Z</time>
      </trkpt>
      <trkpt lat="45.55448" lon="6.59822">
        <ele>1246.8000488281</ele>
        <time>2014-01-31T08:31:53.000Z</time>
      </trkpt>
      <trkpt lat="45.55448" lon="6.59821">
        <ele>1246.8000488281</ele>
        <time>2014-01-31T08:31:54.000Z</time>
      </trkpt>
      <trkpt lat="45.55448" lon="6.5982">
        <ele>1247</ele>
        <time>2014-01-31T08:31:55.000Z</time>
      </trkpt>
      <trkpt lat="45.55447" lon="6.59818">
        <ele>1247</ele>
        <time>2014-01-31T08:31:56.000Z</time>
      </trkpt>
      <trkpt lat="45.55447" lon="6.59817">
        <ele>1247</ele>
        <time>2014-01-31T08:31:57.000Z</time>
      </trkpt>
      <trkpt lat="45.55446" lon="6.59816">
        <ele>1247.1999511719</ele>
        <time>2014-01-31T08:31:58.000Z</time>
      </trkpt>
      <trkpt lat="45.55445" lon="6.59814">
        <ele>1247.4000244141</ele>
        <time>2014-01-31T08:31:59.000Z</time>
      </trkpt>
      <trkpt lat="45.55445" lon="6.59813">
        <ele>1247.4000244141</ele>
        <time>2014-01-31T08:32:00.000Z</time>
      </trkpt>
      <trkpt lat="45.55445" lon="6.59813">
        <ele>1247.5999755859</ele>
        <time>2014-01-31T08:32:01.000Z</time>
      </trkpt>
      <trkpt lat="45.55444" lon="6.59811">
        <ele>1247.5999755859</ele>
        <time>2014-01-31T08:32:02.000Z</time>
      </trkpt>
      <trkpt lat="45.55443" lon="6.59809">
        <ele>1247.8000488281</ele>
        <time>2014-01-31T08:32:03.000Z</time>
      </trkpt>
      <trkpt lat="45.55442" lon="6.59807">
        <ele>1247.8000488281</ele>
        <time>2014-01-31T08:32:04.000Z</time>
      </trkpt>
      <trkpt lat="45.55441" lon="6.59805">
        <ele>1248</ele>
        <time>2014-01-31T08:32:05.000Z</time>
      </trkpt>
      <trkpt lat="45.5544" lon="6.59804">
        <ele>1248</ele>
        <time>2014-01-31T08:32:06.000Z</time>
      </trkpt>
      <trkpt lat="45.55439" lon="6.59802">
        <ele>1248.1999511719</ele>
        <time>2014-01-31T08:32:07.000Z</time>
      </trkpt>
      <trkpt lat="45.55439" lon="6.59801">
        <ele>1248.4000244141</ele>
        <time>2014-01-31T08:32:08.000Z</time>
      </trkpt>
      <trkpt lat="45.55438" lon="6.59799">
        <ele>1248.4000244141</ele>
        <time>2014-01-31T08:32:09.000Z</time>
      </trkpt>
      <trkpt lat="45.55438" lon="6.59798">
        <ele>1248.5999755859</ele>
        <time>2014-01-31T08:32:10.000Z</time>
      </trkpt>
      <trkpt lat="45.55437" lon="6.59796">
        <ele>1248.8000488281</ele>
        <time>2014-01-31T08:32:11.000Z</time>
      </trkpt>
      <trkpt lat="45.55437" lon="6.59795">
        <ele>1248.8000488281</ele>
        <time>2014-01-31T08:32:12.000Z</time>
      </trkpt>
      <trkpt lat="45.55436" lon="6.59794">
        <ele>1249</ele>
        <time>2014-01-31T08:32:13.000Z</time>
      </trkpt>
      <trkpt lat="45.55436" lon="6.59793">
        <ele>1249</ele>
        <time>2014-01-31T08:32:14.000Z</time>
      </trkpt>
      <trkpt lat="45.55435" lon="6.59792">
        <ele>1249.1999511719</ele>
        <time>2014-01-31T08:32:15.000Z</time>
      </trkpt>
      <trkpt lat="45.55435" lon="6.5979">
        <ele>1249.1999511719</ele>
        <time>2014-01-31T08:32:16.000Z</time>
      </trkpt>
      <trkpt lat="45.55434" lon="6.59789">
        <ele>1249.4000244141</ele>
        <time>2014-01-31T08:32:17.000Z</time>
      </trkpt>
      <trkpt lat="45.55433" lon="6.59787">
        <ele>1249.5999755859</ele>
        <time>2014-01-31T08:32:18.000Z</time>
      </trkpt>
      <trkpt lat="45.55433" lon="6.59785">
        <ele>1249.5999755859</ele>
        <time>2014-01-31T08:32:19.000Z</time>
      </trkpt>
      <trkpt lat="45.55432" lon="6.59784">
        <ele>1249.5999755859</ele>
        <time>2014-01-31T08:32:20.000Z</time>
      </trkpt>
      <trkpt lat="45.55431" lon="6.59782">
        <ele>1249.5999755859</ele>
        <time>2014-01-31T08:32:21.000Z</time>
      </trkpt>
      <trkpt lat="45.55431" lon="6.5978">
        <ele>1249.8000488281</ele>
        <time>2014-01-31T08:32:22.000Z</time>
      </trkpt>
      <trkpt lat="45.55431" lon="6.59779">
        <ele>1249.8000488281</ele>
        <time>2014-01-31T08:32:23.000Z</time>
      </trkpt>
      <trkpt lat="45.5543" lon="6.59778">
        <ele>1250</ele>
        <time>2014-01-31T08:32:24.000Z</time>
      </trkpt>
      <trkpt lat="45.5543" lon="6.59777">
        <ele>1250</ele>
        <time>2014-01-31T08:32:25.000Z</time>
      </trkpt>
      <trkpt lat="45.5543" lon="6.59775">
        <ele>1250.1999511719</ele>
        <time>2014-01-31T08:32:26.000Z</time>
      </trkpt>
      <trkpt lat="45.55429" lon="6.59774">
        <ele>1250.1999511719</ele>
        <time>2014-01-31T08:32:27.000Z</time>
      </trkpt>
      <trkpt lat="45.55429" lon="6.59773">
        <ele>1250.4000244141</ele>
        <time>2014-01-31T08:32:28.000Z</time>
      </trkpt>
      <trkpt lat="45.55429" lon="6.59772">
        <ele>1250.4000244141</ele>
        <time>2014-01-31T08:32:29.000Z</time>
      </trkpt>
      <trkpt lat="45.55429" lon="6.5977">
        <ele>1250.5999755859</ele>
        <time>2014-01-31T08:32:30.000Z</time>
      </trkpt>
      <trkpt lat="45.55428" lon="6.59769">
        <ele>1250.8000488281</ele>
        <time>2014-01-31T08:32:31.000Z</time>
      </trkpt>
      <trkpt lat="45.55428" lon="6.59768">
        <ele>1250.8000488281</ele>
        <time>2014-01-31T08:32:32.000Z</time>
      </trkpt>
      <trkpt lat="45.55428" lon="6.59766">
        <ele>1251</ele>
        <time>2014-01-31T08:32:33.000Z</time>
      </trkpt>
      <trkpt lat="45.55427" lon="6.59765">
        <ele>1251</ele>
        <time>2014-01-31T08:32:34.000Z</time>
      </trkpt>
      <trkpt lat="45.55427" lon="6.59764">
        <ele>1251</ele>
        <time>2014-01-31T08:32:35.000Z</time>
      </trkpt>
      <trkpt lat="45.55427" lon="6.59762">
        <ele>1251</ele>
        <time>2014-01-31T08:32:36.000Z</time>
      </trkpt>
      <trkpt lat="45.55426" lon="6.59761">
        <ele>1251.1999511719</ele>
        <time>2014-01-31T08:32:37.000Z</time>
      </trkpt>
      <trkpt lat="45.55426" lon="6.59759">
        <ele>1251.1999511719</ele>
        <time>2014-01-31T08:32:38.000Z</time>
      </trkpt>
      <trkpt lat="45.55426" lon="6.59758">
        <ele>1251.4000244141</ele>
        <time>2014-01-31T08:32:39.000Z</time>
      </trkpt>
      <trkpt lat="45.55425" lon="6.59757">
        <ele>1251.5999755859</ele>
        <time>2014-01-31T08:32:40.000Z</time>
      </trkpt>
      <trkpt lat="45.55425" lon="6.59756">
        <ele>1251.8000488281</ele>
        <time>2014-01-31T08:32:41.000Z</time>
      </trkpt>
      <trkpt lat="45.55424" lon="6.59754">
        <ele>1252</ele>
        <time>2014-01-31T08:32:42.000Z</time>
      </trkpt>
      <trkpt lat="45.55424" lon="6.59753">
        <ele>1252</ele>
        <time>2014-01-31T08:32:43.000Z</time>
      </trkpt>
      <trkpt lat="45.55424" lon="6.59751">
        <ele>1252.1999511719</ele>
        <time>2014-01-31T08:32:44.000Z</time>
      </trkpt>
      <trkpt lat="45.55423" lon="6.5975">
        <ele>1252.1999511719</ele>
        <time>2014-01-31T08:32:45.000Z</time>
      </trkpt>
      <trkpt lat="45.55423" lon="6.59748">
        <ele>1252.4000244141</ele>
        <time>2014-01-31T08:32:46.000Z</time>
      </trkpt>
      <trkpt lat="45.55423" lon="6.59747">
        <ele>1252.5999755859</ele>
        <time>2014-01-31T08:32:47.000Z</time>
      </trkpt>
      <trkpt lat="45.55422" lon="6.59745">
        <ele>1252.5999755859</ele>
        <time>2014-01-31T08:32:48.000Z</time>
      </trkpt>
      <trkpt lat="45.55422" lon="6.59744">
        <ele>1252.5999755859</ele>
        <time>2014-01-31T08:32:49.000Z</time>
      </trkpt>
      <trkpt lat="45.55421" lon="6.59742">
        <ele>1252.8000488281</ele>
        <time>2014-01-31T08:32:50.000Z</time>
      </trkpt>
      <trkpt lat="45.55421" lon="6.59741">
        <ele>1252.8000488281</ele>
        <time>2014-01-31T08:32:51.000Z</time>
      </trkpt>
      <trkpt lat="45.5542" lon="6.5974">
        <ele>1252.8000488281</ele>
        <time>2014-01-31T08:32:52.000Z</time>
      </trkpt>
      <trkpt lat="45.5542" lon="6.59738">
        <ele>1253</ele>
        <time>2014-01-31T08:32:53.000Z</time>
      </trkpt>
      <trkpt lat="45.5542" lon="6.59737">
        <ele>1253.1999511719</ele>
        <time>2014-01-31T08:32:54.000Z</time>
      </trkpt>
      <trkpt lat="45.5542" lon="6.59736">
        <ele>1253.4000244141</ele>
        <time>2014-01-31T08:32:55.000Z</time>
      </trkpt>
      <trkpt lat="45.5542" lon="6.59736">
        <ele>1253.4000244141</ele>
        <time>2014-01-31T08:32:56.000Z</time>
      </trkpt>
      <trkpt lat="45.5542" lon="6.59736">
        <ele>1253.5999755859</ele>
        <time>2014-01-31T08:32:57.000Z</time>
      </trkpt>
      <trkpt lat="45.55419" lon="6.59735">
        <ele>1253.8000488281</ele>
        <time>2014-01-31T08:32:58.000Z</time>
      </trkpt>
      <trkpt lat="45.55419" lon="6.59734">
        <ele>1253.8000488281</ele>
        <time>2014-01-31T08:32:59.000Z</time>
      </trkpt>
      <trkpt lat="45.55419" lon="6.59732">
        <ele>1254</ele>
        <time>2014-01-31T08:33:00.000Z</time>
      </trkpt>
      <trkpt lat="45.55418" lon="6.59731">
        <ele>1254</ele>
        <time>2014-01-31T08:33:01.000Z</time>
      </trkpt>
      <trkpt lat="45.55418" lon="6.59731">
        <ele>1254</ele>
        <time>2014-01-31T08:33:02.000Z</time>
      </trkpt>
      <trkpt lat="45.55417" lon="6.59729">
        <ele>1254.1999511719</ele>
        <time>2014-01-31T08:33:03.000Z</time>
      </trkpt>
      <trkpt lat="45.55417" lon="6.59727">
        <ele>1254.1999511719</ele>
        <time>2014-01-31T08:33:04.000Z</time>
      </trkpt>
      <trkpt lat="45.55417" lon="6.59726">
        <ele>1254.1999511719</ele>
        <time>2014-01-31T08:33:05.000Z</time>
      </trkpt>
      <trkpt lat="45.55417" lon="6.59724">
        <ele>1254.1999511719</ele>
        <time>2014-01-31T08:33:06.000Z</time>
      </trkpt>
      <trkpt lat="45.55416" lon="6.59723">
        <ele>1254.4000244141</ele>
        <time>2014-01-31T08:33:07.000Z</time>
      </trkpt>
      <trkpt lat="45.55416" lon="6.59721">
        <ele>1254.4000244141</ele>
        <time>2014-01-31T08:33:08.000Z</time>
      </trkpt>
      <trkpt lat="45.55415" lon="6.5972">
        <ele>1254.5999755859</ele>
        <time>2014-01-31T08:33:09.000Z</time>
      </trkpt>
      <trkpt lat="45.55415" lon="6.59719">
        <ele>1254.8000488281</ele>
        <time>2014-01-31T08:33:10.000Z</time>
      </trkpt>
      <trkpt lat="45.55415" lon="6.59717">
        <ele>1254.8000488281</ele>
        <time>2014-01-31T08:33:11.000Z</time>
      </trkpt>
      <trkpt lat="45.55415" lon="6.59716">
        <ele>1255</ele>
        <time>2014-01-31T08:33:12.000Z</time>
      </trkpt>
      <trkpt lat="45.55414" lon="6.59715">
        <ele>1255.1999511719</ele>
        <time>2014-01-31T08:33:13.000Z</time>
      </trkpt>
      <trkpt lat="45.55414" lon="6.59714">
        <ele>1255.1999511719</ele>
        <time>2014-01-31T08:33:14.000Z</time>
      </trkpt>
      <trkpt lat="45.55413" lon="6.59713">
        <ele>1255.4000244141</ele>
        <time>2014-01-31T08:33:15.000Z</time>
      </trkpt>
      <trkpt lat="45.55413" lon="6.59711">
        <ele>1255.5999755859</ele>
        <time>2014-01-31T08:33:16.000Z</time>
      </trkpt>
      <trkpt lat="45.55413" lon="6.5971">
        <ele>1255.8000488281</ele>
        <time>2014-01-31T08:33:17.000Z</time>
      </trkpt>
      <trkpt lat="45.55412" lon="6.59709">
        <ele>1255.8000488281</ele>
        <time>2014-01-31T08:33:18.000Z</time>
      </trkpt>
      <trkpt lat="45.55412" lon="6.59707">
        <ele>1256</ele>
        <time>2014-01-31T08:33:19.000Z</time>
      </trkpt>
      <trkpt lat="45.55412" lon="6.59705">
        <ele>1256.4000244141</ele>
        <time>2014-01-31T08:33:20.000Z</time>
      </trkpt>
      <trkpt lat="45.55411" lon="6.59704">
        <ele>1256.4000244141</ele>
        <time>2014-01-31T08:33:21.000Z</time>
      </trkpt>
      <trkpt lat="45.55411" lon="6.59703">
        <ele>1256.5999755859</ele>
        <time>2014-01-31T08:33:22.000Z</time>
      </trkpt>
      <trkpt lat="45.55411" lon="6.59702">
        <ele>1256.5999755859</ele>
        <time>2014-01-31T08:33:23.000Z</time>
      </trkpt>
      <trkpt lat="45.55411" lon="6.59701">
        <ele>1256.5999755859</ele>
        <time>2014-01-31T08:33:24.000Z</time>
      </trkpt>
      <trkpt lat="45.55411" lon="6.59701">
        <ele>1256.8000488281</ele>
        <time>2014-01-31T08:33:25.000Z</time>
      </trkpt>
      <trkpt lat="45.55411" lon="6.59701">
        <ele>1256.8000488281</ele>
        <time>2014-01-31T08:33:26.000Z</time>
      </trkpt>
      <trkpt lat="45.55412" lon="6.597">
        <ele>1256.8000488281</ele>
        <time>2014-01-31T08:33:27.000Z</time>
      </trkpt>
      <trkpt lat="45.55412" lon="6.59699">
        <ele>1257</ele>
        <time>2014-01-31T08:33:28.000Z</time>
      </trkpt>
      <trkpt lat="45.55412" lon="6.59699">
        <ele>1257</ele>
        <time>2014-01-31T08:33:29.000Z</time>
      </trkpt>
      <trkpt lat="45.55412" lon="6.59696">
        <ele>1257</ele>
        <time>2014-01-31T08:33:30.000Z</time>
      </trkpt>
      <trkpt lat="45.55412" lon="6.59694">
        <ele>1257.1999511719</ele>
        <time>2014-01-31T08:33:31.000Z</time>
      </trkpt>
      <trkpt lat="45.55412" lon="6.59693">
        <ele>1257.1999511719</ele>
        <time>2014-01-31T08:33:32.000Z</time>
      </trkpt>
      <trkpt lat="45.55412" lon="6.59691">
        <ele>1257.4000244141</ele>
        <time>2014-01-31T08:33:33.000Z</time>
      </trkpt>
      <trkpt lat="45.55412" lon="6.5969">
        <ele>1257.4000244141</ele>
        <time>2014-01-31T08:33:34.000Z</time>
      </trkpt>
      <trkpt lat="45.55412" lon="6.59689">
        <ele>1257.5999755859</ele>
        <time>2014-01-31T08:33:35.000Z</time>
      </trkpt>
      <trkpt lat="45.55413" lon="6.59687">
        <ele>1257.5999755859</ele>
        <time>2014-01-31T08:33:36.000Z</time>
      </trkpt>
      <trkpt lat="45.55413" lon="6.59685">
        <ele>1257.8000488281</ele>
        <time>2014-01-31T08:33:37.000Z</time>
      </trkpt>
      <trkpt lat="45.55413" lon="6.59683">
        <ele>1257.8000488281</ele>
        <time>2014-01-31T08:33:38.000Z</time>
      </trkpt>
      <trkpt lat="45.55413" lon="6.59682">
        <ele>1257.8000488281</ele>
        <time>2014-01-31T08:33:39.000Z</time>
      </trkpt>
      <trkpt lat="45.55413" lon="6.5968">
        <ele>1257.8000488281</ele>
        <time>2014-01-31T08:33:40.000Z</time>
      </trkpt>
      <trkpt lat="45.55414" lon="6.59677">
        <ele>1257.8000488281</ele>
        <time>2014-01-31T08:33:41.000Z</time>
      </trkpt>
      <trkpt lat="45.55414" lon="6.59675">
        <ele>1258</ele>
        <time>2014-01-31T08:33:42.000Z</time>
      </trkpt>
      <trkpt lat="45.55414" lon="6.59674">
        <ele>1258</ele>
        <time>2014-01-31T08:33:43.000Z</time>
      </trkpt>
      <trkpt lat="45.55414" lon="6.59672">
        <ele>1258.4000244141</ele>
        <time>2014-01-31T08:33:44.000Z</time>
      </trkpt>
      <trkpt lat="45.55414" lon="6.5967">
        <ele>1258.4000244141</ele>
        <time>2014-01-31T08:33:45.000Z</time>
      </trkpt>
      <trkpt lat="45.55414" lon="6.59668">
        <ele>1258.5999755859</ele>
        <time>2014-01-31T08:33:46.000Z</time>
      </trkpt>
      <trkpt lat="45.55415" lon="6.59666">
        <ele>1258.8000488281</ele>
        <time>2014-01-31T08:33:47.000Z</time>
      </trkpt>
      <trkpt lat="45.55415" lon="6.59665">
        <ele>1258.8000488281</ele>
        <time>2014-01-31T08:33:48.000Z</time>
      </trkpt>
      <trkpt lat="45.55416" lon="6.59665">
        <ele>1259</ele>
        <time>2014-01-31T08:33:49.000Z</time>
      </trkpt>
      <trkpt lat="45.55416" lon="6.59663">
        <ele>1259</ele>
        <time>2014-01-31T08:33:50.000Z</time>
      </trkpt>
      <trkpt lat="45.55416" lon="6.59661">
        <ele>1259.1999511719</ele>
        <time>2014-01-31T08:33:51.000Z</time>
      </trkpt>
      <trkpt lat="45.55416" lon="6.5966">
        <ele>1259.1999511719</ele>
        <time>2014-01-31T08:33:52.000Z</time>
      </trkpt>
      <trkpt lat="45.55416" lon="6.59658">
        <ele>1259.4000244141</ele>
        <time>2014-01-31T08:33:53.000Z</time>
      </trkpt>
      <trkpt lat="45.55416" lon="6.59656">
        <ele>1259.4000244141</ele>
        <time>2014-01-31T08:33:54.000Z</time>
      </trkpt>
      <trkpt lat="45.55416" lon="6.59654">
        <ele>1259.5999755859</ele>
        <time>2014-01-31T08:33:55.000Z</time>
      </trkpt>
      <trkpt lat="45.55416" lon="6.59653">
        <ele>1259.5999755859</ele>
        <time>2014-01-31T08:33:56.000Z</time>
      </trkpt>
      <trkpt lat="45.55416" lon="6.59652">
        <ele>1259.8000488281</ele>
        <time>2014-01-31T08:33:57.000Z</time>
      </trkpt>
      <trkpt lat="45.55416" lon="6.59651">
        <ele>1259.8000488281</ele>
        <time>2014-01-31T08:33:58.000Z</time>
      </trkpt>
      <trkpt lat="45.55416" lon="6.5965">
        <ele>1260</ele>
        <time>2014-01-31T08:33:59.000Z</time>
      </trkpt>
      <trkpt lat="45.55416" lon="6.59649">
        <ele>1260</ele>
        <time>2014-01-31T08:34:00.000Z</time>
      </trkpt>
      <trkpt lat="45.55417" lon="6.59648">
        <ele>1260</ele>
        <time>2014-01-31T08:34:01.000Z</time>
      </trkpt>
      <trkpt lat="45.55417" lon="6.59647">
        <ele>1260</ele>
        <time>2014-01-31T08:34:02.000Z</time>
      </trkpt>
      <trkpt lat="45.55418" lon="6.59646">
        <ele>1260.1999511719</ele>
        <time>2014-01-31T08:34:03.000Z</time>
      </trkpt>
      <trkpt lat="45.55418" lon="6.59645">
        <ele>1260.1999511719</ele>
        <time>2014-01-31T08:34:04.000Z</time>
      </trkpt>
      <trkpt lat="45.55419" lon="6.59643">
        <ele>1260.4000244141</ele>
        <time>2014-01-31T08:34:05.000Z</time>
      </trkpt>
      <trkpt lat="45.55419" lon="6.59642">
        <ele>1260.5999755859</ele>
        <time>2014-01-31T08:34:06.000Z</time>
      </trkpt>
      <trkpt lat="45.5542" lon="6.59641">
        <ele>1260.5999755859</ele>
        <time>2014-01-31T08:34:07.000Z</time>
      </trkpt>
      <trkpt lat="45.55421" lon="6.59639">
        <ele>1260.8000488281</ele>
        <time>2014-01-31T08:34:08.000Z</time>
      </trkpt>
      <trkpt lat="45.55421" lon="6.59639">
        <ele>1261</ele>
        <time>2014-01-31T08:34:09.000Z</time>
      </trkpt>
      <trkpt lat="45.55422" lon="6.59638">
        <ele>1261</ele>
        <time>2014-01-31T08:34:10.000Z</time>
      </trkpt>
      <trkpt lat="45.55423" lon="6.59636">
        <ele>1261.1999511719</ele>
        <time>2014-01-31T08:34:11.000Z</time>
      </trkpt>
      <trkpt lat="45.55423" lon="6.59636">
        <ele>1261.4000244141</ele>
        <time>2014-01-31T08:34:12.000Z</time>
      </trkpt>
      <trkpt lat="45.55424" lon="6.59635">
        <ele>1261.5999755859</ele>
        <time>2014-01-31T08:34:13.000Z</time>
      </trkpt>
      <trkpt lat="45.55425" lon="6.59634">
        <ele>1261.5999755859</ele>
        <time>2014-01-31T08:34:14.000Z</time>
      </trkpt>
      <trkpt lat="45.55425" lon="6.59632">
        <ele>1261.8000488281</ele>
        <time>2014-01-31T08:34:15.000Z</time>
      </trkpt>
      <trkpt lat="45.55426" lon="6.59629">
        <ele>1262</ele>
        <time>2014-01-31T08:34:16.000Z</time>
      </trkpt>
      <trkpt lat="45.55426" lon="6.59626">
        <ele>1262</ele>
        <time>2014-01-31T08:34:17.000Z</time>
      </trkpt>
      <trkpt lat="45.55427" lon="6.59624">
        <ele>1262.1999511719</ele>
        <time>2014-01-31T08:34:18.000Z</time>
      </trkpt>
      <trkpt lat="45.55427" lon="6.59622">
        <ele>1262.1999511719</ele>
        <time>2014-01-31T08:34:19.000Z</time>
      </trkpt>
      <trkpt lat="45.55428" lon="6.5962">
        <ele>1262.4000244141</ele>
        <time>2014-01-31T08:34:20.000Z</time>
      </trkpt>
      <trkpt lat="45.55428" lon="6.59619">
        <ele>1262.5999755859</ele>
        <time>2014-01-31T08:34:21.000Z</time>
      </trkpt>
      <trkpt lat="45.55428" lon="6.59619">
        <ele>1262.5999755859</ele>
        <time>2014-01-31T08:34:22.000Z</time>
      </trkpt>
      <trkpt lat="45.55428" lon="6.59617">
        <ele>1262.5999755859</ele>
        <time>2014-01-31T08:34:23.000Z</time>
      </trkpt>
      <trkpt lat="45.55428" lon="6.59617">
        <ele>1262.8000488281</ele>
        <time>2014-01-31T08:34:24.000Z</time>
      </trkpt>
      <trkpt lat="45.55429" lon="6.59616">
        <ele>1263</ele>
        <time>2014-01-31T08:34:25.000Z</time>
      </trkpt>
      <trkpt lat="45.55429" lon="6.59613">
        <ele>1263</ele>
        <time>2014-01-31T08:34:26.000Z</time>
      </trkpt>
      <trkpt lat="45.55429" lon="6.59612">
        <ele>1263.1999511719</ele>
        <time>2014-01-31T08:34:27.000Z</time>
      </trkpt>
      <trkpt lat="45.5543" lon="6.5961">
        <ele>1263.4000244141</ele>
        <time>2014-01-31T08:34:28.000Z</time>
      </trkpt>
      <trkpt lat="45.5543" lon="6.59607">
        <ele>1263.4000244141</ele>
        <time>2014-01-31T08:34:29.000Z</time>
      </trkpt>
      <trkpt lat="45.5543" lon="6.59606">
        <ele>1263.5999755859</ele>
        <time>2014-01-31T08:34:30.000Z</time>
      </trkpt>
      <trkpt lat="45.55431" lon="6.59603">
        <ele>1263.8000488281</ele>
        <time>2014-01-31T08:34:31.000Z</time>
      </trkpt>
      <trkpt lat="45.55431" lon="6.59601">
        <ele>1264</ele>
        <time>2014-01-31T08:34:32.000Z</time>
      </trkpt>
      <trkpt lat="45.55431" lon="6.596">
        <ele>1264.1999511719</ele>
        <time>2014-01-31T08:34:33.000Z</time>
      </trkpt>
      <trkpt lat="45.55431" lon="6.59599">
        <ele>1264.1999511719</ele>
        <time>2014-01-31T08:34:34.000Z</time>
      </trkpt>
      <trkpt lat="45.55431" lon="6.59598">
        <ele>1264.4000244141</ele>
        <time>2014-01-31T08:34:35.000Z</time>
      </trkpt>
      <trkpt lat="45.55432" lon="6.59597">
        <ele>1264.5999755859</ele>
        <time>2014-01-31T08:34:36.000Z</time>
      </trkpt>
      <trkpt lat="45.55431" lon="6.59597">
        <ele>1264.5999755859</ele>
        <time>2014-01-31T08:34:37.000Z</time>
      </trkpt>
      <trkpt lat="45.55431" lon="6.59596">
        <ele>1264.8000488281</ele>
        <time>2014-01-31T08:34:38.000Z</time>
      </trkpt>
      <trkpt lat="45.5543" lon="6.59595">
        <ele>1265</ele>
        <time>2014-01-31T08:34:39.000Z</time>
      </trkpt>
      <trkpt lat="45.55429" lon="6.59593">
        <ele>1265</ele>
        <time>2014-01-31T08:34:40.000Z</time>
      </trkpt>
      <trkpt lat="45.55429" lon="6.59592">
        <ele>1265.1999511719</ele>
        <time>2014-01-31T08:34:41.000Z</time>
      </trkpt>
      <trkpt lat="45.55429" lon="6.59589">
        <ele>1265.1999511719</ele>
        <time>2014-01-31T08:34:42.000Z</time>
      </trkpt>
      <trkpt lat="45.55429" lon="6.59587">
        <ele>1265.4000244141</ele>
        <time>2014-01-31T08:34:43.000Z</time>
      </trkpt>
      <trkpt lat="45.55429" lon="6.59584">
        <ele>1265.4000244141</ele>
        <time>2014-01-31T08:34:44.000Z</time>
      </trkpt>
      <trkpt lat="45.5543" lon="6.59583">
        <ele>1265.5999755859</ele>
        <time>2014-01-31T08:34:45.000Z</time>
      </trkpt>
      <trkpt lat="45.5543" lon="6.59581">
        <ele>1265.5999755859</ele>
        <time>2014-01-31T08:34:46.000Z</time>
      </trkpt>
      <trkpt lat="45.5543" lon="6.5958">
        <ele>1265.8000488281</ele>
        <time>2014-01-31T08:34:47.000Z</time>
      </trkpt>
      <trkpt lat="45.5543" lon="6.59579">
        <ele>1265.8000488281</ele>
        <time>2014-01-31T08:34:48.000Z</time>
      </trkpt>
      <trkpt lat="45.55431" lon="6.59577">
        <ele>1266</ele>
        <time>2014-01-31T08:34:49.000Z</time>
      </trkpt>
      <trkpt lat="45.55431" lon="6.59576">
        <ele>1266.1999511719</ele>
        <time>2014-01-31T08:34:50.000Z</time>
      </trkpt>
      <trkpt lat="45.55431" lon="6.59575">
        <ele>1266.1999511719</ele>
        <time>2014-01-31T08:34:51.000Z</time>
      </trkpt>
      <trkpt lat="45.55432" lon="6.59574">
        <ele>1266.4000244141</ele>
        <time>2014-01-31T08:34:52.000Z</time>
      </trkpt>
      <trkpt lat="45.55432" lon="6.59573">
        <ele>1266.5999755859</ele>
        <time>2014-01-31T08:34:53.000Z</time>
      </trkpt>
      <trkpt lat="45.55433" lon="6.59571">
        <ele>1266.5999755859</ele>
        <time>2014-01-31T08:34:54.000Z</time>
      </trkpt>
      <trkpt lat="45.55433" lon="6.5957">
        <ele>1266.8000488281</ele>
        <time>2014-01-31T08:34:55.000Z</time>
      </trkpt>
      <trkpt lat="45.55434" lon="6.59569">
        <ele>1267</ele>
        <time>2014-01-31T08:34:56.000Z</time>
      </trkpt>
      <trkpt lat="45.55434" lon="6.59568">
        <ele>1267.1999511719</ele>
        <time>2014-01-31T08:34:57.000Z</time>
      </trkpt>
      <trkpt lat="45.55435" lon="6.59567">
        <ele>1267.1999511719</ele>
        <time>2014-01-31T08:34:58.000Z</time>
      </trkpt>
      <trkpt lat="45.55435" lon="6.59565">
        <ele>1267.4000244141</ele>
        <time>2014-01-31T08:34:59.000Z</time>
      </trkpt>
      <trkpt lat="45.55435" lon="6.59564">
        <ele>1267.5999755859</ele>
        <time>2014-01-31T08:35:00.000Z</time>
      </trkpt>
      <trkpt lat="45.55436" lon="6.59563">
        <ele>1267.8000488281</ele>
        <time>2014-01-31T08:35:01.000Z</time>
      </trkpt>
      <trkpt lat="45.55436" lon="6.59561">
        <ele>1267.8000488281</ele>
        <time>2014-01-31T08:35:02.000Z</time>
      </trkpt>
      <trkpt lat="45.55437" lon="6.5956">
        <ele>1268</ele>
        <time>2014-01-31T08:35:03.000Z</time>
      </trkpt>
      <trkpt lat="45.55438" lon="6.59559">
        <ele>1268.1999511719</ele>
        <time>2014-01-31T08:35:04.000Z</time>
      </trkpt>
      <trkpt lat="45.55439" lon="6.59558">
        <ele>1268.4000244141</ele>
        <time>2014-01-31T08:35:05.000Z</time>
      </trkpt>
      <trkpt lat="45.5544" lon="6.59557">
        <ele>1268.5999755859</ele>
        <time>2014-01-31T08:35:06.000Z</time>
      </trkpt>
      <trkpt lat="45.55441" lon="6.59556">
        <ele>1268.5999755859</ele>
        <time>2014-01-31T08:35:07.000Z</time>
      </trkpt>
      <trkpt lat="45.55442" lon="6.59556">
        <ele>1268.8000488281</ele>
        <time>2014-01-31T08:35:08.000Z</time>
      </trkpt>
      <trkpt lat="45.55443" lon="6.59556">
        <ele>1269</ele>
        <time>2014-01-31T08:35:09.000Z</time>
      </trkpt>
      <trkpt lat="45.55444" lon="6.59556">
        <ele>1269</ele>
        <time>2014-01-31T08:35:10.000Z</time>
      </trkpt>
      <trkpt lat="45.55445" lon="6.59555">
        <ele>1269.1999511719</ele>
        <time>2014-01-31T08:35:11.000Z</time>
      </trkpt>
      <trkpt lat="45.55445" lon="6.59554">
        <ele>1269.4000244141</ele>
        <time>2014-01-31T08:35:12.000Z</time>
      </trkpt>
      <trkpt lat="45.55446" lon="6.59553">
        <ele>1269.4000244141</ele>
        <time>2014-01-31T08:35:13.000Z</time>
      </trkpt>
      <trkpt lat="45.55447" lon="6.59552">
        <ele>1269.5999755859</ele>
        <time>2014-01-31T08:35:14.000Z</time>
      </trkpt>
      <trkpt lat="45.55448" lon="6.5955">
        <ele>1269.8000488281</ele>
        <time>2014-01-31T08:35:15.000Z</time>
      </trkpt>
      <trkpt lat="45.55448" lon="6.59549">
        <ele>1270</ele>
        <time>2014-01-31T08:35:16.000Z</time>
      </trkpt>
      <trkpt lat="45.55448" lon="6.59547">
        <ele>1270</ele>
        <time>2014-01-31T08:35:17.000Z</time>
      </trkpt>
      <trkpt lat="45.55449" lon="6.59544">
        <ele>1270</ele>
        <time>2014-01-31T08:35:18.000Z</time>
      </trkpt>
      <trkpt lat="45.55449" lon="6.59543">
        <ele>1270.1999511719</ele>
        <time>2014-01-31T08:35:19.000Z</time>
      </trkpt>
      <trkpt lat="45.55449" lon="6.59541">
        <ele>1270.5999755859</ele>
        <time>2014-01-31T08:35:20.000Z</time>
      </trkpt>
      <trkpt lat="45.5545" lon="6.59539">
        <ele>1270.5999755859</ele>
        <time>2014-01-31T08:35:21.000Z</time>
      </trkpt>
      <trkpt lat="45.5545" lon="6.59538">
        <ele>1270.8000488281</ele>
        <time>2014-01-31T08:35:22.000Z</time>
      </trkpt>
      <trkpt lat="45.5545" lon="6.59537">
        <ele>1270.8000488281</ele>
        <time>2014-01-31T08:35:23.000Z</time>
      </trkpt>
      <trkpt lat="45.5545" lon="6.59535">
        <ele>1271</ele>
        <time>2014-01-31T08:35:24.000Z</time>
      </trkpt>
      <trkpt lat="45.5545" lon="6.59534">
        <ele>1271.1999511719</ele>
        <time>2014-01-31T08:35:25.000Z</time>
      </trkpt>
      <trkpt lat="45.5545" lon="6.59532">
        <ele>1271.4000244141</ele>
        <time>2014-01-31T08:35:26.000Z</time>
      </trkpt>
      <trkpt lat="45.55451" lon="6.5953">
        <ele>1271.4000244141</ele>
        <time>2014-01-31T08:35:27.000Z</time>
      </trkpt>
      <trkpt lat="45.55451" lon="6.59529">
        <ele>1271.5999755859</ele>
        <time>2014-01-31T08:35:28.000Z</time>
      </trkpt>
      <trkpt lat="45.55451" lon="6.59526">
        <ele>1271.5999755859</ele>
        <time>2014-01-31T08:35:29.000Z</time>
      </trkpt>
      <trkpt lat="45.55451" lon="6.59525">
        <ele>1271.8000488281</ele>
        <time>2014-01-31T08:35:30.000Z</time>
      </trkpt>
      <trkpt lat="45.55452" lon="6.59524">
        <ele>1272</ele>
        <time>2014-01-31T08:35:31.000Z</time>
      </trkpt>
      <trkpt lat="45.55453" lon="6.59523">
        <ele>1272.1999511719</ele>
        <time>2014-01-31T08:35:32.000Z</time>
      </trkpt>
      <trkpt lat="45.55454" lon="6.59522">
        <ele>1272.1999511719</ele>
        <time>2014-01-31T08:35:33.000Z</time>
      </trkpt>
      <trkpt lat="45.55454" lon="6.59521">
        <ele>1272.4000244141</ele>
        <time>2014-01-31T08:35:34.000Z</time>
      </trkpt>
      <trkpt lat="45.55455" lon="6.5952">
        <ele>1272.4000244141</ele>
        <time>2014-01-31T08:35:35.000Z</time>
      </trkpt>
      <trkpt lat="45.55456" lon="6.59518">
        <ele>1272.5999755859</ele>
        <time>2014-01-31T08:35:36.000Z</time>
      </trkpt>
      <trkpt lat="45.55457" lon="6.59517">
        <ele>1272.8000488281</ele>
        <time>2014-01-31T08:35:37.000Z</time>
      </trkpt>
      <trkpt lat="45.55458" lon="6.59515">
        <ele>1272.8000488281</ele>
        <time>2014-01-31T08:35:38.000Z</time>
      </trkpt>
      <trkpt lat="45.55458" lon="6.59514">
        <ele>1273</ele>
        <time>2014-01-31T08:35:39.000Z</time>
      </trkpt>
      <trkpt lat="45.55459" lon="6.59512">
        <ele>1273</ele>
        <time>2014-01-31T08:35:40.000Z</time>
      </trkpt>
      <trkpt lat="45.55459" lon="6.59511">
        <ele>1273.1999511719</ele>
        <time>2014-01-31T08:35:41.000Z</time>
      </trkpt>
      <trkpt lat="45.5546" lon="6.59509">
        <ele>1273.4000244141</ele>
        <time>2014-01-31T08:35:42.000Z</time>
      </trkpt>
      <trkpt lat="45.5546" lon="6.59508">
        <ele>1273.4000244141</ele>
        <time>2014-01-31T08:35:43.000Z</time>
      </trkpt>
      <trkpt lat="45.55461" lon="6.59506">
        <ele>1273.5999755859</ele>
        <time>2014-01-31T08:35:44.000Z</time>
      </trkpt>
      <trkpt lat="45.55461" lon="6.59505">
        <ele>1273.8000488281</ele>
        <time>2014-01-31T08:35:45.000Z</time>
      </trkpt>
      <trkpt lat="45.55462" lon="6.59504">
        <ele>1273.8000488281</ele>
        <time>2014-01-31T08:35:46.000Z</time>
      </trkpt>
      <trkpt lat="45.55462" lon="6.59503">
        <ele>1274</ele>
        <time>2014-01-31T08:35:47.000Z</time>
      </trkpt>
      <trkpt lat="45.55462" lon="6.59502">
        <ele>1274</ele>
        <time>2014-01-31T08:35:48.000Z</time>
      </trkpt>
      <trkpt lat="45.55463" lon="6.59501">
        <ele>1274.1999511719</ele>
        <time>2014-01-31T08:35:49.000Z</time>
      </trkpt>
      <trkpt lat="45.55463" lon="6.595">
        <ele>1274.1999511719</ele>
        <time>2014-01-31T08:35:50.000Z</time>
      </trkpt>
      <trkpt lat="45.55463" lon="6.59497">
        <ele>1274.4000244141</ele>
        <time>2014-01-31T08:35:51.000Z</time>
      </trkpt>
      <trkpt lat="45.55463" lon="6.59496">
        <ele>1274.4000244141</ele>
        <time>2014-01-31T08:35:52.000Z</time>
      </trkpt>
      <trkpt lat="45.55464" lon="6.59494">
        <ele>1274.5999755859</ele>
        <time>2014-01-31T08:35:53.000Z</time>
      </trkpt>
      <trkpt lat="45.55464" lon="6.59493">
        <ele>1274.8000488281</ele>
        <time>2014-01-31T08:35:54.000Z</time>
      </trkpt>
      <trkpt lat="45.55465" lon="6.59491">
        <ele>1274.8000488281</ele>
        <time>2014-01-31T08:35:55.000Z</time>
      </trkpt>
      <trkpt lat="45.55466" lon="6.59489">
        <ele>1275</ele>
        <time>2014-01-31T08:35:56.000Z</time>
      </trkpt>
      <trkpt lat="45.55466" lon="6.59487">
        <ele>1275.1999511719</ele>
        <time>2014-01-31T08:35:57.000Z</time>
      </trkpt>
      <trkpt lat="45.55467" lon="6.59486">
        <ele>1275.1999511719</ele>
        <time>2014-01-31T08:35:58.000Z</time>
      </trkpt>
      <trkpt lat="45.55468" lon="6.59486">
        <ele>1275.4000244141</ele>
        <time>2014-01-31T08:35:59.000Z</time>
      </trkpt>
      <trkpt lat="45.55468" lon="6.59485">
        <ele>1275.5999755859</ele>
        <time>2014-01-31T08:36:00.000Z</time>
      </trkpt>
      <trkpt lat="45.55468" lon="6.59483">
        <ele>1275.5999755859</ele>
        <time>2014-01-31T08:36:01.000Z</time>
      </trkpt>
      <trkpt lat="45.55468" lon="6.59481">
        <ele>1275.8000488281</ele>
        <time>2014-01-31T08:36:02.000Z</time>
      </trkpt>
      <trkpt lat="45.55468" lon="6.5948">
        <ele>1275.8000488281</ele>
        <time>2014-01-31T08:36:03.000Z</time>
      </trkpt>
      <trkpt lat="45.55469" lon="6.59478">
        <ele>1276</ele>
        <time>2014-01-31T08:36:04.000Z</time>
      </trkpt>
      <trkpt lat="45.55469" lon="6.59475">
        <ele>1276.1999511719</ele>
        <time>2014-01-31T08:36:05.000Z</time>
      </trkpt>
      <trkpt lat="45.55469" lon="6.59474">
        <ele>1276.4000244141</ele>
        <time>2014-01-31T08:36:06.000Z</time>
      </trkpt>
      <trkpt lat="45.55469" lon="6.59472">
        <ele>1276.4000244141</ele>
        <time>2014-01-31T08:36:07.000Z</time>
      </trkpt>
      <trkpt lat="45.55469" lon="6.59471">
        <ele>1276.5999755859</ele>
        <time>2014-01-31T08:36:08.000Z</time>
      </trkpt>
      <trkpt lat="45.55469" lon="6.59469">
        <ele>1276.8000488281</ele>
        <time>2014-01-31T08:36:09.000Z</time>
      </trkpt>
      <trkpt lat="45.55469" lon="6.59468">
        <ele>1276.8000488281</ele>
        <time>2014-01-31T08:36:10.000Z</time>
      </trkpt>
      <trkpt lat="45.55469" lon="6.59465">
        <ele>1277</ele>
        <time>2014-01-31T08:36:11.000Z</time>
      </trkpt>
      <trkpt lat="45.55469" lon="6.59464">
        <ele>1277.1999511719</ele>
        <time>2014-01-31T08:36:12.000Z</time>
      </trkpt>
      <trkpt lat="45.55469" lon="6.59463">
        <ele>1277.1999511719</ele>
        <time>2014-01-31T08:36:13.000Z</time>
      </trkpt>
      <trkpt lat="45.5547" lon="6.59462">
        <ele>1277.4000244141</ele>
        <time>2014-01-31T08:36:14.000Z</time>
      </trkpt>
      <trkpt lat="45.5547" lon="6.59461">
        <ele>1277.5999755859</ele>
        <time>2014-01-31T08:36:15.000Z</time>
      </trkpt>
      <trkpt lat="45.5547" lon="6.59458">
        <ele>1277.8000488281</ele>
        <time>2014-01-31T08:36:16.000Z</time>
      </trkpt>
      <trkpt lat="45.5547" lon="6.59456">
        <ele>1278</ele>
        <time>2014-01-31T08:36:17.000Z</time>
      </trkpt>
      <trkpt lat="45.5547" lon="6.59453">
        <ele>1278.1999511719</ele>
        <time>2014-01-31T08:36:18.000Z</time>
      </trkpt>
      <trkpt lat="45.5547" lon="6.59451">
        <ele>1278.1999511719</ele>
        <time>2014-01-31T08:36:19.000Z</time>
      </trkpt>
      <trkpt lat="45.5547" lon="6.59448">
        <ele>1278.4000244141</ele>
        <time>2014-01-31T08:36:20.000Z</time>
      </trkpt>
      <trkpt lat="45.55469" lon="6.59446">
        <ele>1278.5999755859</ele>
        <time>2014-01-31T08:36:21.000Z</time>
      </trkpt>
      <trkpt lat="45.55469" lon="6.59444">
        <ele>1278.5999755859</ele>
        <time>2014-01-31T08:36:22.000Z</time>
      </trkpt>
      <trkpt lat="45.55469" lon="6.59442">
        <ele>1278.8000488281</ele>
        <time>2014-01-31T08:36:23.000Z</time>
      </trkpt>
      <trkpt lat="45.55469" lon="6.5944">
        <ele>1279</ele>
        <time>2014-01-31T08:36:24.000Z</time>
      </trkpt>
      <trkpt lat="45.55469" lon="6.59438">
        <ele>1279</ele>
        <time>2014-01-31T08:36:25.000Z</time>
      </trkpt>
      <trkpt lat="45.5547" lon="6.59436">
        <ele>1279.1999511719</ele>
        <time>2014-01-31T08:36:26.000Z</time>
      </trkpt>
      <trkpt lat="45.55469" lon="6.59435">
        <ele>1279.1999511719</ele>
        <time>2014-01-31T08:36:27.000Z</time>
      </trkpt>
      <trkpt lat="45.55469" lon="6.59434">
        <ele>1279.4000244141</ele>
        <time>2014-01-31T08:36:28.000Z</time>
      </trkpt>
      <trkpt lat="45.55469" lon="6.59432">
        <ele>1279.5999755859</ele>
        <time>2014-01-31T08:36:29.000Z</time>
      </trkpt>
      <trkpt lat="45.55469" lon="6.59432">
        <ele>1279.8000488281</ele>
        <time>2014-01-31T08:36:30.000Z</time>
      </trkpt>
      <trkpt lat="45.55469" lon="6.59431">
        <ele>1279.8000488281</ele>
        <time>2014-01-31T08:36:31.000Z</time>
      </trkpt>
      <trkpt lat="45.55469" lon="6.5943">
        <ele>1280.1999511719</ele>
        <time>2014-01-31T08:36:32.000Z</time>
      </trkpt>
      <trkpt lat="45.55469" lon="6.59429">
        <ele>1280.1999511719</ele>
        <time>2014-01-31T08:36:33.000Z</time>
      </trkpt>
      <trkpt lat="45.55468" lon="6.59427">
        <ele>1280.4000244141</ele>
        <time>2014-01-31T08:36:34.000Z</time>
      </trkpt>
      <trkpt lat="45.55468" lon="6.59426">
        <ele>1280.4000244141</ele>
        <time>2014-01-31T08:36:35.000Z</time>
      </trkpt>
      <trkpt lat="45.55468" lon="6.59425">
        <ele>1280.5999755859</ele>
        <time>2014-01-31T08:36:36.000Z</time>
      </trkpt>
      <trkpt lat="45.55468" lon="6.59423">
        <ele>1280.5999755859</ele>
        <time>2014-01-31T08:36:37.000Z</time>
      </trkpt>
      <trkpt lat="45.55467" lon="6.59421">
        <ele>1280.8000488281</ele>
        <time>2014-01-31T08:36:38.000Z</time>
      </trkpt>
      <trkpt lat="45.55467" lon="6.5942">
        <ele>1280.8000488281</ele>
        <time>2014-01-31T08:36:39.000Z</time>
      </trkpt>
      <trkpt lat="45.55467" lon="6.59419">
        <ele>1281</ele>
        <time>2014-01-31T08:36:40.000Z</time>
      </trkpt>
      <trkpt lat="45.55467" lon="6.59417">
        <ele>1281</ele>
        <time>2014-01-31T08:36:41.000Z</time>
      </trkpt>
      <trkpt lat="45.55467" lon="6.59415">
        <ele>1281.1999511719</ele>
        <time>2014-01-31T08:36:42.000Z</time>
      </trkpt>
      <trkpt lat="45.55467" lon="6.59412">
        <ele>1281.4000244141</ele>
        <time>2014-01-31T08:36:43.000Z</time>
      </trkpt>
      <trkpt lat="45.55468" lon="6.5941">
        <ele>1281.4000244141</ele>
        <time>2014-01-31T08:36:44.000Z</time>
      </trkpt>
      <trkpt lat="45.55468" lon="6.59407">
        <ele>1281.5999755859</ele>
        <time>2014-01-31T08:36:45.000Z</time>
      </trkpt>
      <trkpt lat="45.55468" lon="6.59405">
        <ele>1281.5999755859</ele>
        <time>2014-01-31T08:36:46.000Z</time>
      </trkpt>
      <trkpt lat="45.55468" lon="6.59402">
        <ele>1281.8000488281</ele>
        <time>2014-01-31T08:36:47.000Z</time>
      </trkpt>
      <trkpt lat="45.55469" lon="6.594">
        <ele>1282</ele>
        <time>2014-01-31T08:36:48.000Z</time>
      </trkpt>
      <trkpt lat="45.55469" lon="6.59398">
        <ele>1282</ele>
        <time>2014-01-31T08:36:49.000Z</time>
      </trkpt>
      <trkpt lat="45.55469" lon="6.59397">
        <ele>1282.1999511719</ele>
        <time>2014-01-31T08:36:50.000Z</time>
      </trkpt>
      <trkpt lat="45.55469" lon="6.59396">
        <ele>1282.1999511719</ele>
        <time>2014-01-31T08:36:51.000Z</time>
      </trkpt>
      <trkpt lat="45.55469" lon="6.59394">
        <ele>1282.4000244141</ele>
        <time>2014-01-31T08:36:52.000Z</time>
      </trkpt>
      <trkpt lat="45.55468" lon="6.59393">
        <ele>1282.4000244141</ele>
        <time>2014-01-31T08:36:53.000Z</time>
      </trkpt>
      <trkpt lat="45.55468" lon="6.59393">
        <ele>1282.4000244141</ele>
        <time>2014-01-31T08:36:54.000Z</time>
      </trkpt>
      <trkpt lat="45.55469" lon="6.59392">
        <ele>1282.5999755859</ele>
        <time>2014-01-31T08:36:55.000Z</time>
      </trkpt>
      <trkpt lat="45.55468" lon="6.5939">
        <ele>1282.8000488281</ele>
        <time>2014-01-31T08:36:56.000Z</time>
      </trkpt>
      <trkpt lat="45.55468" lon="6.59388">
        <ele>1283</ele>
        <time>2014-01-31T08:36:57.000Z</time>
      </trkpt>
      <trkpt lat="45.55468" lon="6.59386">
        <ele>1283.1999511719</ele>
        <time>2014-01-31T08:36:58.000Z</time>
      </trkpt>
      <trkpt lat="45.55468" lon="6.59384">
        <ele>1283.1999511719</ele>
        <time>2014-01-31T08:36:59.000Z</time>
      </trkpt>
      <trkpt lat="45.55469" lon="6.59382">
        <ele>1283.4000244141</ele>
        <time>2014-01-31T08:37:00.000Z</time>
      </trkpt>
      <trkpt lat="45.55469" lon="6.5938">
        <ele>1283.5999755859</ele>
        <time>2014-01-31T08:37:01.000Z</time>
      </trkpt>
      <trkpt lat="45.55469" lon="6.59378">
        <ele>1283.5999755859</ele>
        <time>2014-01-31T08:37:02.000Z</time>
      </trkpt>
      <trkpt lat="45.5547" lon="6.59376">
        <ele>1283.8000488281</ele>
        <time>2014-01-31T08:37:03.000Z</time>
      </trkpt>
      <trkpt lat="45.5547" lon="6.59374">
        <ele>1284</ele>
        <time>2014-01-31T08:37:04.000Z</time>
      </trkpt>
      <trkpt lat="45.5547" lon="6.59373">
        <ele>1284</ele>
        <time>2014-01-31T08:37:05.000Z</time>
      </trkpt>
      <trkpt lat="45.5547" lon="6.59372">
        <ele>1284.1999511719</ele>
        <time>2014-01-31T08:37:06.000Z</time>
      </trkpt>
      <trkpt lat="45.5547" lon="6.59371">
        <ele>1284.4000244141</ele>
        <time>2014-01-31T08:37:07.000Z</time>
      </trkpt>
      <trkpt lat="45.5547" lon="6.59369">
        <ele>1284.4000244141</ele>
        <time>2014-01-31T08:37:08.000Z</time>
      </trkpt>
      <trkpt lat="45.5547" lon="6.59367">
        <ele>1284.5999755859</ele>
        <time>2014-01-31T08:37:09.000Z</time>
      </trkpt>
      <trkpt lat="45.5547" lon="6.59366">
        <ele>1284.8000488281</ele>
        <time>2014-01-31T08:37:10.000Z</time>
      </trkpt>
      <trkpt lat="45.55471" lon="6.59364">
        <ele>1284.8000488281</ele>
        <time>2014-01-31T08:37:11.000Z</time>
      </trkpt>
      <trkpt lat="45.55471" lon="6.59363">
        <ele>1285</ele>
        <time>2014-01-31T08:37:12.000Z</time>
      </trkpt>
      <trkpt lat="45.55471" lon="6.59362">
        <ele>1285.1999511719</ele>
        <time>2014-01-31T08:37:13.000Z</time>
      </trkpt>
      <trkpt lat="45.55472" lon="6.5936">
        <ele>1285.4000244141</ele>
        <time>2014-01-31T08:37:14.000Z</time>
      </trkpt>
      <trkpt lat="45.55472" lon="6.5936">
        <ele>1285.5999755859</ele>
        <time>2014-01-31T08:37:15.000Z</time>
      </trkpt>
      <trkpt lat="45.55472" lon="6.59359">
        <ele>1285.5999755859</ele>
        <time>2014-01-31T08:37:16.000Z</time>
      </trkpt>
      <trkpt lat="45.55472" lon="6.59357">
        <ele>1285.8000488281</ele>
        <time>2014-01-31T08:37:17.000Z</time>
      </trkpt>
      <trkpt lat="45.55472" lon="6.59356">
        <ele>1286</ele>
        <time>2014-01-31T08:37:18.000Z</time>
      </trkpt>
      <trkpt lat="45.55472" lon="6.59355">
        <ele>1286</ele>
        <time>2014-01-31T08:37:19.000Z</time>
      </trkpt>
      <trkpt lat="45.55472" lon="6.59353">
        <ele>1286.1999511719</ele>
        <time>2014-01-31T08:37:20.000Z</time>
      </trkpt>
      <trkpt lat="45.55471" lon="6.59352">
        <ele>1286.1999511719</ele>
        <time>2014-01-31T08:37:21.000Z</time>
      </trkpt>
      <trkpt lat="45.55471" lon="6.59351">
        <ele>1286.4000244141</ele>
        <time>2014-01-31T08:37:22.000Z</time>
      </trkpt>
      <trkpt lat="45.55471" lon="6.5935">
        <ele>1286.4000244141</ele>
        <time>2014-01-31T08:37:23.000Z</time>
      </trkpt>
      <trkpt lat="45.55471" lon="6.59349">
        <ele>1286.5999755859</ele>
        <time>2014-01-31T08:37:24.000Z</time>
      </trkpt>
      <trkpt lat="45.55471" lon="6.59348">
        <ele>1286.5999755859</ele>
        <time>2014-01-31T08:37:25.000Z</time>
      </trkpt>
      <trkpt lat="45.55472" lon="6.59346">
        <ele>1287</ele>
        <time>2014-01-31T08:37:26.000Z</time>
      </trkpt>
      <trkpt lat="45.55472" lon="6.59344">
        <ele>1287.1999511719</ele>
        <time>2014-01-31T08:37:27.000Z</time>
      </trkpt>
      <trkpt lat="45.55473" lon="6.59342">
        <ele>1287.4000244141</ele>
        <time>2014-01-31T08:37:28.000Z</time>
      </trkpt>
      <trkpt lat="45.55473" lon="6.5934">
        <ele>1287.5999755859</ele>
        <time>2014-01-31T08:37:29.000Z</time>
      </trkpt>
      <trkpt lat="45.55473" lon="6.59339">
        <ele>1287.5999755859</ele>
        <time>2014-01-31T08:37:30.000Z</time>
      </trkpt>
      <trkpt lat="45.55474" lon="6.59338">
        <ele>1287.8000488281</ele>
        <time>2014-01-31T08:37:31.000Z</time>
      </trkpt>
      <trkpt lat="45.55474" lon="6.59337">
        <ele>1288</ele>
        <time>2014-01-31T08:37:32.000Z</time>
      </trkpt>
      <trkpt lat="45.55475" lon="6.59335">
        <ele>1288</ele>
        <time>2014-01-31T08:37:33.000Z</time>
      </trkpt>
      <trkpt lat="45.55475" lon="6.59335">
        <ele>1288.1999511719</ele>
        <time>2014-01-31T08:37:34.000Z</time>
      </trkpt>
      <trkpt lat="45.55476" lon="6.59334">
        <ele>1288.1999511719</ele>
        <time>2014-01-31T08:37:35.000Z</time>
      </trkpt>
      <trkpt lat="45.55477" lon="6.59333">
        <ele>1288.4000244141</ele>
        <time>2014-01-31T08:37:36.000Z</time>
      </trkpt>
      <trkpt lat="45.55478" lon="6.59331">
        <ele>1288.5999755859</ele>
        <time>2014-01-31T08:37:37.000Z</time>
      </trkpt>
      <trkpt lat="45.55479" lon="6.5933">
        <ele>1288.5999755859</ele>
        <time>2014-01-31T08:37:38.000Z</time>
      </trkpt>
      <trkpt lat="45.5548" lon="6.59328">
        <ele>1288.8000488281</ele>
        <time>2014-01-31T08:37:39.000Z</time>
      </trkpt>
      <trkpt lat="45.5548" lon="6.59326">
        <ele>1288.8000488281</ele>
        <time>2014-01-31T08:37:40.000Z</time>
      </trkpt>
      <trkpt lat="45.55481" lon="6.59324">
        <ele>1288.8000488281</ele>
        <time>2014-01-31T08:37:41.000Z</time>
      </trkpt>
      <trkpt lat="45.55481" lon="6.59323">
        <ele>1289</ele>
        <time>2014-01-31T08:37:42.000Z</time>
      </trkpt>
      <trkpt lat="45.55481" lon="6.59321">
        <ele>1289</ele>
        <time>2014-01-31T08:37:43.000Z</time>
      </trkpt>
      <trkpt lat="45.55481" lon="6.59319">
        <ele>1289.4000244141</ele>
        <time>2014-01-31T08:37:44.000Z</time>
      </trkpt>
      <trkpt lat="45.55481" lon="6.59317">
        <ele>1289.4000244141</ele>
        <time>2014-01-31T08:37:45.000Z</time>
      </trkpt>
      <trkpt lat="45.55481" lon="6.59315">
        <ele>1289.5999755859</ele>
        <time>2014-01-31T08:37:46.000Z</time>
      </trkpt>
      <trkpt lat="45.55482" lon="6.59314">
        <ele>1289.5999755859</ele>
        <time>2014-01-31T08:37:47.000Z</time>
      </trkpt>
      <trkpt lat="45.55482" lon="6.59312">
        <ele>1289.8000488281</ele>
        <time>2014-01-31T08:37:48.000Z</time>
      </trkpt>
      <trkpt lat="45.55482" lon="6.59311">
        <ele>1289.8000488281</ele>
        <time>2014-01-31T08:37:49.000Z</time>
      </trkpt>
      <trkpt lat="45.55482" lon="6.5931">
        <ele>1290</ele>
        <time>2014-01-31T08:37:50.000Z</time>
      </trkpt>
      <trkpt lat="45.55482" lon="6.5931">
        <ele>1290</ele>
        <time>2014-01-31T08:37:51.000Z</time>
      </trkpt>
      <trkpt lat="45.55481" lon="6.59307">
        <ele>1290.1999511719</ele>
        <time>2014-01-31T08:37:52.000Z</time>
      </trkpt>
      <trkpt lat="45.55481" lon="6.59306">
        <ele>1290.1999511719</ele>
        <time>2014-01-31T08:37:53.000Z</time>
      </trkpt>
      <trkpt lat="45.55481" lon="6.59305">
        <ele>1290.4000244141</ele>
        <time>2014-01-31T08:37:54.000Z</time>
      </trkpt>
      <trkpt lat="45.55481" lon="6.59304">
        <ele>1290.4000244141</ele>
        <time>2014-01-31T08:37:55.000Z</time>
      </trkpt>
      <trkpt lat="45.5548" lon="6.59303">
        <ele>1290.5999755859</ele>
        <time>2014-01-31T08:37:56.000Z</time>
      </trkpt>
      <trkpt lat="45.5548" lon="6.59301">
        <ele>1290.8000488281</ele>
        <time>2014-01-31T08:37:57.000Z</time>
      </trkpt>
      <trkpt lat="45.5548" lon="6.59299">
        <ele>1290.8000488281</ele>
        <time>2014-01-31T08:37:58.000Z</time>
      </trkpt>
      <trkpt lat="45.5548" lon="6.59298">
        <ele>1291</ele>
        <time>2014-01-31T08:37:59.000Z</time>
      </trkpt>
      <trkpt lat="45.5548" lon="6.59297">
        <ele>1291.4000244141</ele>
        <time>2014-01-31T08:38:00.000Z</time>
      </trkpt>
      <trkpt lat="45.5548" lon="6.59295">
        <ele>1291.5999755859</ele>
        <time>2014-01-31T08:38:01.000Z</time>
      </trkpt>
      <trkpt lat="45.5548" lon="6.59294">
        <ele>1291.5999755859</ele>
        <time>2014-01-31T08:38:02.000Z</time>
      </trkpt>
      <trkpt lat="45.5548" lon="6.59294">
        <ele>1291.8000488281</ele>
        <time>2014-01-31T08:38:03.000Z</time>
      </trkpt>
      <trkpt lat="45.5548" lon="6.59294">
        <ele>1291.8000488281</ele>
        <time>2014-01-31T08:38:04.000Z</time>
      </trkpt>
      <trkpt lat="45.5548" lon="6.59294">
        <ele>1292</ele>
        <time>2014-01-31T08:38:05.000Z</time>
      </trkpt>
      <trkpt lat="45.5548" lon="6.59294">
        <ele>1292</ele>
        <time>2014-01-31T08:38:06.000Z</time>
      </trkpt>
      <trkpt lat="45.5548" lon="6.59294">
        <ele>1292</ele>
        <time>2014-01-31T08:38:07.000Z</time>
      </trkpt>
      <trkpt lat="45.5548" lon="6.59294">
        <ele>1292.1999511719</ele>
        <time>2014-01-31T08:38:08.000Z</time>
      </trkpt>
      <trkpt lat="45.5548" lon="6.59294">
        <ele>1292.1999511719</ele>
        <time>2014-01-31T08:38:09.000Z</time>
      </trkpt>
      <trkpt lat="45.5548" lon="6.59294">
        <ele>1292.1999511719</ele>
        <time>2014-01-31T08:38:10.000Z</time>
      </trkpt>
      <trkpt lat="45.5548" lon="6.59294">
        <ele>1292.1999511719</ele>
        <time>2014-01-31T08:38:11.000Z</time>
      </trkpt>
      <trkpt lat="45.5548" lon="6.59293">
        <ele>1292.1999511719</ele>
        <time>2014-01-31T08:38:12.000Z</time>
      </trkpt>
      <trkpt lat="45.5548" lon="6.59293">
        <ele>1292.1999511719</ele>
        <time>2014-01-31T08:38:13.000Z</time>
      </trkpt>
      <trkpt lat="45.55479" lon="6.59291">
        <ele>1292.1999511719</ele>
        <time>2014-01-31T08:38:15.000Z</time>
      </trkpt>
      <trkpt lat="45.55478" lon="6.5929">
        <ele>1292.1999511719</ele>
        <time>2014-01-31T08:38:16.000Z</time>
      </trkpt>
      <trkpt lat="45.55477" lon="6.5929">
        <ele>1292.4000244141</ele>
        <time>2014-01-31T08:38:17.000Z</time>
      </trkpt>
      <trkpt lat="45.55477" lon="6.59289">
        <ele>1292.4000244141</ele>
        <time>2014-01-31T08:38:18.000Z</time>
      </trkpt>
      <trkpt lat="45.55476" lon="6.59287">
        <ele>1292.5999755859</ele>
        <time>2014-01-31T08:38:19.000Z</time>
      </trkpt>
      <trkpt lat="45.55476" lon="6.59286">
        <ele>1292.5999755859</ele>
        <time>2014-01-31T08:38:20.000Z</time>
      </trkpt>
      <trkpt lat="45.55475" lon="6.59284">
        <ele>1292.8000488281</ele>
        <time>2014-01-31T08:38:21.000Z</time>
      </trkpt>
      <trkpt lat="45.55475" lon="6.59284">
        <ele>1292.8000488281</ele>
        <time>2014-01-31T08:38:22.000Z</time>
      </trkpt>
      <trkpt lat="45.55474" lon="6.59283">
        <ele>1293</ele>
        <time>2014-01-31T08:38:23.000Z</time>
      </trkpt>
      <trkpt lat="45.55473" lon="6.59281">
        <ele>1293.1999511719</ele>
        <time>2014-01-31T08:38:24.000Z</time>
      </trkpt>
      <trkpt lat="45.55473" lon="6.5928">
        <ele>1293.1999511719</ele>
        <time>2014-01-31T08:38:25.000Z</time>
      </trkpt>
      <trkpt lat="45.55473" lon="6.59279">
        <ele>1293.4000244141</ele>
        <time>2014-01-31T08:38:26.000Z</time>
      </trkpt>
      <trkpt lat="45.55473" lon="6.59278">
        <ele>1293.5999755859</ele>
        <time>2014-01-31T08:38:27.000Z</time>
      </trkpt>
      <trkpt lat="45.55472" lon="6.59277">
        <ele>1293.5999755859</ele>
        <time>2014-01-31T08:38:28.000Z</time>
      </trkpt>
      <trkpt lat="45.55472" lon="6.59275">
        <ele>1293.8000488281</ele>
        <time>2014-01-31T08:38:29.000Z</time>
      </trkpt>
      <trkpt lat="45.55472" lon="6.59275">
        <ele>1293.8000488281</ele>
        <time>2014-01-31T08:38:30.000Z</time>
      </trkpt>
      <trkpt lat="45.55472" lon="6.59274">
        <ele>1293.8000488281</ele>
        <time>2014-01-31T08:38:31.000Z</time>
      </trkpt>
      <trkpt lat="45.55472" lon="6.59274">
        <ele>1293.8000488281</ele>
        <time>2014-01-31T08:38:32.000Z</time>
      </trkpt>
      <trkpt lat="45.55472" lon="6.59273">
        <ele>1294</ele>
        <time>2014-01-31T08:38:33.000Z</time>
      </trkpt>
      <trkpt lat="45.55471" lon="6.59271">
        <ele>1294.1999511719</ele>
        <time>2014-01-31T08:38:34.000Z</time>
      </trkpt>
      <trkpt lat="45.55472" lon="6.59269">
        <ele>1294.4000244141</ele>
        <time>2014-01-31T08:38:35.000Z</time>
      </trkpt>
      <trkpt lat="45.55472" lon="6.59267">
        <ele>1294.5999755859</ele>
        <time>2014-01-31T08:38:36.000Z</time>
      </trkpt>
      <trkpt lat="45.55472" lon="6.59266">
        <ele>1294.8000488281</ele>
        <time>2014-01-31T08:38:37.000Z</time>
      </trkpt>
      <trkpt lat="45.55472" lon="6.59265">
        <ele>1295</ele>
        <time>2014-01-31T08:38:38.000Z</time>
      </trkpt>
      <trkpt lat="45.55473" lon="6.59263">
        <ele>1295</ele>
        <time>2014-01-31T08:38:39.000Z</time>
      </trkpt>
      <trkpt lat="45.55473" lon="6.59261">
        <ele>1295</ele>
        <time>2014-01-31T08:38:40.000Z</time>
      </trkpt>
      <trkpt lat="45.55472" lon="6.5926">
        <ele>1295.1999511719</ele>
        <time>2014-01-31T08:38:41.000Z</time>
      </trkpt>
      <trkpt lat="45.55473" lon="6.59259">
        <ele>1295.1999511719</ele>
        <time>2014-01-31T08:38:42.000Z</time>
      </trkpt>
      <trkpt lat="45.55473" lon="6.59259">
        <ele>1295.4000244141</ele>
        <time>2014-01-31T08:38:43.000Z</time>
      </trkpt>
      <trkpt lat="45.55473" lon="6.59257">
        <ele>1295.4000244141</ele>
        <time>2014-01-31T08:38:44.000Z</time>
      </trkpt>
      <trkpt lat="45.55473" lon="6.59256">
        <ele>1295.5999755859</ele>
        <time>2014-01-31T08:38:45.000Z</time>
      </trkpt>
      <trkpt lat="45.55472" lon="6.59254">
        <ele>1295.8000488281</ele>
        <time>2014-01-31T08:38:46.000Z</time>
      </trkpt>
      <trkpt lat="45.55472" lon="6.59254">
        <ele>1295.8000488281</ele>
        <time>2014-01-31T08:38:47.000Z</time>
      </trkpt>
      <trkpt lat="45.55473" lon="6.59253">
        <ele>1296</ele>
        <time>2014-01-31T08:38:48.000Z</time>
      </trkpt>
      <trkpt lat="45.55473" lon="6.59251">
        <ele>1296.1999511719</ele>
        <time>2014-01-31T08:38:49.000Z</time>
      </trkpt>
      <trkpt lat="45.55473" lon="6.5925">
        <ele>1296.1999511719</ele>
        <time>2014-01-31T08:38:50.000Z</time>
      </trkpt>
      <trkpt lat="45.55473" lon="6.59249">
        <ele>1296.4000244141</ele>
        <time>2014-01-31T08:38:51.000Z</time>
      </trkpt>
      <trkpt lat="45.55473" lon="6.59249">
        <ele>1296.4000244141</ele>
        <time>2014-01-31T08:38:52.000Z</time>
      </trkpt>
      <trkpt lat="45.55472" lon="6.59248">
        <ele>1296.5999755859</ele>
        <time>2014-01-31T08:38:53.000Z</time>
      </trkpt>
      <trkpt lat="45.55472" lon="6.59247">
        <ele>1296.5999755859</ele>
        <time>2014-01-31T08:38:54.000Z</time>
      </trkpt>
      <trkpt lat="45.55471" lon="6.59246">
        <ele>1296.8000488281</ele>
        <time>2014-01-31T08:38:55.000Z</time>
      </trkpt>
      <trkpt lat="45.5547" lon="6.59245">
        <ele>1297</ele>
        <time>2014-01-31T08:38:56.000Z</time>
      </trkpt>
      <trkpt lat="45.55469" lon="6.59244">
        <ele>1297</ele>
        <time>2014-01-31T08:38:57.000Z</time>
      </trkpt>
      <trkpt lat="45.55469" lon="6.59243">
        <ele>1297.1999511719</ele>
        <time>2014-01-31T08:38:58.000Z</time>
      </trkpt>
      <trkpt lat="45.55468" lon="6.59242">
        <ele>1297.4000244141</ele>
        <time>2014-01-31T08:38:59.000Z</time>
      </trkpt>
      <trkpt lat="45.55467" lon="6.59241">
        <ele>1297.5999755859</ele>
        <time>2014-01-31T08:39:00.000Z</time>
      </trkpt>
      <trkpt lat="45.55467" lon="6.59241">
        <ele>1297.5999755859</ele>
        <time>2014-01-31T08:39:01.000Z</time>
      </trkpt>
      <trkpt lat="45.55466" lon="6.59239">
        <ele>1297.5999755859</ele>
        <time>2014-01-31T08:39:02.000Z</time>
      </trkpt>
      <trkpt lat="45.55466" lon="6.59239">
        <ele>1297.8000488281</ele>
        <time>2014-01-31T08:39:03.000Z</time>
      </trkpt>
      <trkpt lat="45.55466" lon="6.59237">
        <ele>1297.8000488281</ele>
        <time>2014-01-31T08:39:04.000Z</time>
      </trkpt>
      <trkpt lat="45.55465" lon="6.59237">
        <ele>1298</ele>
        <time>2014-01-31T08:39:05.000Z</time>
      </trkpt>
      <trkpt lat="45.55465" lon="6.59235">
        <ele>1298.1999511719</ele>
        <time>2014-01-31T08:39:06.000Z</time>
      </trkpt>
      <trkpt lat="45.55464" lon="6.59234">
        <ele>1298.1999511719</ele>
        <time>2014-01-31T08:39:07.000Z</time>
      </trkpt>
      <trkpt lat="45.55463" lon="6.59233">
        <ele>1298.4000244141</ele>
        <time>2014-01-31T08:39:08.000Z</time>
      </trkpt>
      <trkpt lat="45.55463" lon="6.59232">
        <ele>1298.5999755859</ele>
        <time>2014-01-31T08:39:09.000Z</time>
      </trkpt>
      <trkpt lat="45.55462" lon="6.59231">
        <ele>1298.8000488281</ele>
        <time>2014-01-31T08:39:10.000Z</time>
      </trkpt>
      <trkpt lat="45.55462" lon="6.5923">
        <ele>1299</ele>
        <time>2014-01-31T08:39:11.000Z</time>
      </trkpt>
      <trkpt lat="45.55461" lon="6.59228">
        <ele>1299.1999511719</ele>
        <time>2014-01-31T08:39:12.000Z</time>
      </trkpt>
      <trkpt lat="45.55461" lon="6.59227">
        <ele>1299.1999511719</ele>
        <time>2014-01-31T08:39:13.000Z</time>
      </trkpt>
      <trkpt lat="45.5546" lon="6.59225">
        <ele>1299.4000244141</ele>
        <time>2014-01-31T08:39:14.000Z</time>
      </trkpt>
      <trkpt lat="45.5546" lon="6.59224">
        <ele>1299.4000244141</ele>
        <time>2014-01-31T08:39:15.000Z</time>
      </trkpt>
      <trkpt lat="45.5546" lon="6.59223">
        <ele>1299.5999755859</ele>
        <time>2014-01-31T08:39:16.000Z</time>
      </trkpt>
      <trkpt lat="45.5546" lon="6.59222">
        <ele>1299.5999755859</ele>
        <time>2014-01-31T08:39:17.000Z</time>
      </trkpt>
      <trkpt lat="45.55459" lon="6.59221">
        <ele>1299.8000488281</ele>
        <time>2014-01-31T08:39:18.000Z</time>
      </trkpt>
      <trkpt lat="45.55459" lon="6.5922">
        <ele>1299.8000488281</ele>
        <time>2014-01-31T08:39:19.000Z</time>
      </trkpt>
      <trkpt lat="45.55459" lon="6.59218">
        <ele>1300.1999511719</ele>
        <time>2014-01-31T08:39:20.000Z</time>
      </trkpt>
      <trkpt lat="45.55459" lon="6.59216">
        <ele>1300.1999511719</ele>
        <time>2014-01-31T08:39:21.000Z</time>
      </trkpt>
      <trkpt lat="45.55459" lon="6.59216">
        <ele>1300.4000244141</ele>
        <time>2014-01-31T08:39:22.000Z</time>
      </trkpt>
      <trkpt lat="45.55458" lon="6.59213">
        <ele>1300.4000244141</ele>
        <time>2014-01-31T08:39:23.000Z</time>
      </trkpt>
      <trkpt lat="45.55457" lon="6.59211">
        <ele>1300.5999755859</ele>
        <time>2014-01-31T08:39:24.000Z</time>
      </trkpt>
      <trkpt lat="45.55457" lon="6.5921">
        <ele>1300.8000488281</ele>
        <time>2014-01-31T08:39:25.000Z</time>
      </trkpt>
      <trkpt lat="45.55457" lon="6.59208">
        <ele>1300.8000488281</ele>
        <time>2014-01-31T08:39:26.000Z</time>
      </trkpt>
      <trkpt lat="45.55456" lon="6.59207">
        <ele>1301</ele>
        <time>2014-01-31T08:39:27.000Z</time>
      </trkpt>
      <trkpt lat="45.55456" lon="6.59206">
        <ele>1301.1999511719</ele>
        <time>2014-01-31T08:39:28.000Z</time>
      </trkpt>
      <trkpt lat="45.55455" lon="6.59205">
        <ele>1301.1999511719</ele>
        <time>2014-01-31T08:39:29.000Z</time>
      </trkpt>
      <trkpt lat="45.55455" lon="6.59204">
        <ele>1301.4000244141</ele>
        <time>2014-01-31T08:39:30.000Z</time>
      </trkpt>
      <trkpt lat="45.55456" lon="6.59204">
        <ele>1301.4000244141</ele>
        <time>2014-01-31T08:39:31.000Z</time>
      </trkpt>
      <trkpt lat="45.55456" lon="6.59203">
        <ele>1301.5999755859</ele>
        <time>2014-01-31T08:39:32.000Z</time>
      </trkpt>
      <trkpt lat="45.55456" lon="6.59202">
        <ele>1301.8000488281</ele>
        <time>2014-01-31T08:39:33.000Z</time>
      </trkpt>
      <trkpt lat="45.55456" lon="6.59201">
        <ele>1302</ele>
        <time>2014-01-31T08:39:34.000Z</time>
      </trkpt>
      <trkpt lat="45.55456" lon="6.592">
        <ele>1302.1999511719</ele>
        <time>2014-01-31T08:39:35.000Z</time>
      </trkpt>
      <trkpt lat="45.55456" lon="6.592">
        <ele>1302.1999511719</ele>
        <time>2014-01-31T08:39:36.000Z</time>
      </trkpt>
      <trkpt lat="45.55455" lon="6.59198">
        <ele>1302.4000244141</ele>
        <time>2014-01-31T08:39:37.000Z</time>
      </trkpt>
      <trkpt lat="45.55454" lon="6.59198">
        <ele>1302.4000244141</ele>
        <time>2014-01-31T08:39:38.000Z</time>
      </trkpt>
      <trkpt lat="45.55454" lon="6.59197">
        <ele>1302.5999755859</ele>
        <time>2014-01-31T08:39:39.000Z</time>
      </trkpt>
      <trkpt lat="45.55453" lon="6.59196">
        <ele>1302.5999755859</ele>
        <time>2014-01-31T08:39:40.000Z</time>
      </trkpt>
      <trkpt lat="45.55453" lon="6.59194">
        <ele>1302.8000488281</ele>
        <time>2014-01-31T08:39:41.000Z</time>
      </trkpt>
      <trkpt lat="45.55453" lon="6.59192">
        <ele>1303</ele>
        <time>2014-01-31T08:39:42.000Z</time>
      </trkpt>
      <trkpt lat="45.55453" lon="6.59191">
        <ele>1303.1999511719</ele>
        <time>2014-01-31T08:39:43.000Z</time>
      </trkpt>
      <trkpt lat="45.55453" lon="6.5919">
        <ele>1303.4000244141</ele>
        <time>2014-01-31T08:39:44.000Z</time>
      </trkpt>
      <trkpt lat="45.55452" lon="6.59188">
        <ele>1303.5999755859</ele>
        <time>2014-01-31T08:39:45.000Z</time>
      </trkpt>
      <trkpt lat="45.55453" lon="6.59187">
        <ele>1303.8000488281</ele>
        <time>2014-01-31T08:39:46.000Z</time>
      </trkpt>
      <trkpt lat="45.55453" lon="6.59185">
        <ele>1303.8000488281</ele>
        <time>2014-01-31T08:39:47.000Z</time>
      </trkpt>
      <trkpt lat="45.55453" lon="6.59182">
        <ele>1304</ele>
        <time>2014-01-31T08:39:48.000Z</time>
      </trkpt>
      <trkpt lat="45.55453" lon="6.5918">
        <ele>1304.1999511719</ele>
        <time>2014-01-31T08:39:49.000Z</time>
      </trkpt>
      <trkpt lat="45.55453" lon="6.59178">
        <ele>1304.1999511719</ele>
        <time>2014-01-31T08:39:50.000Z</time>
      </trkpt>
      <trkpt lat="45.55453" lon="6.59177">
        <ele>1304.4000244141</ele>
        <time>2014-01-31T08:39:51.000Z</time>
      </trkpt>
      <trkpt lat="45.55453" lon="6.59176">
        <ele>1304.5999755859</ele>
        <time>2014-01-31T08:39:52.000Z</time>
      </trkpt>
      <trkpt lat="45.55453" lon="6.59173">
        <ele>1304.5999755859</ele>
        <time>2014-01-31T08:39:53.000Z</time>
      </trkpt>
      <trkpt lat="45.55453" lon="6.59172">
        <ele>1304.8000488281</ele>
        <time>2014-01-31T08:39:54.000Z</time>
      </trkpt>
      <trkpt lat="45.55454" lon="6.5917">
        <ele>1304.8000488281</ele>
        <time>2014-01-31T08:39:55.000Z</time>
      </trkpt>
      <trkpt lat="45.55454" lon="6.59167">
        <ele>1305</ele>
        <time>2014-01-31T08:39:56.000Z</time>
      </trkpt>
      <trkpt lat="45.55454" lon="6.59165">
        <ele>1305.1999511719</ele>
        <time>2014-01-31T08:39:57.000Z</time>
      </trkpt>
      <trkpt lat="45.55454" lon="6.59163">
        <ele>1305.1999511719</ele>
        <time>2014-01-31T08:39:58.000Z</time>
      </trkpt>
      <trkpt lat="45.55454" lon="6.59161">
        <ele>1305.4000244141</ele>
        <time>2014-01-31T08:39:59.000Z</time>
      </trkpt>
      <trkpt lat="45.55455" lon="6.59158">
        <ele>1305.4000244141</ele>
        <time>2014-01-31T08:40:00.000Z</time>
      </trkpt>
      <trkpt lat="45.55455" lon="6.59156">
        <ele>1305.5999755859</ele>
        <time>2014-01-31T08:40:01.000Z</time>
      </trkpt>
      <trkpt lat="45.55455" lon="6.59154">
        <ele>1305.5999755859</ele>
        <time>2014-01-31T08:40:02.000Z</time>
      </trkpt>
      <trkpt lat="45.55455" lon="6.59152">
        <ele>1305.8000488281</ele>
        <time>2014-01-31T08:40:03.000Z</time>
      </trkpt>
      <trkpt lat="45.55455" lon="6.59151">
        <ele>1305.8000488281</ele>
        <time>2014-01-31T08:40:04.000Z</time>
      </trkpt>
      <trkpt lat="45.55455" lon="6.5915">
        <ele>1306</ele>
        <time>2014-01-31T08:40:05.000Z</time>
      </trkpt>
      <trkpt lat="45.55454" lon="6.59148">
        <ele>1306</ele>
        <time>2014-01-31T08:40:06.000Z</time>
      </trkpt>
      <trkpt lat="45.55454" lon="6.59147">
        <ele>1306.1999511719</ele>
        <time>2014-01-31T08:40:07.000Z</time>
      </trkpt>
      <trkpt lat="45.55453" lon="6.59146">
        <ele>1306.4000244141</ele>
        <time>2014-01-31T08:40:08.000Z</time>
      </trkpt>
      <trkpt lat="45.55452" lon="6.59144">
        <ele>1306.5999755859</ele>
        <time>2014-01-31T08:40:09.000Z</time>
      </trkpt>
      <trkpt lat="45.55451" lon="6.59143">
        <ele>1306.5999755859</ele>
        <time>2014-01-31T08:40:10.000Z</time>
      </trkpt>
      <trkpt lat="45.55451" lon="6.59141">
        <ele>1306.8000488281</ele>
        <time>2014-01-31T08:40:11.000Z</time>
      </trkpt>
      <trkpt lat="45.5545" lon="6.59139">
        <ele>1306.8000488281</ele>
        <time>2014-01-31T08:40:12.000Z</time>
      </trkpt>
      <trkpt lat="45.5545" lon="6.59138">
        <ele>1307</ele>
        <time>2014-01-31T08:40:13.000Z</time>
      </trkpt>
      <trkpt lat="45.5545" lon="6.59137">
        <ele>1307</ele>
        <time>2014-01-31T08:40:14.000Z</time>
      </trkpt>
      <trkpt lat="45.5545" lon="6.59136">
        <ele>1307.1999511719</ele>
        <time>2014-01-31T08:40:15.000Z</time>
      </trkpt>
      <trkpt lat="45.5545" lon="6.59135">
        <ele>1307.4000244141</ele>
        <time>2014-01-31T08:40:16.000Z</time>
      </trkpt>
      <trkpt lat="45.5545" lon="6.59134">
        <ele>1307.5999755859</ele>
        <time>2014-01-31T08:40:17.000Z</time>
      </trkpt>
      <trkpt lat="45.5545" lon="6.59132">
        <ele>1307.8000488281</ele>
        <time>2014-01-31T08:40:18.000Z</time>
      </trkpt>
      <trkpt lat="45.5545" lon="6.59131">
        <ele>1307.8000488281</ele>
        <time>2014-01-31T08:40:19.000Z</time>
      </trkpt>
      <trkpt lat="45.55451" lon="6.5913">
        <ele>1308</ele>
        <time>2014-01-31T08:40:20.000Z</time>
      </trkpt>
      <trkpt lat="45.55451" lon="6.5913">
        <ele>1308</ele>
        <time>2014-01-31T08:40:21.000Z</time>
      </trkpt>
      <trkpt lat="45.55451" lon="6.5913">
        <ele>1308</ele>
        <time>2014-01-31T08:40:22.000Z</time>
      </trkpt>
      <trkpt lat="45.55452" lon="6.59129">
        <ele>1308.1999511719</ele>
        <time>2014-01-31T08:40:23.000Z</time>
      </trkpt>
      <trkpt lat="45.55453" lon="6.59129">
        <ele>1308.4000244141</ele>
        <time>2014-01-31T08:40:24.000Z</time>
      </trkpt>
      <trkpt lat="45.55454" lon="6.59128">
        <ele>1308.5999755859</ele>
        <time>2014-01-31T08:40:25.000Z</time>
      </trkpt>
      <trkpt lat="45.55456" lon="6.59127">
        <ele>1308.8000488281</ele>
        <time>2014-01-31T08:40:26.000Z</time>
      </trkpt>
      <trkpt lat="45.55457" lon="6.59126">
        <ele>1308.8000488281</ele>
        <time>2014-01-31T08:40:27.000Z</time>
      </trkpt>
      <trkpt lat="45.55457" lon="6.59126">
        <ele>1309</ele>
        <time>2014-01-31T08:40:28.000Z</time>
      </trkpt>
      <trkpt lat="45.55457" lon="6.59126">
        <ele>1309</ele>
        <time>2014-01-31T08:40:29.000Z</time>
      </trkpt>
      <trkpt lat="45.55455" lon="6.59126">
        <ele>1309</ele>
        <time>2014-01-31T08:40:30.000Z</time>
      </trkpt>
      <trkpt lat="45.55451" lon="6.59127">
        <ele>1309</ele>
        <time>2014-01-31T08:40:32.000Z</time>
      </trkpt>
      <trkpt lat="45.55449" lon="6.59125">
        <ele>1309</ele>
        <time>2014-01-31T08:40:33.000Z</time>
      </trkpt>
      <trkpt lat="45.55448" lon="6.59125">
        <ele>1309</ele>
        <time>2014-01-31T08:40:34.000Z</time>
      </trkpt>
      <trkpt lat="45.55448" lon="6.59123">
        <ele>1308.8000488281</ele>
        <time>2014-01-31T08:40:35.000Z</time>
      </trkpt>
      <trkpt lat="45.55447" lon="6.59122">
        <ele>1308.8000488281</ele>
        <time>2014-01-31T08:40:36.000Z</time>
      </trkpt>
      <trkpt lat="45.55447" lon="6.59121">
        <ele>1308.8000488281</ele>
        <time>2014-01-31T08:40:37.000Z</time>
      </trkpt>
      <trkpt lat="45.55447" lon="6.5912">
        <ele>1308.8000488281</ele>
        <time>2014-01-31T08:40:38.000Z</time>
      </trkpt>
      <trkpt lat="45.55447" lon="6.5912">
        <ele>1308.8000488281</ele>
        <time>2014-01-31T08:40:39.000Z</time>
      </trkpt>
      <trkpt lat="45.55447" lon="6.5912">
        <ele>1308.8000488281</ele>
        <time>2014-01-31T08:40:40.000Z</time>
      </trkpt>
      <trkpt lat="45.55447" lon="6.5912">
        <ele>1308.8000488281</ele>
        <time>2014-01-31T08:40:41.000Z</time>
      </trkpt>
      <trkpt lat="45.55447" lon="6.5912">
        <ele>1308.8000488281</ele>
        <time>2014-01-31T08:40:44.000Z</time>
      </trkpt>
      <trkpt lat="45.55447" lon="6.5912">
        <ele>1308.8000488281</ele>
        <time>2014-01-31T08:40:46.000Z</time>
      </trkpt>
      <trkpt lat="45.55447" lon="6.5912">
        <ele>1308.8000488281</ele>
        <time>2014-01-31T08:40:47.000Z</time>
      </trkpt>
      <trkpt lat="45.55447" lon="6.5912">
        <ele>1308.8000488281</ele>
        <time>2014-01-31T08:40:48.000Z</time>
      </trkpt>
      <trkpt lat="45.55447" lon="6.5912">
        <ele>1308.8000488281</ele>
        <time>2014-01-31T08:40:51.000Z</time>
      </trkpt>
      <trkpt lat="45.55447" lon="6.5912">
        <ele>1308.8000488281</ele>
        <time>2014-01-31T08:40:52.000Z</time>
      </trkpt>
      <trkpt lat="45.55447" lon="6.5912">
        <ele>1308.8000488281</ele>
        <time>2014-01-31T08:40:53.000Z</time>
      </trkpt>
      <trkpt lat="45.55447" lon="6.5912">
        <ele>1308.8000488281</ele>
        <time>2014-01-31T08:40:55.000Z</time>
      </trkpt>
      <trkpt lat="45.55447" lon="6.5912">
        <ele>1308.8000488281</ele>
        <time>2014-01-31T08:40:57.000Z</time>
      </trkpt>
      <trkpt lat="45.55447" lon="6.5912">
        <ele>1308.8000488281</ele>
        <time>2014-01-31T08:41:03.000Z</time>
      </trkpt>
      <trkpt lat="45.55447" lon="6.5912">
        <ele>1308.8000488281</ele>
        <time>2014-01-31T08:41:04.000Z</time>
      </trkpt>
      <trkpt lat="45.55447" lon="6.5912">
        <ele>1308.8000488281</ele>
        <time>2014-01-31T08:41:05.000Z</time>
      </trkpt>
      <trkpt lat="45.55447" lon="6.5912">
        <ele>1308.8000488281</ele>
        <time>2014-01-31T08:41:06.000Z</time>
      </trkpt>
      <trkpt lat="45.55447" lon="6.5912">
        <ele>1308.8000488281</ele>
        <time>2014-01-31T08:41:09.000Z</time>
      </trkpt>
      <trkpt lat="45.55447" lon="6.5912">
        <ele>1308.5999755859</ele>
        <time>2014-01-31T08:41:10.000Z</time>
      </trkpt>
      <trkpt lat="45.55447" lon="6.5912">
        <ele>1308.5999755859</ele>
        <time>2014-01-31T08:41:11.000Z</time>
      </trkpt>
      <trkpt lat="45.55447" lon="6.5912">
        <ele>1308.5999755859</ele>
        <time>2014-01-31T08:41:13.000Z</time>
      </trkpt>
      <trkpt lat="45.55449" lon="6.59118">
        <ele>1308.5999755859</ele>
        <time>2014-01-31T08:41:17.000Z</time>
      </trkpt>
      <trkpt lat="45.55449" lon="6.59118">
        <ele>1308.8000488281</ele>
        <time>2014-01-31T08:41:18.000Z</time>
      </trkpt>
      <trkpt lat="45.55451" lon="6.59117">
        <ele>1308.8000488281</ele>
        <time>2014-01-31T08:41:20.000Z</time>
      </trkpt>
      <trkpt lat="45.55452" lon="6.59116">
        <ele>1308.8000488281</ele>
        <time>2014-01-31T08:41:21.000Z</time>
      </trkpt>
      <trkpt lat="45.55452" lon="6.59116">
        <ele>1308.8000488281</ele>
        <time>2014-01-31T08:41:22.000Z</time>
      </trkpt>
      <trkpt lat="45.55452" lon="6.59116">
        <ele>1308.8000488281</ele>
        <time>2014-01-31T08:41:23.000Z</time>
      </trkpt>
      <trkpt lat="45.55451" lon="6.59117">
        <ele>1308.5999755859</ele>
        <time>2014-01-31T08:41:24.000Z</time>
      </trkpt>
      <trkpt lat="45.5545" lon="6.59117">
        <ele>1308.5999755859</ele>
        <time>2014-01-31T08:41:25.000Z</time>
      </trkpt>
      <trkpt lat="45.5545" lon="6.59118">
        <ele>1308.5999755859</ele>
        <time>2014-01-31T08:41:27.000Z</time>
      </trkpt>
      <trkpt lat="45.5545" lon="6.59118">
        <ele>1308.5999755859</ele>
        <time>2014-01-31T08:41:29.000Z</time>
      </trkpt>
      <trkpt lat="45.5545" lon="6.59118">
        <ele>1308.5999755859</ele>
        <time>2014-01-31T08:41:33.000Z</time>
      </trkpt>
      <trkpt lat="45.5545" lon="6.59118">
        <ele>1308.5999755859</ele>
        <time>2014-01-31T08:41:34.000Z</time>
      </trkpt>
      <trkpt lat="45.5545" lon="6.59118">
        <ele>1308.5999755859</ele>
        <time>2014-01-31T08:41:35.000Z</time>
      </trkpt>
      <trkpt lat="45.5545" lon="6.59118">
        <ele>1308.5999755859</ele>
        <time>2014-01-31T08:41:36.000Z</time>
      </trkpt>
      <trkpt lat="45.55451" lon="6.59119">
        <ele>1308.5999755859</ele>
        <time>2014-01-31T08:41:37.000Z</time>
      </trkpt>
      <trkpt lat="45.55452" lon="6.5912">
        <ele>1308.5999755859</ele>
        <time>2014-01-31T08:41:38.000Z</time>
      </trkpt>
      <trkpt lat="45.55453" lon="6.59121">
        <ele>1308.5999755859</ele>
        <time>2014-01-31T08:41:39.000Z</time>
      </trkpt>
      <trkpt lat="45.55454" lon="6.59121">
        <ele>1308.8000488281</ele>
        <time>2014-01-31T08:41:40.000Z</time>
      </trkpt>
      <trkpt lat="45.55455" lon="6.59121">
        <ele>1308.8000488281</ele>
        <time>2014-01-31T08:41:41.000Z</time>
      </trkpt>
      <trkpt lat="45.55456" lon="6.59121">
        <ele>1309</ele>
        <time>2014-01-31T08:41:42.000Z</time>
      </trkpt>
      <trkpt lat="45.55456" lon="6.59121">
        <ele>1309</ele>
        <time>2014-01-31T08:41:43.000Z</time>
      </trkpt>
      <trkpt lat="45.55457" lon="6.5912">
        <ele>1309.1999511719</ele>
        <time>2014-01-31T08:41:44.000Z</time>
      </trkpt>
      <trkpt lat="45.55458" lon="6.5912">
        <ele>1309.4000244141</ele>
        <time>2014-01-31T08:41:45.000Z</time>
      </trkpt>
      <trkpt lat="45.55459" lon="6.59119">
        <ele>1309.5999755859</ele>
        <time>2014-01-31T08:41:46.000Z</time>
      </trkpt>
      <trkpt lat="45.55459" lon="6.59119">
        <ele>1309.8000488281</ele>
        <time>2014-01-31T08:41:47.000Z</time>
      </trkpt>
      <trkpt lat="45.5546" lon="6.59119">
        <ele>1309.8000488281</ele>
        <time>2014-01-31T08:41:48.000Z</time>
      </trkpt>
      <trkpt lat="45.5546" lon="6.59117">
        <ele>1310</ele>
        <time>2014-01-31T08:41:49.000Z</time>
      </trkpt>
      <trkpt lat="45.55461" lon="6.59117">
        <ele>1310.1999511719</ele>
        <time>2014-01-31T08:41:50.000Z</time>
      </trkpt>
      <trkpt lat="45.55461" lon="6.59116">
        <ele>1310.4000244141</ele>
        <time>2014-01-31T08:41:51.000Z</time>
      </trkpt>
      <trkpt lat="45.55461" lon="6.59116">
        <ele>1310.5999755859</ele>
        <time>2014-01-31T08:41:52.000Z</time>
      </trkpt>
      <trkpt lat="45.55462" lon="6.59115">
        <ele>1310.8000488281</ele>
        <time>2014-01-31T08:41:53.000Z</time>
      </trkpt>
      <trkpt lat="45.55462" lon="6.59114">
        <ele>1311</ele>
        <time>2014-01-31T08:41:54.000Z</time>
      </trkpt>
      <trkpt lat="45.55463" lon="6.59112">
        <ele>1311.4000244141</ele>
        <time>2014-01-31T08:41:55.000Z</time>
      </trkpt>
      <trkpt lat="45.55463" lon="6.59111">
        <ele>1311.4000244141</ele>
        <time>2014-01-31T08:41:56.000Z</time>
      </trkpt>
      <trkpt lat="45.55463" lon="6.5911">
        <ele>1311.5999755859</ele>
        <time>2014-01-31T08:41:57.000Z</time>
      </trkpt>
      <trkpt lat="45.55464" lon="6.59109">
        <ele>1311.8000488281</ele>
        <time>2014-01-31T08:41:58.000Z</time>
      </trkpt>
      <trkpt lat="45.55464" lon="6.59108">
        <ele>1312</ele>
        <time>2014-01-31T08:41:59.000Z</time>
      </trkpt>
      <trkpt lat="45.55465" lon="6.59108">
        <ele>1312.4000244141</ele>
        <time>2014-01-31T08:42:00.000Z</time>
      </trkpt>
      <trkpt lat="45.55466" lon="6.59107">
        <ele>1312.5999755859</ele>
        <time>2014-01-31T08:42:01.000Z</time>
      </trkpt>
      <trkpt lat="45.55467" lon="6.59107">
        <ele>1312.5999755859</ele>
        <time>2014-01-31T08:42:02.000Z</time>
      </trkpt>
      <trkpt lat="45.55468" lon="6.59107">
        <ele>1312.8000488281</ele>
        <time>2014-01-31T08:42:03.000Z</time>
      </trkpt>
      <trkpt lat="45.55468" lon="6.59106">
        <ele>1313</ele>
        <time>2014-01-31T08:42:04.000Z</time>
      </trkpt>
      <trkpt lat="45.55469" lon="6.59105">
        <ele>1313.4000244141</ele>
        <time>2014-01-31T08:42:05.000Z</time>
      </trkpt>
      <trkpt lat="45.5547" lon="6.59105">
        <ele>1313.5999755859</ele>
        <time>2014-01-31T08:42:06.000Z</time>
      </trkpt>
      <trkpt lat="45.55472" lon="6.59104">
        <ele>1313.8000488281</ele>
        <time>2014-01-31T08:42:07.000Z</time>
      </trkpt>
      <trkpt lat="45.55472" lon="6.59104">
        <ele>1314.4000244141</ele>
        <time>2014-01-31T08:42:08.000Z</time>
      </trkpt>
      <trkpt lat="45.55472" lon="6.59104">
        <ele>1314.5999755859</ele>
        <time>2014-01-31T08:42:09.000Z</time>
      </trkpt>
      <trkpt lat="45.55473" lon="6.59103">
        <ele>1314.5999755859</ele>
        <time>2014-01-31T08:42:10.000Z</time>
      </trkpt>
      <trkpt lat="45.55473" lon="6.59103">
        <ele>1314.8000488281</ele>
        <time>2014-01-31T08:42:11.000Z</time>
      </trkpt>
      <trkpt lat="45.55474" lon="6.59103">
        <ele>1315</ele>
        <time>2014-01-31T08:42:12.000Z</time>
      </trkpt>
      <trkpt lat="45.55474" lon="6.59103">
        <ele>1315.1999511719</ele>
        <time>2014-01-31T08:42:13.000Z</time>
      </trkpt>
      <trkpt lat="45.55474" lon="6.59103">
        <ele>1315.4000244141</ele>
        <time>2014-01-31T08:42:14.000Z</time>
      </trkpt>
      <trkpt lat="45.55474" lon="6.59103">
        <ele>1315.5999755859</ele>
        <time>2014-01-31T08:42:15.000Z</time>
      </trkpt>
      <trkpt lat="45.55474" lon="6.59103">
        <ele>1316</ele>
        <time>2014-01-31T08:42:16.000Z</time>
      </trkpt>
      <trkpt lat="45.55474" lon="6.59103">
        <ele>1316.1999511719</ele>
        <time>2014-01-31T08:42:17.000Z</time>
      </trkpt>
      <trkpt lat="45.55474" lon="6.59103">
        <ele>1316.5999755859</ele>
        <time>2014-01-31T08:42:18.000Z</time>
      </trkpt>
      <trkpt lat="45.55474" lon="6.59103">
        <ele>1316.8000488281</ele>
        <time>2014-01-31T08:42:19.000Z</time>
      </trkpt>
      <trkpt lat="45.55475" lon="6.59102">
        <ele>1317.1999511719</ele>
        <time>2014-01-31T08:42:20.000Z</time>
      </trkpt>
      <trkpt lat="45.55475" lon="6.59102">
        <ele>1317.4000244141</ele>
        <time>2014-01-31T08:42:21.000Z</time>
      </trkpt>
      <trkpt lat="45.55475" lon="6.59102">
        <ele>1317.5999755859</ele>
        <time>2014-01-31T08:42:22.000Z</time>
      </trkpt>
      <trkpt lat="45.55475" lon="6.59102">
        <ele>1317.5999755859</ele>
        <time>2014-01-31T08:42:23.000Z</time>
      </trkpt>
      <trkpt lat="45.55475" lon="6.59102">
        <ele>1317.8000488281</ele>
        <time>2014-01-31T08:42:24.000Z</time>
      </trkpt>
      <trkpt lat="45.55475" lon="6.59102">
        <ele>1317.8000488281</ele>
        <time>2014-01-31T08:42:25.000Z</time>
      </trkpt>
      <trkpt lat="45.55475" lon="6.59102">
        <ele>1317.8000488281</ele>
        <time>2014-01-31T08:42:26.000Z</time>
      </trkpt>
      <trkpt lat="45.55475" lon="6.59102">
        <ele>1317.8000488281</ele>
        <time>2014-01-31T08:42:30.000Z</time>
      </trkpt>
      <trkpt lat="45.55475" lon="6.59102">
        <ele>1317.8000488281</ele>
        <time>2014-01-31T08:42:31.000Z</time>
      </trkpt>
      <trkpt lat="45.55475" lon="6.59102">
        <ele>1317.8000488281</ele>
        <time>2014-01-31T08:42:32.000Z</time>
      </trkpt>
      <trkpt lat="45.55475" lon="6.59102">
        <ele>1317.8000488281</ele>
        <time>2014-01-31T08:42:33.000Z</time>
      </trkpt>
      <trkpt lat="45.55475" lon="6.59102">
        <ele>1317.8000488281</ele>
        <time>2014-01-31T08:42:34.000Z</time>
      </trkpt>
      <trkpt lat="45.55475" lon="6.59102">
        <ele>1318</ele>
        <time>2014-01-31T08:42:35.000Z</time>
      </trkpt>
      <trkpt lat="45.55475" lon="6.59102">
        <ele>1317.8000488281</ele>
        <time>2014-01-31T08:42:36.000Z</time>
      </trkpt>
      <trkpt lat="45.55475" lon="6.59102">
        <ele>1318</ele>
        <time>2014-01-31T08:42:37.000Z</time>
      </trkpt>
      <trkpt lat="45.55476" lon="6.59101">
        <ele>1318</ele>
        <time>2014-01-31T08:42:39.000Z</time>
      </trkpt>
      <trkpt lat="45.55476" lon="6.59101">
        <ele>1318</ele>
        <time>2014-01-31T08:42:40.000Z</time>
      </trkpt>
      <trkpt lat="45.55478" lon="6.591">
        <ele>1318</ele>
        <time>2014-01-31T08:42:41.000Z</time>
      </trkpt>
      <trkpt lat="45.55478" lon="6.591">
        <ele>1318</ele>
        <time>2014-01-31T08:42:42.000Z</time>
      </trkpt>
      <trkpt lat="45.55478" lon="6.591">
        <ele>1318.1999511719</ele>
        <time>2014-01-31T08:42:43.000Z</time>
      </trkpt>
      <trkpt lat="45.55478" lon="6.591">
        <ele>1318.1999511719</ele>
        <time>2014-01-31T08:42:44.000Z</time>
      </trkpt>
      <trkpt lat="45.55478" lon="6.591">
        <ele>1318.4000244141</ele>
        <time>2014-01-31T08:42:45.000Z</time>
      </trkpt>
      <trkpt lat="45.55478" lon="6.591">
        <ele>1318.4000244141</ele>
        <time>2014-01-31T08:42:46.000Z</time>
      </trkpt>
      <trkpt lat="45.55478" lon="6.591">
        <ele>1318.4000244141</ele>
        <time>2014-01-31T08:42:47.000Z</time>
      </trkpt>
      <trkpt lat="45.55478" lon="6.591">
        <ele>1318.4000244141</ele>
        <time>2014-01-31T08:42:48.000Z</time>
      </trkpt>
      <trkpt lat="45.55478" lon="6.591">
        <ele>1318.4000244141</ele>
        <time>2014-01-31T08:42:49.000Z</time>
      </trkpt>
      <trkpt lat="45.55478" lon="6.591">
        <ele>1318.4000244141</ele>
        <time>2014-01-31T08:42:52.000Z</time>
      </trkpt>
      <trkpt lat="45.55478" lon="6.591">
        <ele>1318.4000244141</ele>
        <time>2014-01-31T08:42:53.000Z</time>
      </trkpt>
      <trkpt lat="45.55478" lon="6.591">
        <ele>1318.5999755859</ele>
        <time>2014-01-31T08:42:54.000Z</time>
      </trkpt>
      <trkpt lat="45.55478" lon="6.591">
        <ele>1318.5999755859</ele>
        <time>2014-01-31T08:42:55.000Z</time>
      </trkpt>
      <trkpt lat="45.55478" lon="6.591">
        <ele>1318.8000488281</ele>
        <time>2014-01-31T08:42:56.000Z</time>
      </trkpt>
      <trkpt lat="45.55478" lon="6.591">
        <ele>1318.8000488281</ele>
        <time>2014-01-31T08:42:57.000Z</time>
      </trkpt>
      <trkpt lat="45.55478" lon="6.591">
        <ele>1318.8000488281</ele>
        <time>2014-01-31T08:42:58.000Z</time>
      </trkpt>
      <trkpt lat="45.55478" lon="6.591">
        <ele>1319</ele>
        <time>2014-01-31T08:42:59.000Z</time>
      </trkpt>
      <trkpt lat="45.55478" lon="6.591">
        <ele>1319</ele>
        <time>2014-01-31T08:43:00.000Z</time>
      </trkpt>
      <trkpt lat="45.55478" lon="6.591">
        <ele>1319</ele>
        <time>2014-01-31T08:43:01.000Z</time>
      </trkpt>
      <trkpt lat="45.55478" lon="6.591">
        <ele>1319</ele>
        <time>2014-01-31T08:43:02.000Z</time>
      </trkpt>
      <trkpt lat="45.55478" lon="6.591">
        <ele>1319</ele>
        <time>2014-01-31T08:43:04.000Z</time>
      </trkpt>
      <trkpt lat="45.55478" lon="6.591">
        <ele>1319</ele>
        <time>2014-01-31T08:43:07.000Z</time>
      </trkpt>
      <trkpt lat="45.55478" lon="6.591">
        <ele>1319</ele>
        <time>2014-01-31T08:43:08.000Z</time>
      </trkpt>
      <trkpt lat="45.55478" lon="6.591">
        <ele>1319</ele>
        <time>2014-01-31T08:43:09.000Z</time>
      </trkpt>
      <trkpt lat="45.55478" lon="6.591">
        <ele>1319</ele>
        <time>2014-01-31T08:43:10.000Z</time>
      </trkpt>
      <trkpt lat="45.55478" lon="6.591">
        <ele>1319</ele>
        <time>2014-01-31T08:43:11.000Z</time>
      </trkpt>
      <trkpt lat="45.55478" lon="6.591">
        <ele>1319</ele>
        <time>2014-01-31T08:43:14.000Z</time>
      </trkpt>
      <trkpt lat="45.55478" lon="6.591">
        <ele>1319</ele>
        <time>2014-01-31T08:43:15.000Z</time>
      </trkpt>
      <trkpt lat="45.55478" lon="6.591">
        <ele>1319</ele>
        <time>2014-01-31T08:43:16.000Z</time>
      </trkpt>
      <trkpt lat="45.55478" lon="6.591">
        <ele>1319</ele>
        <time>2014-01-31T08:43:17.000Z</time>
      </trkpt>
      <trkpt lat="45.55478" lon="6.591">
        <ele>1319</ele>
        <time>2014-01-31T08:43:18.000Z</time>
      </trkpt>
      <trkpt lat="45.55481" lon="6.59098">
        <ele>1319</ele>
        <time>2014-01-31T08:43:20.000Z</time>
      </trkpt>
      <trkpt lat="45.55484" lon="6.59096">
        <ele>1319</ele>
        <time>2014-01-31T08:43:22.000Z</time>
      </trkpt>
      <trkpt lat="45.55485" lon="6.59094">
        <ele>1319.1999511719</ele>
        <time>2014-01-31T08:43:23.000Z</time>
      </trkpt>
      <trkpt lat="45.55486" lon="6.59093">
        <ele>1319.1999511719</ele>
        <time>2014-01-31T08:43:24.000Z</time>
      </trkpt>
      <trkpt lat="45.55486" lon="6.59091">
        <ele>1319.1999511719</ele>
        <time>2014-01-31T08:43:25.000Z</time>
      </trkpt>
      <trkpt lat="45.55487" lon="6.5909">
        <ele>1319.4000244141</ele>
        <time>2014-01-31T08:43:26.000Z</time>
      </trkpt>
      <trkpt lat="45.55486" lon="6.59089">
        <ele>1319.5999755859</ele>
        <time>2014-01-31T08:43:27.000Z</time>
      </trkpt>
      <trkpt lat="45.55486" lon="6.59088">
        <ele>1319.5999755859</ele>
        <time>2014-01-31T08:43:28.000Z</time>
      </trkpt>
      <trkpt lat="45.55486" lon="6.59088">
        <ele>1319.8000488281</ele>
        <time>2014-01-31T08:43:29.000Z</time>
      </trkpt>
      <trkpt lat="45.55486" lon="6.59088">
        <ele>1320</ele>
        <time>2014-01-31T08:43:30.000Z</time>
      </trkpt>
      <trkpt lat="45.55486" lon="6.59088">
        <ele>1320</ele>
        <time>2014-01-31T08:43:31.000Z</time>
      </trkpt>
      <trkpt lat="45.55486" lon="6.59088">
        <ele>1320.1999511719</ele>
        <time>2014-01-31T08:43:32.000Z</time>
      </trkpt>
      <trkpt lat="45.55486" lon="6.59088">
        <ele>1320.1999511719</ele>
        <time>2014-01-31T08:43:33.000Z</time>
      </trkpt>
      <trkpt lat="45.55486" lon="6.59088">
        <ele>1320.4000244141</ele>
        <time>2014-01-31T08:43:34.000Z</time>
      </trkpt>
      <trkpt lat="45.55486" lon="6.59088">
        <ele>1320.4000244141</ele>
        <time>2014-01-31T08:43:35.000Z</time>
      </trkpt>
      <trkpt lat="45.55486" lon="6.59088">
        <ele>1320.4000244141</ele>
        <time>2014-01-31T08:43:36.000Z</time>
      </trkpt>
      <trkpt lat="45.55486" lon="6.59088">
        <ele>1320.4000244141</ele>
        <time>2014-01-31T08:43:37.000Z</time>
      </trkpt>
      <trkpt lat="45.55485" lon="6.59087">
        <ele>1320.4000244141</ele>
        <time>2014-01-31T08:43:38.000Z</time>
      </trkpt>
      <trkpt lat="45.55485" lon="6.59087">
        <ele>1320.4000244141</ele>
        <time>2014-01-31T08:43:40.000Z</time>
      </trkpt>
      <trkpt lat="45.55485" lon="6.59087">
        <ele>1320.4000244141</ele>
        <time>2014-01-31T08:43:41.000Z</time>
      </trkpt>
      <trkpt lat="45.55485" lon="6.59087">
        <ele>1320.4000244141</ele>
        <time>2014-01-31T08:43:44.000Z</time>
      </trkpt>
      <trkpt lat="45.55485" lon="6.59087">
        <ele>1320.4000244141</ele>
        <time>2014-01-31T08:43:45.000Z</time>
      </trkpt>
      <trkpt lat="45.55485" lon="6.59087">
        <ele>1320.4000244141</ele>
        <time>2014-01-31T08:43:46.000Z</time>
      </trkpt>
      <trkpt lat="45.55485" lon="6.59087">
        <ele>1320.4000244141</ele>
        <time>2014-01-31T08:43:47.000Z</time>
      </trkpt>
      <trkpt lat="45.55485" lon="6.59087">
        <ele>1320.4000244141</ele>
        <time>2014-01-31T08:43:49.000Z</time>
      </trkpt>
      <trkpt lat="45.55485" lon="6.59087">
        <ele>1320.4000244141</ele>
        <time>2014-01-31T08:43:50.000Z</time>
      </trkpt>
      <trkpt lat="45.55485" lon="6.59087">
        <ele>1320.4000244141</ele>
        <time>2014-01-31T08:43:51.000Z</time>
      </trkpt>
      <trkpt lat="45.55485" lon="6.59087">
        <ele>1320.4000244141</ele>
        <time>2014-01-31T08:43:52.000Z</time>
      </trkpt>
      <trkpt lat="45.55485" lon="6.59087">
        <ele>1320.4000244141</ele>
        <time>2014-01-31T08:43:53.000Z</time>
      </trkpt>
      <trkpt lat="45.55485" lon="6.59087">
        <ele>1320.1999511719</ele>
        <time>2014-01-31T08:43:54.000Z</time>
      </trkpt>
      <trkpt lat="45.55485" lon="6.59087">
        <ele>1319.8000488281</ele>
        <time>2014-01-31T08:43:55.000Z</time>
      </trkpt>
      <trkpt lat="45.55485" lon="6.59087">
        <ele>1319.5999755859</ele>
        <time>2014-01-31T08:43:56.000Z</time>
      </trkpt>
      <trkpt lat="45.55485" lon="6.59087">
        <ele>1319.4000244141</ele>
        <time>2014-01-31T08:43:57.000Z</time>
      </trkpt>
      <trkpt lat="45.55485" lon="6.59087">
        <ele>1319.4000244141</ele>
        <time>2014-01-31T08:43:58.000Z</time>
      </trkpt>
      <trkpt lat="45.55485" lon="6.59087">
        <ele>1319.4000244141</ele>
        <time>2014-01-31T08:43:59.000Z</time>
      </trkpt>
      <trkpt lat="45.55485" lon="6.59087">
        <ele>1319.4000244141</ele>
        <time>2014-01-31T08:44:00.000Z</time>
      </trkpt>
      <trkpt lat="45.55485" lon="6.59087">
        <ele>1319.4000244141</ele>
        <time>2014-01-31T08:44:01.000Z</time>
      </trkpt>
      <trkpt lat="45.55485" lon="6.59087">
        <ele>1319.4000244141</ele>
        <time>2014-01-31T08:44:02.000Z</time>
      </trkpt>
      <trkpt lat="45.55485" lon="6.59088">
        <ele>1319.4000244141</ele>
        <time>2014-01-31T08:44:03.000Z</time>
      </trkpt>
      <trkpt lat="45.55485" lon="6.59088">
        <ele>1319.4000244141</ele>
        <time>2014-01-31T08:44:07.000Z</time>
      </trkpt>
      <trkpt lat="45.55485" lon="6.59089">
        <ele>1319.1999511719</ele>
        <time>2014-01-31T08:44:08.000Z</time>
      </trkpt>
      <trkpt lat="45.55486" lon="6.59089">
        <ele>1319.1999511719</ele>
        <time>2014-01-31T08:44:09.000Z</time>
      </trkpt>
      <trkpt lat="45.55486" lon="6.59089">
        <ele>1319.1999511719</ele>
        <time>2014-01-31T08:44:10.000Z</time>
      </trkpt>
      <trkpt lat="45.55487" lon="6.59089">
        <ele>1319.4000244141</ele>
        <time>2014-01-31T08:44:11.000Z</time>
      </trkpt>
      <trkpt lat="45.55488" lon="6.5909">
        <ele>1319.4000244141</ele>
        <time>2014-01-31T08:44:12.000Z</time>
      </trkpt>
      <trkpt lat="45.55489" lon="6.5909">
        <ele>1319.8000488281</ele>
        <time>2014-01-31T08:44:13.000Z</time>
      </trkpt>
      <trkpt lat="45.5549" lon="6.59091">
        <ele>1319.8000488281</ele>
        <time>2014-01-31T08:44:14.000Z</time>
      </trkpt>
      <trkpt lat="45.5549" lon="6.59091">
        <ele>1320.1999511719</ele>
        <time>2014-01-31T08:44:15.000Z</time>
      </trkpt>
      <trkpt lat="45.55491" lon="6.59091">
        <ele>1320.4000244141</ele>
        <time>2014-01-31T08:44:16.000Z</time>
      </trkpt>
      <trkpt lat="45.55492" lon="6.59091">
        <ele>1320.5999755859</ele>
        <time>2014-01-31T08:44:17.000Z</time>
      </trkpt>
      <trkpt lat="45.55493" lon="6.5909">
        <ele>1320.8000488281</ele>
        <time>2014-01-31T08:44:18.000Z</time>
      </trkpt>
      <trkpt lat="45.55494" lon="6.59091">
        <ele>1321</ele>
        <time>2014-01-31T08:44:19.000Z</time>
      </trkpt>
      <trkpt lat="45.55495" lon="6.59091">
        <ele>1321</ele>
        <time>2014-01-31T08:44:20.000Z</time>
      </trkpt>
      <trkpt lat="45.55496" lon="6.59091">
        <ele>1321.4000244141</ele>
        <time>2014-01-31T08:44:21.000Z</time>
      </trkpt>
      <trkpt lat="45.55497" lon="6.59091">
        <ele>1321.5999755859</ele>
        <time>2014-01-31T08:44:22.000Z</time>
      </trkpt>
      <trkpt lat="45.55498" lon="6.59092">
        <ele>1322</ele>
        <time>2014-01-31T08:44:23.000Z</time>
      </trkpt>
      <trkpt lat="45.555" lon="6.59091">
        <ele>1322.4000244141</ele>
        <time>2014-01-31T08:44:24.000Z</time>
      </trkpt>
      <trkpt lat="45.55501" lon="6.59092">
        <ele>1322.8000488281</ele>
        <time>2014-01-31T08:44:25.000Z</time>
      </trkpt>
      <trkpt lat="45.55502" lon="6.59092">
        <ele>1323.1999511719</ele>
        <time>2014-01-31T08:44:26.000Z</time>
      </trkpt>
      <trkpt lat="45.55503" lon="6.59092">
        <ele>1323.4000244141</ele>
        <time>2014-01-31T08:44:27.000Z</time>
      </trkpt>
      <trkpt lat="45.55504" lon="6.59092">
        <ele>1323.5999755859</ele>
        <time>2014-01-31T08:44:28.000Z</time>
      </trkpt>
      <trkpt lat="45.55505" lon="6.59092">
        <ele>1324</ele>
        <time>2014-01-31T08:44:29.000Z</time>
      </trkpt>
      <trkpt lat="45.55506" lon="6.59092">
        <ele>1324.1999511719</ele>
        <time>2014-01-31T08:44:30.000Z</time>
      </trkpt>
      <trkpt lat="45.55507" lon="6.59092">
        <ele>1324.4000244141</ele>
        <time>2014-01-31T08:44:31.000Z</time>
      </trkpt>
      <trkpt lat="45.55508" lon="6.59093">
        <ele>1325</ele>
        <time>2014-01-31T08:44:32.000Z</time>
      </trkpt>
      <trkpt lat="45.55508" lon="6.59094">
        <ele>1325.4000244141</ele>
        <time>2014-01-31T08:44:33.000Z</time>
      </trkpt>
      <trkpt lat="45.55509" lon="6.59095">
        <ele>1325.5999755859</ele>
        <time>2014-01-31T08:44:34.000Z</time>
      </trkpt>
      <trkpt lat="45.55509" lon="6.59096">
        <ele>1325.8000488281</ele>
        <time>2014-01-31T08:44:35.000Z</time>
      </trkpt>
      <trkpt lat="45.5551" lon="6.59096">
        <ele>1326.1999511719</ele>
        <time>2014-01-31T08:44:36.000Z</time>
      </trkpt>
      <trkpt lat="45.55511" lon="6.59098">
        <ele>1326.4000244141</ele>
        <time>2014-01-31T08:44:37.000Z</time>
      </trkpt>
      <trkpt lat="45.55511" lon="6.591">
        <ele>1326.4000244141</ele>
        <time>2014-01-31T08:44:38.000Z</time>
      </trkpt>
      <trkpt lat="45.55511" lon="6.591">
        <ele>1326.5999755859</ele>
        <time>2014-01-31T08:44:39.000Z</time>
      </trkpt>
      <trkpt lat="45.55511" lon="6.591">
        <ele>1326.8000488281</ele>
        <time>2014-01-31T08:44:40.000Z</time>
      </trkpt>
      <trkpt lat="45.55511" lon="6.591">
        <ele>1326.8000488281</ele>
        <time>2014-01-31T08:44:41.000Z</time>
      </trkpt>
      <trkpt lat="45.55511" lon="6.591">
        <ele>1326.8000488281</ele>
        <time>2014-01-31T08:44:42.000Z</time>
      </trkpt>
      <trkpt lat="45.55511" lon="6.591">
        <ele>1327</ele>
        <time>2014-01-31T08:44:43.000Z</time>
      </trkpt>
      <trkpt lat="45.55511" lon="6.591">
        <ele>1327</ele>
        <time>2014-01-31T08:44:44.000Z</time>
      </trkpt>
      <trkpt lat="45.55512" lon="6.59101">
        <ele>1327</ele>
        <time>2014-01-31T08:44:45.000Z</time>
      </trkpt>
      <trkpt lat="45.55512" lon="6.59102">
        <ele>1327</ele>
        <time>2014-01-31T08:44:46.000Z</time>
      </trkpt>
      <trkpt lat="45.55513" lon="6.59103">
        <ele>1327</ele>
        <time>2014-01-31T08:44:47.000Z</time>
      </trkpt>
      <trkpt lat="45.55515" lon="6.59104">
        <ele>1327.1999511719</ele>
        <time>2014-01-31T08:44:48.000Z</time>
      </trkpt>
      <trkpt lat="45.55516" lon="6.59105">
        <ele>1327.4000244141</ele>
        <time>2014-01-31T08:44:49.000Z</time>
      </trkpt>
      <trkpt lat="45.55517" lon="6.59105">
        <ele>1327.4000244141</ele>
        <time>2014-01-31T08:44:50.000Z</time>
      </trkpt>
      <trkpt lat="45.55518" lon="6.59106">
        <ele>1327.5999755859</ele>
        <time>2014-01-31T08:44:51.000Z</time>
      </trkpt>
      <trkpt lat="45.55518" lon="6.59107">
        <ele>1327.8000488281</ele>
        <time>2014-01-31T08:44:52.000Z</time>
      </trkpt>
      <trkpt lat="45.5552" lon="6.59108">
        <ele>1328</ele>
        <time>2014-01-31T08:44:53.000Z</time>
      </trkpt>
      <trkpt lat="45.55521" lon="6.59109">
        <ele>1328</ele>
        <time>2014-01-31T08:44:54.000Z</time>
      </trkpt>
      <trkpt lat="45.55521" lon="6.5911">
        <ele>1328.1999511719</ele>
        <time>2014-01-31T08:44:55.000Z</time>
      </trkpt>
      <trkpt lat="45.55522" lon="6.59111">
        <ele>1328.1999511719</ele>
        <time>2014-01-31T08:44:56.000Z</time>
      </trkpt>
      <trkpt lat="45.55523" lon="6.59112">
        <ele>1328.4000244141</ele>
        <time>2014-01-31T08:44:57.000Z</time>
      </trkpt>
      <trkpt lat="45.55523" lon="6.59112">
        <ele>1328.5999755859</ele>
        <time>2014-01-31T08:44:58.000Z</time>
      </trkpt>
      <trkpt lat="45.55524" lon="6.59113">
        <ele>1328.8000488281</ele>
        <time>2014-01-31T08:44:59.000Z</time>
      </trkpt>
      <trkpt lat="45.55524" lon="6.59114">
        <ele>1329</ele>
        <time>2014-01-31T08:45:00.000Z</time>
      </trkpt>
      <trkpt lat="45.55525" lon="6.59115">
        <ele>1329</ele>
        <time>2014-01-31T08:45:01.000Z</time>
      </trkpt>
      <trkpt lat="45.55526" lon="6.59116">
        <ele>1329.1999511719</ele>
        <time>2014-01-31T08:45:02.000Z</time>
      </trkpt>
      <trkpt lat="45.55527" lon="6.59116">
        <ele>1329.4000244141</ele>
        <time>2014-01-31T08:45:03.000Z</time>
      </trkpt>
      <trkpt lat="45.55528" lon="6.59117">
        <ele>1329.4000244141</ele>
        <time>2014-01-31T08:45:04.000Z</time>
      </trkpt>
      <trkpt lat="45.55529" lon="6.59117">
        <ele>1329.5999755859</ele>
        <time>2014-01-31T08:45:05.000Z</time>
      </trkpt>
      <trkpt lat="45.5553" lon="6.59117">
        <ele>1329.8000488281</ele>
        <time>2014-01-31T08:45:06.000Z</time>
      </trkpt>
      <trkpt lat="45.55531" lon="6.59117">
        <ele>1330</ele>
        <time>2014-01-31T08:45:07.000Z</time>
      </trkpt>
      <trkpt lat="45.55531" lon="6.59117">
        <ele>1330</ele>
        <time>2014-01-31T08:45:08.000Z</time>
      </trkpt>
      <trkpt lat="45.55532" lon="6.59117">
        <ele>1330.1999511719</ele>
        <time>2014-01-31T08:45:09.000Z</time>
      </trkpt>
      <trkpt lat="45.55533" lon="6.59117">
        <ele>1330.4000244141</ele>
        <time>2014-01-31T08:45:10.000Z</time>
      </trkpt>
      <trkpt lat="45.55533" lon="6.59117">
        <ele>1330.8000488281</ele>
        <time>2014-01-31T08:45:11.000Z</time>
      </trkpt>
      <trkpt lat="45.55533" lon="6.59117">
        <ele>1331</ele>
        <time>2014-01-31T08:45:12.000Z</time>
      </trkpt>
      <trkpt lat="45.55533" lon="6.59117">
        <ele>1331.1999511719</ele>
        <time>2014-01-31T08:45:13.000Z</time>
      </trkpt>
      <trkpt lat="45.55534" lon="6.59118">
        <ele>1331.4000244141</ele>
        <time>2014-01-31T08:45:14.000Z</time>
      </trkpt>
      <trkpt lat="45.55534" lon="6.59118">
        <ele>1331.4000244141</ele>
        <time>2014-01-31T08:45:15.000Z</time>
      </trkpt>
      <trkpt lat="45.55534" lon="6.59119">
        <ele>1331.5999755859</ele>
        <time>2014-01-31T08:45:16.000Z</time>
      </trkpt>
      <trkpt lat="45.55534" lon="6.59119">
        <ele>1331.8000488281</ele>
        <time>2014-01-31T08:45:17.000Z</time>
      </trkpt>
      <trkpt lat="45.55534" lon="6.59119">
        <ele>1332.1999511719</ele>
        <time>2014-01-31T08:45:18.000Z</time>
      </trkpt>
      <trkpt lat="45.55534" lon="6.59119">
        <ele>1332.4000244141</ele>
        <time>2014-01-31T08:45:19.000Z</time>
      </trkpt>
      <trkpt lat="45.55534" lon="6.59119">
        <ele>1332.5999755859</ele>
        <time>2014-01-31T08:45:20.000Z</time>
      </trkpt>
      <trkpt lat="45.55534" lon="6.59119">
        <ele>1333</ele>
        <time>2014-01-31T08:45:21.000Z</time>
      </trkpt>
      <trkpt lat="45.55536" lon="6.59123">
        <ele>1333.1999511719</ele>
        <time>2014-01-31T08:45:22.000Z</time>
      </trkpt>
      <trkpt lat="45.55538" lon="6.59125">
        <ele>1333.1999511719</ele>
        <time>2014-01-31T08:45:23.000Z</time>
      </trkpt>
      <trkpt lat="45.5554" lon="6.59129">
        <ele>1333.4000244141</ele>
        <time>2014-01-31T08:45:24.000Z</time>
      </trkpt>
      <trkpt lat="45.55541" lon="6.59131">
        <ele>1333.5999755859</ele>
        <time>2014-01-31T08:45:25.000Z</time>
      </trkpt>
      <trkpt lat="45.55542" lon="6.59132">
        <ele>1333.8000488281</ele>
        <time>2014-01-31T08:45:26.000Z</time>
      </trkpt>
      <trkpt lat="45.55544" lon="6.59134">
        <ele>1334</ele>
        <time>2014-01-31T08:45:27.000Z</time>
      </trkpt>
      <trkpt lat="45.55544" lon="6.59136">
        <ele>1334</ele>
        <time>2014-01-31T08:45:28.000Z</time>
      </trkpt>
      <trkpt lat="45.55544" lon="6.59137">
        <ele>1334.1999511719</ele>
        <time>2014-01-31T08:45:29.000Z</time>
      </trkpt>
      <trkpt lat="45.55544" lon="6.59138">
        <ele>1334.1999511719</ele>
        <time>2014-01-31T08:45:30.000Z</time>
      </trkpt>
      <trkpt lat="45.55544" lon="6.59139">
        <ele>1334.4000244141</ele>
        <time>2014-01-31T08:45:31.000Z</time>
      </trkpt>
      <trkpt lat="45.55544" lon="6.5914">
        <ele>1334.5999755859</ele>
        <time>2014-01-31T08:45:32.000Z</time>
      </trkpt>
      <trkpt lat="45.55543" lon="6.59141">
        <ele>1334.5999755859</ele>
        <time>2014-01-31T08:45:33.000Z</time>
      </trkpt>
      <trkpt lat="45.55542" lon="6.59142">
        <ele>1334.8000488281</ele>
        <time>2014-01-31T08:45:34.000Z</time>
      </trkpt>
      <trkpt lat="45.55541" lon="6.59143">
        <ele>1335</ele>
        <time>2014-01-31T08:45:35.000Z</time>
      </trkpt>
      <trkpt lat="45.55541" lon="6.59144">
        <ele>1335.1999511719</ele>
        <time>2014-01-31T08:45:36.000Z</time>
      </trkpt>
      <trkpt lat="45.55541" lon="6.59146">
        <ele>1335.4000244141</ele>
        <time>2014-01-31T08:45:37.000Z</time>
      </trkpt>
      <trkpt lat="45.5554" lon="6.59146">
        <ele>1335.4000244141</ele>
        <time>2014-01-31T08:45:38.000Z</time>
      </trkpt>
      <trkpt lat="45.5554" lon="6.59147">
        <ele>1335.5999755859</ele>
        <time>2014-01-31T08:45:39.000Z</time>
      </trkpt>
      <trkpt lat="45.5554" lon="6.59148">
        <ele>1335.8000488281</ele>
        <time>2014-01-31T08:45:40.000Z</time>
      </trkpt>
      <trkpt lat="45.5554" lon="6.59148">
        <ele>1336</ele>
        <time>2014-01-31T08:45:41.000Z</time>
      </trkpt>
      <trkpt lat="45.5554" lon="6.59148">
        <ele>1336</ele>
        <time>2014-01-31T08:45:42.000Z</time>
      </trkpt>
      <trkpt lat="45.5554" lon="6.5915">
        <ele>1336.1999511719</ele>
        <time>2014-01-31T08:45:43.000Z</time>
      </trkpt>
      <trkpt lat="45.5554" lon="6.5915">
        <ele>1336.4000244141</ele>
        <time>2014-01-31T08:45:44.000Z</time>
      </trkpt>
      <trkpt lat="45.5554" lon="6.5915">
        <ele>1336.5999755859</ele>
        <time>2014-01-31T08:45:45.000Z</time>
      </trkpt>
      <trkpt lat="45.5554" lon="6.5915">
        <ele>1336.8000488281</ele>
        <time>2014-01-31T08:45:46.000Z</time>
      </trkpt>
      <trkpt lat="45.5554" lon="6.59152">
        <ele>1336.8000488281</ele>
        <time>2014-01-31T08:45:47.000Z</time>
      </trkpt>
      <trkpt lat="45.5554" lon="6.59152">
        <ele>1337</ele>
        <time>2014-01-31T08:45:48.000Z</time>
      </trkpt>
      <trkpt lat="45.5554" lon="6.59154">
        <ele>1337</ele>
        <time>2014-01-31T08:45:49.000Z</time>
      </trkpt>
      <trkpt lat="45.5554" lon="6.59156">
        <ele>1337.1999511719</ele>
        <time>2014-01-31T08:45:50.000Z</time>
      </trkpt>
      <trkpt lat="45.5554" lon="6.59157">
        <ele>1337.4000244141</ele>
        <time>2014-01-31T08:45:51.000Z</time>
      </trkpt>
      <trkpt lat="45.5554" lon="6.59157">
        <ele>1337.5999755859</ele>
        <time>2014-01-31T08:45:52.000Z</time>
      </trkpt>
      <trkpt lat="45.5554" lon="6.59157">
        <ele>1337.8000488281</ele>
        <time>2014-01-31T08:45:53.000Z</time>
      </trkpt>
      <trkpt lat="45.5554" lon="6.59157">
        <ele>1337.8000488281</ele>
        <time>2014-01-31T08:45:54.000Z</time>
      </trkpt>
      <trkpt lat="45.5554" lon="6.59157">
        <ele>1338</ele>
        <time>2014-01-31T08:45:55.000Z</time>
      </trkpt>
      <trkpt lat="45.5554" lon="6.59157">
        <ele>1338.1999511719</ele>
        <time>2014-01-31T08:45:56.000Z</time>
      </trkpt>
      <trkpt lat="45.5554" lon="6.59157">
        <ele>1338.4000244141</ele>
        <time>2014-01-31T08:45:57.000Z</time>
      </trkpt>
      <trkpt lat="45.5554" lon="6.59157">
        <ele>1338.4000244141</ele>
        <time>2014-01-31T08:45:58.000Z</time>
      </trkpt>
      <trkpt lat="45.5554" lon="6.59157">
        <ele>1338.4000244141</ele>
        <time>2014-01-31T08:45:59.000Z</time>
      </trkpt>
      <trkpt lat="45.5554" lon="6.59157">
        <ele>1338.4000244141</ele>
        <time>2014-01-31T08:46:01.000Z</time>
      </trkpt>
      <trkpt lat="45.5554" lon="6.59157">
        <ele>1338.4000244141</ele>
        <time>2014-01-31T08:46:02.000Z</time>
      </trkpt>
      <trkpt lat="45.5554" lon="6.59157">
        <ele>1338.4000244141</ele>
        <time>2014-01-31T08:46:03.000Z</time>
      </trkpt>
      <trkpt lat="45.5554" lon="6.59157">
        <ele>1338.4000244141</ele>
        <time>2014-01-31T08:46:04.000Z</time>
      </trkpt>
      <trkpt lat="45.5554" lon="6.59157">
        <ele>1338.4000244141</ele>
        <time>2014-01-31T08:46:05.000Z</time>
      </trkpt>
      <trkpt lat="45.5554" lon="6.59157">
        <ele>1338.4000244141</ele>
        <time>2014-01-31T08:46:06.000Z</time>
      </trkpt>
      <trkpt lat="45.5554" lon="6.59157">
        <ele>1338.4000244141</ele>
        <time>2014-01-31T08:46:12.000Z</time>
      </trkpt>
      <trkpt lat="45.55541" lon="6.59158">
        <ele>1338.4000244141</ele>
        <time>2014-01-31T08:46:13.000Z</time>
      </trkpt>
      <trkpt lat="45.55541" lon="6.59158">
        <ele>1338.4000244141</ele>
        <time>2014-01-31T08:46:14.000Z</time>
      </trkpt>
      <trkpt lat="45.55541" lon="6.59158">
        <ele>1338.5999755859</ele>
        <time>2014-01-31T08:46:15.000Z</time>
      </trkpt>
      <trkpt lat="45.55541" lon="6.59158">
        <ele>1338.8000488281</ele>
        <time>2014-01-31T08:46:16.000Z</time>
      </trkpt>
      <trkpt lat="45.55541" lon="6.59158">
        <ele>1339</ele>
        <time>2014-01-31T08:46:17.000Z</time>
      </trkpt>
      <trkpt lat="45.55541" lon="6.59158">
        <ele>1339</ele>
        <time>2014-01-31T08:46:18.000Z</time>
      </trkpt>
      <trkpt lat="45.55541" lon="6.59158">
        <ele>1339.1999511719</ele>
        <time>2014-01-31T08:46:19.000Z</time>
      </trkpt>
      <trkpt lat="45.55541" lon="6.59158">
        <ele>1339.1999511719</ele>
        <time>2014-01-31T08:46:20.000Z</time>
      </trkpt>
      <trkpt lat="45.55543" lon="6.59159">
        <ele>1339.4000244141</ele>
        <time>2014-01-31T08:46:21.000Z</time>
      </trkpt>
      <trkpt lat="45.55544" lon="6.5916">
        <ele>1339.5999755859</ele>
        <time>2014-01-31T08:46:22.000Z</time>
      </trkpt>
      <trkpt lat="45.55544" lon="6.5916">
        <ele>1339.8000488281</ele>
        <time>2014-01-31T08:46:23.000Z</time>
      </trkpt>
      <trkpt lat="45.55544" lon="6.5916">
        <ele>1340</ele>
        <time>2014-01-31T08:46:24.000Z</time>
      </trkpt>
      <trkpt lat="45.55544" lon="6.5916">
        <ele>1340.1999511719</ele>
        <time>2014-01-31T08:46:25.000Z</time>
      </trkpt>
      <trkpt lat="45.55546" lon="6.59157">
        <ele>1340.4000244141</ele>
        <time>2014-01-31T08:46:26.000Z</time>
      </trkpt>
      <trkpt lat="45.55546" lon="6.59157">
        <ele>1340.5999755859</ele>
        <time>2014-01-31T08:46:27.000Z</time>
      </trkpt>
      <trkpt lat="45.55546" lon="6.59157">
        <ele>1341</ele>
        <time>2014-01-31T08:46:28.000Z</time>
      </trkpt>
      <trkpt lat="45.55548" lon="6.59153">
        <ele>1341.1999511719</ele>
        <time>2014-01-31T08:46:29.000Z</time>
      </trkpt>
      <trkpt lat="45.55548" lon="6.59153">
        <ele>1341.4000244141</ele>
        <time>2014-01-31T08:46:30.000Z</time>
      </trkpt>
      <trkpt lat="45.55548" lon="6.59153">
        <ele>1341.4000244141</ele>
        <time>2014-01-31T08:46:31.000Z</time>
      </trkpt>
      <trkpt lat="45.55548" lon="6.59153">
        <ele>1341.5999755859</ele>
        <time>2014-01-31T08:46:32.000Z</time>
      </trkpt>
      <trkpt lat="45.55549" lon="6.59151">
        <ele>1341.8000488281</ele>
        <time>2014-01-31T08:46:33.000Z</time>
      </trkpt>
      <trkpt lat="45.55551" lon="6.59149">
        <ele>1341.8000488281</ele>
        <time>2014-01-31T08:46:34.000Z</time>
      </trkpt>
      <trkpt lat="45.55553" lon="6.59145">
        <ele>1342</ele>
        <time>2014-01-31T08:46:35.000Z</time>
      </trkpt>
      <trkpt lat="45.55553" lon="6.59145">
        <ele>1342.1999511719</ele>
        <time>2014-01-31T08:46:36.000Z</time>
      </trkpt>
      <trkpt lat="45.55553" lon="6.59145">
        <ele>1342.4000244141</ele>
        <time>2014-01-31T08:46:37.000Z</time>
      </trkpt>
      <trkpt lat="45.55553" lon="6.59145">
        <ele>1342.5999755859</ele>
        <time>2014-01-31T08:46:38.000Z</time>
      </trkpt>
      <trkpt lat="45.55555" lon="6.59143">
        <ele>1342.5999755859</ele>
        <time>2014-01-31T08:46:39.000Z</time>
      </trkpt>
      <trkpt lat="45.55557" lon="6.59141">
        <ele>1342.8000488281</ele>
        <time>2014-01-31T08:46:40.000Z</time>
      </trkpt>
      <trkpt lat="45.55558" lon="6.59139">
        <ele>1343</ele>
        <time>2014-01-31T08:46:41.000Z</time>
      </trkpt>
      <trkpt lat="45.55558" lon="6.59134">
        <ele>1343</ele>
        <time>2014-01-31T08:46:42.000Z</time>
      </trkpt>
      <trkpt lat="45.55559" lon="6.59132">
        <ele>1343.1999511719</ele>
        <time>2014-01-31T08:46:43.000Z</time>
      </trkpt>
      <trkpt lat="45.55559" lon="6.5913">
        <ele>1343.4000244141</ele>
        <time>2014-01-31T08:46:44.000Z</time>
      </trkpt>
      <trkpt lat="45.55559" lon="6.59127">
        <ele>1343.4000244141</ele>
        <time>2014-01-31T08:46:45.000Z</time>
      </trkpt>
      <trkpt lat="45.55559" lon="6.59124">
        <ele>1343.5999755859</ele>
        <time>2014-01-31T08:46:46.000Z</time>
      </trkpt>
      <trkpt lat="45.5556" lon="6.59123">
        <ele>1343.5999755859</ele>
        <time>2014-01-31T08:46:47.000Z</time>
      </trkpt>
      <trkpt lat="45.5556" lon="6.59121">
        <ele>1343.8000488281</ele>
        <time>2014-01-31T08:46:48.000Z</time>
      </trkpt>
      <trkpt lat="45.55561" lon="6.59118">
        <ele>1344</ele>
        <time>2014-01-31T08:46:49.000Z</time>
      </trkpt>
      <trkpt lat="45.5556" lon="6.59117">
        <ele>1344.1999511719</ele>
        <time>2014-01-31T08:46:50.000Z</time>
      </trkpt>
      <trkpt lat="45.5556" lon="6.59116">
        <ele>1344.4000244141</ele>
        <time>2014-01-31T08:46:51.000Z</time>
      </trkpt>
      <trkpt lat="45.5556" lon="6.59114">
        <ele>1344.5999755859</ele>
        <time>2014-01-31T08:46:52.000Z</time>
      </trkpt>
      <trkpt lat="45.55561" lon="6.59113">
        <ele>1344.8000488281</ele>
        <time>2014-01-31T08:46:53.000Z</time>
      </trkpt>
      <trkpt lat="45.55561" lon="6.59113">
        <ele>1345</ele>
        <time>2014-01-31T08:46:54.000Z</time>
      </trkpt>
      <trkpt lat="45.55561" lon="6.59113">
        <ele>1345.1999511719</ele>
        <time>2014-01-31T08:46:55.000Z</time>
      </trkpt>
      <trkpt lat="45.55561" lon="6.59112">
        <ele>1345.4000244141</ele>
        <time>2014-01-31T08:46:56.000Z</time>
      </trkpt>
      <trkpt lat="45.55561" lon="6.5911">
        <ele>1345.8000488281</ele>
        <time>2014-01-31T08:46:57.000Z</time>
      </trkpt>
      <trkpt lat="45.55561" lon="6.59109">
        <ele>1346</ele>
        <time>2014-01-31T08:46:58.000Z</time>
      </trkpt>
      <trkpt lat="45.55561" lon="6.59108">
        <ele>1346.1999511719</ele>
        <time>2014-01-31T08:46:59.000Z</time>
      </trkpt>
      <trkpt lat="45.55561" lon="6.59107">
        <ele>1346.4000244141</ele>
        <time>2014-01-31T08:47:00.000Z</time>
      </trkpt>
      <trkpt lat="45.55561" lon="6.59104">
        <ele>1346.4000244141</ele>
        <time>2014-01-31T08:47:01.000Z</time>
      </trkpt>
      <trkpt lat="45.55561" lon="6.59102">
        <ele>1346.5999755859</ele>
        <time>2014-01-31T08:47:02.000Z</time>
      </trkpt>
      <trkpt lat="45.55561" lon="6.59101">
        <ele>1346.8000488281</ele>
        <time>2014-01-31T08:47:03.000Z</time>
      </trkpt>
      <trkpt lat="45.55561" lon="6.59099">
        <ele>1347</ele>
        <time>2014-01-31T08:47:04.000Z</time>
      </trkpt>
      <trkpt lat="45.55561" lon="6.59097">
        <ele>1347.1999511719</ele>
        <time>2014-01-31T08:47:05.000Z</time>
      </trkpt>
      <trkpt lat="45.55561" lon="6.59094">
        <ele>1347.4000244141</ele>
        <time>2014-01-31T08:47:06.000Z</time>
      </trkpt>
      <trkpt lat="45.55562" lon="6.59092">
        <ele>1347.5999755859</ele>
        <time>2014-01-31T08:47:07.000Z</time>
      </trkpt>
      <trkpt lat="45.55562" lon="6.5909">
        <ele>1347.8000488281</ele>
        <time>2014-01-31T08:47:08.000Z</time>
      </trkpt>
      <trkpt lat="45.55563" lon="6.59088">
        <ele>1348</ele>
        <time>2014-01-31T08:47:09.000Z</time>
      </trkpt>
      <trkpt lat="45.55564" lon="6.59086">
        <ele>1348.1999511719</ele>
        <time>2014-01-31T08:47:10.000Z</time>
      </trkpt>
      <trkpt lat="45.55565" lon="6.59084">
        <ele>1348.1999511719</ele>
        <time>2014-01-31T08:47:11.000Z</time>
      </trkpt>
      <trkpt lat="45.55566" lon="6.59083">
        <ele>1348.4000244141</ele>
        <time>2014-01-31T08:47:12.000Z</time>
      </trkpt>
      <trkpt lat="45.55567" lon="6.59081">
        <ele>1348.4000244141</ele>
        <time>2014-01-31T08:47:13.000Z</time>
      </trkpt>
      <trkpt lat="45.55567" lon="6.59079">
        <ele>1348.4000244141</ele>
        <time>2014-01-31T08:47:14.000Z</time>
      </trkpt>
      <trkpt lat="45.55568" lon="6.59077">
        <ele>1348.5999755859</ele>
        <time>2014-01-31T08:47:15.000Z</time>
      </trkpt>
      <trkpt lat="45.55569" lon="6.59075">
        <ele>1348.5999755859</ele>
        <time>2014-01-31T08:47:16.000Z</time>
      </trkpt>
      <trkpt lat="45.55569" lon="6.59073">
        <ele>1348.8000488281</ele>
        <time>2014-01-31T08:47:17.000Z</time>
      </trkpt>
      <trkpt lat="45.5557" lon="6.59071">
        <ele>1348.8000488281</ele>
        <time>2014-01-31T08:47:18.000Z</time>
      </trkpt>
      <trkpt lat="45.5557" lon="6.5907">
        <ele>1349</ele>
        <time>2014-01-31T08:47:19.000Z</time>
      </trkpt>
      <trkpt lat="45.5557" lon="6.59068">
        <ele>1349</ele>
        <time>2014-01-31T08:47:20.000Z</time>
      </trkpt>
      <trkpt lat="45.5557" lon="6.59068">
        <ele>1349.4000244141</ele>
        <time>2014-01-31T08:47:21.000Z</time>
      </trkpt>
      <trkpt lat="45.5557" lon="6.59067">
        <ele>1349.5999755859</ele>
        <time>2014-01-31T08:47:22.000Z</time>
      </trkpt>
      <trkpt lat="45.5557" lon="6.59065">
        <ele>1349.5999755859</ele>
        <time>2014-01-31T08:47:23.000Z</time>
      </trkpt>
      <trkpt lat="45.5557" lon="6.59064">
        <ele>1349.8000488281</ele>
        <time>2014-01-31T08:47:24.000Z</time>
      </trkpt>
      <trkpt lat="45.5557" lon="6.59064">
        <ele>1350</ele>
        <time>2014-01-31T08:47:25.000Z</time>
      </trkpt>
      <trkpt lat="45.5557" lon="6.59064">
        <ele>1350.1999511719</ele>
        <time>2014-01-31T08:47:26.000Z</time>
      </trkpt>
      <trkpt lat="45.5557" lon="6.59064">
        <ele>1350.4000244141</ele>
        <time>2014-01-31T08:47:27.000Z</time>
      </trkpt>
      <trkpt lat="45.5557" lon="6.59064">
        <ele>1350.4000244141</ele>
        <time>2014-01-31T08:47:28.000Z</time>
      </trkpt>
      <trkpt lat="45.5557" lon="6.59063">
        <ele>1350.4000244141</ele>
        <time>2014-01-31T08:47:29.000Z</time>
      </trkpt>
      <trkpt lat="45.55569" lon="6.59061">
        <ele>1350.4000244141</ele>
        <time>2014-01-31T08:47:30.000Z</time>
      </trkpt>
      <trkpt lat="45.55569" lon="6.5906">
        <ele>1350.5999755859</ele>
        <time>2014-01-31T08:47:31.000Z</time>
      </trkpt>
      <trkpt lat="45.55568" lon="6.59059">
        <ele>1350.5999755859</ele>
        <time>2014-01-31T08:47:32.000Z</time>
      </trkpt>
      <trkpt lat="45.55568" lon="6.59057">
        <ele>1350.5999755859</ele>
        <time>2014-01-31T08:47:33.000Z</time>
      </trkpt>
      <trkpt lat="45.55567" lon="6.59056">
        <ele>1350.8000488281</ele>
        <time>2014-01-31T08:47:34.000Z</time>
      </trkpt>
      <trkpt lat="45.55566" lon="6.59055">
        <ele>1350.8000488281</ele>
        <time>2014-01-31T08:47:35.000Z</time>
      </trkpt>
      <trkpt lat="45.55565" lon="6.59053">
        <ele>1350.8000488281</ele>
        <time>2014-01-31T08:47:36.000Z</time>
      </trkpt>
      <trkpt lat="45.55565" lon="6.59053">
        <ele>1351</ele>
        <time>2014-01-31T08:47:37.000Z</time>
      </trkpt>
      <trkpt lat="45.55564" lon="6.59051">
        <ele>1351</ele>
        <time>2014-01-31T08:47:38.000Z</time>
      </trkpt>
      <trkpt lat="45.55564" lon="6.5905">
        <ele>1351</ele>
        <time>2014-01-31T08:47:39.000Z</time>
      </trkpt>
      <trkpt lat="45.55564" lon="6.5905">
        <ele>1351</ele>
        <time>2014-01-31T08:47:40.000Z</time>
      </trkpt>
      <trkpt lat="45.55564" lon="6.59049">
        <ele>1351.1999511719</ele>
        <time>2014-01-31T08:47:41.000Z</time>
      </trkpt>
      <trkpt lat="45.55564" lon="6.59049">
        <ele>1351.4000244141</ele>
        <time>2014-01-31T08:47:42.000Z</time>
      </trkpt>
      <trkpt lat="45.55563" lon="6.59048">
        <ele>1351.5999755859</ele>
        <time>2014-01-31T08:47:43.000Z</time>
      </trkpt>
      <trkpt lat="45.55563" lon="6.59048">
        <ele>1352</ele>
        <time>2014-01-31T08:47:44.000Z</time>
      </trkpt>
      <trkpt lat="45.55563" lon="6.59045">
        <ele>1352.4000244141</ele>
        <time>2014-01-31T08:47:45.000Z</time>
      </trkpt>
      <trkpt lat="45.55563" lon="6.59042">
        <ele>1352.4000244141</ele>
        <time>2014-01-31T08:47:46.000Z</time>
      </trkpt>
      <trkpt lat="45.55562" lon="6.5904">
        <ele>1352.4000244141</ele>
        <time>2014-01-31T08:47:47.000Z</time>
      </trkpt>
      <trkpt lat="45.55561" lon="6.59038">
        <ele>1352.5999755859</ele>
        <time>2014-01-31T08:47:48.000Z</time>
      </trkpt>
      <trkpt lat="45.55561" lon="6.59036">
        <ele>1352.5999755859</ele>
        <time>2014-01-31T08:47:49.000Z</time>
      </trkpt>
      <trkpt lat="45.55561" lon="6.59035">
        <ele>1352.8000488281</ele>
        <time>2014-01-31T08:47:50.000Z</time>
      </trkpt>
      <trkpt lat="45.5556" lon="6.59033">
        <ele>1352.8000488281</ele>
        <time>2014-01-31T08:47:51.000Z</time>
      </trkpt>
      <trkpt lat="45.5556" lon="6.59032">
        <ele>1353</ele>
        <time>2014-01-31T08:47:52.000Z</time>
      </trkpt>
      <trkpt lat="45.5556" lon="6.59031">
        <ele>1353</ele>
        <time>2014-01-31T08:47:53.000Z</time>
      </trkpt>
      <trkpt lat="45.55559" lon="6.5903">
        <ele>1353</ele>
        <time>2014-01-31T08:47:54.000Z</time>
      </trkpt>
      <trkpt lat="45.55558" lon="6.59029">
        <ele>1353</ele>
        <time>2014-01-31T08:47:55.000Z</time>
      </trkpt>
      <trkpt lat="45.55557" lon="6.59028">
        <ele>1353</ele>
        <time>2014-01-31T08:47:56.000Z</time>
      </trkpt>
      <trkpt lat="45.55557" lon="6.59026">
        <ele>1353</ele>
        <time>2014-01-31T08:47:58.000Z</time>
      </trkpt>
      <trkpt lat="45.55558" lon="6.59025">
        <ele>1353.1999511719</ele>
        <time>2014-01-31T08:47:59.000Z</time>
      </trkpt>
      <trkpt lat="45.55558" lon="6.59025">
        <ele>1353.4000244141</ele>
        <time>2014-01-31T08:48:00.000Z</time>
      </trkpt>
      <trkpt lat="45.55558" lon="6.59026">
        <ele>1353.5999755859</ele>
        <time>2014-01-31T08:48:01.000Z</time>
      </trkpt>
      <trkpt lat="45.55558" lon="6.59027">
        <ele>1354</ele>
        <time>2014-01-31T08:48:02.000Z</time>
      </trkpt>
      <trkpt lat="45.55558" lon="6.59028">
        <ele>1354.1999511719</ele>
        <time>2014-01-31T08:48:03.000Z</time>
      </trkpt>
      <trkpt lat="45.55559" lon="6.59029">
        <ele>1354.4000244141</ele>
        <time>2014-01-31T08:48:04.000Z</time>
      </trkpt>
      <trkpt lat="45.55559" lon="6.5903">
        <ele>1354.4000244141</ele>
        <time>2014-01-31T08:48:05.000Z</time>
      </trkpt>
      <trkpt lat="45.55559" lon="6.5903">
        <ele>1354.5999755859</ele>
        <time>2014-01-31T08:48:06.000Z</time>
      </trkpt>
      <trkpt lat="45.5556" lon="6.59032">
        <ele>1354.5999755859</ele>
        <time>2014-01-31T08:48:07.000Z</time>
      </trkpt>
      <trkpt lat="45.5556" lon="6.59032">
        <ele>1354.8000488281</ele>
        <time>2014-01-31T08:48:08.000Z</time>
      </trkpt>
      <trkpt lat="45.5556" lon="6.59033">
        <ele>1355</ele>
        <time>2014-01-31T08:48:09.000Z</time>
      </trkpt>
      <trkpt lat="45.55561" lon="6.59034">
        <ele>1355.1999511719</ele>
        <time>2014-01-31T08:48:10.000Z</time>
      </trkpt>
      <trkpt lat="45.55562" lon="6.59035">
        <ele>1355.1999511719</ele>
        <time>2014-01-31T08:48:11.000Z</time>
      </trkpt>
      <trkpt lat="45.55562" lon="6.59035">
        <ele>1355.4000244141</ele>
        <time>2014-01-31T08:48:12.000Z</time>
      </trkpt>
      <trkpt lat="45.55563" lon="6.59037">
        <ele>1355.5999755859</ele>
        <time>2014-01-31T08:48:13.000Z</time>
      </trkpt>
      <trkpt lat="45.55564" lon="6.59038">
        <ele>1355.8000488281</ele>
        <time>2014-01-31T08:48:14.000Z</time>
      </trkpt>
      <trkpt lat="45.55565" lon="6.5904">
        <ele>1356</ele>
        <time>2014-01-31T08:48:15.000Z</time>
      </trkpt>
      <trkpt lat="45.55566" lon="6.59041">
        <ele>1356</ele>
        <time>2014-01-31T08:48:16.000Z</time>
      </trkpt>
      <trkpt lat="45.55567" lon="6.59042">
        <ele>1356.1999511719</ele>
        <time>2014-01-31T08:48:17.000Z</time>
      </trkpt>
      <trkpt lat="45.55567" lon="6.59044">
        <ele>1356.4000244141</ele>
        <time>2014-01-31T08:48:18.000Z</time>
      </trkpt>
      <trkpt lat="45.55567" lon="6.59046">
        <ele>1356.5999755859</ele>
        <time>2014-01-31T08:48:19.000Z</time>
      </trkpt>
      <trkpt lat="45.55567" lon="6.59046">
        <ele>1356.8000488281</ele>
        <time>2014-01-31T08:48:20.000Z</time>
      </trkpt>
      <trkpt lat="45.55567" lon="6.59046">
        <ele>1357</ele>
        <time>2014-01-31T08:48:21.000Z</time>
      </trkpt>
      <trkpt lat="45.55568" lon="6.59047">
        <ele>1357.1999511719</ele>
        <time>2014-01-31T08:48:22.000Z</time>
      </trkpt>
      <trkpt lat="45.55568" lon="6.59047">
        <ele>1357.4000244141</ele>
        <time>2014-01-31T08:48:23.000Z</time>
      </trkpt>
      <trkpt lat="45.55568" lon="6.59047">
        <ele>1357.4000244141</ele>
        <time>2014-01-31T08:48:24.000Z</time>
      </trkpt>
      <trkpt lat="45.55569" lon="6.59049">
        <ele>1357.5999755859</ele>
        <time>2014-01-31T08:48:25.000Z</time>
      </trkpt>
      <trkpt lat="45.5557" lon="6.59051">
        <ele>1357.5999755859</ele>
        <time>2014-01-31T08:48:26.000Z</time>
      </trkpt>
      <trkpt lat="45.55571" lon="6.59053">
        <ele>1357.8000488281</ele>
        <time>2014-01-31T08:48:27.000Z</time>
      </trkpt>
      <trkpt lat="45.55572" lon="6.59055">
        <ele>1357.8000488281</ele>
        <time>2014-01-31T08:48:28.000Z</time>
      </trkpt>
      <trkpt lat="45.55573" lon="6.59057">
        <ele>1358.1999511719</ele>
        <time>2014-01-31T08:48:29.000Z</time>
      </trkpt>
      <trkpt lat="45.55574" lon="6.59059">
        <ele>1358.4000244141</ele>
        <time>2014-01-31T08:48:30.000Z</time>
      </trkpt>
      <trkpt lat="45.55574" lon="6.59061">
        <ele>1358.5999755859</ele>
        <time>2014-01-31T08:48:31.000Z</time>
      </trkpt>
      <trkpt lat="45.55575" lon="6.59062">
        <ele>1358.8000488281</ele>
        <time>2014-01-31T08:48:32.000Z</time>
      </trkpt>
      <trkpt lat="45.55576" lon="6.59064">
        <ele>1359.1999511719</ele>
        <time>2014-01-31T08:48:33.000Z</time>
      </trkpt>
      <trkpt lat="45.55577" lon="6.59066">
        <ele>1359.4000244141</ele>
        <time>2014-01-31T08:48:34.000Z</time>
      </trkpt>
      <trkpt lat="45.55578" lon="6.59068">
        <ele>1359.5999755859</ele>
        <time>2014-01-31T08:48:35.000Z</time>
      </trkpt>
      <trkpt lat="45.55579" lon="6.59069">
        <ele>1359.8000488281</ele>
        <time>2014-01-31T08:48:36.000Z</time>
      </trkpt>
      <trkpt lat="45.55579" lon="6.5907">
        <ele>1360</ele>
        <time>2014-01-31T08:48:37.000Z</time>
      </trkpt>
      <trkpt lat="45.55579" lon="6.5907">
        <ele>1360.1999511719</ele>
        <time>2014-01-31T08:48:38.000Z</time>
      </trkpt>
      <trkpt lat="45.55579" lon="6.59072">
        <ele>1360.1999511719</ele>
        <time>2014-01-31T08:48:39.000Z</time>
      </trkpt>
      <trkpt lat="45.55579" lon="6.59074">
        <ele>1360.4000244141</ele>
        <time>2014-01-31T08:48:40.000Z</time>
      </trkpt>
      <trkpt lat="45.5558" lon="6.59075">
        <ele>1360.4000244141</ele>
        <time>2014-01-31T08:48:41.000Z</time>
      </trkpt>
      <trkpt lat="45.5558" lon="6.59075">
        <ele>1360.5999755859</ele>
        <time>2014-01-31T08:48:42.000Z</time>
      </trkpt>
      <trkpt lat="45.5558" lon="6.59076">
        <ele>1360.5999755859</ele>
        <time>2014-01-31T08:48:43.000Z</time>
      </trkpt>
      <trkpt lat="45.5558" lon="6.59077">
        <ele>1360.8000488281</ele>
        <time>2014-01-31T08:48:44.000Z</time>
      </trkpt>
      <trkpt lat="45.55581" lon="6.59074">
        <ele>1360.8000488281</ele>
        <time>2014-01-31T08:48:45.000Z</time>
      </trkpt>
      <trkpt lat="45.55581" lon="6.59072">
        <ele>1361</ele>
        <time>2014-01-31T08:48:46.000Z</time>
      </trkpt>
      <trkpt lat="45.55582" lon="6.5907">
        <ele>1361</ele>
        <time>2014-01-31T08:48:47.000Z</time>
      </trkpt>
      <trkpt lat="45.55582" lon="6.59068">
        <ele>1361.4000244141</ele>
        <time>2014-01-31T08:48:48.000Z</time>
      </trkpt>
      <trkpt lat="45.55582" lon="6.59066">
        <ele>1361.5999755859</ele>
        <time>2014-01-31T08:48:49.000Z</time>
      </trkpt>
      <trkpt lat="45.55582" lon="6.59065">
        <ele>1361.8000488281</ele>
        <time>2014-01-31T08:48:50.000Z</time>
      </trkpt>
      <trkpt lat="45.55582" lon="6.59063">
        <ele>1361.8000488281</ele>
        <time>2014-01-31T08:48:51.000Z</time>
      </trkpt>
      <trkpt lat="45.55583" lon="6.59061">
        <ele>1362</ele>
        <time>2014-01-31T08:48:52.000Z</time>
      </trkpt>
      <trkpt lat="45.55582" lon="6.59059">
        <ele>1362</ele>
        <time>2014-01-31T08:48:53.000Z</time>
      </trkpt>
      <trkpt lat="45.55582" lon="6.59058">
        <ele>1362.1999511719</ele>
        <time>2014-01-31T08:48:54.000Z</time>
      </trkpt>
      <trkpt lat="45.55582" lon="6.59055">
        <ele>1362.1999511719</ele>
        <time>2014-01-31T08:48:55.000Z</time>
      </trkpt>
      <trkpt lat="45.55581" lon="6.59054">
        <ele>1362.1999511719</ele>
        <time>2014-01-31T08:48:56.000Z</time>
      </trkpt>
      <trkpt lat="45.55581" lon="6.59053">
        <ele>1362.4000244141</ele>
        <time>2014-01-31T08:48:57.000Z</time>
      </trkpt>
      <trkpt lat="45.5558" lon="6.59051">
        <ele>1362.5999755859</ele>
        <time>2014-01-31T08:48:58.000Z</time>
      </trkpt>
      <trkpt lat="45.55579" lon="6.59049">
        <ele>1362.8000488281</ele>
        <time>2014-01-31T08:48:59.000Z</time>
      </trkpt>
      <trkpt lat="45.55579" lon="6.59048">
        <ele>1363</ele>
        <time>2014-01-31T08:49:00.000Z</time>
      </trkpt>
      <trkpt lat="45.55578" lon="6.59046">
        <ele>1363.1999511719</ele>
        <time>2014-01-31T08:49:01.000Z</time>
      </trkpt>
      <trkpt lat="45.55578" lon="6.59045">
        <ele>1363.4000244141</ele>
        <time>2014-01-31T08:49:02.000Z</time>
      </trkpt>
      <trkpt lat="45.55577" lon="6.59043">
        <ele>1363.4000244141</ele>
        <time>2014-01-31T08:49:03.000Z</time>
      </trkpt>
      <trkpt lat="45.55577" lon="6.59043">
        <ele>1363.5999755859</ele>
        <time>2014-01-31T08:49:04.000Z</time>
      </trkpt>
      <trkpt lat="45.55577" lon="6.59042">
        <ele>1363.5999755859</ele>
        <time>2014-01-31T08:49:05.000Z</time>
      </trkpt>
      <trkpt lat="45.55576" lon="6.59041">
        <ele>1363.5999755859</ele>
        <time>2014-01-31T08:49:06.000Z</time>
      </trkpt>
      <trkpt lat="45.55576" lon="6.5904">
        <ele>1363.5999755859</ele>
        <time>2014-01-31T08:49:07.000Z</time>
      </trkpt>
      <trkpt lat="45.55576" lon="6.5904">
        <ele>1363.5999755859</ele>
        <time>2014-01-31T08:49:08.000Z</time>
      </trkpt>
      <trkpt lat="45.55576" lon="6.59039">
        <ele>1363.8000488281</ele>
        <time>2014-01-31T08:49:09.000Z</time>
      </trkpt>
      <trkpt lat="45.55576" lon="6.59039">
        <ele>1364</ele>
        <time>2014-01-31T08:49:10.000Z</time>
      </trkpt>
      <trkpt lat="45.55576" lon="6.59039">
        <ele>1364.1999511719</ele>
        <time>2014-01-31T08:49:11.000Z</time>
      </trkpt>
      <trkpt lat="45.55576" lon="6.59039">
        <ele>1364.1999511719</ele>
        <time>2014-01-31T08:49:12.000Z</time>
      </trkpt>
      <trkpt lat="45.55576" lon="6.59038">
        <ele>1364.4000244141</ele>
        <time>2014-01-31T08:49:13.000Z</time>
      </trkpt>
      <trkpt lat="45.55576" lon="6.59037">
        <ele>1364.5999755859</ele>
        <time>2014-01-31T08:49:14.000Z</time>
      </trkpt>
      <trkpt lat="45.55576" lon="6.59036">
        <ele>1364.8000488281</ele>
        <time>2014-01-31T08:49:15.000Z</time>
      </trkpt>
      <trkpt lat="45.55576" lon="6.59035">
        <ele>1365</ele>
        <time>2014-01-31T08:49:16.000Z</time>
      </trkpt>
      <trkpt lat="45.55576" lon="6.59035">
        <ele>1365.1999511719</ele>
        <time>2014-01-31T08:49:17.000Z</time>
      </trkpt>
      <trkpt lat="45.55576" lon="6.59033">
        <ele>1365.1999511719</ele>
        <time>2014-01-31T08:49:18.000Z</time>
      </trkpt>
      <trkpt lat="45.55576" lon="6.59033">
        <ele>1365.4000244141</ele>
        <time>2014-01-31T08:49:19.000Z</time>
      </trkpt>
      <trkpt lat="45.55576" lon="6.59033">
        <ele>1365.5999755859</ele>
        <time>2014-01-31T08:49:20.000Z</time>
      </trkpt>
      <trkpt lat="45.55576" lon="6.59033">
        <ele>1365.8000488281</ele>
        <time>2014-01-31T08:49:21.000Z</time>
      </trkpt>
      <trkpt lat="45.55576" lon="6.59033">
        <ele>1365.8000488281</ele>
        <time>2014-01-31T08:49:22.000Z</time>
      </trkpt>
      <trkpt lat="45.55576" lon="6.59033">
        <ele>1366</ele>
        <time>2014-01-31T08:49:23.000Z</time>
      </trkpt>
      <trkpt lat="45.55576" lon="6.59033">
        <ele>1366.1999511719</ele>
        <time>2014-01-31T08:49:24.000Z</time>
      </trkpt>
      <trkpt lat="45.55576" lon="6.59033">
        <ele>1366.4000244141</ele>
        <time>2014-01-31T08:49:25.000Z</time>
      </trkpt>
      <trkpt lat="45.55576" lon="6.59033">
        <ele>1366.8000488281</ele>
        <time>2014-01-31T08:49:26.000Z</time>
      </trkpt>
      <trkpt lat="45.55576" lon="6.59033">
        <ele>1367</ele>
        <time>2014-01-31T08:49:27.000Z</time>
      </trkpt>
      <trkpt lat="45.55576" lon="6.59033">
        <ele>1367.4000244141</ele>
        <time>2014-01-31T08:49:28.000Z</time>
      </trkpt>
      <trkpt lat="45.55576" lon="6.59033">
        <ele>1367.5999755859</ele>
        <time>2014-01-31T08:49:29.000Z</time>
      </trkpt>
      <trkpt lat="45.55576" lon="6.59033">
        <ele>1367.5999755859</ele>
        <time>2014-01-31T08:49:30.000Z</time>
      </trkpt>
      <trkpt lat="45.55576" lon="6.59033">
        <ele>1367.8000488281</ele>
        <time>2014-01-31T08:49:31.000Z</time>
      </trkpt>
      <trkpt lat="45.55576" lon="6.59033">
        <ele>1368</ele>
        <time>2014-01-31T08:49:32.000Z</time>
      </trkpt>
      <trkpt lat="45.55576" lon="6.59033">
        <ele>1368</ele>
        <time>2014-01-31T08:49:33.000Z</time>
      </trkpt>
      <trkpt lat="45.55576" lon="6.59033">
        <ele>1368.1999511719</ele>
        <time>2014-01-31T08:49:34.000Z</time>
      </trkpt>
      <trkpt lat="45.55576" lon="6.59031">
        <ele>1368.1999511719</ele>
        <time>2014-01-31T08:49:35.000Z</time>
      </trkpt>
      <trkpt lat="45.55576" lon="6.59031">
        <ele>1368.1999511719</ele>
        <time>2014-01-31T08:49:36.000Z</time>
      </trkpt>
      <trkpt lat="45.55576" lon="6.59031">
        <ele>1368.4000244141</ele>
        <time>2014-01-31T08:49:37.000Z</time>
      </trkpt>
      <trkpt lat="45.55576" lon="6.59031">
        <ele>1368.4000244141</ele>
        <time>2014-01-31T08:49:38.000Z</time>
      </trkpt>
      <trkpt lat="45.55576" lon="6.59031">
        <ele>1368.5999755859</ele>
        <time>2014-01-31T08:49:39.000Z</time>
      </trkpt>
      <trkpt lat="45.55576" lon="6.59031">
        <ele>1368.5999755859</ele>
        <time>2014-01-31T08:49:40.000Z</time>
      </trkpt>
      <trkpt lat="45.55576" lon="6.59031">
        <ele>1368.8000488281</ele>
        <time>2014-01-31T08:49:41.000Z</time>
      </trkpt>
      <trkpt lat="45.55576" lon="6.59031">
        <ele>1368.8000488281</ele>
        <time>2014-01-31T08:49:42.000Z</time>
      </trkpt>
      <trkpt lat="45.55576" lon="6.59031">
        <ele>1369.1999511719</ele>
        <time>2014-01-31T08:49:43.000Z</time>
      </trkpt>
      <trkpt lat="45.55576" lon="6.59031">
        <ele>1369.4000244141</ele>
        <time>2014-01-31T08:49:44.000Z</time>
      </trkpt>
      <trkpt lat="45.55574" lon="6.59029">
        <ele>1369.5999755859</ele>
        <time>2014-01-31T08:49:45.000Z</time>
      </trkpt>
      <trkpt lat="45.55572" lon="6.59027">
        <ele>1369.8000488281</ele>
        <time>2014-01-31T08:49:46.000Z</time>
      </trkpt>
      <trkpt lat="45.55569" lon="6.59025">
        <ele>1369.8000488281</ele>
        <time>2014-01-31T08:49:47.000Z</time>
      </trkpt>
      <trkpt lat="45.55568" lon="6.59023">
        <ele>1370</ele>
        <time>2014-01-31T08:49:48.000Z</time>
      </trkpt>
      <trkpt lat="45.55566" lon="6.59021">
        <ele>1370</ele>
        <time>2014-01-31T08:49:49.000Z</time>
      </trkpt>
      <trkpt lat="45.55565" lon="6.59018">
        <ele>1370</ele>
        <time>2014-01-31T08:49:50.000Z</time>
      </trkpt>
      <trkpt lat="45.55564" lon="6.59015">
        <ele>1370.1999511719</ele>
        <time>2014-01-31T08:49:51.000Z</time>
      </trkpt>
      <trkpt lat="45.55562" lon="6.59012">
        <ele>1370.1999511719</ele>
        <time>2014-01-31T08:49:52.000Z</time>
      </trkpt>
      <trkpt lat="45.55561" lon="6.59011">
        <ele>1370.1999511719</ele>
        <time>2014-01-31T08:49:53.000Z</time>
      </trkpt>
      <trkpt lat="45.5556" lon="6.59009">
        <ele>1370.1999511719</ele>
        <time>2014-01-31T08:49:54.000Z</time>
      </trkpt>
      <trkpt lat="45.55559" lon="6.59007">
        <ele>1370.1999511719</ele>
        <time>2014-01-31T08:49:55.000Z</time>
      </trkpt>
      <trkpt lat="45.55557" lon="6.59006">
        <ele>1370.4000244141</ele>
        <time>2014-01-31T08:49:56.000Z</time>
      </trkpt>
      <trkpt lat="45.55556" lon="6.59004">
        <ele>1370.4000244141</ele>
        <time>2014-01-31T08:49:57.000Z</time>
      </trkpt>
      <trkpt lat="45.55556" lon="6.59003">
        <ele>1370.5999755859</ele>
        <time>2014-01-31T08:49:58.000Z</time>
      </trkpt>
      <trkpt lat="45.55555" lon="6.59">
        <ele>1370.5999755859</ele>
        <time>2014-01-31T08:49:59.000Z</time>
      </trkpt>
      <trkpt lat="45.55555" lon="6.58999">
        <ele>1370.8000488281</ele>
        <time>2014-01-31T08:50:00.000Z</time>
      </trkpt>
      <trkpt lat="45.55554" lon="6.58997">
        <ele>1370.8000488281</ele>
        <time>2014-01-31T08:50:01.000Z</time>
      </trkpt>
      <trkpt lat="45.55554" lon="6.58996">
        <ele>1371</ele>
        <time>2014-01-31T08:50:02.000Z</time>
      </trkpt>
      <trkpt lat="45.55552" lon="6.58989">
        <ele>1371</ele>
        <time>2014-01-31T08:50:05.000Z</time>
      </trkpt>
      <trkpt lat="45.55552" lon="6.58989">
        <ele>1371.1999511719</ele>
        <time>2014-01-31T08:50:06.000Z</time>
      </trkpt>
      <trkpt lat="45.55551" lon="6.58985">
        <ele>1371.1999511719</ele>
        <time>2014-01-31T08:50:07.000Z</time>
      </trkpt>
      <trkpt lat="45.5555" lon="6.58983">
        <ele>1371.4000244141</ele>
        <time>2014-01-31T08:50:08.000Z</time>
      </trkpt>
      <trkpt lat="45.55549" lon="6.5898">
        <ele>1371.5999755859</ele>
        <time>2014-01-31T08:50:09.000Z</time>
      </trkpt>
      <trkpt lat="45.55548" lon="6.58978">
        <ele>1371.5999755859</ele>
        <time>2014-01-31T08:50:10.000Z</time>
      </trkpt>
      <trkpt lat="45.55548" lon="6.58978">
        <ele>1371.8000488281</ele>
        <time>2014-01-31T08:50:11.000Z</time>
      </trkpt>
      <trkpt lat="45.55548" lon="6.58978">
        <ele>1371.8000488281</ele>
        <time>2014-01-31T08:50:12.000Z</time>
      </trkpt>
      <trkpt lat="45.55548" lon="6.58977">
        <ele>1371.8000488281</ele>
        <time>2014-01-31T08:50:13.000Z</time>
      </trkpt>
      <trkpt lat="45.55548" lon="6.58977">
        <ele>1371.8000488281</ele>
        <time>2014-01-31T08:50:14.000Z</time>
      </trkpt>
      <trkpt lat="45.55547" lon="6.58975">
        <ele>1371.8000488281</ele>
        <time>2014-01-31T08:50:15.000Z</time>
      </trkpt>
      <trkpt lat="45.55547" lon="6.58973">
        <ele>1371.8000488281</ele>
        <time>2014-01-31T08:50:16.000Z</time>
      </trkpt>
      <trkpt lat="45.55546" lon="6.58972">
        <ele>1371.8000488281</ele>
        <time>2014-01-31T08:50:17.000Z</time>
      </trkpt>
      <trkpt lat="45.55546" lon="6.58972">
        <ele>1371.8000488281</ele>
        <time>2014-01-31T08:50:18.000Z</time>
      </trkpt>
      <trkpt lat="45.55545" lon="6.5897">
        <ele>1371.8000488281</ele>
        <time>2014-01-31T08:50:19.000Z</time>
      </trkpt>
      <trkpt lat="45.55544" lon="6.58967">
        <ele>1371.8000488281</ele>
        <time>2014-01-31T08:50:20.000Z</time>
      </trkpt>
      <trkpt lat="45.55542" lon="6.58965">
        <ele>1371.8000488281</ele>
        <time>2014-01-31T08:50:21.000Z</time>
      </trkpt>
      <trkpt lat="45.55541" lon="6.58962">
        <ele>1371.5999755859</ele>
        <time>2014-01-31T08:50:22.000Z</time>
      </trkpt>
      <trkpt lat="45.5554" lon="6.5896">
        <ele>1371.5999755859</ele>
        <time>2014-01-31T08:50:23.000Z</time>
      </trkpt>
      <trkpt lat="45.55539" lon="6.58958">
        <ele>1371.5999755859</ele>
        <time>2014-01-31T08:50:24.000Z</time>
      </trkpt>
      <trkpt lat="45.55539" lon="6.58956">
        <ele>1371.5999755859</ele>
        <time>2014-01-31T08:50:25.000Z</time>
      </trkpt>
      <trkpt lat="45.55538" lon="6.58955">
        <ele>1371.5999755859</ele>
        <time>2014-01-31T08:50:26.000Z</time>
      </trkpt>
      <trkpt lat="45.55537" lon="6.58954">
        <ele>1371.4000244141</ele>
        <time>2014-01-31T08:50:27.000Z</time>
      </trkpt>
      <trkpt lat="45.55536" lon="6.58954">
        <ele>1371.4000244141</ele>
        <time>2014-01-31T08:50:28.000Z</time>
      </trkpt>
      <trkpt lat="45.55536" lon="6.58954">
        <ele>1371.4000244141</ele>
        <time>2014-01-31T08:50:29.000Z</time>
      </trkpt>
      <trkpt lat="45.55536" lon="6.58954">
        <ele>1371.4000244141</ele>
        <time>2014-01-31T08:50:30.000Z</time>
      </trkpt>
      <trkpt lat="45.55536" lon="6.58954">
        <ele>1371.4000244141</ele>
        <time>2014-01-31T08:50:31.000Z</time>
      </trkpt>
      <trkpt lat="45.55536" lon="6.58954">
        <ele>1371.4000244141</ele>
        <time>2014-01-31T08:50:32.000Z</time>
      </trkpt>
      <trkpt lat="45.55536" lon="6.58954">
        <ele>1371.4000244141</ele>
        <time>2014-01-31T08:50:33.000Z</time>
      </trkpt>
      <trkpt lat="45.55534" lon="6.58953">
        <ele>1371.4000244141</ele>
        <time>2014-01-31T08:50:36.000Z</time>
      </trkpt>
      <trkpt lat="45.55534" lon="6.58953">
        <ele>1371.5999755859</ele>
        <time>2014-01-31T08:50:37.000Z</time>
      </trkpt>
      <trkpt lat="45.55534" lon="6.58953">
        <ele>1371.5999755859</ele>
        <time>2014-01-31T08:50:38.000Z</time>
      </trkpt>
      <trkpt lat="45.55534" lon="6.58953">
        <ele>1371.8000488281</ele>
        <time>2014-01-31T08:50:39.000Z</time>
      </trkpt>
      <trkpt lat="45.55534" lon="6.58953">
        <ele>1371.8000488281</ele>
        <time>2014-01-31T08:50:40.000Z</time>
      </trkpt>
      <trkpt lat="45.55534" lon="6.58953">
        <ele>1371.5999755859</ele>
        <time>2014-01-31T08:50:41.000Z</time>
      </trkpt>
      <trkpt lat="45.55534" lon="6.58953">
        <ele>1371.4000244141</ele>
        <time>2014-01-31T08:50:42.000Z</time>
      </trkpt>
      <trkpt lat="45.55534" lon="6.58953">
        <ele>1371.1999511719</ele>
        <time>2014-01-31T08:50:43.000Z</time>
      </trkpt>
      <trkpt lat="45.55534" lon="6.58953">
        <ele>1371</ele>
        <time>2014-01-31T08:50:44.000Z</time>
      </trkpt>
      <trkpt lat="45.55534" lon="6.58953">
        <ele>1370.8000488281</ele>
        <time>2014-01-31T08:50:45.000Z</time>
      </trkpt>
      <trkpt lat="45.55534" lon="6.58953">
        <ele>1370.8000488281</ele>
        <time>2014-01-31T08:50:46.000Z</time>
      </trkpt>
      <trkpt lat="45.55534" lon="6.58954">
        <ele>1370.8000488281</ele>
        <time>2014-01-31T08:50:47.000Z</time>
      </trkpt>
      <trkpt lat="45.55534" lon="6.58955">
        <ele>1370.8000488281</ele>
        <time>2014-01-31T08:50:49.000Z</time>
      </trkpt>
      <trkpt lat="45.55534" lon="6.58956">
        <ele>1371</ele>
        <time>2014-01-31T08:50:50.000Z</time>
      </trkpt>
      <trkpt lat="45.55534" lon="6.58957">
        <ele>1371.1999511719</ele>
        <time>2014-01-31T08:50:51.000Z</time>
      </trkpt>
      <trkpt lat="45.55534" lon="6.58959">
        <ele>1371.1999511719</ele>
        <time>2014-01-31T08:50:52.000Z</time>
      </trkpt>
      <trkpt lat="45.55535" lon="6.5896">
        <ele>1371.1999511719</ele>
        <time>2014-01-31T08:50:53.000Z</time>
      </trkpt>
      <trkpt lat="45.55536" lon="6.58961">
        <ele>1371.1999511719</ele>
        <time>2014-01-31T08:50:54.000Z</time>
      </trkpt>
      <trkpt lat="45.55536" lon="6.58962">
        <ele>1371.1999511719</ele>
        <time>2014-01-31T08:50:55.000Z</time>
      </trkpt>
      <trkpt lat="45.55537" lon="6.58967">
        <ele>1371.1999511719</ele>
        <time>2014-01-31T08:50:58.000Z</time>
      </trkpt>
      <trkpt lat="45.55537" lon="6.58968">
        <ele>1371</ele>
        <time>2014-01-31T08:50:59.000Z</time>
      </trkpt>
      <trkpt lat="45.55538" lon="6.58969">
        <ele>1371</ele>
        <time>2014-01-31T08:51:00.000Z</time>
      </trkpt>
      <trkpt lat="45.55539" lon="6.58971">
        <ele>1371</ele>
        <time>2014-01-31T08:51:01.000Z</time>
      </trkpt>
      <trkpt lat="45.55541" lon="6.58974">
        <ele>1371</ele>
        <time>2014-01-31T08:51:03.000Z</time>
      </trkpt>
      <trkpt lat="45.55541" lon="6.58976">
        <ele>1371</ele>
        <time>2014-01-31T08:51:04.000Z</time>
      </trkpt>
      <trkpt lat="45.55541" lon="6.58978">
        <ele>1371</ele>
        <time>2014-01-31T08:51:05.000Z</time>
      </trkpt>
      <trkpt lat="45.55541" lon="6.58979">
        <ele>1370.8000488281</ele>
        <time>2014-01-31T08:51:06.000Z</time>
      </trkpt>
      <trkpt lat="45.55542" lon="6.5898">
        <ele>1370.8000488281</ele>
        <time>2014-01-31T08:51:07.000Z</time>
      </trkpt>
      <trkpt lat="45.55543" lon="6.58981">
        <ele>1370.8000488281</ele>
        <time>2014-01-31T08:51:08.000Z</time>
      </trkpt>
      <trkpt lat="45.55543" lon="6.58981">
        <ele>1370.5999755859</ele>
        <time>2014-01-31T08:51:09.000Z</time>
      </trkpt>
      <trkpt lat="45.55544" lon="6.58982">
        <ele>1370.8000488281</ele>
        <time>2014-01-31T08:51:10.000Z</time>
      </trkpt>
      <trkpt lat="45.55544" lon="6.58982">
        <ele>1370.8000488281</ele>
        <time>2014-01-31T08:51:11.000Z</time>
      </trkpt>
      <trkpt lat="45.55544" lon="6.58982">
        <ele>1370.8000488281</ele>
        <time>2014-01-31T08:51:13.000Z</time>
      </trkpt>
      <trkpt lat="45.55544" lon="6.58982">
        <ele>1371</ele>
        <time>2014-01-31T08:51:14.000Z</time>
      </trkpt>
      <trkpt lat="45.55544" lon="6.58982">
        <ele>1371</ele>
        <time>2014-01-31T08:51:15.000Z</time>
      </trkpt>
      <trkpt lat="45.55544" lon="6.58982">
        <ele>1371</ele>
        <time>2014-01-31T08:51:17.000Z</time>
      </trkpt>
      <trkpt lat="45.55544" lon="6.58982">
        <ele>1371</ele>
        <time>2014-01-31T08:51:18.000Z</time>
      </trkpt>
      <trkpt lat="45.55544" lon="6.58982">
        <ele>1371.1999511719</ele>
        <time>2014-01-31T08:51:19.000Z</time>
      </trkpt>
      <trkpt lat="45.55544" lon="6.58982">
        <ele>1371.1999511719</ele>
        <time>2014-01-31T08:51:20.000Z</time>
      </trkpt>
      <trkpt lat="45.55544" lon="6.58982">
        <ele>1371.1999511719</ele>
        <time>2014-01-31T08:51:21.000Z</time>
      </trkpt>
      <trkpt lat="45.55544" lon="6.58982">
        <ele>1371.1999511719</ele>
        <time>2014-01-31T08:51:22.000Z</time>
      </trkpt>
      <trkpt lat="45.55544" lon="6.58982">
        <ele>1371.4000244141</ele>
        <time>2014-01-31T08:51:23.000Z</time>
      </trkpt>
      <trkpt lat="45.55544" lon="6.58982">
        <ele>1371.4000244141</ele>
        <time>2014-01-31T08:51:24.000Z</time>
      </trkpt>
      <trkpt lat="45.55544" lon="6.58982">
        <ele>1371.5999755859</ele>
        <time>2014-01-31T08:51:25.000Z</time>
      </trkpt>
      <trkpt lat="45.55544" lon="6.58983">
        <ele>1371.8000488281</ele>
        <time>2014-01-31T08:51:26.000Z</time>
      </trkpt>
      <trkpt lat="45.55545" lon="6.58983">
        <ele>1372</ele>
        <time>2014-01-31T08:51:27.000Z</time>
      </trkpt>
      <trkpt lat="45.55545" lon="6.58985">
        <ele>1372.4000244141</ele>
        <time>2014-01-31T08:51:28.000Z</time>
      </trkpt>
      <trkpt lat="45.55545" lon="6.58985">
        <ele>1372.4000244141</ele>
        <time>2014-01-31T08:51:29.000Z</time>
      </trkpt>
      <trkpt lat="45.55545" lon="6.58985">
        <ele>1372.5999755859</ele>
        <time>2014-01-31T08:51:30.000Z</time>
      </trkpt>
      <trkpt lat="45.55545" lon="6.58985">
        <ele>1372.5999755859</ele>
        <time>2014-01-31T08:51:31.000Z</time>
      </trkpt>
      <trkpt lat="45.55545" lon="6.58985">
        <ele>1372.5999755859</ele>
        <time>2014-01-31T08:51:32.000Z</time>
      </trkpt>
      <trkpt lat="45.55545" lon="6.58985">
        <ele>1372.4000244141</ele>
        <time>2014-01-31T08:51:33.000Z</time>
      </trkpt>
      <trkpt lat="45.55545" lon="6.58985">
        <ele>1372.4000244141</ele>
        <time>2014-01-31T08:51:34.000Z</time>
      </trkpt>
      <trkpt lat="45.55545" lon="6.58985">
        <ele>1372.1999511719</ele>
        <time>2014-01-31T08:51:35.000Z</time>
      </trkpt>
      <trkpt lat="45.55545" lon="6.58985">
        <ele>1372.1999511719</ele>
        <time>2014-01-31T08:51:36.000Z</time>
      </trkpt>
      <trkpt lat="45.55545" lon="6.58985">
        <ele>1372.1999511719</ele>
        <time>2014-01-31T08:51:37.000Z</time>
      </trkpt>
      <trkpt lat="45.55545" lon="6.58985">
        <ele>1372.1999511719</ele>
        <time>2014-01-31T08:51:38.000Z</time>
      </trkpt>
      <trkpt lat="45.55545" lon="6.58985">
        <ele>1372.4000244141</ele>
        <time>2014-01-31T08:51:39.000Z</time>
      </trkpt>
      <trkpt lat="45.55545" lon="6.58985">
        <ele>1372.8000488281</ele>
        <time>2014-01-31T08:51:40.000Z</time>
      </trkpt>
      <trkpt lat="45.55545" lon="6.58985">
        <ele>1373</ele>
        <time>2014-01-31T08:51:41.000Z</time>
      </trkpt>
      <trkpt lat="45.55545" lon="6.58985">
        <ele>1373.1999511719</ele>
        <time>2014-01-31T08:51:42.000Z</time>
      </trkpt>
      <trkpt lat="45.55545" lon="6.58985">
        <ele>1373.4000244141</ele>
        <time>2014-01-31T08:51:43.000Z</time>
      </trkpt>
      <trkpt lat="45.55545" lon="6.58985">
        <ele>1373.5999755859</ele>
        <time>2014-01-31T08:51:44.000Z</time>
      </trkpt>
      <trkpt lat="45.55545" lon="6.58985">
        <ele>1373.5999755859</ele>
        <time>2014-01-31T08:51:45.000Z</time>
      </trkpt>
      <trkpt lat="45.55545" lon="6.58985">
        <ele>1373.5999755859</ele>
        <time>2014-01-31T08:51:46.000Z</time>
      </trkpt>
      <trkpt lat="45.55545" lon="6.58985">
        <ele>1373.8000488281</ele>
        <time>2014-01-31T08:51:47.000Z</time>
      </trkpt>
      <trkpt lat="45.55545" lon="6.58985">
        <ele>1373.8000488281</ele>
        <time>2014-01-31T08:51:48.000Z</time>
      </trkpt>
      <trkpt lat="45.55545" lon="6.58985">
        <ele>1373.8000488281</ele>
        <time>2014-01-31T08:51:49.000Z</time>
      </trkpt>
      <trkpt lat="45.55545" lon="6.58985">
        <ele>1373.8000488281</ele>
        <time>2014-01-31T08:51:50.000Z</time>
      </trkpt>
      <trkpt lat="45.55545" lon="6.58985">
        <ele>1373.8000488281</ele>
        <time>2014-01-31T08:51:51.000Z</time>
      </trkpt>
      <trkpt lat="45.55547" lon="6.58986">
        <ele>1373.8000488281</ele>
        <time>2014-01-31T08:51:52.000Z</time>
      </trkpt>
      <trkpt lat="45.55547" lon="6.58986">
        <ele>1373.8000488281</ele>
        <time>2014-01-31T08:51:53.000Z</time>
      </trkpt>
      <trkpt lat="45.55548" lon="6.58986">
        <ele>1373.8000488281</ele>
        <time>2014-01-31T08:51:54.000Z</time>
      </trkpt>
      <trkpt lat="45.55548" lon="6.58986">
        <ele>1373.8000488281</ele>
        <time>2014-01-31T08:51:55.000Z</time>
      </trkpt>
      <trkpt lat="45.55548" lon="6.58986">
        <ele>1373.8000488281</ele>
        <time>2014-01-31T08:51:56.000Z</time>
      </trkpt>
      <trkpt lat="45.55548" lon="6.58986">
        <ele>1373.5999755859</ele>
        <time>2014-01-31T08:51:57.000Z</time>
      </trkpt>
      <trkpt lat="45.55548" lon="6.58986">
        <ele>1373.5999755859</ele>
        <time>2014-01-31T08:51:58.000Z</time>
      </trkpt>
      <trkpt lat="45.55548" lon="6.58986">
        <ele>1373.5999755859</ele>
        <time>2014-01-31T08:51:59.000Z</time>
      </trkpt>
      <trkpt lat="45.55548" lon="6.58986">
        <ele>1373.5999755859</ele>
        <time>2014-01-31T08:52:01.000Z</time>
      </trkpt>
      <trkpt lat="45.55549" lon="6.58987">
        <ele>1373.5999755859</ele>
        <time>2014-01-31T08:52:05.000Z</time>
      </trkpt>
      <trkpt lat="45.5555" lon="6.58989">
        <ele>1373.5999755859</ele>
        <time>2014-01-31T08:52:06.000Z</time>
      </trkpt>
      <trkpt lat="45.55551" lon="6.5899">
        <ele>1373.4000244141</ele>
        <time>2014-01-31T08:52:07.000Z</time>
      </trkpt>
      <trkpt lat="45.55551" lon="6.5899">
        <ele>1373.4000244141</ele>
        <time>2014-01-31T08:52:08.000Z</time>
      </trkpt>
      <trkpt lat="45.55551" lon="6.5899">
        <ele>1373.1999511719</ele>
        <time>2014-01-31T08:52:09.000Z</time>
      </trkpt>
      <trkpt lat="45.55551" lon="6.5899">
        <ele>1373.1999511719</ele>
        <time>2014-01-31T08:52:10.000Z</time>
      </trkpt>
      <trkpt lat="45.55551" lon="6.5899">
        <ele>1373</ele>
        <time>2014-01-31T08:52:11.000Z</time>
      </trkpt>
      <trkpt lat="45.55551" lon="6.5899">
        <ele>1372.5999755859</ele>
        <time>2014-01-31T08:52:12.000Z</time>
      </trkpt>
      <trkpt lat="45.55552" lon="6.58991">
        <ele>1372.4000244141</ele>
        <time>2014-01-31T08:52:13.000Z</time>
      </trkpt>
      <trkpt lat="45.55553" lon="6.58992">
        <ele>1372.1999511719</ele>
        <time>2014-01-31T08:52:14.000Z</time>
      </trkpt>
      <trkpt lat="45.55552" lon="6.58993">
        <ele>1372</ele>
        <time>2014-01-31T08:52:15.000Z</time>
      </trkpt>
      <trkpt lat="45.55552" lon="6.58993">
        <ele>1372</ele>
        <time>2014-01-31T08:52:16.000Z</time>
      </trkpt>
      <trkpt lat="45.55552" lon="6.58993">
        <ele>1372</ele>
        <time>2014-01-31T08:52:17.000Z</time>
      </trkpt>
      <trkpt lat="45.55552" lon="6.58993">
        <ele>1372</ele>
        <time>2014-01-31T08:52:18.000Z</time>
      </trkpt>
      <trkpt lat="45.55553" lon="6.58994">
        <ele>1371.8000488281</ele>
        <time>2014-01-31T08:52:19.000Z</time>
      </trkpt>
      <trkpt lat="45.55553" lon="6.58995">
        <ele>1371.5999755859</ele>
        <time>2014-01-31T08:52:20.000Z</time>
      </trkpt>
      <trkpt lat="45.55553" lon="6.58995">
        <ele>1371.4000244141</ele>
        <time>2014-01-31T08:52:21.000Z</time>
      </trkpt>
      <trkpt lat="45.55553" lon="6.58996">
        <ele>1371.4000244141</ele>
        <time>2014-01-31T08:52:22.000Z</time>
      </trkpt>
      <trkpt lat="45.55553" lon="6.58996">
        <ele>1371.1999511719</ele>
        <time>2014-01-31T08:52:23.000Z</time>
      </trkpt>
      <trkpt lat="45.55554" lon="6.58997">
        <ele>1371.1999511719</ele>
        <time>2014-01-31T08:52:24.000Z</time>
      </trkpt>
      <trkpt lat="45.55554" lon="6.58998">
        <ele>1371.1999511719</ele>
        <time>2014-01-31T08:52:25.000Z</time>
      </trkpt>
      <trkpt lat="45.55554" lon="6.58999">
        <ele>1371.1999511719</ele>
        <time>2014-01-31T08:52:26.000Z</time>
      </trkpt>
      <trkpt lat="45.55555" lon="6.59">
        <ele>1371</ele>
        <time>2014-01-31T08:52:27.000Z</time>
      </trkpt>
      <trkpt lat="45.55555" lon="6.59001">
        <ele>1371</ele>
        <time>2014-01-31T08:52:28.000Z</time>
      </trkpt>
      <trkpt lat="45.55556" lon="6.59002">
        <ele>1370.8000488281</ele>
        <time>2014-01-31T08:52:29.000Z</time>
      </trkpt>
      <trkpt lat="45.55556" lon="6.59003">
        <ele>1370.8000488281</ele>
        <time>2014-01-31T08:52:30.000Z</time>
      </trkpt>
      <trkpt lat="45.55557" lon="6.59004">
        <ele>1370.8000488281</ele>
        <time>2014-01-31T08:52:31.000Z</time>
      </trkpt>
      <trkpt lat="45.55558" lon="6.59006">
        <ele>1370.5999755859</ele>
        <time>2014-01-31T08:52:32.000Z</time>
      </trkpt>
      <trkpt lat="45.55558" lon="6.59006">
        <ele>1370.5999755859</ele>
        <time>2014-01-31T08:52:33.000Z</time>
      </trkpt>
      <trkpt lat="45.55558" lon="6.59006">
        <ele>1370.4000244141</ele>
        <time>2014-01-31T08:52:34.000Z</time>
      </trkpt>
      <trkpt lat="45.55558" lon="6.59006">
        <ele>1370.4000244141</ele>
        <time>2014-01-31T08:52:35.000Z</time>
      </trkpt>
      <trkpt lat="45.55558" lon="6.59006">
        <ele>1370.4000244141</ele>
        <time>2014-01-31T08:52:36.000Z</time>
      </trkpt>
      <trkpt lat="45.55558" lon="6.59006">
        <ele>1370.4000244141</ele>
        <time>2014-01-31T08:52:37.000Z</time>
      </trkpt>
      <trkpt lat="45.55558" lon="6.59006">
        <ele>1370.1999511719</ele>
        <time>2014-01-31T08:52:38.000Z</time>
      </trkpt>
      <trkpt lat="45.55558" lon="6.59006">
        <ele>1370</ele>
        <time>2014-01-31T08:52:39.000Z</time>
      </trkpt>
      <trkpt lat="45.55558" lon="6.59006">
        <ele>1369.8000488281</ele>
        <time>2014-01-31T08:52:40.000Z</time>
      </trkpt>
      <trkpt lat="45.55558" lon="6.59006">
        <ele>1369.5999755859</ele>
        <time>2014-01-31T08:52:41.000Z</time>
      </trkpt>
      <trkpt lat="45.55559" lon="6.59006">
        <ele>1369.4000244141</ele>
        <time>2014-01-31T08:52:42.000Z</time>
      </trkpt>
      <trkpt lat="45.55559" lon="6.59006">
        <ele>1369.1999511719</ele>
        <time>2014-01-31T08:52:43.000Z</time>
      </trkpt>
      <trkpt lat="45.55559" lon="6.59007">
        <ele>1369</ele>
        <time>2014-01-31T08:52:44.000Z</time>
      </trkpt>
      <trkpt lat="45.5556" lon="6.59008">
        <ele>1368.5999755859</ele>
        <time>2014-01-31T08:52:45.000Z</time>
      </trkpt>
      <trkpt lat="45.5556" lon="6.5901">
        <ele>1368.1999511719</ele>
        <time>2014-01-31T08:52:46.000Z</time>
      </trkpt>
      <trkpt lat="45.55561" lon="6.59012">
        <ele>1368</ele>
        <time>2014-01-31T08:52:47.000Z</time>
      </trkpt>
      <trkpt lat="45.55562" lon="6.59014">
        <ele>1367.5999755859</ele>
        <time>2014-01-31T08:52:48.000Z</time>
      </trkpt>
      <trkpt lat="45.55563" lon="6.59016">
        <ele>1367.4000244141</ele>
        <time>2014-01-31T08:52:49.000Z</time>
      </trkpt>
      <trkpt lat="45.55563" lon="6.59018">
        <ele>1367.1999511719</ele>
        <time>2014-01-31T08:52:50.000Z</time>
      </trkpt>
      <trkpt lat="45.55564" lon="6.5902">
        <ele>1367</ele>
        <time>2014-01-31T08:52:51.000Z</time>
      </trkpt>
      <trkpt lat="45.55565" lon="6.59022">
        <ele>1366.8000488281</ele>
        <time>2014-01-31T08:52:52.000Z</time>
      </trkpt>
      <trkpt lat="45.55566" lon="6.59025">
        <ele>1366.8000488281</ele>
        <time>2014-01-31T08:52:53.000Z</time>
      </trkpt>
      <trkpt lat="45.55567" lon="6.59028">
        <ele>1366.4000244141</ele>
        <time>2014-01-31T08:52:54.000Z</time>
      </trkpt>
      <trkpt lat="45.55568" lon="6.5903">
        <ele>1366.1999511719</ele>
        <time>2014-01-31T08:52:55.000Z</time>
      </trkpt>
      <trkpt lat="45.55568" lon="6.59032">
        <ele>1366</ele>
        <time>2014-01-31T08:52:56.000Z</time>
      </trkpt>
      <trkpt lat="45.55569" lon="6.59035">
        <ele>1365.1999511719</ele>
        <time>2014-01-31T08:52:57.000Z</time>
      </trkpt>
      <trkpt lat="45.55569" lon="6.59038">
        <ele>1364.8000488281</ele>
        <time>2014-01-31T08:52:58.000Z</time>
      </trkpt>
      <trkpt lat="45.55569" lon="6.59041">
        <ele>1364.4000244141</ele>
        <time>2014-01-31T08:52:59.000Z</time>
      </trkpt>
      <trkpt lat="45.5557" lon="6.59044">
        <ele>1364</ele>
        <time>2014-01-31T08:53:00.000Z</time>
      </trkpt>
      <trkpt lat="45.5557" lon="6.59046">
        <ele>1363.8000488281</ele>
        <time>2014-01-31T08:53:01.000Z</time>
      </trkpt>
      <trkpt lat="45.5557" lon="6.59048">
        <ele>1363.5999755859</ele>
        <time>2014-01-31T08:53:02.000Z</time>
      </trkpt>
      <trkpt lat="45.5557" lon="6.5905">
        <ele>1363.4000244141</ele>
        <time>2014-01-31T08:53:03.000Z</time>
      </trkpt>
      <trkpt lat="45.55571" lon="6.59052">
        <ele>1363.1999511719</ele>
        <time>2014-01-31T08:53:04.000Z</time>
      </trkpt>
      <trkpt lat="45.55572" lon="6.59055">
        <ele>1363</ele>
        <time>2014-01-31T08:53:05.000Z</time>
      </trkpt>
      <trkpt lat="45.55572" lon="6.59057">
        <ele>1362.8000488281</ele>
        <time>2014-01-31T08:53:06.000Z</time>
      </trkpt>
      <trkpt lat="45.55573" lon="6.59059">
        <ele>1362.5999755859</ele>
        <time>2014-01-31T08:53:07.000Z</time>
      </trkpt>
      <trkpt lat="45.55573" lon="6.59061">
        <ele>1362.4000244141</ele>
        <time>2014-01-31T08:53:08.000Z</time>
      </trkpt>
      <trkpt lat="45.55573" lon="6.59063">
        <ele>1362.1999511719</ele>
        <time>2014-01-31T08:53:09.000Z</time>
      </trkpt>
      <trkpt lat="45.55573" lon="6.59065">
        <ele>1362</ele>
        <time>2014-01-31T08:53:10.000Z</time>
      </trkpt>
      <trkpt lat="45.55573" lon="6.59067">
        <ele>1361.5999755859</ele>
        <time>2014-01-31T08:53:11.000Z</time>
      </trkpt>
      <trkpt lat="45.55573" lon="6.59068">
        <ele>1361.4000244141</ele>
        <time>2014-01-31T08:53:12.000Z</time>
      </trkpt>
      <trkpt lat="45.55573" lon="6.59069">
        <ele>1361.1999511719</ele>
        <time>2014-01-31T08:53:13.000Z</time>
      </trkpt>
      <trkpt lat="45.55573" lon="6.59071">
        <ele>1361.1999511719</ele>
        <time>2014-01-31T08:53:14.000Z</time>
      </trkpt>
      <trkpt lat="45.55573" lon="6.59073">
        <ele>1361</ele>
        <time>2014-01-31T08:53:15.000Z</time>
      </trkpt>
      <trkpt lat="45.55573" lon="6.59076">
        <ele>1360.8000488281</ele>
        <time>2014-01-31T08:53:16.000Z</time>
      </trkpt>
      <trkpt lat="45.55573" lon="6.59077">
        <ele>1360.8000488281</ele>
        <time>2014-01-31T08:53:17.000Z</time>
      </trkpt>
      <trkpt lat="45.55573" lon="6.59077">
        <ele>1360.5999755859</ele>
        <time>2014-01-31T08:53:18.000Z</time>
      </trkpt>
      <trkpt lat="45.55573" lon="6.59079">
        <ele>1360.1999511719</ele>
        <time>2014-01-31T08:53:19.000Z</time>
      </trkpt>
      <trkpt lat="45.55574" lon="6.5908">
        <ele>1360</ele>
        <time>2014-01-31T08:53:20.000Z</time>
      </trkpt>
      <trkpt lat="45.55573" lon="6.59081">
        <ele>1359.8000488281</ele>
        <time>2014-01-31T08:53:21.000Z</time>
      </trkpt>
      <trkpt lat="45.55573" lon="6.59082">
        <ele>1359.5999755859</ele>
        <time>2014-01-31T08:53:22.000Z</time>
      </trkpt>
      <trkpt lat="45.55573" lon="6.59083">
        <ele>1359.5999755859</ele>
        <time>2014-01-31T08:53:23.000Z</time>
      </trkpt>
      <trkpt lat="45.55572" lon="6.59083">
        <ele>1359.5999755859</ele>
        <time>2014-01-31T08:53:24.000Z</time>
      </trkpt>
      <trkpt lat="45.55571" lon="6.59084">
        <ele>1359.5999755859</ele>
        <time>2014-01-31T08:53:25.000Z</time>
      </trkpt>
      <trkpt lat="45.5557" lon="6.59085">
        <ele>1359.5999755859</ele>
        <time>2014-01-31T08:53:26.000Z</time>
      </trkpt>
      <trkpt lat="45.5557" lon="6.59087">
        <ele>1359.5999755859</ele>
        <time>2014-01-31T08:53:27.000Z</time>
      </trkpt>
      <trkpt lat="45.5557" lon="6.59089">
        <ele>1359.5999755859</ele>
        <time>2014-01-31T08:53:29.000Z</time>
      </trkpt>
      <trkpt lat="45.5557" lon="6.59091">
        <ele>1359.5999755859</ele>
        <time>2014-01-31T08:53:30.000Z</time>
      </trkpt>
      <trkpt lat="45.55569" lon="6.59093">
        <ele>1359.5999755859</ele>
        <time>2014-01-31T08:53:31.000Z</time>
      </trkpt>
      <trkpt lat="45.55569" lon="6.59094">
        <ele>1359.4000244141</ele>
        <time>2014-01-31T08:53:32.000Z</time>
      </trkpt>
      <trkpt lat="45.55569" lon="6.59096">
        <ele>1359.4000244141</ele>
        <time>2014-01-31T08:53:33.000Z</time>
      </trkpt>
      <trkpt lat="45.55569" lon="6.59097">
        <ele>1359.4000244141</ele>
        <time>2014-01-31T08:53:34.000Z</time>
      </trkpt>
      <trkpt lat="45.55569" lon="6.59098">
        <ele>1359.4000244141</ele>
        <time>2014-01-31T08:53:35.000Z</time>
      </trkpt>
      <trkpt lat="45.55568" lon="6.59101">
        <ele>1359.4000244141</ele>
        <time>2014-01-31T08:53:37.000Z</time>
      </trkpt>
      <trkpt lat="45.55568" lon="6.59102">
        <ele>1359.4000244141</ele>
        <time>2014-01-31T08:53:38.000Z</time>
      </trkpt>
      <trkpt lat="45.55568" lon="6.59102">
        <ele>1359.4000244141</ele>
        <time>2014-01-31T08:53:39.000Z</time>
      </trkpt>
      <trkpt lat="45.55568" lon="6.59103">
        <ele>1359.4000244141</ele>
        <time>2014-01-31T08:53:40.000Z</time>
      </trkpt>
      <trkpt lat="45.55567" lon="6.59104">
        <ele>1359.4000244141</ele>
        <time>2014-01-31T08:53:42.000Z</time>
      </trkpt>
      <trkpt lat="45.55567" lon="6.59105">
        <ele>1359.4000244141</ele>
        <time>2014-01-31T08:53:43.000Z</time>
      </trkpt>
      <trkpt lat="45.55567" lon="6.59106">
        <ele>1359.4000244141</ele>
        <time>2014-01-31T08:53:44.000Z</time>
      </trkpt>
      <trkpt lat="45.55567" lon="6.59107">
        <ele>1359.4000244141</ele>
        <time>2014-01-31T08:53:45.000Z</time>
      </trkpt>
      <trkpt lat="45.55568" lon="6.59108">
        <ele>1359.1999511719</ele>
        <time>2014-01-31T08:53:46.000Z</time>
      </trkpt>
      <trkpt lat="45.55568" lon="6.59109">
        <ele>1359.1999511719</ele>
        <time>2014-01-31T08:53:47.000Z</time>
      </trkpt>
      <trkpt lat="45.55568" lon="6.59109">
        <ele>1359</ele>
        <time>2014-01-31T08:53:48.000Z</time>
      </trkpt>
      <trkpt lat="45.55569" lon="6.5911">
        <ele>1359</ele>
        <time>2014-01-31T08:53:49.000Z</time>
      </trkpt>
      <trkpt lat="45.5557" lon="6.59111">
        <ele>1359</ele>
        <time>2014-01-31T08:53:50.000Z</time>
      </trkpt>
      <trkpt lat="45.5557" lon="6.59113">
        <ele>1358.8000488281</ele>
        <time>2014-01-31T08:53:51.000Z</time>
      </trkpt>
      <trkpt lat="45.5557" lon="6.59114">
        <ele>1358.8000488281</ele>
        <time>2014-01-31T08:53:52.000Z</time>
      </trkpt>
      <trkpt lat="45.5557" lon="6.59114">
        <ele>1358.8000488281</ele>
        <time>2014-01-31T08:53:53.000Z</time>
      </trkpt>
      <trkpt lat="45.55572" lon="6.59118">
        <ele>1358.8000488281</ele>
        <time>2014-01-31T08:53:56.000Z</time>
      </trkpt>
      <trkpt lat="45.55573" lon="6.59119">
        <ele>1358.8000488281</ele>
        <time>2014-01-31T08:53:58.000Z</time>
      </trkpt>
      <trkpt lat="45.55573" lon="6.5912">
        <ele>1358.8000488281</ele>
        <time>2014-01-31T08:53:59.000Z</time>
      </trkpt>
      <trkpt lat="45.55574" lon="6.59121">
        <ele>1358.8000488281</ele>
        <time>2014-01-31T08:54:00.000Z</time>
      </trkpt>
      <trkpt lat="45.55574" lon="6.59122">
        <ele>1358.8000488281</ele>
        <time>2014-01-31T08:54:01.000Z</time>
      </trkpt>
      <trkpt lat="45.55574" lon="6.59123">
        <ele>1358.8000488281</ele>
        <time>2014-01-31T08:54:02.000Z</time>
      </trkpt>
      <trkpt lat="45.55574" lon="6.59124">
        <ele>1358.8000488281</ele>
        <time>2014-01-31T08:54:03.000Z</time>
      </trkpt>
      <trkpt lat="45.55574" lon="6.59125">
        <ele>1358.5999755859</ele>
        <time>2014-01-31T08:54:04.000Z</time>
      </trkpt>
      <trkpt lat="45.55574" lon="6.59127">
        <ele>1358.5999755859</ele>
        <time>2014-01-31T08:54:05.000Z</time>
      </trkpt>
      <trkpt lat="45.55574" lon="6.59128">
        <ele>1358.5999755859</ele>
        <time>2014-01-31T08:54:06.000Z</time>
      </trkpt>
      <trkpt lat="45.55574" lon="6.59128">
        <ele>1358.5999755859</ele>
        <time>2014-01-31T08:54:07.000Z</time>
      </trkpt>
      <trkpt lat="45.55573" lon="6.59129">
        <ele>1358.5999755859</ele>
        <time>2014-01-31T08:54:08.000Z</time>
      </trkpt>
      <trkpt lat="45.55573" lon="6.59129">
        <ele>1358.4000244141</ele>
        <time>2014-01-31T08:54:09.000Z</time>
      </trkpt>
      <trkpt lat="45.55573" lon="6.59129">
        <ele>1358.1999511719</ele>
        <time>2014-01-31T08:54:10.000Z</time>
      </trkpt>
      <trkpt lat="45.55573" lon="6.59129">
        <ele>1358.1999511719</ele>
        <time>2014-01-31T08:54:11.000Z</time>
      </trkpt>
      <trkpt lat="45.55573" lon="6.59129">
        <ele>1358.1999511719</ele>
        <time>2014-01-31T08:54:12.000Z</time>
      </trkpt>
      <trkpt lat="45.55573" lon="6.59129">
        <ele>1358</ele>
        <time>2014-01-31T08:54:13.000Z</time>
      </trkpt>
      <trkpt lat="45.55573" lon="6.59129">
        <ele>1357.8000488281</ele>
        <time>2014-01-31T08:54:14.000Z</time>
      </trkpt>
      <trkpt lat="45.55573" lon="6.59129">
        <ele>1357.8000488281</ele>
        <time>2014-01-31T08:54:15.000Z</time>
      </trkpt>
      <trkpt lat="45.55573" lon="6.59129">
        <ele>1357.5999755859</ele>
        <time>2014-01-31T08:54:16.000Z</time>
      </trkpt>
      <trkpt lat="45.55573" lon="6.59129">
        <ele>1357.5999755859</ele>
        <time>2014-01-31T08:54:17.000Z</time>
      </trkpt>
      <trkpt lat="45.55573" lon="6.59129">
        <ele>1357.5999755859</ele>
        <time>2014-01-31T08:54:18.000Z</time>
      </trkpt>
      <trkpt lat="45.55573" lon="6.59129">
        <ele>1357.5999755859</ele>
        <time>2014-01-31T08:54:19.000Z</time>
      </trkpt>
      <trkpt lat="45.55573" lon="6.59129">
        <ele>1357.4000244141</ele>
        <time>2014-01-31T08:54:20.000Z</time>
      </trkpt>
      <trkpt lat="45.55573" lon="6.59129">
        <ele>1357.4000244141</ele>
        <time>2014-01-31T08:54:21.000Z</time>
      </trkpt>
      <trkpt lat="45.55573" lon="6.59129">
        <ele>1357.4000244141</ele>
        <time>2014-01-31T08:54:22.000Z</time>
      </trkpt>
      <trkpt lat="45.55573" lon="6.59129">
        <ele>1357.1999511719</ele>
        <time>2014-01-31T08:54:23.000Z</time>
      </trkpt>
      <trkpt lat="45.55573" lon="6.59129">
        <ele>1357.1999511719</ele>
        <time>2014-01-31T08:54:24.000Z</time>
      </trkpt>
      <trkpt lat="45.55573" lon="6.59129">
        <ele>1357.1999511719</ele>
        <time>2014-01-31T08:54:25.000Z</time>
      </trkpt>
      <trkpt lat="45.55573" lon="6.59129">
        <ele>1357.1999511719</ele>
        <time>2014-01-31T08:54:26.000Z</time>
      </trkpt>
      <trkpt lat="45.55573" lon="6.59129">
        <ele>1357.1999511719</ele>
        <time>2014-01-31T08:54:28.000Z</time>
      </trkpt>
      <trkpt lat="45.55573" lon="6.59129">
        <ele>1357.1999511719</ele>
        <time>2014-01-31T08:54:29.000Z</time>
      </trkpt>
      <trkpt lat="45.55572" lon="6.59129">
        <ele>1357</ele>
        <time>2014-01-31T08:54:30.000Z</time>
      </trkpt>
      <trkpt lat="45.55571" lon="6.59131">
        <ele>1357</ele>
        <time>2014-01-31T08:54:31.000Z</time>
      </trkpt>
      <trkpt lat="45.5557" lon="6.59132">
        <ele>1357</ele>
        <time>2014-01-31T08:54:32.000Z</time>
      </trkpt>
      <trkpt lat="45.55569" lon="6.59132">
        <ele>1356.8000488281</ele>
        <time>2014-01-31T08:54:33.000Z</time>
      </trkpt>
      <trkpt lat="45.55569" lon="6.59133">
        <ele>1356.8000488281</ele>
        <time>2014-01-31T08:54:34.000Z</time>
      </trkpt>
      <trkpt lat="45.55568" lon="6.59134">
        <ele>1356.8000488281</ele>
        <time>2014-01-31T08:54:35.000Z</time>
      </trkpt>
      <trkpt lat="45.55567" lon="6.59136">
        <ele>1356.8000488281</ele>
        <time>2014-01-31T08:54:37.000Z</time>
      </trkpt>
      <trkpt lat="45.55567" lon="6.59137">
        <ele>1357</ele>
        <time>2014-01-31T08:54:38.000Z</time>
      </trkpt>
      <trkpt lat="45.55566" lon="6.59139">
        <ele>1357</ele>
        <time>2014-01-31T08:54:39.000Z</time>
      </trkpt>
      <trkpt lat="45.55566" lon="6.59139">
        <ele>1357</ele>
        <time>2014-01-31T08:54:40.000Z</time>
      </trkpt>
      <trkpt lat="45.55565" lon="6.59141">
        <ele>1357</ele>
        <time>2014-01-31T08:54:41.000Z</time>
      </trkpt>
      <trkpt lat="45.55564" lon="6.59142">
        <ele>1357</ele>
        <time>2014-01-31T08:54:42.000Z</time>
      </trkpt>
      <trkpt lat="45.55564" lon="6.59144">
        <ele>1356.8000488281</ele>
        <time>2014-01-31T08:54:43.000Z</time>
      </trkpt>
      <trkpt lat="45.55563" lon="6.59146">
        <ele>1356.5999755859</ele>
        <time>2014-01-31T08:54:44.000Z</time>
      </trkpt>
      <trkpt lat="45.55563" lon="6.59147">
        <ele>1356.5999755859</ele>
        <time>2014-01-31T08:54:45.000Z</time>
      </trkpt>
      <trkpt lat="45.55562" lon="6.59149">
        <ele>1356.4000244141</ele>
        <time>2014-01-31T08:54:46.000Z</time>
      </trkpt>
      <trkpt lat="45.55562" lon="6.5915">
        <ele>1356.4000244141</ele>
        <time>2014-01-31T08:54:47.000Z</time>
      </trkpt>
      <trkpt lat="45.55561" lon="6.5915">
        <ele>1356.4000244141</ele>
        <time>2014-01-31T08:54:48.000Z</time>
      </trkpt>
      <trkpt lat="45.55561" lon="6.59152">
        <ele>1356.1999511719</ele>
        <time>2014-01-31T08:54:49.000Z</time>
      </trkpt>
      <trkpt lat="45.5556" lon="6.59154">
        <ele>1356.1999511719</ele>
        <time>2014-01-31T08:54:50.000Z</time>
      </trkpt>
      <trkpt lat="45.55559" lon="6.59155">
        <ele>1356</ele>
        <time>2014-01-31T08:54:51.000Z</time>
      </trkpt>
      <trkpt lat="45.55558" lon="6.59157">
        <ele>1356</ele>
        <time>2014-01-31T08:54:52.000Z</time>
      </trkpt>
      <trkpt lat="45.55558" lon="6.59158">
        <ele>1356</ele>
        <time>2014-01-31T08:54:53.000Z</time>
      </trkpt>
      <trkpt lat="45.55558" lon="6.59159">
        <ele>1355.8000488281</ele>
        <time>2014-01-31T08:54:54.000Z</time>
      </trkpt>
      <trkpt lat="45.55558" lon="6.5916">
        <ele>1355.8000488281</ele>
        <time>2014-01-31T08:54:55.000Z</time>
      </trkpt>
      <trkpt lat="45.55558" lon="6.59161">
        <ele>1355.5999755859</ele>
        <time>2014-01-31T08:54:56.000Z</time>
      </trkpt>
      <trkpt lat="45.55558" lon="6.59163">
        <ele>1355.4000244141</ele>
        <time>2014-01-31T08:54:57.000Z</time>
      </trkpt>
      <trkpt lat="45.55557" lon="6.59166">
        <ele>1355.1999511719</ele>
        <time>2014-01-31T08:54:59.000Z</time>
      </trkpt>
      <trkpt lat="45.55557" lon="6.59166">
        <ele>1355.1999511719</ele>
        <time>2014-01-31T08:55:00.000Z</time>
      </trkpt>
      <trkpt lat="45.55557" lon="6.59166">
        <ele>1355.1999511719</ele>
        <time>2014-01-31T08:55:01.000Z</time>
      </trkpt>
      <trkpt lat="45.55557" lon="6.59166">
        <ele>1355.1999511719</ele>
        <time>2014-01-31T08:55:02.000Z</time>
      </trkpt>
      <trkpt lat="45.55557" lon="6.59166">
        <ele>1355.1999511719</ele>
        <time>2014-01-31T08:55:03.000Z</time>
      </trkpt>
      <trkpt lat="45.55557" lon="6.59166">
        <ele>1355.1999511719</ele>
        <time>2014-01-31T08:55:04.000Z</time>
      </trkpt>
      <trkpt lat="45.55557" lon="6.59166">
        <ele>1355.1999511719</ele>
        <time>2014-01-31T08:55:05.000Z</time>
      </trkpt>
      <trkpt lat="45.55557" lon="6.59166">
        <ele>1355.1999511719</ele>
        <time>2014-01-31T08:55:06.000Z</time>
      </trkpt>
      <trkpt lat="45.55557" lon="6.59166">
        <ele>1355.1999511719</ele>
        <time>2014-01-31T08:55:07.000Z</time>
      </trkpt>
      <trkpt lat="45.55557" lon="6.59166">
        <ele>1355.1999511719</ele>
        <time>2014-01-31T08:55:08.000Z</time>
      </trkpt>
      <trkpt lat="45.55557" lon="6.59166">
        <ele>1355.4000244141</ele>
        <time>2014-01-31T08:55:09.000Z</time>
      </trkpt>
      <trkpt lat="45.55557" lon="6.59166">
        <ele>1355.4000244141</ele>
        <time>2014-01-31T08:55:10.000Z</time>
      </trkpt>
      <trkpt lat="45.55557" lon="6.59166">
        <ele>1355.4000244141</ele>
        <time>2014-01-31T08:55:11.000Z</time>
      </trkpt>
      <trkpt lat="45.55557" lon="6.59166">
        <ele>1355.4000244141</ele>
        <time>2014-01-31T08:55:12.000Z</time>
      </trkpt>
      <trkpt lat="45.55557" lon="6.59166">
        <ele>1355.4000244141</ele>
        <time>2014-01-31T08:55:13.000Z</time>
      </trkpt>
      <trkpt lat="45.55557" lon="6.59166">
        <ele>1355.4000244141</ele>
        <time>2014-01-31T08:55:14.000Z</time>
      </trkpt>
      <trkpt lat="45.55557" lon="6.59168">
        <ele>1355.4000244141</ele>
        <time>2014-01-31T08:55:15.000Z</time>
      </trkpt>
      <trkpt lat="45.55556" lon="6.59169">
        <ele>1355.4000244141</ele>
        <time>2014-01-31T08:55:16.000Z</time>
      </trkpt>
      <trkpt lat="45.55556" lon="6.59171">
        <ele>1355.4000244141</ele>
        <time>2014-01-31T08:55:17.000Z</time>
      </trkpt>
      <trkpt lat="45.55556" lon="6.59173">
        <ele>1355.4000244141</ele>
        <time>2014-01-31T08:55:18.000Z</time>
      </trkpt>
      <trkpt lat="45.55555" lon="6.59174">
        <ele>1355.4000244141</ele>
        <time>2014-01-31T08:55:19.000Z</time>
      </trkpt>
      <trkpt lat="45.55555" lon="6.59175">
        <ele>1355.4000244141</ele>
        <time>2014-01-31T08:55:20.000Z</time>
      </trkpt>
      <trkpt lat="45.55554" lon="6.59176">
        <ele>1355.4000244141</ele>
        <time>2014-01-31T08:55:21.000Z</time>
      </trkpt>
      <trkpt lat="45.55553" lon="6.59177">
        <ele>1355.1999511719</ele>
        <time>2014-01-31T08:55:22.000Z</time>
      </trkpt>
      <trkpt lat="45.55553" lon="6.59179">
        <ele>1355.1999511719</ele>
        <time>2014-01-31T08:55:23.000Z</time>
      </trkpt>
      <trkpt lat="45.55551" lon="6.59182">
        <ele>1355</ele>
        <time>2014-01-31T08:55:25.000Z</time>
      </trkpt>
      <trkpt lat="45.55551" lon="6.59183">
        <ele>1355</ele>
        <time>2014-01-31T08:55:26.000Z</time>
      </trkpt>
      <trkpt lat="45.55551" lon="6.59184">
        <ele>1354.8000488281</ele>
        <time>2014-01-31T08:55:27.000Z</time>
      </trkpt>
      <trkpt lat="45.5555" lon="6.59185">
        <ele>1354.5999755859</ele>
        <time>2014-01-31T08:55:28.000Z</time>
      </trkpt>
      <trkpt lat="45.5555" lon="6.59185">
        <ele>1354.5999755859</ele>
        <time>2014-01-31T08:55:29.000Z</time>
      </trkpt>
      <trkpt lat="45.5555" lon="6.59186">
        <ele>1354.5999755859</ele>
        <time>2014-01-31T08:55:30.000Z</time>
      </trkpt>
      <trkpt lat="45.5555" lon="6.59186">
        <ele>1354.5999755859</ele>
        <time>2014-01-31T08:55:31.000Z</time>
      </trkpt>
      <trkpt lat="45.55549" lon="6.59186">
        <ele>1354.5999755859</ele>
        <time>2014-01-31T08:55:32.000Z</time>
      </trkpt>
      <trkpt lat="45.55549" lon="6.59188">
        <ele>1354.5999755859</ele>
        <time>2014-01-31T08:55:33.000Z</time>
      </trkpt>
      <trkpt lat="45.55549" lon="6.5919">
        <ele>1354.8000488281</ele>
        <time>2014-01-31T08:55:34.000Z</time>
      </trkpt>
      <trkpt lat="45.55549" lon="6.59193">
        <ele>1354.8000488281</ele>
        <time>2014-01-31T08:55:35.000Z</time>
      </trkpt>
      <trkpt lat="45.55549" lon="6.59194">
        <ele>1354.8000488281</ele>
        <time>2014-01-31T08:55:36.000Z</time>
      </trkpt>
      <trkpt lat="45.55549" lon="6.59195">
        <ele>1354.5999755859</ele>
        <time>2014-01-31T08:55:37.000Z</time>
      </trkpt>
      <trkpt lat="45.55549" lon="6.59198">
        <ele>1354.5999755859</ele>
        <time>2014-01-31T08:55:38.000Z</time>
      </trkpt>
      <trkpt lat="45.55549" lon="6.592">
        <ele>1354.4000244141</ele>
        <time>2014-01-31T08:55:39.000Z</time>
      </trkpt>
      <trkpt lat="45.55548" lon="6.59202">
        <ele>1354.4000244141</ele>
        <time>2014-01-31T08:55:40.000Z</time>
      </trkpt>
      <trkpt lat="45.55548" lon="6.59202">
        <ele>1354.4000244141</ele>
        <time>2014-01-31T08:55:41.000Z</time>
      </trkpt>
      <trkpt lat="45.55548" lon="6.59204">
        <ele>1354.4000244141</ele>
        <time>2014-01-31T08:55:42.000Z</time>
      </trkpt>
      <trkpt lat="45.55547" lon="6.59205">
        <ele>1354.1999511719</ele>
        <time>2014-01-31T08:55:43.000Z</time>
      </trkpt>
      <trkpt lat="45.55547" lon="6.59206">
        <ele>1354.1999511719</ele>
        <time>2014-01-31T08:55:44.000Z</time>
      </trkpt>
      <trkpt lat="45.55547" lon="6.59206">
        <ele>1354</ele>
        <time>2014-01-31T08:55:45.000Z</time>
      </trkpt>
      <trkpt lat="45.55547" lon="6.59207">
        <ele>1354</ele>
        <time>2014-01-31T08:55:46.000Z</time>
      </trkpt>
      <trkpt lat="45.55547" lon="6.59208">
        <ele>1353.8000488281</ele>
        <time>2014-01-31T08:55:47.000Z</time>
      </trkpt>
      <trkpt lat="45.55547" lon="6.5921">
        <ele>1353.8000488281</ele>
        <time>2014-01-31T08:55:48.000Z</time>
      </trkpt>
      <trkpt lat="45.55547" lon="6.59212">
        <ele>1353.8000488281</ele>
        <time>2014-01-31T08:55:49.000Z</time>
      </trkpt>
      <trkpt lat="45.55547" lon="6.59213">
        <ele>1353.5999755859</ele>
        <time>2014-01-31T08:55:50.000Z</time>
      </trkpt>
      <trkpt lat="45.55547" lon="6.59215">
        <ele>1353.5999755859</ele>
        <time>2014-01-31T08:55:51.000Z</time>
      </trkpt>
      <trkpt lat="45.55547" lon="6.59217">
        <ele>1353.5999755859</ele>
        <time>2014-01-31T08:55:52.000Z</time>
      </trkpt>
      <trkpt lat="45.55547" lon="6.59219">
        <ele>1353.4000244141</ele>
        <time>2014-01-31T08:55:53.000Z</time>
      </trkpt>
      <trkpt lat="45.55547" lon="6.5922">
        <ele>1353.1999511719</ele>
        <time>2014-01-31T08:55:54.000Z</time>
      </trkpt>
      <trkpt lat="45.55547" lon="6.59221">
        <ele>1353</ele>
        <time>2014-01-31T08:55:55.000Z</time>
      </trkpt>
      <trkpt lat="45.55547" lon="6.59222">
        <ele>1352.8000488281</ele>
        <time>2014-01-31T08:55:56.000Z</time>
      </trkpt>
      <trkpt lat="45.55547" lon="6.59222">
        <ele>1352.5999755859</ele>
        <time>2014-01-31T08:55:57.000Z</time>
      </trkpt>
      <trkpt lat="45.55547" lon="6.59222">
        <ele>1352.5999755859</ele>
        <time>2014-01-31T08:55:58.000Z</time>
      </trkpt>
      <trkpt lat="45.55548" lon="6.59222">
        <ele>1352.5999755859</ele>
        <time>2014-01-31T08:55:59.000Z</time>
      </trkpt>
      <trkpt lat="45.55549" lon="6.59223">
        <ele>1352.8000488281</ele>
        <time>2014-01-31T08:56:00.000Z</time>
      </trkpt>
      <trkpt lat="45.5555" lon="6.59225">
        <ele>1352.8000488281</ele>
        <time>2014-01-31T08:56:01.000Z</time>
      </trkpt>
      <trkpt lat="45.55551" lon="6.59225">
        <ele>1353</ele>
        <time>2014-01-31T08:56:02.000Z</time>
      </trkpt>
      <trkpt lat="45.55551" lon="6.59226">
        <ele>1353</ele>
        <time>2014-01-31T08:56:03.000Z</time>
      </trkpt>
      <trkpt lat="45.55551" lon="6.59226">
        <ele>1353</ele>
        <time>2014-01-31T08:56:05.000Z</time>
      </trkpt>
      <trkpt lat="45.55551" lon="6.59226">
        <ele>1353</ele>
        <time>2014-01-31T08:56:07.000Z</time>
      </trkpt>
      <trkpt lat="45.55551" lon="6.59226">
        <ele>1353</ele>
        <time>2014-01-31T08:56:08.000Z</time>
      </trkpt>
      <trkpt lat="45.55551" lon="6.59226">
        <ele>1352.8000488281</ele>
        <time>2014-01-31T08:56:09.000Z</time>
      </trkpt>
      <trkpt lat="45.55551" lon="6.59226">
        <ele>1352.8000488281</ele>
        <time>2014-01-31T08:56:10.000Z</time>
      </trkpt>
      <trkpt lat="45.55551" lon="6.59226">
        <ele>1352.5999755859</ele>
        <time>2014-01-31T08:56:11.000Z</time>
      </trkpt>
      <trkpt lat="45.55551" lon="6.59226">
        <ele>1352.5999755859</ele>
        <time>2014-01-31T08:56:12.000Z</time>
      </trkpt>
      <trkpt lat="45.55551" lon="6.59226">
        <ele>1352.5999755859</ele>
        <time>2014-01-31T08:56:14.000Z</time>
      </trkpt>
      <trkpt lat="45.55551" lon="6.59227">
        <ele>1352.8000488281</ele>
        <time>2014-01-31T08:56:15.000Z</time>
      </trkpt>
      <trkpt lat="45.55552" lon="6.59228">
        <ele>1352.8000488281</ele>
        <time>2014-01-31T08:56:16.000Z</time>
      </trkpt>
      <trkpt lat="45.55552" lon="6.59229">
        <ele>1352.8000488281</ele>
        <time>2014-01-31T08:56:17.000Z</time>
      </trkpt>
      <trkpt lat="45.55552" lon="6.5923">
        <ele>1352.5999755859</ele>
        <time>2014-01-31T08:56:18.000Z</time>
      </trkpt>
      <trkpt lat="45.55552" lon="6.59231">
        <ele>1352.5999755859</ele>
        <time>2014-01-31T08:56:19.000Z</time>
      </trkpt>
      <trkpt lat="45.55552" lon="6.59232">
        <ele>1352.4000244141</ele>
        <time>2014-01-31T08:56:20.000Z</time>
      </trkpt>
      <trkpt lat="45.55552" lon="6.59233">
        <ele>1352.1999511719</ele>
        <time>2014-01-31T08:56:21.000Z</time>
      </trkpt>
      <trkpt lat="45.55552" lon="6.59234">
        <ele>1352.1999511719</ele>
        <time>2014-01-31T08:56:22.000Z</time>
      </trkpt>
      <trkpt lat="45.55552" lon="6.59235">
        <ele>1352</ele>
        <time>2014-01-31T08:56:23.000Z</time>
      </trkpt>
      <trkpt lat="45.55552" lon="6.59235">
        <ele>1352</ele>
        <time>2014-01-31T08:56:24.000Z</time>
      </trkpt>
      <trkpt lat="45.55552" lon="6.59235">
        <ele>1352</ele>
        <time>2014-01-31T08:56:25.000Z</time>
      </trkpt>
      <trkpt lat="45.55552" lon="6.59235">
        <ele>1351.8000488281</ele>
        <time>2014-01-31T08:56:26.000Z</time>
      </trkpt>
      <trkpt lat="45.55552" lon="6.59235">
        <ele>1351.8000488281</ele>
        <time>2014-01-31T08:56:27.000Z</time>
      </trkpt>
      <trkpt lat="45.55552" lon="6.59235">
        <ele>1351.8000488281</ele>
        <time>2014-01-31T08:56:28.000Z</time>
      </trkpt>
      <trkpt lat="45.55552" lon="6.59235">
        <ele>1351.5999755859</ele>
        <time>2014-01-31T08:56:29.000Z</time>
      </trkpt>
      <trkpt lat="45.55552" lon="6.59236">
        <ele>1351.5999755859</ele>
        <time>2014-01-31T08:56:30.000Z</time>
      </trkpt>
      <trkpt lat="45.55552" lon="6.59238">
        <ele>1351.4000244141</ele>
        <time>2014-01-31T08:56:31.000Z</time>
      </trkpt>
      <trkpt lat="45.55552" lon="6.59239">
        <ele>1351.1999511719</ele>
        <time>2014-01-31T08:56:32.000Z</time>
      </trkpt>
      <trkpt lat="45.55552" lon="6.5924">
        <ele>1350.8000488281</ele>
        <time>2014-01-31T08:56:33.000Z</time>
      </trkpt>
      <trkpt lat="45.55552" lon="6.59241">
        <ele>1350.5999755859</ele>
        <time>2014-01-31T08:56:34.000Z</time>
      </trkpt>
      <trkpt lat="45.55552" lon="6.59242">
        <ele>1349.8000488281</ele>
        <time>2014-01-31T08:56:35.000Z</time>
      </trkpt>
      <trkpt lat="45.55552" lon="6.59242">
        <ele>1349.5999755859</ele>
        <time>2014-01-31T08:56:36.000Z</time>
      </trkpt>
      <trkpt lat="45.55552" lon="6.59242">
        <ele>1349.4000244141</ele>
        <time>2014-01-31T08:56:37.000Z</time>
      </trkpt>
      <trkpt lat="45.55552" lon="6.59243">
        <ele>1349.1999511719</ele>
        <time>2014-01-31T08:56:38.000Z</time>
      </trkpt>
      <trkpt lat="45.55552" lon="6.59244">
        <ele>1349.1999511719</ele>
        <time>2014-01-31T08:56:39.000Z</time>
      </trkpt>
      <trkpt lat="45.55552" lon="6.59245">
        <ele>1349</ele>
        <time>2014-01-31T08:56:40.000Z</time>
      </trkpt>
      <trkpt lat="45.55552" lon="6.59246">
        <ele>1349</ele>
        <time>2014-01-31T08:56:41.000Z</time>
      </trkpt>
      <trkpt lat="45.55551" lon="6.59247">
        <ele>1349</ele>
        <time>2014-01-31T08:56:42.000Z</time>
      </trkpt>
      <trkpt lat="45.55551" lon="6.5925">
        <ele>1349</ele>
        <time>2014-01-31T08:56:43.000Z</time>
      </trkpt>
      <trkpt lat="45.55551" lon="6.59251">
        <ele>1349</ele>
        <time>2014-01-31T08:56:44.000Z</time>
      </trkpt>
      <trkpt lat="45.55551" lon="6.59253">
        <ele>1348.8000488281</ele>
        <time>2014-01-31T08:56:45.000Z</time>
      </trkpt>
      <trkpt lat="45.55551" lon="6.59255">
        <ele>1348.8000488281</ele>
        <time>2014-01-31T08:56:46.000Z</time>
      </trkpt>
      <trkpt lat="45.55551" lon="6.59255">
        <ele>1348.5999755859</ele>
        <time>2014-01-31T08:56:47.000Z</time>
      </trkpt>
      <trkpt lat="45.55552" lon="6.59258">
        <ele>1348.4000244141</ele>
        <time>2014-01-31T08:56:48.000Z</time>
      </trkpt>
      <trkpt lat="45.55552" lon="6.5926">
        <ele>1348.4000244141</ele>
        <time>2014-01-31T08:56:49.000Z</time>
      </trkpt>
      <trkpt lat="45.55552" lon="6.5926">
        <ele>1348.5999755859</ele>
        <time>2014-01-31T08:56:50.000Z</time>
      </trkpt>
      <trkpt lat="45.55553" lon="6.59261">
        <ele>1348.5999755859</ele>
        <time>2014-01-31T08:56:51.000Z</time>
      </trkpt>
      <trkpt lat="45.55553" lon="6.59264">
        <ele>1348.5999755859</ele>
        <time>2014-01-31T08:56:52.000Z</time>
      </trkpt>
      <trkpt lat="45.55554" lon="6.59265">
        <ele>1348.8000488281</ele>
        <time>2014-01-31T08:56:53.000Z</time>
      </trkpt>
      <trkpt lat="45.55555" lon="6.59267">
        <ele>1349</ele>
        <time>2014-01-31T08:56:54.000Z</time>
      </trkpt>
      <trkpt lat="45.55555" lon="6.59269">
        <ele>1349.1999511719</ele>
        <time>2014-01-31T08:56:55.000Z</time>
      </trkpt>
      <trkpt lat="45.55556" lon="6.59271">
        <ele>1349.4000244141</ele>
        <time>2014-01-31T08:56:56.000Z</time>
      </trkpt>
      <trkpt lat="45.55557" lon="6.59271">
        <ele>1349.5999755859</ele>
        <time>2014-01-31T08:56:57.000Z</time>
      </trkpt>
      <trkpt lat="45.55558" lon="6.59273">
        <ele>1349.8000488281</ele>
        <time>2014-01-31T08:56:58.000Z</time>
      </trkpt>
      <trkpt lat="45.55559" lon="6.59275">
        <ele>1350</ele>
        <time>2014-01-31T08:56:59.000Z</time>
      </trkpt>
      <trkpt lat="45.55559" lon="6.59275">
        <ele>1350.1999511719</ele>
        <time>2014-01-31T08:57:00.000Z</time>
      </trkpt>
      <trkpt lat="45.5556" lon="6.59277">
        <ele>1350.1999511719</ele>
        <time>2014-01-31T08:57:01.000Z</time>
      </trkpt>
      <trkpt lat="45.55561" lon="6.59279">
        <ele>1350.4000244141</ele>
        <time>2014-01-31T08:57:02.000Z</time>
      </trkpt>
      <trkpt lat="45.55562" lon="6.59281">
        <ele>1350.5999755859</ele>
        <time>2014-01-31T08:57:03.000Z</time>
      </trkpt>
      <trkpt lat="45.55563" lon="6.59283">
        <ele>1350.5999755859</ele>
        <time>2014-01-31T08:57:04.000Z</time>
      </trkpt>
      <trkpt lat="45.55563" lon="6.59284">
        <ele>1350.8000488281</ele>
        <time>2014-01-31T08:57:05.000Z</time>
      </trkpt>
      <trkpt lat="45.55564" lon="6.59285">
        <ele>1350.8000488281</ele>
        <time>2014-01-31T08:57:06.000Z</time>
      </trkpt>
      <trkpt lat="45.55564" lon="6.59286">
        <ele>1351</ele>
        <time>2014-01-31T08:57:07.000Z</time>
      </trkpt>
      <trkpt lat="45.55565" lon="6.59287">
        <ele>1351.1999511719</ele>
        <time>2014-01-31T08:57:08.000Z</time>
      </trkpt>
      <trkpt lat="45.55565" lon="6.59288">
        <ele>1351.1999511719</ele>
        <time>2014-01-31T08:57:09.000Z</time>
      </trkpt>
      <trkpt lat="45.55566" lon="6.59289">
        <ele>1351.1999511719</ele>
        <time>2014-01-31T08:57:10.000Z</time>
      </trkpt>
      <trkpt lat="45.55567" lon="6.5929">
        <ele>1351.1999511719</ele>
        <time>2014-01-31T08:57:11.000Z</time>
      </trkpt>
      <trkpt lat="45.55568" lon="6.5929">
        <ele>1351.5999755859</ele>
        <time>2014-01-31T08:57:12.000Z</time>
      </trkpt>
      <trkpt lat="45.55569" lon="6.59291">
        <ele>1351.8000488281</ele>
        <time>2014-01-31T08:57:13.000Z</time>
      </trkpt>
      <trkpt lat="45.5557" lon="6.59292">
        <ele>1352</ele>
        <time>2014-01-31T08:57:14.000Z</time>
      </trkpt>
      <trkpt lat="45.55571" lon="6.59292">
        <ele>1352</ele>
        <time>2014-01-31T08:57:15.000Z</time>
      </trkpt>
      <trkpt lat="45.55572" lon="6.59292">
        <ele>1352.1999511719</ele>
        <time>2014-01-31T08:57:16.000Z</time>
      </trkpt>
      <trkpt lat="45.55572" lon="6.59293">
        <ele>1352.4000244141</ele>
        <time>2014-01-31T08:57:17.000Z</time>
      </trkpt>
      <trkpt lat="45.55573" lon="6.59294">
        <ele>1352.4000244141</ele>
        <time>2014-01-31T08:57:18.000Z</time>
      </trkpt>
      <trkpt lat="45.55574" lon="6.59295">
        <ele>1352.5999755859</ele>
        <time>2014-01-31T08:57:19.000Z</time>
      </trkpt>
      <trkpt lat="45.55575" lon="6.59295">
        <ele>1352.8000488281</ele>
        <time>2014-01-31T08:57:20.000Z</time>
      </trkpt>
      <trkpt lat="45.55576" lon="6.59296">
        <ele>1353</ele>
        <time>2014-01-31T08:57:21.000Z</time>
      </trkpt>
      <trkpt lat="45.55576" lon="6.59296">
        <ele>1353.4000244141</ele>
        <time>2014-01-31T08:57:22.000Z</time>
      </trkpt>
      <trkpt lat="45.55577" lon="6.59297">
        <ele>1353.4000244141</ele>
        <time>2014-01-31T08:57:23.000Z</time>
      </trkpt>
      <trkpt lat="45.55578" lon="6.59297">
        <ele>1353.8000488281</ele>
        <time>2014-01-31T08:57:24.000Z</time>
      </trkpt>
      <trkpt lat="45.55579" lon="6.59298">
        <ele>1354</ele>
        <time>2014-01-31T08:57:25.000Z</time>
      </trkpt>
      <trkpt lat="45.55579" lon="6.59299">
        <ele>1354.1999511719</ele>
        <time>2014-01-31T08:57:26.000Z</time>
      </trkpt>
      <trkpt lat="45.5558" lon="6.593">
        <ele>1354.4000244141</ele>
        <time>2014-01-31T08:57:27.000Z</time>
      </trkpt>
      <trkpt lat="45.55582" lon="6.59301">
        <ele>1354.5999755859</ele>
        <time>2014-01-31T08:57:28.000Z</time>
      </trkpt>
      <trkpt lat="45.55584" lon="6.59301">
        <ele>1354.8000488281</ele>
        <time>2014-01-31T08:57:29.000Z</time>
      </trkpt>
      <trkpt lat="45.55584" lon="6.59303">
        <ele>1355</ele>
        <time>2014-01-31T08:57:30.000Z</time>
      </trkpt>
      <trkpt lat="45.55586" lon="6.59303">
        <ele>1355.1999511719</ele>
        <time>2014-01-31T08:57:31.000Z</time>
      </trkpt>
      <trkpt lat="45.55586" lon="6.59304">
        <ele>1355.4000244141</ele>
        <time>2014-01-31T08:57:32.000Z</time>
      </trkpt>
      <trkpt lat="45.55587" lon="6.59305">
        <ele>1355.5999755859</ele>
        <time>2014-01-31T08:57:33.000Z</time>
      </trkpt>
      <trkpt lat="45.55588" lon="6.59305">
        <ele>1355.5999755859</ele>
        <time>2014-01-31T08:57:34.000Z</time>
      </trkpt>
      <trkpt lat="45.55589" lon="6.59306">
        <ele>1355.8000488281</ele>
        <time>2014-01-31T08:57:35.000Z</time>
      </trkpt>
      <trkpt lat="45.5559" lon="6.59307">
        <ele>1356</ele>
        <time>2014-01-31T08:57:36.000Z</time>
      </trkpt>
      <trkpt lat="45.5559" lon="6.59308">
        <ele>1356.1999511719</ele>
        <time>2014-01-31T08:57:37.000Z</time>
      </trkpt>
      <trkpt lat="45.55591" lon="6.59309">
        <ele>1356.4000244141</ele>
        <time>2014-01-31T08:57:38.000Z</time>
      </trkpt>
      <trkpt lat="45.55592" lon="6.5931">
        <ele>1356.5999755859</ele>
        <time>2014-01-31T08:57:39.000Z</time>
      </trkpt>
      <trkpt lat="45.55593" lon="6.59311">
        <ele>1356.8000488281</ele>
        <time>2014-01-31T08:57:40.000Z</time>
      </trkpt>
      <trkpt lat="45.55594" lon="6.59311">
        <ele>1357.1999511719</ele>
        <time>2014-01-31T08:57:41.000Z</time>
      </trkpt>
      <trkpt lat="45.55594" lon="6.59312">
        <ele>1357.1999511719</ele>
        <time>2014-01-31T08:57:42.000Z</time>
      </trkpt>
      <trkpt lat="45.55595" lon="6.59314">
        <ele>1357.4000244141</ele>
        <time>2014-01-31T08:57:43.000Z</time>
      </trkpt>
      <trkpt lat="45.55596" lon="6.59315">
        <ele>1357.4000244141</ele>
        <time>2014-01-31T08:57:44.000Z</time>
      </trkpt>
      <trkpt lat="45.55596" lon="6.59317">
        <ele>1357.4000244141</ele>
        <time>2014-01-31T08:57:45.000Z</time>
      </trkpt>
      <trkpt lat="45.55596" lon="6.59319">
        <ele>1357.4000244141</ele>
        <time>2014-01-31T08:57:46.000Z</time>
      </trkpt>
      <trkpt lat="45.55596" lon="6.5932">
        <ele>1357.4000244141</ele>
        <time>2014-01-31T08:57:47.000Z</time>
      </trkpt>
      <trkpt lat="45.55596" lon="6.59321">
        <ele>1357.4000244141</ele>
        <time>2014-01-31T08:57:48.000Z</time>
      </trkpt>
      <trkpt lat="45.55597" lon="6.59323">
        <ele>1357.4000244141</ele>
        <time>2014-01-31T08:57:49.000Z</time>
      </trkpt>
      <trkpt lat="45.55597" lon="6.59325">
        <ele>1357.4000244141</ele>
        <time>2014-01-31T08:57:50.000Z</time>
      </trkpt>
      <trkpt lat="45.55597" lon="6.59326">
        <ele>1357.4000244141</ele>
        <time>2014-01-31T08:57:51.000Z</time>
      </trkpt>
      <trkpt lat="45.55597" lon="6.59327">
        <ele>1357.4000244141</ele>
        <time>2014-01-31T08:57:52.000Z</time>
      </trkpt>
      <trkpt lat="45.55598" lon="6.59328">
        <ele>1357.5999755859</ele>
        <time>2014-01-31T08:57:53.000Z</time>
      </trkpt>
      <trkpt lat="45.55599" lon="6.59329">
        <ele>1357.5999755859</ele>
        <time>2014-01-31T08:57:54.000Z</time>
      </trkpt>
      <trkpt lat="45.556" lon="6.59329">
        <ele>1357.8000488281</ele>
        <time>2014-01-31T08:57:55.000Z</time>
      </trkpt>
      <trkpt lat="45.55601" lon="6.59329">
        <ele>1358</ele>
        <time>2014-01-31T08:57:56.000Z</time>
      </trkpt>
      <trkpt lat="45.55601" lon="6.59328">
        <ele>1358.1999511719</ele>
        <time>2014-01-31T08:57:57.000Z</time>
      </trkpt>
      <trkpt lat="45.55602" lon="6.59327">
        <ele>1358.5999755859</ele>
        <time>2014-01-31T08:57:58.000Z</time>
      </trkpt>
      <trkpt lat="45.55603" lon="6.59325">
        <ele>1358.8000488281</ele>
        <time>2014-01-31T08:57:59.000Z</time>
      </trkpt>
      <trkpt lat="45.55604" lon="6.59324">
        <ele>1359.1999511719</ele>
        <time>2014-01-31T08:58:00.000Z</time>
      </trkpt>
      <trkpt lat="45.55605" lon="6.59323">
        <ele>1359.4000244141</ele>
        <time>2014-01-31T08:58:01.000Z</time>
      </trkpt>
      <trkpt lat="45.55605" lon="6.59321">
        <ele>1359.5999755859</ele>
        <time>2014-01-31T08:58:02.000Z</time>
      </trkpt>
      <trkpt lat="45.55606" lon="6.59319">
        <ele>1359.8000488281</ele>
        <time>2014-01-31T08:58:03.000Z</time>
      </trkpt>
      <trkpt lat="45.55607" lon="6.59318">
        <ele>1359.8000488281</ele>
        <time>2014-01-31T08:58:04.000Z</time>
      </trkpt>
      <trkpt lat="45.55608" lon="6.59316">
        <ele>1360</ele>
        <time>2014-01-31T08:58:05.000Z</time>
      </trkpt>
      <trkpt lat="45.55609" lon="6.59315">
        <ele>1360.1999511719</ele>
        <time>2014-01-31T08:58:06.000Z</time>
      </trkpt>
      <trkpt lat="45.5561" lon="6.59314">
        <ele>1360.1999511719</ele>
        <time>2014-01-31T08:58:07.000Z</time>
      </trkpt>
      <trkpt lat="45.55611" lon="6.59313">
        <ele>1360.1999511719</ele>
        <time>2014-01-31T08:58:08.000Z</time>
      </trkpt>
      <trkpt lat="45.55611" lon="6.59312">
        <ele>1360.4000244141</ele>
        <time>2014-01-31T08:58:09.000Z</time>
      </trkpt>
      <trkpt lat="45.55611" lon="6.59311">
        <ele>1360.5999755859</ele>
        <time>2014-01-31T08:58:10.000Z</time>
      </trkpt>
      <trkpt lat="45.5561" lon="6.5931">
        <ele>1361.1999511719</ele>
        <time>2014-01-31T08:58:11.000Z</time>
      </trkpt>
      <trkpt lat="45.5561" lon="6.5931">
        <ele>1361.4000244141</ele>
        <time>2014-01-31T08:58:12.000Z</time>
      </trkpt>
      <trkpt lat="45.55609" lon="6.5931">
        <ele>1361.8000488281</ele>
        <time>2014-01-31T08:58:13.000Z</time>
      </trkpt>
      <trkpt lat="45.55609" lon="6.5931">
        <ele>1362</ele>
        <time>2014-01-31T08:58:14.000Z</time>
      </trkpt>
      <trkpt lat="45.55609" lon="6.5931">
        <ele>1362.1999511719</ele>
        <time>2014-01-31T08:58:15.000Z</time>
      </trkpt>
      <trkpt lat="45.55608" lon="6.59309">
        <ele>1362.4000244141</ele>
        <time>2014-01-31T08:58:16.000Z</time>
      </trkpt>
      <trkpt lat="45.55608" lon="6.59309">
        <ele>1362.4000244141</ele>
        <time>2014-01-31T08:58:17.000Z</time>
      </trkpt>
      <trkpt lat="45.55608" lon="6.59309">
        <ele>1362.5999755859</ele>
        <time>2014-01-31T08:58:18.000Z</time>
      </trkpt>
      <trkpt lat="45.55608" lon="6.59309">
        <ele>1362.8000488281</ele>
        <time>2014-01-31T08:58:19.000Z</time>
      </trkpt>
      <trkpt lat="45.55608" lon="6.59309">
        <ele>1363</ele>
        <time>2014-01-31T08:58:20.000Z</time>
      </trkpt>
      <trkpt lat="45.55606" lon="6.59307">
        <ele>1363.4000244141</ele>
        <time>2014-01-31T08:58:21.000Z</time>
      </trkpt>
      <trkpt lat="45.55606" lon="6.59307">
        <ele>1363.5999755859</ele>
        <time>2014-01-31T08:58:22.000Z</time>
      </trkpt>
      <trkpt lat="45.55604" lon="6.59306">
        <ele>1363.8000488281</ele>
        <time>2014-01-31T08:58:23.000Z</time>
      </trkpt>
      <trkpt lat="45.55601" lon="6.59304">
        <ele>1364</ele>
        <time>2014-01-31T08:58:24.000Z</time>
      </trkpt>
      <trkpt lat="45.55601" lon="6.59302">
        <ele>1364</ele>
        <time>2014-01-31T08:58:25.000Z</time>
      </trkpt>
      <trkpt lat="45.556" lon="6.59301">
        <ele>1364.1999511719</ele>
        <time>2014-01-31T08:58:26.000Z</time>
      </trkpt>
      <trkpt lat="45.55599" lon="6.593">
        <ele>1364.1999511719</ele>
        <time>2014-01-31T08:58:27.000Z</time>
      </trkpt>
      <trkpt lat="45.55599" lon="6.593">
        <ele>1364.1999511719</ele>
        <time>2014-01-31T08:58:28.000Z</time>
      </trkpt>
      <trkpt lat="45.55599" lon="6.593">
        <ele>1364.4000244141</ele>
        <time>2014-01-31T08:58:29.000Z</time>
      </trkpt>
      <trkpt lat="45.55599" lon="6.593">
        <ele>1364.4000244141</ele>
        <time>2014-01-31T08:58:30.000Z</time>
      </trkpt>
      <trkpt lat="45.55599" lon="6.593">
        <ele>1364.4000244141</ele>
        <time>2014-01-31T08:58:31.000Z</time>
      </trkpt>
      <trkpt lat="45.55599" lon="6.593">
        <ele>1364.4000244141</ele>
        <time>2014-01-31T08:58:32.000Z</time>
      </trkpt>
      <trkpt lat="45.55599" lon="6.593">
        <ele>1364.5999755859</ele>
        <time>2014-01-31T08:58:33.000Z</time>
      </trkpt>
      <trkpt lat="45.55599" lon="6.59299">
        <ele>1364.8000488281</ele>
        <time>2014-01-31T08:58:34.000Z</time>
      </trkpt>
      <trkpt lat="45.55599" lon="6.59297">
        <ele>1365</ele>
        <time>2014-01-31T08:58:35.000Z</time>
      </trkpt>
      <trkpt lat="45.55599" lon="6.59294">
        <ele>1365.1999511719</ele>
        <time>2014-01-31T08:58:36.000Z</time>
      </trkpt>
      <trkpt lat="45.55599" lon="6.59293">
        <ele>1365.1999511719</ele>
        <time>2014-01-31T08:58:37.000Z</time>
      </trkpt>
      <trkpt lat="45.55599" lon="6.59291">
        <ele>1365.4000244141</ele>
        <time>2014-01-31T08:58:38.000Z</time>
      </trkpt>
      <trkpt lat="45.556" lon="6.59289">
        <ele>1365.5999755859</ele>
        <time>2014-01-31T08:58:39.000Z</time>
      </trkpt>
      <trkpt lat="45.556" lon="6.59286">
        <ele>1365.5999755859</ele>
        <time>2014-01-31T08:58:40.000Z</time>
      </trkpt>
      <trkpt lat="45.556" lon="6.59283">
        <ele>1366</ele>
        <time>2014-01-31T08:58:41.000Z</time>
      </trkpt>
      <trkpt lat="45.556" lon="6.59281">
        <ele>1366.1999511719</ele>
        <time>2014-01-31T08:58:42.000Z</time>
      </trkpt>
      <trkpt lat="45.556" lon="6.59281">
        <ele>1366.5999755859</ele>
        <time>2014-01-31T08:58:43.000Z</time>
      </trkpt>
      <trkpt lat="45.556" lon="6.59279">
        <ele>1366.5999755859</ele>
        <time>2014-01-31T08:58:44.000Z</time>
      </trkpt>
      <trkpt lat="45.556" lon="6.59278">
        <ele>1366.8000488281</ele>
        <time>2014-01-31T08:58:45.000Z</time>
      </trkpt>
      <trkpt lat="45.556" lon="6.59277">
        <ele>1367</ele>
        <time>2014-01-31T08:58:46.000Z</time>
      </trkpt>
      <trkpt lat="45.55601" lon="6.59276">
        <ele>1367.1999511719</ele>
        <time>2014-01-31T08:58:47.000Z</time>
      </trkpt>
      <trkpt lat="45.556" lon="6.59274">
        <ele>1367.4000244141</ele>
        <time>2014-01-31T08:58:48.000Z</time>
      </trkpt>
      <trkpt lat="45.55601" lon="6.59273">
        <ele>1367.8000488281</ele>
        <time>2014-01-31T08:58:49.000Z</time>
      </trkpt>
      <trkpt lat="45.55601" lon="6.59272">
        <ele>1368</ele>
        <time>2014-01-31T08:58:50.000Z</time>
      </trkpt>
      <trkpt lat="45.55601" lon="6.59271">
        <ele>1368.1999511719</ele>
        <time>2014-01-31T08:58:51.000Z</time>
      </trkpt>
      <trkpt lat="45.55602" lon="6.59269">
        <ele>1368.4000244141</ele>
        <time>2014-01-31T08:58:52.000Z</time>
      </trkpt>
      <trkpt lat="45.55603" lon="6.59267">
        <ele>1368.4000244141</ele>
        <time>2014-01-31T08:58:53.000Z</time>
      </trkpt>
      <trkpt lat="45.55604" lon="6.59265">
        <ele>1368.5999755859</ele>
        <time>2014-01-31T08:58:54.000Z</time>
      </trkpt>
      <trkpt lat="45.55604" lon="6.59263">
        <ele>1368.8000488281</ele>
        <time>2014-01-31T08:58:55.000Z</time>
      </trkpt>
      <trkpt lat="45.55605" lon="6.59261">
        <ele>1369</ele>
        <time>2014-01-31T08:58:56.000Z</time>
      </trkpt>
      <trkpt lat="45.55606" lon="6.5926">
        <ele>1369.1999511719</ele>
        <time>2014-01-31T08:58:57.000Z</time>
      </trkpt>
      <trkpt lat="45.55606" lon="6.59258">
        <ele>1369.4000244141</ele>
        <time>2014-01-31T08:58:58.000Z</time>
      </trkpt>
      <trkpt lat="45.55607" lon="6.59256">
        <ele>1369.8000488281</ele>
        <time>2014-01-31T08:58:59.000Z</time>
      </trkpt>
      <trkpt lat="45.55607" lon="6.59256">
        <ele>1370</ele>
        <time>2014-01-31T08:59:00.000Z</time>
      </trkpt>
      <trkpt lat="45.55607" lon="6.59254">
        <ele>1370.1999511719</ele>
        <time>2014-01-31T08:59:01.000Z</time>
      </trkpt>
      <trkpt lat="45.55608" lon="6.59251">
        <ele>1370.4000244141</ele>
        <time>2014-01-31T08:59:02.000Z</time>
      </trkpt>
      <trkpt lat="45.55608" lon="6.59249">
        <ele>1370.5999755859</ele>
        <time>2014-01-31T08:59:03.000Z</time>
      </trkpt>
      <trkpt lat="45.55609" lon="6.59247">
        <ele>1370.5999755859</ele>
        <time>2014-01-31T08:59:04.000Z</time>
      </trkpt>
      <trkpt lat="45.55609" lon="6.59245">
        <ele>1370.5999755859</ele>
        <time>2014-01-31T08:59:05.000Z</time>
      </trkpt>
      <trkpt lat="45.55609" lon="6.59244">
        <ele>1370.5999755859</ele>
        <time>2014-01-31T08:59:06.000Z</time>
      </trkpt>
      <trkpt lat="45.55609" lon="6.59244">
        <ele>1370.5999755859</ele>
        <time>2014-01-31T08:59:07.000Z</time>
      </trkpt>
      <trkpt lat="45.55609" lon="6.59242">
        <ele>1370.5999755859</ele>
        <time>2014-01-31T08:59:08.000Z</time>
      </trkpt>
      <trkpt lat="45.55609" lon="6.59242">
        <ele>1370.5999755859</ele>
        <time>2014-01-31T08:59:09.000Z</time>
      </trkpt>
      <trkpt lat="45.55609" lon="6.59242">
        <ele>1370.8000488281</ele>
        <time>2014-01-31T08:59:10.000Z</time>
      </trkpt>
      <trkpt lat="45.55608" lon="6.5924">
        <ele>1371</ele>
        <time>2014-01-31T08:59:11.000Z</time>
      </trkpt>
      <trkpt lat="45.55608" lon="6.59239">
        <ele>1371.4000244141</ele>
        <time>2014-01-31T08:59:12.000Z</time>
      </trkpt>
      <trkpt lat="45.55607" lon="6.59237">
        <ele>1371.5999755859</ele>
        <time>2014-01-31T08:59:13.000Z</time>
      </trkpt>
      <trkpt lat="45.55607" lon="6.59234">
        <ele>1371.5999755859</ele>
        <time>2014-01-31T08:59:14.000Z</time>
      </trkpt>
      <trkpt lat="45.55607" lon="6.59233">
        <ele>1371.8000488281</ele>
        <time>2014-01-31T08:59:15.000Z</time>
      </trkpt>
      <trkpt lat="45.55607" lon="6.5923">
        <ele>1371.8000488281</ele>
        <time>2014-01-31T08:59:16.000Z</time>
      </trkpt>
      <trkpt lat="45.55607" lon="6.59227">
        <ele>1372</ele>
        <time>2014-01-31T08:59:17.000Z</time>
      </trkpt>
      <trkpt lat="45.55607" lon="6.59225">
        <ele>1372</ele>
        <time>2014-01-31T08:59:18.000Z</time>
      </trkpt>
      <trkpt lat="45.55607" lon="6.59223">
        <ele>1372.1999511719</ele>
        <time>2014-01-31T08:59:19.000Z</time>
      </trkpt>
      <trkpt lat="45.55607" lon="6.5922">
        <ele>1372.5999755859</ele>
        <time>2014-01-31T08:59:20.000Z</time>
      </trkpt>
      <trkpt lat="45.55607" lon="6.5922">
        <ele>1372.8000488281</ele>
        <time>2014-01-31T08:59:21.000Z</time>
      </trkpt>
      <trkpt lat="45.55608" lon="6.59218">
        <ele>1373</ele>
        <time>2014-01-31T08:59:22.000Z</time>
      </trkpt>
      <trkpt lat="45.55608" lon="6.59215">
        <ele>1373.1999511719</ele>
        <time>2014-01-31T08:59:23.000Z</time>
      </trkpt>
      <trkpt lat="45.55609" lon="6.59213">
        <ele>1373.4000244141</ele>
        <time>2014-01-31T08:59:24.000Z</time>
      </trkpt>
      <trkpt lat="45.55609" lon="6.59211">
        <ele>1373.5999755859</ele>
        <time>2014-01-31T08:59:25.000Z</time>
      </trkpt>
      <trkpt lat="45.5561" lon="6.5921">
        <ele>1373.5999755859</ele>
        <time>2014-01-31T08:59:26.000Z</time>
      </trkpt>
      <trkpt lat="45.5561" lon="6.59208">
        <ele>1373.8000488281</ele>
        <time>2014-01-31T08:59:27.000Z</time>
      </trkpt>
      <trkpt lat="45.55611" lon="6.59208">
        <ele>1374</ele>
        <time>2014-01-31T08:59:28.000Z</time>
      </trkpt>
      <trkpt lat="45.55611" lon="6.59205">
        <ele>1374</ele>
        <time>2014-01-31T08:59:29.000Z</time>
      </trkpt>
      <trkpt lat="45.55611" lon="6.59205">
        <ele>1374.1999511719</ele>
        <time>2014-01-31T08:59:30.000Z</time>
      </trkpt>
      <trkpt lat="45.55612" lon="6.59204">
        <ele>1374.5999755859</ele>
        <time>2014-01-31T08:59:31.000Z</time>
      </trkpt>
      <trkpt lat="45.55612" lon="6.59203">
        <ele>1374.5999755859</ele>
        <time>2014-01-31T08:59:32.000Z</time>
      </trkpt>
      <trkpt lat="45.55612" lon="6.59203">
        <ele>1374.8000488281</ele>
        <time>2014-01-31T08:59:33.000Z</time>
      </trkpt>
      <trkpt lat="45.55612" lon="6.59202">
        <ele>1374.8000488281</ele>
        <time>2014-01-31T08:59:34.000Z</time>
      </trkpt>
      <trkpt lat="45.55612" lon="6.59202">
        <ele>1374.8000488281</ele>
        <time>2014-01-31T08:59:35.000Z</time>
      </trkpt>
      <trkpt lat="45.55612" lon="6.59201">
        <ele>1375</ele>
        <time>2014-01-31T08:59:36.000Z</time>
      </trkpt>
      <trkpt lat="45.55613" lon="6.592">
        <ele>1375.1999511719</ele>
        <time>2014-01-31T08:59:37.000Z</time>
      </trkpt>
      <trkpt lat="45.55613" lon="6.59199">
        <ele>1375.4000244141</ele>
        <time>2014-01-31T08:59:38.000Z</time>
      </trkpt>
      <trkpt lat="45.55613" lon="6.59199">
        <ele>1375.5999755859</ele>
        <time>2014-01-31T08:59:39.000Z</time>
      </trkpt>
      <trkpt lat="45.55614" lon="6.59198">
        <ele>1375.8000488281</ele>
        <time>2014-01-31T08:59:40.000Z</time>
      </trkpt>
      <trkpt lat="45.55614" lon="6.59197">
        <ele>1376</ele>
        <time>2014-01-31T08:59:41.000Z</time>
      </trkpt>
      <trkpt lat="45.55615" lon="6.59196">
        <ele>1376</ele>
        <time>2014-01-31T08:59:42.000Z</time>
      </trkpt>
      <trkpt lat="45.55615" lon="6.59195">
        <ele>1376</ele>
        <time>2014-01-31T08:59:43.000Z</time>
      </trkpt>
      <trkpt lat="45.55615" lon="6.59194">
        <ele>1376.1999511719</ele>
        <time>2014-01-31T08:59:44.000Z</time>
      </trkpt>
      <trkpt lat="45.55615" lon="6.59194">
        <ele>1376.4000244141</ele>
        <time>2014-01-31T08:59:45.000Z</time>
      </trkpt>
      <trkpt lat="45.55615" lon="6.59194">
        <ele>1376.8000488281</ele>
        <time>2014-01-31T08:59:46.000Z</time>
      </trkpt>
      <trkpt lat="45.55615" lon="6.59194">
        <ele>1377</ele>
        <time>2014-01-31T08:59:47.000Z</time>
      </trkpt>
      <trkpt lat="45.55615" lon="6.59194">
        <ele>1377.1999511719</ele>
        <time>2014-01-31T08:59:48.000Z</time>
      </trkpt>
      <trkpt lat="45.55615" lon="6.59194">
        <ele>1377.4000244141</ele>
        <time>2014-01-31T08:59:49.000Z</time>
      </trkpt>
      <trkpt lat="45.55615" lon="6.59194">
        <ele>1377.5999755859</ele>
        <time>2014-01-31T08:59:50.000Z</time>
      </trkpt>
      <trkpt lat="45.55615" lon="6.59194">
        <ele>1377.8000488281</ele>
        <time>2014-01-31T08:59:51.000Z</time>
      </trkpt>
      <trkpt lat="45.55615" lon="6.59194">
        <ele>1377.8000488281</ele>
        <time>2014-01-31T08:59:52.000Z</time>
      </trkpt>
      <trkpt lat="45.55615" lon="6.59194">
        <ele>1378</ele>
        <time>2014-01-31T08:59:53.000Z</time>
      </trkpt>
      <trkpt lat="45.55615" lon="6.59194">
        <ele>1378</ele>
        <time>2014-01-31T08:59:54.000Z</time>
      </trkpt>
      <trkpt lat="45.55615" lon="6.59194">
        <ele>1378</ele>
        <time>2014-01-31T08:59:55.000Z</time>
      </trkpt>
      <trkpt lat="45.55615" lon="6.59194">
        <ele>1378.1999511719</ele>
        <time>2014-01-31T08:59:56.000Z</time>
      </trkpt>
      <trkpt lat="45.55615" lon="6.59194">
        <ele>1378.1999511719</ele>
        <time>2014-01-31T08:59:57.000Z</time>
      </trkpt>
      <trkpt lat="45.55617" lon="6.59194">
        <ele>1378.4000244141</ele>
        <time>2014-01-31T08:59:58.000Z</time>
      </trkpt>
      <trkpt lat="45.55619" lon="6.59192">
        <ele>1378.5999755859</ele>
        <time>2014-01-31T08:59:59.000Z</time>
      </trkpt>
      <trkpt lat="45.55621" lon="6.59191">
        <ele>1378.8000488281</ele>
        <time>2014-01-31T09:00:00.000Z</time>
      </trkpt>
      <trkpt lat="45.55622" lon="6.59189">
        <ele>1379</ele>
        <time>2014-01-31T09:00:01.000Z</time>
      </trkpt>
      <trkpt lat="45.55623" lon="6.59186">
        <ele>1379.1999511719</ele>
        <time>2014-01-31T09:00:02.000Z</time>
      </trkpt>
      <trkpt lat="45.55624" lon="6.59184">
        <ele>1379.4000244141</ele>
        <time>2014-01-31T09:00:03.000Z</time>
      </trkpt>
      <trkpt lat="45.55625" lon="6.59183">
        <ele>1379.5999755859</ele>
        <time>2014-01-31T09:00:04.000Z</time>
      </trkpt>
      <trkpt lat="45.55625" lon="6.59181">
        <ele>1379.8000488281</ele>
        <time>2014-01-31T09:00:05.000Z</time>
      </trkpt>
      <trkpt lat="45.55626" lon="6.5918">
        <ele>1380</ele>
        <time>2014-01-31T09:00:06.000Z</time>
      </trkpt>
      <trkpt lat="45.55627" lon="6.59179">
        <ele>1380.1999511719</ele>
        <time>2014-01-31T09:00:07.000Z</time>
      </trkpt>
      <trkpt lat="45.55627" lon="6.59177">
        <ele>1380.4000244141</ele>
        <time>2014-01-31T09:00:08.000Z</time>
      </trkpt>
      <trkpt lat="45.55628" lon="6.59176">
        <ele>1380.5999755859</ele>
        <time>2014-01-31T09:00:09.000Z</time>
      </trkpt>
      <trkpt lat="45.55629" lon="6.59175">
        <ele>1380.8000488281</ele>
        <time>2014-01-31T09:00:10.000Z</time>
      </trkpt>
      <trkpt lat="45.5563" lon="6.59175">
        <ele>1381</ele>
        <time>2014-01-31T09:00:11.000Z</time>
      </trkpt>
      <trkpt lat="45.5563" lon="6.59175">
        <ele>1381.1999511719</ele>
        <time>2014-01-31T09:00:12.000Z</time>
      </trkpt>
      <trkpt lat="45.5563" lon="6.59175">
        <ele>1381.4000244141</ele>
        <time>2014-01-31T09:00:13.000Z</time>
      </trkpt>
      <trkpt lat="45.5563" lon="6.59175">
        <ele>1381.5999755859</ele>
        <time>2014-01-31T09:00:14.000Z</time>
      </trkpt>
      <trkpt lat="45.5563" lon="6.59175">
        <ele>1381.5999755859</ele>
        <time>2014-01-31T09:00:15.000Z</time>
      </trkpt>
      <trkpt lat="45.5563" lon="6.59175">
        <ele>1381.8000488281</ele>
        <time>2014-01-31T09:00:16.000Z</time>
      </trkpt>
      <trkpt lat="45.5563" lon="6.59175">
        <ele>1381.8000488281</ele>
        <time>2014-01-31T09:00:17.000Z</time>
      </trkpt>
      <trkpt lat="45.5563" lon="6.59175">
        <ele>1382</ele>
        <time>2014-01-31T09:00:18.000Z</time>
      </trkpt>
      <trkpt lat="45.5563" lon="6.59175">
        <ele>1382.1999511719</ele>
        <time>2014-01-31T09:00:19.000Z</time>
      </trkpt>
      <trkpt lat="45.5563" lon="6.59173">
        <ele>1382.4000244141</ele>
        <time>2014-01-31T09:00:20.000Z</time>
      </trkpt>
      <trkpt lat="45.55631" lon="6.59171">
        <ele>1382.5999755859</ele>
        <time>2014-01-31T09:00:21.000Z</time>
      </trkpt>
      <trkpt lat="45.55631" lon="6.59171">
        <ele>1382.5999755859</ele>
        <time>2014-01-31T09:00:22.000Z</time>
      </trkpt>
      <trkpt lat="45.55632" lon="6.59169">
        <ele>1382.5999755859</ele>
        <time>2014-01-31T09:00:23.000Z</time>
      </trkpt>
      <trkpt lat="45.55632" lon="6.59168">
        <ele>1382.8000488281</ele>
        <time>2014-01-31T09:00:24.000Z</time>
      </trkpt>
      <trkpt lat="45.55632" lon="6.59168">
        <ele>1383</ele>
        <time>2014-01-31T09:00:25.000Z</time>
      </trkpt>
      <trkpt lat="45.55632" lon="6.59166">
        <ele>1383</ele>
        <time>2014-01-31T09:00:26.000Z</time>
      </trkpt>
      <trkpt lat="45.55632" lon="6.59166">
        <ele>1383.1999511719</ele>
        <time>2014-01-31T09:00:27.000Z</time>
      </trkpt>
      <trkpt lat="45.55633" lon="6.59164">
        <ele>1383.4000244141</ele>
        <time>2014-01-31T09:00:28.000Z</time>
      </trkpt>
      <trkpt lat="45.55633" lon="6.59162">
        <ele>1383.5999755859</ele>
        <time>2014-01-31T09:00:29.000Z</time>
      </trkpt>
      <trkpt lat="45.55634" lon="6.59158">
        <ele>1383.8000488281</ele>
        <time>2014-01-31T09:00:30.000Z</time>
      </trkpt>
      <trkpt lat="45.55634" lon="6.59155">
        <ele>1384</ele>
        <time>2014-01-31T09:00:31.000Z</time>
      </trkpt>
      <trkpt lat="45.55634" lon="6.59152">
        <ele>1384.1999511719</ele>
        <time>2014-01-31T09:00:32.000Z</time>
      </trkpt>
      <trkpt lat="45.55635" lon="6.59149">
        <ele>1384.1999511719</ele>
        <time>2014-01-31T09:00:33.000Z</time>
      </trkpt>
      <trkpt lat="45.55635" lon="6.59147">
        <ele>1384.5999755859</ele>
        <time>2014-01-31T09:00:34.000Z</time>
      </trkpt>
      <trkpt lat="45.55635" lon="6.59145">
        <ele>1384.8000488281</ele>
        <time>2014-01-31T09:00:35.000Z</time>
      </trkpt>
      <trkpt lat="45.55636" lon="6.59143">
        <ele>1384.8000488281</ele>
        <time>2014-01-31T09:00:36.000Z</time>
      </trkpt>
      <trkpt lat="45.55636" lon="6.59141">
        <ele>1385</ele>
        <time>2014-01-31T09:00:37.000Z</time>
      </trkpt>
      <trkpt lat="45.55636" lon="6.5914">
        <ele>1385.1999511719</ele>
        <time>2014-01-31T09:00:38.000Z</time>
      </trkpt>
      <trkpt lat="45.55637" lon="6.59139">
        <ele>1385.4000244141</ele>
        <time>2014-01-31T09:00:39.000Z</time>
      </trkpt>
      <trkpt lat="45.55637" lon="6.59139">
        <ele>1385.4000244141</ele>
        <time>2014-01-31T09:00:40.000Z</time>
      </trkpt>
      <trkpt lat="45.55637" lon="6.59139">
        <ele>1385.8000488281</ele>
        <time>2014-01-31T09:00:41.000Z</time>
      </trkpt>
      <trkpt lat="45.55637" lon="6.59138">
        <ele>1386</ele>
        <time>2014-01-31T09:00:42.000Z</time>
      </trkpt>
      <trkpt lat="45.55637" lon="6.59138">
        <ele>1386.1999511719</ele>
        <time>2014-01-31T09:00:43.000Z</time>
      </trkpt>
      <trkpt lat="45.55637" lon="6.59138">
        <ele>1386.4000244141</ele>
        <time>2014-01-31T09:00:44.000Z</time>
      </trkpt>
      <trkpt lat="45.55637" lon="6.59137">
        <ele>1386.4000244141</ele>
        <time>2014-01-31T09:00:45.000Z</time>
      </trkpt>
      <trkpt lat="45.55637" lon="6.59138">
        <ele>1386.5999755859</ele>
        <time>2014-01-31T09:00:46.000Z</time>
      </trkpt>
      <trkpt lat="45.55638" lon="6.59139">
        <ele>1386.8000488281</ele>
        <time>2014-01-31T09:00:47.000Z</time>
      </trkpt>
      <trkpt lat="45.55638" lon="6.59141">
        <ele>1387</ele>
        <time>2014-01-31T09:00:48.000Z</time>
      </trkpt>
      <trkpt lat="45.55637" lon="6.59143">
        <ele>1387</ele>
        <time>2014-01-31T09:00:49.000Z</time>
      </trkpt>
      <trkpt lat="45.55637" lon="6.59144">
        <ele>1387.1999511719</ele>
        <time>2014-01-31T09:00:50.000Z</time>
      </trkpt>
      <trkpt lat="45.55638" lon="6.59146">
        <ele>1387.1999511719</ele>
        <time>2014-01-31T09:00:51.000Z</time>
      </trkpt>
      <trkpt lat="45.55638" lon="6.59148">
        <ele>1387.4000244141</ele>
        <time>2014-01-31T09:00:52.000Z</time>
      </trkpt>
      <trkpt lat="45.55638" lon="6.59149">
        <ele>1387.5999755859</ele>
        <time>2014-01-31T09:00:53.000Z</time>
      </trkpt>
      <trkpt lat="45.55639" lon="6.5915">
        <ele>1387.5999755859</ele>
        <time>2014-01-31T09:00:54.000Z</time>
      </trkpt>
      <trkpt lat="45.55639" lon="6.59151">
        <ele>1387.8000488281</ele>
        <time>2014-01-31T09:00:55.000Z</time>
      </trkpt>
      <trkpt lat="45.55639" lon="6.59152">
        <ele>1387.8000488281</ele>
        <time>2014-01-31T09:00:56.000Z</time>
      </trkpt>
      <trkpt lat="45.55639" lon="6.59153">
        <ele>1388</ele>
        <time>2014-01-31T09:00:57.000Z</time>
      </trkpt>
      <trkpt lat="45.55639" lon="6.59155">
        <ele>1388.4000244141</ele>
        <time>2014-01-31T09:00:58.000Z</time>
      </trkpt>
      <trkpt lat="45.55639" lon="6.59157">
        <ele>1388.5999755859</ele>
        <time>2014-01-31T09:00:59.000Z</time>
      </trkpt>
      <trkpt lat="45.55639" lon="6.59159">
        <ele>1388.8000488281</ele>
        <time>2014-01-31T09:01:00.000Z</time>
      </trkpt>
      <trkpt lat="45.55639" lon="6.5916">
        <ele>1389</ele>
        <time>2014-01-31T09:01:01.000Z</time>
      </trkpt>
      <trkpt lat="45.55639" lon="6.59162">
        <ele>1389</ele>
        <time>2014-01-31T09:01:02.000Z</time>
      </trkpt>
      <trkpt lat="45.55639" lon="6.59164">
        <ele>1389.1999511719</ele>
        <time>2014-01-31T09:01:03.000Z</time>
      </trkpt>
      <trkpt lat="45.55639" lon="6.59167">
        <ele>1389.1999511719</ele>
        <time>2014-01-31T09:01:04.000Z</time>
      </trkpt>
      <trkpt lat="45.55639" lon="6.5917">
        <ele>1389.1999511719</ele>
        <time>2014-01-31T09:01:05.000Z</time>
      </trkpt>
      <trkpt lat="45.55639" lon="6.59171">
        <ele>1389.4000244141</ele>
        <time>2014-01-31T09:01:06.000Z</time>
      </trkpt>
      <trkpt lat="45.55639" lon="6.59172">
        <ele>1389.4000244141</ele>
        <time>2014-01-31T09:01:07.000Z</time>
      </trkpt>
      <trkpt lat="45.5564" lon="6.59174">
        <ele>1389.4000244141</ele>
        <time>2014-01-31T09:01:08.000Z</time>
      </trkpt>
      <trkpt lat="45.5564" lon="6.59174">
        <ele>1389.4000244141</ele>
        <time>2014-01-31T09:01:09.000Z</time>
      </trkpt>
      <trkpt lat="45.5564" lon="6.59176">
        <ele>1389.5999755859</ele>
        <time>2014-01-31T09:01:10.000Z</time>
      </trkpt>
      <trkpt lat="45.55641" lon="6.59178">
        <ele>1390</ele>
        <time>2014-01-31T09:01:11.000Z</time>
      </trkpt>
      <trkpt lat="45.55641" lon="6.59179">
        <ele>1390.1999511719</ele>
        <time>2014-01-31T09:01:12.000Z</time>
      </trkpt>
      <trkpt lat="45.55641" lon="6.5918">
        <ele>1390.4000244141</ele>
        <time>2014-01-31T09:01:13.000Z</time>
      </trkpt>
      <trkpt lat="45.55641" lon="6.59182">
        <ele>1390.5999755859</ele>
        <time>2014-01-31T09:01:14.000Z</time>
      </trkpt>
      <trkpt lat="45.55641" lon="6.59183">
        <ele>1390.8000488281</ele>
        <time>2014-01-31T09:01:15.000Z</time>
      </trkpt>
      <trkpt lat="45.55641" lon="6.59184">
        <ele>1391</ele>
        <time>2014-01-31T09:01:16.000Z</time>
      </trkpt>
      <trkpt lat="45.55641" lon="6.59185">
        <ele>1391</ele>
        <time>2014-01-31T09:01:17.000Z</time>
      </trkpt>
      <trkpt lat="45.5564" lon="6.59186">
        <ele>1391.1999511719</ele>
        <time>2014-01-31T09:01:18.000Z</time>
      </trkpt>
      <trkpt lat="45.5564" lon="6.59188">
        <ele>1391.4000244141</ele>
        <time>2014-01-31T09:01:19.000Z</time>
      </trkpt>
      <trkpt lat="45.5564" lon="6.59189">
        <ele>1391.4000244141</ele>
        <time>2014-01-31T09:01:20.000Z</time>
      </trkpt>
      <trkpt lat="45.55641" lon="6.5919">
        <ele>1391.5999755859</ele>
        <time>2014-01-31T09:01:21.000Z</time>
      </trkpt>
      <trkpt lat="45.55641" lon="6.59191">
        <ele>1392</ele>
        <time>2014-01-31T09:01:22.000Z</time>
      </trkpt>
      <trkpt lat="45.55641" lon="6.59192">
        <ele>1392</ele>
        <time>2014-01-31T09:01:23.000Z</time>
      </trkpt>
      <trkpt lat="45.55641" lon="6.59193">
        <ele>1392.1999511719</ele>
        <time>2014-01-31T09:01:24.000Z</time>
      </trkpt>
      <trkpt lat="45.55641" lon="6.59194">
        <ele>1392.4000244141</ele>
        <time>2014-01-31T09:01:25.000Z</time>
      </trkpt>
      <trkpt lat="45.55641" lon="6.59195">
        <ele>1392.5999755859</ele>
        <time>2014-01-31T09:01:26.000Z</time>
      </trkpt>
      <trkpt lat="45.55642" lon="6.59196">
        <ele>1392.8000488281</ele>
        <time>2014-01-31T09:01:27.000Z</time>
      </trkpt>
      <trkpt lat="45.55642" lon="6.59198">
        <ele>1392.8000488281</ele>
        <time>2014-01-31T09:01:28.000Z</time>
      </trkpt>
      <trkpt lat="45.55642" lon="6.59199">
        <ele>1393</ele>
        <time>2014-01-31T09:01:29.000Z</time>
      </trkpt>
      <trkpt lat="45.55643" lon="6.592">
        <ele>1393</ele>
        <time>2014-01-31T09:01:30.000Z</time>
      </trkpt>
      <trkpt lat="45.55643" lon="6.59202">
        <ele>1393</ele>
        <time>2014-01-31T09:01:31.000Z</time>
      </trkpt>
      <trkpt lat="45.55643" lon="6.59205">
        <ele>1393.1999511719</ele>
        <time>2014-01-31T09:01:32.000Z</time>
      </trkpt>
      <trkpt lat="45.55643" lon="6.59207">
        <ele>1393.1999511719</ele>
        <time>2014-01-31T09:01:33.000Z</time>
      </trkpt>
      <trkpt lat="45.55643" lon="6.59208">
        <ele>1393.4000244141</ele>
        <time>2014-01-31T09:01:34.000Z</time>
      </trkpt>
      <trkpt lat="45.55643" lon="6.59209">
        <ele>1393.5999755859</ele>
        <time>2014-01-31T09:01:35.000Z</time>
      </trkpt>
      <trkpt lat="45.55643" lon="6.59211">
        <ele>1393.8000488281</ele>
        <time>2014-01-31T09:01:36.000Z</time>
      </trkpt>
      <trkpt lat="45.55644" lon="6.59212">
        <ele>1394</ele>
        <time>2014-01-31T09:01:37.000Z</time>
      </trkpt>
      <trkpt lat="45.55644" lon="6.59214">
        <ele>1394</ele>
        <time>2014-01-31T09:01:38.000Z</time>
      </trkpt>
      <trkpt lat="45.55644" lon="6.59216">
        <ele>1394.1999511719</ele>
        <time>2014-01-31T09:01:39.000Z</time>
      </trkpt>
      <trkpt lat="45.55644" lon="6.59217">
        <ele>1394.1999511719</ele>
        <time>2014-01-31T09:01:40.000Z</time>
      </trkpt>
      <trkpt lat="45.55644" lon="6.59217">
        <ele>1394.4000244141</ele>
        <time>2014-01-31T09:01:41.000Z</time>
      </trkpt>
      <trkpt lat="45.55644" lon="6.59219">
        <ele>1394.4000244141</ele>
        <time>2014-01-31T09:01:42.000Z</time>
      </trkpt>
      <trkpt lat="45.55644" lon="6.59222">
        <ele>1394.5999755859</ele>
        <time>2014-01-31T09:01:43.000Z</time>
      </trkpt>
      <trkpt lat="45.55644" lon="6.59224">
        <ele>1394.5999755859</ele>
        <time>2014-01-31T09:01:44.000Z</time>
      </trkpt>
      <trkpt lat="45.55644" lon="6.59226">
        <ele>1394.8000488281</ele>
        <time>2014-01-31T09:01:45.000Z</time>
      </trkpt>
      <trkpt lat="45.55645" lon="6.59228">
        <ele>1395.1999511719</ele>
        <time>2014-01-31T09:01:46.000Z</time>
      </trkpt>
      <trkpt lat="45.55645" lon="6.5923">
        <ele>1395.4000244141</ele>
        <time>2014-01-31T09:01:47.000Z</time>
      </trkpt>
      <trkpt lat="45.55645" lon="6.59232">
        <ele>1395.4000244141</ele>
        <time>2014-01-31T09:01:48.000Z</time>
      </trkpt>
      <trkpt lat="45.55645" lon="6.59233">
        <ele>1395.5999755859</ele>
        <time>2014-01-31T09:01:49.000Z</time>
      </trkpt>
      <trkpt lat="45.55646" lon="6.59235">
        <ele>1395.5999755859</ele>
        <time>2014-01-31T09:01:50.000Z</time>
      </trkpt>
      <trkpt lat="45.55646" lon="6.59236">
        <ele>1395.8000488281</ele>
        <time>2014-01-31T09:01:51.000Z</time>
      </trkpt>
      <trkpt lat="45.55646" lon="6.59237">
        <ele>1396</ele>
        <time>2014-01-31T09:01:52.000Z</time>
      </trkpt>
      <trkpt lat="45.55646" lon="6.59238">
        <ele>1396.1999511719</ele>
        <time>2014-01-31T09:01:53.000Z</time>
      </trkpt>
      <trkpt lat="45.55646" lon="6.59239">
        <ele>1396.1999511719</ele>
        <time>2014-01-31T09:01:54.000Z</time>
      </trkpt>
      <trkpt lat="45.55646" lon="6.5924">
        <ele>1396.4000244141</ele>
        <time>2014-01-31T09:01:55.000Z</time>
      </trkpt>
      <trkpt lat="45.55648" lon="6.59241">
        <ele>1396.4000244141</ele>
        <time>2014-01-31T09:01:56.000Z</time>
      </trkpt>
      <trkpt lat="45.55649" lon="6.59242">
        <ele>1396.4000244141</ele>
        <time>2014-01-31T09:01:57.000Z</time>
      </trkpt>
      <trkpt lat="45.55649" lon="6.59242">
        <ele>1396.5999755859</ele>
        <time>2014-01-31T09:01:58.000Z</time>
      </trkpt>
      <trkpt lat="45.5565" lon="6.59242">
        <ele>1396.8000488281</ele>
        <time>2014-01-31T09:01:59.000Z</time>
      </trkpt>
      <trkpt lat="45.55652" lon="6.59243">
        <ele>1396.8000488281</ele>
        <time>2014-01-31T09:02:00.000Z</time>
      </trkpt>
      <trkpt lat="45.55652" lon="6.59243">
        <ele>1397</ele>
        <time>2014-01-31T09:02:01.000Z</time>
      </trkpt>
      <trkpt lat="45.55652" lon="6.59243">
        <ele>1397</ele>
        <time>2014-01-31T09:02:02.000Z</time>
      </trkpt>
      <trkpt lat="45.55653" lon="6.59244">
        <ele>1397.1999511719</ele>
        <time>2014-01-31T09:02:03.000Z</time>
      </trkpt>
      <trkpt lat="45.55653" lon="6.59244">
        <ele>1397.4000244141</ele>
        <time>2014-01-31T09:02:04.000Z</time>
      </trkpt>
      <trkpt lat="45.55653" lon="6.59245">
        <ele>1397.5999755859</ele>
        <time>2014-01-31T09:02:05.000Z</time>
      </trkpt>
      <trkpt lat="45.55654" lon="6.59246">
        <ele>1397.8000488281</ele>
        <time>2014-01-31T09:02:06.000Z</time>
      </trkpt>
      <trkpt lat="45.55654" lon="6.59248">
        <ele>1397.8000488281</ele>
        <time>2014-01-31T09:02:07.000Z</time>
      </trkpt>
      <trkpt lat="45.55654" lon="6.59249">
        <ele>1398</ele>
        <time>2014-01-31T09:02:08.000Z</time>
      </trkpt>
      <trkpt lat="45.55654" lon="6.5925">
        <ele>1398.1999511719</ele>
        <time>2014-01-31T09:02:09.000Z</time>
      </trkpt>
      <trkpt lat="45.55654" lon="6.59251">
        <ele>1398.5999755859</ele>
        <time>2014-01-31T09:02:10.000Z</time>
      </trkpt>
      <trkpt lat="45.55654" lon="6.59253">
        <ele>1398.8000488281</ele>
        <time>2014-01-31T09:02:11.000Z</time>
      </trkpt>
      <trkpt lat="45.55654" lon="6.59254">
        <ele>1399</ele>
        <time>2014-01-31T09:02:12.000Z</time>
      </trkpt>
      <trkpt lat="45.55654" lon="6.59257">
        <ele>1399.1999511719</ele>
        <time>2014-01-31T09:02:13.000Z</time>
      </trkpt>
      <trkpt lat="45.55654" lon="6.59259">
        <ele>1399.4000244141</ele>
        <time>2014-01-31T09:02:14.000Z</time>
      </trkpt>
      <trkpt lat="45.55654" lon="6.59261">
        <ele>1399.5999755859</ele>
        <time>2014-01-31T09:02:15.000Z</time>
      </trkpt>
      <trkpt lat="45.55654" lon="6.59262">
        <ele>1399.8000488281</ele>
        <time>2014-01-31T09:02:16.000Z</time>
      </trkpt>
      <trkpt lat="45.55655" lon="6.59263">
        <ele>1399.8000488281</ele>
        <time>2014-01-31T09:02:17.000Z</time>
      </trkpt>
      <trkpt lat="45.55655" lon="6.59265">
        <ele>1400</ele>
        <time>2014-01-31T09:02:18.000Z</time>
      </trkpt>
      <trkpt lat="45.55656" lon="6.59266">
        <ele>1400</ele>
        <time>2014-01-31T09:02:19.000Z</time>
      </trkpt>
      <trkpt lat="45.55656" lon="6.59267">
        <ele>1400.1999511719</ele>
        <time>2014-01-31T09:02:20.000Z</time>
      </trkpt>
      <trkpt lat="45.55657" lon="6.59268">
        <ele>1400.4000244141</ele>
        <time>2014-01-31T09:02:21.000Z</time>
      </trkpt>
      <trkpt lat="45.55658" lon="6.59269">
        <ele>1400.4000244141</ele>
        <time>2014-01-31T09:02:22.000Z</time>
      </trkpt>
      <trkpt lat="45.55658" lon="6.59271">
        <ele>1400.4000244141</ele>
        <time>2014-01-31T09:02:23.000Z</time>
      </trkpt>
      <trkpt lat="45.55659" lon="6.59272">
        <ele>1400.5999755859</ele>
        <time>2014-01-31T09:02:24.000Z</time>
      </trkpt>
      <trkpt lat="45.55659" lon="6.59273">
        <ele>1400.5999755859</ele>
        <time>2014-01-31T09:02:25.000Z</time>
      </trkpt>
      <trkpt lat="45.5566" lon="6.59274">
        <ele>1400.8000488281</ele>
        <time>2014-01-31T09:02:26.000Z</time>
      </trkpt>
      <trkpt lat="45.5566" lon="6.59275">
        <ele>1401</ele>
        <time>2014-01-31T09:02:27.000Z</time>
      </trkpt>
      <trkpt lat="45.55661" lon="6.59276">
        <ele>1401</ele>
        <time>2014-01-31T09:02:28.000Z</time>
      </trkpt>
      <trkpt lat="45.55661" lon="6.59277">
        <ele>1401.1999511719</ele>
        <time>2014-01-31T09:02:29.000Z</time>
      </trkpt>
      <trkpt lat="45.55662" lon="6.59278">
        <ele>1401.4000244141</ele>
        <time>2014-01-31T09:02:30.000Z</time>
      </trkpt>
      <trkpt lat="45.55662" lon="6.5928">
        <ele>1401.4000244141</ele>
        <time>2014-01-31T09:02:31.000Z</time>
      </trkpt>
      <trkpt lat="45.55663" lon="6.59281">
        <ele>1401.5999755859</ele>
        <time>2014-01-31T09:02:32.000Z</time>
      </trkpt>
      <trkpt lat="45.55663" lon="6.59281">
        <ele>1401.8000488281</ele>
        <time>2014-01-31T09:02:33.000Z</time>
      </trkpt>
      <trkpt lat="45.55664" lon="6.59282">
        <ele>1401.8000488281</ele>
        <time>2014-01-31T09:02:34.000Z</time>
      </trkpt>
      <trkpt lat="45.55664" lon="6.59283">
        <ele>1402</ele>
        <time>2014-01-31T09:02:35.000Z</time>
      </trkpt>
      <trkpt lat="45.55665" lon="6.59284">
        <ele>1402</ele>
        <time>2014-01-31T09:02:36.000Z</time>
      </trkpt>
      <trkpt lat="45.55665" lon="6.59286">
        <ele>1402</ele>
        <time>2014-01-31T09:02:37.000Z</time>
      </trkpt>
      <trkpt lat="45.55665" lon="6.59288">
        <ele>1402.1999511719</ele>
        <time>2014-01-31T09:02:38.000Z</time>
      </trkpt>
      <trkpt lat="45.55665" lon="6.59289">
        <ele>1402.4000244141</ele>
        <time>2014-01-31T09:02:39.000Z</time>
      </trkpt>
      <trkpt lat="45.55666" lon="6.59291">
        <ele>1402.5999755859</ele>
        <time>2014-01-31T09:02:40.000Z</time>
      </trkpt>
      <trkpt lat="45.55666" lon="6.59292">
        <ele>1402.8000488281</ele>
        <time>2014-01-31T09:02:41.000Z</time>
      </trkpt>
      <trkpt lat="45.55667" lon="6.59293">
        <ele>1402.8000488281</ele>
        <time>2014-01-31T09:02:42.000Z</time>
      </trkpt>
      <trkpt lat="45.55668" lon="6.59294">
        <ele>1402.8000488281</ele>
        <time>2014-01-31T09:02:43.000Z</time>
      </trkpt>
      <trkpt lat="45.55669" lon="6.59296">
        <ele>1402.8000488281</ele>
        <time>2014-01-31T09:02:44.000Z</time>
      </trkpt>
      <trkpt lat="45.55669" lon="6.59297">
        <ele>1403</ele>
        <time>2014-01-31T09:02:45.000Z</time>
      </trkpt>
      <trkpt lat="45.5567" lon="6.59297">
        <ele>1403</ele>
        <time>2014-01-31T09:02:46.000Z</time>
      </trkpt>
      <trkpt lat="45.5567" lon="6.59299">
        <ele>1403</ele>
        <time>2014-01-31T09:02:47.000Z</time>
      </trkpt>
      <trkpt lat="45.55671" lon="6.593">
        <ele>1403.1999511719</ele>
        <time>2014-01-31T09:02:48.000Z</time>
      </trkpt>
      <trkpt lat="45.55671" lon="6.59301">
        <ele>1403.1999511719</ele>
        <time>2014-01-31T09:02:49.000Z</time>
      </trkpt>
      <trkpt lat="45.55672" lon="6.59304">
        <ele>1403.4000244141</ele>
        <time>2014-01-31T09:02:50.000Z</time>
      </trkpt>
      <trkpt lat="45.55672" lon="6.59304">
        <ele>1403.4000244141</ele>
        <time>2014-01-31T09:02:51.000Z</time>
      </trkpt>
      <trkpt lat="45.55672" lon="6.59305">
        <ele>1403.5999755859</ele>
        <time>2014-01-31T09:02:52.000Z</time>
      </trkpt>
      <trkpt lat="45.55672" lon="6.59306">
        <ele>1403.8000488281</ele>
        <time>2014-01-31T09:02:53.000Z</time>
      </trkpt>
      <trkpt lat="45.55672" lon="6.59307">
        <ele>1403.8000488281</ele>
        <time>2014-01-31T09:02:54.000Z</time>
      </trkpt>
      <trkpt lat="45.55671" lon="6.59309">
        <ele>1404</ele>
        <time>2014-01-31T09:02:55.000Z</time>
      </trkpt>
      <trkpt lat="45.55671" lon="6.59309">
        <ele>1404.1999511719</ele>
        <time>2014-01-31T09:02:56.000Z</time>
      </trkpt>
      <trkpt lat="45.5567" lon="6.59311">
        <ele>1404.5999755859</ele>
        <time>2014-01-31T09:02:57.000Z</time>
      </trkpt>
      <trkpt lat="45.55669" lon="6.59313">
        <ele>1404.8000488281</ele>
        <time>2014-01-31T09:02:58.000Z</time>
      </trkpt>
      <trkpt lat="45.55669" lon="6.59313">
        <ele>1405</ele>
        <time>2014-01-31T09:02:59.000Z</time>
      </trkpt>
      <trkpt lat="45.5567" lon="6.59313">
        <ele>1405</ele>
        <time>2014-01-31T09:03:00.000Z</time>
      </trkpt>
      <trkpt lat="45.5567" lon="6.59314">
        <ele>1405.1999511719</ele>
        <time>2014-01-31T09:03:01.000Z</time>
      </trkpt>
      <trkpt lat="45.55671" lon="6.59314">
        <ele>1405.1999511719</ele>
        <time>2014-01-31T09:03:02.000Z</time>
      </trkpt>
      <trkpt lat="45.55671" lon="6.59314">
        <ele>1405.4000244141</ele>
        <time>2014-01-31T09:03:03.000Z</time>
      </trkpt>
      <trkpt lat="45.55671" lon="6.59314">
        <ele>1405.4000244141</ele>
        <time>2014-01-31T09:03:04.000Z</time>
      </trkpt>
      <trkpt lat="45.55672" lon="6.59313">
        <ele>1405.4000244141</ele>
        <time>2014-01-31T09:03:05.000Z</time>
      </trkpt>
      <trkpt lat="45.55673" lon="6.59312">
        <ele>1405.5999755859</ele>
        <time>2014-01-31T09:03:06.000Z</time>
      </trkpt>
      <trkpt lat="45.55674" lon="6.59311">
        <ele>1406</ele>
        <time>2014-01-31T09:03:07.000Z</time>
      </trkpt>
      <trkpt lat="45.55674" lon="6.59311">
        <ele>1406.1999511719</ele>
        <time>2014-01-31T09:03:08.000Z</time>
      </trkpt>
      <trkpt lat="45.55675" lon="6.59309">
        <ele>1406.4000244141</ele>
        <time>2014-01-31T09:03:09.000Z</time>
      </trkpt>
      <trkpt lat="45.55675" lon="6.59307">
        <ele>1406.4000244141</ele>
        <time>2014-01-31T09:03:10.000Z</time>
      </trkpt>
      <trkpt lat="45.55676" lon="6.59306">
        <ele>1406.5999755859</ele>
        <time>2014-01-31T09:03:11.000Z</time>
      </trkpt>
      <trkpt lat="45.55676" lon="6.59305">
        <ele>1406.5999755859</ele>
        <time>2014-01-31T09:03:12.000Z</time>
      </trkpt>
      <trkpt lat="45.55677" lon="6.59304">
        <ele>1406.5999755859</ele>
        <time>2014-01-31T09:03:13.000Z</time>
      </trkpt>
      <trkpt lat="45.55677" lon="6.59302">
        <ele>1406.5999755859</ele>
        <time>2014-01-31T09:03:14.000Z</time>
      </trkpt>
      <trkpt lat="45.55678" lon="6.593">
        <ele>1406.8000488281</ele>
        <time>2014-01-31T09:03:15.000Z</time>
      </trkpt>
      <trkpt lat="45.55678" lon="6.59299">
        <ele>1407</ele>
        <time>2014-01-31T09:03:16.000Z</time>
      </trkpt>
      <trkpt lat="45.55678" lon="6.59297">
        <ele>1407</ele>
        <time>2014-01-31T09:03:17.000Z</time>
      </trkpt>
      <trkpt lat="45.55679" lon="6.59295">
        <ele>1407</ele>
        <time>2014-01-31T09:03:18.000Z</time>
      </trkpt>
      <trkpt lat="45.55679" lon="6.59294">
        <ele>1407.1999511719</ele>
        <time>2014-01-31T09:03:19.000Z</time>
      </trkpt>
      <trkpt lat="45.55679" lon="6.59293">
        <ele>1407.1999511719</ele>
        <time>2014-01-31T09:03:20.000Z</time>
      </trkpt>
      <trkpt lat="45.55679" lon="6.59291">
        <ele>1407.4000244141</ele>
        <time>2014-01-31T09:03:21.000Z</time>
      </trkpt>
      <trkpt lat="45.55679" lon="6.5929">
        <ele>1407.5999755859</ele>
        <time>2014-01-31T09:03:22.000Z</time>
      </trkpt>
      <trkpt lat="45.55679" lon="6.59289">
        <ele>1407.5999755859</ele>
        <time>2014-01-31T09:03:23.000Z</time>
      </trkpt>
      <trkpt lat="45.55679" lon="6.59287">
        <ele>1407.5999755859</ele>
        <time>2014-01-31T09:03:24.000Z</time>
      </trkpt>
      <trkpt lat="45.5568" lon="6.59285">
        <ele>1407.8000488281</ele>
        <time>2014-01-31T09:03:25.000Z</time>
      </trkpt>
      <trkpt lat="45.5568" lon="6.59283">
        <ele>1408</ele>
        <time>2014-01-31T09:03:26.000Z</time>
      </trkpt>
      <trkpt lat="45.5568" lon="6.59282">
        <ele>1408.1999511719</ele>
        <time>2014-01-31T09:03:27.000Z</time>
      </trkpt>
      <trkpt lat="45.5568" lon="6.59281">
        <ele>1408.1999511719</ele>
        <time>2014-01-31T09:03:28.000Z</time>
      </trkpt>
      <trkpt lat="45.55681" lon="6.5928">
        <ele>1408.4000244141</ele>
        <time>2014-01-31T09:03:29.000Z</time>
      </trkpt>
      <trkpt lat="45.55681" lon="6.59279">
        <ele>1408.4000244141</ele>
        <time>2014-01-31T09:03:30.000Z</time>
      </trkpt>
      <trkpt lat="45.55681" lon="6.59278">
        <ele>1408.5999755859</ele>
        <time>2014-01-31T09:03:31.000Z</time>
      </trkpt>
      <trkpt lat="45.55681" lon="6.59277">
        <ele>1408.8000488281</ele>
        <time>2014-01-31T09:03:32.000Z</time>
      </trkpt>
      <trkpt lat="45.55682" lon="6.59275">
        <ele>1409</ele>
        <time>2014-01-31T09:03:33.000Z</time>
      </trkpt>
      <trkpt lat="45.55682" lon="6.59274">
        <ele>1409.1999511719</ele>
        <time>2014-01-31T09:03:34.000Z</time>
      </trkpt>
      <trkpt lat="45.55682" lon="6.59273">
        <ele>1409.4000244141</ele>
        <time>2014-01-31T09:03:35.000Z</time>
      </trkpt>
      <trkpt lat="45.55682" lon="6.59271">
        <ele>1409.5999755859</ele>
        <time>2014-01-31T09:03:36.000Z</time>
      </trkpt>
      <trkpt lat="45.55683" lon="6.59269">
        <ele>1410</ele>
        <time>2014-01-31T09:03:37.000Z</time>
      </trkpt>
      <trkpt lat="45.55683" lon="6.59267">
        <ele>1410.1999511719</ele>
        <time>2014-01-31T09:03:38.000Z</time>
      </trkpt>
      <trkpt lat="45.55683" lon="6.59266">
        <ele>1410.4000244141</ele>
        <time>2014-01-31T09:03:39.000Z</time>
      </trkpt>
      <trkpt lat="45.55684" lon="6.59264">
        <ele>1410.5999755859</ele>
        <time>2014-01-31T09:03:40.000Z</time>
      </trkpt>
      <trkpt lat="45.55684" lon="6.59262">
        <ele>1410.5999755859</ele>
        <time>2014-01-31T09:03:41.000Z</time>
      </trkpt>
      <trkpt lat="45.55683" lon="6.59259">
        <ele>1410.8000488281</ele>
        <time>2014-01-31T09:03:42.000Z</time>
      </trkpt>
      <trkpt lat="45.55683" lon="6.59258">
        <ele>1411</ele>
        <time>2014-01-31T09:03:43.000Z</time>
      </trkpt>
      <trkpt lat="45.55683" lon="6.59257">
        <ele>1411.1999511719</ele>
        <time>2014-01-31T09:03:44.000Z</time>
      </trkpt>
      <trkpt lat="45.55682" lon="6.59256">
        <ele>1411.1999511719</ele>
        <time>2014-01-31T09:03:45.000Z</time>
      </trkpt>
      <trkpt lat="45.55683" lon="6.59255">
        <ele>1411.5999755859</ele>
        <time>2014-01-31T09:03:46.000Z</time>
      </trkpt>
      <trkpt lat="45.55683" lon="6.59254">
        <ele>1411.8000488281</ele>
        <time>2014-01-31T09:03:47.000Z</time>
      </trkpt>
      <trkpt lat="45.55682" lon="6.59254">
        <ele>1412</ele>
        <time>2014-01-31T09:03:48.000Z</time>
      </trkpt>
      <trkpt lat="45.55682" lon="6.59253">
        <ele>1412.1999511719</ele>
        <time>2014-01-31T09:03:49.000Z</time>
      </trkpt>
      <trkpt lat="45.55682" lon="6.59252">
        <ele>1412.1999511719</ele>
        <time>2014-01-31T09:03:50.000Z</time>
      </trkpt>
      <trkpt lat="45.55682" lon="6.5925">
        <ele>1412.4000244141</ele>
        <time>2014-01-31T09:03:51.000Z</time>
      </trkpt>
      <trkpt lat="45.55681" lon="6.59249">
        <ele>1412.5999755859</ele>
        <time>2014-01-31T09:03:52.000Z</time>
      </trkpt>
      <trkpt lat="45.55681" lon="6.59248">
        <ele>1412.8000488281</ele>
        <time>2014-01-31T09:03:53.000Z</time>
      </trkpt>
      <trkpt lat="45.55681" lon="6.59246">
        <ele>1413</ele>
        <time>2014-01-31T09:03:54.000Z</time>
      </trkpt>
      <trkpt lat="45.55681" lon="6.59245">
        <ele>1413</ele>
        <time>2014-01-31T09:03:55.000Z</time>
      </trkpt>
      <trkpt lat="45.55681" lon="6.59245">
        <ele>1413.1999511719</ele>
        <time>2014-01-31T09:03:56.000Z</time>
      </trkpt>
      <trkpt lat="45.55681" lon="6.59243">
        <ele>1413.1999511719</ele>
        <time>2014-01-31T09:03:57.000Z</time>
      </trkpt>
      <trkpt lat="45.55681" lon="6.59242">
        <ele>1413.4000244141</ele>
        <time>2014-01-31T09:03:58.000Z</time>
      </trkpt>
      <trkpt lat="45.5568" lon="6.59241">
        <ele>1413.4000244141</ele>
        <time>2014-01-31T09:03:59.000Z</time>
      </trkpt>
      <trkpt lat="45.5568" lon="6.59238">
        <ele>1413.5999755859</ele>
        <time>2014-01-31T09:04:00.000Z</time>
      </trkpt>
      <trkpt lat="45.5568" lon="6.59235">
        <ele>1413.8000488281</ele>
        <time>2014-01-31T09:04:01.000Z</time>
      </trkpt>
      <trkpt lat="45.55679" lon="6.59236">
        <ele>1414</ele>
        <time>2014-01-31T09:04:02.000Z</time>
      </trkpt>
      <trkpt lat="45.55678" lon="6.59235">
        <ele>1414.1999511719</ele>
        <time>2014-01-31T09:04:03.000Z</time>
      </trkpt>
      <trkpt lat="45.55678" lon="6.59233">
        <ele>1414.4000244141</ele>
        <time>2014-01-31T09:04:04.000Z</time>
      </trkpt>
      <trkpt lat="45.55678" lon="6.59232">
        <ele>1414.4000244141</ele>
        <time>2014-01-31T09:04:05.000Z</time>
      </trkpt>
      <trkpt lat="45.55679" lon="6.59232">
        <ele>1414.5999755859</ele>
        <time>2014-01-31T09:04:06.000Z</time>
      </trkpt>
      <trkpt lat="45.5568" lon="6.59231">
        <ele>1414.8000488281</ele>
        <time>2014-01-31T09:04:07.000Z</time>
      </trkpt>
      <trkpt lat="45.5568" lon="6.59231">
        <ele>1414.8000488281</ele>
        <time>2014-01-31T09:04:08.000Z</time>
      </trkpt>
      <trkpt lat="45.5568" lon="6.5923">
        <ele>1415</ele>
        <time>2014-01-31T09:04:09.000Z</time>
      </trkpt>
      <trkpt lat="45.55681" lon="6.5923">
        <ele>1415</ele>
        <time>2014-01-31T09:04:10.000Z</time>
      </trkpt>
      <trkpt lat="45.55681" lon="6.59229">
        <ele>1415</ele>
        <time>2014-01-31T09:04:11.000Z</time>
      </trkpt>
      <trkpt lat="45.55681" lon="6.59228">
        <ele>1415</ele>
        <time>2014-01-31T09:04:12.000Z</time>
      </trkpt>
      <trkpt lat="45.55681" lon="6.59227">
        <ele>1415</ele>
        <time>2014-01-31T09:04:13.000Z</time>
      </trkpt>
      <trkpt lat="45.55681" lon="6.59226">
        <ele>1414.8000488281</ele>
        <time>2014-01-31T09:04:14.000Z</time>
      </trkpt>
      <trkpt lat="45.55681" lon="6.59225">
        <ele>1415</ele>
        <time>2014-01-31T09:04:15.000Z</time>
      </trkpt>
      <trkpt lat="45.55681" lon="6.59223">
        <ele>1415</ele>
        <time>2014-01-31T09:04:16.000Z</time>
      </trkpt>
      <trkpt lat="45.55681" lon="6.59222">
        <ele>1415</ele>
        <time>2014-01-31T09:04:17.000Z</time>
      </trkpt>
      <trkpt lat="45.55681" lon="6.59221">
        <ele>1415.1999511719</ele>
        <time>2014-01-31T09:04:18.000Z</time>
      </trkpt>
      <trkpt lat="45.55681" lon="6.59219">
        <ele>1415.1999511719</ele>
        <time>2014-01-31T09:04:19.000Z</time>
      </trkpt>
      <trkpt lat="45.55681" lon="6.59218">
        <ele>1415.4000244141</ele>
        <time>2014-01-31T09:04:20.000Z</time>
      </trkpt>
      <trkpt lat="45.55681" lon="6.59218">
        <ele>1415.5999755859</ele>
        <time>2014-01-31T09:04:21.000Z</time>
      </trkpt>
      <trkpt lat="45.5568" lon="6.59216">
        <ele>1415.5999755859</ele>
        <time>2014-01-31T09:04:22.000Z</time>
      </trkpt>
      <trkpt lat="45.5568" lon="6.59215">
        <ele>1415.8000488281</ele>
        <time>2014-01-31T09:04:23.000Z</time>
      </trkpt>
      <trkpt lat="45.5568" lon="6.59214">
        <ele>1415.8000488281</ele>
        <time>2014-01-31T09:04:24.000Z</time>
      </trkpt>
      <trkpt lat="45.5568" lon="6.59214">
        <ele>1416</ele>
        <time>2014-01-31T09:04:25.000Z</time>
      </trkpt>
      <trkpt lat="45.5568" lon="6.59214">
        <ele>1416.1999511719</ele>
        <time>2014-01-31T09:04:26.000Z</time>
      </trkpt>
      <trkpt lat="45.5568" lon="6.59214">
        <ele>1416.1999511719</ele>
        <time>2014-01-31T09:04:27.000Z</time>
      </trkpt>
      <trkpt lat="45.5568" lon="6.59214">
        <ele>1416.4000244141</ele>
        <time>2014-01-31T09:04:28.000Z</time>
      </trkpt>
      <trkpt lat="45.5568" lon="6.59212">
        <ele>1416.4000244141</ele>
        <time>2014-01-31T09:04:29.000Z</time>
      </trkpt>
      <trkpt lat="45.5568" lon="6.59211">
        <ele>1416.4000244141</ele>
        <time>2014-01-31T09:04:30.000Z</time>
      </trkpt>
      <trkpt lat="45.5568" lon="6.59209">
        <ele>1416.5999755859</ele>
        <time>2014-01-31T09:04:31.000Z</time>
      </trkpt>
      <trkpt lat="45.5568" lon="6.59208">
        <ele>1416.8000488281</ele>
        <time>2014-01-31T09:04:32.000Z</time>
      </trkpt>
      <trkpt lat="45.5568" lon="6.59207">
        <ele>1417</ele>
        <time>2014-01-31T09:04:33.000Z</time>
      </trkpt>
      <trkpt lat="45.55679" lon="6.59207">
        <ele>1417.5999755859</ele>
        <time>2014-01-31T09:04:34.000Z</time>
      </trkpt>
      <trkpt lat="45.55679" lon="6.59207">
        <ele>1417.5999755859</ele>
        <time>2014-01-31T09:04:35.000Z</time>
      </trkpt>
      <trkpt lat="45.55679" lon="6.59206">
        <ele>1417.5999755859</ele>
        <time>2014-01-31T09:04:36.000Z</time>
      </trkpt>
      <trkpt lat="45.55679" lon="6.59205">
        <ele>1417.5999755859</ele>
        <time>2014-01-31T09:04:37.000Z</time>
      </trkpt>
      <trkpt lat="45.55678" lon="6.59203">
        <ele>1417.5999755859</ele>
        <time>2014-01-31T09:04:38.000Z</time>
      </trkpt>
      <trkpt lat="45.55678" lon="6.59202">
        <ele>1417.5999755859</ele>
        <time>2014-01-31T09:04:39.000Z</time>
      </trkpt>
      <trkpt lat="45.55677" lon="6.59201">
        <ele>1417.4000244141</ele>
        <time>2014-01-31T09:04:40.000Z</time>
      </trkpt>
      <trkpt lat="45.55677" lon="6.592">
        <ele>1417.4000244141</ele>
        <time>2014-01-31T09:04:41.000Z</time>
      </trkpt>
      <trkpt lat="45.55676" lon="6.59198">
        <ele>1417.4000244141</ele>
        <time>2014-01-31T09:04:42.000Z</time>
      </trkpt>
      <trkpt lat="45.55677" lon="6.59197">
        <ele>1417.4000244141</ele>
        <time>2014-01-31T09:04:44.000Z</time>
      </trkpt>
      <trkpt lat="45.55677" lon="6.59197">
        <ele>1417.5999755859</ele>
        <time>2014-01-31T09:04:45.000Z</time>
      </trkpt>
      <trkpt lat="45.55678" lon="6.59197">
        <ele>1417.5999755859</ele>
        <time>2014-01-31T09:04:46.000Z</time>
      </trkpt>
      <trkpt lat="45.55679" lon="6.59197">
        <ele>1417.8000488281</ele>
        <time>2014-01-31T09:04:47.000Z</time>
      </trkpt>
      <trkpt lat="45.55679" lon="6.59196">
        <ele>1418</ele>
        <time>2014-01-31T09:04:48.000Z</time>
      </trkpt>
      <trkpt lat="45.55679" lon="6.59195">
        <ele>1418</ele>
        <time>2014-01-31T09:04:49.000Z</time>
      </trkpt>
      <trkpt lat="45.5568" lon="6.59193">
        <ele>1418.1999511719</ele>
        <time>2014-01-31T09:04:50.000Z</time>
      </trkpt>
      <trkpt lat="45.5568" lon="6.59192">
        <ele>1418.1999511719</ele>
        <time>2014-01-31T09:04:51.000Z</time>
      </trkpt>
      <trkpt lat="45.55681" lon="6.59192">
        <ele>1418.4000244141</ele>
        <time>2014-01-31T09:04:52.000Z</time>
      </trkpt>
      <trkpt lat="45.5568" lon="6.59191">
        <ele>1418.4000244141</ele>
        <time>2014-01-31T09:04:53.000Z</time>
      </trkpt>
      <trkpt lat="45.5568" lon="6.5919">
        <ele>1418.5999755859</ele>
        <time>2014-01-31T09:04:54.000Z</time>
      </trkpt>
      <trkpt lat="45.5568" lon="6.59189">
        <ele>1418.8000488281</ele>
        <time>2014-01-31T09:04:55.000Z</time>
      </trkpt>
      <trkpt lat="45.55681" lon="6.59188">
        <ele>1418.8000488281</ele>
        <time>2014-01-31T09:04:56.000Z</time>
      </trkpt>
      <trkpt lat="45.55681" lon="6.59186">
        <ele>1419</ele>
        <time>2014-01-31T09:04:57.000Z</time>
      </trkpt>
      <trkpt lat="45.55682" lon="6.59185">
        <ele>1419</ele>
        <time>2014-01-31T09:04:58.000Z</time>
      </trkpt>
      <trkpt lat="45.55682" lon="6.59184">
        <ele>1419</ele>
        <time>2014-01-31T09:04:59.000Z</time>
      </trkpt>
      <trkpt lat="45.55683" lon="6.59183">
        <ele>1419.1999511719</ele>
        <time>2014-01-31T09:05:00.000Z</time>
      </trkpt>
      <trkpt lat="45.55683" lon="6.59182">
        <ele>1419.1999511719</ele>
        <time>2014-01-31T09:05:01.000Z</time>
      </trkpt>
      <trkpt lat="45.55683" lon="6.59181">
        <ele>1419.4000244141</ele>
        <time>2014-01-31T09:05:02.000Z</time>
      </trkpt>
      <trkpt lat="45.55684" lon="6.59179">
        <ele>1419.5999755859</ele>
        <time>2014-01-31T09:05:03.000Z</time>
      </trkpt>
      <trkpt lat="45.55684" lon="6.59178">
        <ele>1420</ele>
        <time>2014-01-31T09:05:04.000Z</time>
      </trkpt>
      <trkpt lat="45.55685" lon="6.59178">
        <ele>1420.1999511719</ele>
        <time>2014-01-31T09:05:05.000Z</time>
      </trkpt>
      <trkpt lat="45.55684" lon="6.59177">
        <ele>1420.1999511719</ele>
        <time>2014-01-31T09:05:06.000Z</time>
      </trkpt>
      <trkpt lat="45.55684" lon="6.59176">
        <ele>1420.1999511719</ele>
        <time>2014-01-31T09:05:07.000Z</time>
      </trkpt>
      <trkpt lat="45.55684" lon="6.59175">
        <ele>1420.4000244141</ele>
        <time>2014-01-31T09:05:08.000Z</time>
      </trkpt>
      <trkpt lat="45.55684" lon="6.59175">
        <ele>1420.4000244141</ele>
        <time>2014-01-31T09:05:09.000Z</time>
      </trkpt>
      <trkpt lat="45.55684" lon="6.59174">
        <ele>1420.5999755859</ele>
        <time>2014-01-31T09:05:10.000Z</time>
      </trkpt>
      <trkpt lat="45.55684" lon="6.59174">
        <ele>1420.5999755859</ele>
        <time>2014-01-31T09:05:11.000Z</time>
      </trkpt>
      <trkpt lat="45.55684" lon="6.59174">
        <ele>1420.8000488281</ele>
        <time>2014-01-31T09:05:12.000Z</time>
      </trkpt>
      <trkpt lat="45.55685" lon="6.59173">
        <ele>1421</ele>
        <time>2014-01-31T09:05:13.000Z</time>
      </trkpt>
      <trkpt lat="45.55686" lon="6.59172">
        <ele>1421.4000244141</ele>
        <time>2014-01-31T09:05:14.000Z</time>
      </trkpt>
      <trkpt lat="45.55686" lon="6.59172">
        <ele>1421.5999755859</ele>
        <time>2014-01-31T09:05:15.000Z</time>
      </trkpt>
      <trkpt lat="45.55686" lon="6.59172">
        <ele>1421.8000488281</ele>
        <time>2014-01-31T09:05:16.000Z</time>
      </trkpt>
      <trkpt lat="45.55686" lon="6.59172">
        <ele>1422</ele>
        <time>2014-01-31T09:05:17.000Z</time>
      </trkpt>
      <trkpt lat="45.55686" lon="6.59172">
        <ele>1422.1999511719</ele>
        <time>2014-01-31T09:05:18.000Z</time>
      </trkpt>
      <trkpt lat="45.55687" lon="6.59171">
        <ele>1422.1999511719</ele>
        <time>2014-01-31T09:05:19.000Z</time>
      </trkpt>
      <trkpt lat="45.55689" lon="6.5917">
        <ele>1422.1999511719</ele>
        <time>2014-01-31T09:05:21.000Z</time>
      </trkpt>
      <trkpt lat="45.55689" lon="6.5917">
        <ele>1422.1999511719</ele>
        <time>2014-01-31T09:05:22.000Z</time>
      </trkpt>
      <trkpt lat="45.55689" lon="6.5917">
        <ele>1422.4000244141</ele>
        <time>2014-01-31T09:05:23.000Z</time>
      </trkpt>
      <trkpt lat="45.55689" lon="6.5917">
        <ele>1422.5999755859</ele>
        <time>2014-01-31T09:05:24.000Z</time>
      </trkpt>
      <trkpt lat="45.5569" lon="6.59166">
        <ele>1422.8000488281</ele>
        <time>2014-01-31T09:05:25.000Z</time>
      </trkpt>
      <trkpt lat="45.55691" lon="6.59163">
        <ele>1422.8000488281</ele>
        <time>2014-01-31T09:05:26.000Z</time>
      </trkpt>
      <trkpt lat="45.55692" lon="6.5916">
        <ele>1423</ele>
        <time>2014-01-31T09:05:27.000Z</time>
      </trkpt>
      <trkpt lat="45.55692" lon="6.59158">
        <ele>1423</ele>
        <time>2014-01-31T09:05:28.000Z</time>
      </trkpt>
      <trkpt lat="45.55692" lon="6.59156">
        <ele>1423.1999511719</ele>
        <time>2014-01-31T09:05:29.000Z</time>
      </trkpt>
      <trkpt lat="45.55693" lon="6.59154">
        <ele>1423.1999511719</ele>
        <time>2014-01-31T09:05:30.000Z</time>
      </trkpt>
      <trkpt lat="45.55693" lon="6.59152">
        <ele>1423.4000244141</ele>
        <time>2014-01-31T09:05:31.000Z</time>
      </trkpt>
      <trkpt lat="45.55693" lon="6.59151">
        <ele>1423.4000244141</ele>
        <time>2014-01-31T09:05:32.000Z</time>
      </trkpt>
      <trkpt lat="45.55694" lon="6.59149">
        <ele>1423.5999755859</ele>
        <time>2014-01-31T09:05:33.000Z</time>
      </trkpt>
      <trkpt lat="45.55693" lon="6.59148">
        <ele>1423.8000488281</ele>
        <time>2014-01-31T09:05:34.000Z</time>
      </trkpt>
      <trkpt lat="45.55694" lon="6.59146">
        <ele>1424</ele>
        <time>2014-01-31T09:05:35.000Z</time>
      </trkpt>
      <trkpt lat="45.55694" lon="6.59145">
        <ele>1424.1999511719</ele>
        <time>2014-01-31T09:05:36.000Z</time>
      </trkpt>
      <trkpt lat="45.55694" lon="6.59144">
        <ele>1424.1999511719</ele>
        <time>2014-01-31T09:05:37.000Z</time>
      </trkpt>
      <trkpt lat="45.55694" lon="6.59142">
        <ele>1424.4000244141</ele>
        <time>2014-01-31T09:05:38.000Z</time>
      </trkpt>
      <trkpt lat="45.55694" lon="6.59141">
        <ele>1424.5999755859</ele>
        <time>2014-01-31T09:05:39.000Z</time>
      </trkpt>
      <trkpt lat="45.55694" lon="6.5914">
        <ele>1424.8000488281</ele>
        <time>2014-01-31T09:05:40.000Z</time>
      </trkpt>
      <trkpt lat="45.55694" lon="6.59138">
        <ele>1425</ele>
        <time>2014-01-31T09:05:41.000Z</time>
      </trkpt>
      <trkpt lat="45.55695" lon="6.59138">
        <ele>1425.4000244141</ele>
        <time>2014-01-31T09:05:42.000Z</time>
      </trkpt>
      <trkpt lat="45.55695" lon="6.59137">
        <ele>1425.8000488281</ele>
        <time>2014-01-31T09:05:43.000Z</time>
      </trkpt>
      <trkpt lat="45.55695" lon="6.59136">
        <ele>1426.1999511719</ele>
        <time>2014-01-31T09:05:44.000Z</time>
      </trkpt>
      <trkpt lat="45.55695" lon="6.59135">
        <ele>1426.4000244141</ele>
        <time>2014-01-31T09:05:45.000Z</time>
      </trkpt>
      <trkpt lat="45.55695" lon="6.59133">
        <ele>1426.4000244141</ele>
        <time>2014-01-31T09:05:46.000Z</time>
      </trkpt>
      <trkpt lat="45.55695" lon="6.59131">
        <ele>1426.5999755859</ele>
        <time>2014-01-31T09:05:47.000Z</time>
      </trkpt>
      <trkpt lat="45.55695" lon="6.59129">
        <ele>1426.5999755859</ele>
        <time>2014-01-31T09:05:48.000Z</time>
      </trkpt>
      <trkpt lat="45.55695" lon="6.59128">
        <ele>1426.8000488281</ele>
        <time>2014-01-31T09:05:49.000Z</time>
      </trkpt>
      <trkpt lat="45.55695" lon="6.59126">
        <ele>1426.8000488281</ele>
        <time>2014-01-31T09:05:50.000Z</time>
      </trkpt>
      <trkpt lat="45.55695" lon="6.59125">
        <ele>1427.1999511719</ele>
        <time>2014-01-31T09:05:51.000Z</time>
      </trkpt>
      <trkpt lat="45.55696" lon="6.59124">
        <ele>1427.4000244141</ele>
        <time>2014-01-31T09:05:52.000Z</time>
      </trkpt>
      <trkpt lat="45.55697" lon="6.59123">
        <ele>1427.5999755859</ele>
        <time>2014-01-31T09:05:53.000Z</time>
      </trkpt>
      <trkpt lat="45.55698" lon="6.59122">
        <ele>1427.5999755859</ele>
        <time>2014-01-31T09:05:54.000Z</time>
      </trkpt>
      <trkpt lat="45.55699" lon="6.59121">
        <ele>1427.8000488281</ele>
        <time>2014-01-31T09:05:55.000Z</time>
      </trkpt>
      <trkpt lat="45.55699" lon="6.5912">
        <ele>1427.8000488281</ele>
        <time>2014-01-31T09:05:56.000Z</time>
      </trkpt>
      <trkpt lat="45.557" lon="6.59118">
        <ele>1428</ele>
        <time>2014-01-31T09:05:57.000Z</time>
      </trkpt>
      <trkpt lat="45.55701" lon="6.59117">
        <ele>1428.1999511719</ele>
        <time>2014-01-31T09:05:58.000Z</time>
      </trkpt>
      <trkpt lat="45.55702" lon="6.59115">
        <ele>1428.1999511719</ele>
        <time>2014-01-31T09:05:59.000Z</time>
      </trkpt>
      <trkpt lat="45.55702" lon="6.59114">
        <ele>1428.4000244141</ele>
        <time>2014-01-31T09:06:00.000Z</time>
      </trkpt>
      <trkpt lat="45.55702" lon="6.59111">
        <ele>1428.5999755859</ele>
        <time>2014-01-31T09:06:01.000Z</time>
      </trkpt>
      <trkpt lat="45.55702" lon="6.59109">
        <ele>1428.5999755859</ele>
        <time>2014-01-31T09:06:02.000Z</time>
      </trkpt>
      <trkpt lat="45.55702" lon="6.59106">
        <ele>1428.8000488281</ele>
        <time>2014-01-31T09:06:03.000Z</time>
      </trkpt>
      <trkpt lat="45.55702" lon="6.59105">
        <ele>1429</ele>
        <time>2014-01-31T09:06:04.000Z</time>
      </trkpt>
      <trkpt lat="45.55702" lon="6.59104">
        <ele>1429.1999511719</ele>
        <time>2014-01-31T09:06:05.000Z</time>
      </trkpt>
      <trkpt lat="45.55702" lon="6.59103">
        <ele>1429.1999511719</ele>
        <time>2014-01-31T09:06:06.000Z</time>
      </trkpt>
      <trkpt lat="45.55702" lon="6.59102">
        <ele>1429.5999755859</ele>
        <time>2014-01-31T09:06:07.000Z</time>
      </trkpt>
      <trkpt lat="45.55702" lon="6.59101">
        <ele>1429.8000488281</ele>
        <time>2014-01-31T09:06:08.000Z</time>
      </trkpt>
      <trkpt lat="45.55702" lon="6.59099">
        <ele>1430</ele>
        <time>2014-01-31T09:06:09.000Z</time>
      </trkpt>
      <trkpt lat="45.55702" lon="6.59097">
        <ele>1430</ele>
        <time>2014-01-31T09:06:10.000Z</time>
      </trkpt>
      <trkpt lat="45.55702" lon="6.59096">
        <ele>1430.1999511719</ele>
        <time>2014-01-31T09:06:11.000Z</time>
      </trkpt>
      <trkpt lat="45.55702" lon="6.59095">
        <ele>1430.4000244141</ele>
        <time>2014-01-31T09:06:12.000Z</time>
      </trkpt>
      <trkpt lat="45.55701" lon="6.59093">
        <ele>1430.4000244141</ele>
        <time>2014-01-31T09:06:13.000Z</time>
      </trkpt>
      <trkpt lat="45.55701" lon="6.59092">
        <ele>1430.5999755859</ele>
        <time>2014-01-31T09:06:14.000Z</time>
      </trkpt>
      <trkpt lat="45.55701" lon="6.59091">
        <ele>1430.8000488281</ele>
        <time>2014-01-31T09:06:15.000Z</time>
      </trkpt>
      <trkpt lat="45.557" lon="6.5909">
        <ele>1430.8000488281</ele>
        <time>2014-01-31T09:06:16.000Z</time>
      </trkpt>
      <trkpt lat="45.557" lon="6.59089">
        <ele>1431</ele>
        <time>2014-01-31T09:06:17.000Z</time>
      </trkpt>
      <trkpt lat="45.557" lon="6.59089">
        <ele>1431.1999511719</ele>
        <time>2014-01-31T09:06:18.000Z</time>
      </trkpt>
      <trkpt lat="45.55699" lon="6.59087">
        <ele>1431.5999755859</ele>
        <time>2014-01-31T09:06:19.000Z</time>
      </trkpt>
      <trkpt lat="45.55699" lon="6.59085">
        <ele>1431.8000488281</ele>
        <time>2014-01-31T09:06:20.000Z</time>
      </trkpt>
      <trkpt lat="45.55698" lon="6.59084">
        <ele>1432.1999511719</ele>
        <time>2014-01-31T09:06:21.000Z</time>
      </trkpt>
      <trkpt lat="45.55698" lon="6.59082">
        <ele>1432.4000244141</ele>
        <time>2014-01-31T09:06:22.000Z</time>
      </trkpt>
      <trkpt lat="45.55697" lon="6.59081">
        <ele>1432.5999755859</ele>
        <time>2014-01-31T09:06:23.000Z</time>
      </trkpt>
      <trkpt lat="45.55697" lon="6.59079">
        <ele>1432.5999755859</ele>
        <time>2014-01-31T09:06:24.000Z</time>
      </trkpt>
      <trkpt lat="45.55696" lon="6.59077">
        <ele>1432.8000488281</ele>
        <time>2014-01-31T09:06:25.000Z</time>
      </trkpt>
      <trkpt lat="45.55696" lon="6.59077">
        <ele>1433</ele>
        <time>2014-01-31T09:06:26.000Z</time>
      </trkpt>
      <trkpt lat="45.55695" lon="6.59076">
        <ele>1433.4000244141</ele>
        <time>2014-01-31T09:06:27.000Z</time>
      </trkpt>
      <trkpt lat="45.55694" lon="6.59074">
        <ele>1433.5999755859</ele>
        <time>2014-01-31T09:06:28.000Z</time>
      </trkpt>
      <trkpt lat="45.55694" lon="6.59073">
        <ele>1433.8000488281</ele>
        <time>2014-01-31T09:06:29.000Z</time>
      </trkpt>
      <trkpt lat="45.55693" lon="6.59072">
        <ele>1433.8000488281</ele>
        <time>2014-01-31T09:06:30.000Z</time>
      </trkpt>
      <trkpt lat="45.55694" lon="6.5907">
        <ele>1434</ele>
        <time>2014-01-31T09:06:31.000Z</time>
      </trkpt>
      <trkpt lat="45.55693" lon="6.59069">
        <ele>1434</ele>
        <time>2014-01-31T09:06:32.000Z</time>
      </trkpt>
      <trkpt lat="45.55693" lon="6.59068">
        <ele>1434.1999511719</ele>
        <time>2014-01-31T09:06:33.000Z</time>
      </trkpt>
      <trkpt lat="45.55693" lon="6.59067">
        <ele>1434.4000244141</ele>
        <time>2014-01-31T09:06:34.000Z</time>
      </trkpt>
      <trkpt lat="45.55692" lon="6.59067">
        <ele>1434.4000244141</ele>
        <time>2014-01-31T09:06:35.000Z</time>
      </trkpt>
      <trkpt lat="45.55692" lon="6.59066">
        <ele>1434.5999755859</ele>
        <time>2014-01-31T09:06:36.000Z</time>
      </trkpt>
      <trkpt lat="45.55692" lon="6.59066">
        <ele>1434.5999755859</ele>
        <time>2014-01-31T09:06:37.000Z</time>
      </trkpt>
      <trkpt lat="45.55692" lon="6.59066">
        <ele>1434.5999755859</ele>
        <time>2014-01-31T09:06:38.000Z</time>
      </trkpt>
      <trkpt lat="45.55692" lon="6.59066">
        <ele>1434.5999755859</ele>
        <time>2014-01-31T09:06:39.000Z</time>
      </trkpt>
      <trkpt lat="45.55692" lon="6.59066">
        <ele>1434.8000488281</ele>
        <time>2014-01-31T09:06:40.000Z</time>
      </trkpt>
      <trkpt lat="45.55692" lon="6.59066">
        <ele>1434.8000488281</ele>
        <time>2014-01-31T09:06:41.000Z</time>
      </trkpt>
      <trkpt lat="45.55692" lon="6.59066">
        <ele>1434.8000488281</ele>
        <time>2014-01-31T09:06:42.000Z</time>
      </trkpt>
      <trkpt lat="45.55692" lon="6.59066">
        <ele>1434.8000488281</ele>
        <time>2014-01-31T09:06:43.000Z</time>
      </trkpt>
      <trkpt lat="45.55692" lon="6.59066">
        <ele>1434.8000488281</ele>
        <time>2014-01-31T09:06:44.000Z</time>
      </trkpt>
      <trkpt lat="45.55692" lon="6.59066">
        <ele>1435</ele>
        <time>2014-01-31T09:06:45.000Z</time>
      </trkpt>
      <trkpt lat="45.55692" lon="6.59066">
        <ele>1435.1999511719</ele>
        <time>2014-01-31T09:06:46.000Z</time>
      </trkpt>
      <trkpt lat="45.55692" lon="6.59066">
        <ele>1435.4000244141</ele>
        <time>2014-01-31T09:06:47.000Z</time>
      </trkpt>
      <trkpt lat="45.55692" lon="6.59066">
        <ele>1435.5999755859</ele>
        <time>2014-01-31T09:06:48.000Z</time>
      </trkpt>
      <trkpt lat="45.55692" lon="6.59066">
        <ele>1435.8000488281</ele>
        <time>2014-01-31T09:06:49.000Z</time>
      </trkpt>
      <trkpt lat="45.55692" lon="6.59066">
        <ele>1436.1999511719</ele>
        <time>2014-01-31T09:06:50.000Z</time>
      </trkpt>
      <trkpt lat="45.55692" lon="6.59066">
        <ele>1436.4000244141</ele>
        <time>2014-01-31T09:06:51.000Z</time>
      </trkpt>
      <trkpt lat="45.55692" lon="6.59066">
        <ele>1436.8000488281</ele>
        <time>2014-01-31T09:06:52.000Z</time>
      </trkpt>
      <trkpt lat="45.55692" lon="6.59066">
        <ele>1437</ele>
        <time>2014-01-31T09:06:53.000Z</time>
      </trkpt>
      <trkpt lat="45.55692" lon="6.59066">
        <ele>1437</ele>
        <time>2014-01-31T09:06:54.000Z</time>
      </trkpt>
      <trkpt lat="45.55692" lon="6.59066">
        <ele>1437</ele>
        <time>2014-01-31T09:06:55.000Z</time>
      </trkpt>
      <trkpt lat="45.55692" lon="6.59066">
        <ele>1437</ele>
        <time>2014-01-31T09:06:56.000Z</time>
      </trkpt>
      <trkpt lat="45.55691" lon="6.59064">
        <ele>1437</ele>
        <time>2014-01-31T09:06:57.000Z</time>
      </trkpt>
      <trkpt lat="45.5569" lon="6.59062">
        <ele>1437.1999511719</ele>
        <time>2014-01-31T09:06:58.000Z</time>
      </trkpt>
      <trkpt lat="45.55689" lon="6.5906">
        <ele>1437.4000244141</ele>
        <time>2014-01-31T09:06:59.000Z</time>
      </trkpt>
      <trkpt lat="45.55688" lon="6.59058">
        <ele>1437.5999755859</ele>
        <time>2014-01-31T09:07:00.000Z</time>
      </trkpt>
      <trkpt lat="45.55687" lon="6.59057">
        <ele>1438</ele>
        <time>2014-01-31T09:07:01.000Z</time>
      </trkpt>
      <trkpt lat="45.55686" lon="6.59055">
        <ele>1438.1999511719</ele>
        <time>2014-01-31T09:07:02.000Z</time>
      </trkpt>
      <trkpt lat="45.55686" lon="6.59054">
        <ele>1438.5999755859</ele>
        <time>2014-01-31T09:07:03.000Z</time>
      </trkpt>
      <trkpt lat="45.55685" lon="6.59052">
        <ele>1438.5999755859</ele>
        <time>2014-01-31T09:07:04.000Z</time>
      </trkpt>
      <trkpt lat="45.55684" lon="6.59051">
        <ele>1438.8000488281</ele>
        <time>2014-01-31T09:07:05.000Z</time>
      </trkpt>
      <trkpt lat="45.55683" lon="6.5905">
        <ele>1438.8000488281</ele>
        <time>2014-01-31T09:07:06.000Z</time>
      </trkpt>
      <trkpt lat="45.55682" lon="6.59049">
        <ele>1438.8000488281</ele>
        <time>2014-01-31T09:07:07.000Z</time>
      </trkpt>
      <trkpt lat="45.55681" lon="6.59047">
        <ele>1439</ele>
        <time>2014-01-31T09:07:08.000Z</time>
      </trkpt>
      <trkpt lat="45.55679" lon="6.59046">
        <ele>1439.1999511719</ele>
        <time>2014-01-31T09:07:09.000Z</time>
      </trkpt>
      <trkpt lat="45.55678" lon="6.59043">
        <ele>1439.4000244141</ele>
        <time>2014-01-31T09:07:10.000Z</time>
      </trkpt>
      <trkpt lat="45.55678" lon="6.59042">
        <ele>1439.5999755859</ele>
        <time>2014-01-31T09:07:11.000Z</time>
      </trkpt>
      <trkpt lat="45.55677" lon="6.5904">
        <ele>1439.5999755859</ele>
        <time>2014-01-31T09:07:12.000Z</time>
      </trkpt>
      <trkpt lat="45.55676" lon="6.59038">
        <ele>1439.8000488281</ele>
        <time>2014-01-31T09:07:13.000Z</time>
      </trkpt>
      <trkpt lat="45.55675" lon="6.59038">
        <ele>1440</ele>
        <time>2014-01-31T09:07:14.000Z</time>
      </trkpt>
      <trkpt lat="45.55674" lon="6.59037">
        <ele>1440</ele>
        <time>2014-01-31T09:07:15.000Z</time>
      </trkpt>
      <trkpt lat="45.55673" lon="6.59035">
        <ele>1440</ele>
        <time>2014-01-31T09:07:16.000Z</time>
      </trkpt>
      <trkpt lat="45.55672" lon="6.59034">
        <ele>1440</ele>
        <time>2014-01-31T09:07:17.000Z</time>
      </trkpt>
      <trkpt lat="45.55671" lon="6.59033">
        <ele>1440.1999511719</ele>
        <time>2014-01-31T09:07:18.000Z</time>
      </trkpt>
      <trkpt lat="45.5567" lon="6.59032">
        <ele>1440.4000244141</ele>
        <time>2014-01-31T09:07:19.000Z</time>
      </trkpt>
      <trkpt lat="45.55669" lon="6.5903">
        <ele>1440.5999755859</ele>
        <time>2014-01-31T09:07:20.000Z</time>
      </trkpt>
      <trkpt lat="45.55669" lon="6.59028">
        <ele>1440.5999755859</ele>
        <time>2014-01-31T09:07:21.000Z</time>
      </trkpt>
      <trkpt lat="45.55668" lon="6.59027">
        <ele>1440.8000488281</ele>
        <time>2014-01-31T09:07:22.000Z</time>
      </trkpt>
      <trkpt lat="45.55668" lon="6.59026">
        <ele>1441</ele>
        <time>2014-01-31T09:07:23.000Z</time>
      </trkpt>
      <trkpt lat="45.55668" lon="6.59025">
        <ele>1441</ele>
        <time>2014-01-31T09:07:24.000Z</time>
      </trkpt>
      <trkpt lat="45.55667" lon="6.59024">
        <ele>1441.1999511719</ele>
        <time>2014-01-31T09:07:25.000Z</time>
      </trkpt>
      <trkpt lat="45.55667" lon="6.59023">
        <ele>1441.1999511719</ele>
        <time>2014-01-31T09:07:26.000Z</time>
      </trkpt>
      <trkpt lat="45.55667" lon="6.59021">
        <ele>1441.4000244141</ele>
        <time>2014-01-31T09:07:27.000Z</time>
      </trkpt>
      <trkpt lat="45.55666" lon="6.5902">
        <ele>1441.4000244141</ele>
        <time>2014-01-31T09:07:28.000Z</time>
      </trkpt>
      <trkpt lat="45.55665" lon="6.59017">
        <ele>1441.5999755859</ele>
        <time>2014-01-31T09:07:29.000Z</time>
      </trkpt>
      <trkpt lat="45.55665" lon="6.59017">
        <ele>1441.5999755859</ele>
        <time>2014-01-31T09:07:30.000Z</time>
      </trkpt>
      <trkpt lat="45.55665" lon="6.59015">
        <ele>1441.8000488281</ele>
        <time>2014-01-31T09:07:31.000Z</time>
      </trkpt>
      <trkpt lat="45.55664" lon="6.59013">
        <ele>1442</ele>
        <time>2014-01-31T09:07:32.000Z</time>
      </trkpt>
      <trkpt lat="45.55664" lon="6.59012">
        <ele>1442.1999511719</ele>
        <time>2014-01-31T09:07:33.000Z</time>
      </trkpt>
      <trkpt lat="45.55663" lon="6.59011">
        <ele>1442.4000244141</ele>
        <time>2014-01-31T09:07:34.000Z</time>
      </trkpt>
      <trkpt lat="45.55663" lon="6.5901">
        <ele>1442.4000244141</ele>
        <time>2014-01-31T09:07:35.000Z</time>
      </trkpt>
      <trkpt lat="45.55662" lon="6.59009">
        <ele>1442.5999755859</ele>
        <time>2014-01-31T09:07:36.000Z</time>
      </trkpt>
      <trkpt lat="45.55661" lon="6.59009">
        <ele>1442.8000488281</ele>
        <time>2014-01-31T09:07:37.000Z</time>
      </trkpt>
      <trkpt lat="45.55659" lon="6.59007">
        <ele>1443</ele>
        <time>2014-01-31T09:07:38.000Z</time>
      </trkpt>
      <trkpt lat="45.55658" lon="6.59007">
        <ele>1443.1999511719</ele>
        <time>2014-01-31T09:07:39.000Z</time>
      </trkpt>
      <trkpt lat="45.55657" lon="6.59005">
        <ele>1443.4000244141</ele>
        <time>2014-01-31T09:07:40.000Z</time>
      </trkpt>
      <trkpt lat="45.55657" lon="6.59005">
        <ele>1443.4000244141</ele>
        <time>2014-01-31T09:07:41.000Z</time>
      </trkpt>
      <trkpt lat="45.55657" lon="6.59005">
        <ele>1443.5999755859</ele>
        <time>2014-01-31T09:07:42.000Z</time>
      </trkpt>
      <trkpt lat="45.55656" lon="6.59004">
        <ele>1443.5999755859</ele>
        <time>2014-01-31T09:07:43.000Z</time>
      </trkpt>
      <trkpt lat="45.55656" lon="6.59003">
        <ele>1443.8000488281</ele>
        <time>2014-01-31T09:07:44.000Z</time>
      </trkpt>
      <trkpt lat="45.55655" lon="6.59002">
        <ele>1444</ele>
        <time>2014-01-31T09:07:45.000Z</time>
      </trkpt>
      <trkpt lat="45.55654" lon="6.58999">
        <ele>1444.1999511719</ele>
        <time>2014-01-31T09:07:46.000Z</time>
      </trkpt>
      <trkpt lat="45.55654" lon="6.58999">
        <ele>1444.8000488281</ele>
        <time>2014-01-31T09:07:47.000Z</time>
      </trkpt>
      <trkpt lat="45.55653" lon="6.58997">
        <ele>1445</ele>
        <time>2014-01-31T09:07:48.000Z</time>
      </trkpt>
      <trkpt lat="45.55653" lon="6.58995">
        <ele>1445.1999511719</ele>
        <time>2014-01-31T09:07:49.000Z</time>
      </trkpt>
      <trkpt lat="45.55653" lon="6.58994">
        <ele>1445.4000244141</ele>
        <time>2014-01-31T09:07:50.000Z</time>
      </trkpt>
      <trkpt lat="45.55653" lon="6.58992">
        <ele>1445.5999755859</ele>
        <time>2014-01-31T09:07:51.000Z</time>
      </trkpt>
      <trkpt lat="45.55653" lon="6.5899">
        <ele>1445.8000488281</ele>
        <time>2014-01-31T09:07:52.000Z</time>
      </trkpt>
      <trkpt lat="45.55653" lon="6.58989">
        <ele>1445.8000488281</ele>
        <time>2014-01-31T09:07:53.000Z</time>
      </trkpt>
      <trkpt lat="45.55653" lon="6.58987">
        <ele>1446</ele>
        <time>2014-01-31T09:07:54.000Z</time>
      </trkpt>
      <trkpt lat="45.55653" lon="6.58986">
        <ele>1446.1999511719</ele>
        <time>2014-01-31T09:07:55.000Z</time>
      </trkpt>
      <trkpt lat="45.55653" lon="6.58984">
        <ele>1446.1999511719</ele>
        <time>2014-01-31T09:07:56.000Z</time>
      </trkpt>
      <trkpt lat="45.55652" lon="6.58982">
        <ele>1446.4000244141</ele>
        <time>2014-01-31T09:07:57.000Z</time>
      </trkpt>
      <trkpt lat="45.55652" lon="6.58981">
        <ele>1446.5999755859</ele>
        <time>2014-01-31T09:07:58.000Z</time>
      </trkpt>
      <trkpt lat="45.55652" lon="6.58981">
        <ele>1446.8000488281</ele>
        <time>2014-01-31T09:07:59.000Z</time>
      </trkpt>
      <trkpt lat="45.55651" lon="6.58981">
        <ele>1447</ele>
        <time>2014-01-31T09:08:00.000Z</time>
      </trkpt>
      <trkpt lat="45.55651" lon="6.58981">
        <ele>1447</ele>
        <time>2014-01-31T09:08:01.000Z</time>
      </trkpt>
      <trkpt lat="45.55651" lon="6.5898">
        <ele>1447.1999511719</ele>
        <time>2014-01-31T09:08:02.000Z</time>
      </trkpt>
      <trkpt lat="45.55651" lon="6.5898">
        <ele>1447.1999511719</ele>
        <time>2014-01-31T09:08:03.000Z</time>
      </trkpt>
      <trkpt lat="45.5565" lon="6.58979">
        <ele>1447.4000244141</ele>
        <time>2014-01-31T09:08:04.000Z</time>
      </trkpt>
      <trkpt lat="45.55649" lon="6.58978">
        <ele>1447.4000244141</ele>
        <time>2014-01-31T09:08:05.000Z</time>
      </trkpt>
      <trkpt lat="45.55649" lon="6.58977">
        <ele>1447.5999755859</ele>
        <time>2014-01-31T09:08:06.000Z</time>
      </trkpt>
      <trkpt lat="45.55648" lon="6.58976">
        <ele>1447.8000488281</ele>
        <time>2014-01-31T09:08:07.000Z</time>
      </trkpt>
      <trkpt lat="45.55648" lon="6.58975">
        <ele>1447.8000488281</ele>
        <time>2014-01-31T09:08:08.000Z</time>
      </trkpt>
      <trkpt lat="45.55647" lon="6.58974">
        <ele>1448</ele>
        <time>2014-01-31T09:08:09.000Z</time>
      </trkpt>
      <trkpt lat="45.55647" lon="6.58973">
        <ele>1448.1999511719</ele>
        <time>2014-01-31T09:08:10.000Z</time>
      </trkpt>
      <trkpt lat="45.55647" lon="6.58972">
        <ele>1448.5999755859</ele>
        <time>2014-01-31T09:08:11.000Z</time>
      </trkpt>
      <trkpt lat="45.55647" lon="6.58969">
        <ele>1448.8000488281</ele>
        <time>2014-01-31T09:08:12.000Z</time>
      </trkpt>
      <trkpt lat="45.55647" lon="6.58968">
        <ele>1449</ele>
        <time>2014-01-31T09:08:13.000Z</time>
      </trkpt>
      <trkpt lat="45.55647" lon="6.58968">
        <ele>1449.1999511719</ele>
        <time>2014-01-31T09:08:14.000Z</time>
      </trkpt>
      <trkpt lat="45.55647" lon="6.58967">
        <ele>1449.1999511719</ele>
        <time>2014-01-31T09:08:15.000Z</time>
      </trkpt>
      <trkpt lat="45.55647" lon="6.58966">
        <ele>1449.4000244141</ele>
        <time>2014-01-31T09:08:16.000Z</time>
      </trkpt>
      <trkpt lat="45.55647" lon="6.58964">
        <ele>1449.5999755859</ele>
        <time>2014-01-31T09:08:17.000Z</time>
      </trkpt>
      <trkpt lat="45.55647" lon="6.58964">
        <ele>1449.5999755859</ele>
        <time>2014-01-31T09:08:18.000Z</time>
      </trkpt>
      <trkpt lat="45.55647" lon="6.58964">
        <ele>1449.8000488281</ele>
        <time>2014-01-31T09:08:19.000Z</time>
      </trkpt>
      <trkpt lat="45.55647" lon="6.58963">
        <ele>1450</ele>
        <time>2014-01-31T09:08:20.000Z</time>
      </trkpt>
      <trkpt lat="45.55647" lon="6.58963">
        <ele>1450</ele>
        <time>2014-01-31T09:08:21.000Z</time>
      </trkpt>
      <trkpt lat="45.55647" lon="6.58963">
        <ele>1450.1999511719</ele>
        <time>2014-01-31T09:08:22.000Z</time>
      </trkpt>
      <trkpt lat="45.55647" lon="6.58963">
        <ele>1450.4000244141</ele>
        <time>2014-01-31T09:08:23.000Z</time>
      </trkpt>
      <trkpt lat="45.55647" lon="6.58963">
        <ele>1450.8000488281</ele>
        <time>2014-01-31T09:08:24.000Z</time>
      </trkpt>
      <trkpt lat="45.55647" lon="6.58963">
        <ele>1451</ele>
        <time>2014-01-31T09:08:25.000Z</time>
      </trkpt>
      <trkpt lat="45.55647" lon="6.58963">
        <ele>1451.1999511719</ele>
        <time>2014-01-31T09:08:26.000Z</time>
      </trkpt>
      <trkpt lat="45.55647" lon="6.58963">
        <ele>1451.4000244141</ele>
        <time>2014-01-31T09:08:27.000Z</time>
      </trkpt>
      <trkpt lat="45.55647" lon="6.58961">
        <ele>1451.5999755859</ele>
        <time>2014-01-31T09:08:28.000Z</time>
      </trkpt>
      <trkpt lat="45.55647" lon="6.5896">
        <ele>1451.8000488281</ele>
        <time>2014-01-31T09:08:29.000Z</time>
      </trkpt>
      <trkpt lat="45.55647" lon="6.5896">
        <ele>1452</ele>
        <time>2014-01-31T09:08:30.000Z</time>
      </trkpt>
      <trkpt lat="45.55648" lon="6.58959">
        <ele>1452</ele>
        <time>2014-01-31T09:08:31.000Z</time>
      </trkpt>
      <trkpt lat="45.55648" lon="6.58957">
        <ele>1452.1999511719</ele>
        <time>2014-01-31T09:08:32.000Z</time>
      </trkpt>
      <trkpt lat="45.55648" lon="6.58956">
        <ele>1452.1999511719</ele>
        <time>2014-01-31T09:08:33.000Z</time>
      </trkpt>
      <trkpt lat="45.55647" lon="6.58955">
        <ele>1452.4000244141</ele>
        <time>2014-01-31T09:08:34.000Z</time>
      </trkpt>
      <trkpt lat="45.55647" lon="6.58954">
        <ele>1452.8000488281</ele>
        <time>2014-01-31T09:08:35.000Z</time>
      </trkpt>
      <trkpt lat="45.55647" lon="6.58953">
        <ele>1452.8000488281</ele>
        <time>2014-01-31T09:08:36.000Z</time>
      </trkpt>
      <trkpt lat="45.55647" lon="6.58953">
        <ele>1453</ele>
        <time>2014-01-31T09:08:37.000Z</time>
      </trkpt>
      <trkpt lat="45.55646" lon="6.58952">
        <ele>1453.1999511719</ele>
        <time>2014-01-31T09:08:38.000Z</time>
      </trkpt>
      <trkpt lat="45.55645" lon="6.5895">
        <ele>1453.4000244141</ele>
        <time>2014-01-31T09:08:39.000Z</time>
      </trkpt>
      <trkpt lat="45.55643" lon="6.58946">
        <ele>1453.5999755859</ele>
        <time>2014-01-31T09:08:40.000Z</time>
      </trkpt>
      <trkpt lat="45.55642" lon="6.58945">
        <ele>1453.8000488281</ele>
        <time>2014-01-31T09:08:41.000Z</time>
      </trkpt>
      <trkpt lat="45.55641" lon="6.58944">
        <ele>1454</ele>
        <time>2014-01-31T09:08:42.000Z</time>
      </trkpt>
      <trkpt lat="45.5564" lon="6.58942">
        <ele>1454.1999511719</ele>
        <time>2014-01-31T09:08:43.000Z</time>
      </trkpt>
      <trkpt lat="45.55639" lon="6.5894">
        <ele>1454.4000244141</ele>
        <time>2014-01-31T09:08:44.000Z</time>
      </trkpt>
      <trkpt lat="45.55638" lon="6.58939">
        <ele>1454.4000244141</ele>
        <time>2014-01-31T09:08:45.000Z</time>
      </trkpt>
      <trkpt lat="45.55636" lon="6.58938">
        <ele>1454.5999755859</ele>
        <time>2014-01-31T09:08:46.000Z</time>
      </trkpt>
      <trkpt lat="45.55635" lon="6.58937">
        <ele>1454.5999755859</ele>
        <time>2014-01-31T09:08:47.000Z</time>
      </trkpt>
      <trkpt lat="45.55634" lon="6.58936">
        <ele>1454.8000488281</ele>
        <time>2014-01-31T09:08:48.000Z</time>
      </trkpt>
      <trkpt lat="45.55634" lon="6.58936">
        <ele>1454.8000488281</ele>
        <time>2014-01-31T09:08:49.000Z</time>
      </trkpt>
      <trkpt lat="45.55633" lon="6.58933">
        <ele>1455</ele>
        <time>2014-01-31T09:08:50.000Z</time>
      </trkpt>
      <trkpt lat="45.55632" lon="6.58932">
        <ele>1455</ele>
        <time>2014-01-31T09:08:51.000Z</time>
      </trkpt>
      <trkpt lat="45.55632" lon="6.58932">
        <ele>1455.1999511719</ele>
        <time>2014-01-31T09:08:52.000Z</time>
      </trkpt>
      <trkpt lat="45.55631" lon="6.58931">
        <ele>1455.1999511719</ele>
        <time>2014-01-31T09:08:53.000Z</time>
      </trkpt>
      <trkpt lat="45.5563" lon="6.5893">
        <ele>1455.4000244141</ele>
        <time>2014-01-31T09:08:54.000Z</time>
      </trkpt>
      <trkpt lat="45.5563" lon="6.58928">
        <ele>1455.4000244141</ele>
        <time>2014-01-31T09:08:55.000Z</time>
      </trkpt>
      <trkpt lat="45.55629" lon="6.58925">
        <ele>1455.5999755859</ele>
        <time>2014-01-31T09:08:56.000Z</time>
      </trkpt>
      <trkpt lat="45.55629" lon="6.58924">
        <ele>1455.5999755859</ele>
        <time>2014-01-31T09:08:57.000Z</time>
      </trkpt>
      <trkpt lat="45.55628" lon="6.58922">
        <ele>1455.5999755859</ele>
        <time>2014-01-31T09:08:58.000Z</time>
      </trkpt>
      <trkpt lat="45.55628" lon="6.58921">
        <ele>1455.8000488281</ele>
        <time>2014-01-31T09:08:59.000Z</time>
      </trkpt>
      <trkpt lat="45.55628" lon="6.5892">
        <ele>1455.8000488281</ele>
        <time>2014-01-31T09:09:00.000Z</time>
      </trkpt>
      <trkpt lat="45.55628" lon="6.58919">
        <ele>1456.1999511719</ele>
        <time>2014-01-31T09:09:01.000Z</time>
      </trkpt>
      <trkpt lat="45.55628" lon="6.58918">
        <ele>1456.4000244141</ele>
        <time>2014-01-31T09:09:02.000Z</time>
      </trkpt>
      <trkpt lat="45.55628" lon="6.58917">
        <ele>1456.5999755859</ele>
        <time>2014-01-31T09:09:03.000Z</time>
      </trkpt>
      <trkpt lat="45.55628" lon="6.58917">
        <ele>1456.8000488281</ele>
        <time>2014-01-31T09:09:04.000Z</time>
      </trkpt>
      <trkpt lat="45.55628" lon="6.58916">
        <ele>1457</ele>
        <time>2014-01-31T09:09:05.000Z</time>
      </trkpt>
      <trkpt lat="45.55628" lon="6.58916">
        <ele>1457.1999511719</ele>
        <time>2014-01-31T09:09:06.000Z</time>
      </trkpt>
      <trkpt lat="45.55628" lon="6.58916">
        <ele>1457.4000244141</ele>
        <time>2014-01-31T09:09:07.000Z</time>
      </trkpt>
      <trkpt lat="45.55627" lon="6.58915">
        <ele>1457.5999755859</ele>
        <time>2014-01-31T09:09:08.000Z</time>
      </trkpt>
      <trkpt lat="45.55627" lon="6.58915">
        <ele>1457.8000488281</ele>
        <time>2014-01-31T09:09:09.000Z</time>
      </trkpt>
      <trkpt lat="45.55627" lon="6.58915">
        <ele>1458</ele>
        <time>2014-01-31T09:09:10.000Z</time>
      </trkpt>
      <trkpt lat="45.55627" lon="6.58915">
        <ele>1458.4000244141</ele>
        <time>2014-01-31T09:09:11.000Z</time>
      </trkpt>
      <trkpt lat="45.55627" lon="6.58914">
        <ele>1458.5999755859</ele>
        <time>2014-01-31T09:09:12.000Z</time>
      </trkpt>
      <trkpt lat="45.55627" lon="6.58914">
        <ele>1459</ele>
        <time>2014-01-31T09:09:13.000Z</time>
      </trkpt>
      <trkpt lat="45.55627" lon="6.58911">
        <ele>1459.1999511719</ele>
        <time>2014-01-31T09:09:14.000Z</time>
      </trkpt>
      <trkpt lat="45.55627" lon="6.58911">
        <ele>1459.4000244141</ele>
        <time>2014-01-31T09:09:15.000Z</time>
      </trkpt>
      <trkpt lat="45.55627" lon="6.58911">
        <ele>1459.5999755859</ele>
        <time>2014-01-31T09:09:16.000Z</time>
      </trkpt>
      <trkpt lat="45.55627" lon="6.58911">
        <ele>1459.5999755859</ele>
        <time>2014-01-31T09:09:17.000Z</time>
      </trkpt>
      <trkpt lat="45.55627" lon="6.58911">
        <ele>1459.8000488281</ele>
        <time>2014-01-31T09:09:18.000Z</time>
      </trkpt>
      <trkpt lat="45.55627" lon="6.58911">
        <ele>1459.8000488281</ele>
        <time>2014-01-31T09:09:19.000Z</time>
      </trkpt>
      <trkpt lat="45.55627" lon="6.58911">
        <ele>1460</ele>
        <time>2014-01-31T09:09:20.000Z</time>
      </trkpt>
      <trkpt lat="45.55627" lon="6.58911">
        <ele>1460</ele>
        <time>2014-01-31T09:09:21.000Z</time>
      </trkpt>
      <trkpt lat="45.55627" lon="6.58908">
        <ele>1460.1999511719</ele>
        <time>2014-01-31T09:09:22.000Z</time>
      </trkpt>
      <trkpt lat="45.55628" lon="6.58907">
        <ele>1460.1999511719</ele>
        <time>2014-01-31T09:09:23.000Z</time>
      </trkpt>
      <trkpt lat="45.55629" lon="6.58906">
        <ele>1460.4000244141</ele>
        <time>2014-01-31T09:09:24.000Z</time>
      </trkpt>
      <trkpt lat="45.5563" lon="6.58905">
        <ele>1460.4000244141</ele>
        <time>2014-01-31T09:09:25.000Z</time>
      </trkpt>
      <trkpt lat="45.5563" lon="6.58904">
        <ele>1460.8000488281</ele>
        <time>2014-01-31T09:09:26.000Z</time>
      </trkpt>
      <trkpt lat="45.55631" lon="6.58904">
        <ele>1461</ele>
        <time>2014-01-31T09:09:27.000Z</time>
      </trkpt>
      <trkpt lat="45.55631" lon="6.58903">
        <ele>1461.1999511719</ele>
        <time>2014-01-31T09:09:28.000Z</time>
      </trkpt>
      <trkpt lat="45.55632" lon="6.58903">
        <ele>1461.4000244141</ele>
        <time>2014-01-31T09:09:29.000Z</time>
      </trkpt>
      <trkpt lat="45.55632" lon="6.58903">
        <ele>1461.5999755859</ele>
        <time>2014-01-31T09:09:30.000Z</time>
      </trkpt>
      <trkpt lat="45.55633" lon="6.58902">
        <ele>1461.5999755859</ele>
        <time>2014-01-31T09:09:31.000Z</time>
      </trkpt>
      <trkpt lat="45.55633" lon="6.58902">
        <ele>1461.8000488281</ele>
        <time>2014-01-31T09:09:32.000Z</time>
      </trkpt>
      <trkpt lat="45.55634" lon="6.58901">
        <ele>1462</ele>
        <time>2014-01-31T09:09:33.000Z</time>
      </trkpt>
      <trkpt lat="45.55635" lon="6.58899">
        <ele>1462.1999511719</ele>
        <time>2014-01-31T09:09:34.000Z</time>
      </trkpt>
      <trkpt lat="45.55635" lon="6.58899">
        <ele>1462.4000244141</ele>
        <time>2014-01-31T09:09:35.000Z</time>
      </trkpt>
      <trkpt lat="45.55636" lon="6.58898">
        <ele>1462.5999755859</ele>
        <time>2014-01-31T09:09:36.000Z</time>
      </trkpt>
      <trkpt lat="45.55637" lon="6.58897">
        <ele>1462.8000488281</ele>
        <time>2014-01-31T09:09:37.000Z</time>
      </trkpt>
      <trkpt lat="45.55638" lon="6.58896">
        <ele>1463</ele>
        <time>2014-01-31T09:09:38.000Z</time>
      </trkpt>
      <trkpt lat="45.55638" lon="6.58895">
        <ele>1463.1999511719</ele>
        <time>2014-01-31T09:09:39.000Z</time>
      </trkpt>
      <trkpt lat="45.55639" lon="6.58895">
        <ele>1463.4000244141</ele>
        <time>2014-01-31T09:09:40.000Z</time>
      </trkpt>
      <trkpt lat="45.55639" lon="6.58895">
        <ele>1463.5999755859</ele>
        <time>2014-01-31T09:09:41.000Z</time>
      </trkpt>
      <trkpt lat="45.5564" lon="6.58894">
        <ele>1464</ele>
        <time>2014-01-31T09:09:42.000Z</time>
      </trkpt>
      <trkpt lat="45.5564" lon="6.58894">
        <ele>1464</ele>
        <time>2014-01-31T09:09:43.000Z</time>
      </trkpt>
      <trkpt lat="45.55641" lon="6.58893">
        <ele>1464.1999511719</ele>
        <time>2014-01-31T09:09:44.000Z</time>
      </trkpt>
      <trkpt lat="45.55641" lon="6.58892">
        <ele>1464.1999511719</ele>
        <time>2014-01-31T09:09:45.000Z</time>
      </trkpt>
      <trkpt lat="45.55642" lon="6.5889">
        <ele>1464.5999755859</ele>
        <time>2014-01-31T09:09:46.000Z</time>
      </trkpt>
      <trkpt lat="45.55642" lon="6.58889">
        <ele>1465</ele>
        <time>2014-01-31T09:09:47.000Z</time>
      </trkpt>
      <trkpt lat="45.55643" lon="6.58888">
        <ele>1465.1999511719</ele>
        <time>2014-01-31T09:09:48.000Z</time>
      </trkpt>
      <trkpt lat="45.55643" lon="6.58887">
        <ele>1465.4000244141</ele>
        <time>2014-01-31T09:09:49.000Z</time>
      </trkpt>
      <trkpt lat="45.55644" lon="6.58887">
        <ele>1465.5999755859</ele>
        <time>2014-01-31T09:09:50.000Z</time>
      </trkpt>
      <trkpt lat="45.55645" lon="6.58886">
        <ele>1466</ele>
        <time>2014-01-31T09:09:51.000Z</time>
      </trkpt>
      <trkpt lat="45.55646" lon="6.58886">
        <ele>1466.1999511719</ele>
        <time>2014-01-31T09:09:52.000Z</time>
      </trkpt>
      <trkpt lat="45.55646" lon="6.58886">
        <ele>1466.5999755859</ele>
        <time>2014-01-31T09:09:53.000Z</time>
      </trkpt>
      <trkpt lat="45.55646" lon="6.58886">
        <ele>1466.8000488281</ele>
        <time>2014-01-31T09:09:54.000Z</time>
      </trkpt>
      <trkpt lat="45.55647" lon="6.58885">
        <ele>1467</ele>
        <time>2014-01-31T09:09:55.000Z</time>
      </trkpt>
      <trkpt lat="45.55647" lon="6.58885">
        <ele>1467.1999511719</ele>
        <time>2014-01-31T09:09:56.000Z</time>
      </trkpt>
      <trkpt lat="45.55648" lon="6.58885">
        <ele>1467.5999755859</ele>
        <time>2014-01-31T09:09:57.000Z</time>
      </trkpt>
      <trkpt lat="45.55648" lon="6.58884">
        <ele>1467.5999755859</ele>
        <time>2014-01-31T09:09:58.000Z</time>
      </trkpt>
      <trkpt lat="45.55649" lon="6.58884">
        <ele>1467.8000488281</ele>
        <time>2014-01-31T09:09:59.000Z</time>
      </trkpt>
      <trkpt lat="45.5565" lon="6.58883">
        <ele>1468</ele>
        <time>2014-01-31T09:10:00.000Z</time>
      </trkpt>
      <trkpt lat="45.5565" lon="6.58883">
        <ele>1468.1999511719</ele>
        <time>2014-01-31T09:10:01.000Z</time>
      </trkpt>
      <trkpt lat="45.55651" lon="6.58883">
        <ele>1468.4000244141</ele>
        <time>2014-01-31T09:10:02.000Z</time>
      </trkpt>
      <trkpt lat="45.55652" lon="6.58883">
        <ele>1468.8000488281</ele>
        <time>2014-01-31T09:10:03.000Z</time>
      </trkpt>
      <trkpt lat="45.55652" lon="6.58883">
        <ele>1468.8000488281</ele>
        <time>2014-01-31T09:10:04.000Z</time>
      </trkpt>
      <trkpt lat="45.55652" lon="6.58883">
        <ele>1469</ele>
        <time>2014-01-31T09:10:05.000Z</time>
      </trkpt>
      <trkpt lat="45.55652" lon="6.58883">
        <ele>1469.1999511719</ele>
        <time>2014-01-31T09:10:06.000Z</time>
      </trkpt>
      <trkpt lat="45.55652" lon="6.58883">
        <ele>1469.4000244141</ele>
        <time>2014-01-31T09:10:07.000Z</time>
      </trkpt>
      <trkpt lat="45.55654" lon="6.58883">
        <ele>1469.5999755859</ele>
        <time>2014-01-31T09:10:08.000Z</time>
      </trkpt>
      <trkpt lat="45.55655" lon="6.58883">
        <ele>1469.8000488281</ele>
        <time>2014-01-31T09:10:09.000Z</time>
      </trkpt>
      <trkpt lat="45.55657" lon="6.58883">
        <ele>1470</ele>
        <time>2014-01-31T09:10:10.000Z</time>
      </trkpt>
      <trkpt lat="45.55658" lon="6.58882">
        <ele>1470.1999511719</ele>
        <time>2014-01-31T09:10:11.000Z</time>
      </trkpt>
      <trkpt lat="45.55659" lon="6.58882">
        <ele>1470.4000244141</ele>
        <time>2014-01-31T09:10:12.000Z</time>
      </trkpt>
      <trkpt lat="45.5566" lon="6.58882">
        <ele>1470.4000244141</ele>
        <time>2014-01-31T09:10:13.000Z</time>
      </trkpt>
      <trkpt lat="45.55661" lon="6.58882">
        <ele>1470.5999755859</ele>
        <time>2014-01-31T09:10:14.000Z</time>
      </trkpt>
      <trkpt lat="45.55662" lon="6.58882">
        <ele>1470.8000488281</ele>
        <time>2014-01-31T09:10:15.000Z</time>
      </trkpt>
      <trkpt lat="45.55664" lon="6.58882">
        <ele>1471</ele>
        <time>2014-01-31T09:10:16.000Z</time>
      </trkpt>
      <trkpt lat="45.55664" lon="6.58882">
        <ele>1471.1999511719</ele>
        <time>2014-01-31T09:10:17.000Z</time>
      </trkpt>
      <trkpt lat="45.55665" lon="6.58882">
        <ele>1471.4000244141</ele>
        <time>2014-01-31T09:10:18.000Z</time>
      </trkpt>
      <trkpt lat="45.55665" lon="6.58882">
        <ele>1471.5999755859</ele>
        <time>2014-01-31T09:10:19.000Z</time>
      </trkpt>
      <trkpt lat="45.55666" lon="6.58881">
        <ele>1471.5999755859</ele>
        <time>2014-01-31T09:10:20.000Z</time>
      </trkpt>
      <trkpt lat="45.55667" lon="6.58882">
        <ele>1471.8000488281</ele>
        <time>2014-01-31T09:10:21.000Z</time>
      </trkpt>
      <trkpt lat="45.55668" lon="6.58881">
        <ele>1472</ele>
        <time>2014-01-31T09:10:22.000Z</time>
      </trkpt>
      <trkpt lat="45.55669" lon="6.5888">
        <ele>1472.1999511719</ele>
        <time>2014-01-31T09:10:23.000Z</time>
      </trkpt>
      <trkpt lat="45.55669" lon="6.5888">
        <ele>1472.4000244141</ele>
        <time>2014-01-31T09:10:24.000Z</time>
      </trkpt>
      <trkpt lat="45.5567" lon="6.58879">
        <ele>1472.8000488281</ele>
        <time>2014-01-31T09:10:25.000Z</time>
      </trkpt>
      <trkpt lat="45.5567" lon="6.58878">
        <ele>1472.8000488281</ele>
        <time>2014-01-31T09:10:26.000Z</time>
      </trkpt>
      <trkpt lat="45.55671" lon="6.58878">
        <ele>1473</ele>
        <time>2014-01-31T09:10:27.000Z</time>
      </trkpt>
      <trkpt lat="45.55672" lon="6.58877">
        <ele>1473.1999511719</ele>
        <time>2014-01-31T09:10:28.000Z</time>
      </trkpt>
      <trkpt lat="45.55673" lon="6.58877">
        <ele>1473.4000244141</ele>
        <time>2014-01-31T09:10:29.000Z</time>
      </trkpt>
      <trkpt lat="45.55674" lon="6.58877">
        <ele>1473.4000244141</ele>
        <time>2014-01-31T09:10:30.000Z</time>
      </trkpt>
      <trkpt lat="45.55674" lon="6.58877">
        <ele>1473.5999755859</ele>
        <time>2014-01-31T09:10:31.000Z</time>
      </trkpt>
      <trkpt lat="45.55675" lon="6.58877">
        <ele>1473.8000488281</ele>
        <time>2014-01-31T09:10:32.000Z</time>
      </trkpt>
      <trkpt lat="45.55676" lon="6.58877">
        <ele>1474</ele>
        <time>2014-01-31T09:10:33.000Z</time>
      </trkpt>
      <trkpt lat="45.55676" lon="6.58876">
        <ele>1474.1999511719</ele>
        <time>2014-01-31T09:10:34.000Z</time>
      </trkpt>
      <trkpt lat="45.55677" lon="6.58876">
        <ele>1474.8000488281</ele>
        <time>2014-01-31T09:10:35.000Z</time>
      </trkpt>
      <trkpt lat="45.55678" lon="6.58877">
        <ele>1475</ele>
        <time>2014-01-31T09:10:36.000Z</time>
      </trkpt>
      <trkpt lat="45.5568" lon="6.58877">
        <ele>1475.4000244141</ele>
        <time>2014-01-31T09:10:37.000Z</time>
      </trkpt>
      <trkpt lat="45.55681" lon="6.58876">
        <ele>1475.4000244141</ele>
        <time>2014-01-31T09:10:38.000Z</time>
      </trkpt>
      <trkpt lat="45.55681" lon="6.58875">
        <ele>1475.5999755859</ele>
        <time>2014-01-31T09:10:39.000Z</time>
      </trkpt>
      <trkpt lat="45.55682" lon="6.58875">
        <ele>1475.5999755859</ele>
        <time>2014-01-31T09:10:40.000Z</time>
      </trkpt>
      <trkpt lat="45.55683" lon="6.58876">
        <ele>1475.8000488281</ele>
        <time>2014-01-31T09:10:41.000Z</time>
      </trkpt>
      <trkpt lat="45.55683" lon="6.58875">
        <ele>1476</ele>
        <time>2014-01-31T09:10:42.000Z</time>
      </trkpt>
      <trkpt lat="45.55683" lon="6.58875">
        <ele>1476.1999511719</ele>
        <time>2014-01-31T09:10:43.000Z</time>
      </trkpt>
      <trkpt lat="45.55683" lon="6.58875">
        <ele>1476.4000244141</ele>
        <time>2014-01-31T09:10:44.000Z</time>
      </trkpt>
      <trkpt lat="45.55683" lon="6.58875">
        <ele>1476.4000244141</ele>
        <time>2014-01-31T09:10:45.000Z</time>
      </trkpt>
      <trkpt lat="45.55683" lon="6.58875">
        <ele>1476.5999755859</ele>
        <time>2014-01-31T09:10:46.000Z</time>
      </trkpt>
      <trkpt lat="45.55683" lon="6.58875">
        <ele>1476.8000488281</ele>
        <time>2014-01-31T09:10:47.000Z</time>
      </trkpt>
      <trkpt lat="45.55683" lon="6.58875">
        <ele>1476.8000488281</ele>
        <time>2014-01-31T09:10:48.000Z</time>
      </trkpt>
      <trkpt lat="45.55684" lon="6.58875">
        <ele>1476.8000488281</ele>
        <time>2014-01-31T09:10:49.000Z</time>
      </trkpt>
      <trkpt lat="45.55684" lon="6.58875">
        <ele>1477</ele>
        <time>2014-01-31T09:10:50.000Z</time>
      </trkpt>
      <trkpt lat="45.55685" lon="6.58875">
        <ele>1477</ele>
        <time>2014-01-31T09:10:51.000Z</time>
      </trkpt>
      <trkpt lat="45.55685" lon="6.58875">
        <ele>1477.1999511719</ele>
        <time>2014-01-31T09:10:52.000Z</time>
      </trkpt>
      <trkpt lat="45.55686" lon="6.58875">
        <ele>1477.4000244141</ele>
        <time>2014-01-31T09:10:53.000Z</time>
      </trkpt>
      <trkpt lat="45.55687" lon="6.58875">
        <ele>1477.5999755859</ele>
        <time>2014-01-31T09:10:54.000Z</time>
      </trkpt>
      <trkpt lat="45.55689" lon="6.58876">
        <ele>1477.8000488281</ele>
        <time>2014-01-31T09:10:55.000Z</time>
      </trkpt>
      <trkpt lat="45.55689" lon="6.58875">
        <ele>1478</ele>
        <time>2014-01-31T09:10:56.000Z</time>
      </trkpt>
      <trkpt lat="45.55689" lon="6.58875">
        <ele>1478.1999511719</ele>
        <time>2014-01-31T09:10:57.000Z</time>
      </trkpt>
      <trkpt lat="45.55689" lon="6.58875">
        <ele>1478.4000244141</ele>
        <time>2014-01-31T09:10:58.000Z</time>
      </trkpt>
      <trkpt lat="45.55689" lon="6.58875">
        <ele>1478.5999755859</ele>
        <time>2014-01-31T09:10:59.000Z</time>
      </trkpt>
      <trkpt lat="45.55689" lon="6.58875">
        <ele>1478.8000488281</ele>
        <time>2014-01-31T09:11:00.000Z</time>
      </trkpt>
      <trkpt lat="45.55691" lon="6.58875">
        <ele>1479</ele>
        <time>2014-01-31T09:11:01.000Z</time>
      </trkpt>
      <trkpt lat="45.55693" lon="6.58875">
        <ele>1479.1999511719</ele>
        <time>2014-01-31T09:11:02.000Z</time>
      </trkpt>
      <trkpt lat="45.55695" lon="6.58875">
        <ele>1479.4000244141</ele>
        <time>2014-01-31T09:11:03.000Z</time>
      </trkpt>
      <trkpt lat="45.55697" lon="6.58875">
        <ele>1479.5999755859</ele>
        <time>2014-01-31T09:11:04.000Z</time>
      </trkpt>
      <trkpt lat="45.55698" lon="6.58874">
        <ele>1479.5999755859</ele>
        <time>2014-01-31T09:11:05.000Z</time>
      </trkpt>
      <trkpt lat="45.55699" lon="6.58874">
        <ele>1479.5999755859</ele>
        <time>2014-01-31T09:11:06.000Z</time>
      </trkpt>
      <trkpt lat="45.557" lon="6.58873">
        <ele>1479.8000488281</ele>
        <time>2014-01-31T09:11:07.000Z</time>
      </trkpt>
      <trkpt lat="45.55701" lon="6.58873">
        <ele>1480</ele>
        <time>2014-01-31T09:11:08.000Z</time>
      </trkpt>
      <trkpt lat="45.55702" lon="6.58872">
        <ele>1480.1999511719</ele>
        <time>2014-01-31T09:11:09.000Z</time>
      </trkpt>
      <trkpt lat="45.55703" lon="6.58872">
        <ele>1480.4000244141</ele>
        <time>2014-01-31T09:11:10.000Z</time>
      </trkpt>
      <trkpt lat="45.55704" lon="6.58872">
        <ele>1480.5999755859</ele>
        <time>2014-01-31T09:11:11.000Z</time>
      </trkpt>
      <trkpt lat="45.55706" lon="6.58872">
        <ele>1480.8000488281</ele>
        <time>2014-01-31T09:11:12.000Z</time>
      </trkpt>
      <trkpt lat="45.55707" lon="6.58871">
        <ele>1480.8000488281</ele>
        <time>2014-01-31T09:11:13.000Z</time>
      </trkpt>
      <trkpt lat="45.55708" lon="6.5887">
        <ele>1481</ele>
        <time>2014-01-31T09:11:14.000Z</time>
      </trkpt>
      <trkpt lat="45.55709" lon="6.5887">
        <ele>1481</ele>
        <time>2014-01-31T09:11:15.000Z</time>
      </trkpt>
      <trkpt lat="45.55711" lon="6.58869">
        <ele>1481.1999511719</ele>
        <time>2014-01-31T09:11:16.000Z</time>
      </trkpt>
      <trkpt lat="45.55712" lon="6.58868">
        <ele>1481.1999511719</ele>
        <time>2014-01-31T09:11:17.000Z</time>
      </trkpt>
      <trkpt lat="45.55713" lon="6.58867">
        <ele>1481.1999511719</ele>
        <time>2014-01-31T09:11:18.000Z</time>
      </trkpt>
      <trkpt lat="45.55714" lon="6.58867">
        <ele>1481.1999511719</ele>
        <time>2014-01-31T09:11:19.000Z</time>
      </trkpt>
      <trkpt lat="45.55715" lon="6.58865">
        <ele>1481.1999511719</ele>
        <time>2014-01-31T09:11:20.000Z</time>
      </trkpt>
      <trkpt lat="45.55717" lon="6.58864">
        <ele>1481.4000244141</ele>
        <time>2014-01-31T09:11:21.000Z</time>
      </trkpt>
      <trkpt lat="45.55717" lon="6.58863">
        <ele>1481.4000244141</ele>
        <time>2014-01-31T09:11:22.000Z</time>
      </trkpt>
      <trkpt lat="45.55718" lon="6.58862">
        <ele>1482</ele>
        <time>2014-01-31T09:11:23.000Z</time>
      </trkpt>
      <trkpt lat="45.55719" lon="6.58861">
        <ele>1482.1999511719</ele>
        <time>2014-01-31T09:11:24.000Z</time>
      </trkpt>
      <trkpt lat="45.55719" lon="6.5886">
        <ele>1482.1999511719</ele>
        <time>2014-01-31T09:11:25.000Z</time>
      </trkpt>
      <trkpt lat="45.5572" lon="6.58859">
        <ele>1482.4000244141</ele>
        <time>2014-01-31T09:11:26.000Z</time>
      </trkpt>
      <trkpt lat="45.5572" lon="6.58858">
        <ele>1482.5999755859</ele>
        <time>2014-01-31T09:11:27.000Z</time>
      </trkpt>
      <trkpt lat="45.55721" lon="6.58858">
        <ele>1482.8000488281</ele>
        <time>2014-01-31T09:11:28.000Z</time>
      </trkpt>
      <trkpt lat="45.55722" lon="6.58857">
        <ele>1483</ele>
        <time>2014-01-31T09:11:29.000Z</time>
      </trkpt>
      <trkpt lat="45.55722" lon="6.58857">
        <ele>1483.4000244141</ele>
        <time>2014-01-31T09:11:30.000Z</time>
      </trkpt>
      <trkpt lat="45.55723" lon="6.58857">
        <ele>1483.5999755859</ele>
        <time>2014-01-31T09:11:31.000Z</time>
      </trkpt>
      <trkpt lat="45.55724" lon="6.58856">
        <ele>1483.8000488281</ele>
        <time>2014-01-31T09:11:32.000Z</time>
      </trkpt>
      <trkpt lat="45.55724" lon="6.58855">
        <ele>1484</ele>
        <time>2014-01-31T09:11:33.000Z</time>
      </trkpt>
      <trkpt lat="45.55725" lon="6.58856">
        <ele>1484.1999511719</ele>
        <time>2014-01-31T09:11:34.000Z</time>
      </trkpt>
      <trkpt lat="45.55726" lon="6.58855">
        <ele>1484.4000244141</ele>
        <time>2014-01-31T09:11:35.000Z</time>
      </trkpt>
      <trkpt lat="45.55727" lon="6.58855">
        <ele>1484.4000244141</ele>
        <time>2014-01-31T09:11:36.000Z</time>
      </trkpt>
      <trkpt lat="45.55728" lon="6.58855">
        <ele>1484.4000244141</ele>
        <time>2014-01-31T09:11:37.000Z</time>
      </trkpt>
      <trkpt lat="45.55728" lon="6.58855">
        <ele>1484.5999755859</ele>
        <time>2014-01-31T09:11:38.000Z</time>
      </trkpt>
      <trkpt lat="45.55729" lon="6.58854">
        <ele>1484.8000488281</ele>
        <time>2014-01-31T09:11:39.000Z</time>
      </trkpt>
      <trkpt lat="45.55729" lon="6.58854">
        <ele>1485.1999511719</ele>
        <time>2014-01-31T09:11:40.000Z</time>
      </trkpt>
      <trkpt lat="45.55729" lon="6.58854">
        <ele>1485.4000244141</ele>
        <time>2014-01-31T09:11:41.000Z</time>
      </trkpt>
      <trkpt lat="45.55729" lon="6.58854">
        <ele>1485.5999755859</ele>
        <time>2014-01-31T09:11:42.000Z</time>
      </trkpt>
      <trkpt lat="45.55729" lon="6.58854">
        <ele>1485.8000488281</ele>
        <time>2014-01-31T09:11:43.000Z</time>
      </trkpt>
      <trkpt lat="45.55729" lon="6.58854">
        <ele>1486.1999511719</ele>
        <time>2014-01-31T09:11:44.000Z</time>
      </trkpt>
      <trkpt lat="45.55729" lon="6.58854">
        <ele>1486.4000244141</ele>
        <time>2014-01-31T09:11:45.000Z</time>
      </trkpt>
      <trkpt lat="45.55729" lon="6.58854">
        <ele>1486.5999755859</ele>
        <time>2014-01-31T09:11:46.000Z</time>
      </trkpt>
      <trkpt lat="45.55729" lon="6.58854">
        <ele>1486.8000488281</ele>
        <time>2014-01-31T09:11:47.000Z</time>
      </trkpt>
      <trkpt lat="45.5573" lon="6.58854">
        <ele>1486.8000488281</ele>
        <time>2014-01-31T09:11:48.000Z</time>
      </trkpt>
      <trkpt lat="45.55731" lon="6.58854">
        <ele>1487</ele>
        <time>2014-01-31T09:11:49.000Z</time>
      </trkpt>
      <trkpt lat="45.55732" lon="6.58853">
        <ele>1487</ele>
        <time>2014-01-31T09:11:50.000Z</time>
      </trkpt>
      <trkpt lat="45.55733" lon="6.58852">
        <ele>1487</ele>
        <time>2014-01-31T09:11:51.000Z</time>
      </trkpt>
      <trkpt lat="45.55734" lon="6.58852">
        <ele>1487.1999511719</ele>
        <time>2014-01-31T09:11:52.000Z</time>
      </trkpt>
      <trkpt lat="45.55735" lon="6.58852">
        <ele>1487.1999511719</ele>
        <time>2014-01-31T09:11:53.000Z</time>
      </trkpt>
      <trkpt lat="45.55736" lon="6.58852">
        <ele>1487.4000244141</ele>
        <time>2014-01-31T09:11:54.000Z</time>
      </trkpt>
      <trkpt lat="45.55737" lon="6.58852">
        <ele>1487.5999755859</ele>
        <time>2014-01-31T09:11:55.000Z</time>
      </trkpt>
      <trkpt lat="45.55738" lon="6.58851">
        <ele>1487.8000488281</ele>
        <time>2014-01-31T09:11:56.000Z</time>
      </trkpt>
      <trkpt lat="45.55739" lon="6.5885">
        <ele>1488</ele>
        <time>2014-01-31T09:11:57.000Z</time>
      </trkpt>
      <trkpt lat="45.5574" lon="6.58849">
        <ele>1488.1999511719</ele>
        <time>2014-01-31T09:11:58.000Z</time>
      </trkpt>
      <trkpt lat="45.5574" lon="6.58848">
        <ele>1488.1999511719</ele>
        <time>2014-01-31T09:11:59.000Z</time>
      </trkpt>
      <trkpt lat="45.55741" lon="6.58847">
        <ele>1488.4000244141</ele>
        <time>2014-01-31T09:12:00.000Z</time>
      </trkpt>
      <trkpt lat="45.55742" lon="6.58845">
        <ele>1488.4000244141</ele>
        <time>2014-01-31T09:12:01.000Z</time>
      </trkpt>
      <trkpt lat="45.55743" lon="6.58843">
        <ele>1488.5999755859</ele>
        <time>2014-01-31T09:12:02.000Z</time>
      </trkpt>
      <trkpt lat="45.55744" lon="6.58841">
        <ele>1489</ele>
        <time>2014-01-31T09:12:03.000Z</time>
      </trkpt>
      <trkpt lat="45.55745" lon="6.5884">
        <ele>1489.1999511719</ele>
        <time>2014-01-31T09:12:04.000Z</time>
      </trkpt>
      <trkpt lat="45.55745" lon="6.58839">
        <ele>1489.4000244141</ele>
        <time>2014-01-31T09:12:05.000Z</time>
      </trkpt>
      <trkpt lat="45.55745" lon="6.58839">
        <ele>1489.5999755859</ele>
        <time>2014-01-31T09:12:06.000Z</time>
      </trkpt>
      <trkpt lat="45.55746" lon="6.58838">
        <ele>1489.8000488281</ele>
        <time>2014-01-31T09:12:07.000Z</time>
      </trkpt>
      <trkpt lat="45.55747" lon="6.58837">
        <ele>1490</ele>
        <time>2014-01-31T09:12:08.000Z</time>
      </trkpt>
      <trkpt lat="45.55747" lon="6.58835">
        <ele>1490.1999511719</ele>
        <time>2014-01-31T09:12:09.000Z</time>
      </trkpt>
      <trkpt lat="45.55748" lon="6.58834">
        <ele>1490.1999511719</ele>
        <time>2014-01-31T09:12:10.000Z</time>
      </trkpt>
      <trkpt lat="45.55748" lon="6.58833">
        <ele>1490.4000244141</ele>
        <time>2014-01-31T09:12:11.000Z</time>
      </trkpt>
      <trkpt lat="45.55748" lon="6.58832">
        <ele>1490.5999755859</ele>
        <time>2014-01-31T09:12:12.000Z</time>
      </trkpt>
      <trkpt lat="45.55748" lon="6.58832">
        <ele>1490.8000488281</ele>
        <time>2014-01-31T09:12:13.000Z</time>
      </trkpt>
      <trkpt lat="45.55748" lon="6.58831">
        <ele>1491</ele>
        <time>2014-01-31T09:12:14.000Z</time>
      </trkpt>
      <trkpt lat="45.55748" lon="6.5883">
        <ele>1491.1999511719</ele>
        <time>2014-01-31T09:12:15.000Z</time>
      </trkpt>
      <trkpt lat="45.55749" lon="6.58829">
        <ele>1491.4000244141</ele>
        <time>2014-01-31T09:12:16.000Z</time>
      </trkpt>
      <trkpt lat="45.55749" lon="6.58829">
        <ele>1491.4000244141</ele>
        <time>2014-01-31T09:12:17.000Z</time>
      </trkpt>
      <trkpt lat="45.55749" lon="6.58828">
        <ele>1491.5999755859</ele>
        <time>2014-01-31T09:12:18.000Z</time>
      </trkpt>
      <trkpt lat="45.5575" lon="6.58827">
        <ele>1491.8000488281</ele>
        <time>2014-01-31T09:12:19.000Z</time>
      </trkpt>
      <trkpt lat="45.5575" lon="6.58826">
        <ele>1492</ele>
        <time>2014-01-31T09:12:20.000Z</time>
      </trkpt>
      <trkpt lat="45.55751" lon="6.58825">
        <ele>1492.4000244141</ele>
        <time>2014-01-31T09:12:21.000Z</time>
      </trkpt>
      <trkpt lat="45.55752" lon="6.58825">
        <ele>1492.5999755859</ele>
        <time>2014-01-31T09:12:22.000Z</time>
      </trkpt>
      <trkpt lat="45.55753" lon="6.58824">
        <ele>1492.8000488281</ele>
        <time>2014-01-31T09:12:23.000Z</time>
      </trkpt>
      <trkpt lat="45.55754" lon="6.58824">
        <ele>1493</ele>
        <time>2014-01-31T09:12:24.000Z</time>
      </trkpt>
      <trkpt lat="45.55755" lon="6.58825">
        <ele>1493.1999511719</ele>
        <time>2014-01-31T09:12:25.000Z</time>
      </trkpt>
      <trkpt lat="45.55756" lon="6.58826">
        <ele>1493.1999511719</ele>
        <time>2014-01-31T09:12:26.000Z</time>
      </trkpt>
      <trkpt lat="45.55757" lon="6.58827">
        <ele>1493.4000244141</ele>
        <time>2014-01-31T09:12:27.000Z</time>
      </trkpt>
      <trkpt lat="45.55757" lon="6.58827">
        <ele>1493.4000244141</ele>
        <time>2014-01-31T09:12:28.000Z</time>
      </trkpt>
      <trkpt lat="45.55757" lon="6.58827">
        <ele>1493.4000244141</ele>
        <time>2014-01-31T09:12:29.000Z</time>
      </trkpt>
      <trkpt lat="45.55756" lon="6.58827">
        <ele>1493.5999755859</ele>
        <time>2014-01-31T09:12:30.000Z</time>
      </trkpt>
      <trkpt lat="45.55756" lon="6.58828">
        <ele>1493.8000488281</ele>
        <time>2014-01-31T09:12:31.000Z</time>
      </trkpt>
      <trkpt lat="45.55755" lon="6.5883">
        <ele>1493.8000488281</ele>
        <time>2014-01-31T09:12:32.000Z</time>
      </trkpt>
      <trkpt lat="45.55755" lon="6.58831">
        <ele>1494</ele>
        <time>2014-01-31T09:12:33.000Z</time>
      </trkpt>
      <trkpt lat="45.55754" lon="6.58832">
        <ele>1494.1999511719</ele>
        <time>2014-01-31T09:12:34.000Z</time>
      </trkpt>
      <trkpt lat="45.55754" lon="6.58833">
        <ele>1494.8000488281</ele>
        <time>2014-01-31T09:12:35.000Z</time>
      </trkpt>
      <trkpt lat="45.55754" lon="6.58834">
        <ele>1495</ele>
        <time>2014-01-31T09:12:36.000Z</time>
      </trkpt>
      <trkpt lat="45.55754" lon="6.58834">
        <ele>1495.1999511719</ele>
        <time>2014-01-31T09:12:37.000Z</time>
      </trkpt>
      <trkpt lat="45.55753" lon="6.58835">
        <ele>1495.4000244141</ele>
        <time>2014-01-31T09:12:38.000Z</time>
      </trkpt>
      <trkpt lat="45.55752" lon="6.58835">
        <ele>1495.1999511719</ele>
        <time>2014-01-31T09:12:39.000Z</time>
      </trkpt>
      <trkpt lat="45.55752" lon="6.58836">
        <ele>1495.1999511719</ele>
        <time>2014-01-31T09:12:40.000Z</time>
      </trkpt>
      <trkpt lat="45.55751" lon="6.58837">
        <ele>1495.1999511719</ele>
        <time>2014-01-31T09:12:41.000Z</time>
      </trkpt>
      <trkpt lat="45.55751" lon="6.58838">
        <ele>1495.4000244141</ele>
        <time>2014-01-31T09:12:42.000Z</time>
      </trkpt>
      <trkpt lat="45.55751" lon="6.5884">
        <ele>1495.4000244141</ele>
        <time>2014-01-31T09:12:43.000Z</time>
      </trkpt>
      <trkpt lat="45.55752" lon="6.58841">
        <ele>1495.5999755859</ele>
        <time>2014-01-31T09:12:44.000Z</time>
      </trkpt>
      <trkpt lat="45.55752" lon="6.58842">
        <ele>1495.8000488281</ele>
        <time>2014-01-31T09:12:45.000Z</time>
      </trkpt>
      <trkpt lat="45.55752" lon="6.58844">
        <ele>1496</ele>
        <time>2014-01-31T09:12:46.000Z</time>
      </trkpt>
      <trkpt lat="45.55752" lon="6.58844">
        <ele>1496</ele>
        <time>2014-01-31T09:12:47.000Z</time>
      </trkpt>
      <trkpt lat="45.55752" lon="6.58844">
        <ele>1496</ele>
        <time>2014-01-31T09:12:48.000Z</time>
      </trkpt>
      <trkpt lat="45.55752" lon="6.58844">
        <ele>1496</ele>
        <time>2014-01-31T09:12:49.000Z</time>
      </trkpt>
      <trkpt lat="45.55752" lon="6.58844">
        <ele>1496</ele>
        <time>2014-01-31T09:12:50.000Z</time>
      </trkpt>
      <trkpt lat="45.55752" lon="6.58844">
        <ele>1496</ele>
        <time>2014-01-31T09:12:51.000Z</time>
      </trkpt>
      <trkpt lat="45.55752" lon="6.58844">
        <ele>1496</ele>
        <time>2014-01-31T09:12:52.000Z</time>
      </trkpt>
      <trkpt lat="45.55752" lon="6.58844">
        <ele>1495.8000488281</ele>
        <time>2014-01-31T09:12:53.000Z</time>
      </trkpt>
      <trkpt lat="45.55752" lon="6.58844">
        <ele>1495.8000488281</ele>
        <time>2014-01-31T09:12:54.000Z</time>
      </trkpt>
      <trkpt lat="45.55752" lon="6.58844">
        <ele>1495.8000488281</ele>
        <time>2014-01-31T09:12:55.000Z</time>
      </trkpt>
      <trkpt lat="45.55752" lon="6.58844">
        <ele>1495.8000488281</ele>
        <time>2014-01-31T09:12:58.000Z</time>
      </trkpt>
      <trkpt lat="45.55752" lon="6.58844">
        <ele>1495.8000488281</ele>
        <time>2014-01-31T09:13:01.000Z</time>
      </trkpt>
      <trkpt lat="45.55752" lon="6.58844">
        <ele>1495.8000488281</ele>
        <time>2014-01-31T09:13:02.000Z</time>
      </trkpt>
      <trkpt lat="45.55752" lon="6.58844">
        <ele>1495.8000488281</ele>
        <time>2014-01-31T09:13:03.000Z</time>
      </trkpt>
      <trkpt lat="45.55752" lon="6.58844">
        <ele>1495.5999755859</ele>
        <time>2014-01-31T09:13:04.000Z</time>
      </trkpt>
      <trkpt lat="45.55752" lon="6.58844">
        <ele>1495.5999755859</ele>
        <time>2014-01-31T09:13:05.000Z</time>
      </trkpt>
      <trkpt lat="45.55752" lon="6.58844">
        <ele>1495.5999755859</ele>
        <time>2014-01-31T09:13:06.000Z</time>
      </trkpt>
      <trkpt lat="45.55752" lon="6.58844">
        <ele>1495.5999755859</ele>
        <time>2014-01-31T09:13:07.000Z</time>
      </trkpt>
      <trkpt lat="45.55752" lon="6.58844">
        <ele>1495.5999755859</ele>
        <time>2014-01-31T09:13:08.000Z</time>
      </trkpt>
      <trkpt lat="45.55752" lon="6.58844">
        <ele>1495.5999755859</ele>
        <time>2014-01-31T09:13:12.000Z</time>
      </trkpt>
      <trkpt lat="45.55752" lon="6.58844">
        <ele>1495.5999755859</ele>
        <time>2014-01-31T09:13:13.000Z</time>
      </trkpt>
      <trkpt lat="45.55752" lon="6.58844">
        <ele>1495.5999755859</ele>
        <time>2014-01-31T09:13:14.000Z</time>
      </trkpt>
      <trkpt lat="45.55752" lon="6.58843">
        <ele>1495.5999755859</ele>
        <time>2014-01-31T09:13:15.000Z</time>
      </trkpt>
      <trkpt lat="45.55753" lon="6.58843">
        <ele>1495.5999755859</ele>
        <time>2014-01-31T09:13:16.000Z</time>
      </trkpt>
      <trkpt lat="45.55753" lon="6.58842">
        <ele>1495.5999755859</ele>
        <time>2014-01-31T09:13:17.000Z</time>
      </trkpt>
      <trkpt lat="45.55754" lon="6.58841">
        <ele>1495.8000488281</ele>
        <time>2014-01-31T09:13:18.000Z</time>
      </trkpt>
      <trkpt lat="45.55754" lon="6.58841">
        <ele>1495.8000488281</ele>
        <time>2014-01-31T09:13:19.000Z</time>
      </trkpt>
      <trkpt lat="45.55754" lon="6.58841">
        <ele>1495.8000488281</ele>
        <time>2014-01-31T09:13:20.000Z</time>
      </trkpt>
      <trkpt lat="45.55754" lon="6.58841">
        <ele>1495.8000488281</ele>
        <time>2014-01-31T09:13:21.000Z</time>
      </trkpt>
      <trkpt lat="45.55754" lon="6.58841">
        <ele>1495.8000488281</ele>
        <time>2014-01-31T09:13:22.000Z</time>
      </trkpt>
      <trkpt lat="45.55754" lon="6.58841">
        <ele>1496</ele>
        <time>2014-01-31T09:13:23.000Z</time>
      </trkpt>
      <trkpt lat="45.55754" lon="6.58841">
        <ele>1496</ele>
        <time>2014-01-31T09:13:24.000Z</time>
      </trkpt>
      <trkpt lat="45.55754" lon="6.58841">
        <ele>1496</ele>
        <time>2014-01-31T09:13:25.000Z</time>
      </trkpt>
      <trkpt lat="45.55754" lon="6.58841">
        <ele>1496</ele>
        <time>2014-01-31T09:13:26.000Z</time>
      </trkpt>
      <trkpt lat="45.55754" lon="6.58841">
        <ele>1496</ele>
        <time>2014-01-31T09:13:27.000Z</time>
      </trkpt>
      <trkpt lat="45.55754" lon="6.58841">
        <ele>1496</ele>
        <time>2014-01-31T09:13:28.000Z</time>
      </trkpt>
      <trkpt lat="45.55754" lon="6.58841">
        <ele>1496</ele>
        <time>2014-01-31T09:13:29.000Z</time>
      </trkpt>
      <trkpt lat="45.55754" lon="6.58841">
        <ele>1496</ele>
        <time>2014-01-31T09:13:30.000Z</time>
      </trkpt>
      <trkpt lat="45.55754" lon="6.58841">
        <ele>1496</ele>
        <time>2014-01-31T09:13:31.000Z</time>
      </trkpt>
      <trkpt lat="45.55754" lon="6.58841">
        <ele>1496</ele>
        <time>2014-01-31T09:13:33.000Z</time>
      </trkpt>
      <trkpt lat="45.55754" lon="6.58841">
        <ele>1496</ele>
        <time>2014-01-31T09:13:34.000Z</time>
      </trkpt>
      <trkpt lat="45.55754" lon="6.58841">
        <ele>1496</ele>
        <time>2014-01-31T09:13:35.000Z</time>
      </trkpt>
      <trkpt lat="45.55754" lon="6.58841">
        <ele>1496.1999511719</ele>
        <time>2014-01-31T09:13:36.000Z</time>
      </trkpt>
      <trkpt lat="45.55754" lon="6.58841">
        <ele>1496.1999511719</ele>
        <time>2014-01-31T09:13:37.000Z</time>
      </trkpt>
      <trkpt lat="45.55754" lon="6.58842">
        <ele>1496.4000244141</ele>
        <time>2014-01-31T09:13:38.000Z</time>
      </trkpt>
      <trkpt lat="45.55754" lon="6.58844">
        <ele>1496.5999755859</ele>
        <time>2014-01-31T09:13:39.000Z</time>
      </trkpt>
      <trkpt lat="45.55753" lon="6.58845">
        <ele>1496.5999755859</ele>
        <time>2014-01-31T09:13:40.000Z</time>
      </trkpt>
      <trkpt lat="45.55753" lon="6.58846">
        <ele>1496.8000488281</ele>
        <time>2014-01-31T09:13:41.000Z</time>
      </trkpt>
      <trkpt lat="45.55752" lon="6.58847">
        <ele>1497</ele>
        <time>2014-01-31T09:13:42.000Z</time>
      </trkpt>
      <trkpt lat="45.55752" lon="6.58849">
        <ele>1497.1999511719</ele>
        <time>2014-01-31T09:13:43.000Z</time>
      </trkpt>
      <trkpt lat="45.55752" lon="6.58849">
        <ele>1497.4000244141</ele>
        <time>2014-01-31T09:13:44.000Z</time>
      </trkpt>
      <trkpt lat="45.55752" lon="6.58849">
        <ele>1497.4000244141</ele>
        <time>2014-01-31T09:13:45.000Z</time>
      </trkpt>
      <trkpt lat="45.55752" lon="6.58849">
        <ele>1497.5999755859</ele>
        <time>2014-01-31T09:13:46.000Z</time>
      </trkpt>
      <trkpt lat="45.55752" lon="6.58849">
        <ele>1497.8000488281</ele>
        <time>2014-01-31T09:13:47.000Z</time>
      </trkpt>
      <trkpt lat="45.55752" lon="6.58849">
        <ele>1498</ele>
        <time>2014-01-31T09:13:48.000Z</time>
      </trkpt>
      <trkpt lat="45.55751" lon="6.58849">
        <ele>1498.1999511719</ele>
        <time>2014-01-31T09:13:49.000Z</time>
      </trkpt>
      <trkpt lat="45.55751" lon="6.5885">
        <ele>1498.4000244141</ele>
        <time>2014-01-31T09:13:50.000Z</time>
      </trkpt>
      <trkpt lat="45.55751" lon="6.58851">
        <ele>1498.5999755859</ele>
        <time>2014-01-31T09:13:51.000Z</time>
      </trkpt>
      <trkpt lat="45.5575" lon="6.58851">
        <ele>1498.8000488281</ele>
        <time>2014-01-31T09:13:52.000Z</time>
      </trkpt>
      <trkpt lat="45.5575" lon="6.58853">
        <ele>1499</ele>
        <time>2014-01-31T09:13:53.000Z</time>
      </trkpt>
      <trkpt lat="45.5575" lon="6.58854">
        <ele>1499</ele>
        <time>2014-01-31T09:13:54.000Z</time>
      </trkpt>
      <trkpt lat="45.55749" lon="6.58856">
        <ele>1499.1999511719</ele>
        <time>2014-01-31T09:13:55.000Z</time>
      </trkpt>
      <trkpt lat="45.55748" lon="6.58858">
        <ele>1499.1999511719</ele>
        <time>2014-01-31T09:13:56.000Z</time>
      </trkpt>
      <trkpt lat="45.55748" lon="6.58859">
        <ele>1499.4000244141</ele>
        <time>2014-01-31T09:13:57.000Z</time>
      </trkpt>
      <trkpt lat="45.55747" lon="6.5886">
        <ele>1499.5999755859</ele>
        <time>2014-01-31T09:13:58.000Z</time>
      </trkpt>
      <trkpt lat="45.55747" lon="6.58861">
        <ele>1499.8000488281</ele>
        <time>2014-01-31T09:13:59.000Z</time>
      </trkpt>
      <trkpt lat="45.55745" lon="6.58862">
        <ele>1500</ele>
        <time>2014-01-31T09:14:00.000Z</time>
      </trkpt>
      <trkpt lat="45.55744" lon="6.58862">
        <ele>1500</ele>
        <time>2014-01-31T09:14:01.000Z</time>
      </trkpt>
      <trkpt lat="45.55743" lon="6.58863">
        <ele>1500.1999511719</ele>
        <time>2014-01-31T09:14:02.000Z</time>
      </trkpt>
      <trkpt lat="45.55743" lon="6.58864">
        <ele>1500.4000244141</ele>
        <time>2014-01-31T09:14:03.000Z</time>
      </trkpt>
      <trkpt lat="45.55742" lon="6.58864">
        <ele>1500.4000244141</ele>
        <time>2014-01-31T09:14:04.000Z</time>
      </trkpt>
      <trkpt lat="45.55741" lon="6.58865">
        <ele>1500.5999755859</ele>
        <time>2014-01-31T09:14:05.000Z</time>
      </trkpt>
      <trkpt lat="45.5574" lon="6.58866">
        <ele>1500.8000488281</ele>
        <time>2014-01-31T09:14:06.000Z</time>
      </trkpt>
      <trkpt lat="45.5574" lon="6.58867">
        <ele>1501</ele>
        <time>2014-01-31T09:14:07.000Z</time>
      </trkpt>
      <trkpt lat="45.55739" lon="6.58867">
        <ele>1501</ele>
        <time>2014-01-31T09:14:08.000Z</time>
      </trkpt>
      <trkpt lat="45.55739" lon="6.58868">
        <ele>1501.1999511719</ele>
        <time>2014-01-31T09:14:09.000Z</time>
      </trkpt>
      <trkpt lat="45.55738" lon="6.58868">
        <ele>1501.4000244141</ele>
        <time>2014-01-31T09:14:10.000Z</time>
      </trkpt>
      <trkpt lat="45.55738" lon="6.58868">
        <ele>1501.5999755859</ele>
        <time>2014-01-31T09:14:11.000Z</time>
      </trkpt>
      <trkpt lat="45.55738" lon="6.58869">
        <ele>1502</ele>
        <time>2014-01-31T09:14:12.000Z</time>
      </trkpt>
      <trkpt lat="45.55738" lon="6.58869">
        <ele>1502.1999511719</ele>
        <time>2014-01-31T09:14:13.000Z</time>
      </trkpt>
      <trkpt lat="45.55738" lon="6.58869">
        <ele>1502.1999511719</ele>
        <time>2014-01-31T09:14:14.000Z</time>
      </trkpt>
      <trkpt lat="45.55738" lon="6.58869">
        <ele>1502.1999511719</ele>
        <time>2014-01-31T09:14:15.000Z</time>
      </trkpt>
      <trkpt lat="45.55738" lon="6.5887">
        <ele>1502.1999511719</ele>
        <time>2014-01-31T09:14:16.000Z</time>
      </trkpt>
      <trkpt lat="45.55738" lon="6.5887">
        <ele>1502.1999511719</ele>
        <time>2014-01-31T09:14:17.000Z</time>
      </trkpt>
      <trkpt lat="45.55737" lon="6.58871">
        <ele>1502</ele>
        <time>2014-01-31T09:14:18.000Z</time>
      </trkpt>
      <trkpt lat="45.55736" lon="6.58873">
        <ele>1502</ele>
        <time>2014-01-31T09:14:19.000Z</time>
      </trkpt>
      <trkpt lat="45.55736" lon="6.58873">
        <ele>1502</ele>
        <time>2014-01-31T09:14:20.000Z</time>
      </trkpt>
      <trkpt lat="45.55735" lon="6.58875">
        <ele>1502.1999511719</ele>
        <time>2014-01-31T09:14:21.000Z</time>
      </trkpt>
      <trkpt lat="45.55735" lon="6.58877">
        <ele>1502.4000244141</ele>
        <time>2014-01-31T09:14:22.000Z</time>
      </trkpt>
      <trkpt lat="45.55735" lon="6.58877">
        <ele>1502.8000488281</ele>
        <time>2014-01-31T09:14:23.000Z</time>
      </trkpt>
      <trkpt lat="45.55734" lon="6.58878">
        <ele>1503.1999511719</ele>
        <time>2014-01-31T09:14:24.000Z</time>
      </trkpt>
      <trkpt lat="45.55734" lon="6.58879">
        <ele>1503.4000244141</ele>
        <time>2014-01-31T09:14:25.000Z</time>
      </trkpt>
      <trkpt lat="45.55733" lon="6.5888">
        <ele>1503.5999755859</ele>
        <time>2014-01-31T09:14:26.000Z</time>
      </trkpt>
      <trkpt lat="45.55732" lon="6.58881">
        <ele>1503.8000488281</ele>
        <time>2014-01-31T09:14:27.000Z</time>
      </trkpt>
      <trkpt lat="45.55732" lon="6.58882">
        <ele>1504</ele>
        <time>2014-01-31T09:14:28.000Z</time>
      </trkpt>
      <trkpt lat="45.55732" lon="6.58882">
        <ele>1504.1999511719</ele>
        <time>2014-01-31T09:14:29.000Z</time>
      </trkpt>
      <trkpt lat="45.55732" lon="6.58882">
        <ele>1504.4000244141</ele>
        <time>2014-01-31T09:14:30.000Z</time>
      </trkpt>
      <trkpt lat="45.55732" lon="6.58882">
        <ele>1504.5999755859</ele>
        <time>2014-01-31T09:14:31.000Z</time>
      </trkpt>
      <trkpt lat="45.55732" lon="6.58882">
        <ele>1504.5999755859</ele>
        <time>2014-01-31T09:14:32.000Z</time>
      </trkpt>
      <trkpt lat="45.55732" lon="6.58882">
        <ele>1504.8000488281</ele>
        <time>2014-01-31T09:14:33.000Z</time>
      </trkpt>
      <trkpt lat="45.55731" lon="6.58883">
        <ele>1505</ele>
        <time>2014-01-31T09:14:34.000Z</time>
      </trkpt>
      <trkpt lat="45.5573" lon="6.58883">
        <ele>1505.1999511719</ele>
        <time>2014-01-31T09:14:35.000Z</time>
      </trkpt>
      <trkpt lat="45.55728" lon="6.58883">
        <ele>1505.1999511719</ele>
        <time>2014-01-31T09:14:36.000Z</time>
      </trkpt>
      <trkpt lat="45.55727" lon="6.58884">
        <ele>1505.1999511719</ele>
        <time>2014-01-31T09:14:37.000Z</time>
      </trkpt>
      <trkpt lat="45.55726" lon="6.58886">
        <ele>1505.1999511719</ele>
        <time>2014-01-31T09:14:38.000Z</time>
      </trkpt>
      <trkpt lat="45.55725" lon="6.58887">
        <ele>1505.1999511719</ele>
        <time>2014-01-31T09:14:39.000Z</time>
      </trkpt>
      <trkpt lat="45.55725" lon="6.58888">
        <ele>1505.1999511719</ele>
        <time>2014-01-31T09:14:40.000Z</time>
      </trkpt>
      <trkpt lat="45.55724" lon="6.58888">
        <ele>1505.1999511719</ele>
        <time>2014-01-31T09:14:41.000Z</time>
      </trkpt>
      <trkpt lat="45.55723" lon="6.58889">
        <ele>1505.1999511719</ele>
        <time>2014-01-31T09:14:42.000Z</time>
      </trkpt>
      <trkpt lat="45.55722" lon="6.5889">
        <ele>1505.4000244141</ele>
        <time>2014-01-31T09:14:43.000Z</time>
      </trkpt>
      <trkpt lat="45.55722" lon="6.5889">
        <ele>1505.5999755859</ele>
        <time>2014-01-31T09:14:44.000Z</time>
      </trkpt>
      <trkpt lat="45.55722" lon="6.58891">
        <ele>1505.8000488281</ele>
        <time>2014-01-31T09:14:45.000Z</time>
      </trkpt>
      <trkpt lat="45.55721" lon="6.58891">
        <ele>1506</ele>
        <time>2014-01-31T09:14:46.000Z</time>
      </trkpt>
      <trkpt lat="45.5572" lon="6.58892">
        <ele>1506.1999511719</ele>
        <time>2014-01-31T09:14:47.000Z</time>
      </trkpt>
      <trkpt lat="45.5572" lon="6.58892">
        <ele>1506.4000244141</ele>
        <time>2014-01-31T09:14:48.000Z</time>
      </trkpt>
      <trkpt lat="45.5572" lon="6.58893">
        <ele>1506.4000244141</ele>
        <time>2014-01-31T09:14:49.000Z</time>
      </trkpt>
      <trkpt lat="45.5572" lon="6.58893">
        <ele>1506.5999755859</ele>
        <time>2014-01-31T09:14:50.000Z</time>
      </trkpt>
      <trkpt lat="45.55719" lon="6.58894">
        <ele>1507</ele>
        <time>2014-01-31T09:14:51.000Z</time>
      </trkpt>
      <trkpt lat="45.55719" lon="6.58894">
        <ele>1507.1999511719</ele>
        <time>2014-01-31T09:14:52.000Z</time>
      </trkpt>
      <trkpt lat="45.55718" lon="6.58894">
        <ele>1507.5999755859</ele>
        <time>2014-01-31T09:14:53.000Z</time>
      </trkpt>
      <trkpt lat="45.55717" lon="6.58895">
        <ele>1508</ele>
        <time>2014-01-31T09:14:54.000Z</time>
      </trkpt>
      <trkpt lat="45.55717" lon="6.58895">
        <ele>1508.1999511719</ele>
        <time>2014-01-31T09:14:55.000Z</time>
      </trkpt>
      <trkpt lat="45.55717" lon="6.58896">
        <ele>1508.4000244141</ele>
        <time>2014-01-31T09:14:56.000Z</time>
      </trkpt>
      <trkpt lat="45.55717" lon="6.58896">
        <ele>1508.5999755859</ele>
        <time>2014-01-31T09:14:57.000Z</time>
      </trkpt>
      <trkpt lat="45.55717" lon="6.58897">
        <ele>1508.5999755859</ele>
        <time>2014-01-31T09:14:58.000Z</time>
      </trkpt>
      <trkpt lat="45.55717" lon="6.58898">
        <ele>1508.8000488281</ele>
        <time>2014-01-31T09:14:59.000Z</time>
      </trkpt>
      <trkpt lat="45.55717" lon="6.58898">
        <ele>1508.8000488281</ele>
        <time>2014-01-31T09:15:00.000Z</time>
      </trkpt>
      <trkpt lat="45.55717" lon="6.58898">
        <ele>1509</ele>
        <time>2014-01-31T09:15:01.000Z</time>
      </trkpt>
      <trkpt lat="45.55717" lon="6.58898">
        <ele>1509.1999511719</ele>
        <time>2014-01-31T09:15:02.000Z</time>
      </trkpt>
      <trkpt lat="45.55717" lon="6.58898">
        <ele>1509.4000244141</ele>
        <time>2014-01-31T09:15:03.000Z</time>
      </trkpt>
      <trkpt lat="45.55716" lon="6.58901">
        <ele>1509.5999755859</ele>
        <time>2014-01-31T09:15:04.000Z</time>
      </trkpt>
      <trkpt lat="45.55715" lon="6.58902">
        <ele>1509.5999755859</ele>
        <time>2014-01-31T09:15:05.000Z</time>
      </trkpt>
      <trkpt lat="45.55715" lon="6.58903">
        <ele>1509.8000488281</ele>
        <time>2014-01-31T09:15:06.000Z</time>
      </trkpt>
      <trkpt lat="45.55714" lon="6.58905">
        <ele>1510.1999511719</ele>
        <time>2014-01-31T09:15:07.000Z</time>
      </trkpt>
      <trkpt lat="45.55713" lon="6.58906">
        <ele>1510.4000244141</ele>
        <time>2014-01-31T09:15:08.000Z</time>
      </trkpt>
      <trkpt lat="45.55712" lon="6.58907">
        <ele>1510.5999755859</ele>
        <time>2014-01-31T09:15:09.000Z</time>
      </trkpt>
      <trkpt lat="45.55711" lon="6.58909">
        <ele>1510.8000488281</ele>
        <time>2014-01-31T09:15:10.000Z</time>
      </trkpt>
      <trkpt lat="45.5571" lon="6.58909">
        <ele>1511</ele>
        <time>2014-01-31T09:15:11.000Z</time>
      </trkpt>
      <trkpt lat="45.55709" lon="6.5891">
        <ele>1511</ele>
        <time>2014-01-31T09:15:12.000Z</time>
      </trkpt>
      <trkpt lat="45.55709" lon="6.5891">
        <ele>1511</ele>
        <time>2014-01-31T09:15:13.000Z</time>
      </trkpt>
      <trkpt lat="45.55708" lon="6.58911">
        <ele>1511.1999511719</ele>
        <time>2014-01-31T09:15:14.000Z</time>
      </trkpt>
      <trkpt lat="45.55708" lon="6.58911">
        <ele>1511.5999755859</ele>
        <time>2014-01-31T09:15:15.000Z</time>
      </trkpt>
      <trkpt lat="45.55707" lon="6.58912">
        <ele>1512</ele>
        <time>2014-01-31T09:15:16.000Z</time>
      </trkpt>
      <trkpt lat="45.55707" lon="6.58912">
        <ele>1512.1999511719</ele>
        <time>2014-01-31T09:15:17.000Z</time>
      </trkpt>
      <trkpt lat="45.55706" lon="6.58914">
        <ele>1512.4000244141</ele>
        <time>2014-01-31T09:15:18.000Z</time>
      </trkpt>
      <trkpt lat="45.55706" lon="6.58915">
        <ele>1512.5999755859</ele>
        <time>2014-01-31T09:15:19.000Z</time>
      </trkpt>
      <trkpt lat="45.55706" lon="6.58916">
        <ele>1512.8000488281</ele>
        <time>2014-01-31T09:15:20.000Z</time>
      </trkpt>
      <trkpt lat="45.55705" lon="6.58917">
        <ele>1512.8000488281</ele>
        <time>2014-01-31T09:15:21.000Z</time>
      </trkpt>
      <trkpt lat="45.55705" lon="6.58919">
        <ele>1512.8000488281</ele>
        <time>2014-01-31T09:15:22.000Z</time>
      </trkpt>
      <trkpt lat="45.55704" lon="6.5892">
        <ele>1513</ele>
        <time>2014-01-31T09:15:23.000Z</time>
      </trkpt>
      <trkpt lat="45.55704" lon="6.58921">
        <ele>1513.1999511719</ele>
        <time>2014-01-31T09:15:24.000Z</time>
      </trkpt>
      <trkpt lat="45.55703" lon="6.58923">
        <ele>1513.1999511719</ele>
        <time>2014-01-31T09:15:25.000Z</time>
      </trkpt>
      <trkpt lat="45.55703" lon="6.58924">
        <ele>1513.5999755859</ele>
        <time>2014-01-31T09:15:26.000Z</time>
      </trkpt>
      <trkpt lat="45.55703" lon="6.58927">
        <ele>1513.5999755859</ele>
        <time>2014-01-31T09:15:27.000Z</time>
      </trkpt>
      <trkpt lat="45.55703" lon="6.58928">
        <ele>1514</ele>
        <time>2014-01-31T09:15:28.000Z</time>
      </trkpt>
      <trkpt lat="45.55703" lon="6.5893">
        <ele>1514.1999511719</ele>
        <time>2014-01-31T09:15:29.000Z</time>
      </trkpt>
      <trkpt lat="45.55703" lon="6.5893">
        <ele>1514.5999755859</ele>
        <time>2014-01-31T09:15:30.000Z</time>
      </trkpt>
      <trkpt lat="45.55703" lon="6.58931">
        <ele>1514.5999755859</ele>
        <time>2014-01-31T09:15:31.000Z</time>
      </trkpt>
      <trkpt lat="45.55703" lon="6.58931">
        <ele>1514.8000488281</ele>
        <time>2014-01-31T09:15:32.000Z</time>
      </trkpt>
      <trkpt lat="45.55703" lon="6.58932">
        <ele>1515</ele>
        <time>2014-01-31T09:15:33.000Z</time>
      </trkpt>
      <trkpt lat="45.55703" lon="6.58933">
        <ele>1515</ele>
        <time>2014-01-31T09:15:34.000Z</time>
      </trkpt>
      <trkpt lat="45.55703" lon="6.58934">
        <ele>1515.1999511719</ele>
        <time>2014-01-31T09:15:35.000Z</time>
      </trkpt>
      <trkpt lat="45.55703" lon="6.58935">
        <ele>1515.1999511719</ele>
        <time>2014-01-31T09:15:36.000Z</time>
      </trkpt>
      <trkpt lat="45.55704" lon="6.58936">
        <ele>1515.4000244141</ele>
        <time>2014-01-31T09:15:37.000Z</time>
      </trkpt>
      <trkpt lat="45.55704" lon="6.58937">
        <ele>1515.4000244141</ele>
        <time>2014-01-31T09:15:38.000Z</time>
      </trkpt>
      <trkpt lat="45.55705" lon="6.58937">
        <ele>1515.5999755859</ele>
        <time>2014-01-31T09:15:39.000Z</time>
      </trkpt>
      <trkpt lat="45.55705" lon="6.58938">
        <ele>1515.8000488281</ele>
        <time>2014-01-31T09:15:40.000Z</time>
      </trkpt>
      <trkpt lat="45.55706" lon="6.58939">
        <ele>1516</ele>
        <time>2014-01-31T09:15:41.000Z</time>
      </trkpt>
      <trkpt lat="45.55706" lon="6.5894">
        <ele>1516.1999511719</ele>
        <time>2014-01-31T09:15:42.000Z</time>
      </trkpt>
      <trkpt lat="45.55706" lon="6.5894">
        <ele>1516.1999511719</ele>
        <time>2014-01-31T09:15:43.000Z</time>
      </trkpt>
      <trkpt lat="45.55707" lon="6.58941">
        <ele>1516.1999511719</ele>
        <time>2014-01-31T09:15:44.000Z</time>
      </trkpt>
      <trkpt lat="45.55707" lon="6.58942">
        <ele>1516.4000244141</ele>
        <time>2014-01-31T09:15:45.000Z</time>
      </trkpt>
      <trkpt lat="45.55707" lon="6.58943">
        <ele>1516.4000244141</ele>
        <time>2014-01-31T09:15:46.000Z</time>
      </trkpt>
      <trkpt lat="45.55707" lon="6.58945">
        <ele>1516.5999755859</ele>
        <time>2014-01-31T09:15:47.000Z</time>
      </trkpt>
      <trkpt lat="45.55707" lon="6.58946">
        <ele>1516.8000488281</ele>
        <time>2014-01-31T09:15:48.000Z</time>
      </trkpt>
      <trkpt lat="45.55708" lon="6.58947">
        <ele>1517</ele>
        <time>2014-01-31T09:15:49.000Z</time>
      </trkpt>
      <trkpt lat="45.55708" lon="6.58948">
        <ele>1517.4000244141</ele>
        <time>2014-01-31T09:15:50.000Z</time>
      </trkpt>
      <trkpt lat="45.55708" lon="6.58949">
        <ele>1517.5999755859</ele>
        <time>2014-01-31T09:15:51.000Z</time>
      </trkpt>
      <trkpt lat="45.55709" lon="6.58949">
        <ele>1517.5999755859</ele>
        <time>2014-01-31T09:15:52.000Z</time>
      </trkpt>
      <trkpt lat="45.5571" lon="6.5895">
        <ele>1517.8000488281</ele>
        <time>2014-01-31T09:15:53.000Z</time>
      </trkpt>
      <trkpt lat="45.5571" lon="6.58951">
        <ele>1517.8000488281</ele>
        <time>2014-01-31T09:15:54.000Z</time>
      </trkpt>
      <trkpt lat="45.5571" lon="6.58951">
        <ele>1518</ele>
        <time>2014-01-31T09:15:55.000Z</time>
      </trkpt>
      <trkpt lat="45.55711" lon="6.58952">
        <ele>1518</ele>
        <time>2014-01-31T09:15:56.000Z</time>
      </trkpt>
      <trkpt lat="45.55711" lon="6.58953">
        <ele>1518.1999511719</ele>
        <time>2014-01-31T09:15:57.000Z</time>
      </trkpt>
      <trkpt lat="45.55712" lon="6.58953">
        <ele>1518.4000244141</ele>
        <time>2014-01-31T09:15:58.000Z</time>
      </trkpt>
      <trkpt lat="45.55712" lon="6.58954">
        <ele>1518.5999755859</ele>
        <time>2014-01-31T09:15:59.000Z</time>
      </trkpt>
      <trkpt lat="45.55713" lon="6.58954">
        <ele>1519</ele>
        <time>2014-01-31T09:16:00.000Z</time>
      </trkpt>
      <trkpt lat="45.55714" lon="6.58955">
        <ele>1519.1999511719</ele>
        <time>2014-01-31T09:16:01.000Z</time>
      </trkpt>
      <trkpt lat="45.55715" lon="6.58956">
        <ele>1519.5999755859</ele>
        <time>2014-01-31T09:16:02.000Z</time>
      </trkpt>
      <trkpt lat="45.55715" lon="6.58956">
        <ele>1519.4000244141</ele>
        <time>2014-01-31T09:16:03.000Z</time>
      </trkpt>
      <trkpt lat="45.55715" lon="6.58957">
        <ele>1519.8000488281</ele>
        <time>2014-01-31T09:16:04.000Z</time>
      </trkpt>
      <trkpt lat="45.55716" lon="6.58958">
        <ele>1520</ele>
        <time>2014-01-31T09:16:05.000Z</time>
      </trkpt>
      <trkpt lat="45.55716" lon="6.58958">
        <ele>1520.4000244141</ele>
        <time>2014-01-31T09:16:06.000Z</time>
      </trkpt>
      <trkpt lat="45.55716" lon="6.58959">
        <ele>1520.4000244141</ele>
        <time>2014-01-31T09:16:07.000Z</time>
      </trkpt>
      <trkpt lat="45.55717" lon="6.5896">
        <ele>1520.5999755859</ele>
        <time>2014-01-31T09:16:08.000Z</time>
      </trkpt>
      <trkpt lat="45.55717" lon="6.58961">
        <ele>1520.8000488281</ele>
        <time>2014-01-31T09:16:09.000Z</time>
      </trkpt>
      <trkpt lat="45.55718" lon="6.58961">
        <ele>1521.1999511719</ele>
        <time>2014-01-31T09:16:10.000Z</time>
      </trkpt>
      <trkpt lat="45.55719" lon="6.58962">
        <ele>1521.4000244141</ele>
        <time>2014-01-31T09:16:11.000Z</time>
      </trkpt>
      <trkpt lat="45.5572" lon="6.58963">
        <ele>1521.4000244141</ele>
        <time>2014-01-31T09:16:12.000Z</time>
      </trkpt>
      <trkpt lat="45.55721" lon="6.58963">
        <ele>1521.4000244141</ele>
        <time>2014-01-31T09:16:13.000Z</time>
      </trkpt>
      <trkpt lat="45.55721" lon="6.58964">
        <ele>1521.5999755859</ele>
        <time>2014-01-31T09:16:14.000Z</time>
      </trkpt>
      <trkpt lat="45.55722" lon="6.58965">
        <ele>1521.5999755859</ele>
        <time>2014-01-31T09:16:15.000Z</time>
      </trkpt>
      <trkpt lat="45.55722" lon="6.58966">
        <ele>1521.8000488281</ele>
        <time>2014-01-31T09:16:16.000Z</time>
      </trkpt>
      <trkpt lat="45.55723" lon="6.58967">
        <ele>1522</ele>
        <time>2014-01-31T09:16:17.000Z</time>
      </trkpt>
      <trkpt lat="45.55723" lon="6.58967">
        <ele>1522.4000244141</ele>
        <time>2014-01-31T09:16:18.000Z</time>
      </trkpt>
      <trkpt lat="45.55724" lon="6.58968">
        <ele>1522.5999755859</ele>
        <time>2014-01-31T09:16:19.000Z</time>
      </trkpt>
      <trkpt lat="45.55725" lon="6.58968">
        <ele>1523</ele>
        <time>2014-01-31T09:16:20.000Z</time>
      </trkpt>
      <trkpt lat="45.55725" lon="6.58969">
        <ele>1523.1999511719</ele>
        <time>2014-01-31T09:16:21.000Z</time>
      </trkpt>
      <trkpt lat="45.55726" lon="6.58969">
        <ele>1523.1999511719</ele>
        <time>2014-01-31T09:16:22.000Z</time>
      </trkpt>
      <trkpt lat="45.55727" lon="6.5897">
        <ele>1523.4000244141</ele>
        <time>2014-01-31T09:16:23.000Z</time>
      </trkpt>
      <trkpt lat="45.55728" lon="6.5897">
        <ele>1523.4000244141</ele>
        <time>2014-01-31T09:16:24.000Z</time>
      </trkpt>
      <trkpt lat="45.55729" lon="6.58971">
        <ele>1523.4000244141</ele>
        <time>2014-01-31T09:16:25.000Z</time>
      </trkpt>
      <trkpt lat="45.5573" lon="6.58971">
        <ele>1523.4000244141</ele>
        <time>2014-01-31T09:16:26.000Z</time>
      </trkpt>
      <trkpt lat="45.55731" lon="6.58972">
        <ele>1523.5999755859</ele>
        <time>2014-01-31T09:16:27.000Z</time>
      </trkpt>
      <trkpt lat="45.55731" lon="6.58972">
        <ele>1524</ele>
        <time>2014-01-31T09:16:28.000Z</time>
      </trkpt>
      <trkpt lat="45.55732" lon="6.58973">
        <ele>1524.1999511719</ele>
        <time>2014-01-31T09:16:29.000Z</time>
      </trkpt>
      <trkpt lat="45.55732" lon="6.58973">
        <ele>1524.4000244141</ele>
        <time>2014-01-31T09:16:30.000Z</time>
      </trkpt>
      <trkpt lat="45.55733" lon="6.58973">
        <ele>1524.5999755859</ele>
        <time>2014-01-31T09:16:31.000Z</time>
      </trkpt>
      <trkpt lat="45.55733" lon="6.58973">
        <ele>1524.8000488281</ele>
        <time>2014-01-31T09:16:32.000Z</time>
      </trkpt>
      <trkpt lat="45.55734" lon="6.58973">
        <ele>1525</ele>
        <time>2014-01-31T09:16:33.000Z</time>
      </trkpt>
      <trkpt lat="45.55735" lon="6.58973">
        <ele>1525.1999511719</ele>
        <time>2014-01-31T09:16:34.000Z</time>
      </trkpt>
      <trkpt lat="45.55735" lon="6.58974">
        <ele>1525.4000244141</ele>
        <time>2014-01-31T09:16:35.000Z</time>
      </trkpt>
      <trkpt lat="45.55736" lon="6.58974">
        <ele>1525.5999755859</ele>
        <time>2014-01-31T09:16:36.000Z</time>
      </trkpt>
      <trkpt lat="45.55736" lon="6.58975">
        <ele>1525.8000488281</ele>
        <time>2014-01-31T09:16:37.000Z</time>
      </trkpt>
      <trkpt lat="45.55737" lon="6.58975">
        <ele>1526.1999511719</ele>
        <time>2014-01-31T09:16:38.000Z</time>
      </trkpt>
      <trkpt lat="45.55737" lon="6.58975">
        <ele>1526.4000244141</ele>
        <time>2014-01-31T09:16:39.000Z</time>
      </trkpt>
      <trkpt lat="45.55738" lon="6.58975">
        <ele>1526.5999755859</ele>
        <time>2014-01-31T09:16:40.000Z</time>
      </trkpt>
      <trkpt lat="45.55738" lon="6.58975">
        <ele>1526.8000488281</ele>
        <time>2014-01-31T09:16:41.000Z</time>
      </trkpt>
      <trkpt lat="45.55739" lon="6.58975">
        <ele>1527</ele>
        <time>2014-01-31T09:16:42.000Z</time>
      </trkpt>
      <trkpt lat="45.5574" lon="6.58975">
        <ele>1527</ele>
        <time>2014-01-31T09:16:43.000Z</time>
      </trkpt>
      <trkpt lat="45.55741" lon="6.58974">
        <ele>1527.1999511719</ele>
        <time>2014-01-31T09:16:44.000Z</time>
      </trkpt>
      <trkpt lat="45.55742" lon="6.58974">
        <ele>1527.4000244141</ele>
        <time>2014-01-31T09:16:45.000Z</time>
      </trkpt>
      <trkpt lat="45.55742" lon="6.58974">
        <ele>1527.5999755859</ele>
        <time>2014-01-31T09:16:46.000Z</time>
      </trkpt>
      <trkpt lat="45.55742" lon="6.58974">
        <ele>1527.8000488281</ele>
        <time>2014-01-31T09:16:47.000Z</time>
      </trkpt>
      <trkpt lat="45.55742" lon="6.58974">
        <ele>1528.1999511719</ele>
        <time>2014-01-31T09:16:48.000Z</time>
      </trkpt>
      <trkpt lat="45.55744" lon="6.58975">
        <ele>1528.1999511719</ele>
        <time>2014-01-31T09:16:49.000Z</time>
      </trkpt>
      <trkpt lat="45.55745" lon="6.58976">
        <ele>1528.5999755859</ele>
        <time>2014-01-31T09:16:50.000Z</time>
      </trkpt>
      <trkpt lat="45.55746" lon="6.58977">
        <ele>1528.5999755859</ele>
        <time>2014-01-31T09:16:51.000Z</time>
      </trkpt>
      <trkpt lat="45.55746" lon="6.58977">
        <ele>1529</ele>
        <time>2014-01-31T09:16:52.000Z</time>
      </trkpt>
      <trkpt lat="45.55747" lon="6.58978">
        <ele>1529</ele>
        <time>2014-01-31T09:16:53.000Z</time>
      </trkpt>
      <trkpt lat="45.55748" lon="6.58979">
        <ele>1529.4000244141</ele>
        <time>2014-01-31T09:16:54.000Z</time>
      </trkpt>
      <trkpt lat="45.55749" lon="6.5898">
        <ele>1529.4000244141</ele>
        <time>2014-01-31T09:16:55.000Z</time>
      </trkpt>
      <trkpt lat="45.5575" lon="6.58981">
        <ele>1529.5999755859</ele>
        <time>2014-01-31T09:16:56.000Z</time>
      </trkpt>
      <trkpt lat="45.5575" lon="6.58982">
        <ele>1529.5999755859</ele>
        <time>2014-01-31T09:16:57.000Z</time>
      </trkpt>
      <trkpt lat="45.55751" lon="6.58983">
        <ele>1529.5999755859</ele>
        <time>2014-01-31T09:16:58.000Z</time>
      </trkpt>
      <trkpt lat="45.55751" lon="6.58984">
        <ele>1529.8000488281</ele>
        <time>2014-01-31T09:16:59.000Z</time>
      </trkpt>
      <trkpt lat="45.55752" lon="6.58985">
        <ele>1529.8000488281</ele>
        <time>2014-01-31T09:17:00.000Z</time>
      </trkpt>
      <trkpt lat="45.55752" lon="6.58987">
        <ele>1530.1999511719</ele>
        <time>2014-01-31T09:17:01.000Z</time>
      </trkpt>
      <trkpt lat="45.55753" lon="6.58988">
        <ele>1530.5999755859</ele>
        <time>2014-01-31T09:17:02.000Z</time>
      </trkpt>
      <trkpt lat="45.55753" lon="6.58988">
        <ele>1530.8000488281</ele>
        <time>2014-01-31T09:17:03.000Z</time>
      </trkpt>
      <trkpt lat="45.55754" lon="6.58989">
        <ele>1530.8000488281</ele>
        <time>2014-01-31T09:17:04.000Z</time>
      </trkpt>
      <trkpt lat="45.55754" lon="6.5899">
        <ele>1531</ele>
        <time>2014-01-31T09:17:05.000Z</time>
      </trkpt>
      <trkpt lat="45.55754" lon="6.58991">
        <ele>1531</ele>
        <time>2014-01-31T09:17:06.000Z</time>
      </trkpt>
      <trkpt lat="45.55754" lon="6.58992">
        <ele>1531</ele>
        <time>2014-01-31T09:17:07.000Z</time>
      </trkpt>
      <trkpt lat="45.55755" lon="6.58993">
        <ele>1531.1999511719</ele>
        <time>2014-01-31T09:17:08.000Z</time>
      </trkpt>
      <trkpt lat="45.55755" lon="6.58994">
        <ele>1531.4000244141</ele>
        <time>2014-01-31T09:17:09.000Z</time>
      </trkpt>
      <trkpt lat="45.55756" lon="6.58995">
        <ele>1531.5999755859</ele>
        <time>2014-01-31T09:17:10.000Z</time>
      </trkpt>
      <trkpt lat="45.55756" lon="6.58995">
        <ele>1532</ele>
        <time>2014-01-31T09:17:11.000Z</time>
      </trkpt>
      <trkpt lat="45.55757" lon="6.58996">
        <ele>1532.1999511719</ele>
        <time>2014-01-31T09:17:12.000Z</time>
      </trkpt>
      <trkpt lat="45.55758" lon="6.58996">
        <ele>1532.4000244141</ele>
        <time>2014-01-31T09:17:13.000Z</time>
      </trkpt>
      <trkpt lat="45.55759" lon="6.58996">
        <ele>1532.5999755859</ele>
        <time>2014-01-31T09:17:14.000Z</time>
      </trkpt>
      <trkpt lat="45.55759" lon="6.58996">
        <ele>1532.5999755859</ele>
        <time>2014-01-31T09:17:15.000Z</time>
      </trkpt>
      <trkpt lat="45.5576" lon="6.58996">
        <ele>1532.8000488281</ele>
        <time>2014-01-31T09:17:16.000Z</time>
      </trkpt>
      <trkpt lat="45.55761" lon="6.58996">
        <ele>1532.8000488281</ele>
        <time>2014-01-31T09:17:17.000Z</time>
      </trkpt>
      <trkpt lat="45.55762" lon="6.58996">
        <ele>1533</ele>
        <time>2014-01-31T09:17:18.000Z</time>
      </trkpt>
      <trkpt lat="45.55763" lon="6.58996">
        <ele>1533.4000244141</ele>
        <time>2014-01-31T09:17:19.000Z</time>
      </trkpt>
      <trkpt lat="45.55763" lon="6.58996">
        <ele>1533.5999755859</ele>
        <time>2014-01-31T09:17:20.000Z</time>
      </trkpt>
      <trkpt lat="45.55763" lon="6.58996">
        <ele>1534</ele>
        <time>2014-01-31T09:17:21.000Z</time>
      </trkpt>
      <trkpt lat="45.55763" lon="6.58996">
        <ele>1534.1999511719</ele>
        <time>2014-01-31T09:17:22.000Z</time>
      </trkpt>
      <trkpt lat="45.55763" lon="6.58996">
        <ele>1534.5999755859</ele>
        <time>2014-01-31T09:17:23.000Z</time>
      </trkpt>
      <trkpt lat="45.55763" lon="6.58996">
        <ele>1534.8000488281</ele>
        <time>2014-01-31T09:17:24.000Z</time>
      </trkpt>
      <trkpt lat="45.55763" lon="6.58996">
        <ele>1534.8000488281</ele>
        <time>2014-01-31T09:17:25.000Z</time>
      </trkpt>
      <trkpt lat="45.55763" lon="6.58996">
        <ele>1534.8000488281</ele>
        <time>2014-01-31T09:17:26.000Z</time>
      </trkpt>
      <trkpt lat="45.55763" lon="6.58996">
        <ele>1534.8000488281</ele>
        <time>2014-01-31T09:17:27.000Z</time>
      </trkpt>
      <trkpt lat="45.55763" lon="6.58996">
        <ele>1534.8000488281</ele>
        <time>2014-01-31T09:17:28.000Z</time>
      </trkpt>
      <trkpt lat="45.55763" lon="6.58996">
        <ele>1535</ele>
        <time>2014-01-31T09:17:29.000Z</time>
      </trkpt>
      <trkpt lat="45.55764" lon="6.58996">
        <ele>1535.1999511719</ele>
        <time>2014-01-31T09:17:30.000Z</time>
      </trkpt>
      <trkpt lat="45.55766" lon="6.58996">
        <ele>1535.4000244141</ele>
        <time>2014-01-31T09:17:31.000Z</time>
      </trkpt>
      <trkpt lat="45.55768" lon="6.58997">
        <ele>1535.5999755859</ele>
        <time>2014-01-31T09:17:32.000Z</time>
      </trkpt>
      <trkpt lat="45.55769" lon="6.58999">
        <ele>1535.8000488281</ele>
        <time>2014-01-31T09:17:33.000Z</time>
      </trkpt>
      <trkpt lat="45.55771" lon="6.58999">
        <ele>1536.1999511719</ele>
        <time>2014-01-31T09:17:34.000Z</time>
      </trkpt>
      <trkpt lat="45.55772" lon="6.58999">
        <ele>1536.4000244141</ele>
        <time>2014-01-31T09:17:35.000Z</time>
      </trkpt>
      <trkpt lat="45.55774" lon="6.58999">
        <ele>1536.5999755859</ele>
        <time>2014-01-31T09:17:36.000Z</time>
      </trkpt>
      <trkpt lat="45.55776" lon="6.58999">
        <ele>1536.8000488281</ele>
        <time>2014-01-31T09:17:37.000Z</time>
      </trkpt>
      <trkpt lat="45.55778" lon="6.59">
        <ele>1536.8000488281</ele>
        <time>2014-01-31T09:17:38.000Z</time>
      </trkpt>
      <trkpt lat="45.5578" lon="6.59">
        <ele>1537</ele>
        <time>2014-01-31T09:17:39.000Z</time>
      </trkpt>
      <trkpt lat="45.55781" lon="6.59">
        <ele>1537</ele>
        <time>2014-01-31T09:17:40.000Z</time>
      </trkpt>
      <trkpt lat="45.55783" lon="6.59">
        <ele>1537.4000244141</ele>
        <time>2014-01-31T09:17:41.000Z</time>
      </trkpt>
      <trkpt lat="45.55783" lon="6.59">
        <ele>1537.5999755859</ele>
        <time>2014-01-31T09:17:42.000Z</time>
      </trkpt>
      <trkpt lat="45.55784" lon="6.59">
        <ele>1538</ele>
        <time>2014-01-31T09:17:43.000Z</time>
      </trkpt>
      <trkpt lat="45.55784" lon="6.59">
        <ele>1538.1999511719</ele>
        <time>2014-01-31T09:17:44.000Z</time>
      </trkpt>
      <trkpt lat="45.55786" lon="6.59">
        <ele>1538.1999511719</ele>
        <time>2014-01-31T09:17:45.000Z</time>
      </trkpt>
      <trkpt lat="45.55787" lon="6.59001">
        <ele>1538.4000244141</ele>
        <time>2014-01-31T09:17:46.000Z</time>
      </trkpt>
      <trkpt lat="45.55788" lon="6.59002">
        <ele>1538.5999755859</ele>
        <time>2014-01-31T09:17:47.000Z</time>
      </trkpt>
      <trkpt lat="45.55789" lon="6.59003">
        <ele>1539</ele>
        <time>2014-01-31T09:17:48.000Z</time>
      </trkpt>
      <trkpt lat="45.5579" lon="6.59004">
        <ele>1539.1999511719</ele>
        <time>2014-01-31T09:17:49.000Z</time>
      </trkpt>
      <trkpt lat="45.55791" lon="6.59004">
        <ele>1539.4000244141</ele>
        <time>2014-01-31T09:17:50.000Z</time>
      </trkpt>
      <trkpt lat="45.55792" lon="6.59004">
        <ele>1539.4000244141</ele>
        <time>2014-01-31T09:17:51.000Z</time>
      </trkpt>
      <trkpt lat="45.55794" lon="6.59004">
        <ele>1539.5999755859</ele>
        <time>2014-01-31T09:17:52.000Z</time>
      </trkpt>
      <trkpt lat="45.55795" lon="6.59005">
        <ele>1539.5999755859</ele>
        <time>2014-01-31T09:17:53.000Z</time>
      </trkpt>
      <trkpt lat="45.55796" lon="6.59005">
        <ele>1539.8000488281</ele>
        <time>2014-01-31T09:17:54.000Z</time>
      </trkpt>
      <trkpt lat="45.55797" lon="6.59006">
        <ele>1540</ele>
        <time>2014-01-31T09:17:55.000Z</time>
      </trkpt>
      <trkpt lat="45.55797" lon="6.59006">
        <ele>1540</ele>
        <time>2014-01-31T09:17:56.000Z</time>
      </trkpt>
      <trkpt lat="45.55798" lon="6.59007">
        <ele>1540.4000244141</ele>
        <time>2014-01-31T09:17:57.000Z</time>
      </trkpt>
      <trkpt lat="45.55799" lon="6.59007">
        <ele>1540.5999755859</ele>
        <time>2014-01-31T09:17:58.000Z</time>
      </trkpt>
      <trkpt lat="45.558" lon="6.59008">
        <ele>1540.5999755859</ele>
        <time>2014-01-31T09:17:59.000Z</time>
      </trkpt>
      <trkpt lat="45.55801" lon="6.59008">
        <ele>1540.8000488281</ele>
        <time>2014-01-31T09:18:00.000Z</time>
      </trkpt>
      <trkpt lat="45.55802" lon="6.59008">
        <ele>1540.8000488281</ele>
        <time>2014-01-31T09:18:01.000Z</time>
      </trkpt>
      <trkpt lat="45.55802" lon="6.59008">
        <ele>1541</ele>
        <time>2014-01-31T09:18:02.000Z</time>
      </trkpt>
      <trkpt lat="45.55803" lon="6.59009">
        <ele>1541.1999511719</ele>
        <time>2014-01-31T09:18:03.000Z</time>
      </trkpt>
      <trkpt lat="45.55803" lon="6.5901">
        <ele>1541.1999511719</ele>
        <time>2014-01-31T09:18:04.000Z</time>
      </trkpt>
      <trkpt lat="45.55804" lon="6.59012">
        <ele>1541.1999511719</ele>
        <time>2014-01-31T09:18:05.000Z</time>
      </trkpt>
      <trkpt lat="45.55805" lon="6.59013">
        <ele>1541.1999511719</ele>
        <time>2014-01-31T09:18:06.000Z</time>
      </trkpt>
      <trkpt lat="45.55805" lon="6.59015">
        <ele>1541.4000244141</ele>
        <time>2014-01-31T09:18:07.000Z</time>
      </trkpt>
      <trkpt lat="45.55806" lon="6.59016">
        <ele>1541.5999755859</ele>
        <time>2014-01-31T09:18:08.000Z</time>
      </trkpt>
      <trkpt lat="45.55807" lon="6.59017">
        <ele>1541.5999755859</ele>
        <time>2014-01-31T09:18:09.000Z</time>
      </trkpt>
      <trkpt lat="45.55807" lon="6.59019">
        <ele>1541.5999755859</ele>
        <time>2014-01-31T09:18:10.000Z</time>
      </trkpt>
      <trkpt lat="45.55808" lon="6.5902">
        <ele>1541.8000488281</ele>
        <time>2014-01-31T09:18:11.000Z</time>
      </trkpt>
      <trkpt lat="45.55808" lon="6.59021">
        <ele>1542</ele>
        <time>2014-01-31T09:18:12.000Z</time>
      </trkpt>
      <trkpt lat="45.55809" lon="6.59021">
        <ele>1542</ele>
        <time>2014-01-31T09:18:13.000Z</time>
      </trkpt>
      <trkpt lat="45.5581" lon="6.59023">
        <ele>1542.1999511719</ele>
        <time>2014-01-31T09:18:14.000Z</time>
      </trkpt>
      <trkpt lat="45.5581" lon="6.59023">
        <ele>1542.1999511719</ele>
        <time>2014-01-31T09:18:15.000Z</time>
      </trkpt>
      <trkpt lat="45.5581" lon="6.59023">
        <ele>1542.1999511719</ele>
        <time>2014-01-31T09:18:16.000Z</time>
      </trkpt>
      <trkpt lat="45.5581" lon="6.59023">
        <ele>1542.4000244141</ele>
        <time>2014-01-31T09:18:17.000Z</time>
      </trkpt>
      <trkpt lat="45.5581" lon="6.59023">
        <ele>1542.5999755859</ele>
        <time>2014-01-31T09:18:18.000Z</time>
      </trkpt>
      <trkpt lat="45.5581" lon="6.59023">
        <ele>1543</ele>
        <time>2014-01-31T09:18:19.000Z</time>
      </trkpt>
      <trkpt lat="45.5581" lon="6.59023">
        <ele>1543.4000244141</ele>
        <time>2014-01-31T09:18:20.000Z</time>
      </trkpt>
      <trkpt lat="45.5581" lon="6.59023">
        <ele>1543.5999755859</ele>
        <time>2014-01-31T09:18:21.000Z</time>
      </trkpt>
      <trkpt lat="45.5581" lon="6.59023">
        <ele>1543.5999755859</ele>
        <time>2014-01-31T09:18:22.000Z</time>
      </trkpt>
      <trkpt lat="45.5581" lon="6.59023">
        <ele>1543.5999755859</ele>
        <time>2014-01-31T09:18:23.000Z</time>
      </trkpt>
      <trkpt lat="45.55811" lon="6.59024">
        <ele>1543.5999755859</ele>
        <time>2014-01-31T09:18:26.000Z</time>
      </trkpt>
      <trkpt lat="45.55812" lon="6.59024">
        <ele>1543.5999755859</ele>
        <time>2014-01-31T09:18:27.000Z</time>
      </trkpt>
      <trkpt lat="45.55812" lon="6.59025">
        <ele>1543.5999755859</ele>
        <time>2014-01-31T09:18:28.000Z</time>
      </trkpt>
      <trkpt lat="45.55813" lon="6.59026">
        <ele>1543.5999755859</ele>
        <time>2014-01-31T09:18:29.000Z</time>
      </trkpt>
      <trkpt lat="45.55814" lon="6.59027">
        <ele>1544</ele>
        <time>2014-01-31T09:18:30.000Z</time>
      </trkpt>
      <trkpt lat="45.55815" lon="6.59028">
        <ele>1544.1999511719</ele>
        <time>2014-01-31T09:18:31.000Z</time>
      </trkpt>
      <trkpt lat="45.55817" lon="6.59029">
        <ele>1544.4000244141</ele>
        <time>2014-01-31T09:18:32.000Z</time>
      </trkpt>
      <trkpt lat="45.55818" lon="6.59029">
        <ele>1544.5999755859</ele>
        <time>2014-01-31T09:18:33.000Z</time>
      </trkpt>
      <trkpt lat="45.55819" lon="6.5903">
        <ele>1544.5999755859</ele>
        <time>2014-01-31T09:18:34.000Z</time>
      </trkpt>
      <trkpt lat="45.55819" lon="6.5903">
        <ele>1544.8000488281</ele>
        <time>2014-01-31T09:18:35.000Z</time>
      </trkpt>
      <trkpt lat="45.55819" lon="6.5903">
        <ele>1545.1999511719</ele>
        <time>2014-01-31T09:18:36.000Z</time>
      </trkpt>
      <trkpt lat="45.55819" lon="6.5903">
        <ele>1545.4000244141</ele>
        <time>2014-01-31T09:18:37.000Z</time>
      </trkpt>
      <trkpt lat="45.55819" lon="6.5903">
        <ele>1545.5999755859</ele>
        <time>2014-01-31T09:18:38.000Z</time>
      </trkpt>
      <trkpt lat="45.5582" lon="6.5903">
        <ele>1545.5999755859</ele>
        <time>2014-01-31T09:18:39.000Z</time>
      </trkpt>
      <trkpt lat="45.55821" lon="6.5903">
        <ele>1545.8000488281</ele>
        <time>2014-01-31T09:18:40.000Z</time>
      </trkpt>
      <trkpt lat="45.55822" lon="6.59029">
        <ele>1545.8000488281</ele>
        <time>2014-01-31T09:18:41.000Z</time>
      </trkpt>
      <trkpt lat="45.55823" lon="6.59029">
        <ele>1546.1999511719</ele>
        <time>2014-01-31T09:18:42.000Z</time>
      </trkpt>
      <trkpt lat="45.55823" lon="6.59029">
        <ele>1546.4000244141</ele>
        <time>2014-01-31T09:18:43.000Z</time>
      </trkpt>
      <trkpt lat="45.55823" lon="6.59029">
        <ele>1546.8000488281</ele>
        <time>2014-01-31T09:18:44.000Z</time>
      </trkpt>
      <trkpt lat="45.55824" lon="6.59029">
        <ele>1547</ele>
        <time>2014-01-31T09:18:45.000Z</time>
      </trkpt>
      <trkpt lat="45.55825" lon="6.59029">
        <ele>1547</ele>
        <time>2014-01-31T09:18:46.000Z</time>
      </trkpt>
      <trkpt lat="45.55826" lon="6.59029">
        <ele>1547.1999511719</ele>
        <time>2014-01-31T09:18:47.000Z</time>
      </trkpt>
      <trkpt lat="45.55827" lon="6.59029">
        <ele>1547.1999511719</ele>
        <time>2014-01-31T09:18:48.000Z</time>
      </trkpt>
      <trkpt lat="45.55827" lon="6.5903">
        <ele>1547.5999755859</ele>
        <time>2014-01-31T09:18:49.000Z</time>
      </trkpt>
      <trkpt lat="45.55828" lon="6.5903">
        <ele>1547.8000488281</ele>
        <time>2014-01-31T09:18:50.000Z</time>
      </trkpt>
      <trkpt lat="45.55829" lon="6.5903">
        <ele>1548.1999511719</ele>
        <time>2014-01-31T09:18:51.000Z</time>
      </trkpt>
      <trkpt lat="45.55829" lon="6.5903">
        <ele>1548.4000244141</ele>
        <time>2014-01-31T09:18:52.000Z</time>
      </trkpt>
      <trkpt lat="45.55831" lon="6.59031">
        <ele>1548.8000488281</ele>
        <time>2014-01-31T09:18:53.000Z</time>
      </trkpt>
      <trkpt lat="45.55831" lon="6.59031">
        <ele>1548.8000488281</ele>
        <time>2014-01-31T09:18:54.000Z</time>
      </trkpt>
      <trkpt lat="45.55833" lon="6.59031">
        <ele>1549</ele>
        <time>2014-01-31T09:18:55.000Z</time>
      </trkpt>
      <trkpt lat="45.55834" lon="6.5903">
        <ele>1549.1999511719</ele>
        <time>2014-01-31T09:18:56.000Z</time>
      </trkpt>
      <trkpt lat="45.55836" lon="6.5903">
        <ele>1549.4000244141</ele>
        <time>2014-01-31T09:18:57.000Z</time>
      </trkpt>
      <trkpt lat="45.55837" lon="6.59031">
        <ele>1549.5999755859</ele>
        <time>2014-01-31T09:18:58.000Z</time>
      </trkpt>
      <trkpt lat="45.55838" lon="6.59032">
        <ele>1549.8000488281</ele>
        <time>2014-01-31T09:18:59.000Z</time>
      </trkpt>
      <trkpt lat="45.5584" lon="6.59033">
        <ele>1550</ele>
        <time>2014-01-31T09:19:00.000Z</time>
      </trkpt>
      <trkpt lat="45.55841" lon="6.59034">
        <ele>1550.1999511719</ele>
        <time>2014-01-31T09:19:01.000Z</time>
      </trkpt>
      <trkpt lat="45.55842" lon="6.59035">
        <ele>1550.4000244141</ele>
        <time>2014-01-31T09:19:02.000Z</time>
      </trkpt>
      <trkpt lat="45.55842" lon="6.59035">
        <ele>1550.5999755859</ele>
        <time>2014-01-31T09:19:03.000Z</time>
      </trkpt>
      <trkpt lat="45.55842" lon="6.59035">
        <ele>1551</ele>
        <time>2014-01-31T09:19:04.000Z</time>
      </trkpt>
      <trkpt lat="45.55842" lon="6.59036">
        <ele>1551</ele>
        <time>2014-01-31T09:19:05.000Z</time>
      </trkpt>
      <trkpt lat="45.55842" lon="6.59036">
        <ele>1551.1999511719</ele>
        <time>2014-01-31T09:19:06.000Z</time>
      </trkpt>
      <trkpt lat="45.55842" lon="6.59036">
        <ele>1551.1999511719</ele>
        <time>2014-01-31T09:19:07.000Z</time>
      </trkpt>
      <trkpt lat="45.55844" lon="6.59037">
        <ele>1551.4000244141</ele>
        <time>2014-01-31T09:19:08.000Z</time>
      </trkpt>
      <trkpt lat="45.55845" lon="6.59038">
        <ele>1551.4000244141</ele>
        <time>2014-01-31T09:19:09.000Z</time>
      </trkpt>
      <trkpt lat="45.55846" lon="6.5904">
        <ele>1551.4000244141</ele>
        <time>2014-01-31T09:19:10.000Z</time>
      </trkpt>
      <trkpt lat="45.55847" lon="6.59041">
        <ele>1551.5999755859</ele>
        <time>2014-01-31T09:19:11.000Z</time>
      </trkpt>
      <trkpt lat="45.55847" lon="6.59043">
        <ele>1551.8000488281</ele>
        <time>2014-01-31T09:19:12.000Z</time>
      </trkpt>
      <trkpt lat="45.55848" lon="6.59044">
        <ele>1552</ele>
        <time>2014-01-31T09:19:13.000Z</time>
      </trkpt>
      <trkpt lat="45.55849" lon="6.59045">
        <ele>1552</ele>
        <time>2014-01-31T09:19:14.000Z</time>
      </trkpt>
      <trkpt lat="45.5585" lon="6.59046">
        <ele>1552</ele>
        <time>2014-01-31T09:19:15.000Z</time>
      </trkpt>
      <trkpt lat="45.55851" lon="6.59047">
        <ele>1552.1999511719</ele>
        <time>2014-01-31T09:19:16.000Z</time>
      </trkpt>
      <trkpt lat="45.55851" lon="6.59047">
        <ele>1552.4000244141</ele>
        <time>2014-01-31T09:19:17.000Z</time>
      </trkpt>
      <trkpt lat="45.55851" lon="6.59047">
        <ele>1552.5999755859</ele>
        <time>2014-01-31T09:19:18.000Z</time>
      </trkpt>
      <trkpt lat="45.55851" lon="6.59047">
        <ele>1552.8000488281</ele>
        <time>2014-01-31T09:19:19.000Z</time>
      </trkpt>
      <trkpt lat="45.55851" lon="6.59047">
        <ele>1553.1999511719</ele>
        <time>2014-01-31T09:19:20.000Z</time>
      </trkpt>
      <trkpt lat="45.55851" lon="6.59047">
        <ele>1553.1999511719</ele>
        <time>2014-01-31T09:19:21.000Z</time>
      </trkpt>
      <trkpt lat="45.55852" lon="6.59047">
        <ele>1553.4000244141</ele>
        <time>2014-01-31T09:19:22.000Z</time>
      </trkpt>
      <trkpt lat="45.55852" lon="6.59046">
        <ele>1553.4000244141</ele>
        <time>2014-01-31T09:19:23.000Z</time>
      </trkpt>
      <trkpt lat="45.55852" lon="6.59046">
        <ele>1553.8000488281</ele>
        <time>2014-01-31T09:19:24.000Z</time>
      </trkpt>
      <trkpt lat="45.55852" lon="6.59046">
        <ele>1553.8000488281</ele>
        <time>2014-01-31T09:19:25.000Z</time>
      </trkpt>
      <trkpt lat="45.55852" lon="6.59046">
        <ele>1554</ele>
        <time>2014-01-31T09:19:26.000Z</time>
      </trkpt>
      <trkpt lat="45.55852" lon="6.59046">
        <ele>1554</ele>
        <time>2014-01-31T09:19:27.000Z</time>
      </trkpt>
      <trkpt lat="45.55852" lon="6.59046">
        <ele>1554</ele>
        <time>2014-01-31T09:19:28.000Z</time>
      </trkpt>
      <trkpt lat="45.55852" lon="6.59046">
        <ele>1554.1999511719</ele>
        <time>2014-01-31T09:19:29.000Z</time>
      </trkpt>
      <trkpt lat="45.55852" lon="6.59046">
        <ele>1554.1999511719</ele>
        <time>2014-01-31T09:19:30.000Z</time>
      </trkpt>
      <trkpt lat="45.55852" lon="6.59046">
        <ele>1554</ele>
        <time>2014-01-31T09:19:31.000Z</time>
      </trkpt>
      <trkpt lat="45.55852" lon="6.59046">
        <ele>1554</ele>
        <time>2014-01-31T09:19:32.000Z</time>
      </trkpt>
      <trkpt lat="45.55852" lon="6.59046">
        <ele>1553.8000488281</ele>
        <time>2014-01-31T09:19:33.000Z</time>
      </trkpt>
      <trkpt lat="45.55852" lon="6.59046">
        <ele>1553.8000488281</ele>
        <time>2014-01-31T09:19:34.000Z</time>
      </trkpt>
      <trkpt lat="45.55852" lon="6.59046">
        <ele>1553.5999755859</ele>
        <time>2014-01-31T09:19:35.000Z</time>
      </trkpt>
      <trkpt lat="45.55852" lon="6.59046">
        <ele>1553.5999755859</ele>
        <time>2014-01-31T09:19:36.000Z</time>
      </trkpt>
      <trkpt lat="45.55852" lon="6.59046">
        <ele>1553.8000488281</ele>
        <time>2014-01-31T09:19:37.000Z</time>
      </trkpt>
      <trkpt lat="45.55852" lon="6.59046">
        <ele>1553.8000488281</ele>
        <time>2014-01-31T09:19:38.000Z</time>
      </trkpt>
      <trkpt lat="45.55852" lon="6.59046">
        <ele>1553.8000488281</ele>
        <time>2014-01-31T09:19:39.000Z</time>
      </trkpt>
      <trkpt lat="45.55852" lon="6.59046">
        <ele>1553.8000488281</ele>
        <time>2014-01-31T09:19:40.000Z</time>
      </trkpt>
      <trkpt lat="45.55852" lon="6.59046">
        <ele>1553.8000488281</ele>
        <time>2014-01-31T09:19:41.000Z</time>
      </trkpt>
      <trkpt lat="45.55852" lon="6.59046">
        <ele>1553.8000488281</ele>
        <time>2014-01-31T09:19:42.000Z</time>
      </trkpt>
      <trkpt lat="45.55852" lon="6.59046">
        <ele>1553.8000488281</ele>
        <time>2014-01-31T09:19:45.000Z</time>
      </trkpt>
      <trkpt lat="45.55852" lon="6.59046">
        <ele>1553.5999755859</ele>
        <time>2014-01-31T09:19:46.000Z</time>
      </trkpt>
      <trkpt lat="45.55852" lon="6.59046">
        <ele>1553.5999755859</ele>
        <time>2014-01-31T09:19:49.000Z</time>
      </trkpt>
      <trkpt lat="45.55852" lon="6.59046">
        <ele>1553.5999755859</ele>
        <time>2014-01-31T09:19:50.000Z</time>
      </trkpt>
      <trkpt lat="45.55852" lon="6.59046">
        <ele>1553.5999755859</ele>
        <time>2014-01-31T09:19:51.000Z</time>
      </trkpt>
      <trkpt lat="45.55852" lon="6.59045">
        <ele>1553.5999755859</ele>
        <time>2014-01-31T09:19:52.000Z</time>
      </trkpt>
      <trkpt lat="45.55852" lon="6.59045">
        <ele>1553.5999755859</ele>
        <time>2014-01-31T09:19:53.000Z</time>
      </trkpt>
      <trkpt lat="45.55852" lon="6.59045">
        <ele>1553.5999755859</ele>
        <time>2014-01-31T09:19:54.000Z</time>
      </trkpt>
      <trkpt lat="45.55853" lon="6.59044">
        <ele>1553.5999755859</ele>
        <time>2014-01-31T09:19:55.000Z</time>
      </trkpt>
      <trkpt lat="45.55853" lon="6.59043">
        <ele>1553.5999755859</ele>
        <time>2014-01-31T09:19:56.000Z</time>
      </trkpt>
      <trkpt lat="45.55853" lon="6.59043">
        <ele>1553.5999755859</ele>
        <time>2014-01-31T09:19:57.000Z</time>
      </trkpt>
      <trkpt lat="45.55853" lon="6.59043">
        <ele>1553.5999755859</ele>
        <time>2014-01-31T09:19:59.000Z</time>
      </trkpt>
      <trkpt lat="45.55853" lon="6.59043">
        <ele>1553.5999755859</ele>
        <time>2014-01-31T09:20:00.000Z</time>
      </trkpt>
      <trkpt lat="45.55853" lon="6.59043">
        <ele>1553.5999755859</ele>
        <time>2014-01-31T09:20:01.000Z</time>
      </trkpt>
      <trkpt lat="45.55853" lon="6.59043">
        <ele>1553.5999755859</ele>
        <time>2014-01-31T09:20:02.000Z</time>
      </trkpt>
      <trkpt lat="45.55853" lon="6.59043">
        <ele>1553.8000488281</ele>
        <time>2014-01-31T09:20:03.000Z</time>
      </trkpt>
      <trkpt lat="45.55853" lon="6.59043">
        <ele>1553.8000488281</ele>
        <time>2014-01-31T09:20:04.000Z</time>
      </trkpt>
      <trkpt lat="45.55853" lon="6.59043">
        <ele>1554</ele>
        <time>2014-01-31T09:20:05.000Z</time>
      </trkpt>
      <trkpt lat="45.55853" lon="6.59042">
        <ele>1554</ele>
        <time>2014-01-31T09:20:06.000Z</time>
      </trkpt>
      <trkpt lat="45.55853" lon="6.59041">
        <ele>1554.1999511719</ele>
        <time>2014-01-31T09:20:07.000Z</time>
      </trkpt>
      <trkpt lat="45.55853" lon="6.59041">
        <ele>1554.1999511719</ele>
        <time>2014-01-31T09:20:08.000Z</time>
      </trkpt>
      <trkpt lat="45.55852" lon="6.5904">
        <ele>1554.1999511719</ele>
        <time>2014-01-31T09:20:09.000Z</time>
      </trkpt>
      <trkpt lat="45.55851" lon="6.59039">
        <ele>1554.4000244141</ele>
        <time>2014-01-31T09:20:10.000Z</time>
      </trkpt>
      <trkpt lat="45.5585" lon="6.59039">
        <ele>1554.4000244141</ele>
        <time>2014-01-31T09:20:11.000Z</time>
      </trkpt>
      <trkpt lat="45.55849" lon="6.59038">
        <ele>1554.8000488281</ele>
        <time>2014-01-31T09:20:12.000Z</time>
      </trkpt>
      <trkpt lat="45.55848" lon="6.59038">
        <ele>1554.8000488281</ele>
        <time>2014-01-31T09:20:13.000Z</time>
      </trkpt>
      <trkpt lat="45.55848" lon="6.59037">
        <ele>1555</ele>
        <time>2014-01-31T09:20:14.000Z</time>
      </trkpt>
      <trkpt lat="45.55847" lon="6.59035">
        <ele>1555.1999511719</ele>
        <time>2014-01-31T09:20:15.000Z</time>
      </trkpt>
      <trkpt lat="45.55847" lon="6.59035">
        <ele>1555.4000244141</ele>
        <time>2014-01-31T09:20:16.000Z</time>
      </trkpt>
      <trkpt lat="45.55847" lon="6.59035">
        <ele>1555.5999755859</ele>
        <time>2014-01-31T09:20:17.000Z</time>
      </trkpt>
      <trkpt lat="45.55846" lon="6.59033">
        <ele>1555.8000488281</ele>
        <time>2014-01-31T09:20:18.000Z</time>
      </trkpt>
      <trkpt lat="45.55846" lon="6.59032">
        <ele>1556</ele>
        <time>2014-01-31T09:20:19.000Z</time>
      </trkpt>
      <trkpt lat="45.55846" lon="6.59031">
        <ele>1556</ele>
        <time>2014-01-31T09:20:20.000Z</time>
      </trkpt>
      <trkpt lat="45.55846" lon="6.5903">
        <ele>1556.1999511719</ele>
        <time>2014-01-31T09:20:21.000Z</time>
      </trkpt>
      <trkpt lat="45.55845" lon="6.5903">
        <ele>1556.1999511719</ele>
        <time>2014-01-31T09:20:22.000Z</time>
      </trkpt>
      <trkpt lat="45.55845" lon="6.5903">
        <ele>1556.4000244141</ele>
        <time>2014-01-31T09:20:23.000Z</time>
      </trkpt>
      <trkpt lat="45.55845" lon="6.5903">
        <ele>1556.5999755859</ele>
        <time>2014-01-31T09:20:24.000Z</time>
      </trkpt>
      <trkpt lat="45.55845" lon="6.5903">
        <ele>1556.5999755859</ele>
        <time>2014-01-31T09:20:25.000Z</time>
      </trkpt>
      <trkpt lat="45.55845" lon="6.5903">
        <ele>1556.8000488281</ele>
        <time>2014-01-31T09:20:26.000Z</time>
      </trkpt>
      <trkpt lat="45.55844" lon="6.5903">
        <ele>1557</ele>
        <time>2014-01-31T09:20:27.000Z</time>
      </trkpt>
      <trkpt lat="45.55844" lon="6.59029">
        <ele>1557</ele>
        <time>2014-01-31T09:20:28.000Z</time>
      </trkpt>
      <trkpt lat="45.55844" lon="6.59028">
        <ele>1557.1999511719</ele>
        <time>2014-01-31T09:20:29.000Z</time>
      </trkpt>
      <trkpt lat="45.55844" lon="6.59028">
        <ele>1557.4000244141</ele>
        <time>2014-01-31T09:20:30.000Z</time>
      </trkpt>
      <trkpt lat="45.55843" lon="6.59028">
        <ele>1557.5999755859</ele>
        <time>2014-01-31T09:20:31.000Z</time>
      </trkpt>
      <trkpt lat="45.55843" lon="6.59028">
        <ele>1557.5999755859</ele>
        <time>2014-01-31T09:20:32.000Z</time>
      </trkpt>
      <trkpt lat="45.55842" lon="6.59027">
        <ele>1557.8000488281</ele>
        <time>2014-01-31T09:20:33.000Z</time>
      </trkpt>
      <trkpt lat="45.55841" lon="6.59027">
        <ele>1558</ele>
        <time>2014-01-31T09:20:34.000Z</time>
      </trkpt>
      <trkpt lat="45.5584" lon="6.59026">
        <ele>1558</ele>
        <time>2014-01-31T09:20:35.000Z</time>
      </trkpt>
      <trkpt lat="45.5584" lon="6.59026">
        <ele>1558.4000244141</ele>
        <time>2014-01-31T09:20:36.000Z</time>
      </trkpt>
      <trkpt lat="45.5584" lon="6.59026">
        <ele>1558.5999755859</ele>
        <time>2014-01-31T09:20:37.000Z</time>
      </trkpt>
      <trkpt lat="45.5584" lon="6.59025">
        <ele>1558.8000488281</ele>
        <time>2014-01-31T09:20:38.000Z</time>
      </trkpt>
      <trkpt lat="45.5584" lon="6.59025">
        <ele>1559</ele>
        <time>2014-01-31T09:20:39.000Z</time>
      </trkpt>
      <trkpt lat="45.5584" lon="6.59025">
        <ele>1559.1999511719</ele>
        <time>2014-01-31T09:20:40.000Z</time>
      </trkpt>
      <trkpt lat="45.5584" lon="6.59025">
        <ele>1559.4000244141</ele>
        <time>2014-01-31T09:20:41.000Z</time>
      </trkpt>
      <trkpt lat="45.5584" lon="6.59025">
        <ele>1559.4000244141</ele>
        <time>2014-01-31T09:20:42.000Z</time>
      </trkpt>
      <trkpt lat="45.5584" lon="6.59025">
        <ele>1559.5999755859</ele>
        <time>2014-01-31T09:20:43.000Z</time>
      </trkpt>
      <trkpt lat="45.5584" lon="6.59023">
        <ele>1559.8000488281</ele>
        <time>2014-01-31T09:20:44.000Z</time>
      </trkpt>
      <trkpt lat="45.5584" lon="6.59021">
        <ele>1559.8000488281</ele>
        <time>2014-01-31T09:20:45.000Z</time>
      </trkpt>
      <trkpt lat="45.5584" lon="6.59019">
        <ele>1560</ele>
        <time>2014-01-31T09:20:46.000Z</time>
      </trkpt>
      <trkpt lat="45.5584" lon="6.59017">
        <ele>1560.1999511719</ele>
        <time>2014-01-31T09:20:47.000Z</time>
      </trkpt>
      <trkpt lat="45.55839" lon="6.59016">
        <ele>1560.4000244141</ele>
        <time>2014-01-31T09:20:48.000Z</time>
      </trkpt>
      <trkpt lat="45.55839" lon="6.59014">
        <ele>1560.5999755859</ele>
        <time>2014-01-31T09:20:49.000Z</time>
      </trkpt>
      <trkpt lat="45.55839" lon="6.59014">
        <ele>1560.8000488281</ele>
        <time>2014-01-31T09:20:50.000Z</time>
      </trkpt>
      <trkpt lat="45.55839" lon="6.59014">
        <ele>1561</ele>
        <time>2014-01-31T09:20:51.000Z</time>
      </trkpt>
      <trkpt lat="45.55839" lon="6.59014">
        <ele>1561</ele>
        <time>2014-01-31T09:20:52.000Z</time>
      </trkpt>
      <trkpt lat="45.55839" lon="6.59014">
        <ele>1561.1999511719</ele>
        <time>2014-01-31T09:20:53.000Z</time>
      </trkpt>
      <trkpt lat="45.55838" lon="6.59013">
        <ele>1561.4000244141</ele>
        <time>2014-01-31T09:20:54.000Z</time>
      </trkpt>
      <trkpt lat="45.55837" lon="6.59012">
        <ele>1561.4000244141</ele>
        <time>2014-01-31T09:20:55.000Z</time>
      </trkpt>
      <trkpt lat="45.55837" lon="6.59012">
        <ele>1561.5999755859</ele>
        <time>2014-01-31T09:20:56.000Z</time>
      </trkpt>
      <trkpt lat="45.55837" lon="6.59012">
        <ele>1561.5999755859</ele>
        <time>2014-01-31T09:20:57.000Z</time>
      </trkpt>
      <trkpt lat="45.55837" lon="6.59011">
        <ele>1561.8000488281</ele>
        <time>2014-01-31T09:20:58.000Z</time>
      </trkpt>
      <trkpt lat="45.55836" lon="6.5901">
        <ele>1562</ele>
        <time>2014-01-31T09:20:59.000Z</time>
      </trkpt>
      <trkpt lat="45.55836" lon="6.59009">
        <ele>1562.4000244141</ele>
        <time>2014-01-31T09:21:00.000Z</time>
      </trkpt>
      <trkpt lat="45.55835" lon="6.59008">
        <ele>1562.5999755859</ele>
        <time>2014-01-31T09:21:01.000Z</time>
      </trkpt>
      <trkpt lat="45.55834" lon="6.59007">
        <ele>1562.5999755859</ele>
        <time>2014-01-31T09:21:02.000Z</time>
      </trkpt>
      <trkpt lat="45.55834" lon="6.59005">
        <ele>1562.8000488281</ele>
        <time>2014-01-31T09:21:03.000Z</time>
      </trkpt>
      <trkpt lat="45.55833" lon="6.59004">
        <ele>1563</ele>
        <time>2014-01-31T09:21:04.000Z</time>
      </trkpt>
      <trkpt lat="45.55832" lon="6.59003">
        <ele>1563</ele>
        <time>2014-01-31T09:21:05.000Z</time>
      </trkpt>
      <trkpt lat="45.55832" lon="6.59002">
        <ele>1563.1999511719</ele>
        <time>2014-01-31T09:21:06.000Z</time>
      </trkpt>
      <trkpt lat="45.55831" lon="6.59001">
        <ele>1563.4000244141</ele>
        <time>2014-01-31T09:21:07.000Z</time>
      </trkpt>
      <trkpt lat="45.55831" lon="6.59">
        <ele>1563.4000244141</ele>
        <time>2014-01-31T09:21:08.000Z</time>
      </trkpt>
      <trkpt lat="45.55831" lon="6.58999">
        <ele>1563.5999755859</ele>
        <time>2014-01-31T09:21:09.000Z</time>
      </trkpt>
      <trkpt lat="45.5583" lon="6.58998">
        <ele>1563.8000488281</ele>
        <time>2014-01-31T09:21:10.000Z</time>
      </trkpt>
      <trkpt lat="45.5583" lon="6.58996">
        <ele>1564</ele>
        <time>2014-01-31T09:21:11.000Z</time>
      </trkpt>
      <trkpt lat="45.5583" lon="6.58995">
        <ele>1564.1999511719</ele>
        <time>2014-01-31T09:21:12.000Z</time>
      </trkpt>
      <trkpt lat="45.55829" lon="6.58994">
        <ele>1564.4000244141</ele>
        <time>2014-01-31T09:21:13.000Z</time>
      </trkpt>
      <trkpt lat="45.55828" lon="6.58992">
        <ele>1564.5999755859</ele>
        <time>2014-01-31T09:21:14.000Z</time>
      </trkpt>
      <trkpt lat="45.55828" lon="6.58991">
        <ele>1564.5999755859</ele>
        <time>2014-01-31T09:21:15.000Z</time>
      </trkpt>
      <trkpt lat="45.55827" lon="6.5899">
        <ele>1564.8000488281</ele>
        <time>2014-01-31T09:21:16.000Z</time>
      </trkpt>
      <trkpt lat="45.55827" lon="6.58989">
        <ele>1565</ele>
        <time>2014-01-31T09:21:17.000Z</time>
      </trkpt>
      <trkpt lat="45.55826" lon="6.58988">
        <ele>1565.1999511719</ele>
        <time>2014-01-31T09:21:18.000Z</time>
      </trkpt>
      <trkpt lat="45.55826" lon="6.58987">
        <ele>1565.1999511719</ele>
        <time>2014-01-31T09:21:19.000Z</time>
      </trkpt>
      <trkpt lat="45.55826" lon="6.58986">
        <ele>1565.4000244141</ele>
        <time>2014-01-31T09:21:20.000Z</time>
      </trkpt>
      <trkpt lat="45.55825" lon="6.58985">
        <ele>1565.5999755859</ele>
        <time>2014-01-31T09:21:21.000Z</time>
      </trkpt>
      <trkpt lat="45.55825" lon="6.58984">
        <ele>1565.5999755859</ele>
        <time>2014-01-31T09:21:22.000Z</time>
      </trkpt>
      <trkpt lat="45.55824" lon="6.58983">
        <ele>1565.8000488281</ele>
        <time>2014-01-31T09:21:23.000Z</time>
      </trkpt>
      <trkpt lat="45.55824" lon="6.58982">
        <ele>1566</ele>
        <time>2014-01-31T09:21:24.000Z</time>
      </trkpt>
      <trkpt lat="45.55823" lon="6.58982">
        <ele>1566.1999511719</ele>
        <time>2014-01-31T09:21:25.000Z</time>
      </trkpt>
      <trkpt lat="45.55823" lon="6.58981">
        <ele>1566.5999755859</ele>
        <time>2014-01-31T09:21:26.000Z</time>
      </trkpt>
      <trkpt lat="45.55822" lon="6.58981">
        <ele>1566.5999755859</ele>
        <time>2014-01-31T09:21:27.000Z</time>
      </trkpt>
      <trkpt lat="45.55822" lon="6.58981">
        <ele>1566.8000488281</ele>
        <time>2014-01-31T09:21:28.000Z</time>
      </trkpt>
      <trkpt lat="45.55822" lon="6.5898">
        <ele>1567</ele>
        <time>2014-01-31T09:21:29.000Z</time>
      </trkpt>
      <trkpt lat="45.55821" lon="6.5898">
        <ele>1567.1999511719</ele>
        <time>2014-01-31T09:21:30.000Z</time>
      </trkpt>
      <trkpt lat="45.55821" lon="6.58979">
        <ele>1567.4000244141</ele>
        <time>2014-01-31T09:21:31.000Z</time>
      </trkpt>
      <trkpt lat="45.55821" lon="6.58978">
        <ele>1567.5999755859</ele>
        <time>2014-01-31T09:21:32.000Z</time>
      </trkpt>
      <trkpt lat="45.5582" lon="6.58977">
        <ele>1567.5999755859</ele>
        <time>2014-01-31T09:21:33.000Z</time>
      </trkpt>
      <trkpt lat="45.5582" lon="6.58976">
        <ele>1567.8000488281</ele>
        <time>2014-01-31T09:21:34.000Z</time>
      </trkpt>
      <trkpt lat="45.55819" lon="6.58975">
        <ele>1568</ele>
        <time>2014-01-31T09:21:35.000Z</time>
      </trkpt>
      <trkpt lat="45.55818" lon="6.58975">
        <ele>1568.1999511719</ele>
        <time>2014-01-31T09:21:36.000Z</time>
      </trkpt>
      <trkpt lat="45.55818" lon="6.58974">
        <ele>1568.4000244141</ele>
        <time>2014-01-31T09:21:37.000Z</time>
      </trkpt>
      <trkpt lat="45.55818" lon="6.58973">
        <ele>1568.5999755859</ele>
        <time>2014-01-31T09:21:38.000Z</time>
      </trkpt>
      <trkpt lat="45.55817" lon="6.58972">
        <ele>1568.8000488281</ele>
        <time>2014-01-31T09:21:39.000Z</time>
      </trkpt>
      <trkpt lat="45.55817" lon="6.58971">
        <ele>1569</ele>
        <time>2014-01-31T09:21:40.000Z</time>
      </trkpt>
      <trkpt lat="45.55816" lon="6.5897">
        <ele>1569.1999511719</ele>
        <time>2014-01-31T09:21:41.000Z</time>
      </trkpt>
      <trkpt lat="45.55816" lon="6.58968">
        <ele>1569.5999755859</ele>
        <time>2014-01-31T09:21:42.000Z</time>
      </trkpt>
      <trkpt lat="45.55815" lon="6.58967">
        <ele>1569.8000488281</ele>
        <time>2014-01-31T09:21:43.000Z</time>
      </trkpt>
      <trkpt lat="45.55815" lon="6.58967">
        <ele>1569.8000488281</ele>
        <time>2014-01-31T09:21:44.000Z</time>
      </trkpt>
      <trkpt lat="45.55815" lon="6.58967">
        <ele>1570</ele>
        <time>2014-01-31T09:21:45.000Z</time>
      </trkpt>
      <trkpt lat="45.55815" lon="6.58967">
        <ele>1570</ele>
        <time>2014-01-31T09:21:46.000Z</time>
      </trkpt>
      <trkpt lat="45.55814" lon="6.58966">
        <ele>1570.1999511719</ele>
        <time>2014-01-31T09:21:47.000Z</time>
      </trkpt>
      <trkpt lat="45.55814" lon="6.58965">
        <ele>1570.4000244141</ele>
        <time>2014-01-31T09:21:48.000Z</time>
      </trkpt>
      <trkpt lat="45.55814" lon="6.58966">
        <ele>1570.4000244141</ele>
        <time>2014-01-31T09:21:49.000Z</time>
      </trkpt>
      <trkpt lat="45.55814" lon="6.58966">
        <ele>1570.5999755859</ele>
        <time>2014-01-31T09:21:50.000Z</time>
      </trkpt>
      <trkpt lat="45.55814" lon="6.58966">
        <ele>1570.5999755859</ele>
        <time>2014-01-31T09:21:51.000Z</time>
      </trkpt>
      <trkpt lat="45.55814" lon="6.58966">
        <ele>1570.5999755859</ele>
        <time>2014-01-31T09:21:52.000Z</time>
      </trkpt>
      <trkpt lat="45.55814" lon="6.58965">
        <ele>1570.8000488281</ele>
        <time>2014-01-31T09:21:53.000Z</time>
      </trkpt>
      <trkpt lat="45.55813" lon="6.58965">
        <ele>1570.8000488281</ele>
        <time>2014-01-31T09:21:54.000Z</time>
      </trkpt>
      <trkpt lat="45.55813" lon="6.58965">
        <ele>1570.8000488281</ele>
        <time>2014-01-31T09:21:55.000Z</time>
      </trkpt>
      <trkpt lat="45.55813" lon="6.58963">
        <ele>1571</ele>
        <time>2014-01-31T09:21:56.000Z</time>
      </trkpt>
      <trkpt lat="45.55813" lon="6.58962">
        <ele>1571</ele>
        <time>2014-01-31T09:21:57.000Z</time>
      </trkpt>
      <trkpt lat="45.55812" lon="6.58961">
        <ele>1571</ele>
        <time>2014-01-31T09:21:58.000Z</time>
      </trkpt>
      <trkpt lat="45.55812" lon="6.5896">
        <ele>1571</ele>
        <time>2014-01-31T09:21:59.000Z</time>
      </trkpt>
      <trkpt lat="45.55812" lon="6.58959">
        <ele>1571</ele>
        <time>2014-01-31T09:22:00.000Z</time>
      </trkpt>
      <trkpt lat="45.55812" lon="6.58958">
        <ele>1571.1999511719</ele>
        <time>2014-01-31T09:22:01.000Z</time>
      </trkpt>
      <trkpt lat="45.55812" lon="6.58958">
        <ele>1571.1999511719</ele>
        <time>2014-01-31T09:22:02.000Z</time>
      </trkpt>
      <trkpt lat="45.55812" lon="6.58957">
        <ele>1571.4000244141</ele>
        <time>2014-01-31T09:22:03.000Z</time>
      </trkpt>
      <trkpt lat="45.55812" lon="6.58955">
        <ele>1571.5999755859</ele>
        <time>2014-01-31T09:22:04.000Z</time>
      </trkpt>
      <trkpt lat="45.55812" lon="6.58954">
        <ele>1571.8000488281</ele>
        <time>2014-01-31T09:22:05.000Z</time>
      </trkpt>
      <trkpt lat="45.55812" lon="6.58953">
        <ele>1572.1999511719</ele>
        <time>2014-01-31T09:22:06.000Z</time>
      </trkpt>
      <trkpt lat="45.55812" lon="6.58952">
        <ele>1572.4000244141</ele>
        <time>2014-01-31T09:22:07.000Z</time>
      </trkpt>
      <trkpt lat="45.55812" lon="6.58951">
        <ele>1572.5999755859</ele>
        <time>2014-01-31T09:22:08.000Z</time>
      </trkpt>
      <trkpt lat="45.55812" lon="6.5895">
        <ele>1572.8000488281</ele>
        <time>2014-01-31T09:22:09.000Z</time>
      </trkpt>
      <trkpt lat="45.55812" lon="6.58948">
        <ele>1573</ele>
        <time>2014-01-31T09:22:10.000Z</time>
      </trkpt>
      <trkpt lat="45.55813" lon="6.58947">
        <ele>1573.1999511719</ele>
        <time>2014-01-31T09:22:11.000Z</time>
      </trkpt>
      <trkpt lat="45.55813" lon="6.58945">
        <ele>1573.4000244141</ele>
        <time>2014-01-31T09:22:12.000Z</time>
      </trkpt>
      <trkpt lat="45.55813" lon="6.58945">
        <ele>1573.5999755859</ele>
        <time>2014-01-31T09:22:13.000Z</time>
      </trkpt>
      <trkpt lat="45.55814" lon="6.58944">
        <ele>1573.8000488281</ele>
        <time>2014-01-31T09:22:14.000Z</time>
      </trkpt>
      <trkpt lat="45.55814" lon="6.58943">
        <ele>1574</ele>
        <time>2014-01-31T09:22:15.000Z</time>
      </trkpt>
      <trkpt lat="45.55815" lon="6.58942">
        <ele>1574.1999511719</ele>
        <time>2014-01-31T09:22:16.000Z</time>
      </trkpt>
      <trkpt lat="45.55815" lon="6.58941">
        <ele>1574.1999511719</ele>
        <time>2014-01-31T09:22:17.000Z</time>
      </trkpt>
      <trkpt lat="45.55815" lon="6.5894">
        <ele>1574.4000244141</ele>
        <time>2014-01-31T09:22:18.000Z</time>
      </trkpt>
      <trkpt lat="45.55816" lon="6.5894">
        <ele>1574.5999755859</ele>
        <time>2014-01-31T09:22:19.000Z</time>
      </trkpt>
      <trkpt lat="45.55817" lon="6.58939">
        <ele>1574.8000488281</ele>
        <time>2014-01-31T09:22:20.000Z</time>
      </trkpt>
      <trkpt lat="45.55818" lon="6.58938">
        <ele>1574.8000488281</ele>
        <time>2014-01-31T09:22:21.000Z</time>
      </trkpt>
      <trkpt lat="45.55818" lon="6.58937">
        <ele>1575</ele>
        <time>2014-01-31T09:22:22.000Z</time>
      </trkpt>
      <trkpt lat="45.55819" lon="6.58937">
        <ele>1575.1999511719</ele>
        <time>2014-01-31T09:22:23.000Z</time>
      </trkpt>
      <trkpt lat="45.5582" lon="6.58936">
        <ele>1575.4000244141</ele>
        <time>2014-01-31T09:22:24.000Z</time>
      </trkpt>
      <trkpt lat="45.55821" lon="6.58936">
        <ele>1575.4000244141</ele>
        <time>2014-01-31T09:22:25.000Z</time>
      </trkpt>
      <trkpt lat="45.55822" lon="6.58936">
        <ele>1575.5999755859</ele>
        <time>2014-01-31T09:22:26.000Z</time>
      </trkpt>
      <trkpt lat="45.55823" lon="6.58936">
        <ele>1575.8000488281</ele>
        <time>2014-01-31T09:22:27.000Z</time>
      </trkpt>
      <trkpt lat="45.55824" lon="6.58936">
        <ele>1576</ele>
        <time>2014-01-31T09:22:28.000Z</time>
      </trkpt>
      <trkpt lat="45.55825" lon="6.58936">
        <ele>1576.1999511719</ele>
        <time>2014-01-31T09:22:29.000Z</time>
      </trkpt>
      <trkpt lat="45.55825" lon="6.58936">
        <ele>1576.4000244141</ele>
        <time>2014-01-31T09:22:30.000Z</time>
      </trkpt>
      <trkpt lat="45.55826" lon="6.58936">
        <ele>1576.5999755859</ele>
        <time>2014-01-31T09:22:31.000Z</time>
      </trkpt>
      <trkpt lat="45.55826" lon="6.58935">
        <ele>1576.8000488281</ele>
        <time>2014-01-31T09:22:32.000Z</time>
      </trkpt>
      <trkpt lat="45.55827" lon="6.58935">
        <ele>1577</ele>
        <time>2014-01-31T09:22:33.000Z</time>
      </trkpt>
      <trkpt lat="45.55827" lon="6.58935">
        <ele>1577</ele>
        <time>2014-01-31T09:22:34.000Z</time>
      </trkpt>
      <trkpt lat="45.55828" lon="6.58935">
        <ele>1577.1999511719</ele>
        <time>2014-01-31T09:22:35.000Z</time>
      </trkpt>
      <trkpt lat="45.55829" lon="6.58934">
        <ele>1577.4000244141</ele>
        <time>2014-01-31T09:22:36.000Z</time>
      </trkpt>
      <trkpt lat="45.55829" lon="6.58934">
        <ele>1577.5999755859</ele>
        <time>2014-01-31T09:22:37.000Z</time>
      </trkpt>
      <trkpt lat="45.5583" lon="6.58934">
        <ele>1577.8000488281</ele>
        <time>2014-01-31T09:22:38.000Z</time>
      </trkpt>
      <trkpt lat="45.5583" lon="6.58934">
        <ele>1578</ele>
        <time>2014-01-31T09:22:39.000Z</time>
      </trkpt>
      <trkpt lat="45.55831" lon="6.58933">
        <ele>1578</ele>
        <time>2014-01-31T09:22:40.000Z</time>
      </trkpt>
      <trkpt lat="45.55832" lon="6.58933">
        <ele>1578.1999511719</ele>
        <time>2014-01-31T09:22:41.000Z</time>
      </trkpt>
      <trkpt lat="45.55833" lon="6.58933">
        <ele>1578.4000244141</ele>
        <time>2014-01-31T09:22:42.000Z</time>
      </trkpt>
      <trkpt lat="45.55834" lon="6.58933">
        <ele>1578.4000244141</ele>
        <time>2014-01-31T09:22:43.000Z</time>
      </trkpt>
      <trkpt lat="45.55834" lon="6.58932">
        <ele>1578.5999755859</ele>
        <time>2014-01-31T09:22:44.000Z</time>
      </trkpt>
      <trkpt lat="45.55835" lon="6.58932">
        <ele>1578.8000488281</ele>
        <time>2014-01-31T09:22:45.000Z</time>
      </trkpt>
      <trkpt lat="45.55836" lon="6.58932">
        <ele>1578.8000488281</ele>
        <time>2014-01-31T09:22:46.000Z</time>
      </trkpt>
      <trkpt lat="45.55837" lon="6.58932">
        <ele>1579</ele>
        <time>2014-01-31T09:22:47.000Z</time>
      </trkpt>
      <trkpt lat="45.55838" lon="6.58932">
        <ele>1579.1999511719</ele>
        <time>2014-01-31T09:22:48.000Z</time>
      </trkpt>
      <trkpt lat="45.55838" lon="6.58932">
        <ele>1579.4000244141</ele>
        <time>2014-01-31T09:22:49.000Z</time>
      </trkpt>
      <trkpt lat="45.55839" lon="6.58932">
        <ele>1579.5999755859</ele>
        <time>2014-01-31T09:22:50.000Z</time>
      </trkpt>
      <trkpt lat="45.55839" lon="6.58931">
        <ele>1579.8000488281</ele>
        <time>2014-01-31T09:22:51.000Z</time>
      </trkpt>
      <trkpt lat="45.5584" lon="6.58931">
        <ele>1580</ele>
        <time>2014-01-31T09:22:52.000Z</time>
      </trkpt>
      <trkpt lat="45.55841" lon="6.58931">
        <ele>1580.1999511719</ele>
        <time>2014-01-31T09:22:53.000Z</time>
      </trkpt>
      <trkpt lat="45.55841" lon="6.58931">
        <ele>1580.4000244141</ele>
        <time>2014-01-31T09:22:54.000Z</time>
      </trkpt>
      <trkpt lat="45.55841" lon="6.58931">
        <ele>1580.5999755859</ele>
        <time>2014-01-31T09:22:55.000Z</time>
      </trkpt>
      <trkpt lat="45.55841" lon="6.58931">
        <ele>1580.8000488281</ele>
        <time>2014-01-31T09:22:56.000Z</time>
      </trkpt>
      <trkpt lat="45.55841" lon="6.58931">
        <ele>1581</ele>
        <time>2014-01-31T09:22:57.000Z</time>
      </trkpt>
      <trkpt lat="45.55841" lon="6.58931">
        <ele>1581</ele>
        <time>2014-01-31T09:22:58.000Z</time>
      </trkpt>
      <trkpt lat="45.55841" lon="6.58931">
        <ele>1581.1999511719</ele>
        <time>2014-01-31T09:22:59.000Z</time>
      </trkpt>
      <trkpt lat="45.55841" lon="6.58931">
        <ele>1581.1999511719</ele>
        <time>2014-01-31T09:23:00.000Z</time>
      </trkpt>
      <trkpt lat="45.55841" lon="6.58932">
        <ele>1581.4000244141</ele>
        <time>2014-01-31T09:23:01.000Z</time>
      </trkpt>
      <trkpt lat="45.55841" lon="6.58932">
        <ele>1581.4000244141</ele>
        <time>2014-01-31T09:23:02.000Z</time>
      </trkpt>
      <trkpt lat="45.55841" lon="6.58932">
        <ele>1581.5999755859</ele>
        <time>2014-01-31T09:23:03.000Z</time>
      </trkpt>
      <trkpt lat="45.55841" lon="6.58932">
        <ele>1581.5999755859</ele>
        <time>2014-01-31T09:23:04.000Z</time>
      </trkpt>
      <trkpt lat="45.55841" lon="6.58932">
        <ele>1581.5999755859</ele>
        <time>2014-01-31T09:23:05.000Z</time>
      </trkpt>
      <trkpt lat="45.55841" lon="6.58932">
        <ele>1581.5999755859</ele>
        <time>2014-01-31T09:23:06.000Z</time>
      </trkpt>
      <trkpt lat="45.55841" lon="6.58932">
        <ele>1581.5999755859</ele>
        <time>2014-01-31T09:23:10.000Z</time>
      </trkpt>
      <trkpt lat="45.55841" lon="6.58932">
        <ele>1581.5999755859</ele>
        <time>2014-01-31T09:23:11.000Z</time>
      </trkpt>
      <trkpt lat="45.55841" lon="6.58932">
        <ele>1581.4000244141</ele>
        <time>2014-01-31T09:23:12.000Z</time>
      </trkpt>
      <trkpt lat="45.55841" lon="6.58932">
        <ele>1581.4000244141</ele>
        <time>2014-01-31T09:23:13.000Z</time>
      </trkpt>
      <trkpt lat="45.55841" lon="6.58932">
        <ele>1581.4000244141</ele>
        <time>2014-01-31T09:23:14.000Z</time>
      </trkpt>
      <trkpt lat="45.55841" lon="6.58932">
        <ele>1581.4000244141</ele>
        <time>2014-01-31T09:23:16.000Z</time>
      </trkpt>
      <trkpt lat="45.55841" lon="6.58932">
        <ele>1581.4000244141</ele>
        <time>2014-01-31T09:23:17.000Z</time>
      </trkpt>
      <trkpt lat="45.55841" lon="6.58932">
        <ele>1581.5999755859</ele>
        <time>2014-01-31T09:23:18.000Z</time>
      </trkpt>
      <trkpt lat="45.55842" lon="6.58931">
        <ele>1581.5999755859</ele>
        <time>2014-01-31T09:23:19.000Z</time>
      </trkpt>
      <trkpt lat="45.55843" lon="6.5893">
        <ele>1581.5999755859</ele>
        <time>2014-01-31T09:23:20.000Z</time>
      </trkpt>
      <trkpt lat="45.55844" lon="6.5893">
        <ele>1581.5999755859</ele>
        <time>2014-01-31T09:23:21.000Z</time>
      </trkpt>
      <trkpt lat="45.55845" lon="6.58929">
        <ele>1581.8000488281</ele>
        <time>2014-01-31T09:23:22.000Z</time>
      </trkpt>
      <trkpt lat="45.55847" lon="6.58929">
        <ele>1581.8000488281</ele>
        <time>2014-01-31T09:23:23.000Z</time>
      </trkpt>
      <trkpt lat="45.55848" lon="6.58928">
        <ele>1582</ele>
        <time>2014-01-31T09:23:24.000Z</time>
      </trkpt>
      <trkpt lat="45.55849" lon="6.58928">
        <ele>1582</ele>
        <time>2014-01-31T09:23:25.000Z</time>
      </trkpt>
      <trkpt lat="45.5585" lon="6.58927">
        <ele>1582</ele>
        <time>2014-01-31T09:23:26.000Z</time>
      </trkpt>
      <trkpt lat="45.55851" lon="6.58927">
        <ele>1582.1999511719</ele>
        <time>2014-01-31T09:23:27.000Z</time>
      </trkpt>
      <trkpt lat="45.55852" lon="6.58926">
        <ele>1582.1999511719</ele>
        <time>2014-01-31T09:23:28.000Z</time>
      </trkpt>
      <trkpt lat="45.55853" lon="6.58925">
        <ele>1582.1999511719</ele>
        <time>2014-01-31T09:23:29.000Z</time>
      </trkpt>
      <trkpt lat="45.55854" lon="6.58925">
        <ele>1582.4000244141</ele>
        <time>2014-01-31T09:23:30.000Z</time>
      </trkpt>
      <trkpt lat="45.55854" lon="6.58924">
        <ele>1582.4000244141</ele>
        <time>2014-01-31T09:23:31.000Z</time>
      </trkpt>
      <trkpt lat="45.55855" lon="6.58923">
        <ele>1582.5999755859</ele>
        <time>2014-01-31T09:23:32.000Z</time>
      </trkpt>
      <trkpt lat="45.55855" lon="6.58922">
        <ele>1582.5999755859</ele>
        <time>2014-01-31T09:23:33.000Z</time>
      </trkpt>
      <trkpt lat="45.55856" lon="6.58921">
        <ele>1582.5999755859</ele>
        <time>2014-01-31T09:23:34.000Z</time>
      </trkpt>
      <trkpt lat="45.55857" lon="6.5892">
        <ele>1582.8000488281</ele>
        <time>2014-01-31T09:23:35.000Z</time>
      </trkpt>
      <trkpt lat="45.55858" lon="6.58919">
        <ele>1583</ele>
        <time>2014-01-31T09:23:36.000Z</time>
      </trkpt>
      <trkpt lat="45.55858" lon="6.58918">
        <ele>1583.1999511719</ele>
        <time>2014-01-31T09:23:37.000Z</time>
      </trkpt>
      <trkpt lat="45.5586" lon="6.58917">
        <ele>1583.1999511719</ele>
        <time>2014-01-31T09:23:38.000Z</time>
      </trkpt>
      <trkpt lat="45.55861" lon="6.58916">
        <ele>1583.1999511719</ele>
        <time>2014-01-31T09:23:39.000Z</time>
      </trkpt>
      <trkpt lat="45.55862" lon="6.58915">
        <ele>1583.4000244141</ele>
        <time>2014-01-31T09:23:40.000Z</time>
      </trkpt>
      <trkpt lat="45.55863" lon="6.58914">
        <ele>1583.4000244141</ele>
        <time>2014-01-31T09:23:41.000Z</time>
      </trkpt>
      <trkpt lat="45.55863" lon="6.58914">
        <ele>1583.4000244141</ele>
        <time>2014-01-31T09:23:42.000Z</time>
      </trkpt>
      <trkpt lat="45.55865" lon="6.58913">
        <ele>1583.5999755859</ele>
        <time>2014-01-31T09:23:43.000Z</time>
      </trkpt>
      <trkpt lat="45.55865" lon="6.58912">
        <ele>1583.5999755859</ele>
        <time>2014-01-31T09:23:44.000Z</time>
      </trkpt>
      <trkpt lat="45.55866" lon="6.58911">
        <ele>1583.5999755859</ele>
        <time>2014-01-31T09:23:45.000Z</time>
      </trkpt>
      <trkpt lat="45.55866" lon="6.5891">
        <ele>1583.8000488281</ele>
        <time>2014-01-31T09:23:46.000Z</time>
      </trkpt>
      <trkpt lat="45.55867" lon="6.5891">
        <ele>1583.8000488281</ele>
        <time>2014-01-31T09:23:47.000Z</time>
      </trkpt>
      <trkpt lat="45.55868" lon="6.58909">
        <ele>1584</ele>
        <time>2014-01-31T09:23:48.000Z</time>
      </trkpt>
      <trkpt lat="45.55869" lon="6.58908">
        <ele>1584.1999511719</ele>
        <time>2014-01-31T09:23:49.000Z</time>
      </trkpt>
      <trkpt lat="45.55869" lon="6.58907">
        <ele>1584.4000244141</ele>
        <time>2014-01-31T09:23:50.000Z</time>
      </trkpt>
      <trkpt lat="45.5587" lon="6.58905">
        <ele>1584.4000244141</ele>
        <time>2014-01-31T09:23:51.000Z</time>
      </trkpt>
      <trkpt lat="45.55871" lon="6.58904">
        <ele>1584.5999755859</ele>
        <time>2014-01-31T09:23:52.000Z</time>
      </trkpt>
      <trkpt lat="45.55872" lon="6.58902">
        <ele>1584.5999755859</ele>
        <time>2014-01-31T09:23:53.000Z</time>
      </trkpt>
      <trkpt lat="45.55872" lon="6.58901">
        <ele>1584.8000488281</ele>
        <time>2014-01-31T09:23:54.000Z</time>
      </trkpt>
      <trkpt lat="45.55873" lon="6.589">
        <ele>1585</ele>
        <time>2014-01-31T09:23:55.000Z</time>
      </trkpt>
      <trkpt lat="45.55873" lon="6.58899">
        <ele>1585</ele>
        <time>2014-01-31T09:23:56.000Z</time>
      </trkpt>
      <trkpt lat="45.55874" lon="6.58899">
        <ele>1585.1999511719</ele>
        <time>2014-01-31T09:23:57.000Z</time>
      </trkpt>
      <trkpt lat="45.55874" lon="6.58898">
        <ele>1585.4000244141</ele>
        <time>2014-01-31T09:23:58.000Z</time>
      </trkpt>
      <trkpt lat="45.55875" lon="6.58897">
        <ele>1585.5999755859</ele>
        <time>2014-01-31T09:23:59.000Z</time>
      </trkpt>
      <trkpt lat="45.55876" lon="6.58896">
        <ele>1585.8000488281</ele>
        <time>2014-01-31T09:24:00.000Z</time>
      </trkpt>
      <trkpt lat="45.55877" lon="6.58894">
        <ele>1585.8000488281</ele>
        <time>2014-01-31T09:24:01.000Z</time>
      </trkpt>
      <trkpt lat="45.55877" lon="6.58893">
        <ele>1586</ele>
        <time>2014-01-31T09:24:02.000Z</time>
      </trkpt>
      <trkpt lat="45.55877" lon="6.58892">
        <ele>1586</ele>
        <time>2014-01-31T09:24:03.000Z</time>
      </trkpt>
      <trkpt lat="45.55877" lon="6.58891">
        <ele>1586</ele>
        <time>2014-01-31T09:24:04.000Z</time>
      </trkpt>
      <trkpt lat="45.55878" lon="6.58891">
        <ele>1586</ele>
        <time>2014-01-31T09:24:05.000Z</time>
      </trkpt>
      <trkpt lat="45.55878" lon="6.5889">
        <ele>1586.1999511719</ele>
        <time>2014-01-31T09:24:06.000Z</time>
      </trkpt>
      <trkpt lat="45.55878" lon="6.58889">
        <ele>1586.1999511719</ele>
        <time>2014-01-31T09:24:07.000Z</time>
      </trkpt>
      <trkpt lat="45.55878" lon="6.58888">
        <ele>1586.1999511719</ele>
        <time>2014-01-31T09:24:08.000Z</time>
      </trkpt>
      <trkpt lat="45.55879" lon="6.58887">
        <ele>1586.4000244141</ele>
        <time>2014-01-31T09:24:09.000Z</time>
      </trkpt>
      <trkpt lat="45.55879" lon="6.58885">
        <ele>1586.4000244141</ele>
        <time>2014-01-31T09:24:10.000Z</time>
      </trkpt>
      <trkpt lat="45.5588" lon="6.58883">
        <ele>1586.4000244141</ele>
        <time>2014-01-31T09:24:11.000Z</time>
      </trkpt>
      <trkpt lat="45.5588" lon="6.58882">
        <ele>1586.4000244141</ele>
        <time>2014-01-31T09:24:12.000Z</time>
      </trkpt>
      <trkpt lat="45.5588" lon="6.58881">
        <ele>1586.4000244141</ele>
        <time>2014-01-31T09:24:13.000Z</time>
      </trkpt>
      <trkpt lat="45.55881" lon="6.58879">
        <ele>1586.4000244141</ele>
        <time>2014-01-31T09:24:14.000Z</time>
      </trkpt>
      <trkpt lat="45.55881" lon="6.58878">
        <ele>1586.5999755859</ele>
        <time>2014-01-31T09:24:15.000Z</time>
      </trkpt>
      <trkpt lat="45.55881" lon="6.58877">
        <ele>1586.8000488281</ele>
        <time>2014-01-31T09:24:16.000Z</time>
      </trkpt>
      <trkpt lat="45.55881" lon="6.58876">
        <ele>1587</ele>
        <time>2014-01-31T09:24:17.000Z</time>
      </trkpt>
      <trkpt lat="45.55881" lon="6.58874">
        <ele>1587.1999511719</ele>
        <time>2014-01-31T09:24:18.000Z</time>
      </trkpt>
      <trkpt lat="45.55882" lon="6.58873">
        <ele>1587.1999511719</ele>
        <time>2014-01-31T09:24:19.000Z</time>
      </trkpt>
      <trkpt lat="45.55882" lon="6.58871">
        <ele>1587.4000244141</ele>
        <time>2014-01-31T09:24:20.000Z</time>
      </trkpt>
      <trkpt lat="45.55883" lon="6.5887">
        <ele>1587.4000244141</ele>
        <time>2014-01-31T09:24:21.000Z</time>
      </trkpt>
      <trkpt lat="45.55883" lon="6.58869">
        <ele>1587.5999755859</ele>
        <time>2014-01-31T09:24:22.000Z</time>
      </trkpt>
      <trkpt lat="45.55884" lon="6.58867">
        <ele>1587.8000488281</ele>
        <time>2014-01-31T09:24:23.000Z</time>
      </trkpt>
      <trkpt lat="45.55885" lon="6.58865">
        <ele>1588</ele>
        <time>2014-01-31T09:24:24.000Z</time>
      </trkpt>
      <trkpt lat="45.55885" lon="6.58865">
        <ele>1588</ele>
        <time>2014-01-31T09:24:25.000Z</time>
      </trkpt>
      <trkpt lat="45.55886" lon="6.58864">
        <ele>1588.1999511719</ele>
        <time>2014-01-31T09:24:26.000Z</time>
      </trkpt>
      <trkpt lat="45.55887" lon="6.58862">
        <ele>1588.1999511719</ele>
        <time>2014-01-31T09:24:27.000Z</time>
      </trkpt>
      <trkpt lat="45.55888" lon="6.58861">
        <ele>1588.4000244141</ele>
        <time>2014-01-31T09:24:28.000Z</time>
      </trkpt>
      <trkpt lat="45.55889" lon="6.58861">
        <ele>1588.4000244141</ele>
        <time>2014-01-31T09:24:29.000Z</time>
      </trkpt>
      <trkpt lat="45.5589" lon="6.5886">
        <ele>1588.5999755859</ele>
        <time>2014-01-31T09:24:30.000Z</time>
      </trkpt>
      <trkpt lat="45.55891" lon="6.5886">
        <ele>1588.5999755859</ele>
        <time>2014-01-31T09:24:31.000Z</time>
      </trkpt>
      <trkpt lat="45.55892" lon="6.58859">
        <ele>1588.5999755859</ele>
        <time>2014-01-31T09:24:32.000Z</time>
      </trkpt>
      <trkpt lat="45.55893" lon="6.58858">
        <ele>1588.8000488281</ele>
        <time>2014-01-31T09:24:33.000Z</time>
      </trkpt>
      <trkpt lat="45.55894" lon="6.58857">
        <ele>1588.8000488281</ele>
        <time>2014-01-31T09:24:34.000Z</time>
      </trkpt>
      <trkpt lat="45.55895" lon="6.58856">
        <ele>1589</ele>
        <time>2014-01-31T09:24:35.000Z</time>
      </trkpt>
      <trkpt lat="45.55896" lon="6.58855">
        <ele>1589.4000244141</ele>
        <time>2014-01-31T09:24:36.000Z</time>
      </trkpt>
      <trkpt lat="45.55897" lon="6.58854">
        <ele>1589.5999755859</ele>
        <time>2014-01-31T09:24:37.000Z</time>
      </trkpt>
      <trkpt lat="45.55898" lon="6.58854">
        <ele>1589.5999755859</ele>
        <time>2014-01-31T09:24:38.000Z</time>
      </trkpt>
      <trkpt lat="45.55899" lon="6.58853">
        <ele>1589.8000488281</ele>
        <time>2014-01-31T09:24:39.000Z</time>
      </trkpt>
      <trkpt lat="45.55899" lon="6.58852">
        <ele>1590</ele>
        <time>2014-01-31T09:24:40.000Z</time>
      </trkpt>
      <trkpt lat="45.559" lon="6.58852">
        <ele>1590.1999511719</ele>
        <time>2014-01-31T09:24:41.000Z</time>
      </trkpt>
      <trkpt lat="45.55901" lon="6.58851">
        <ele>1590.1999511719</ele>
        <time>2014-01-31T09:24:42.000Z</time>
      </trkpt>
      <trkpt lat="45.55902" lon="6.5885">
        <ele>1590.4000244141</ele>
        <time>2014-01-31T09:24:43.000Z</time>
      </trkpt>
      <trkpt lat="45.55902" lon="6.5885">
        <ele>1590.4000244141</ele>
        <time>2014-01-31T09:24:44.000Z</time>
      </trkpt>
      <trkpt lat="45.55903" lon="6.58849">
        <ele>1590.5999755859</ele>
        <time>2014-01-31T09:24:45.000Z</time>
      </trkpt>
      <trkpt lat="45.55904" lon="6.58848">
        <ele>1590.8000488281</ele>
        <time>2014-01-31T09:24:46.000Z</time>
      </trkpt>
      <trkpt lat="45.55904" lon="6.58847">
        <ele>1590.5999755859</ele>
        <time>2014-01-31T09:24:47.000Z</time>
      </trkpt>
      <trkpt lat="45.55906" lon="6.58846">
        <ele>1590.8000488281</ele>
        <time>2014-01-31T09:24:48.000Z</time>
      </trkpt>
      <trkpt lat="45.55906" lon="6.58845">
        <ele>1590.8000488281</ele>
        <time>2014-01-31T09:24:49.000Z</time>
      </trkpt>
      <trkpt lat="45.55907" lon="6.58845">
        <ele>1590.8000488281</ele>
        <time>2014-01-31T09:24:50.000Z</time>
      </trkpt>
      <trkpt lat="45.55908" lon="6.58844">
        <ele>1591</ele>
        <time>2014-01-31T09:24:51.000Z</time>
      </trkpt>
      <trkpt lat="45.55909" lon="6.58843">
        <ele>1591</ele>
        <time>2014-01-31T09:24:52.000Z</time>
      </trkpt>
      <trkpt lat="45.5591" lon="6.58842">
        <ele>1591.1999511719</ele>
        <time>2014-01-31T09:24:53.000Z</time>
      </trkpt>
      <trkpt lat="45.55911" lon="6.58841">
        <ele>1591.4000244141</ele>
        <time>2014-01-31T09:24:54.000Z</time>
      </trkpt>
      <trkpt lat="45.55911" lon="6.58839">
        <ele>1591.5999755859</ele>
        <time>2014-01-31T09:24:55.000Z</time>
      </trkpt>
      <trkpt lat="45.55912" lon="6.58838">
        <ele>1591.8000488281</ele>
        <time>2014-01-31T09:24:56.000Z</time>
      </trkpt>
      <trkpt lat="45.55913" lon="6.58836">
        <ele>1591.8000488281</ele>
        <time>2014-01-31T09:24:57.000Z</time>
      </trkpt>
      <trkpt lat="45.55913" lon="6.58836">
        <ele>1592</ele>
        <time>2014-01-31T09:24:58.000Z</time>
      </trkpt>
      <trkpt lat="45.55914" lon="6.58835">
        <ele>1592.1999511719</ele>
        <time>2014-01-31T09:24:59.000Z</time>
      </trkpt>
      <trkpt lat="45.55915" lon="6.58834">
        <ele>1592.4000244141</ele>
        <time>2014-01-31T09:25:00.000Z</time>
      </trkpt>
      <trkpt lat="45.55916" lon="6.58833">
        <ele>1592.4000244141</ele>
        <time>2014-01-31T09:25:01.000Z</time>
      </trkpt>
      <trkpt lat="45.55917" lon="6.58833">
        <ele>1592.5999755859</ele>
        <time>2014-01-31T09:25:02.000Z</time>
      </trkpt>
      <trkpt lat="45.55918" lon="6.58832">
        <ele>1592.8000488281</ele>
        <time>2014-01-31T09:25:03.000Z</time>
      </trkpt>
      <trkpt lat="45.55919" lon="6.58831">
        <ele>1592.8000488281</ele>
        <time>2014-01-31T09:25:04.000Z</time>
      </trkpt>
      <trkpt lat="45.5592" lon="6.58831">
        <ele>1593</ele>
        <time>2014-01-31T09:25:05.000Z</time>
      </trkpt>
      <trkpt lat="45.55921" lon="6.5883">
        <ele>1593.1999511719</ele>
        <time>2014-01-31T09:25:06.000Z</time>
      </trkpt>
      <trkpt lat="45.55921" lon="6.58829">
        <ele>1593.1999511719</ele>
        <time>2014-01-31T09:25:07.000Z</time>
      </trkpt>
      <trkpt lat="45.55921" lon="6.58828">
        <ele>1593.5999755859</ele>
        <time>2014-01-31T09:25:08.000Z</time>
      </trkpt>
      <trkpt lat="45.55922" lon="6.58827">
        <ele>1593.8000488281</ele>
        <time>2014-01-31T09:25:09.000Z</time>
      </trkpt>
      <trkpt lat="45.55922" lon="6.58826">
        <ele>1594</ele>
        <time>2014-01-31T09:25:10.000Z</time>
      </trkpt>
      <trkpt lat="45.55922" lon="6.58825">
        <ele>1594.1999511719</ele>
        <time>2014-01-31T09:25:11.000Z</time>
      </trkpt>
      <trkpt lat="45.55923" lon="6.58824">
        <ele>1594.1999511719</ele>
        <time>2014-01-31T09:25:12.000Z</time>
      </trkpt>
      <trkpt lat="45.55924" lon="6.58823">
        <ele>1594.4000244141</ele>
        <time>2014-01-31T09:25:13.000Z</time>
      </trkpt>
      <trkpt lat="45.55925" lon="6.58822">
        <ele>1594.4000244141</ele>
        <time>2014-01-31T09:25:14.000Z</time>
      </trkpt>
      <trkpt lat="45.55926" lon="6.58821">
        <ele>1594.5999755859</ele>
        <time>2014-01-31T09:25:15.000Z</time>
      </trkpt>
      <trkpt lat="45.55927" lon="6.58821">
        <ele>1594.5999755859</ele>
        <time>2014-01-31T09:25:16.000Z</time>
      </trkpt>
      <trkpt lat="45.55928" lon="6.5882">
        <ele>1594.5999755859</ele>
        <time>2014-01-31T09:25:17.000Z</time>
      </trkpt>
      <trkpt lat="45.55929" lon="6.58819">
        <ele>1594.8000488281</ele>
        <time>2014-01-31T09:25:18.000Z</time>
      </trkpt>
      <trkpt lat="45.55929" lon="6.58819">
        <ele>1594.8000488281</ele>
        <time>2014-01-31T09:25:19.000Z</time>
      </trkpt>
      <trkpt lat="45.5593" lon="6.58818">
        <ele>1595</ele>
        <time>2014-01-31T09:25:20.000Z</time>
      </trkpt>
      <trkpt lat="45.55931" lon="6.58816">
        <ele>1595</ele>
        <time>2014-01-31T09:25:21.000Z</time>
      </trkpt>
      <trkpt lat="45.55932" lon="6.58816">
        <ele>1595.1999511719</ele>
        <time>2014-01-31T09:25:22.000Z</time>
      </trkpt>
      <trkpt lat="45.55932" lon="6.58816">
        <ele>1595.1999511719</ele>
        <time>2014-01-31T09:25:23.000Z</time>
      </trkpt>
      <trkpt lat="45.55933" lon="6.58815">
        <ele>1595.4000244141</ele>
        <time>2014-01-31T09:25:24.000Z</time>
      </trkpt>
      <trkpt lat="45.55933" lon="6.58814">
        <ele>1595.5999755859</ele>
        <time>2014-01-31T09:25:25.000Z</time>
      </trkpt>
      <trkpt lat="45.55934" lon="6.58813">
        <ele>1595.8000488281</ele>
        <time>2014-01-31T09:25:26.000Z</time>
      </trkpt>
      <trkpt lat="45.55935" lon="6.58813">
        <ele>1595.8000488281</ele>
        <time>2014-01-31T09:25:27.000Z</time>
      </trkpt>
      <trkpt lat="45.55936" lon="6.58812">
        <ele>1596</ele>
        <time>2014-01-31T09:25:28.000Z</time>
      </trkpt>
      <trkpt lat="45.55937" lon="6.58811">
        <ele>1596</ele>
        <time>2014-01-31T09:25:29.000Z</time>
      </trkpt>
      <trkpt lat="45.55937" lon="6.5881">
        <ele>1596.1999511719</ele>
        <time>2014-01-31T09:25:30.000Z</time>
      </trkpt>
      <trkpt lat="45.55938" lon="6.58809">
        <ele>1596.1999511719</ele>
        <time>2014-01-31T09:25:31.000Z</time>
      </trkpt>
      <trkpt lat="45.55939" lon="6.58809">
        <ele>1596.4000244141</ele>
        <time>2014-01-31T09:25:32.000Z</time>
      </trkpt>
      <trkpt lat="45.55939" lon="6.58809">
        <ele>1596.4000244141</ele>
        <time>2014-01-31T09:25:33.000Z</time>
      </trkpt>
      <trkpt lat="45.55939" lon="6.58808">
        <ele>1596.5999755859</ele>
        <time>2014-01-31T09:25:34.000Z</time>
      </trkpt>
      <trkpt lat="45.5594" lon="6.58808">
        <ele>1596.5999755859</ele>
        <time>2014-01-31T09:25:35.000Z</time>
      </trkpt>
      <trkpt lat="45.5594" lon="6.58807">
        <ele>1596.5999755859</ele>
        <time>2014-01-31T09:25:36.000Z</time>
      </trkpt>
      <trkpt lat="45.55941" lon="6.58806">
        <ele>1596.5999755859</ele>
        <time>2014-01-31T09:25:37.000Z</time>
      </trkpt>
      <trkpt lat="45.55941" lon="6.58805">
        <ele>1596.8000488281</ele>
        <time>2014-01-31T09:25:38.000Z</time>
      </trkpt>
      <trkpt lat="45.55942" lon="6.58804">
        <ele>1597</ele>
        <time>2014-01-31T09:25:39.000Z</time>
      </trkpt>
      <trkpt lat="45.55943" lon="6.58803">
        <ele>1597.4000244141</ele>
        <time>2014-01-31T09:25:40.000Z</time>
      </trkpt>
      <trkpt lat="45.55944" lon="6.58803">
        <ele>1597.8000488281</ele>
        <time>2014-01-31T09:25:41.000Z</time>
      </trkpt>
      <trkpt lat="45.55944" lon="6.58802">
        <ele>1598</ele>
        <time>2014-01-31T09:25:42.000Z</time>
      </trkpt>
      <trkpt lat="45.55945" lon="6.58801">
        <ele>1598.1999511719</ele>
        <time>2014-01-31T09:25:43.000Z</time>
      </trkpt>
      <trkpt lat="45.55946" lon="6.58801">
        <ele>1598.4000244141</ele>
        <time>2014-01-31T09:25:44.000Z</time>
      </trkpt>
      <trkpt lat="45.55946" lon="6.58801">
        <ele>1598.5999755859</ele>
        <time>2014-01-31T09:25:45.000Z</time>
      </trkpt>
      <trkpt lat="45.55947" lon="6.588">
        <ele>1598.5999755859</ele>
        <time>2014-01-31T09:25:46.000Z</time>
      </trkpt>
      <trkpt lat="45.55948" lon="6.58799">
        <ele>1598.5999755859</ele>
        <time>2014-01-31T09:25:47.000Z</time>
      </trkpt>
      <trkpt lat="45.55949" lon="6.58799">
        <ele>1599</ele>
        <time>2014-01-31T09:25:48.000Z</time>
      </trkpt>
      <trkpt lat="45.5595" lon="6.58798">
        <ele>1599.1999511719</ele>
        <time>2014-01-31T09:25:49.000Z</time>
      </trkpt>
      <trkpt lat="45.55951" lon="6.58797">
        <ele>1599.4000244141</ele>
        <time>2014-01-31T09:25:50.000Z</time>
      </trkpt>
      <trkpt lat="45.55952" lon="6.58796">
        <ele>1599.4000244141</ele>
        <time>2014-01-31T09:25:51.000Z</time>
      </trkpt>
      <trkpt lat="45.55953" lon="6.58795">
        <ele>1599.5999755859</ele>
        <time>2014-01-31T09:25:52.000Z</time>
      </trkpt>
      <trkpt lat="45.55953" lon="6.58794">
        <ele>1599.8000488281</ele>
        <time>2014-01-31T09:25:53.000Z</time>
      </trkpt>
      <trkpt lat="45.55954" lon="6.58794">
        <ele>1600</ele>
        <time>2014-01-31T09:25:54.000Z</time>
      </trkpt>
      <trkpt lat="45.55955" lon="6.58793">
        <ele>1600</ele>
        <time>2014-01-31T09:25:55.000Z</time>
      </trkpt>
      <trkpt lat="45.55956" lon="6.58792">
        <ele>1600.1999511719</ele>
        <time>2014-01-31T09:25:56.000Z</time>
      </trkpt>
      <trkpt lat="45.55957" lon="6.58792">
        <ele>1600.1999511719</ele>
        <time>2014-01-31T09:25:57.000Z</time>
      </trkpt>
      <trkpt lat="45.55958" lon="6.58792">
        <ele>1600.1999511719</ele>
        <time>2014-01-31T09:25:58.000Z</time>
      </trkpt>
      <trkpt lat="45.55959" lon="6.58791">
        <ele>1600.4000244141</ele>
        <time>2014-01-31T09:25:59.000Z</time>
      </trkpt>
      <trkpt lat="45.55959" lon="6.58791">
        <ele>1600.4000244141</ele>
        <time>2014-01-31T09:26:00.000Z</time>
      </trkpt>
      <trkpt lat="45.55962" lon="6.5879">
        <ele>1600.4000244141</ele>
        <time>2014-01-31T09:26:02.000Z</time>
      </trkpt>
      <trkpt lat="45.55963" lon="6.58789">
        <ele>1600.5999755859</ele>
        <time>2014-01-31T09:26:03.000Z</time>
      </trkpt>
      <trkpt lat="45.55964" lon="6.58788">
        <ele>1600.8000488281</ele>
        <time>2014-01-31T09:26:04.000Z</time>
      </trkpt>
      <trkpt lat="45.55965" lon="6.58787">
        <ele>1601</ele>
        <time>2014-01-31T09:26:05.000Z</time>
      </trkpt>
      <trkpt lat="45.55966" lon="6.58787">
        <ele>1601.1999511719</ele>
        <time>2014-01-31T09:26:06.000Z</time>
      </trkpt>
      <trkpt lat="45.55967" lon="6.58786">
        <ele>1601.4000244141</ele>
        <time>2014-01-31T09:26:07.000Z</time>
      </trkpt>
      <trkpt lat="45.55968" lon="6.58786">
        <ele>1601.5999755859</ele>
        <time>2014-01-31T09:26:08.000Z</time>
      </trkpt>
      <trkpt lat="45.55969" lon="6.58786">
        <ele>1601.8000488281</ele>
        <time>2014-01-31T09:26:09.000Z</time>
      </trkpt>
      <trkpt lat="45.5597" lon="6.58786">
        <ele>1601.8000488281</ele>
        <time>2014-01-31T09:26:10.000Z</time>
      </trkpt>
      <trkpt lat="45.55971" lon="6.58786">
        <ele>1602</ele>
        <time>2014-01-31T09:26:11.000Z</time>
      </trkpt>
      <trkpt lat="45.55971" lon="6.58786">
        <ele>1602</ele>
        <time>2014-01-31T09:26:12.000Z</time>
      </trkpt>
      <trkpt lat="45.55972" lon="6.58786">
        <ele>1602.1999511719</ele>
        <time>2014-01-31T09:26:13.000Z</time>
      </trkpt>
      <trkpt lat="45.55973" lon="6.58785">
        <ele>1602.1999511719</ele>
        <time>2014-01-31T09:26:14.000Z</time>
      </trkpt>
      <trkpt lat="45.55974" lon="6.58784">
        <ele>1602.4000244141</ele>
        <time>2014-01-31T09:26:15.000Z</time>
      </trkpt>
      <trkpt lat="45.55975" lon="6.58783">
        <ele>1602.4000244141</ele>
        <time>2014-01-31T09:26:16.000Z</time>
      </trkpt>
      <trkpt lat="45.55976" lon="6.58781">
        <ele>1602.5999755859</ele>
        <time>2014-01-31T09:26:17.000Z</time>
      </trkpt>
      <trkpt lat="45.55976" lon="6.5878">
        <ele>1602.8000488281</ele>
        <time>2014-01-31T09:26:18.000Z</time>
      </trkpt>
      <trkpt lat="45.55977" lon="6.58779">
        <ele>1603</ele>
        <time>2014-01-31T09:26:19.000Z</time>
      </trkpt>
      <trkpt lat="45.55978" lon="6.58778">
        <ele>1603</ele>
        <time>2014-01-31T09:26:20.000Z</time>
      </trkpt>
      <trkpt lat="45.55979" lon="6.58777">
        <ele>1603.1999511719</ele>
        <time>2014-01-31T09:26:21.000Z</time>
      </trkpt>
      <trkpt lat="45.5598" lon="6.58777">
        <ele>1603.1999511719</ele>
        <time>2014-01-31T09:26:22.000Z</time>
      </trkpt>
      <trkpt lat="45.55981" lon="6.58776">
        <ele>1603.4000244141</ele>
        <time>2014-01-31T09:26:23.000Z</time>
      </trkpt>
      <trkpt lat="45.55982" lon="6.58775">
        <ele>1603.4000244141</ele>
        <time>2014-01-31T09:26:24.000Z</time>
      </trkpt>
      <trkpt lat="45.55983" lon="6.58775">
        <ele>1603.4000244141</ele>
        <time>2014-01-31T09:26:25.000Z</time>
      </trkpt>
      <trkpt lat="45.55984" lon="6.58774">
        <ele>1603.5999755859</ele>
        <time>2014-01-31T09:26:26.000Z</time>
      </trkpt>
      <trkpt lat="45.55985" lon="6.58772">
        <ele>1603.8000488281</ele>
        <time>2014-01-31T09:26:27.000Z</time>
      </trkpt>
      <trkpt lat="45.55985" lon="6.58771">
        <ele>1603.8000488281</ele>
        <time>2014-01-31T09:26:28.000Z</time>
      </trkpt>
      <trkpt lat="45.55987" lon="6.5877">
        <ele>1604</ele>
        <time>2014-01-31T09:26:29.000Z</time>
      </trkpt>
      <trkpt lat="45.55988" lon="6.58768">
        <ele>1604.1999511719</ele>
        <time>2014-01-31T09:26:30.000Z</time>
      </trkpt>
      <trkpt lat="45.55988" lon="6.58768">
        <ele>1604.1999511719</ele>
        <time>2014-01-31T09:26:31.000Z</time>
      </trkpt>
      <trkpt lat="45.55989" lon="6.58767">
        <ele>1604.1999511719</ele>
        <time>2014-01-31T09:26:32.000Z</time>
      </trkpt>
      <trkpt lat="45.5599" lon="6.58767">
        <ele>1604.4000244141</ele>
        <time>2014-01-31T09:26:33.000Z</time>
      </trkpt>
      <trkpt lat="45.55991" lon="6.58766">
        <ele>1604.5999755859</ele>
        <time>2014-01-31T09:26:34.000Z</time>
      </trkpt>
      <trkpt lat="45.55991" lon="6.58765">
        <ele>1604.8000488281</ele>
        <time>2014-01-31T09:26:35.000Z</time>
      </trkpt>
      <trkpt lat="45.55992" lon="6.58765">
        <ele>1605</ele>
        <time>2014-01-31T09:26:36.000Z</time>
      </trkpt>
      <trkpt lat="45.55994" lon="6.58764">
        <ele>1605</ele>
        <time>2014-01-31T09:26:37.000Z</time>
      </trkpt>
      <trkpt lat="45.55995" lon="6.58764">
        <ele>1605</ele>
        <time>2014-01-31T09:26:38.000Z</time>
      </trkpt>
      <trkpt lat="45.55996" lon="6.58764">
        <ele>1605.1999511719</ele>
        <time>2014-01-31T09:26:39.000Z</time>
      </trkpt>
      <trkpt lat="45.55997" lon="6.58764">
        <ele>1605.1999511719</ele>
        <time>2014-01-31T09:26:40.000Z</time>
      </trkpt>
      <trkpt lat="45.55998" lon="6.58764">
        <ele>1605.1999511719</ele>
        <time>2014-01-31T09:26:41.000Z</time>
      </trkpt>
      <trkpt lat="45.55999" lon="6.58763">
        <ele>1605.1999511719</ele>
        <time>2014-01-31T09:26:42.000Z</time>
      </trkpt>
      <trkpt lat="45.56" lon="6.58763">
        <ele>1605.1999511719</ele>
        <time>2014-01-31T09:26:43.000Z</time>
      </trkpt>
      <trkpt lat="45.56" lon="6.58762">
        <ele>1605.4000244141</ele>
        <time>2014-01-31T09:26:44.000Z</time>
      </trkpt>
      <trkpt lat="45.56002" lon="6.58762">
        <ele>1605.5999755859</ele>
        <time>2014-01-31T09:26:45.000Z</time>
      </trkpt>
      <trkpt lat="45.56003" lon="6.58761">
        <ele>1605.5999755859</ele>
        <time>2014-01-31T09:26:46.000Z</time>
      </trkpt>
      <trkpt lat="45.56004" lon="6.5876">
        <ele>1605.8000488281</ele>
        <time>2014-01-31T09:26:47.000Z</time>
      </trkpt>
      <trkpt lat="45.56005" lon="6.58758">
        <ele>1605.8000488281</ele>
        <time>2014-01-31T09:26:48.000Z</time>
      </trkpt>
      <trkpt lat="45.56006" lon="6.58758">
        <ele>1606</ele>
        <time>2014-01-31T09:26:49.000Z</time>
      </trkpt>
      <trkpt lat="45.56007" lon="6.58757">
        <ele>1606</ele>
        <time>2014-01-31T09:26:50.000Z</time>
      </trkpt>
      <trkpt lat="45.56009" lon="6.58757">
        <ele>1606</ele>
        <time>2014-01-31T09:26:51.000Z</time>
      </trkpt>
      <trkpt lat="45.5601" lon="6.58755">
        <ele>1606</ele>
        <time>2014-01-31T09:26:52.000Z</time>
      </trkpt>
      <trkpt lat="45.56011" lon="6.58754">
        <ele>1606</ele>
        <time>2014-01-31T09:26:53.000Z</time>
      </trkpt>
      <trkpt lat="45.56012" lon="6.58753">
        <ele>1606</ele>
        <time>2014-01-31T09:26:54.000Z</time>
      </trkpt>
      <trkpt lat="45.56013" lon="6.58752">
        <ele>1606</ele>
        <time>2014-01-31T09:26:55.000Z</time>
      </trkpt>
      <trkpt lat="45.56013" lon="6.58752">
        <ele>1606</ele>
        <time>2014-01-31T09:26:56.000Z</time>
      </trkpt>
      <trkpt lat="45.56014" lon="6.58751">
        <ele>1606</ele>
        <time>2014-01-31T09:26:57.000Z</time>
      </trkpt>
      <trkpt lat="45.56015" lon="6.5875">
        <ele>1606</ele>
        <time>2014-01-31T09:26:58.000Z</time>
      </trkpt>
      <trkpt lat="45.56015" lon="6.58749">
        <ele>1606.1999511719</ele>
        <time>2014-01-31T09:26:59.000Z</time>
      </trkpt>
      <trkpt lat="45.56016" lon="6.58747">
        <ele>1606.4000244141</ele>
        <time>2014-01-31T09:27:00.000Z</time>
      </trkpt>
      <trkpt lat="45.56017" lon="6.58747">
        <ele>1606.5999755859</ele>
        <time>2014-01-31T09:27:01.000Z</time>
      </trkpt>
      <trkpt lat="45.56018" lon="6.58746">
        <ele>1606.5999755859</ele>
        <time>2014-01-31T09:27:02.000Z</time>
      </trkpt>
      <trkpt lat="45.56018" lon="6.58745">
        <ele>1606.8000488281</ele>
        <time>2014-01-31T09:27:03.000Z</time>
      </trkpt>
      <trkpt lat="45.56019" lon="6.58745">
        <ele>1606.8000488281</ele>
        <time>2014-01-31T09:27:04.000Z</time>
      </trkpt>
      <trkpt lat="45.5602" lon="6.58744">
        <ele>1606.8000488281</ele>
        <time>2014-01-31T09:27:05.000Z</time>
      </trkpt>
      <trkpt lat="45.56022" lon="6.58743">
        <ele>1607</ele>
        <time>2014-01-31T09:27:07.000Z</time>
      </trkpt>
      <trkpt lat="45.56024" lon="6.58743">
        <ele>1607</ele>
        <time>2014-01-31T09:27:08.000Z</time>
      </trkpt>
      <trkpt lat="45.56025" lon="6.58743">
        <ele>1607</ele>
        <time>2014-01-31T09:27:09.000Z</time>
      </trkpt>
      <trkpt lat="45.56027" lon="6.58743">
        <ele>1607</ele>
        <time>2014-01-31T09:27:10.000Z</time>
      </trkpt>
      <trkpt lat="45.56028" lon="6.58742">
        <ele>1607.1999511719</ele>
        <time>2014-01-31T09:27:11.000Z</time>
      </trkpt>
      <trkpt lat="45.5603" lon="6.58741">
        <ele>1607.1999511719</ele>
        <time>2014-01-31T09:27:12.000Z</time>
      </trkpt>
      <trkpt lat="45.56031" lon="6.5874">
        <ele>1607.1999511719</ele>
        <time>2014-01-31T09:27:13.000Z</time>
      </trkpt>
      <trkpt lat="45.56031" lon="6.5874">
        <ele>1607.4000244141</ele>
        <time>2014-01-31T09:27:14.000Z</time>
      </trkpt>
      <trkpt lat="45.56031" lon="6.58737">
        <ele>1607.4000244141</ele>
        <time>2014-01-31T09:27:15.000Z</time>
      </trkpt>
      <trkpt lat="45.56032" lon="6.58736">
        <ele>1607.5999755859</ele>
        <time>2014-01-31T09:27:16.000Z</time>
      </trkpt>
      <trkpt lat="45.56032" lon="6.58734">
        <ele>1607.5999755859</ele>
        <time>2014-01-31T09:27:17.000Z</time>
      </trkpt>
      <trkpt lat="45.56033" lon="6.58732">
        <ele>1607.8000488281</ele>
        <time>2014-01-31T09:27:18.000Z</time>
      </trkpt>
      <trkpt lat="45.56034" lon="6.58732">
        <ele>1607.8000488281</ele>
        <time>2014-01-31T09:27:19.000Z</time>
      </trkpt>
      <trkpt lat="45.56035" lon="6.5873">
        <ele>1608</ele>
        <time>2014-01-31T09:27:20.000Z</time>
      </trkpt>
      <trkpt lat="45.56037" lon="6.58729">
        <ele>1608</ele>
        <time>2014-01-31T09:27:21.000Z</time>
      </trkpt>
      <trkpt lat="45.56037" lon="6.58728">
        <ele>1608</ele>
        <time>2014-01-31T09:27:22.000Z</time>
      </trkpt>
      <trkpt lat="45.56038" lon="6.58726">
        <ele>1608</ele>
        <time>2014-01-31T09:27:23.000Z</time>
      </trkpt>
      <trkpt lat="45.56039" lon="6.58725">
        <ele>1608.1999511719</ele>
        <time>2014-01-31T09:27:24.000Z</time>
      </trkpt>
      <trkpt lat="45.5604" lon="6.58724">
        <ele>1608.1999511719</ele>
        <time>2014-01-31T09:27:25.000Z</time>
      </trkpt>
      <trkpt lat="45.56041" lon="6.58722">
        <ele>1608.4000244141</ele>
        <time>2014-01-31T09:27:26.000Z</time>
      </trkpt>
      <trkpt lat="45.56042" lon="6.58721">
        <ele>1608.4000244141</ele>
        <time>2014-01-31T09:27:27.000Z</time>
      </trkpt>
      <trkpt lat="45.56042" lon="6.58721">
        <ele>1608.4000244141</ele>
        <time>2014-01-31T09:27:28.000Z</time>
      </trkpt>
      <trkpt lat="45.56043" lon="6.5872">
        <ele>1608.4000244141</ele>
        <time>2014-01-31T09:27:29.000Z</time>
      </trkpt>
      <trkpt lat="45.56043" lon="6.58719">
        <ele>1608.5999755859</ele>
        <time>2014-01-31T09:27:30.000Z</time>
      </trkpt>
      <trkpt lat="45.56043" lon="6.58718">
        <ele>1608.5999755859</ele>
        <time>2014-01-31T09:27:31.000Z</time>
      </trkpt>
      <trkpt lat="45.56044" lon="6.58716">
        <ele>1608.5999755859</ele>
        <time>2014-01-31T09:27:32.000Z</time>
      </trkpt>
      <trkpt lat="45.56044" lon="6.58716">
        <ele>1608.8000488281</ele>
        <time>2014-01-31T09:27:33.000Z</time>
      </trkpt>
      <trkpt lat="45.56045" lon="6.58715">
        <ele>1609</ele>
        <time>2014-01-31T09:27:34.000Z</time>
      </trkpt>
      <trkpt lat="45.56045" lon="6.58715">
        <ele>1609.1999511719</ele>
        <time>2014-01-31T09:27:35.000Z</time>
      </trkpt>
      <trkpt lat="45.56046" lon="6.58714">
        <ele>1609.4000244141</ele>
        <time>2014-01-31T09:27:36.000Z</time>
      </trkpt>
      <trkpt lat="45.56047" lon="6.58712">
        <ele>1609.4000244141</ele>
        <time>2014-01-31T09:27:37.000Z</time>
      </trkpt>
      <trkpt lat="45.56048" lon="6.58711">
        <ele>1609.5999755859</ele>
        <time>2014-01-31T09:27:38.000Z</time>
      </trkpt>
      <trkpt lat="45.56048" lon="6.5871">
        <ele>1609.5999755859</ele>
        <time>2014-01-31T09:27:39.000Z</time>
      </trkpt>
      <trkpt lat="45.56049" lon="6.58708">
        <ele>1609.8000488281</ele>
        <time>2014-01-31T09:27:40.000Z</time>
      </trkpt>
      <trkpt lat="45.5605" lon="6.58707">
        <ele>1609.8000488281</ele>
        <time>2014-01-31T09:27:41.000Z</time>
      </trkpt>
      <trkpt lat="45.56051" lon="6.58706">
        <ele>1609.8000488281</ele>
        <time>2014-01-31T09:27:42.000Z</time>
      </trkpt>
      <trkpt lat="45.56051" lon="6.58705">
        <ele>1610</ele>
        <time>2014-01-31T09:27:43.000Z</time>
      </trkpt>
      <trkpt lat="45.56052" lon="6.58703">
        <ele>1610</ele>
        <time>2014-01-31T09:27:44.000Z</time>
      </trkpt>
      <trkpt lat="45.56053" lon="6.58702">
        <ele>1610.1999511719</ele>
        <time>2014-01-31T09:27:45.000Z</time>
      </trkpt>
      <trkpt lat="45.56053" lon="6.58701">
        <ele>1610.4000244141</ele>
        <time>2014-01-31T09:27:46.000Z</time>
      </trkpt>
      <trkpt lat="45.56054" lon="6.58699">
        <ele>1610.4000244141</ele>
        <time>2014-01-31T09:27:47.000Z</time>
      </trkpt>
      <trkpt lat="45.56055" lon="6.58698">
        <ele>1610.8000488281</ele>
        <time>2014-01-31T09:27:48.000Z</time>
      </trkpt>
      <trkpt lat="45.56055" lon="6.58697">
        <ele>1611</ele>
        <time>2014-01-31T09:27:49.000Z</time>
      </trkpt>
      <trkpt lat="45.56056" lon="6.58695">
        <ele>1611.1999511719</ele>
        <time>2014-01-31T09:27:50.000Z</time>
      </trkpt>
      <trkpt lat="45.56056" lon="6.58695">
        <ele>1611.1999511719</ele>
        <time>2014-01-31T09:27:51.000Z</time>
      </trkpt>
      <trkpt lat="45.56057" lon="6.58694">
        <ele>1611.4000244141</ele>
        <time>2014-01-31T09:27:52.000Z</time>
      </trkpt>
      <trkpt lat="45.56058" lon="6.58693">
        <ele>1611.4000244141</ele>
        <time>2014-01-31T09:27:53.000Z</time>
      </trkpt>
      <trkpt lat="45.56059" lon="6.58692">
        <ele>1611.5999755859</ele>
        <time>2014-01-31T09:27:54.000Z</time>
      </trkpt>
      <trkpt lat="45.5606" lon="6.58691">
        <ele>1611.5999755859</ele>
        <time>2014-01-31T09:27:55.000Z</time>
      </trkpt>
      <trkpt lat="45.5606" lon="6.58691">
        <ele>1611.8000488281</ele>
        <time>2014-01-31T09:27:56.000Z</time>
      </trkpt>
      <trkpt lat="45.56061" lon="6.5869">
        <ele>1612</ele>
        <time>2014-01-31T09:27:57.000Z</time>
      </trkpt>
      <trkpt lat="45.56061" lon="6.5869">
        <ele>1612.1999511719</ele>
        <time>2014-01-31T09:27:58.000Z</time>
      </trkpt>
      <trkpt lat="45.56062" lon="6.58688">
        <ele>1612.1999511719</ele>
        <time>2014-01-31T09:27:59.000Z</time>
      </trkpt>
      <trkpt lat="45.56063" lon="6.58687">
        <ele>1612.4000244141</ele>
        <time>2014-01-31T09:28:00.000Z</time>
      </trkpt>
      <trkpt lat="45.56063" lon="6.58686">
        <ele>1612.4000244141</ele>
        <time>2014-01-31T09:28:01.000Z</time>
      </trkpt>
      <trkpt lat="45.56065" lon="6.58685">
        <ele>1612.5999755859</ele>
        <time>2014-01-31T09:28:02.000Z</time>
      </trkpt>
      <trkpt lat="45.56065" lon="6.58684">
        <ele>1612.5999755859</ele>
        <time>2014-01-31T09:28:03.000Z</time>
      </trkpt>
      <trkpt lat="45.56066" lon="6.58683">
        <ele>1612.8000488281</ele>
        <time>2014-01-31T09:28:04.000Z</time>
      </trkpt>
      <trkpt lat="45.56067" lon="6.58681">
        <ele>1613.1999511719</ele>
        <time>2014-01-31T09:28:05.000Z</time>
      </trkpt>
      <trkpt lat="45.56067" lon="6.5868">
        <ele>1613.4000244141</ele>
        <time>2014-01-31T09:28:06.000Z</time>
      </trkpt>
      <trkpt lat="45.56068" lon="6.58679">
        <ele>1613.4000244141</ele>
        <time>2014-01-31T09:28:07.000Z</time>
      </trkpt>
      <trkpt lat="45.56069" lon="6.58677">
        <ele>1613.5999755859</ele>
        <time>2014-01-31T09:28:08.000Z</time>
      </trkpt>
      <trkpt lat="45.5607" lon="6.58676">
        <ele>1613.8000488281</ele>
        <time>2014-01-31T09:28:09.000Z</time>
      </trkpt>
      <trkpt lat="45.56071" lon="6.58674">
        <ele>1613.8000488281</ele>
        <time>2014-01-31T09:28:10.000Z</time>
      </trkpt>
      <trkpt lat="45.56071" lon="6.58673">
        <ele>1614</ele>
        <time>2014-01-31T09:28:11.000Z</time>
      </trkpt>
      <trkpt lat="45.56072" lon="6.58671">
        <ele>1614.1999511719</ele>
        <time>2014-01-31T09:28:12.000Z</time>
      </trkpt>
      <trkpt lat="45.56073" lon="6.58671">
        <ele>1614.4000244141</ele>
        <time>2014-01-31T09:28:13.000Z</time>
      </trkpt>
      <trkpt lat="45.56074" lon="6.5867">
        <ele>1614.4000244141</ele>
        <time>2014-01-31T09:28:14.000Z</time>
      </trkpt>
      <trkpt lat="45.56074" lon="6.58668">
        <ele>1614.5999755859</ele>
        <time>2014-01-31T09:28:15.000Z</time>
      </trkpt>
      <trkpt lat="45.56075" lon="6.58668">
        <ele>1614.8000488281</ele>
        <time>2014-01-31T09:28:16.000Z</time>
      </trkpt>
      <trkpt lat="45.56076" lon="6.58667">
        <ele>1614.8000488281</ele>
        <time>2014-01-31T09:28:17.000Z</time>
      </trkpt>
      <trkpt lat="45.56077" lon="6.58666">
        <ele>1615</ele>
        <time>2014-01-31T09:28:18.000Z</time>
      </trkpt>
      <trkpt lat="45.56077" lon="6.58665">
        <ele>1615.1999511719</ele>
        <time>2014-01-31T09:28:19.000Z</time>
      </trkpt>
      <trkpt lat="45.56078" lon="6.58665">
        <ele>1615.4000244141</ele>
        <time>2014-01-31T09:28:20.000Z</time>
      </trkpt>
      <trkpt lat="45.56078" lon="6.58665">
        <ele>1615.4000244141</ele>
        <time>2014-01-31T09:28:21.000Z</time>
      </trkpt>
      <trkpt lat="45.56078" lon="6.58665">
        <ele>1615.5999755859</ele>
        <time>2014-01-31T09:28:22.000Z</time>
      </trkpt>
      <trkpt lat="45.56079" lon="6.58664">
        <ele>1615.8000488281</ele>
        <time>2014-01-31T09:28:23.000Z</time>
      </trkpt>
      <trkpt lat="45.56079" lon="6.58664">
        <ele>1616</ele>
        <time>2014-01-31T09:28:24.000Z</time>
      </trkpt>
      <trkpt lat="45.5608" lon="6.58661">
        <ele>1616.1999511719</ele>
        <time>2014-01-31T09:28:25.000Z</time>
      </trkpt>
      <trkpt lat="45.5608" lon="6.58661">
        <ele>1616.4000244141</ele>
        <time>2014-01-31T09:28:26.000Z</time>
      </trkpt>
      <trkpt lat="45.56081" lon="6.5866">
        <ele>1616.5999755859</ele>
        <time>2014-01-31T09:28:27.000Z</time>
      </trkpt>
      <trkpt lat="45.56081" lon="6.58659">
        <ele>1616.8000488281</ele>
        <time>2014-01-31T09:28:28.000Z</time>
      </trkpt>
      <trkpt lat="45.56081" lon="6.58659">
        <ele>1616.8000488281</ele>
        <time>2014-01-31T09:28:29.000Z</time>
      </trkpt>
      <trkpt lat="45.56082" lon="6.58658">
        <ele>1616.8000488281</ele>
        <time>2014-01-31T09:28:30.000Z</time>
      </trkpt>
      <trkpt lat="45.56083" lon="6.58656">
        <ele>1617</ele>
        <time>2014-01-31T09:28:31.000Z</time>
      </trkpt>
      <trkpt lat="45.56083" lon="6.58656">
        <ele>1617</ele>
        <time>2014-01-31T09:28:32.000Z</time>
      </trkpt>
      <trkpt lat="45.56084" lon="6.58654">
        <ele>1617</ele>
        <time>2014-01-31T09:28:33.000Z</time>
      </trkpt>
      <trkpt lat="45.56085" lon="6.58653">
        <ele>1617</ele>
        <time>2014-01-31T09:28:34.000Z</time>
      </trkpt>
      <trkpt lat="45.56086" lon="6.58651">
        <ele>1617.1999511719</ele>
        <time>2014-01-31T09:28:35.000Z</time>
      </trkpt>
      <trkpt lat="45.56088" lon="6.5865">
        <ele>1617.5999755859</ele>
        <time>2014-01-31T09:28:36.000Z</time>
      </trkpt>
      <trkpt lat="45.56089" lon="6.58649">
        <ele>1617.8000488281</ele>
        <time>2014-01-31T09:28:37.000Z</time>
      </trkpt>
      <trkpt lat="45.5609" lon="6.58648">
        <ele>1617.8000488281</ele>
        <time>2014-01-31T09:28:38.000Z</time>
      </trkpt>
      <trkpt lat="45.56091" lon="6.58647">
        <ele>1618</ele>
        <time>2014-01-31T09:28:39.000Z</time>
      </trkpt>
      <trkpt lat="45.56092" lon="6.58646">
        <ele>1618.1999511719</ele>
        <time>2014-01-31T09:28:40.000Z</time>
      </trkpt>
      <trkpt lat="45.56093" lon="6.58645">
        <ele>1618.4000244141</ele>
        <time>2014-01-31T09:28:41.000Z</time>
      </trkpt>
      <trkpt lat="45.56094" lon="6.58645">
        <ele>1618.4000244141</ele>
        <time>2014-01-31T09:28:42.000Z</time>
      </trkpt>
      <trkpt lat="45.56095" lon="6.58645">
        <ele>1618.5999755859</ele>
        <time>2014-01-31T09:28:43.000Z</time>
      </trkpt>
      <trkpt lat="45.56096" lon="6.58644">
        <ele>1618.8000488281</ele>
        <time>2014-01-31T09:28:44.000Z</time>
      </trkpt>
      <trkpt lat="45.56096" lon="6.58644">
        <ele>1619</ele>
        <time>2014-01-31T09:28:45.000Z</time>
      </trkpt>
      <trkpt lat="45.56097" lon="6.58644">
        <ele>1619.1999511719</ele>
        <time>2014-01-31T09:28:46.000Z</time>
      </trkpt>
      <trkpt lat="45.56098" lon="6.58644">
        <ele>1619.4000244141</ele>
        <time>2014-01-31T09:28:47.000Z</time>
      </trkpt>
      <trkpt lat="45.56098" lon="6.58644">
        <ele>1619.4000244141</ele>
        <time>2014-01-31T09:28:48.000Z</time>
      </trkpt>
      <trkpt lat="45.56099" lon="6.58644">
        <ele>1619.4000244141</ele>
        <time>2014-01-31T09:28:49.000Z</time>
      </trkpt>
      <trkpt lat="45.561" lon="6.58643">
        <ele>1619.1999511719</ele>
        <time>2014-01-31T09:28:51.000Z</time>
      </trkpt>
      <trkpt lat="45.56101" lon="6.58643">
        <ele>1619.1999511719</ele>
        <time>2014-01-31T09:28:52.000Z</time>
      </trkpt>
      <trkpt lat="45.56102" lon="6.58643">
        <ele>1619.1999511719</ele>
        <time>2014-01-31T09:28:53.000Z</time>
      </trkpt>
      <trkpt lat="45.56103" lon="6.58643">
        <ele>1619.1999511719</ele>
        <time>2014-01-31T09:28:54.000Z</time>
      </trkpt>
      <trkpt lat="45.56104" lon="6.58642">
        <ele>1619.4000244141</ele>
        <time>2014-01-31T09:28:55.000Z</time>
      </trkpt>
      <trkpt lat="45.56105" lon="6.58641">
        <ele>1619.5999755859</ele>
        <time>2014-01-31T09:28:56.000Z</time>
      </trkpt>
      <trkpt lat="45.56106" lon="6.58641">
        <ele>1619.8000488281</ele>
        <time>2014-01-31T09:28:57.000Z</time>
      </trkpt>
      <trkpt lat="45.56107" lon="6.5864">
        <ele>1619.8000488281</ele>
        <time>2014-01-31T09:28:58.000Z</time>
      </trkpt>
      <trkpt lat="45.56107" lon="6.58639">
        <ele>1620</ele>
        <time>2014-01-31T09:28:59.000Z</time>
      </trkpt>
      <trkpt lat="45.56108" lon="6.58638">
        <ele>1620.1999511719</ele>
        <time>2014-01-31T09:29:00.000Z</time>
      </trkpt>
      <trkpt lat="45.56108" lon="6.58638">
        <ele>1620.4000244141</ele>
        <time>2014-01-31T09:29:01.000Z</time>
      </trkpt>
      <trkpt lat="45.56108" lon="6.58638">
        <ele>1620.4000244141</ele>
        <time>2014-01-31T09:29:02.000Z</time>
      </trkpt>
      <trkpt lat="45.56108" lon="6.58638">
        <ele>1620.4000244141</ele>
        <time>2014-01-31T09:29:03.000Z</time>
      </trkpt>
      <trkpt lat="45.5611" lon="6.58637">
        <ele>1620.5999755859</ele>
        <time>2014-01-31T09:29:05.000Z</time>
      </trkpt>
      <trkpt lat="45.5611" lon="6.58637">
        <ele>1620.5999755859</ele>
        <time>2014-01-31T09:29:06.000Z</time>
      </trkpt>
      <trkpt lat="45.56111" lon="6.58636">
        <ele>1620.5999755859</ele>
        <time>2014-01-31T09:29:07.000Z</time>
      </trkpt>
      <trkpt lat="45.56112" lon="6.58636">
        <ele>1620.8000488281</ele>
        <time>2014-01-31T09:29:08.000Z</time>
      </trkpt>
      <trkpt lat="45.56112" lon="6.58635">
        <ele>1621</ele>
        <time>2014-01-31T09:29:09.000Z</time>
      </trkpt>
      <trkpt lat="45.56113" lon="6.58635">
        <ele>1621.1999511719</ele>
        <time>2014-01-31T09:29:10.000Z</time>
      </trkpt>
      <trkpt lat="45.56114" lon="6.58635">
        <ele>1621.1999511719</ele>
        <time>2014-01-31T09:29:11.000Z</time>
      </trkpt>
      <trkpt lat="45.56114" lon="6.58635">
        <ele>1621.1999511719</ele>
        <time>2014-01-31T09:29:12.000Z</time>
      </trkpt>
      <trkpt lat="45.56114" lon="6.58635">
        <ele>1621.4000244141</ele>
        <time>2014-01-31T09:29:13.000Z</time>
      </trkpt>
      <trkpt lat="45.56113" lon="6.58635">
        <ele>1621.4000244141</ele>
        <time>2014-01-31T09:29:14.000Z</time>
      </trkpt>
      <trkpt lat="45.56113" lon="6.58635">
        <ele>1621.4000244141</ele>
        <time>2014-01-31T09:29:15.000Z</time>
      </trkpt>
      <trkpt lat="45.56113" lon="6.58636">
        <ele>1621.4000244141</ele>
        <time>2014-01-31T09:29:16.000Z</time>
      </trkpt>
      <trkpt lat="45.56113" lon="6.58635">
        <ele>1621.5999755859</ele>
        <time>2014-01-31T09:29:17.000Z</time>
      </trkpt>
      <trkpt lat="45.56114" lon="6.58633">
        <ele>1621.5999755859</ele>
        <time>2014-01-31T09:29:18.000Z</time>
      </trkpt>
      <trkpt lat="45.56114" lon="6.58632">
        <ele>1621.5999755859</ele>
        <time>2014-01-31T09:29:19.000Z</time>
      </trkpt>
      <trkpt lat="45.56114" lon="6.58632">
        <ele>1621.5999755859</ele>
        <time>2014-01-31T09:29:20.000Z</time>
      </trkpt>
      <trkpt lat="45.56115" lon="6.5863">
        <ele>1621.8000488281</ele>
        <time>2014-01-31T09:29:21.000Z</time>
      </trkpt>
      <trkpt lat="45.56116" lon="6.5863">
        <ele>1621.8000488281</ele>
        <time>2014-01-31T09:29:22.000Z</time>
      </trkpt>
      <trkpt lat="45.56116" lon="6.5863">
        <ele>1621.8000488281</ele>
        <time>2014-01-31T09:29:23.000Z</time>
      </trkpt>
      <trkpt lat="45.56117" lon="6.5863">
        <ele>1621.8000488281</ele>
        <time>2014-01-31T09:29:24.000Z</time>
      </trkpt>
      <trkpt lat="45.56118" lon="6.58629">
        <ele>1621.8000488281</ele>
        <time>2014-01-31T09:29:25.000Z</time>
      </trkpt>
      <trkpt lat="45.56118" lon="6.58629">
        <ele>1621.8000488281</ele>
        <time>2014-01-31T09:29:26.000Z</time>
      </trkpt>
      <trkpt lat="45.56119" lon="6.58628">
        <ele>1621.8000488281</ele>
        <time>2014-01-31T09:29:27.000Z</time>
      </trkpt>
      <trkpt lat="45.56119" lon="6.58627">
        <ele>1621.8000488281</ele>
        <time>2014-01-31T09:29:28.000Z</time>
      </trkpt>
      <trkpt lat="45.5612" lon="6.58625">
        <ele>1622</ele>
        <time>2014-01-31T09:29:29.000Z</time>
      </trkpt>
      <trkpt lat="45.56121" lon="6.58625">
        <ele>1622</ele>
        <time>2014-01-31T09:29:30.000Z</time>
      </trkpt>
      <trkpt lat="45.56122" lon="6.58623">
        <ele>1622</ele>
        <time>2014-01-31T09:29:31.000Z</time>
      </trkpt>
      <trkpt lat="45.56122" lon="6.58623">
        <ele>1622.1999511719</ele>
        <time>2014-01-31T09:29:32.000Z</time>
      </trkpt>
      <trkpt lat="45.56123" lon="6.58623">
        <ele>1622.4000244141</ele>
        <time>2014-01-31T09:29:33.000Z</time>
      </trkpt>
      <trkpt lat="45.56123" lon="6.58622">
        <ele>1622.4000244141</ele>
        <time>2014-01-31T09:29:34.000Z</time>
      </trkpt>
      <trkpt lat="45.56124" lon="6.58622">
        <ele>1622.5999755859</ele>
        <time>2014-01-31T09:29:35.000Z</time>
      </trkpt>
      <trkpt lat="45.56125" lon="6.58621">
        <ele>1622.5999755859</ele>
        <time>2014-01-31T09:29:36.000Z</time>
      </trkpt>
      <trkpt lat="45.56126" lon="6.5862">
        <ele>1622.8000488281</ele>
        <time>2014-01-31T09:29:37.000Z</time>
      </trkpt>
      <trkpt lat="45.56126" lon="6.5862">
        <ele>1622.8000488281</ele>
        <time>2014-01-31T09:29:38.000Z</time>
      </trkpt>
      <trkpt lat="45.56127" lon="6.58619">
        <ele>1622.8000488281</ele>
        <time>2014-01-31T09:29:39.000Z</time>
      </trkpt>
      <trkpt lat="45.56127" lon="6.58617">
        <ele>1623</ele>
        <time>2014-01-31T09:29:40.000Z</time>
      </trkpt>
      <trkpt lat="45.56128" lon="6.58617">
        <ele>1623</ele>
        <time>2014-01-31T09:29:41.000Z</time>
      </trkpt>
      <trkpt lat="45.56129" lon="6.58616">
        <ele>1623</ele>
        <time>2014-01-31T09:29:42.000Z</time>
      </trkpt>
      <trkpt lat="45.56129" lon="6.58615">
        <ele>1623.1999511719</ele>
        <time>2014-01-31T09:29:43.000Z</time>
      </trkpt>
      <trkpt lat="45.5613" lon="6.58614">
        <ele>1623.1999511719</ele>
        <time>2014-01-31T09:29:44.000Z</time>
      </trkpt>
      <trkpt lat="45.56131" lon="6.58613">
        <ele>1623.4000244141</ele>
        <time>2014-01-31T09:29:45.000Z</time>
      </trkpt>
      <trkpt lat="45.56131" lon="6.58613">
        <ele>1623.4000244141</ele>
        <time>2014-01-31T09:29:46.000Z</time>
      </trkpt>
      <trkpt lat="45.56132" lon="6.58612">
        <ele>1623.5999755859</ele>
        <time>2014-01-31T09:29:47.000Z</time>
      </trkpt>
      <trkpt lat="45.56132" lon="6.58612">
        <ele>1623.8000488281</ele>
        <time>2014-01-31T09:29:48.000Z</time>
      </trkpt>
      <trkpt lat="45.56133" lon="6.58611">
        <ele>1624</ele>
        <time>2014-01-31T09:29:49.000Z</time>
      </trkpt>
      <trkpt lat="45.56133" lon="6.58611">
        <ele>1624.1999511719</ele>
        <time>2014-01-31T09:29:50.000Z</time>
      </trkpt>
      <trkpt lat="45.56133" lon="6.58611">
        <ele>1624.4000244141</ele>
        <time>2014-01-31T09:29:51.000Z</time>
      </trkpt>
      <trkpt lat="45.56133" lon="6.58611">
        <ele>1624.5999755859</ele>
        <time>2014-01-31T09:29:52.000Z</time>
      </trkpt>
      <trkpt lat="45.56134" lon="6.58609">
        <ele>1624.8000488281</ele>
        <time>2014-01-31T09:29:53.000Z</time>
      </trkpt>
      <trkpt lat="45.56134" lon="6.58609">
        <ele>1624.8000488281</ele>
        <time>2014-01-31T09:29:54.000Z</time>
      </trkpt>
      <trkpt lat="45.56134" lon="6.58607">
        <ele>1625</ele>
        <time>2014-01-31T09:29:55.000Z</time>
      </trkpt>
      <trkpt lat="45.56135" lon="6.58605">
        <ele>1625</ele>
        <time>2014-01-31T09:29:56.000Z</time>
      </trkpt>
      <trkpt lat="45.56135" lon="6.58605">
        <ele>1625.1999511719</ele>
        <time>2014-01-31T09:29:57.000Z</time>
      </trkpt>
      <trkpt lat="45.56136" lon="6.58604">
        <ele>1625.1999511719</ele>
        <time>2014-01-31T09:29:58.000Z</time>
      </trkpt>
      <trkpt lat="45.56136" lon="6.58602">
        <ele>1625.4000244141</ele>
        <time>2014-01-31T09:29:59.000Z</time>
      </trkpt>
      <trkpt lat="45.56137" lon="6.58601">
        <ele>1625.4000244141</ele>
        <time>2014-01-31T09:30:00.000Z</time>
      </trkpt>
      <trkpt lat="45.56137" lon="6.586">
        <ele>1625.4000244141</ele>
        <time>2014-01-31T09:30:01.000Z</time>
      </trkpt>
      <trkpt lat="45.56138" lon="6.58599">
        <ele>1625.5999755859</ele>
        <time>2014-01-31T09:30:02.000Z</time>
      </trkpt>
      <trkpt lat="45.56138" lon="6.58599">
        <ele>1625.5999755859</ele>
        <time>2014-01-31T09:30:03.000Z</time>
      </trkpt>
      <trkpt lat="45.56138" lon="6.58598">
        <ele>1625.8000488281</ele>
        <time>2014-01-31T09:30:04.000Z</time>
      </trkpt>
      <trkpt lat="45.56139" lon="6.58596">
        <ele>1626</ele>
        <time>2014-01-31T09:30:05.000Z</time>
      </trkpt>
      <trkpt lat="45.56139" lon="6.58594">
        <ele>1626.1999511719</ele>
        <time>2014-01-31T09:30:06.000Z</time>
      </trkpt>
      <trkpt lat="45.5614" lon="6.58593">
        <ele>1626.4000244141</ele>
        <time>2014-01-31T09:30:07.000Z</time>
      </trkpt>
      <trkpt lat="45.5614" lon="6.58592">
        <ele>1626.4000244141</ele>
        <time>2014-01-31T09:30:08.000Z</time>
      </trkpt>
      <trkpt lat="45.5614" lon="6.58591">
        <ele>1626.4000244141</ele>
        <time>2014-01-31T09:30:09.000Z</time>
      </trkpt>
      <trkpt lat="45.56141" lon="6.5859">
        <ele>1626.5999755859</ele>
        <time>2014-01-31T09:30:10.000Z</time>
      </trkpt>
      <trkpt lat="45.56141" lon="6.58589">
        <ele>1626.5999755859</ele>
        <time>2014-01-31T09:30:11.000Z</time>
      </trkpt>
      <trkpt lat="45.56142" lon="6.58588">
        <ele>1626.8000488281</ele>
        <time>2014-01-31T09:30:12.000Z</time>
      </trkpt>
      <trkpt lat="45.56143" lon="6.58587">
        <ele>1627</ele>
        <time>2014-01-31T09:30:13.000Z</time>
      </trkpt>
      <trkpt lat="45.56143" lon="6.58587">
        <ele>1627</ele>
        <time>2014-01-31T09:30:14.000Z</time>
      </trkpt>
      <trkpt lat="45.56144" lon="6.58586">
        <ele>1627</ele>
        <time>2014-01-31T09:30:15.000Z</time>
      </trkpt>
      <trkpt lat="45.56145" lon="6.58585">
        <ele>1627</ele>
        <time>2014-01-31T09:30:16.000Z</time>
      </trkpt>
      <trkpt lat="45.56145" lon="6.58584">
        <ele>1627</ele>
        <time>2014-01-31T09:30:17.000Z</time>
      </trkpt>
      <trkpt lat="45.56145" lon="6.58583">
        <ele>1627</ele>
        <time>2014-01-31T09:30:18.000Z</time>
      </trkpt>
      <trkpt lat="45.56146" lon="6.58583">
        <ele>1627</ele>
        <time>2014-01-31T09:30:19.000Z</time>
      </trkpt>
      <trkpt lat="45.56146" lon="6.58582">
        <ele>1627.1999511719</ele>
        <time>2014-01-31T09:30:20.000Z</time>
      </trkpt>
      <trkpt lat="45.56147" lon="6.58581">
        <ele>1627.1999511719</ele>
        <time>2014-01-31T09:30:21.000Z</time>
      </trkpt>
      <trkpt lat="45.56147" lon="6.5858">
        <ele>1627.1999511719</ele>
        <time>2014-01-31T09:30:22.000Z</time>
      </trkpt>
      <trkpt lat="45.56148" lon="6.58579">
        <ele>1627.4000244141</ele>
        <time>2014-01-31T09:30:23.000Z</time>
      </trkpt>
      <trkpt lat="45.56148" lon="6.58578">
        <ele>1627.4000244141</ele>
        <time>2014-01-31T09:30:24.000Z</time>
      </trkpt>
      <trkpt lat="45.56148" lon="6.58576">
        <ele>1627.5999755859</ele>
        <time>2014-01-31T09:30:25.000Z</time>
      </trkpt>
      <trkpt lat="45.56148" lon="6.58574">
        <ele>1628</ele>
        <time>2014-01-31T09:30:26.000Z</time>
      </trkpt>
      <trkpt lat="45.56147" lon="6.58573">
        <ele>1628.1999511719</ele>
        <time>2014-01-31T09:30:27.000Z</time>
      </trkpt>
      <trkpt lat="45.56147" lon="6.58572">
        <ele>1628.1999511719</ele>
        <time>2014-01-31T09:30:28.000Z</time>
      </trkpt>
      <trkpt lat="45.56147" lon="6.58572">
        <ele>1628.4000244141</ele>
        <time>2014-01-31T09:30:29.000Z</time>
      </trkpt>
      <trkpt lat="45.56145" lon="6.5857">
        <ele>1628.5999755859</ele>
        <time>2014-01-31T09:30:30.000Z</time>
      </trkpt>
      <trkpt lat="45.56144" lon="6.58569">
        <ele>1628.4000244141</ele>
        <time>2014-01-31T09:30:31.000Z</time>
      </trkpt>
      <trkpt lat="45.56143" lon="6.58568">
        <ele>1628.5999755859</ele>
        <time>2014-01-31T09:30:32.000Z</time>
      </trkpt>
      <trkpt lat="45.56142" lon="6.58568">
        <ele>1628.4000244141</ele>
        <time>2014-01-31T09:30:33.000Z</time>
      </trkpt>
      <trkpt lat="45.5614" lon="6.58567">
        <ele>1628.5999755859</ele>
        <time>2014-01-31T09:30:34.000Z</time>
      </trkpt>
      <trkpt lat="45.56138" lon="6.58567">
        <ele>1628.5999755859</ele>
        <time>2014-01-31T09:30:35.000Z</time>
      </trkpt>
      <trkpt lat="45.56138" lon="6.58566">
        <ele>1628.4000244141</ele>
        <time>2014-01-31T09:30:36.000Z</time>
      </trkpt>
      <trkpt lat="45.56137" lon="6.58566">
        <ele>1628.4000244141</ele>
        <time>2014-01-31T09:30:37.000Z</time>
      </trkpt>
      <trkpt lat="45.56135" lon="6.58564">
        <ele>1628.4000244141</ele>
        <time>2014-01-31T09:30:39.000Z</time>
      </trkpt>
      <trkpt lat="45.56134" lon="6.58563">
        <ele>1628.5999755859</ele>
        <time>2014-01-31T09:30:40.000Z</time>
      </trkpt>
      <trkpt lat="45.56134" lon="6.58563">
        <ele>1628.5999755859</ele>
        <time>2014-01-31T09:30:41.000Z</time>
      </trkpt>
      <trkpt lat="45.56133" lon="6.58562">
        <ele>1628.8000488281</ele>
        <time>2014-01-31T09:30:42.000Z</time>
      </trkpt>
      <trkpt lat="45.56131" lon="6.58561">
        <ele>1628.8000488281</ele>
        <time>2014-01-31T09:30:43.000Z</time>
      </trkpt>
      <trkpt lat="45.5613" lon="6.58561">
        <ele>1629</ele>
        <time>2014-01-31T09:30:44.000Z</time>
      </trkpt>
      <trkpt lat="45.56129" lon="6.58561">
        <ele>1629.1999511719</ele>
        <time>2014-01-31T09:30:45.000Z</time>
      </trkpt>
      <trkpt lat="45.56128" lon="6.58561">
        <ele>1629.4000244141</ele>
        <time>2014-01-31T09:30:46.000Z</time>
      </trkpt>
      <trkpt lat="45.56127" lon="6.5856">
        <ele>1629.5999755859</ele>
        <time>2014-01-31T09:30:47.000Z</time>
      </trkpt>
      <trkpt lat="45.56126" lon="6.58559">
        <ele>1629.8000488281</ele>
        <time>2014-01-31T09:30:48.000Z</time>
      </trkpt>
      <trkpt lat="45.56126" lon="6.58559">
        <ele>1629.8000488281</ele>
        <time>2014-01-31T09:30:49.000Z</time>
      </trkpt>
      <trkpt lat="45.56125" lon="6.58558">
        <ele>1630</ele>
        <time>2014-01-31T09:30:50.000Z</time>
      </trkpt>
      <trkpt lat="45.56124" lon="6.58557">
        <ele>1630</ele>
        <time>2014-01-31T09:30:51.000Z</time>
      </trkpt>
      <trkpt lat="45.56123" lon="6.58557">
        <ele>1630</ele>
        <time>2014-01-31T09:30:52.000Z</time>
      </trkpt>
      <trkpt lat="45.56122" lon="6.58556">
        <ele>1630</ele>
        <time>2014-01-31T09:30:53.000Z</time>
      </trkpt>
      <trkpt lat="45.56122" lon="6.58555">
        <ele>1630.1999511719</ele>
        <time>2014-01-31T09:30:54.000Z</time>
      </trkpt>
      <trkpt lat="45.56121" lon="6.58555">
        <ele>1630.1999511719</ele>
        <time>2014-01-31T09:30:55.000Z</time>
      </trkpt>
      <trkpt lat="45.56119" lon="6.58555">
        <ele>1630.4000244141</ele>
        <time>2014-01-31T09:30:56.000Z</time>
      </trkpt>
      <trkpt lat="45.56119" lon="6.58555">
        <ele>1630.4000244141</ele>
        <time>2014-01-31T09:30:57.000Z</time>
      </trkpt>
      <trkpt lat="45.56118" lon="6.58555">
        <ele>1630.5999755859</ele>
        <time>2014-01-31T09:30:58.000Z</time>
      </trkpt>
      <trkpt lat="45.56116" lon="6.58554">
        <ele>1630.5999755859</ele>
        <time>2014-01-31T09:30:59.000Z</time>
      </trkpt>
      <trkpt lat="45.56116" lon="6.58554">
        <ele>1630.8000488281</ele>
        <time>2014-01-31T09:31:00.000Z</time>
      </trkpt>
      <trkpt lat="45.56115" lon="6.58555">
        <ele>1631.1999511719</ele>
        <time>2014-01-31T09:31:01.000Z</time>
      </trkpt>
      <trkpt lat="45.56114" lon="6.58555">
        <ele>1631.4000244141</ele>
        <time>2014-01-31T09:31:02.000Z</time>
      </trkpt>
      <trkpt lat="45.56114" lon="6.58555">
        <ele>1631.5999755859</ele>
        <time>2014-01-31T09:31:03.000Z</time>
      </trkpt>
      <trkpt lat="45.56114" lon="6.58555">
        <ele>1631.5999755859</ele>
        <time>2014-01-31T09:31:04.000Z</time>
      </trkpt>
      <trkpt lat="45.56112" lon="6.58554">
        <ele>1631.8000488281</ele>
        <time>2014-01-31T09:31:05.000Z</time>
      </trkpt>
      <trkpt lat="45.56111" lon="6.58554">
        <ele>1631.8000488281</ele>
        <time>2014-01-31T09:31:06.000Z</time>
      </trkpt>
      <trkpt lat="45.5611" lon="6.58554">
        <ele>1632</ele>
        <time>2014-01-31T09:31:07.000Z</time>
      </trkpt>
      <trkpt lat="45.56109" lon="6.58553">
        <ele>1632</ele>
        <time>2014-01-31T09:31:08.000Z</time>
      </trkpt>
      <trkpt lat="45.56109" lon="6.58552">
        <ele>1632</ele>
        <time>2014-01-31T09:31:09.000Z</time>
      </trkpt>
      <trkpt lat="45.56107" lon="6.58551">
        <ele>1632.1999511719</ele>
        <time>2014-01-31T09:31:10.000Z</time>
      </trkpt>
      <trkpt lat="45.56107" lon="6.58551">
        <ele>1632.1999511719</ele>
        <time>2014-01-31T09:31:11.000Z</time>
      </trkpt>
      <trkpt lat="45.56106" lon="6.5855">
        <ele>1632.4000244141</ele>
        <time>2014-01-31T09:31:12.000Z</time>
      </trkpt>
      <trkpt lat="45.56106" lon="6.58549">
        <ele>1632.5999755859</ele>
        <time>2014-01-31T09:31:13.000Z</time>
      </trkpt>
      <trkpt lat="45.56106" lon="6.58547">
        <ele>1632.5999755859</ele>
        <time>2014-01-31T09:31:14.000Z</time>
      </trkpt>
      <trkpt lat="45.56106" lon="6.58546">
        <ele>1632.5999755859</ele>
        <time>2014-01-31T09:31:15.000Z</time>
      </trkpt>
      <trkpt lat="45.56106" lon="6.58545">
        <ele>1632.8000488281</ele>
        <time>2014-01-31T09:31:16.000Z</time>
      </trkpt>
      <trkpt lat="45.56105" lon="6.58544">
        <ele>1633</ele>
        <time>2014-01-31T09:31:17.000Z</time>
      </trkpt>
      <trkpt lat="45.56105" lon="6.58544">
        <ele>1633.1999511719</ele>
        <time>2014-01-31T09:31:18.000Z</time>
      </trkpt>
      <trkpt lat="45.56105" lon="6.58544">
        <ele>1633.4000244141</ele>
        <time>2014-01-31T09:31:19.000Z</time>
      </trkpt>
      <trkpt lat="45.56105" lon="6.58544">
        <ele>1633.5999755859</ele>
        <time>2014-01-31T09:31:20.000Z</time>
      </trkpt>
      <trkpt lat="45.56105" lon="6.58544">
        <ele>1633.5999755859</ele>
        <time>2014-01-31T09:31:21.000Z</time>
      </trkpt>
      <trkpt lat="45.56105" lon="6.58544">
        <ele>1633.8000488281</ele>
        <time>2014-01-31T09:31:22.000Z</time>
      </trkpt>
      <trkpt lat="45.56104" lon="6.58543">
        <ele>1634</ele>
        <time>2014-01-31T09:31:23.000Z</time>
      </trkpt>
      <trkpt lat="45.56104" lon="6.58542">
        <ele>1634</ele>
        <time>2014-01-31T09:31:24.000Z</time>
      </trkpt>
      <trkpt lat="45.56104" lon="6.58541">
        <ele>1634.1999511719</ele>
        <time>2014-01-31T09:31:25.000Z</time>
      </trkpt>
      <trkpt lat="45.56103" lon="6.5854">
        <ele>1634.4000244141</ele>
        <time>2014-01-31T09:31:26.000Z</time>
      </trkpt>
      <trkpt lat="45.56103" lon="6.58539">
        <ele>1634.5999755859</ele>
        <time>2014-01-31T09:31:27.000Z</time>
      </trkpt>
      <trkpt lat="45.56102" lon="6.58538">
        <ele>1634.8000488281</ele>
        <time>2014-01-31T09:31:28.000Z</time>
      </trkpt>
      <trkpt lat="45.56102" lon="6.58538">
        <ele>1634.8000488281</ele>
        <time>2014-01-31T09:31:29.000Z</time>
      </trkpt>
      <trkpt lat="45.56102" lon="6.58537">
        <ele>1635</ele>
        <time>2014-01-31T09:31:30.000Z</time>
      </trkpt>
      <trkpt lat="45.56102" lon="6.58536">
        <ele>1635.1999511719</ele>
        <time>2014-01-31T09:31:31.000Z</time>
      </trkpt>
      <trkpt lat="45.56102" lon="6.58536">
        <ele>1635.1999511719</ele>
        <time>2014-01-31T09:31:32.000Z</time>
      </trkpt>
      <trkpt lat="45.56102" lon="6.58536">
        <ele>1635.4000244141</ele>
        <time>2014-01-31T09:31:33.000Z</time>
      </trkpt>
      <trkpt lat="45.56102" lon="6.58536">
        <ele>1635.5999755859</ele>
        <time>2014-01-31T09:31:34.000Z</time>
      </trkpt>
      <trkpt lat="45.56102" lon="6.58536">
        <ele>1635.8000488281</ele>
        <time>2014-01-31T09:31:35.000Z</time>
      </trkpt>
      <trkpt lat="45.56102" lon="6.58536">
        <ele>1635.8000488281</ele>
        <time>2014-01-31T09:31:36.000Z</time>
      </trkpt>
      <trkpt lat="45.56102" lon="6.58536">
        <ele>1636</ele>
        <time>2014-01-31T09:31:37.000Z</time>
      </trkpt>
      <trkpt lat="45.56102" lon="6.58536">
        <ele>1636</ele>
        <time>2014-01-31T09:31:38.000Z</time>
      </trkpt>
      <trkpt lat="45.56102" lon="6.58536">
        <ele>1636</ele>
        <time>2014-01-31T09:31:39.000Z</time>
      </trkpt>
      <trkpt lat="45.56102" lon="6.58536">
        <ele>1636</ele>
        <time>2014-01-31T09:31:40.000Z</time>
      </trkpt>
      <trkpt lat="45.56102" lon="6.58536">
        <ele>1636</ele>
        <time>2014-01-31T09:31:41.000Z</time>
      </trkpt>
      <trkpt lat="45.56102" lon="6.58536">
        <ele>1636</ele>
        <time>2014-01-31T09:31:42.000Z</time>
      </trkpt>
      <trkpt lat="45.56102" lon="6.58536">
        <ele>1636</ele>
        <time>2014-01-31T09:31:44.000Z</time>
      </trkpt>
      <trkpt lat="45.56102" lon="6.58536">
        <ele>1636</ele>
        <time>2014-01-31T09:31:45.000Z</time>
      </trkpt>
      <trkpt lat="45.56102" lon="6.58536">
        <ele>1636</ele>
        <time>2014-01-31T09:31:46.000Z</time>
      </trkpt>
      <trkpt lat="45.56102" lon="6.58536">
        <ele>1636</ele>
        <time>2014-01-31T09:31:47.000Z</time>
      </trkpt>
      <trkpt lat="45.56102" lon="6.58536">
        <ele>1636</ele>
        <time>2014-01-31T09:31:48.000Z</time>
      </trkpt>
      <trkpt lat="45.56102" lon="6.58536">
        <ele>1636.1999511719</ele>
        <time>2014-01-31T09:31:49.000Z</time>
      </trkpt>
      <trkpt lat="45.56102" lon="6.58536">
        <ele>1636.1999511719</ele>
        <time>2014-01-31T09:31:50.000Z</time>
      </trkpt>
      <trkpt lat="45.56102" lon="6.58536">
        <ele>1636.4000244141</ele>
        <time>2014-01-31T09:31:51.000Z</time>
      </trkpt>
      <trkpt lat="45.56102" lon="6.58536">
        <ele>1636.5999755859</ele>
        <time>2014-01-31T09:31:52.000Z</time>
      </trkpt>
      <trkpt lat="45.56102" lon="6.58536">
        <ele>1636.5999755859</ele>
        <time>2014-01-31T09:31:53.000Z</time>
      </trkpt>
      <trkpt lat="45.56102" lon="6.58536">
        <ele>1636.5999755859</ele>
        <time>2014-01-31T09:31:54.000Z</time>
      </trkpt>
      <trkpt lat="45.56102" lon="6.58536">
        <ele>1636.8000488281</ele>
        <time>2014-01-31T09:31:55.000Z</time>
      </trkpt>
      <trkpt lat="45.56102" lon="6.58536">
        <ele>1636.8000488281</ele>
        <time>2014-01-31T09:31:56.000Z</time>
      </trkpt>
      <trkpt lat="45.56102" lon="6.58536">
        <ele>1637</ele>
        <time>2014-01-31T09:31:57.000Z</time>
      </trkpt>
      <trkpt lat="45.56102" lon="6.58536">
        <ele>1637</ele>
        <time>2014-01-31T09:31:58.000Z</time>
      </trkpt>
      <trkpt lat="45.56102" lon="6.58536">
        <ele>1637.1999511719</ele>
        <time>2014-01-31T09:31:59.000Z</time>
      </trkpt>
      <trkpt lat="45.56102" lon="6.58536">
        <ele>1637.4000244141</ele>
        <time>2014-01-31T09:32:00.000Z</time>
      </trkpt>
      <trkpt lat="45.56102" lon="6.58536">
        <ele>1637.4000244141</ele>
        <time>2014-01-31T09:32:01.000Z</time>
      </trkpt>
      <trkpt lat="45.56102" lon="6.58536">
        <ele>1637.5999755859</ele>
        <time>2014-01-31T09:32:03.000Z</time>
      </trkpt>
      <trkpt lat="45.56102" lon="6.58536">
        <ele>1637.5999755859</ele>
        <time>2014-01-31T09:32:04.000Z</time>
      </trkpt>
      <trkpt lat="45.56102" lon="6.58536">
        <ele>1637.5999755859</ele>
        <time>2014-01-31T09:32:05.000Z</time>
      </trkpt>
      <trkpt lat="45.56102" lon="6.58536">
        <ele>1637.8000488281</ele>
        <time>2014-01-31T09:32:06.000Z</time>
      </trkpt>
      <trkpt lat="45.56102" lon="6.58536">
        <ele>1637.8000488281</ele>
        <time>2014-01-31T09:32:07.000Z</time>
      </trkpt>
      <trkpt lat="45.56102" lon="6.58536">
        <ele>1637.8000488281</ele>
        <time>2014-01-31T09:32:08.000Z</time>
      </trkpt>
      <trkpt lat="45.56102" lon="6.58536">
        <ele>1637.8000488281</ele>
        <time>2014-01-31T09:32:13.000Z</time>
      </trkpt>
      <trkpt lat="45.56102" lon="6.58536">
        <ele>1637.5999755859</ele>
        <time>2014-01-31T09:32:14.000Z</time>
      </trkpt>
      <trkpt lat="45.56102" lon="6.58536">
        <ele>1637.5999755859</ele>
        <time>2014-01-31T09:32:15.000Z</time>
      </trkpt>
      <trkpt lat="45.56102" lon="6.58536">
        <ele>1637.5999755859</ele>
        <time>2014-01-31T09:32:16.000Z</time>
      </trkpt>
      <trkpt lat="45.56102" lon="6.58536">
        <ele>1637.5999755859</ele>
        <time>2014-01-31T09:32:17.000Z</time>
      </trkpt>
      <trkpt lat="45.56102" lon="6.58536">
        <ele>1637.4000244141</ele>
        <time>2014-01-31T09:32:18.000Z</time>
      </trkpt>
      <trkpt lat="45.56102" lon="6.58536">
        <ele>1637.4000244141</ele>
        <time>2014-01-31T09:32:19.000Z</time>
      </trkpt>
      <trkpt lat="45.56102" lon="6.58536">
        <ele>1637.4000244141</ele>
        <time>2014-01-31T09:32:20.000Z</time>
      </trkpt>
      <trkpt lat="45.56102" lon="6.58536">
        <ele>1637.5999755859</ele>
        <time>2014-01-31T09:32:21.000Z</time>
      </trkpt>
      <trkpt lat="45.56102" lon="6.58536">
        <ele>1637.8000488281</ele>
        <time>2014-01-31T09:32:22.000Z</time>
      </trkpt>
      <trkpt lat="45.56102" lon="6.58536">
        <ele>1638</ele>
        <time>2014-01-31T09:32:23.000Z</time>
      </trkpt>
      <trkpt lat="45.56102" lon="6.58536">
        <ele>1638.1999511719</ele>
        <time>2014-01-31T09:32:24.000Z</time>
      </trkpt>
      <trkpt lat="45.56102" lon="6.58536">
        <ele>1638.1999511719</ele>
        <time>2014-01-31T09:32:25.000Z</time>
      </trkpt>
      <trkpt lat="45.56102" lon="6.58536">
        <ele>1638.4000244141</ele>
        <time>2014-01-31T09:32:26.000Z</time>
      </trkpt>
      <trkpt lat="45.56102" lon="6.58536">
        <ele>1638.4000244141</ele>
        <time>2014-01-31T09:32:27.000Z</time>
      </trkpt>
      <trkpt lat="45.56102" lon="6.58536">
        <ele>1638.5999755859</ele>
        <time>2014-01-31T09:32:28.000Z</time>
      </trkpt>
      <trkpt lat="45.56102" lon="6.58536">
        <ele>1638.5999755859</ele>
        <time>2014-01-31T09:32:29.000Z</time>
      </trkpt>
      <trkpt lat="45.56101" lon="6.58535">
        <ele>1638.8000488281</ele>
        <time>2014-01-31T09:32:30.000Z</time>
      </trkpt>
      <trkpt lat="45.56101" lon="6.58534">
        <ele>1639</ele>
        <time>2014-01-31T09:32:31.000Z</time>
      </trkpt>
      <trkpt lat="45.561" lon="6.58533">
        <ele>1639</ele>
        <time>2014-01-31T09:32:32.000Z</time>
      </trkpt>
      <trkpt lat="45.56099" lon="6.58532">
        <ele>1639.1999511719</ele>
        <time>2014-01-31T09:32:33.000Z</time>
      </trkpt>
      <trkpt lat="45.56099" lon="6.58532">
        <ele>1639.1999511719</ele>
        <time>2014-01-31T09:32:34.000Z</time>
      </trkpt>
      <trkpt lat="45.56099" lon="6.58532">
        <ele>1639.4000244141</ele>
        <time>2014-01-31T09:32:35.000Z</time>
      </trkpt>
      <trkpt lat="45.56099" lon="6.58532">
        <ele>1639.5999755859</ele>
        <time>2014-01-31T09:32:37.000Z</time>
      </trkpt>
      <trkpt lat="45.56099" lon="6.58532">
        <ele>1639.8000488281</ele>
        <time>2014-01-31T09:32:38.000Z</time>
      </trkpt>
      <trkpt lat="45.56099" lon="6.58531">
        <ele>1640</ele>
        <time>2014-01-31T09:32:39.000Z</time>
      </trkpt>
      <trkpt lat="45.56099" lon="6.58531">
        <ele>1640</ele>
        <time>2014-01-31T09:32:40.000Z</time>
      </trkpt>
      <trkpt lat="45.56099" lon="6.58531">
        <ele>1640.1999511719</ele>
        <time>2014-01-31T09:32:41.000Z</time>
      </trkpt>
      <trkpt lat="45.56099" lon="6.58531">
        <ele>1640.4000244141</ele>
        <time>2014-01-31T09:32:42.000Z</time>
      </trkpt>
      <trkpt lat="45.56099" lon="6.58531">
        <ele>1640.4000244141</ele>
        <time>2014-01-31T09:32:43.000Z</time>
      </trkpt>
      <trkpt lat="45.56099" lon="6.58531">
        <ele>1640.5999755859</ele>
        <time>2014-01-31T09:32:44.000Z</time>
      </trkpt>
      <trkpt lat="45.56099" lon="6.58531">
        <ele>1640.5999755859</ele>
        <time>2014-01-31T09:32:45.000Z</time>
      </trkpt>
      <trkpt lat="45.56099" lon="6.58531">
        <ele>1640.8000488281</ele>
        <time>2014-01-31T09:32:46.000Z</time>
      </trkpt>
      <trkpt lat="45.56099" lon="6.58531">
        <ele>1640.8000488281</ele>
        <time>2014-01-31T09:32:47.000Z</time>
      </trkpt>
      <trkpt lat="45.56099" lon="6.58531">
        <ele>1640.8000488281</ele>
        <time>2014-01-31T09:32:48.000Z</time>
      </trkpt>
      <trkpt lat="45.56099" lon="6.58531">
        <ele>1641</ele>
        <time>2014-01-31T09:32:49.000Z</time>
      </trkpt>
      <trkpt lat="45.56099" lon="6.58531">
        <ele>1641.1999511719</ele>
        <time>2014-01-31T09:32:50.000Z</time>
      </trkpt>
      <trkpt lat="45.56099" lon="6.58531">
        <ele>1641.4000244141</ele>
        <time>2014-01-31T09:32:51.000Z</time>
      </trkpt>
      <trkpt lat="45.56099" lon="6.58531">
        <ele>1641.5999755859</ele>
        <time>2014-01-31T09:32:52.000Z</time>
      </trkpt>
      <trkpt lat="45.56099" lon="6.5853">
        <ele>1641.5999755859</ele>
        <time>2014-01-31T09:32:53.000Z</time>
      </trkpt>
      <trkpt lat="45.56099" lon="6.58526">
        <ele>1641.8000488281</ele>
        <time>2014-01-31T09:32:54.000Z</time>
      </trkpt>
      <trkpt lat="45.56098" lon="6.58522">
        <ele>1642</ele>
        <time>2014-01-31T09:32:55.000Z</time>
      </trkpt>
      <trkpt lat="45.56097" lon="6.58519">
        <ele>1642.5999755859</ele>
        <time>2014-01-31T09:32:56.000Z</time>
      </trkpt>
      <trkpt lat="45.56097" lon="6.58515">
        <ele>1643</ele>
        <time>2014-01-31T09:32:57.000Z</time>
      </trkpt>
      <trkpt lat="45.56096" lon="6.58511">
        <ele>1643.1999511719</ele>
        <time>2014-01-31T09:32:58.000Z</time>
      </trkpt>
      <trkpt lat="45.56096" lon="6.58508">
        <ele>1643.4000244141</ele>
        <time>2014-01-31T09:32:59.000Z</time>
      </trkpt>
      <trkpt lat="45.56095" lon="6.58506">
        <ele>1643.4000244141</ele>
        <time>2014-01-31T09:33:00.000Z</time>
      </trkpt>
      <trkpt lat="45.56094" lon="6.58504">
        <ele>1643.4000244141</ele>
        <time>2014-01-31T09:33:01.000Z</time>
      </trkpt>
      <trkpt lat="45.56094" lon="6.58502">
        <ele>1643.8000488281</ele>
        <time>2014-01-31T09:33:02.000Z</time>
      </trkpt>
      <trkpt lat="45.56094" lon="6.585">
        <ele>1644.1999511719</ele>
        <time>2014-01-31T09:33:03.000Z</time>
      </trkpt>
      <trkpt lat="45.56094" lon="6.585">
        <ele>1644.4000244141</ele>
        <time>2014-01-31T09:33:04.000Z</time>
      </trkpt>
      <trkpt lat="45.56093" lon="6.58498">
        <ele>1644.8000488281</ele>
        <time>2014-01-31T09:33:05.000Z</time>
      </trkpt>
      <trkpt lat="45.56093" lon="6.58495">
        <ele>1645</ele>
        <time>2014-01-31T09:33:06.000Z</time>
      </trkpt>
      <trkpt lat="45.56092" lon="6.58494">
        <ele>1645.1999511719</ele>
        <time>2014-01-31T09:33:07.000Z</time>
      </trkpt>
      <trkpt lat="45.56091" lon="6.58489">
        <ele>1645.4000244141</ele>
        <time>2014-01-31T09:33:08.000Z</time>
      </trkpt>
      <trkpt lat="45.5609" lon="6.58486">
        <ele>1645.5999755859</ele>
        <time>2014-01-31T09:33:09.000Z</time>
      </trkpt>
      <trkpt lat="45.56089" lon="6.58483">
        <ele>1645.8000488281</ele>
        <time>2014-01-31T09:33:10.000Z</time>
      </trkpt>
      <trkpt lat="45.56088" lon="6.5848">
        <ele>1645.8000488281</ele>
        <time>2014-01-31T09:33:11.000Z</time>
      </trkpt>
      <trkpt lat="45.56087" lon="6.58478">
        <ele>1645.8000488281</ele>
        <time>2014-01-31T09:33:12.000Z</time>
      </trkpt>
      <trkpt lat="45.56086" lon="6.58476">
        <ele>1645.8000488281</ele>
        <time>2014-01-31T09:33:13.000Z</time>
      </trkpt>
      <trkpt lat="45.56085" lon="6.58474">
        <ele>1646</ele>
        <time>2014-01-31T09:33:14.000Z</time>
      </trkpt>
      <trkpt lat="45.56085" lon="6.58472">
        <ele>1646.1999511719</ele>
        <time>2014-01-31T09:33:15.000Z</time>
      </trkpt>
      <trkpt lat="45.56084" lon="6.58469">
        <ele>1646.5999755859</ele>
        <time>2014-01-31T09:33:16.000Z</time>
      </trkpt>
      <trkpt lat="45.56084" lon="6.58468">
        <ele>1646.8000488281</ele>
        <time>2014-01-31T09:33:17.000Z</time>
      </trkpt>
      <trkpt lat="45.56084" lon="6.58466">
        <ele>1647.1999511719</ele>
        <time>2014-01-31T09:33:18.000Z</time>
      </trkpt>
      <trkpt lat="45.56084" lon="6.58466">
        <ele>1647.4000244141</ele>
        <time>2014-01-31T09:33:19.000Z</time>
      </trkpt>
      <trkpt lat="45.56084" lon="6.58466">
        <ele>1647.8000488281</ele>
        <time>2014-01-31T09:33:20.000Z</time>
      </trkpt>
      <trkpt lat="45.56083" lon="6.58463">
        <ele>1648</ele>
        <time>2014-01-31T09:33:21.000Z</time>
      </trkpt>
      <trkpt lat="45.56083" lon="6.58462">
        <ele>1648</ele>
        <time>2014-01-31T09:33:22.000Z</time>
      </trkpt>
      <trkpt lat="45.56083" lon="6.5846">
        <ele>1648.1999511719</ele>
        <time>2014-01-31T09:33:23.000Z</time>
      </trkpt>
      <trkpt lat="45.56082" lon="6.58459">
        <ele>1648.1999511719</ele>
        <time>2014-01-31T09:33:24.000Z</time>
      </trkpt>
      <trkpt lat="45.56081" lon="6.58457">
        <ele>1648.1999511719</ele>
        <time>2014-01-31T09:33:25.000Z</time>
      </trkpt>
      <trkpt lat="45.56081" lon="6.58456">
        <ele>1648.5999755859</ele>
        <time>2014-01-31T09:33:26.000Z</time>
      </trkpt>
      <trkpt lat="45.56081" lon="6.58454">
        <ele>1648.8000488281</ele>
        <time>2014-01-31T09:33:27.000Z</time>
      </trkpt>
      <trkpt lat="45.56079" lon="6.58456">
        <ele>1649.1999511719</ele>
        <time>2014-01-31T09:33:28.000Z</time>
      </trkpt>
      <trkpt lat="45.56079" lon="6.58456">
        <ele>1649.4000244141</ele>
        <time>2014-01-31T09:33:29.000Z</time>
      </trkpt>
      <trkpt lat="45.56077" lon="6.58457">
        <ele>1649.8000488281</ele>
        <time>2014-01-31T09:33:30.000Z</time>
      </trkpt>
      <trkpt lat="45.56076" lon="6.58457">
        <ele>1650</ele>
        <time>2014-01-31T09:33:31.000Z</time>
      </trkpt>
      <trkpt lat="45.56075" lon="6.58456">
        <ele>1650.4000244141</ele>
        <time>2014-01-31T09:33:32.000Z</time>
      </trkpt>
      <trkpt lat="45.56074" lon="6.58455">
        <ele>1650.4000244141</ele>
        <time>2014-01-31T09:33:33.000Z</time>
      </trkpt>
      <trkpt lat="45.56073" lon="6.58454">
        <ele>1650.5999755859</ele>
        <time>2014-01-31T09:33:34.000Z</time>
      </trkpt>
      <trkpt lat="45.56073" lon="6.58453">
        <ele>1650.8000488281</ele>
        <time>2014-01-31T09:33:35.000Z</time>
      </trkpt>
      <trkpt lat="45.56072" lon="6.58452">
        <ele>1650.8000488281</ele>
        <time>2014-01-31T09:33:36.000Z</time>
      </trkpt>
      <trkpt lat="45.56072" lon="6.5845">
        <ele>1651</ele>
        <time>2014-01-31T09:33:37.000Z</time>
      </trkpt>
      <trkpt lat="45.56071" lon="6.58449">
        <ele>1651</ele>
        <time>2014-01-31T09:33:38.000Z</time>
      </trkpt>
      <trkpt lat="45.56071" lon="6.58448">
        <ele>1651.1999511719</ele>
        <time>2014-01-31T09:33:39.000Z</time>
      </trkpt>
      <trkpt lat="45.56071" lon="6.58447">
        <ele>1651.4000244141</ele>
        <time>2014-01-31T09:33:40.000Z</time>
      </trkpt>
      <trkpt lat="45.5607" lon="6.58447">
        <ele>1651.5999755859</ele>
        <time>2014-01-31T09:33:41.000Z</time>
      </trkpt>
      <trkpt lat="45.5607" lon="6.58446">
        <ele>1651.8000488281</ele>
        <time>2014-01-31T09:33:42.000Z</time>
      </trkpt>
      <trkpt lat="45.56069" lon="6.58446">
        <ele>1652.1999511719</ele>
        <time>2014-01-31T09:33:43.000Z</time>
      </trkpt>
      <trkpt lat="45.56069" lon="6.58445">
        <ele>1652.4000244141</ele>
        <time>2014-01-31T09:33:44.000Z</time>
      </trkpt>
      <trkpt lat="45.56068" lon="6.58444">
        <ele>1652.8000488281</ele>
        <time>2014-01-31T09:33:45.000Z</time>
      </trkpt>
      <trkpt lat="45.56068" lon="6.58443">
        <ele>1652.8000488281</ele>
        <time>2014-01-31T09:33:46.000Z</time>
      </trkpt>
      <trkpt lat="45.56068" lon="6.58443">
        <ele>1653.1999511719</ele>
        <time>2014-01-31T09:33:47.000Z</time>
      </trkpt>
      <trkpt lat="45.56067" lon="6.58442">
        <ele>1653.1999511719</ele>
        <time>2014-01-31T09:33:48.000Z</time>
      </trkpt>
      <trkpt lat="45.56066" lon="6.5844">
        <ele>1653.5999755859</ele>
        <time>2014-01-31T09:33:49.000Z</time>
      </trkpt>
      <trkpt lat="45.56066" lon="6.58439">
        <ele>1653.8000488281</ele>
        <time>2014-01-31T09:33:50.000Z</time>
      </trkpt>
      <trkpt lat="45.56066" lon="6.58439">
        <ele>1654</ele>
        <time>2014-01-31T09:33:51.000Z</time>
      </trkpt>
      <trkpt lat="45.56066" lon="6.58438">
        <ele>1654.1999511719</ele>
        <time>2014-01-31T09:33:52.000Z</time>
      </trkpt>
      <trkpt lat="45.56065" lon="6.58437">
        <ele>1654.4000244141</ele>
        <time>2014-01-31T09:33:53.000Z</time>
      </trkpt>
      <trkpt lat="45.56064" lon="6.58436">
        <ele>1654.8000488281</ele>
        <time>2014-01-31T09:33:54.000Z</time>
      </trkpt>
      <trkpt lat="45.56064" lon="6.58435">
        <ele>1655</ele>
        <time>2014-01-31T09:33:55.000Z</time>
      </trkpt>
      <trkpt lat="45.56064" lon="6.58434">
        <ele>1655.1999511719</ele>
        <time>2014-01-31T09:33:56.000Z</time>
      </trkpt>
      <trkpt lat="45.56063" lon="6.58434">
        <ele>1655.1999511719</ele>
        <time>2014-01-31T09:33:57.000Z</time>
      </trkpt>
      <trkpt lat="45.56063" lon="6.58433">
        <ele>1655.4000244141</ele>
        <time>2014-01-31T09:33:58.000Z</time>
      </trkpt>
      <trkpt lat="45.56062" lon="6.58432">
        <ele>1655.4000244141</ele>
        <time>2014-01-31T09:33:59.000Z</time>
      </trkpt>
      <trkpt lat="45.56061" lon="6.58431">
        <ele>1655.5999755859</ele>
        <time>2014-01-31T09:34:00.000Z</time>
      </trkpt>
      <trkpt lat="45.56061" lon="6.58431">
        <ele>1655.5999755859</ele>
        <time>2014-01-31T09:34:01.000Z</time>
      </trkpt>
      <trkpt lat="45.56061" lon="6.58431">
        <ele>1655.8000488281</ele>
        <time>2014-01-31T09:34:02.000Z</time>
      </trkpt>
      <trkpt lat="45.56061" lon="6.5843">
        <ele>1656</ele>
        <time>2014-01-31T09:34:03.000Z</time>
      </trkpt>
      <trkpt lat="45.56061" lon="6.58429">
        <ele>1656.1999511719</ele>
        <time>2014-01-31T09:34:04.000Z</time>
      </trkpt>
      <trkpt lat="45.5606" lon="6.58429">
        <ele>1656.4000244141</ele>
        <time>2014-01-31T09:34:05.000Z</time>
      </trkpt>
      <trkpt lat="45.5606" lon="6.58427">
        <ele>1656.5999755859</ele>
        <time>2014-01-31T09:34:06.000Z</time>
      </trkpt>
      <trkpt lat="45.56059" lon="6.58426">
        <ele>1657</ele>
        <time>2014-01-31T09:34:07.000Z</time>
      </trkpt>
      <trkpt lat="45.56059" lon="6.58425">
        <ele>1657.1999511719</ele>
        <time>2014-01-31T09:34:08.000Z</time>
      </trkpt>
      <trkpt lat="45.56058" lon="6.58423">
        <ele>1657.5999755859</ele>
        <time>2014-01-31T09:34:09.000Z</time>
      </trkpt>
      <trkpt lat="45.56058" lon="6.58422">
        <ele>1657.4000244141</ele>
        <time>2014-01-31T09:34:10.000Z</time>
      </trkpt>
      <trkpt lat="45.56058" lon="6.58421">
        <ele>1657.8000488281</ele>
        <time>2014-01-31T09:34:11.000Z</time>
      </trkpt>
      <trkpt lat="45.56058" lon="6.5842">
        <ele>1657.8000488281</ele>
        <time>2014-01-31T09:34:12.000Z</time>
      </trkpt>
      <trkpt lat="45.56057" lon="6.5842">
        <ele>1658.1999511719</ele>
        <time>2014-01-31T09:34:13.000Z</time>
      </trkpt>
      <trkpt lat="45.56057" lon="6.58419">
        <ele>1658.4000244141</ele>
        <time>2014-01-31T09:34:14.000Z</time>
      </trkpt>
      <trkpt lat="45.56057" lon="6.58419">
        <ele>1658.4000244141</ele>
        <time>2014-01-31T09:34:15.000Z</time>
      </trkpt>
      <trkpt lat="45.56056" lon="6.58418">
        <ele>1658.5999755859</ele>
        <time>2014-01-31T09:34:16.000Z</time>
      </trkpt>
      <trkpt lat="45.56056" lon="6.58417">
        <ele>1658.5999755859</ele>
        <time>2014-01-31T09:34:17.000Z</time>
      </trkpt>
      <trkpt lat="45.56055" lon="6.58416">
        <ele>1658.8000488281</ele>
        <time>2014-01-31T09:34:18.000Z</time>
      </trkpt>
      <trkpt lat="45.56055" lon="6.58415">
        <ele>1658.8000488281</ele>
        <time>2014-01-31T09:34:19.000Z</time>
      </trkpt>
      <trkpt lat="45.56054" lon="6.58414">
        <ele>1659</ele>
        <time>2014-01-31T09:34:20.000Z</time>
      </trkpt>
      <trkpt lat="45.56054" lon="6.58413">
        <ele>1659</ele>
        <time>2014-01-31T09:34:21.000Z</time>
      </trkpt>
      <trkpt lat="45.56053" lon="6.58412">
        <ele>1659.1999511719</ele>
        <time>2014-01-31T09:34:22.000Z</time>
      </trkpt>
      <trkpt lat="45.56053" lon="6.58411">
        <ele>1659.4000244141</ele>
        <time>2014-01-31T09:34:23.000Z</time>
      </trkpt>
      <trkpt lat="45.56052" lon="6.5841">
        <ele>1659.4000244141</ele>
        <time>2014-01-31T09:34:24.000Z</time>
      </trkpt>
      <trkpt lat="45.56052" lon="6.5841">
        <ele>1659.5999755859</ele>
        <time>2014-01-31T09:34:25.000Z</time>
      </trkpt>
      <trkpt lat="45.56052" lon="6.58409">
        <ele>1659.8000488281</ele>
        <time>2014-01-31T09:34:26.000Z</time>
      </trkpt>
      <trkpt lat="45.56051" lon="6.58408">
        <ele>1660</ele>
        <time>2014-01-31T09:34:27.000Z</time>
      </trkpt>
      <trkpt lat="45.56051" lon="6.58408">
        <ele>1660.1999511719</ele>
        <time>2014-01-31T09:34:28.000Z</time>
      </trkpt>
      <trkpt lat="45.5605" lon="6.58407">
        <ele>1660.5999755859</ele>
        <time>2014-01-31T09:34:29.000Z</time>
      </trkpt>
      <trkpt lat="45.56049" lon="6.58407">
        <ele>1660.5999755859</ele>
        <time>2014-01-31T09:34:30.000Z</time>
      </trkpt>
      <trkpt lat="45.56048" lon="6.58405">
        <ele>1661</ele>
        <time>2014-01-31T09:34:31.000Z</time>
      </trkpt>
      <trkpt lat="45.56047" lon="6.58405">
        <ele>1661</ele>
        <time>2014-01-31T09:34:32.000Z</time>
      </trkpt>
      <trkpt lat="45.56047" lon="6.58404">
        <ele>1661.4000244141</ele>
        <time>2014-01-31T09:34:33.000Z</time>
      </trkpt>
      <trkpt lat="45.56046" lon="6.58404">
        <ele>1661.5999755859</ele>
        <time>2014-01-31T09:34:34.000Z</time>
      </trkpt>
      <trkpt lat="45.56046" lon="6.58403">
        <ele>1661.8000488281</ele>
        <time>2014-01-31T09:34:35.000Z</time>
      </trkpt>
      <trkpt lat="45.56045" lon="6.58403">
        <ele>1661.8000488281</ele>
        <time>2014-01-31T09:34:36.000Z</time>
      </trkpt>
      <trkpt lat="45.56045" lon="6.58402">
        <ele>1662</ele>
        <time>2014-01-31T09:34:37.000Z</time>
      </trkpt>
      <trkpt lat="45.56044" lon="6.58402">
        <ele>1662.1999511719</ele>
        <time>2014-01-31T09:34:38.000Z</time>
      </trkpt>
      <trkpt lat="45.56044" lon="6.58401">
        <ele>1662.4000244141</ele>
        <time>2014-01-31T09:34:39.000Z</time>
      </trkpt>
      <trkpt lat="45.56043" lon="6.58401">
        <ele>1662.4000244141</ele>
        <time>2014-01-31T09:34:40.000Z</time>
      </trkpt>
      <trkpt lat="45.56043" lon="6.584">
        <ele>1662.5999755859</ele>
        <time>2014-01-31T09:34:41.000Z</time>
      </trkpt>
      <trkpt lat="45.56043" lon="6.584">
        <ele>1662.8000488281</ele>
        <time>2014-01-31T09:34:42.000Z</time>
      </trkpt>
      <trkpt lat="45.56042" lon="6.58399">
        <ele>1663</ele>
        <time>2014-01-31T09:34:43.000Z</time>
      </trkpt>
      <trkpt lat="45.56042" lon="6.58399">
        <ele>1663.1999511719</ele>
        <time>2014-01-31T09:34:44.000Z</time>
      </trkpt>
      <trkpt lat="45.56042" lon="6.58398">
        <ele>1663.5999755859</ele>
        <time>2014-01-31T09:34:45.000Z</time>
      </trkpt>
      <trkpt lat="45.56042" lon="6.58398">
        <ele>1663.5999755859</ele>
        <time>2014-01-31T09:34:46.000Z</time>
      </trkpt>
      <trkpt lat="45.56041" lon="6.58398">
        <ele>1664</ele>
        <time>2014-01-31T09:34:47.000Z</time>
      </trkpt>
      <trkpt lat="45.56041" lon="6.58398">
        <ele>1664.1999511719</ele>
        <time>2014-01-31T09:34:48.000Z</time>
      </trkpt>
      <trkpt lat="45.5604" lon="6.58397">
        <ele>1664.4000244141</ele>
        <time>2014-01-31T09:34:49.000Z</time>
      </trkpt>
      <trkpt lat="45.56039" lon="6.58397">
        <ele>1664.5999755859</ele>
        <time>2014-01-31T09:34:50.000Z</time>
      </trkpt>
      <trkpt lat="45.56038" lon="6.58396">
        <ele>1664.8000488281</ele>
        <time>2014-01-31T09:34:51.000Z</time>
      </trkpt>
      <trkpt lat="45.56037" lon="6.58395">
        <ele>1664.8000488281</ele>
        <time>2014-01-31T09:34:52.000Z</time>
      </trkpt>
      <trkpt lat="45.56036" lon="6.58395">
        <ele>1665</ele>
        <time>2014-01-31T09:34:53.000Z</time>
      </trkpt>
      <trkpt lat="45.56036" lon="6.58396">
        <ele>1665</ele>
        <time>2014-01-31T09:34:54.000Z</time>
      </trkpt>
      <trkpt lat="45.56035" lon="6.58396">
        <ele>1665.1999511719</ele>
        <time>2014-01-31T09:34:55.000Z</time>
      </trkpt>
      <trkpt lat="45.56034" lon="6.58395">
        <ele>1665.4000244141</ele>
        <time>2014-01-31T09:34:56.000Z</time>
      </trkpt>
      <trkpt lat="45.56033" lon="6.58395">
        <ele>1665.5999755859</ele>
        <time>2014-01-31T09:34:57.000Z</time>
      </trkpt>
      <trkpt lat="45.56032" lon="6.58395">
        <ele>1665.8000488281</ele>
        <time>2014-01-31T09:34:58.000Z</time>
      </trkpt>
      <trkpt lat="45.56031" lon="6.58396">
        <ele>1666</ele>
        <time>2014-01-31T09:34:59.000Z</time>
      </trkpt>
      <trkpt lat="45.56031" lon="6.58396">
        <ele>1666.1999511719</ele>
        <time>2014-01-31T09:35:00.000Z</time>
      </trkpt>
      <trkpt lat="45.5603" lon="6.58396">
        <ele>1666.4000244141</ele>
        <time>2014-01-31T09:35:01.000Z</time>
      </trkpt>
      <trkpt lat="45.5603" lon="6.58397">
        <ele>1667</ele>
        <time>2014-01-31T09:35:02.000Z</time>
      </trkpt>
      <trkpt lat="45.56029" lon="6.58397">
        <ele>1667.4000244141</ele>
        <time>2014-01-31T09:35:03.000Z</time>
      </trkpt>
      <trkpt lat="45.56028" lon="6.58397">
        <ele>1667.4000244141</ele>
        <time>2014-01-31T09:35:04.000Z</time>
      </trkpt>
      <trkpt lat="45.56027" lon="6.58397">
        <ele>1667.5999755859</ele>
        <time>2014-01-31T09:35:05.000Z</time>
      </trkpt>
      <trkpt lat="45.56026" lon="6.58397">
        <ele>1667.5999755859</ele>
        <time>2014-01-31T09:35:06.000Z</time>
      </trkpt>
      <trkpt lat="45.56026" lon="6.58397">
        <ele>1667.8000488281</ele>
        <time>2014-01-31T09:35:07.000Z</time>
      </trkpt>
      <trkpt lat="45.56025" lon="6.58397">
        <ele>1667.8000488281</ele>
        <time>2014-01-31T09:35:08.000Z</time>
      </trkpt>
      <trkpt lat="45.56024" lon="6.58397">
        <ele>1667.8000488281</ele>
        <time>2014-01-31T09:35:09.000Z</time>
      </trkpt>
      <trkpt lat="45.56023" lon="6.58396">
        <ele>1668</ele>
        <time>2014-01-31T09:35:10.000Z</time>
      </trkpt>
      <trkpt lat="45.56022" lon="6.58395">
        <ele>1668.1999511719</ele>
        <time>2014-01-31T09:35:11.000Z</time>
      </trkpt>
      <trkpt lat="45.56021" lon="6.58394">
        <ele>1668.4000244141</ele>
        <time>2014-01-31T09:35:12.000Z</time>
      </trkpt>
      <trkpt lat="45.56021" lon="6.58394">
        <ele>1668.5999755859</ele>
        <time>2014-01-31T09:35:13.000Z</time>
      </trkpt>
      <trkpt lat="45.5602" lon="6.58394">
        <ele>1668.5999755859</ele>
        <time>2014-01-31T09:35:14.000Z</time>
      </trkpt>
      <trkpt lat="45.5602" lon="6.58395">
        <ele>1668.8000488281</ele>
        <time>2014-01-31T09:35:15.000Z</time>
      </trkpt>
      <trkpt lat="45.56019" lon="6.58396">
        <ele>1668.8000488281</ele>
        <time>2014-01-31T09:35:16.000Z</time>
      </trkpt>
      <trkpt lat="45.56019" lon="6.58397">
        <ele>1668.8000488281</ele>
        <time>2014-01-31T09:35:17.000Z</time>
      </trkpt>
      <trkpt lat="45.56018" lon="6.58398">
        <ele>1668.8000488281</ele>
        <time>2014-01-31T09:35:18.000Z</time>
      </trkpt>
      <trkpt lat="45.56018" lon="6.58398">
        <ele>1668.8000488281</ele>
        <time>2014-01-31T09:35:19.000Z</time>
      </trkpt>
      <trkpt lat="45.56018" lon="6.58398">
        <ele>1669</ele>
        <time>2014-01-31T09:35:20.000Z</time>
      </trkpt>
      <trkpt lat="45.56018" lon="6.58398">
        <ele>1669.1999511719</ele>
        <time>2014-01-31T09:35:21.000Z</time>
      </trkpt>
      <trkpt lat="45.56018" lon="6.58398">
        <ele>1669.1999511719</ele>
        <time>2014-01-31T09:35:22.000Z</time>
      </trkpt>
      <trkpt lat="45.56018" lon="6.58398">
        <ele>1669.4000244141</ele>
        <time>2014-01-31T09:35:23.000Z</time>
      </trkpt>
      <trkpt lat="45.56018" lon="6.58398">
        <ele>1669.4000244141</ele>
        <time>2014-01-31T09:35:24.000Z</time>
      </trkpt>
      <trkpt lat="45.56018" lon="6.58398">
        <ele>1669.5999755859</ele>
        <time>2014-01-31T09:35:25.000Z</time>
      </trkpt>
      <trkpt lat="45.56018" lon="6.58398">
        <ele>1669.5999755859</ele>
        <time>2014-01-31T09:35:26.000Z</time>
      </trkpt>
      <trkpt lat="45.56018" lon="6.58398">
        <ele>1669.8000488281</ele>
        <time>2014-01-31T09:35:27.000Z</time>
      </trkpt>
      <trkpt lat="45.56018" lon="6.58398">
        <ele>1669.8000488281</ele>
        <time>2014-01-31T09:35:28.000Z</time>
      </trkpt>
      <trkpt lat="45.56018" lon="6.58398">
        <ele>1670</ele>
        <time>2014-01-31T09:35:29.000Z</time>
      </trkpt>
      <trkpt lat="45.56018" lon="6.58398">
        <ele>1670</ele>
        <time>2014-01-31T09:35:30.000Z</time>
      </trkpt>
      <trkpt lat="45.56019" lon="6.58399">
        <ele>1670</ele>
        <time>2014-01-31T09:35:31.000Z</time>
      </trkpt>
      <trkpt lat="45.56019" lon="6.584">
        <ele>1670</ele>
        <time>2014-01-31T09:35:32.000Z</time>
      </trkpt>
      <trkpt lat="45.56017" lon="6.58402">
        <ele>1670.1999511719</ele>
        <time>2014-01-31T09:35:35.000Z</time>
      </trkpt>
      <trkpt lat="45.56015" lon="6.58402">
        <ele>1670.4000244141</ele>
        <time>2014-01-31T09:35:36.000Z</time>
      </trkpt>
      <trkpt lat="45.56014" lon="6.58401">
        <ele>1670.5999755859</ele>
        <time>2014-01-31T09:35:37.000Z</time>
      </trkpt>
      <trkpt lat="45.56013" lon="6.58402">
        <ele>1670.8000488281</ele>
        <time>2014-01-31T09:35:38.000Z</time>
      </trkpt>
      <trkpt lat="45.56013" lon="6.58402">
        <ele>1670.8000488281</ele>
        <time>2014-01-31T09:35:39.000Z</time>
      </trkpt>
      <trkpt lat="45.56012" lon="6.58403">
        <ele>1670.8000488281</ele>
        <time>2014-01-31T09:35:40.000Z</time>
      </trkpt>
      <trkpt lat="45.56012" lon="6.58403">
        <ele>1670.8000488281</ele>
        <time>2014-01-31T09:35:41.000Z</time>
      </trkpt>
      <trkpt lat="45.56011" lon="6.58404">
        <ele>1671</ele>
        <time>2014-01-31T09:35:42.000Z</time>
      </trkpt>
      <trkpt lat="45.56011" lon="6.58405">
        <ele>1671</ele>
        <time>2014-01-31T09:35:43.000Z</time>
      </trkpt>
      <trkpt lat="45.56012" lon="6.58406">
        <ele>1671.1999511719</ele>
        <time>2014-01-31T09:35:44.000Z</time>
      </trkpt>
      <trkpt lat="45.56012" lon="6.58408">
        <ele>1671.4000244141</ele>
        <time>2014-01-31T09:35:45.000Z</time>
      </trkpt>
      <trkpt lat="45.56012" lon="6.58409">
        <ele>1671.4000244141</ele>
        <time>2014-01-31T09:35:46.000Z</time>
      </trkpt>
      <trkpt lat="45.56012" lon="6.5841">
        <ele>1671.5999755859</ele>
        <time>2014-01-31T09:35:47.000Z</time>
      </trkpt>
      <trkpt lat="45.56011" lon="6.58411">
        <ele>1671.8000488281</ele>
        <time>2014-01-31T09:35:48.000Z</time>
      </trkpt>
      <trkpt lat="45.56011" lon="6.58413">
        <ele>1671.8000488281</ele>
        <time>2014-01-31T09:35:49.000Z</time>
      </trkpt>
      <trkpt lat="45.56011" lon="6.58414">
        <ele>1672.1999511719</ele>
        <time>2014-01-31T09:35:50.000Z</time>
      </trkpt>
      <trkpt lat="45.56011" lon="6.58414">
        <ele>1672.5999755859</ele>
        <time>2014-01-31T09:35:51.000Z</time>
      </trkpt>
      <trkpt lat="45.56012" lon="6.58415">
        <ele>1672.8000488281</ele>
        <time>2014-01-31T09:35:52.000Z</time>
      </trkpt>
      <trkpt lat="45.56011" lon="6.58416">
        <ele>1673</ele>
        <time>2014-01-31T09:35:53.000Z</time>
      </trkpt>
      <trkpt lat="45.56011" lon="6.58418">
        <ele>1673.1999511719</ele>
        <time>2014-01-31T09:35:54.000Z</time>
      </trkpt>
      <trkpt lat="45.56011" lon="6.58419">
        <ele>1673.4000244141</ele>
        <time>2014-01-31T09:35:55.000Z</time>
      </trkpt>
      <trkpt lat="45.56011" lon="6.5842">
        <ele>1673.5999755859</ele>
        <time>2014-01-31T09:35:56.000Z</time>
      </trkpt>
      <trkpt lat="45.5601" lon="6.58421">
        <ele>1673.8000488281</ele>
        <time>2014-01-31T09:35:57.000Z</time>
      </trkpt>
      <trkpt lat="45.5601" lon="6.58421">
        <ele>1673.8000488281</ele>
        <time>2014-01-31T09:35:58.000Z</time>
      </trkpt>
      <trkpt lat="45.56009" lon="6.58422">
        <ele>1674</ele>
        <time>2014-01-31T09:35:59.000Z</time>
      </trkpt>
      <trkpt lat="45.56009" lon="6.58422">
        <ele>1674.1999511719</ele>
        <time>2014-01-31T09:36:00.000Z</time>
      </trkpt>
      <trkpt lat="45.56009" lon="6.58422">
        <ele>1674.4000244141</ele>
        <time>2014-01-31T09:36:01.000Z</time>
      </trkpt>
      <trkpt lat="45.56009" lon="6.58423">
        <ele>1674.5999755859</ele>
        <time>2014-01-31T09:36:02.000Z</time>
      </trkpt>
      <trkpt lat="45.56009" lon="6.58423">
        <ele>1674.8000488281</ele>
        <time>2014-01-31T09:36:03.000Z</time>
      </trkpt>
      <trkpt lat="45.56009" lon="6.58423">
        <ele>1675.1999511719</ele>
        <time>2014-01-31T09:36:04.000Z</time>
      </trkpt>
      <trkpt lat="45.56009" lon="6.58423">
        <ele>1675.4000244141</ele>
        <time>2014-01-31T09:36:05.000Z</time>
      </trkpt>
      <trkpt lat="45.56009" lon="6.58423">
        <ele>1675.8000488281</ele>
        <time>2014-01-31T09:36:06.000Z</time>
      </trkpt>
      <trkpt lat="45.56008" lon="6.58424">
        <ele>1676</ele>
        <time>2014-01-31T09:36:07.000Z</time>
      </trkpt>
      <trkpt lat="45.56008" lon="6.58426">
        <ele>1676.1999511719</ele>
        <time>2014-01-31T09:36:08.000Z</time>
      </trkpt>
      <trkpt lat="45.56008" lon="6.58428">
        <ele>1676.4000244141</ele>
        <time>2014-01-31T09:36:09.000Z</time>
      </trkpt>
      <trkpt lat="45.56008" lon="6.58429">
        <ele>1676.5999755859</ele>
        <time>2014-01-31T09:36:10.000Z</time>
      </trkpt>
      <trkpt lat="45.56008" lon="6.5843">
        <ele>1676.5999755859</ele>
        <time>2014-01-31T09:36:11.000Z</time>
      </trkpt>
      <trkpt lat="45.56009" lon="6.58432">
        <ele>1676.5999755859</ele>
        <time>2014-01-31T09:36:12.000Z</time>
      </trkpt>
      <trkpt lat="45.56008" lon="6.58433">
        <ele>1676.8000488281</ele>
        <time>2014-01-31T09:36:13.000Z</time>
      </trkpt>
      <trkpt lat="45.56008" lon="6.58434">
        <ele>1677</ele>
        <time>2014-01-31T09:36:14.000Z</time>
      </trkpt>
      <trkpt lat="45.56008" lon="6.58436">
        <ele>1677.1999511719</ele>
        <time>2014-01-31T09:36:15.000Z</time>
      </trkpt>
      <trkpt lat="45.56007" lon="6.58437">
        <ele>1677.5999755859</ele>
        <time>2014-01-31T09:36:16.000Z</time>
      </trkpt>
      <trkpt lat="45.56007" lon="6.58438">
        <ele>1677.8000488281</ele>
        <time>2014-01-31T09:36:17.000Z</time>
      </trkpt>
      <trkpt lat="45.56006" lon="6.58438">
        <ele>1678.1999511719</ele>
        <time>2014-01-31T09:36:18.000Z</time>
      </trkpt>
      <trkpt lat="45.56006" lon="6.58438">
        <ele>1678.4000244141</ele>
        <time>2014-01-31T09:36:19.000Z</time>
      </trkpt>
      <trkpt lat="45.56006" lon="6.58439">
        <ele>1678.8000488281</ele>
        <time>2014-01-31T09:36:20.000Z</time>
      </trkpt>
      <trkpt lat="45.56005" lon="6.5844">
        <ele>1679</ele>
        <time>2014-01-31T09:36:21.000Z</time>
      </trkpt>
      <trkpt lat="45.56005" lon="6.5844">
        <ele>1679.4000244141</ele>
        <time>2014-01-31T09:36:22.000Z</time>
      </trkpt>
      <trkpt lat="45.56005" lon="6.58441">
        <ele>1679.5999755859</ele>
        <time>2014-01-31T09:36:23.000Z</time>
      </trkpt>
      <trkpt lat="45.56003" lon="6.58442">
        <ele>1680</ele>
        <time>2014-01-31T09:36:24.000Z</time>
      </trkpt>
      <trkpt lat="45.56003" lon="6.58442">
        <ele>1680</ele>
        <time>2014-01-31T09:36:25.000Z</time>
      </trkpt>
      <trkpt lat="45.56002" lon="6.58444">
        <ele>1680.1999511719</ele>
        <time>2014-01-31T09:36:26.000Z</time>
      </trkpt>
      <trkpt lat="45.56002" lon="6.58445">
        <ele>1680.4000244141</ele>
        <time>2014-01-31T09:36:27.000Z</time>
      </trkpt>
      <trkpt lat="45.56001" lon="6.58446">
        <ele>1680.5999755859</ele>
        <time>2014-01-31T09:36:28.000Z</time>
      </trkpt>
      <trkpt lat="45.56001" lon="6.58446">
        <ele>1680.5999755859</ele>
        <time>2014-01-31T09:36:29.000Z</time>
      </trkpt>
      <trkpt lat="45.56" lon="6.58447">
        <ele>1680.8000488281</ele>
        <time>2014-01-31T09:36:30.000Z</time>
      </trkpt>
      <trkpt lat="45.56" lon="6.58447">
        <ele>1681</ele>
        <time>2014-01-31T09:36:31.000Z</time>
      </trkpt>
      <trkpt lat="45.55999" lon="6.58448">
        <ele>1681.1999511719</ele>
        <time>2014-01-31T09:36:32.000Z</time>
      </trkpt>
      <trkpt lat="45.55999" lon="6.58449">
        <ele>1681.4000244141</ele>
        <time>2014-01-31T09:36:33.000Z</time>
      </trkpt>
      <trkpt lat="45.55999" lon="6.5845">
        <ele>1681.8000488281</ele>
        <time>2014-01-31T09:36:34.000Z</time>
      </trkpt>
      <trkpt lat="45.55999" lon="6.58451">
        <ele>1682</ele>
        <time>2014-01-31T09:36:35.000Z</time>
      </trkpt>
      <trkpt lat="45.55999" lon="6.58451">
        <ele>1682.4000244141</ele>
        <time>2014-01-31T09:36:36.000Z</time>
      </trkpt>
      <trkpt lat="45.55999" lon="6.58451">
        <ele>1682.5999755859</ele>
        <time>2014-01-31T09:36:37.000Z</time>
      </trkpt>
      <trkpt lat="45.55999" lon="6.58451">
        <ele>1683.1999511719</ele>
        <time>2014-01-31T09:36:38.000Z</time>
      </trkpt>
      <trkpt lat="45.55999" lon="6.58451">
        <ele>1683.1999511719</ele>
        <time>2014-01-31T09:36:39.000Z</time>
      </trkpt>
      <trkpt lat="45.55998" lon="6.58452">
        <ele>1683.8000488281</ele>
        <time>2014-01-31T09:36:40.000Z</time>
      </trkpt>
      <trkpt lat="45.55998" lon="6.58452">
        <ele>1683.8000488281</ele>
        <time>2014-01-31T09:36:41.000Z</time>
      </trkpt>
      <trkpt lat="45.55997" lon="6.58452">
        <ele>1684.1999511719</ele>
        <time>2014-01-31T09:36:42.000Z</time>
      </trkpt>
      <trkpt lat="45.55997" lon="6.58452">
        <ele>1684.1999511719</ele>
        <time>2014-01-31T09:36:43.000Z</time>
      </trkpt>
      <trkpt lat="45.55996" lon="6.58452">
        <ele>1684.5999755859</ele>
        <time>2014-01-31T09:36:44.000Z</time>
      </trkpt>
      <trkpt lat="45.55996" lon="6.58452">
        <ele>1684.8000488281</ele>
        <time>2014-01-31T09:36:45.000Z</time>
      </trkpt>
      <trkpt lat="45.55995" lon="6.58453">
        <ele>1685.1999511719</ele>
        <time>2014-01-31T09:36:46.000Z</time>
      </trkpt>
      <trkpt lat="45.55995" lon="6.58453">
        <ele>1685.1999511719</ele>
        <time>2014-01-31T09:36:47.000Z</time>
      </trkpt>
      <trkpt lat="45.55995" lon="6.58454">
        <ele>1685.5999755859</ele>
        <time>2014-01-31T09:36:48.000Z</time>
      </trkpt>
      <trkpt lat="45.55995" lon="6.58455">
        <ele>1685.5999755859</ele>
        <time>2014-01-31T09:36:49.000Z</time>
      </trkpt>
      <trkpt lat="45.55994" lon="6.58457">
        <ele>1685.8000488281</ele>
        <time>2014-01-31T09:36:50.000Z</time>
      </trkpt>
      <trkpt lat="45.55994" lon="6.58457">
        <ele>1685.8000488281</ele>
        <time>2014-01-31T09:36:51.000Z</time>
      </trkpt>
      <trkpt lat="45.55994" lon="6.58457">
        <ele>1686.1999511719</ele>
        <time>2014-01-31T09:36:52.000Z</time>
      </trkpt>
      <trkpt lat="45.55994" lon="6.58458">
        <ele>1686.1999511719</ele>
        <time>2014-01-31T09:36:53.000Z</time>
      </trkpt>
      <trkpt lat="45.55993" lon="6.58459">
        <ele>1686.5999755859</ele>
        <time>2014-01-31T09:36:54.000Z</time>
      </trkpt>
      <trkpt lat="45.55992" lon="6.5846">
        <ele>1686.5999755859</ele>
        <time>2014-01-31T09:36:55.000Z</time>
      </trkpt>
      <trkpt lat="45.55992" lon="6.5846">
        <ele>1687</ele>
        <time>2014-01-31T09:36:56.000Z</time>
      </trkpt>
      <trkpt lat="45.55992" lon="6.5846">
        <ele>1687</ele>
        <time>2014-01-31T09:36:57.000Z</time>
      </trkpt>
      <trkpt lat="45.5599" lon="6.58461">
        <ele>1687.4000244141</ele>
        <time>2014-01-31T09:36:58.000Z</time>
      </trkpt>
      <trkpt lat="45.5599" lon="6.58462">
        <ele>1687.4000244141</ele>
        <time>2014-01-31T09:36:59.000Z</time>
      </trkpt>
      <trkpt lat="45.55989" lon="6.58463">
        <ele>1687.8000488281</ele>
        <time>2014-01-31T09:37:00.000Z</time>
      </trkpt>
      <trkpt lat="45.55988" lon="6.58463">
        <ele>1687.8000488281</ele>
        <time>2014-01-31T09:37:01.000Z</time>
      </trkpt>
      <trkpt lat="45.55987" lon="6.58464">
        <ele>1688</ele>
        <time>2014-01-31T09:37:02.000Z</time>
      </trkpt>
      <trkpt lat="45.55987" lon="6.58464">
        <ele>1688.4000244141</ele>
        <time>2014-01-31T09:37:03.000Z</time>
      </trkpt>
      <trkpt lat="45.55986" lon="6.58465">
        <ele>1688.5999755859</ele>
        <time>2014-01-31T09:37:04.000Z</time>
      </trkpt>
      <trkpt lat="45.55986" lon="6.58465">
        <ele>1688.8000488281</ele>
        <time>2014-01-31T09:37:05.000Z</time>
      </trkpt>
      <trkpt lat="45.55985" lon="6.58465">
        <ele>1689</ele>
        <time>2014-01-31T09:37:06.000Z</time>
      </trkpt>
      <trkpt lat="45.55984" lon="6.58465">
        <ele>1689.4000244141</ele>
        <time>2014-01-31T09:37:07.000Z</time>
      </trkpt>
      <trkpt lat="45.55984" lon="6.58465">
        <ele>1689</ele>
        <time>2014-01-31T09:37:10.000Z</time>
      </trkpt>
      <trkpt lat="45.55984" lon="6.58465">
        <ele>1689.1999511719</ele>
        <time>2014-01-31T09:37:11.000Z</time>
      </trkpt>
      <trkpt lat="45.55984" lon="6.58465">
        <ele>1689</ele>
        <time>2014-01-31T09:37:12.000Z</time>
      </trkpt>
      <trkpt lat="45.55984" lon="6.58465">
        <ele>1688.8000488281</ele>
        <time>2014-01-31T09:37:13.000Z</time>
      </trkpt>
      <trkpt lat="45.55984" lon="6.58465">
        <ele>1688.8000488281</ele>
        <time>2014-01-31T09:37:14.000Z</time>
      </trkpt>
      <trkpt lat="45.55984" lon="6.58465">
        <ele>1688.8000488281</ele>
        <time>2014-01-31T09:37:15.000Z</time>
      </trkpt>
      <trkpt lat="45.55983" lon="6.58465">
        <ele>1689</ele>
        <time>2014-01-31T09:37:16.000Z</time>
      </trkpt>
      <trkpt lat="45.55983" lon="6.58465">
        <ele>1689.1999511719</ele>
        <time>2014-01-31T09:37:17.000Z</time>
      </trkpt>
      <trkpt lat="45.55982" lon="6.58464">
        <ele>1689.4000244141</ele>
        <time>2014-01-31T09:37:18.000Z</time>
      </trkpt>
      <trkpt lat="45.55982" lon="6.58463">
        <ele>1689.8000488281</ele>
        <time>2014-01-31T09:37:19.000Z</time>
      </trkpt>
      <trkpt lat="45.55981" lon="6.58463">
        <ele>1690</ele>
        <time>2014-01-31T09:37:20.000Z</time>
      </trkpt>
      <trkpt lat="45.5598" lon="6.58463">
        <ele>1690.1999511719</ele>
        <time>2014-01-31T09:37:21.000Z</time>
      </trkpt>
      <trkpt lat="45.5598" lon="6.58463">
        <ele>1690.1999511719</ele>
        <time>2014-01-31T09:37:22.000Z</time>
      </trkpt>
      <trkpt lat="45.5598" lon="6.58463">
        <ele>1690.4000244141</ele>
        <time>2014-01-31T09:37:23.000Z</time>
      </trkpt>
      <trkpt lat="45.5598" lon="6.58463">
        <ele>1690.4000244141</ele>
        <time>2014-01-31T09:37:24.000Z</time>
      </trkpt>
      <trkpt lat="45.5598" lon="6.58463">
        <ele>1690.5999755859</ele>
        <time>2014-01-31T09:37:25.000Z</time>
      </trkpt>
      <trkpt lat="45.5598" lon="6.58463">
        <ele>1691</ele>
        <time>2014-01-31T09:37:26.000Z</time>
      </trkpt>
      <trkpt lat="45.5598" lon="6.58463">
        <ele>1691.1999511719</ele>
        <time>2014-01-31T09:37:27.000Z</time>
      </trkpt>
      <trkpt lat="45.5598" lon="6.58463">
        <ele>1691.1999511719</ele>
        <time>2014-01-31T09:37:28.000Z</time>
      </trkpt>
      <trkpt lat="45.5598" lon="6.58463">
        <ele>1691.1999511719</ele>
        <time>2014-01-31T09:37:29.000Z</time>
      </trkpt>
      <trkpt lat="45.5598" lon="6.58463">
        <ele>1691.1999511719</ele>
        <time>2014-01-31T09:37:30.000Z</time>
      </trkpt>
      <trkpt lat="45.5598" lon="6.58463">
        <ele>1691.4000244141</ele>
        <time>2014-01-31T09:37:31.000Z</time>
      </trkpt>
      <trkpt lat="45.5598" lon="6.58463">
        <ele>1691.4000244141</ele>
        <time>2014-01-31T09:37:32.000Z</time>
      </trkpt>
      <trkpt lat="45.5598" lon="6.58463">
        <ele>1691.4000244141</ele>
        <time>2014-01-31T09:37:33.000Z</time>
      </trkpt>
      <trkpt lat="45.55981" lon="6.58462">
        <ele>1691.5999755859</ele>
        <time>2014-01-31T09:37:34.000Z</time>
      </trkpt>
      <trkpt lat="45.55981" lon="6.5846">
        <ele>1691.5999755859</ele>
        <time>2014-01-31T09:37:35.000Z</time>
      </trkpt>
      <trkpt lat="45.55981" lon="6.58459">
        <ele>1691.8000488281</ele>
        <time>2014-01-31T09:37:36.000Z</time>
      </trkpt>
      <trkpt lat="45.55982" lon="6.58457">
        <ele>1692</ele>
        <time>2014-01-31T09:37:37.000Z</time>
      </trkpt>
      <trkpt lat="45.55982" lon="6.58455">
        <ele>1692.1999511719</ele>
        <time>2014-01-31T09:37:38.000Z</time>
      </trkpt>
      <trkpt lat="45.55983" lon="6.58454">
        <ele>1692.4000244141</ele>
        <time>2014-01-31T09:37:39.000Z</time>
      </trkpt>
      <trkpt lat="45.55984" lon="6.58452">
        <ele>1692.5999755859</ele>
        <time>2014-01-31T09:37:40.000Z</time>
      </trkpt>
      <trkpt lat="45.55984" lon="6.58451">
        <ele>1692.8000488281</ele>
        <time>2014-01-31T09:37:41.000Z</time>
      </trkpt>
      <trkpt lat="45.55984" lon="6.5845">
        <ele>1692.8000488281</ele>
        <time>2014-01-31T09:37:42.000Z</time>
      </trkpt>
      <trkpt lat="45.55984" lon="6.5845">
        <ele>1693</ele>
        <time>2014-01-31T09:37:43.000Z</time>
      </trkpt>
      <trkpt lat="45.55983" lon="6.5845">
        <ele>1693.1999511719</ele>
        <time>2014-01-31T09:37:44.000Z</time>
      </trkpt>
      <trkpt lat="45.55983" lon="6.5845">
        <ele>1693.5999755859</ele>
        <time>2014-01-31T09:37:45.000Z</time>
      </trkpt>
      <trkpt lat="45.55983" lon="6.5845">
        <ele>1693.8000488281</ele>
        <time>2014-01-31T09:37:46.000Z</time>
      </trkpt>
      <trkpt lat="45.55983" lon="6.5845">
        <ele>1694</ele>
        <time>2014-01-31T09:37:47.000Z</time>
      </trkpt>
      <trkpt lat="45.55983" lon="6.5845">
        <ele>1694.1999511719</ele>
        <time>2014-01-31T09:37:48.000Z</time>
      </trkpt>
      <trkpt lat="45.55983" lon="6.5845">
        <ele>1694.1999511719</ele>
        <time>2014-01-31T09:37:49.000Z</time>
      </trkpt>
      <trkpt lat="45.55983" lon="6.5845">
        <ele>1694.1999511719</ele>
        <time>2014-01-31T09:37:50.000Z</time>
      </trkpt>
      <trkpt lat="45.55983" lon="6.5845">
        <ele>1694.1999511719</ele>
        <time>2014-01-31T09:37:52.000Z</time>
      </trkpt>
      <trkpt lat="45.55983" lon="6.5845">
        <ele>1694.1999511719</ele>
        <time>2014-01-31T09:37:54.000Z</time>
      </trkpt>
      <trkpt lat="45.55983" lon="6.5845">
        <ele>1694.1999511719</ele>
        <time>2014-01-31T09:37:55.000Z</time>
      </trkpt>
      <trkpt lat="45.55983" lon="6.5845">
        <ele>1694.1999511719</ele>
        <time>2014-01-31T09:37:56.000Z</time>
      </trkpt>
      <trkpt lat="45.55983" lon="6.5845">
        <ele>1694.4000244141</ele>
        <time>2014-01-31T09:37:57.000Z</time>
      </trkpt>
      <trkpt lat="45.55983" lon="6.5845">
        <ele>1694.4000244141</ele>
        <time>2014-01-31T09:37:58.000Z</time>
      </trkpt>
      <trkpt lat="45.55983" lon="6.5845">
        <ele>1694.4000244141</ele>
        <time>2014-01-31T09:37:59.000Z</time>
      </trkpt>
      <trkpt lat="45.55983" lon="6.5845">
        <ele>1694.4000244141</ele>
        <time>2014-01-31T09:38:00.000Z</time>
      </trkpt>
      <trkpt lat="45.55983" lon="6.5845">
        <ele>1694.4000244141</ele>
        <time>2014-01-31T09:38:02.000Z</time>
      </trkpt>
      <trkpt lat="45.55983" lon="6.5845">
        <ele>1694.5999755859</ele>
        <time>2014-01-31T09:38:03.000Z</time>
      </trkpt>
      <trkpt lat="45.55983" lon="6.5845">
        <ele>1694.5999755859</ele>
        <time>2014-01-31T09:38:04.000Z</time>
      </trkpt>
      <trkpt lat="45.55983" lon="6.5845">
        <ele>1694.5999755859</ele>
        <time>2014-01-31T09:38:05.000Z</time>
      </trkpt>
      <trkpt lat="45.55983" lon="6.5845">
        <ele>1694.8000488281</ele>
        <time>2014-01-31T09:38:06.000Z</time>
      </trkpt>
      <trkpt lat="45.55983" lon="6.5845">
        <ele>1694.8000488281</ele>
        <time>2014-01-31T09:38:07.000Z</time>
      </trkpt>
      <trkpt lat="45.55983" lon="6.5845">
        <ele>1694.5999755859</ele>
        <time>2014-01-31T09:38:08.000Z</time>
      </trkpt>
      <trkpt lat="45.55983" lon="6.5845">
        <ele>1694.5999755859</ele>
        <time>2014-01-31T09:38:09.000Z</time>
      </trkpt>
      <trkpt lat="45.55983" lon="6.5845">
        <ele>1694.5999755859</ele>
        <time>2014-01-31T09:38:10.000Z</time>
      </trkpt>
      <trkpt lat="45.55983" lon="6.5845">
        <ele>1694.5999755859</ele>
        <time>2014-01-31T09:38:11.000Z</time>
      </trkpt>
      <trkpt lat="45.55983" lon="6.5845">
        <ele>1694.5999755859</ele>
        <time>2014-01-31T09:38:12.000Z</time>
      </trkpt>
      <trkpt lat="45.55983" lon="6.5845">
        <ele>1694.5999755859</ele>
        <time>2014-01-31T09:38:14.000Z</time>
      </trkpt>
      <trkpt lat="45.55983" lon="6.5845">
        <ele>1694.5999755859</ele>
        <time>2014-01-31T09:38:15.000Z</time>
      </trkpt>
      <trkpt lat="45.55983" lon="6.5845">
        <ele>1694.4000244141</ele>
        <time>2014-01-31T09:38:16.000Z</time>
      </trkpt>
      <trkpt lat="45.55983" lon="6.5845">
        <ele>1694.4000244141</ele>
        <time>2014-01-31T09:38:17.000Z</time>
      </trkpt>
      <trkpt lat="45.55983" lon="6.5845">
        <ele>1694.4000244141</ele>
        <time>2014-01-31T09:38:18.000Z</time>
      </trkpt>
      <trkpt lat="45.55983" lon="6.5845">
        <ele>1694.4000244141</ele>
        <time>2014-01-31T09:38:19.000Z</time>
      </trkpt>
      <trkpt lat="45.55983" lon="6.5845">
        <ele>1694.4000244141</ele>
        <time>2014-01-31T09:38:20.000Z</time>
      </trkpt>
      <trkpt lat="45.55983" lon="6.5845">
        <ele>1694.4000244141</ele>
        <time>2014-01-31T09:38:24.000Z</time>
      </trkpt>
      <trkpt lat="45.55982" lon="6.5845">
        <ele>1694.4000244141</ele>
        <time>2014-01-31T09:38:25.000Z</time>
      </trkpt>
      <trkpt lat="45.55982" lon="6.5845">
        <ele>1694.4000244141</ele>
        <time>2014-01-31T09:38:26.000Z</time>
      </trkpt>
      <trkpt lat="45.55982" lon="6.5845">
        <ele>1694.4000244141</ele>
        <time>2014-01-31T09:38:27.000Z</time>
      </trkpt>
      <trkpt lat="45.55982" lon="6.5845">
        <ele>1694.4000244141</ele>
        <time>2014-01-31T09:38:28.000Z</time>
      </trkpt>
      <trkpt lat="45.55982" lon="6.5845">
        <ele>1694.5999755859</ele>
        <time>2014-01-31T09:38:29.000Z</time>
      </trkpt>
      <trkpt lat="45.5598" lon="6.58446">
        <ele>1694.5999755859</ele>
        <time>2014-01-31T09:38:36.000Z</time>
      </trkpt>
      <trkpt lat="45.55979" lon="6.58444">
        <ele>1694.5999755859</ele>
        <time>2014-01-31T09:38:38.000Z</time>
      </trkpt>
      <trkpt lat="45.55978" lon="6.58442">
        <ele>1694.5999755859</ele>
        <time>2014-01-31T09:38:39.000Z</time>
      </trkpt>
      <trkpt lat="45.55978" lon="6.58444">
        <ele>1694.5999755859</ele>
        <time>2014-01-31T09:38:40.000Z</time>
      </trkpt>
      <trkpt lat="45.55978" lon="6.58444">
        <ele>1694.5999755859</ele>
        <time>2014-01-31T09:38:41.000Z</time>
      </trkpt>
      <trkpt lat="45.55978" lon="6.58444">
        <ele>1694.8000488281</ele>
        <time>2014-01-31T09:38:42.000Z</time>
      </trkpt>
      <trkpt lat="45.55978" lon="6.58444">
        <ele>1694.8000488281</ele>
        <time>2014-01-31T09:38:43.000Z</time>
      </trkpt>
      <trkpt lat="45.55978" lon="6.58444">
        <ele>1695</ele>
        <time>2014-01-31T09:38:44.000Z</time>
      </trkpt>
      <trkpt lat="45.55978" lon="6.58444">
        <ele>1695</ele>
        <time>2014-01-31T09:38:45.000Z</time>
      </trkpt>
      <trkpt lat="45.55978" lon="6.58444">
        <ele>1695</ele>
        <time>2014-01-31T09:38:46.000Z</time>
      </trkpt>
      <trkpt lat="45.55978" lon="6.58444">
        <ele>1695.1999511719</ele>
        <time>2014-01-31T09:38:47.000Z</time>
      </trkpt>
      <trkpt lat="45.55978" lon="6.58444">
        <ele>1695</ele>
        <time>2014-01-31T09:38:50.000Z</time>
      </trkpt>
      <trkpt lat="45.55978" lon="6.58444">
        <ele>1695</ele>
        <time>2014-01-31T09:38:51.000Z</time>
      </trkpt>
      <trkpt lat="45.55978" lon="6.58444">
        <ele>1695</ele>
        <time>2014-01-31T09:38:52.000Z</time>
      </trkpt>
      <trkpt lat="45.55978" lon="6.58444">
        <ele>1695</ele>
        <time>2014-01-31T09:38:53.000Z</time>
      </trkpt>
      <trkpt lat="45.55978" lon="6.58444">
        <ele>1694.8000488281</ele>
        <time>2014-01-31T09:38:54.000Z</time>
      </trkpt>
      <trkpt lat="45.55978" lon="6.58444">
        <ele>1694.8000488281</ele>
        <time>2014-01-31T09:38:55.000Z</time>
      </trkpt>
      <trkpt lat="45.55978" lon="6.58444">
        <ele>1694.8000488281</ele>
        <time>2014-01-31T09:38:56.000Z</time>
      </trkpt>
      <trkpt lat="45.55978" lon="6.58444">
        <ele>1694.8000488281</ele>
        <time>2014-01-31T09:38:57.000Z</time>
      </trkpt>
      <trkpt lat="45.55978" lon="6.58444">
        <ele>1694.8000488281</ele>
        <time>2014-01-31T09:38:58.000Z</time>
      </trkpt>
      <trkpt lat="45.55978" lon="6.58444">
        <ele>1695</ele>
        <time>2014-01-31T09:39:00.000Z</time>
      </trkpt>
      <trkpt lat="45.55978" lon="6.58444">
        <ele>1694.8000488281</ele>
        <time>2014-01-31T09:39:01.000Z</time>
      </trkpt>
      <trkpt lat="45.55978" lon="6.58444">
        <ele>1694.8000488281</ele>
        <time>2014-01-31T09:39:02.000Z</time>
      </trkpt>
      <trkpt lat="45.55978" lon="6.58444">
        <ele>1694.8000488281</ele>
        <time>2014-01-31T09:39:03.000Z</time>
      </trkpt>
      <trkpt lat="45.55978" lon="6.58444">
        <ele>1694.8000488281</ele>
        <time>2014-01-31T09:39:04.000Z</time>
      </trkpt>
      <trkpt lat="45.55978" lon="6.58444">
        <ele>1694.8000488281</ele>
        <time>2014-01-31T09:39:06.000Z</time>
      </trkpt>
      <trkpt lat="45.55978" lon="6.58444">
        <ele>1694.8000488281</ele>
        <time>2014-01-31T09:39:07.000Z</time>
      </trkpt>
      <trkpt lat="45.55978" lon="6.58444">
        <ele>1694.8000488281</ele>
        <time>2014-01-31T09:39:09.000Z</time>
      </trkpt>
      <trkpt lat="45.55978" lon="6.58444">
        <ele>1694.8000488281</ele>
        <time>2014-01-31T09:39:10.000Z</time>
      </trkpt>
      <trkpt lat="45.55978" lon="6.58444">
        <ele>1694.8000488281</ele>
        <time>2014-01-31T09:39:11.000Z</time>
      </trkpt>
      <trkpt lat="45.55978" lon="6.58444">
        <ele>1694.8000488281</ele>
        <time>2014-01-31T09:39:12.000Z</time>
      </trkpt>
      <trkpt lat="45.55978" lon="6.58444">
        <ele>1694.8000488281</ele>
        <time>2014-01-31T09:39:13.000Z</time>
      </trkpt>
      <trkpt lat="45.55978" lon="6.58444">
        <ele>1694.8000488281</ele>
        <time>2014-01-31T09:39:14.000Z</time>
      </trkpt>
      <trkpt lat="45.55978" lon="6.58444">
        <ele>1694.8000488281</ele>
        <time>2014-01-31T09:39:15.000Z</time>
      </trkpt>
      <trkpt lat="45.55978" lon="6.58444">
        <ele>1694.8000488281</ele>
        <time>2014-01-31T09:39:16.000Z</time>
      </trkpt>
      <trkpt lat="45.55978" lon="6.58444">
        <ele>1694.8000488281</ele>
        <time>2014-01-31T09:39:17.000Z</time>
      </trkpt>
      <trkpt lat="45.55978" lon="6.58444">
        <ele>1694.8000488281</ele>
        <time>2014-01-31T09:39:19.000Z</time>
      </trkpt>
      <trkpt lat="45.55978" lon="6.58445">
        <ele>1694.5999755859</ele>
        <time>2014-01-31T09:39:20.000Z</time>
      </trkpt>
      <trkpt lat="45.55978" lon="6.58445">
        <ele>1694.5999755859</ele>
        <time>2014-01-31T09:39:21.000Z</time>
      </trkpt>
      <trkpt lat="45.55978" lon="6.58445">
        <ele>1694.8000488281</ele>
        <time>2014-01-31T09:39:24.000Z</time>
      </trkpt>
      <trkpt lat="45.55978" lon="6.58445">
        <ele>1694.8000488281</ele>
        <time>2014-01-31T09:39:25.000Z</time>
      </trkpt>
      <trkpt lat="45.55978" lon="6.58445">
        <ele>1694.8000488281</ele>
        <time>2014-01-31T09:39:26.000Z</time>
      </trkpt>
      <trkpt lat="45.55978" lon="6.58445">
        <ele>1694.8000488281</ele>
        <time>2014-01-31T09:39:27.000Z</time>
      </trkpt>
      <trkpt lat="45.55978" lon="6.58445">
        <ele>1694.8000488281</ele>
        <time>2014-01-31T09:39:28.000Z</time>
      </trkpt>
      <trkpt lat="45.55978" lon="6.58445">
        <ele>1694.8000488281</ele>
        <time>2014-01-31T09:39:29.000Z</time>
      </trkpt>
      <trkpt lat="45.55978" lon="6.58445">
        <ele>1694.8000488281</ele>
        <time>2014-01-31T09:39:30.000Z</time>
      </trkpt>
      <trkpt lat="45.55978" lon="6.58445">
        <ele>1694.8000488281</ele>
        <time>2014-01-31T09:39:31.000Z</time>
      </trkpt>
      <trkpt lat="45.55978" lon="6.58445">
        <ele>1694.8000488281</ele>
        <time>2014-01-31T09:39:32.000Z</time>
      </trkpt>
      <trkpt lat="45.55978" lon="6.58445">
        <ele>1694.8000488281</ele>
        <time>2014-01-31T09:39:33.000Z</time>
      </trkpt>
      <trkpt lat="45.55978" lon="6.58445">
        <ele>1694.8000488281</ele>
        <time>2014-01-31T09:39:34.000Z</time>
      </trkpt>
      <trkpt lat="45.55978" lon="6.58445">
        <ele>1694.8000488281</ele>
        <time>2014-01-31T09:39:35.000Z</time>
      </trkpt>
      <trkpt lat="45.55978" lon="6.58445">
        <ele>1694.8000488281</ele>
        <time>2014-01-31T09:39:36.000Z</time>
      </trkpt>
      <trkpt lat="45.55978" lon="6.58445">
        <ele>1694.8000488281</ele>
        <time>2014-01-31T09:39:37.000Z</time>
      </trkpt>
      <trkpt lat="45.55978" lon="6.58445">
        <ele>1694.8000488281</ele>
        <time>2014-01-31T09:39:38.000Z</time>
      </trkpt>
      <trkpt lat="45.55978" lon="6.58445">
        <ele>1694.8000488281</ele>
        <time>2014-01-31T09:39:41.000Z</time>
      </trkpt>
      <trkpt lat="45.55978" lon="6.58445">
        <ele>1694.8000488281</ele>
        <time>2014-01-31T09:39:42.000Z</time>
      </trkpt>
      <trkpt lat="45.55978" lon="6.58445">
        <ele>1694.5999755859</ele>
        <time>2014-01-31T09:39:43.000Z</time>
      </trkpt>
      <trkpt lat="45.55978" lon="6.58445">
        <ele>1694.5999755859</ele>
        <time>2014-01-31T09:39:44.000Z</time>
      </trkpt>
      <trkpt lat="45.55978" lon="6.58445">
        <ele>1694.5999755859</ele>
        <time>2014-01-31T09:39:45.000Z</time>
      </trkpt>
      <trkpt lat="45.55978" lon="6.58445">
        <ele>1694.8000488281</ele>
        <time>2014-01-31T09:39:47.000Z</time>
      </trkpt>
      <trkpt lat="45.55978" lon="6.58445">
        <ele>1694.8000488281</ele>
        <time>2014-01-31T09:39:48.000Z</time>
      </trkpt>
      <trkpt lat="45.55978" lon="6.58445">
        <ele>1694.8000488281</ele>
        <time>2014-01-31T09:39:49.000Z</time>
      </trkpt>
      <trkpt lat="45.55978" lon="6.58445">
        <ele>1694.8000488281</ele>
        <time>2014-01-31T09:39:50.000Z</time>
      </trkpt>
      <trkpt lat="45.55978" lon="6.58445">
        <ele>1694.8000488281</ele>
        <time>2014-01-31T09:39:51.000Z</time>
      </trkpt>
      <trkpt lat="45.55978" lon="6.58445">
        <ele>1694.8000488281</ele>
        <time>2014-01-31T09:39:52.000Z</time>
      </trkpt>
      <trkpt lat="45.55978" lon="6.58445">
        <ele>1694.8000488281</ele>
        <time>2014-01-31T09:39:53.000Z</time>
      </trkpt>
      <trkpt lat="45.55978" lon="6.58445">
        <ele>1694.8000488281</ele>
        <time>2014-01-31T09:39:54.000Z</time>
      </trkpt>
      <trkpt lat="45.55978" lon="6.58445">
        <ele>1694.5999755859</ele>
        <time>2014-01-31T09:39:55.000Z</time>
      </trkpt>
      <trkpt lat="45.55978" lon="6.58445">
        <ele>1694.5999755859</ele>
        <time>2014-01-31T09:39:56.000Z</time>
      </trkpt>
      <trkpt lat="45.55978" lon="6.58445">
        <ele>1694.5999755859</ele>
        <time>2014-01-31T09:39:57.000Z</time>
      </trkpt>
      <trkpt lat="45.55978" lon="6.58445">
        <ele>1694.5999755859</ele>
        <time>2014-01-31T09:39:58.000Z</time>
      </trkpt>
      <trkpt lat="45.55978" lon="6.58446">
        <ele>1694.5999755859</ele>
        <time>2014-01-31T09:40:01.000Z</time>
      </trkpt>
      <trkpt lat="45.55978" lon="6.58446">
        <ele>1694.5999755859</ele>
        <time>2014-01-31T09:40:02.000Z</time>
      </trkpt>
      <trkpt lat="45.55978" lon="6.58446">
        <ele>1694.5999755859</ele>
        <time>2014-01-31T09:40:03.000Z</time>
      </trkpt>
      <trkpt lat="45.55978" lon="6.58446">
        <ele>1694.5999755859</ele>
        <time>2014-01-31T09:40:04.000Z</time>
      </trkpt>
      <trkpt lat="45.55978" lon="6.58446">
        <ele>1694.5999755859</ele>
        <time>2014-01-31T09:40:06.000Z</time>
      </trkpt>
      <trkpt lat="45.55978" lon="6.58446">
        <ele>1694.5999755859</ele>
        <time>2014-01-31T09:40:13.000Z</time>
      </trkpt>
      <trkpt lat="45.55978" lon="6.58446">
        <ele>1694.5999755859</ele>
        <time>2014-01-31T09:40:14.000Z</time>
      </trkpt>
      <trkpt lat="45.55978" lon="6.58446">
        <ele>1694.5999755859</ele>
        <time>2014-01-31T09:40:15.000Z</time>
      </trkpt>
      <trkpt lat="45.55978" lon="6.58446">
        <ele>1694.5999755859</ele>
        <time>2014-01-31T09:40:18.000Z</time>
      </trkpt>
      <trkpt lat="45.55978" lon="6.58446">
        <ele>1694.5999755859</ele>
        <time>2014-01-31T09:40:19.000Z</time>
      </trkpt>
      <trkpt lat="45.55978" lon="6.58446">
        <ele>1694.5999755859</ele>
        <time>2014-01-31T09:40:20.000Z</time>
      </trkpt>
      <trkpt lat="45.55978" lon="6.58446">
        <ele>1694.5999755859</ele>
        <time>2014-01-31T09:40:22.000Z</time>
      </trkpt>
      <trkpt lat="45.55978" lon="6.58446">
        <ele>1694.5999755859</ele>
        <time>2014-01-31T09:40:25.000Z</time>
      </trkpt>
      <trkpt lat="45.55978" lon="6.58446">
        <ele>1694.5999755859</ele>
        <time>2014-01-31T09:40:27.000Z</time>
      </trkpt>
      <trkpt lat="45.55978" lon="6.58446">
        <ele>1694.8000488281</ele>
        <time>2014-01-31T09:40:28.000Z</time>
      </trkpt>
      <trkpt lat="45.55978" lon="6.58446">
        <ele>1694.5999755859</ele>
        <time>2014-01-31T09:40:31.000Z</time>
      </trkpt>
      <trkpt lat="45.55978" lon="6.58446">
        <ele>1694.5999755859</ele>
        <time>2014-01-31T09:40:32.000Z</time>
      </trkpt>
      <trkpt lat="45.55978" lon="6.58446">
        <ele>1694.5999755859</ele>
        <time>2014-01-31T09:40:33.000Z</time>
      </trkpt>
      <trkpt lat="45.55978" lon="6.58446">
        <ele>1694.5999755859</ele>
        <time>2014-01-31T09:40:34.000Z</time>
      </trkpt>
      <trkpt lat="45.55978" lon="6.58446">
        <ele>1694.5999755859</ele>
        <time>2014-01-31T09:40:35.000Z</time>
      </trkpt>
      <trkpt lat="45.55978" lon="6.58446">
        <ele>1694.5999755859</ele>
        <time>2014-01-31T09:40:36.000Z</time>
      </trkpt>
      <trkpt lat="45.55978" lon="6.58446">
        <ele>1694.8000488281</ele>
        <time>2014-01-31T09:40:37.000Z</time>
      </trkpt>
      <trkpt lat="45.55978" lon="6.58446">
        <ele>1694.8000488281</ele>
        <time>2014-01-31T09:40:38.000Z</time>
      </trkpt>
      <trkpt lat="45.55978" lon="6.58446">
        <ele>1695</ele>
        <time>2014-01-31T09:40:39.000Z</time>
      </trkpt>
      <trkpt lat="45.55979" lon="6.58446">
        <ele>1695</ele>
        <time>2014-01-31T09:40:40.000Z</time>
      </trkpt>
      <trkpt lat="45.55979" lon="6.58446">
        <ele>1694.8000488281</ele>
        <time>2014-01-31T09:40:41.000Z</time>
      </trkpt>
      <trkpt lat="45.55979" lon="6.58446">
        <ele>1694.8000488281</ele>
        <time>2014-01-31T09:40:42.000Z</time>
      </trkpt>
      <trkpt lat="45.55979" lon="6.58446">
        <ele>1694.5999755859</ele>
        <time>2014-01-31T09:40:43.000Z</time>
      </trkpt>
      <trkpt lat="45.55979" lon="6.58446">
        <ele>1694.5999755859</ele>
        <time>2014-01-31T09:40:44.000Z</time>
      </trkpt>
      <trkpt lat="45.55979" lon="6.58446">
        <ele>1694.5999755859</ele>
        <time>2014-01-31T09:40:46.000Z</time>
      </trkpt>
      <trkpt lat="45.55979" lon="6.58446">
        <ele>1694.5999755859</ele>
        <time>2014-01-31T09:40:47.000Z</time>
      </trkpt>
      <trkpt lat="45.55979" lon="6.58446">
        <ele>1694.8000488281</ele>
        <time>2014-01-31T09:40:48.000Z</time>
      </trkpt>
      <trkpt lat="45.55979" lon="6.58446">
        <ele>1694.8000488281</ele>
        <time>2014-01-31T09:40:49.000Z</time>
      </trkpt>
      <trkpt lat="45.55979" lon="6.58446">
        <ele>1694.8000488281</ele>
        <time>2014-01-31T09:40:50.000Z</time>
      </trkpt>
      <trkpt lat="45.5598" lon="6.58446">
        <ele>1694.8000488281</ele>
        <time>2014-01-31T09:40:51.000Z</time>
      </trkpt>
      <trkpt lat="45.5598" lon="6.58446">
        <ele>1694.8000488281</ele>
        <time>2014-01-31T09:40:52.000Z</time>
      </trkpt>
      <trkpt lat="45.55981" lon="6.58446">
        <ele>1694.8000488281</ele>
        <time>2014-01-31T09:40:53.000Z</time>
      </trkpt>
      <trkpt lat="45.55981" lon="6.58445">
        <ele>1695</ele>
        <time>2014-01-31T09:40:54.000Z</time>
      </trkpt>
      <trkpt lat="45.55981" lon="6.58445">
        <ele>1695</ele>
        <time>2014-01-31T09:40:55.000Z</time>
      </trkpt>
      <trkpt lat="45.55982" lon="6.58444">
        <ele>1695.1999511719</ele>
        <time>2014-01-31T09:40:56.000Z</time>
      </trkpt>
      <trkpt lat="45.55982" lon="6.58444">
        <ele>1695.4000244141</ele>
        <time>2014-01-31T09:40:57.000Z</time>
      </trkpt>
      <trkpt lat="45.55983" lon="6.58444">
        <ele>1695.5999755859</ele>
        <time>2014-01-31T09:40:58.000Z</time>
      </trkpt>
      <trkpt lat="45.55983" lon="6.58443">
        <ele>1695.5999755859</ele>
        <time>2014-01-31T09:40:59.000Z</time>
      </trkpt>
      <trkpt lat="45.55984" lon="6.58442">
        <ele>1695.8000488281</ele>
        <time>2014-01-31T09:41:00.000Z</time>
      </trkpt>
      <trkpt lat="45.55984" lon="6.58441">
        <ele>1696</ele>
        <time>2014-01-31T09:41:01.000Z</time>
      </trkpt>
      <trkpt lat="45.55985" lon="6.5844">
        <ele>1696</ele>
        <time>2014-01-31T09:41:02.000Z</time>
      </trkpt>
      <trkpt lat="45.55985" lon="6.58439">
        <ele>1696.1999511719</ele>
        <time>2014-01-31T09:41:03.000Z</time>
      </trkpt>
      <trkpt lat="45.55985" lon="6.58439">
        <ele>1696.1999511719</ele>
        <time>2014-01-31T09:41:04.000Z</time>
      </trkpt>
      <trkpt lat="45.55985" lon="6.58439">
        <ele>1696.4000244141</ele>
        <time>2014-01-31T09:41:05.000Z</time>
      </trkpt>
      <trkpt lat="45.55985" lon="6.58439">
        <ele>1696.4000244141</ele>
        <time>2014-01-31T09:41:06.000Z</time>
      </trkpt>
      <trkpt lat="45.55985" lon="6.58439">
        <ele>1696.4000244141</ele>
        <time>2014-01-31T09:41:07.000Z</time>
      </trkpt>
      <trkpt lat="45.55985" lon="6.58439">
        <ele>1696.4000244141</ele>
        <time>2014-01-31T09:41:08.000Z</time>
      </trkpt>
      <trkpt lat="45.55985" lon="6.58439">
        <ele>1696.4000244141</ele>
        <time>2014-01-31T09:41:09.000Z</time>
      </trkpt>
      <trkpt lat="45.55985" lon="6.58439">
        <ele>1696.1999511719</ele>
        <time>2014-01-31T09:41:10.000Z</time>
      </trkpt>
      <trkpt lat="45.55986" lon="6.58438">
        <ele>1696.1999511719</ele>
        <time>2014-01-31T09:41:11.000Z</time>
      </trkpt>
      <trkpt lat="45.55986" lon="6.58437">
        <ele>1696.1999511719</ele>
        <time>2014-01-31T09:41:12.000Z</time>
      </trkpt>
      <trkpt lat="45.55987" lon="6.58437">
        <ele>1696.1999511719</ele>
        <time>2014-01-31T09:41:13.000Z</time>
      </trkpt>
      <trkpt lat="45.55987" lon="6.58436">
        <ele>1696.4000244141</ele>
        <time>2014-01-31T09:41:14.000Z</time>
      </trkpt>
      <trkpt lat="45.55988" lon="6.58435">
        <ele>1696.5999755859</ele>
        <time>2014-01-31T09:41:15.000Z</time>
      </trkpt>
      <trkpt lat="45.55988" lon="6.58434">
        <ele>1696.8000488281</ele>
        <time>2014-01-31T09:41:16.000Z</time>
      </trkpt>
      <trkpt lat="45.55988" lon="6.58432">
        <ele>1696.8000488281</ele>
        <time>2014-01-31T09:41:17.000Z</time>
      </trkpt>
      <trkpt lat="45.55989" lon="6.58431">
        <ele>1697</ele>
        <time>2014-01-31T09:41:18.000Z</time>
      </trkpt>
      <trkpt lat="45.55988" lon="6.5843">
        <ele>1697</ele>
        <time>2014-01-31T09:41:19.000Z</time>
      </trkpt>
      <trkpt lat="45.55988" lon="6.58428">
        <ele>1697.1999511719</ele>
        <time>2014-01-31T09:41:20.000Z</time>
      </trkpt>
      <trkpt lat="45.55988" lon="6.58427">
        <ele>1697.1999511719</ele>
        <time>2014-01-31T09:41:21.000Z</time>
      </trkpt>
      <trkpt lat="45.55987" lon="6.58426">
        <ele>1697.4000244141</ele>
        <time>2014-01-31T09:41:22.000Z</time>
      </trkpt>
      <trkpt lat="45.55986" lon="6.58426">
        <ele>1697.5999755859</ele>
        <time>2014-01-31T09:41:23.000Z</time>
      </trkpt>
      <trkpt lat="45.55986" lon="6.58426">
        <ele>1697.8000488281</ele>
        <time>2014-01-31T09:41:24.000Z</time>
      </trkpt>
      <trkpt lat="45.55986" lon="6.58426">
        <ele>1697.8000488281</ele>
        <time>2014-01-31T09:41:25.000Z</time>
      </trkpt>
      <trkpt lat="45.55986" lon="6.58426">
        <ele>1698.1999511719</ele>
        <time>2014-01-31T09:41:26.000Z</time>
      </trkpt>
      <trkpt lat="45.55986" lon="6.58426">
        <ele>1698.5999755859</ele>
        <time>2014-01-31T09:41:27.000Z</time>
      </trkpt>
      <trkpt lat="45.55986" lon="6.58426">
        <ele>1698.8000488281</ele>
        <time>2014-01-31T09:41:28.000Z</time>
      </trkpt>
      <trkpt lat="45.55984" lon="6.58426">
        <ele>1698.8000488281</ele>
        <time>2014-01-31T09:41:29.000Z</time>
      </trkpt>
      <trkpt lat="45.55984" lon="6.58426">
        <ele>1699</ele>
        <time>2014-01-31T09:41:30.000Z</time>
      </trkpt>
      <trkpt lat="45.55983" lon="6.58427">
        <ele>1699</ele>
        <time>2014-01-31T09:41:31.000Z</time>
      </trkpt>
      <trkpt lat="45.55982" lon="6.58427">
        <ele>1699.1999511719</ele>
        <time>2014-01-31T09:41:32.000Z</time>
      </trkpt>
      <trkpt lat="45.55982" lon="6.58427">
        <ele>1699.1999511719</ele>
        <time>2014-01-31T09:41:33.000Z</time>
      </trkpt>
      <trkpt lat="45.55982" lon="6.58427">
        <ele>1699.4000244141</ele>
        <time>2014-01-31T09:41:34.000Z</time>
      </trkpt>
      <trkpt lat="45.55982" lon="6.58427">
        <ele>1699.5999755859</ele>
        <time>2014-01-31T09:41:35.000Z</time>
      </trkpt>
      <trkpt lat="45.55982" lon="6.58427">
        <ele>1699.8000488281</ele>
        <time>2014-01-31T09:41:36.000Z</time>
      </trkpt>
      <trkpt lat="45.55982" lon="6.58427">
        <ele>1700</ele>
        <time>2014-01-31T09:41:37.000Z</time>
      </trkpt>
      <trkpt lat="45.55982" lon="6.58427">
        <ele>1700.1999511719</ele>
        <time>2014-01-31T09:41:38.000Z</time>
      </trkpt>
      <trkpt lat="45.55982" lon="6.58427">
        <ele>1700.4000244141</ele>
        <time>2014-01-31T09:41:39.000Z</time>
      </trkpt>
      <trkpt lat="45.55982" lon="6.58427">
        <ele>1700.4000244141</ele>
        <time>2014-01-31T09:41:40.000Z</time>
      </trkpt>
      <trkpt lat="45.55982" lon="6.58427">
        <ele>1700.4000244141</ele>
        <time>2014-01-31T09:41:41.000Z</time>
      </trkpt>
      <trkpt lat="45.55982" lon="6.58427">
        <ele>1700.4000244141</ele>
        <time>2014-01-31T09:41:42.000Z</time>
      </trkpt>
      <trkpt lat="45.55982" lon="6.58426">
        <ele>1700.5999755859</ele>
        <time>2014-01-31T09:41:43.000Z</time>
      </trkpt>
      <trkpt lat="45.55982" lon="6.58425">
        <ele>1700.5999755859</ele>
        <time>2014-01-31T09:41:44.000Z</time>
      </trkpt>
      <trkpt lat="45.55982" lon="6.58425">
        <ele>1700.5999755859</ele>
        <time>2014-01-31T09:41:45.000Z</time>
      </trkpt>
      <trkpt lat="45.55982" lon="6.58425">
        <ele>1700.5999755859</ele>
        <time>2014-01-31T09:41:46.000Z</time>
      </trkpt>
      <trkpt lat="45.55982" lon="6.58425">
        <ele>1700.5999755859</ele>
        <time>2014-01-31T09:41:47.000Z</time>
      </trkpt>
      <trkpt lat="45.55982" lon="6.58425">
        <ele>1700.8000488281</ele>
        <time>2014-01-31T09:41:48.000Z</time>
      </trkpt>
      <trkpt lat="45.55982" lon="6.58425">
        <ele>1700.8000488281</ele>
        <time>2014-01-31T09:41:49.000Z</time>
      </trkpt>
      <trkpt lat="45.55982" lon="6.58425">
        <ele>1701</ele>
        <time>2014-01-31T09:41:50.000Z</time>
      </trkpt>
      <trkpt lat="45.55981" lon="6.58425">
        <ele>1701.4000244141</ele>
        <time>2014-01-31T09:41:51.000Z</time>
      </trkpt>
      <trkpt lat="45.5598" lon="6.58425">
        <ele>1701.5999755859</ele>
        <time>2014-01-31T09:41:52.000Z</time>
      </trkpt>
      <trkpt lat="45.55979" lon="6.58425">
        <ele>1701.8000488281</ele>
        <time>2014-01-31T09:41:53.000Z</time>
      </trkpt>
      <trkpt lat="45.55979" lon="6.58425">
        <ele>1702</ele>
        <time>2014-01-31T09:41:54.000Z</time>
      </trkpt>
      <trkpt lat="45.55978" lon="6.58426">
        <ele>1702.1999511719</ele>
        <time>2014-01-31T09:41:55.000Z</time>
      </trkpt>
      <trkpt lat="45.55976" lon="6.58426">
        <ele>1702.4000244141</ele>
        <time>2014-01-31T09:41:56.000Z</time>
      </trkpt>
      <trkpt lat="45.55976" lon="6.58426">
        <ele>1702.5999755859</ele>
        <time>2014-01-31T09:41:57.000Z</time>
      </trkpt>
      <trkpt lat="45.55975" lon="6.58426">
        <ele>1702.5999755859</ele>
        <time>2014-01-31T09:41:58.000Z</time>
      </trkpt>
      <trkpt lat="45.55974" lon="6.58426">
        <ele>1702.8000488281</ele>
        <time>2014-01-31T09:41:59.000Z</time>
      </trkpt>
      <trkpt lat="45.55974" lon="6.58426">
        <ele>1703</ele>
        <time>2014-01-31T09:42:00.000Z</time>
      </trkpt>
      <trkpt lat="45.55974" lon="6.58426">
        <ele>1703.1999511719</ele>
        <time>2014-01-31T09:42:01.000Z</time>
      </trkpt>
      <trkpt lat="45.55974" lon="6.58426">
        <ele>1703.4000244141</ele>
        <time>2014-01-31T09:42:02.000Z</time>
      </trkpt>
      <trkpt lat="45.55974" lon="6.58425">
        <ele>1703.5999755859</ele>
        <time>2014-01-31T09:42:03.000Z</time>
      </trkpt>
      <trkpt lat="45.55974" lon="6.58423">
        <ele>1703.8000488281</ele>
        <time>2014-01-31T09:42:04.000Z</time>
      </trkpt>
      <trkpt lat="45.55974" lon="6.58422">
        <ele>1704</ele>
        <time>2014-01-31T09:42:05.000Z</time>
      </trkpt>
      <trkpt lat="45.55974" lon="6.5842">
        <ele>1704.4000244141</ele>
        <time>2014-01-31T09:42:06.000Z</time>
      </trkpt>
      <trkpt lat="45.55975" lon="6.58419">
        <ele>1704.5999755859</ele>
        <time>2014-01-31T09:42:07.000Z</time>
      </trkpt>
      <trkpt lat="45.55975" lon="6.58418">
        <ele>1704.8000488281</ele>
        <time>2014-01-31T09:42:08.000Z</time>
      </trkpt>
      <trkpt lat="45.55975" lon="6.58417">
        <ele>1705</ele>
        <time>2014-01-31T09:42:09.000Z</time>
      </trkpt>
      <trkpt lat="45.55975" lon="6.58417">
        <ele>1705.1999511719</ele>
        <time>2014-01-31T09:42:10.000Z</time>
      </trkpt>
      <trkpt lat="45.55975" lon="6.58416">
        <ele>1705.1999511719</ele>
        <time>2014-01-31T09:42:11.000Z</time>
      </trkpt>
      <trkpt lat="45.55975" lon="6.58415">
        <ele>1705.4000244141</ele>
        <time>2014-01-31T09:42:12.000Z</time>
      </trkpt>
      <trkpt lat="45.55975" lon="6.58415">
        <ele>1705.4000244141</ele>
        <time>2014-01-31T09:42:13.000Z</time>
      </trkpt>
      <trkpt lat="45.55975" lon="6.58415">
        <ele>1705.5999755859</ele>
        <time>2014-01-31T09:42:14.000Z</time>
      </trkpt>
      <trkpt lat="45.55975" lon="6.58415">
        <ele>1705.8000488281</ele>
        <time>2014-01-31T09:42:15.000Z</time>
      </trkpt>
      <trkpt lat="45.55975" lon="6.58415">
        <ele>1706</ele>
        <time>2014-01-31T09:42:16.000Z</time>
      </trkpt>
      <trkpt lat="45.55974" lon="6.58416">
        <ele>1706.1999511719</ele>
        <time>2014-01-31T09:42:17.000Z</time>
      </trkpt>
      <trkpt lat="45.55973" lon="6.58416">
        <ele>1706.5999755859</ele>
        <time>2014-01-31T09:42:18.000Z</time>
      </trkpt>
      <trkpt lat="45.55971" lon="6.58416">
        <ele>1706.8000488281</ele>
        <time>2014-01-31T09:42:19.000Z</time>
      </trkpt>
      <trkpt lat="45.5597" lon="6.58416">
        <ele>1706.8000488281</ele>
        <time>2014-01-31T09:42:20.000Z</time>
      </trkpt>
      <trkpt lat="45.55968" lon="6.58415">
        <ele>1707</ele>
        <time>2014-01-31T09:42:22.000Z</time>
      </trkpt>
      <trkpt lat="45.55967" lon="6.58415">
        <ele>1707</ele>
        <time>2014-01-31T09:42:23.000Z</time>
      </trkpt>
      <trkpt lat="45.55966" lon="6.58415">
        <ele>1707.4000244141</ele>
        <time>2014-01-31T09:42:24.000Z</time>
      </trkpt>
      <trkpt lat="45.55965" lon="6.58416">
        <ele>1707.5999755859</ele>
        <time>2014-01-31T09:42:25.000Z</time>
      </trkpt>
      <trkpt lat="45.55964" lon="6.58417">
        <ele>1708</ele>
        <time>2014-01-31T09:42:26.000Z</time>
      </trkpt>
      <trkpt lat="45.55964" lon="6.58417">
        <ele>1708.1999511719</ele>
        <time>2014-01-31T09:42:27.000Z</time>
      </trkpt>
      <trkpt lat="45.55963" lon="6.58417">
        <ele>1708.4000244141</ele>
        <time>2014-01-31T09:42:28.000Z</time>
      </trkpt>
      <trkpt lat="45.55962" lon="6.58418">
        <ele>1708.5999755859</ele>
        <time>2014-01-31T09:42:29.000Z</time>
      </trkpt>
      <trkpt lat="45.55961" lon="6.58418">
        <ele>1708.8000488281</ele>
        <time>2014-01-31T09:42:30.000Z</time>
      </trkpt>
      <trkpt lat="45.55959" lon="6.58419">
        <ele>1708.8000488281</ele>
        <time>2014-01-31T09:42:31.000Z</time>
      </trkpt>
      <trkpt lat="45.55959" lon="6.58419">
        <ele>1709</ele>
        <time>2014-01-31T09:42:32.000Z</time>
      </trkpt>
      <trkpt lat="45.55958" lon="6.58419">
        <ele>1709.1999511719</ele>
        <time>2014-01-31T09:42:33.000Z</time>
      </trkpt>
      <trkpt lat="45.55957" lon="6.5842">
        <ele>1709.5999755859</ele>
        <time>2014-01-31T09:42:34.000Z</time>
      </trkpt>
      <trkpt lat="45.55957" lon="6.58421">
        <ele>1709.8000488281</ele>
        <time>2014-01-31T09:42:35.000Z</time>
      </trkpt>
      <trkpt lat="45.55957" lon="6.58421">
        <ele>1710</ele>
        <time>2014-01-31T09:42:36.000Z</time>
      </trkpt>
      <trkpt lat="45.55956" lon="6.58422">
        <ele>1710.1999511719</ele>
        <time>2014-01-31T09:42:37.000Z</time>
      </trkpt>
      <trkpt lat="45.55956" lon="6.58422">
        <ele>1710.1999511719</ele>
        <time>2014-01-31T09:42:38.000Z</time>
      </trkpt>
      <trkpt lat="45.55955" lon="6.58423">
        <ele>1710.8000488281</ele>
        <time>2014-01-31T09:42:39.000Z</time>
      </trkpt>
      <trkpt lat="45.55954" lon="6.58423">
        <ele>1711</ele>
        <time>2014-01-31T09:42:40.000Z</time>
      </trkpt>
      <trkpt lat="45.55954" lon="6.58423">
        <ele>1711.1999511719</ele>
        <time>2014-01-31T09:42:41.000Z</time>
      </trkpt>
      <trkpt lat="45.55954" lon="6.58423">
        <ele>1711.4000244141</ele>
        <time>2014-01-31T09:42:42.000Z</time>
      </trkpt>
      <trkpt lat="45.55954" lon="6.58423">
        <ele>1711.5999755859</ele>
        <time>2014-01-31T09:42:43.000Z</time>
      </trkpt>
      <trkpt lat="45.55954" lon="6.58423">
        <ele>1711.8000488281</ele>
        <time>2014-01-31T09:42:44.000Z</time>
      </trkpt>
      <trkpt lat="45.55954" lon="6.58423">
        <ele>1712.1999511719</ele>
        <time>2014-01-31T09:42:45.000Z</time>
      </trkpt>
      <trkpt lat="45.55954" lon="6.58423">
        <ele>1712.4000244141</ele>
        <time>2014-01-31T09:42:46.000Z</time>
      </trkpt>
      <trkpt lat="45.55954" lon="6.58423">
        <ele>1712.5999755859</ele>
        <time>2014-01-31T09:42:47.000Z</time>
      </trkpt>
      <trkpt lat="45.55954" lon="6.58422">
        <ele>1712.5999755859</ele>
        <time>2014-01-31T09:42:48.000Z</time>
      </trkpt>
      <trkpt lat="45.55955" lon="6.58421">
        <ele>1712.8000488281</ele>
        <time>2014-01-31T09:42:49.000Z</time>
      </trkpt>
      <trkpt lat="45.55955" lon="6.58421">
        <ele>1713</ele>
        <time>2014-01-31T09:42:50.000Z</time>
      </trkpt>
      <trkpt lat="45.55955" lon="6.58421">
        <ele>1713</ele>
        <time>2014-01-31T09:42:51.000Z</time>
      </trkpt>
      <trkpt lat="45.55956" lon="6.5842">
        <ele>1713</ele>
        <time>2014-01-31T09:42:52.000Z</time>
      </trkpt>
      <trkpt lat="45.55956" lon="6.5842">
        <ele>1713.1999511719</ele>
        <time>2014-01-31T09:42:53.000Z</time>
      </trkpt>
      <trkpt lat="45.55956" lon="6.5842">
        <ele>1713.1999511719</ele>
        <time>2014-01-31T09:42:54.000Z</time>
      </trkpt>
      <trkpt lat="45.55956" lon="6.5842">
        <ele>1713.4000244141</ele>
        <time>2014-01-31T09:42:55.000Z</time>
      </trkpt>
      <trkpt lat="45.55956" lon="6.5842">
        <ele>1713.5999755859</ele>
        <time>2014-01-31T09:42:56.000Z</time>
      </trkpt>
      <trkpt lat="45.55956" lon="6.5842">
        <ele>1713.8000488281</ele>
        <time>2014-01-31T09:42:57.000Z</time>
      </trkpt>
      <trkpt lat="45.55956" lon="6.5842">
        <ele>1714.1999511719</ele>
        <time>2014-01-31T09:42:58.000Z</time>
      </trkpt>
      <trkpt lat="45.55956" lon="6.5842">
        <ele>1714.1999511719</ele>
        <time>2014-01-31T09:42:59.000Z</time>
      </trkpt>
      <trkpt lat="45.55956" lon="6.5842">
        <ele>1714.4000244141</ele>
        <time>2014-01-31T09:43:00.000Z</time>
      </trkpt>
      <trkpt lat="45.55956" lon="6.58419">
        <ele>1714.5999755859</ele>
        <time>2014-01-31T09:43:01.000Z</time>
      </trkpt>
      <trkpt lat="45.55957" lon="6.58416">
        <ele>1714.8000488281</ele>
        <time>2014-01-31T09:43:02.000Z</time>
      </trkpt>
      <trkpt lat="45.55957" lon="6.58414">
        <ele>1715.1999511719</ele>
        <time>2014-01-31T09:43:03.000Z</time>
      </trkpt>
      <trkpt lat="45.55957" lon="6.58413">
        <ele>1715.4000244141</ele>
        <time>2014-01-31T09:43:04.000Z</time>
      </trkpt>
      <trkpt lat="45.55957" lon="6.58411">
        <ele>1715.5999755859</ele>
        <time>2014-01-31T09:43:05.000Z</time>
      </trkpt>
      <trkpt lat="45.55957" lon="6.58409">
        <ele>1715.8000488281</ele>
        <time>2014-01-31T09:43:06.000Z</time>
      </trkpt>
      <trkpt lat="45.55957" lon="6.58407">
        <ele>1716.1999511719</ele>
        <time>2014-01-31T09:43:07.000Z</time>
      </trkpt>
      <trkpt lat="45.55956" lon="6.58406">
        <ele>1716.5999755859</ele>
        <time>2014-01-31T09:43:08.000Z</time>
      </trkpt>
      <trkpt lat="45.55956" lon="6.58406">
        <ele>1716.5999755859</ele>
        <time>2014-01-31T09:43:09.000Z</time>
      </trkpt>
      <trkpt lat="45.55955" lon="6.58406">
        <ele>1717</ele>
        <time>2014-01-31T09:43:10.000Z</time>
      </trkpt>
      <trkpt lat="45.55955" lon="6.58406">
        <ele>1717</ele>
        <time>2014-01-31T09:43:11.000Z</time>
      </trkpt>
      <trkpt lat="45.55955" lon="6.58407">
        <ele>1717.1999511719</ele>
        <time>2014-01-31T09:43:12.000Z</time>
      </trkpt>
      <trkpt lat="45.55955" lon="6.58407">
        <ele>1717.1999511719</ele>
        <time>2014-01-31T09:43:13.000Z</time>
      </trkpt>
      <trkpt lat="45.55955" lon="6.58408">
        <ele>1717.5999755859</ele>
        <time>2014-01-31T09:43:14.000Z</time>
      </trkpt>
      <trkpt lat="45.55955" lon="6.58409">
        <ele>1717.5999755859</ele>
        <time>2014-01-31T09:43:15.000Z</time>
      </trkpt>
      <trkpt lat="45.55954" lon="6.5841">
        <ele>1717.8000488281</ele>
        <time>2014-01-31T09:43:16.000Z</time>
      </trkpt>
      <trkpt lat="45.55954" lon="6.5841">
        <ele>1718</ele>
        <time>2014-01-31T09:43:17.000Z</time>
      </trkpt>
      <trkpt lat="45.55953" lon="6.58412">
        <ele>1718.1999511719</ele>
        <time>2014-01-31T09:43:18.000Z</time>
      </trkpt>
      <trkpt lat="45.55953" lon="6.58412">
        <ele>1718.4000244141</ele>
        <time>2014-01-31T09:43:19.000Z</time>
      </trkpt>
      <trkpt lat="45.55953" lon="6.58412">
        <ele>1718.5999755859</ele>
        <time>2014-01-31T09:43:20.000Z</time>
      </trkpt>
      <trkpt lat="45.55952" lon="6.58413">
        <ele>1718.8000488281</ele>
        <time>2014-01-31T09:43:22.000Z</time>
      </trkpt>
      <trkpt lat="45.55952" lon="6.58414">
        <ele>1718.8000488281</ele>
        <time>2014-01-31T09:43:23.000Z</time>
      </trkpt>
      <trkpt lat="45.55951" lon="6.58414">
        <ele>1718.8000488281</ele>
        <time>2014-01-31T09:43:24.000Z</time>
      </trkpt>
      <trkpt lat="45.5595" lon="6.58415">
        <ele>1719</ele>
        <time>2014-01-31T09:43:25.000Z</time>
      </trkpt>
      <trkpt lat="45.5595" lon="6.58415">
        <ele>1719</ele>
        <time>2014-01-31T09:43:26.000Z</time>
      </trkpt>
      <trkpt lat="45.55948" lon="6.58416">
        <ele>1719</ele>
        <time>2014-01-31T09:43:27.000Z</time>
      </trkpt>
      <trkpt lat="45.55948" lon="6.58416">
        <ele>1719.1999511719</ele>
        <time>2014-01-31T09:43:28.000Z</time>
      </trkpt>
      <trkpt lat="45.55948" lon="6.58416">
        <ele>1719.4000244141</ele>
        <time>2014-01-31T09:43:29.000Z</time>
      </trkpt>
      <trkpt lat="45.55948" lon="6.58416">
        <ele>1719.8000488281</ele>
        <time>2014-01-31T09:43:30.000Z</time>
      </trkpt>
      <trkpt lat="45.55948" lon="6.58416">
        <ele>1720</ele>
        <time>2014-01-31T09:43:31.000Z</time>
      </trkpt>
      <trkpt lat="45.55948" lon="6.58416">
        <ele>1720.1999511719</ele>
        <time>2014-01-31T09:43:32.000Z</time>
      </trkpt>
      <trkpt lat="45.55948" lon="6.58416">
        <ele>1720.1999511719</ele>
        <time>2014-01-31T09:43:34.000Z</time>
      </trkpt>
      <trkpt lat="45.55945" lon="6.58418">
        <ele>1720.1999511719</ele>
        <time>2014-01-31T09:43:38.000Z</time>
      </trkpt>
      <trkpt lat="45.55944" lon="6.58418">
        <ele>1720.1999511719</ele>
        <time>2014-01-31T09:43:39.000Z</time>
      </trkpt>
      <trkpt lat="45.55943" lon="6.58417">
        <ele>1720.4000244141</ele>
        <time>2014-01-31T09:43:40.000Z</time>
      </trkpt>
      <trkpt lat="45.55943" lon="6.58417">
        <ele>1720.5999755859</ele>
        <time>2014-01-31T09:43:41.000Z</time>
      </trkpt>
      <trkpt lat="45.55943" lon="6.58417">
        <ele>1720.8000488281</ele>
        <time>2014-01-31T09:43:42.000Z</time>
      </trkpt>
      <trkpt lat="45.55943" lon="6.58417">
        <ele>1721</ele>
        <time>2014-01-31T09:43:43.000Z</time>
      </trkpt>
      <trkpt lat="45.55943" lon="6.58417">
        <ele>1721</ele>
        <time>2014-01-31T09:43:44.000Z</time>
      </trkpt>
      <trkpt lat="45.55943" lon="6.58417">
        <ele>1721</ele>
        <time>2014-01-31T09:43:45.000Z</time>
      </trkpt>
      <trkpt lat="45.55943" lon="6.58417">
        <ele>1721</ele>
        <time>2014-01-31T09:43:46.000Z</time>
      </trkpt>
      <trkpt lat="45.55943" lon="6.58417">
        <ele>1720.8000488281</ele>
        <time>2014-01-31T09:43:47.000Z</time>
      </trkpt>
      <trkpt lat="45.55943" lon="6.58417">
        <ele>1720.8000488281</ele>
        <time>2014-01-31T09:43:48.000Z</time>
      </trkpt>
      <trkpt lat="45.55943" lon="6.58417">
        <ele>1720.8000488281</ele>
        <time>2014-01-31T09:43:49.000Z</time>
      </trkpt>
      <trkpt lat="45.55943" lon="6.58417">
        <ele>1720.5999755859</ele>
        <time>2014-01-31T09:43:50.000Z</time>
      </trkpt>
      <trkpt lat="45.55942" lon="6.58416">
        <ele>1720.4000244141</ele>
        <time>2014-01-31T09:43:51.000Z</time>
      </trkpt>
      <trkpt lat="45.55942" lon="6.58416">
        <ele>1720.4000244141</ele>
        <time>2014-01-31T09:43:52.000Z</time>
      </trkpt>
      <trkpt lat="45.55943" lon="6.58415">
        <ele>1720.5999755859</ele>
        <time>2014-01-31T09:43:53.000Z</time>
      </trkpt>
      <trkpt lat="45.55943" lon="6.58415">
        <ele>1720.8000488281</ele>
        <time>2014-01-31T09:43:54.000Z</time>
      </trkpt>
      <trkpt lat="45.55943" lon="6.58414">
        <ele>1721</ele>
        <time>2014-01-31T09:43:55.000Z</time>
      </trkpt>
      <trkpt lat="45.55944" lon="6.58413">
        <ele>1721</ele>
        <time>2014-01-31T09:43:56.000Z</time>
      </trkpt>
      <trkpt lat="45.55945" lon="6.58412">
        <ele>1721.1999511719</ele>
        <time>2014-01-31T09:43:57.000Z</time>
      </trkpt>
      <trkpt lat="45.55946" lon="6.58411">
        <ele>1721.5999755859</ele>
        <time>2014-01-31T09:43:58.000Z</time>
      </trkpt>
      <trkpt lat="45.55946" lon="6.58411">
        <ele>1721.8000488281</ele>
        <time>2014-01-31T09:43:59.000Z</time>
      </trkpt>
      <trkpt lat="45.55946" lon="6.5841">
        <ele>1722</ele>
        <time>2014-01-31T09:44:00.000Z</time>
      </trkpt>
      <trkpt lat="45.55947" lon="6.58409">
        <ele>1722.1999511719</ele>
        <time>2014-01-31T09:44:01.000Z</time>
      </trkpt>
      <trkpt lat="45.55947" lon="6.58408">
        <ele>1722.4000244141</ele>
        <time>2014-01-31T09:44:02.000Z</time>
      </trkpt>
      <trkpt lat="45.55947" lon="6.58407">
        <ele>1722.5999755859</ele>
        <time>2014-01-31T09:44:03.000Z</time>
      </trkpt>
      <trkpt lat="45.55946" lon="6.58406">
        <ele>1722.8000488281</ele>
        <time>2014-01-31T09:44:04.000Z</time>
      </trkpt>
      <trkpt lat="45.55946" lon="6.58406">
        <ele>1723.1999511719</ele>
        <time>2014-01-31T09:44:05.000Z</time>
      </trkpt>
      <trkpt lat="45.55946" lon="6.58406">
        <ele>1723.5999755859</ele>
        <time>2014-01-31T09:44:06.000Z</time>
      </trkpt>
      <trkpt lat="45.55946" lon="6.58406">
        <ele>1723.8000488281</ele>
        <time>2014-01-31T09:44:07.000Z</time>
      </trkpt>
      <trkpt lat="45.55946" lon="6.58406">
        <ele>1723.8000488281</ele>
        <time>2014-01-31T09:44:08.000Z</time>
      </trkpt>
      <trkpt lat="45.55945" lon="6.58405">
        <ele>1724</ele>
        <time>2014-01-31T09:44:09.000Z</time>
      </trkpt>
      <trkpt lat="45.55945" lon="6.58405">
        <ele>1724</ele>
        <time>2014-01-31T09:44:10.000Z</time>
      </trkpt>
      <trkpt lat="45.55945" lon="6.58405">
        <ele>1724</ele>
        <time>2014-01-31T09:44:11.000Z</time>
      </trkpt>
      <trkpt lat="45.55945" lon="6.58405">
        <ele>1724.1999511719</ele>
        <time>2014-01-31T09:44:12.000Z</time>
      </trkpt>
      <trkpt lat="45.55944" lon="6.58404">
        <ele>1724.4000244141</ele>
        <time>2014-01-31T09:44:13.000Z</time>
      </trkpt>
      <trkpt lat="45.55944" lon="6.58404">
        <ele>1724.5999755859</ele>
        <time>2014-01-31T09:44:14.000Z</time>
      </trkpt>
      <trkpt lat="45.55944" lon="6.58404">
        <ele>1725</ele>
        <time>2014-01-31T09:44:15.000Z</time>
      </trkpt>
      <trkpt lat="45.55943" lon="6.58403">
        <ele>1725</ele>
        <time>2014-01-31T09:44:16.000Z</time>
      </trkpt>
      <trkpt lat="45.55943" lon="6.58402">
        <ele>1725.1999511719</ele>
        <time>2014-01-31T09:44:17.000Z</time>
      </trkpt>
      <trkpt lat="45.55943" lon="6.58402">
        <ele>1725.4000244141</ele>
        <time>2014-01-31T09:44:18.000Z</time>
      </trkpt>
      <trkpt lat="45.55943" lon="6.58401">
        <ele>1725.8000488281</ele>
        <time>2014-01-31T09:44:19.000Z</time>
      </trkpt>
      <trkpt lat="45.55942" lon="6.584">
        <ele>1726.1999511719</ele>
        <time>2014-01-31T09:44:20.000Z</time>
      </trkpt>
      <trkpt lat="45.55941" lon="6.58399">
        <ele>1726.5999755859</ele>
        <time>2014-01-31T09:44:21.000Z</time>
      </trkpt>
      <trkpt lat="45.55941" lon="6.58398">
        <ele>1726.8000488281</ele>
        <time>2014-01-31T09:44:22.000Z</time>
      </trkpt>
      <trkpt lat="45.5594" lon="6.58398">
        <ele>1727</ele>
        <time>2014-01-31T09:44:23.000Z</time>
      </trkpt>
      <trkpt lat="45.5594" lon="6.58397">
        <ele>1727.1999511719</ele>
        <time>2014-01-31T09:44:24.000Z</time>
      </trkpt>
      <trkpt lat="45.55939" lon="6.58397">
        <ele>1727.1999511719</ele>
        <time>2014-01-31T09:44:25.000Z</time>
      </trkpt>
      <trkpt lat="45.55939" lon="6.58397">
        <ele>1727.4000244141</ele>
        <time>2014-01-31T09:44:26.000Z</time>
      </trkpt>
      <trkpt lat="45.55939" lon="6.58396">
        <ele>1727.4000244141</ele>
        <time>2014-01-31T09:44:27.000Z</time>
      </trkpt>
      <trkpt lat="45.55939" lon="6.58396">
        <ele>1727.5999755859</ele>
        <time>2014-01-31T09:44:28.000Z</time>
      </trkpt>
      <trkpt lat="45.55939" lon="6.58396">
        <ele>1727.8000488281</ele>
        <time>2014-01-31T09:44:29.000Z</time>
      </trkpt>
      <trkpt lat="45.55939" lon="6.58396">
        <ele>1728</ele>
        <time>2014-01-31T09:44:30.000Z</time>
      </trkpt>
      <trkpt lat="45.55938" lon="6.58396">
        <ele>1728.1999511719</ele>
        <time>2014-01-31T09:44:31.000Z</time>
      </trkpt>
      <trkpt lat="45.55938" lon="6.58396">
        <ele>1728.4000244141</ele>
        <time>2014-01-31T09:44:32.000Z</time>
      </trkpt>
      <trkpt lat="45.55938" lon="6.58396">
        <ele>1728.5999755859</ele>
        <time>2014-01-31T09:44:33.000Z</time>
      </trkpt>
      <trkpt lat="45.55938" lon="6.58396">
        <ele>1728.8000488281</ele>
        <time>2014-01-31T09:44:34.000Z</time>
      </trkpt>
      <trkpt lat="45.55937" lon="6.58397">
        <ele>1729.1999511719</ele>
        <time>2014-01-31T09:44:35.000Z</time>
      </trkpt>
      <trkpt lat="45.55937" lon="6.58397">
        <ele>1729.4000244141</ele>
        <time>2014-01-31T09:44:36.000Z</time>
      </trkpt>
      <trkpt lat="45.55937" lon="6.58397">
        <ele>1729.5999755859</ele>
        <time>2014-01-31T09:44:37.000Z</time>
      </trkpt>
      <trkpt lat="45.55937" lon="6.58397">
        <ele>1729.5999755859</ele>
        <time>2014-01-31T09:44:38.000Z</time>
      </trkpt>
      <trkpt lat="45.55937" lon="6.58397">
        <ele>1729.8000488281</ele>
        <time>2014-01-31T09:44:39.000Z</time>
      </trkpt>
      <trkpt lat="45.55937" lon="6.58397">
        <ele>1730</ele>
        <time>2014-01-31T09:44:40.000Z</time>
      </trkpt>
      <trkpt lat="45.55937" lon="6.58397">
        <ele>1730</ele>
        <time>2014-01-31T09:44:41.000Z</time>
      </trkpt>
      <trkpt lat="45.55937" lon="6.58397">
        <ele>1730</ele>
        <time>2014-01-31T09:44:42.000Z</time>
      </trkpt>
      <trkpt lat="45.55937" lon="6.58397">
        <ele>1730</ele>
        <time>2014-01-31T09:44:43.000Z</time>
      </trkpt>
      <trkpt lat="45.55937" lon="6.58397">
        <ele>1730</ele>
        <time>2014-01-31T09:44:44.000Z</time>
      </trkpt>
      <trkpt lat="45.55937" lon="6.58397">
        <ele>1730</ele>
        <time>2014-01-31T09:44:45.000Z</time>
      </trkpt>
      <trkpt lat="45.55937" lon="6.58397">
        <ele>1730</ele>
        <time>2014-01-31T09:44:46.000Z</time>
      </trkpt>
      <trkpt lat="45.55937" lon="6.58397">
        <ele>1729.8000488281</ele>
        <time>2014-01-31T09:44:47.000Z</time>
      </trkpt>
      <trkpt lat="45.55937" lon="6.58397">
        <ele>1729.8000488281</ele>
        <time>2014-01-31T09:44:48.000Z</time>
      </trkpt>
      <trkpt lat="45.55937" lon="6.58397">
        <ele>1730</ele>
        <time>2014-01-31T09:44:50.000Z</time>
      </trkpt>
      <trkpt lat="45.55937" lon="6.58397">
        <ele>1730</ele>
        <time>2014-01-31T09:44:51.000Z</time>
      </trkpt>
      <trkpt lat="45.55937" lon="6.58397">
        <ele>1730</ele>
        <time>2014-01-31T09:44:52.000Z</time>
      </trkpt>
      <trkpt lat="45.55937" lon="6.58397">
        <ele>1730</ele>
        <time>2014-01-31T09:44:53.000Z</time>
      </trkpt>
      <trkpt lat="45.55937" lon="6.58397">
        <ele>1730</ele>
        <time>2014-01-31T09:44:54.000Z</time>
      </trkpt>
      <trkpt lat="45.55937" lon="6.58397">
        <ele>1730</ele>
        <time>2014-01-31T09:44:55.000Z</time>
      </trkpt>
      <trkpt lat="45.55937" lon="6.58397">
        <ele>1730</ele>
        <time>2014-01-31T09:44:56.000Z</time>
      </trkpt>
      <trkpt lat="45.55937" lon="6.58397">
        <ele>1730</ele>
        <time>2014-01-31T09:44:57.000Z</time>
      </trkpt>
      <trkpt lat="45.55937" lon="6.58397">
        <ele>1730</ele>
        <time>2014-01-31T09:44:59.000Z</time>
      </trkpt>
      <trkpt lat="45.55937" lon="6.58397">
        <ele>1730</ele>
        <time>2014-01-31T09:45:00.000Z</time>
      </trkpt>
      <trkpt lat="45.55937" lon="6.58397">
        <ele>1730</ele>
        <time>2014-01-31T09:45:01.000Z</time>
      </trkpt>
      <trkpt lat="45.55937" lon="6.58397">
        <ele>1730</ele>
        <time>2014-01-31T09:45:02.000Z</time>
      </trkpt>
      <trkpt lat="45.55937" lon="6.58397">
        <ele>1730</ele>
        <time>2014-01-31T09:45:03.000Z</time>
      </trkpt>
      <trkpt lat="45.55937" lon="6.58397">
        <ele>1730</ele>
        <time>2014-01-31T09:45:04.000Z</time>
      </trkpt>
      <trkpt lat="45.55937" lon="6.58397">
        <ele>1730</ele>
        <time>2014-01-31T09:45:05.000Z</time>
      </trkpt>
      <trkpt lat="45.55937" lon="6.58397">
        <ele>1730</ele>
        <time>2014-01-31T09:45:06.000Z</time>
      </trkpt>
      <trkpt lat="45.55937" lon="6.58397">
        <ele>1730</ele>
        <time>2014-01-31T09:45:07.000Z</time>
      </trkpt>
      <trkpt lat="45.55937" lon="6.58397">
        <ele>1730</ele>
        <time>2014-01-31T09:45:08.000Z</time>
      </trkpt>
      <trkpt lat="45.55937" lon="6.58397">
        <ele>1730</ele>
        <time>2014-01-31T09:45:09.000Z</time>
      </trkpt>
      <trkpt lat="45.55937" lon="6.58397">
        <ele>1729.8000488281</ele>
        <time>2014-01-31T09:45:10.000Z</time>
      </trkpt>
      <trkpt lat="45.55937" lon="6.58397">
        <ele>1729.8000488281</ele>
        <time>2014-01-31T09:45:11.000Z</time>
      </trkpt>
      <trkpt lat="45.55937" lon="6.58397">
        <ele>1729.8000488281</ele>
        <time>2014-01-31T09:45:12.000Z</time>
      </trkpt>
      <trkpt lat="45.55937" lon="6.58397">
        <ele>1729.8000488281</ele>
        <time>2014-01-31T09:45:13.000Z</time>
      </trkpt>
      <trkpt lat="45.55937" lon="6.58397">
        <ele>1729.5999755859</ele>
        <time>2014-01-31T09:45:14.000Z</time>
      </trkpt>
      <trkpt lat="45.55937" lon="6.58396">
        <ele>1729.5999755859</ele>
        <time>2014-01-31T09:45:15.000Z</time>
      </trkpt>
      <trkpt lat="45.55937" lon="6.58396">
        <ele>1729.5999755859</ele>
        <time>2014-01-31T09:45:16.000Z</time>
      </trkpt>
      <trkpt lat="45.55937" lon="6.58396">
        <ele>1729.5999755859</ele>
        <time>2014-01-31T09:45:17.000Z</time>
      </trkpt>
      <trkpt lat="45.55937" lon="6.58396">
        <ele>1729.8000488281</ele>
        <time>2014-01-31T09:45:18.000Z</time>
      </trkpt>
      <trkpt lat="45.55937" lon="6.58396">
        <ele>1729.8000488281</ele>
        <time>2014-01-31T09:45:19.000Z</time>
      </trkpt>
      <trkpt lat="45.55937" lon="6.58396">
        <ele>1729.8000488281</ele>
        <time>2014-01-31T09:45:20.000Z</time>
      </trkpt>
      <trkpt lat="45.55937" lon="6.58396">
        <ele>1730</ele>
        <time>2014-01-31T09:45:21.000Z</time>
      </trkpt>
      <trkpt lat="45.55937" lon="6.58396">
        <ele>1729.8000488281</ele>
        <time>2014-01-31T09:45:22.000Z</time>
      </trkpt>
      <trkpt lat="45.55936" lon="6.58396">
        <ele>1729.8000488281</ele>
        <time>2014-01-31T09:45:23.000Z</time>
      </trkpt>
      <trkpt lat="45.55935" lon="6.58395">
        <ele>1729.8000488281</ele>
        <time>2014-01-31T09:45:24.000Z</time>
      </trkpt>
      <trkpt lat="45.55933" lon="6.58393">
        <ele>1729.5999755859</ele>
        <time>2014-01-31T09:45:25.000Z</time>
      </trkpt>
      <trkpt lat="45.55933" lon="6.58393">
        <ele>1729.5999755859</ele>
        <time>2014-01-31T09:45:26.000Z</time>
      </trkpt>
      <trkpt lat="45.55933" lon="6.58392">
        <ele>1730</ele>
        <time>2014-01-31T09:45:27.000Z</time>
      </trkpt>
      <trkpt lat="45.55932" lon="6.58391">
        <ele>1730.4000244141</ele>
        <time>2014-01-31T09:45:28.000Z</time>
      </trkpt>
      <trkpt lat="45.55931" lon="6.58391">
        <ele>1730.5999755859</ele>
        <time>2014-01-31T09:45:29.000Z</time>
      </trkpt>
      <trkpt lat="45.5593" lon="6.58391">
        <ele>1730.8000488281</ele>
        <time>2014-01-31T09:45:30.000Z</time>
      </trkpt>
      <trkpt lat="45.55929" lon="6.5839">
        <ele>1731</ele>
        <time>2014-01-31T09:45:31.000Z</time>
      </trkpt>
      <trkpt lat="45.55928" lon="6.58389">
        <ele>1731.1999511719</ele>
        <time>2014-01-31T09:45:32.000Z</time>
      </trkpt>
      <trkpt lat="45.55927" lon="6.58389">
        <ele>1731.1999511719</ele>
        <time>2014-01-31T09:45:33.000Z</time>
      </trkpt>
      <trkpt lat="45.55927" lon="6.58388">
        <ele>1731.4000244141</ele>
        <time>2014-01-31T09:45:34.000Z</time>
      </trkpt>
      <trkpt lat="45.55926" lon="6.58387">
        <ele>1731.5999755859</ele>
        <time>2014-01-31T09:45:35.000Z</time>
      </trkpt>
      <trkpt lat="45.55926" lon="6.58386">
        <ele>1732</ele>
        <time>2014-01-31T09:45:36.000Z</time>
      </trkpt>
      <trkpt lat="45.55926" lon="6.58385">
        <ele>1732.1999511719</ele>
        <time>2014-01-31T09:45:37.000Z</time>
      </trkpt>
      <trkpt lat="45.55926" lon="6.58384">
        <ele>1732.4000244141</ele>
        <time>2014-01-31T09:45:38.000Z</time>
      </trkpt>
      <trkpt lat="45.55926" lon="6.58382">
        <ele>1732.5999755859</ele>
        <time>2014-01-31T09:45:39.000Z</time>
      </trkpt>
      <trkpt lat="45.55926" lon="6.58381">
        <ele>1732.8000488281</ele>
        <time>2014-01-31T09:45:40.000Z</time>
      </trkpt>
      <trkpt lat="45.55926" lon="6.58379">
        <ele>1733</ele>
        <time>2014-01-31T09:45:41.000Z</time>
      </trkpt>
      <trkpt lat="45.55927" lon="6.58377">
        <ele>1733.4000244141</ele>
        <time>2014-01-31T09:45:42.000Z</time>
      </trkpt>
      <trkpt lat="45.55927" lon="6.58377">
        <ele>1733.8000488281</ele>
        <time>2014-01-31T09:45:43.000Z</time>
      </trkpt>
      <trkpt lat="45.55927" lon="6.58377">
        <ele>1734</ele>
        <time>2014-01-31T09:45:44.000Z</time>
      </trkpt>
      <trkpt lat="45.55927" lon="6.58376">
        <ele>1734.1999511719</ele>
        <time>2014-01-31T09:45:45.000Z</time>
      </trkpt>
      <trkpt lat="45.55927" lon="6.58376">
        <ele>1734.4000244141</ele>
        <time>2014-01-31T09:45:46.000Z</time>
      </trkpt>
      <trkpt lat="45.55927" lon="6.58376">
        <ele>1734.4000244141</ele>
        <time>2014-01-31T09:45:47.000Z</time>
      </trkpt>
      <trkpt lat="45.55927" lon="6.58376">
        <ele>1734.5999755859</ele>
        <time>2014-01-31T09:45:48.000Z</time>
      </trkpt>
      <trkpt lat="45.55927" lon="6.58376">
        <ele>1734.5999755859</ele>
        <time>2014-01-31T09:45:49.000Z</time>
      </trkpt>
      <trkpt lat="45.55927" lon="6.58376">
        <ele>1734.8000488281</ele>
        <time>2014-01-31T09:45:50.000Z</time>
      </trkpt>
      <trkpt lat="45.55927" lon="6.58376">
        <ele>1734.8000488281</ele>
        <time>2014-01-31T09:45:51.000Z</time>
      </trkpt>
      <trkpt lat="45.55927" lon="6.58376">
        <ele>1734.8000488281</ele>
        <time>2014-01-31T09:45:52.000Z</time>
      </trkpt>
      <trkpt lat="45.55927" lon="6.58376">
        <ele>1734.8000488281</ele>
        <time>2014-01-31T09:45:53.000Z</time>
      </trkpt>
      <trkpt lat="45.55927" lon="6.58376">
        <ele>1734.8000488281</ele>
        <time>2014-01-31T09:45:54.000Z</time>
      </trkpt>
      <trkpt lat="45.55927" lon="6.58376">
        <ele>1734.8000488281</ele>
        <time>2014-01-31T09:45:55.000Z</time>
      </trkpt>
      <trkpt lat="45.55927" lon="6.58376">
        <ele>1734.8000488281</ele>
        <time>2014-01-31T09:45:58.000Z</time>
      </trkpt>
      <trkpt lat="45.55927" lon="6.58376">
        <ele>1734.8000488281</ele>
        <time>2014-01-31T09:45:59.000Z</time>
      </trkpt>
      <trkpt lat="45.55927" lon="6.58376">
        <ele>1734.8000488281</ele>
        <time>2014-01-31T09:46:00.000Z</time>
      </trkpt>
      <trkpt lat="45.55927" lon="6.58376">
        <ele>1734.8000488281</ele>
        <time>2014-01-31T09:46:02.000Z</time>
      </trkpt>
      <trkpt lat="45.55927" lon="6.58376">
        <ele>1735</ele>
        <time>2014-01-31T09:46:03.000Z</time>
      </trkpt>
      <trkpt lat="45.55927" lon="6.58376">
        <ele>1735</ele>
        <time>2014-01-31T09:46:04.000Z</time>
      </trkpt>
      <trkpt lat="45.55927" lon="6.58376">
        <ele>1735</ele>
        <time>2014-01-31T09:46:05.000Z</time>
      </trkpt>
      <trkpt lat="45.55927" lon="6.58376">
        <ele>1735</ele>
        <time>2014-01-31T09:46:06.000Z</time>
      </trkpt>
      <trkpt lat="45.55927" lon="6.58376">
        <ele>1735</ele>
        <time>2014-01-31T09:46:07.000Z</time>
      </trkpt>
      <trkpt lat="45.55927" lon="6.58376">
        <ele>1734.8000488281</ele>
        <time>2014-01-31T09:46:08.000Z</time>
      </trkpt>
      <trkpt lat="45.55927" lon="6.58376">
        <ele>1734.8000488281</ele>
        <time>2014-01-31T09:46:09.000Z</time>
      </trkpt>
      <trkpt lat="45.55927" lon="6.58376">
        <ele>1734.8000488281</ele>
        <time>2014-01-31T09:46:11.000Z</time>
      </trkpt>
      <trkpt lat="45.55927" lon="6.58376">
        <ele>1734.8000488281</ele>
        <time>2014-01-31T09:46:13.000Z</time>
      </trkpt>
      <trkpt lat="45.55927" lon="6.58376">
        <ele>1734.8000488281</ele>
        <time>2014-01-31T09:46:17.000Z</time>
      </trkpt>
      <trkpt lat="45.55927" lon="6.58376">
        <ele>1734.8000488281</ele>
        <time>2014-01-31T09:46:18.000Z</time>
      </trkpt>
      <trkpt lat="45.55927" lon="6.58376">
        <ele>1734.8000488281</ele>
        <time>2014-01-31T09:46:19.000Z</time>
      </trkpt>
      <trkpt lat="45.55927" lon="6.58376">
        <ele>1734.8000488281</ele>
        <time>2014-01-31T09:46:20.000Z</time>
      </trkpt>
      <trkpt lat="45.55927" lon="6.58376">
        <ele>1734.8000488281</ele>
        <time>2014-01-31T09:46:21.000Z</time>
      </trkpt>
      <trkpt lat="45.55927" lon="6.58376">
        <ele>1734.8000488281</ele>
        <time>2014-01-31T09:46:22.000Z</time>
      </trkpt>
      <trkpt lat="45.55927" lon="6.58376">
        <ele>1734.8000488281</ele>
        <time>2014-01-31T09:46:23.000Z</time>
      </trkpt>
      <trkpt lat="45.55927" lon="6.58376">
        <ele>1734.8000488281</ele>
        <time>2014-01-31T09:46:24.000Z</time>
      </trkpt>
      <trkpt lat="45.55927" lon="6.58376">
        <ele>1734.8000488281</ele>
        <time>2014-01-31T09:46:25.000Z</time>
      </trkpt>
      <trkpt lat="45.55927" lon="6.58376">
        <ele>1734.8000488281</ele>
        <time>2014-01-31T09:46:30.000Z</time>
      </trkpt>
      <trkpt lat="45.55927" lon="6.58376">
        <ele>1734.8000488281</ele>
        <time>2014-01-31T09:46:31.000Z</time>
      </trkpt>
      <trkpt lat="45.55927" lon="6.58376">
        <ele>1734.8000488281</ele>
        <time>2014-01-31T09:46:32.000Z</time>
      </trkpt>
      <trkpt lat="45.55927" lon="6.58376">
        <ele>1734.8000488281</ele>
        <time>2014-01-31T09:46:35.000Z</time>
      </trkpt>
      <trkpt lat="45.55927" lon="6.58376">
        <ele>1734.8000488281</ele>
        <time>2014-01-31T09:46:36.000Z</time>
      </trkpt>
      <trkpt lat="45.55927" lon="6.58376">
        <ele>1734.8000488281</ele>
        <time>2014-01-31T09:46:38.000Z</time>
      </trkpt>
      <trkpt lat="45.55927" lon="6.58376">
        <ele>1734.8000488281</ele>
        <time>2014-01-31T09:46:39.000Z</time>
      </trkpt>
      <trkpt lat="45.55927" lon="6.58376">
        <ele>1734.8000488281</ele>
        <time>2014-01-31T09:46:43.000Z</time>
      </trkpt>
      <trkpt lat="45.55927" lon="6.58376">
        <ele>1734.8000488281</ele>
        <time>2014-01-31T09:46:44.000Z</time>
      </trkpt>
      <trkpt lat="45.55927" lon="6.58376">
        <ele>1734.8000488281</ele>
        <time>2014-01-31T09:46:45.000Z</time>
      </trkpt>
      <trkpt lat="45.55927" lon="6.58376">
        <ele>1734.8000488281</ele>
        <time>2014-01-31T09:46:46.000Z</time>
      </trkpt>
      <trkpt lat="45.55927" lon="6.58376">
        <ele>1734.8000488281</ele>
        <time>2014-01-31T09:46:47.000Z</time>
      </trkpt>
      <trkpt lat="45.55927" lon="6.58376">
        <ele>1734.8000488281</ele>
        <time>2014-01-31T09:46:50.000Z</time>
      </trkpt>
      <trkpt lat="45.55927" lon="6.58376">
        <ele>1734.8000488281</ele>
        <time>2014-01-31T09:46:51.000Z</time>
      </trkpt>
      <trkpt lat="45.55927" lon="6.58376">
        <ele>1734.5999755859</ele>
        <time>2014-01-31T09:46:52.000Z</time>
      </trkpt>
      <trkpt lat="45.55927" lon="6.58376">
        <ele>1734.8000488281</ele>
        <time>2014-01-31T09:46:53.000Z</time>
      </trkpt>
      <trkpt lat="45.55927" lon="6.58376">
        <ele>1734.8000488281</ele>
        <time>2014-01-31T09:46:54.000Z</time>
      </trkpt>
      <trkpt lat="45.55927" lon="6.58376">
        <ele>1734.8000488281</ele>
        <time>2014-01-31T09:46:55.000Z</time>
      </trkpt>
      <trkpt lat="45.55927" lon="6.58376">
        <ele>1734.8000488281</ele>
        <time>2014-01-31T09:46:56.000Z</time>
      </trkpt>
      <trkpt lat="45.55927" lon="6.58376">
        <ele>1735</ele>
        <time>2014-01-31T09:46:57.000Z</time>
      </trkpt>
      <trkpt lat="45.55927" lon="6.58376">
        <ele>1735.1999511719</ele>
        <time>2014-01-31T09:46:58.000Z</time>
      </trkpt>
      <trkpt lat="45.55927" lon="6.58374">
        <ele>1735.4000244141</ele>
        <time>2014-01-31T09:46:59.000Z</time>
      </trkpt>
      <trkpt lat="45.55928" lon="6.58374">
        <ele>1735.4000244141</ele>
        <time>2014-01-31T09:47:00.000Z</time>
      </trkpt>
      <trkpt lat="45.55929" lon="6.58373">
        <ele>1735.5999755859</ele>
        <time>2014-01-31T09:47:01.000Z</time>
      </trkpt>
      <trkpt lat="45.55929" lon="6.5837">
        <ele>1735.8000488281</ele>
        <time>2014-01-31T09:47:02.000Z</time>
      </trkpt>
      <trkpt lat="45.5593" lon="6.5837">
        <ele>1736.1999511719</ele>
        <time>2014-01-31T09:47:03.000Z</time>
      </trkpt>
      <trkpt lat="45.5593" lon="6.58369">
        <ele>1736.4000244141</ele>
        <time>2014-01-31T09:47:04.000Z</time>
      </trkpt>
      <trkpt lat="45.5593" lon="6.58369">
        <ele>1736.4000244141</ele>
        <time>2014-01-31T09:47:05.000Z</time>
      </trkpt>
      <trkpt lat="45.5593" lon="6.58369">
        <ele>1736.5999755859</ele>
        <time>2014-01-31T09:47:06.000Z</time>
      </trkpt>
      <trkpt lat="45.5593" lon="6.58369">
        <ele>1736.8000488281</ele>
        <time>2014-01-31T09:47:07.000Z</time>
      </trkpt>
      <trkpt lat="45.55931" lon="6.58366">
        <ele>1737</ele>
        <time>2014-01-31T09:47:08.000Z</time>
      </trkpt>
      <trkpt lat="45.55931" lon="6.58366">
        <ele>1737.4000244141</ele>
        <time>2014-01-31T09:47:09.000Z</time>
      </trkpt>
      <trkpt lat="45.55932" lon="6.58364">
        <ele>1737.5999755859</ele>
        <time>2014-01-31T09:47:10.000Z</time>
      </trkpt>
      <trkpt lat="45.55932" lon="6.58363">
        <ele>1737.8000488281</ele>
        <time>2014-01-31T09:47:11.000Z</time>
      </trkpt>
      <trkpt lat="45.55933" lon="6.58362">
        <ele>1738</ele>
        <time>2014-01-31T09:47:12.000Z</time>
      </trkpt>
      <trkpt lat="45.55933" lon="6.58361">
        <ele>1738.1999511719</ele>
        <time>2014-01-31T09:47:13.000Z</time>
      </trkpt>
      <trkpt lat="45.55933" lon="6.5836">
        <ele>1738.4000244141</ele>
        <time>2014-01-31T09:47:14.000Z</time>
      </trkpt>
      <trkpt lat="45.55933" lon="6.58359">
        <ele>1738.5999755859</ele>
        <time>2014-01-31T09:47:15.000Z</time>
      </trkpt>
      <trkpt lat="45.55933" lon="6.58359">
        <ele>1738.8000488281</ele>
        <time>2014-01-31T09:47:16.000Z</time>
      </trkpt>
      <trkpt lat="45.55933" lon="6.58357">
        <ele>1739</ele>
        <time>2014-01-31T09:47:17.000Z</time>
      </trkpt>
      <trkpt lat="45.55933" lon="6.58356">
        <ele>1739.1999511719</ele>
        <time>2014-01-31T09:47:18.000Z</time>
      </trkpt>
      <trkpt lat="45.55933" lon="6.58355">
        <ele>1739.4000244141</ele>
        <time>2014-01-31T09:47:19.000Z</time>
      </trkpt>
      <trkpt lat="45.55933" lon="6.58354">
        <ele>1739.5999755859</ele>
        <time>2014-01-31T09:47:20.000Z</time>
      </trkpt>
      <trkpt lat="45.55932" lon="6.58352">
        <ele>1739.8000488281</ele>
        <time>2014-01-31T09:47:21.000Z</time>
      </trkpt>
      <trkpt lat="45.55933" lon="6.58351">
        <ele>1739.8000488281</ele>
        <time>2014-01-31T09:47:22.000Z</time>
      </trkpt>
      <trkpt lat="45.55933" lon="6.5835">
        <ele>1740</ele>
        <time>2014-01-31T09:47:23.000Z</time>
      </trkpt>
      <trkpt lat="45.55932" lon="6.58349">
        <ele>1740.1999511719</ele>
        <time>2014-01-31T09:47:24.000Z</time>
      </trkpt>
      <trkpt lat="45.55933" lon="6.58347">
        <ele>1740.1999511719</ele>
        <time>2014-01-31T09:47:25.000Z</time>
      </trkpt>
      <trkpt lat="45.55933" lon="6.58346">
        <ele>1740.4000244141</ele>
        <time>2014-01-31T09:47:26.000Z</time>
      </trkpt>
      <trkpt lat="45.55933" lon="6.58345">
        <ele>1740.5999755859</ele>
        <time>2014-01-31T09:47:27.000Z</time>
      </trkpt>
      <trkpt lat="45.55933" lon="6.58344">
        <ele>1740.8000488281</ele>
        <time>2014-01-31T09:47:28.000Z</time>
      </trkpt>
      <trkpt lat="45.55933" lon="6.58342">
        <ele>1740.8000488281</ele>
        <time>2014-01-31T09:47:29.000Z</time>
      </trkpt>
      <trkpt lat="45.55933" lon="6.58341">
        <ele>1741</ele>
        <time>2014-01-31T09:47:30.000Z</time>
      </trkpt>
      <trkpt lat="45.55933" lon="6.5834">
        <ele>1741</ele>
        <time>2014-01-31T09:47:31.000Z</time>
      </trkpt>
      <trkpt lat="45.55933" lon="6.58339">
        <ele>1741</ele>
        <time>2014-01-31T09:47:32.000Z</time>
      </trkpt>
      <trkpt lat="45.55934" lon="6.58338">
        <ele>1741</ele>
        <time>2014-01-31T09:47:33.000Z</time>
      </trkpt>
      <trkpt lat="45.55934" lon="6.58337">
        <ele>1741.1999511719</ele>
        <time>2014-01-31T09:47:34.000Z</time>
      </trkpt>
      <trkpt lat="45.55934" lon="6.58336">
        <ele>1741.4000244141</ele>
        <time>2014-01-31T09:47:35.000Z</time>
      </trkpt>
      <trkpt lat="45.55934" lon="6.58335">
        <ele>1741.5999755859</ele>
        <time>2014-01-31T09:47:36.000Z</time>
      </trkpt>
      <trkpt lat="45.55934" lon="6.58334">
        <ele>1741.8000488281</ele>
        <time>2014-01-31T09:47:37.000Z</time>
      </trkpt>
      <trkpt lat="45.55935" lon="6.58333">
        <ele>1742.1999511719</ele>
        <time>2014-01-31T09:47:38.000Z</time>
      </trkpt>
      <trkpt lat="45.55935" lon="6.58332">
        <ele>1742.4000244141</ele>
        <time>2014-01-31T09:47:39.000Z</time>
      </trkpt>
      <trkpt lat="45.55935" lon="6.58331">
        <ele>1742.5999755859</ele>
        <time>2014-01-31T09:47:40.000Z</time>
      </trkpt>
      <trkpt lat="45.55935" lon="6.5833">
        <ele>1743</ele>
        <time>2014-01-31T09:47:41.000Z</time>
      </trkpt>
      <trkpt lat="45.55936" lon="6.5833">
        <ele>1743.1999511719</ele>
        <time>2014-01-31T09:47:42.000Z</time>
      </trkpt>
      <trkpt lat="45.55936" lon="6.58329">
        <ele>1743.5999755859</ele>
        <time>2014-01-31T09:47:43.000Z</time>
      </trkpt>
      <trkpt lat="45.55936" lon="6.58328">
        <ele>1743.8000488281</ele>
        <time>2014-01-31T09:47:44.000Z</time>
      </trkpt>
      <trkpt lat="45.55937" lon="6.58327">
        <ele>1744.1999511719</ele>
        <time>2014-01-31T09:47:45.000Z</time>
      </trkpt>
      <trkpt lat="45.55937" lon="6.58326">
        <ele>1744.4000244141</ele>
        <time>2014-01-31T09:47:46.000Z</time>
      </trkpt>
      <trkpt lat="45.55938" lon="6.58325">
        <ele>1744.5999755859</ele>
        <time>2014-01-31T09:47:47.000Z</time>
      </trkpt>
      <trkpt lat="45.55938" lon="6.58324">
        <ele>1745</ele>
        <time>2014-01-31T09:47:48.000Z</time>
      </trkpt>
      <trkpt lat="45.55938" lon="6.58323">
        <ele>1745</ele>
        <time>2014-01-31T09:47:49.000Z</time>
      </trkpt>
      <trkpt lat="45.55939" lon="6.58321">
        <ele>1745.1999511719</ele>
        <time>2014-01-31T09:47:50.000Z</time>
      </trkpt>
      <trkpt lat="45.55939" lon="6.5832">
        <ele>1745.5999755859</ele>
        <time>2014-01-31T09:47:51.000Z</time>
      </trkpt>
      <trkpt lat="45.5594" lon="6.58318">
        <ele>1746</ele>
        <time>2014-01-31T09:47:52.000Z</time>
      </trkpt>
      <trkpt lat="45.5594" lon="6.58317">
        <ele>1746.4000244141</ele>
        <time>2014-01-31T09:47:53.000Z</time>
      </trkpt>
      <trkpt lat="45.5594" lon="6.58316">
        <ele>1746.5999755859</ele>
        <time>2014-01-31T09:47:54.000Z</time>
      </trkpt>
      <trkpt lat="45.55941" lon="6.58313">
        <ele>1746.5999755859</ele>
        <time>2014-01-31T09:47:55.000Z</time>
      </trkpt>
      <trkpt lat="45.55941" lon="6.58311">
        <ele>1746.5999755859</ele>
        <time>2014-01-31T09:47:56.000Z</time>
      </trkpt>
      <trkpt lat="45.5594" lon="6.5831">
        <ele>1746.8000488281</ele>
        <time>2014-01-31T09:47:57.000Z</time>
      </trkpt>
      <trkpt lat="45.5594" lon="6.58308">
        <ele>1747</ele>
        <time>2014-01-31T09:47:58.000Z</time>
      </trkpt>
      <trkpt lat="45.55941" lon="6.58306">
        <ele>1747.1999511719</ele>
        <time>2014-01-31T09:47:59.000Z</time>
      </trkpt>
      <trkpt lat="45.55941" lon="6.58306">
        <ele>1747.4000244141</ele>
        <time>2014-01-31T09:48:00.000Z</time>
      </trkpt>
      <trkpt lat="45.55941" lon="6.58304">
        <ele>1747.5999755859</ele>
        <time>2014-01-31T09:48:01.000Z</time>
      </trkpt>
      <trkpt lat="45.55941" lon="6.58303">
        <ele>1747.5999755859</ele>
        <time>2014-01-31T09:48:02.000Z</time>
      </trkpt>
      <trkpt lat="45.55941" lon="6.58302">
        <ele>1747.5999755859</ele>
        <time>2014-01-31T09:48:03.000Z</time>
      </trkpt>
      <trkpt lat="45.55941" lon="6.583">
        <ele>1747.5999755859</ele>
        <time>2014-01-31T09:48:04.000Z</time>
      </trkpt>
      <trkpt lat="45.55941" lon="6.58299">
        <ele>1747.5999755859</ele>
        <time>2014-01-31T09:48:05.000Z</time>
      </trkpt>
      <trkpt lat="45.55941" lon="6.58298">
        <ele>1747.8000488281</ele>
        <time>2014-01-31T09:48:06.000Z</time>
      </trkpt>
      <trkpt lat="45.55941" lon="6.58295">
        <ele>1748</ele>
        <time>2014-01-31T09:48:07.000Z</time>
      </trkpt>
      <trkpt lat="45.55941" lon="6.58294">
        <ele>1748.1999511719</ele>
        <time>2014-01-31T09:48:08.000Z</time>
      </trkpt>
      <trkpt lat="45.55941" lon="6.58293">
        <ele>1748.5999755859</ele>
        <time>2014-01-31T09:48:09.000Z</time>
      </trkpt>
      <trkpt lat="45.55941" lon="6.58291">
        <ele>1748.5999755859</ele>
        <time>2014-01-31T09:48:10.000Z</time>
      </trkpt>
      <trkpt lat="45.55941" lon="6.5829">
        <ele>1748.8000488281</ele>
        <time>2014-01-31T09:48:11.000Z</time>
      </trkpt>
      <trkpt lat="45.55941" lon="6.58289">
        <ele>1748.8000488281</ele>
        <time>2014-01-31T09:48:12.000Z</time>
      </trkpt>
      <trkpt lat="45.55941" lon="6.58287">
        <ele>1749</ele>
        <time>2014-01-31T09:48:13.000Z</time>
      </trkpt>
      <trkpt lat="45.55942" lon="6.58286">
        <ele>1749.1999511719</ele>
        <time>2014-01-31T09:48:14.000Z</time>
      </trkpt>
      <trkpt lat="45.55942" lon="6.58284">
        <ele>1749.4000244141</ele>
        <time>2014-01-31T09:48:15.000Z</time>
      </trkpt>
      <trkpt lat="45.55942" lon="6.58283">
        <ele>1749.5999755859</ele>
        <time>2014-01-31T09:48:16.000Z</time>
      </trkpt>
      <trkpt lat="45.55943" lon="6.5828">
        <ele>1749.5999755859</ele>
        <time>2014-01-31T09:48:17.000Z</time>
      </trkpt>
      <trkpt lat="45.55944" lon="6.58278">
        <ele>1749.8000488281</ele>
        <time>2014-01-31T09:48:18.000Z</time>
      </trkpt>
      <trkpt lat="45.55944" lon="6.58277">
        <ele>1750</ele>
        <time>2014-01-31T09:48:19.000Z</time>
      </trkpt>
      <trkpt lat="45.55945" lon="6.58275">
        <ele>1750</ele>
        <time>2014-01-31T09:48:20.000Z</time>
      </trkpt>
      <trkpt lat="45.55945" lon="6.58273">
        <ele>1750.1999511719</ele>
        <time>2014-01-31T09:48:21.000Z</time>
      </trkpt>
      <trkpt lat="45.55946" lon="6.58272">
        <ele>1750.4000244141</ele>
        <time>2014-01-31T09:48:22.000Z</time>
      </trkpt>
      <trkpt lat="45.55946" lon="6.58271">
        <ele>1750.5999755859</ele>
        <time>2014-01-31T09:48:23.000Z</time>
      </trkpt>
      <trkpt lat="45.55947" lon="6.5827">
        <ele>1750.8000488281</ele>
        <time>2014-01-31T09:48:24.000Z</time>
      </trkpt>
      <trkpt lat="45.55948" lon="6.58269">
        <ele>1751</ele>
        <time>2014-01-31T09:48:25.000Z</time>
      </trkpt>
      <trkpt lat="45.55948" lon="6.58268">
        <ele>1751.1999511719</ele>
        <time>2014-01-31T09:48:26.000Z</time>
      </trkpt>
      <trkpt lat="45.55949" lon="6.58266">
        <ele>1751.1999511719</ele>
        <time>2014-01-31T09:48:27.000Z</time>
      </trkpt>
      <trkpt lat="45.55949" lon="6.58265">
        <ele>1751.4000244141</ele>
        <time>2014-01-31T09:48:28.000Z</time>
      </trkpt>
      <trkpt lat="45.5595" lon="6.58264">
        <ele>1751.4000244141</ele>
        <time>2014-01-31T09:48:29.000Z</time>
      </trkpt>
      <trkpt lat="45.5595" lon="6.58262">
        <ele>1751.4000244141</ele>
        <time>2014-01-31T09:48:30.000Z</time>
      </trkpt>
      <trkpt lat="45.5595" lon="6.58261">
        <ele>1751.5999755859</ele>
        <time>2014-01-31T09:48:31.000Z</time>
      </trkpt>
      <trkpt lat="45.5595" lon="6.5826">
        <ele>1751.8000488281</ele>
        <time>2014-01-31T09:48:32.000Z</time>
      </trkpt>
      <trkpt lat="45.55949" lon="6.58261">
        <ele>1751.8000488281</ele>
        <time>2014-01-31T09:48:33.000Z</time>
      </trkpt>
      <trkpt lat="45.55949" lon="6.58259">
        <ele>1752</ele>
        <time>2014-01-31T09:48:34.000Z</time>
      </trkpt>
      <trkpt lat="45.55949" lon="6.58259">
        <ele>1752</ele>
        <time>2014-01-31T09:48:35.000Z</time>
      </trkpt>
      <trkpt lat="45.55949" lon="6.58258">
        <ele>1752.1999511719</ele>
        <time>2014-01-31T09:48:36.000Z</time>
      </trkpt>
      <trkpt lat="45.55949" lon="6.58256">
        <ele>1752.5999755859</ele>
        <time>2014-01-31T09:48:37.000Z</time>
      </trkpt>
      <trkpt lat="45.55949" lon="6.58256">
        <ele>1752.8000488281</ele>
        <time>2014-01-31T09:48:38.000Z</time>
      </trkpt>
      <trkpt lat="45.55949" lon="6.58255">
        <ele>1752.8000488281</ele>
        <time>2014-01-31T09:48:39.000Z</time>
      </trkpt>
      <trkpt lat="45.55949" lon="6.58253">
        <ele>1753.1999511719</ele>
        <time>2014-01-31T09:48:40.000Z</time>
      </trkpt>
      <trkpt lat="45.55949" lon="6.58252">
        <ele>1753.1999511719</ele>
        <time>2014-01-31T09:48:41.000Z</time>
      </trkpt>
      <trkpt lat="45.55948" lon="6.5825">
        <ele>1753.4000244141</ele>
        <time>2014-01-31T09:48:42.000Z</time>
      </trkpt>
      <trkpt lat="45.55948" lon="6.58248">
        <ele>1753.4000244141</ele>
        <time>2014-01-31T09:48:43.000Z</time>
      </trkpt>
      <trkpt lat="45.55948" lon="6.58246">
        <ele>1753.5999755859</ele>
        <time>2014-01-31T09:48:44.000Z</time>
      </trkpt>
      <trkpt lat="45.55948" lon="6.58245">
        <ele>1753.5999755859</ele>
        <time>2014-01-31T09:48:45.000Z</time>
      </trkpt>
      <trkpt lat="45.55947" lon="6.58242">
        <ele>1753.5999755859</ele>
        <time>2014-01-31T09:48:46.000Z</time>
      </trkpt>
      <trkpt lat="45.55948" lon="6.58241">
        <ele>1753.8000488281</ele>
        <time>2014-01-31T09:48:47.000Z</time>
      </trkpt>
      <trkpt lat="45.55947" lon="6.5824">
        <ele>1753.8000488281</ele>
        <time>2014-01-31T09:48:48.000Z</time>
      </trkpt>
      <trkpt lat="45.55947" lon="6.58237">
        <ele>1753.8000488281</ele>
        <time>2014-01-31T09:48:50.000Z</time>
      </trkpt>
      <trkpt lat="45.55946" lon="6.58235">
        <ele>1753.8000488281</ele>
        <time>2014-01-31T09:48:51.000Z</time>
      </trkpt>
      <trkpt lat="45.55946" lon="6.58235">
        <ele>1754</ele>
        <time>2014-01-31T09:48:52.000Z</time>
      </trkpt>
      <trkpt lat="45.55945" lon="6.58236">
        <ele>1754</ele>
        <time>2014-01-31T09:48:53.000Z</time>
      </trkpt>
      <trkpt lat="45.55945" lon="6.58234">
        <ele>1754</ele>
        <time>2014-01-31T09:48:54.000Z</time>
      </trkpt>
      <trkpt lat="45.55945" lon="6.58234">
        <ele>1754.1999511719</ele>
        <time>2014-01-31T09:48:56.000Z</time>
      </trkpt>
      <trkpt lat="45.55945" lon="6.58234">
        <ele>1754.1999511719</ele>
        <time>2014-01-31T09:48:57.000Z</time>
      </trkpt>
      <trkpt lat="45.55945" lon="6.58234">
        <ele>1754</ele>
        <time>2014-01-31T09:48:58.000Z</time>
      </trkpt>
      <trkpt lat="45.55945" lon="6.58234">
        <ele>1754</ele>
        <time>2014-01-31T09:48:59.000Z</time>
      </trkpt>
      <trkpt lat="45.55945" lon="6.58234">
        <ele>1754.1999511719</ele>
        <time>2014-01-31T09:49:01.000Z</time>
      </trkpt>
      <trkpt lat="45.55945" lon="6.58234">
        <ele>1754.1999511719</ele>
        <time>2014-01-31T09:49:02.000Z</time>
      </trkpt>
      <trkpt lat="45.55945" lon="6.58234">
        <ele>1754.1999511719</ele>
        <time>2014-01-31T09:49:05.000Z</time>
      </trkpt>
      <trkpt lat="45.55945" lon="6.58234">
        <ele>1754.1999511719</ele>
        <time>2014-01-31T09:49:06.000Z</time>
      </trkpt>
      <trkpt lat="45.55945" lon="6.58234">
        <ele>1754</ele>
        <time>2014-01-31T09:49:07.000Z</time>
      </trkpt>
      <trkpt lat="45.55945" lon="6.58234">
        <ele>1754</ele>
        <time>2014-01-31T09:49:08.000Z</time>
      </trkpt>
      <trkpt lat="45.55945" lon="6.58234">
        <ele>1754</ele>
        <time>2014-01-31T09:49:09.000Z</time>
      </trkpt>
      <trkpt lat="45.55945" lon="6.58233">
        <ele>1754</ele>
        <time>2014-01-31T09:49:10.000Z</time>
      </trkpt>
      <trkpt lat="45.55945" lon="6.58233">
        <ele>1754.1999511719</ele>
        <time>2014-01-31T09:49:11.000Z</time>
      </trkpt>
      <trkpt lat="45.55945" lon="6.58233">
        <ele>1754.1999511719</ele>
        <time>2014-01-31T09:49:12.000Z</time>
      </trkpt>
      <trkpt lat="45.55945" lon="6.58233">
        <ele>1754.4000244141</ele>
        <time>2014-01-31T09:49:13.000Z</time>
      </trkpt>
      <trkpt lat="45.55945" lon="6.58233">
        <ele>1754.4000244141</ele>
        <time>2014-01-31T09:49:14.000Z</time>
      </trkpt>
      <trkpt lat="45.55945" lon="6.58233">
        <ele>1754.4000244141</ele>
        <time>2014-01-31T09:49:15.000Z</time>
      </trkpt>
      <trkpt lat="45.55945" lon="6.58233">
        <ele>1754.5999755859</ele>
        <time>2014-01-31T09:49:16.000Z</time>
      </trkpt>
      <trkpt lat="45.55945" lon="6.58233">
        <ele>1754.5999755859</ele>
        <time>2014-01-31T09:49:17.000Z</time>
      </trkpt>
      <trkpt lat="45.55945" lon="6.58233">
        <ele>1754.5999755859</ele>
        <time>2014-01-31T09:49:20.000Z</time>
      </trkpt>
      <trkpt lat="45.55945" lon="6.58233">
        <ele>1754.5999755859</ele>
        <time>2014-01-31T09:49:21.000Z</time>
      </trkpt>
      <trkpt lat="45.55945" lon="6.58233">
        <ele>1754.8000488281</ele>
        <time>2014-01-31T09:49:22.000Z</time>
      </trkpt>
      <trkpt lat="45.55945" lon="6.58233">
        <ele>1754.8000488281</ele>
        <time>2014-01-31T09:49:23.000Z</time>
      </trkpt>
      <trkpt lat="45.55945" lon="6.58233">
        <ele>1754.8000488281</ele>
        <time>2014-01-31T09:49:24.000Z</time>
      </trkpt>
      <trkpt lat="45.55945" lon="6.58233">
        <ele>1754.8000488281</ele>
        <time>2014-01-31T09:49:25.000Z</time>
      </trkpt>
      <trkpt lat="45.55945" lon="6.58233">
        <ele>1754.8000488281</ele>
        <time>2014-01-31T09:49:27.000Z</time>
      </trkpt>
      <trkpt lat="45.55945" lon="6.58233">
        <ele>1754.5999755859</ele>
        <time>2014-01-31T09:49:28.000Z</time>
      </trkpt>
      <trkpt lat="45.55945" lon="6.58233">
        <ele>1754.5999755859</ele>
        <time>2014-01-31T09:49:29.000Z</time>
      </trkpt>
      <trkpt lat="45.55945" lon="6.58233">
        <ele>1754.5999755859</ele>
        <time>2014-01-31T09:49:30.000Z</time>
      </trkpt>
      <trkpt lat="45.55945" lon="6.58233">
        <ele>1754.5999755859</ele>
        <time>2014-01-31T09:49:34.000Z</time>
      </trkpt>
      <trkpt lat="45.55945" lon="6.58233">
        <ele>1754.5999755859</ele>
        <time>2014-01-31T09:49:35.000Z</time>
      </trkpt>
      <trkpt lat="45.55945" lon="6.58233">
        <ele>1754.5999755859</ele>
        <time>2014-01-31T09:49:36.000Z</time>
      </trkpt>
      <trkpt lat="45.55945" lon="6.58233">
        <ele>1754.5999755859</ele>
        <time>2014-01-31T09:49:37.000Z</time>
      </trkpt>
      <trkpt lat="45.55945" lon="6.58233">
        <ele>1754.5999755859</ele>
        <time>2014-01-31T09:49:38.000Z</time>
      </trkpt>
      <trkpt lat="45.55945" lon="6.58233">
        <ele>1754.5999755859</ele>
        <time>2014-01-31T09:49:39.000Z</time>
      </trkpt>
      <trkpt lat="45.55945" lon="6.58233">
        <ele>1754.5999755859</ele>
        <time>2014-01-31T09:49:40.000Z</time>
      </trkpt>
      <trkpt lat="45.55945" lon="6.58233">
        <ele>1754.5999755859</ele>
        <time>2014-01-31T09:49:41.000Z</time>
      </trkpt>
      <trkpt lat="45.55945" lon="6.58233">
        <ele>1754.5999755859</ele>
        <time>2014-01-31T09:49:42.000Z</time>
      </trkpt>
      <trkpt lat="45.55945" lon="6.58233">
        <ele>1754.5999755859</ele>
        <time>2014-01-31T09:49:43.000Z</time>
      </trkpt>
      <trkpt lat="45.55945" lon="6.58233">
        <ele>1754.5999755859</ele>
        <time>2014-01-31T09:49:46.000Z</time>
      </trkpt>
      <trkpt lat="45.55945" lon="6.58233">
        <ele>1754.5999755859</ele>
        <time>2014-01-31T09:49:49.000Z</time>
      </trkpt>
      <trkpt lat="45.55945" lon="6.58233">
        <ele>1754.5999755859</ele>
        <time>2014-01-31T09:49:50.000Z</time>
      </trkpt>
      <trkpt lat="45.55945" lon="6.58233">
        <ele>1754.4000244141</ele>
        <time>2014-01-31T09:49:51.000Z</time>
      </trkpt>
      <trkpt lat="45.55944" lon="6.58232">
        <ele>1754.4000244141</ele>
        <time>2014-01-31T09:49:52.000Z</time>
      </trkpt>
      <trkpt lat="45.55944" lon="6.58232">
        <ele>1754.4000244141</ele>
        <time>2014-01-31T09:49:54.000Z</time>
      </trkpt>
      <trkpt lat="45.55944" lon="6.58232">
        <ele>1754.4000244141</ele>
        <time>2014-01-31T09:49:55.000Z</time>
      </trkpt>
      <trkpt lat="45.55944" lon="6.58232">
        <ele>1754.4000244141</ele>
        <time>2014-01-31T09:49:56.000Z</time>
      </trkpt>
      <trkpt lat="45.55944" lon="6.58232">
        <ele>1754.4000244141</ele>
        <time>2014-01-31T09:49:59.000Z</time>
      </trkpt>
      <trkpt lat="45.55944" lon="6.58232">
        <ele>1754.4000244141</ele>
        <time>2014-01-31T09:50:05.000Z</time>
      </trkpt>
      <trkpt lat="45.55944" lon="6.58232">
        <ele>1754.5999755859</ele>
        <time>2014-01-31T09:50:06.000Z</time>
      </trkpt>
      <trkpt lat="45.55944" lon="6.58232">
        <ele>1754.5999755859</ele>
        <time>2014-01-31T09:50:07.000Z</time>
      </trkpt>
      <trkpt lat="45.55944" lon="6.58232">
        <ele>1754.5999755859</ele>
        <time>2014-01-31T09:50:08.000Z</time>
      </trkpt>
      <trkpt lat="45.55944" lon="6.58232">
        <ele>1754.5999755859</ele>
        <time>2014-01-31T09:50:10.000Z</time>
      </trkpt>
      <trkpt lat="45.55944" lon="6.58232">
        <ele>1754.5999755859</ele>
        <time>2014-01-31T09:50:11.000Z</time>
      </trkpt>
      <trkpt lat="45.55944" lon="6.58232">
        <ele>1754.5999755859</ele>
        <time>2014-01-31T09:50:13.000Z</time>
      </trkpt>
      <trkpt lat="45.55944" lon="6.58232">
        <ele>1754.5999755859</ele>
        <time>2014-01-31T09:50:14.000Z</time>
      </trkpt>
      <trkpt lat="45.55944" lon="6.58232">
        <ele>1754.5999755859</ele>
        <time>2014-01-31T09:50:15.000Z</time>
      </trkpt>
      <trkpt lat="45.55944" lon="6.58232">
        <ele>1754.4000244141</ele>
        <time>2014-01-31T09:50:16.000Z</time>
      </trkpt>
      <trkpt lat="45.55944" lon="6.58232">
        <ele>1754.4000244141</ele>
        <time>2014-01-31T09:50:17.000Z</time>
      </trkpt>
      <trkpt lat="45.55944" lon="6.58232">
        <ele>1754.4000244141</ele>
        <time>2014-01-31T09:50:18.000Z</time>
      </trkpt>
      <trkpt lat="45.55944" lon="6.58232">
        <ele>1754.4000244141</ele>
        <time>2014-01-31T09:50:19.000Z</time>
      </trkpt>
      <trkpt lat="45.55944" lon="6.58232">
        <ele>1754.4000244141</ele>
        <time>2014-01-31T09:50:20.000Z</time>
      </trkpt>
      <trkpt lat="45.55944" lon="6.58232">
        <ele>1754.4000244141</ele>
        <time>2014-01-31T09:50:21.000Z</time>
      </trkpt>
      <trkpt lat="45.55944" lon="6.58232">
        <ele>1754.4000244141</ele>
        <time>2014-01-31T09:50:22.000Z</time>
      </trkpt>
      <trkpt lat="45.55944" lon="6.58232">
        <ele>1754.4000244141</ele>
        <time>2014-01-31T09:50:23.000Z</time>
      </trkpt>
      <trkpt lat="45.55944" lon="6.58232">
        <ele>1754.4000244141</ele>
        <time>2014-01-31T09:50:24.000Z</time>
      </trkpt>
      <trkpt lat="45.55944" lon="6.58232">
        <ele>1754.4000244141</ele>
        <time>2014-01-31T09:50:25.000Z</time>
      </trkpt>
      <trkpt lat="45.55944" lon="6.58232">
        <ele>1754.4000244141</ele>
        <time>2014-01-31T09:50:27.000Z</time>
      </trkpt>
      <trkpt lat="45.55944" lon="6.58232">
        <ele>1754.4000244141</ele>
        <time>2014-01-31T09:50:28.000Z</time>
      </trkpt>
      <trkpt lat="45.55944" lon="6.58232">
        <ele>1754.4000244141</ele>
        <time>2014-01-31T09:50:29.000Z</time>
      </trkpt>
      <trkpt lat="45.55944" lon="6.58232">
        <ele>1754.4000244141</ele>
        <time>2014-01-31T09:50:30.000Z</time>
      </trkpt>
      <trkpt lat="45.55944" lon="6.58232">
        <ele>1754.4000244141</ele>
        <time>2014-01-31T09:50:31.000Z</time>
      </trkpt>
      <trkpt lat="45.55944" lon="6.58233">
        <ele>1754.4000244141</ele>
        <time>2014-01-31T09:50:32.000Z</time>
      </trkpt>
      <trkpt lat="45.55944" lon="6.58233">
        <ele>1754.4000244141</ele>
        <time>2014-01-31T09:50:33.000Z</time>
      </trkpt>
      <trkpt lat="45.55944" lon="6.58233">
        <ele>1754.4000244141</ele>
        <time>2014-01-31T09:50:34.000Z</time>
      </trkpt>
      <trkpt lat="45.55944" lon="6.58233">
        <ele>1754.4000244141</ele>
        <time>2014-01-31T09:50:35.000Z</time>
      </trkpt>
      <trkpt lat="45.55944" lon="6.58233">
        <ele>1754.4000244141</ele>
        <time>2014-01-31T09:50:36.000Z</time>
      </trkpt>
      <trkpt lat="45.55944" lon="6.58233">
        <ele>1754.1999511719</ele>
        <time>2014-01-31T09:50:37.000Z</time>
      </trkpt>
      <trkpt lat="45.55944" lon="6.58233">
        <ele>1754.1999511719</ele>
        <time>2014-01-31T09:50:38.000Z</time>
      </trkpt>
      <trkpt lat="45.55944" lon="6.58233">
        <ele>1754.1999511719</ele>
        <time>2014-01-31T09:50:39.000Z</time>
      </trkpt>
      <trkpt lat="45.55944" lon="6.58233">
        <ele>1754.1999511719</ele>
        <time>2014-01-31T09:50:40.000Z</time>
      </trkpt>
      <trkpt lat="45.55944" lon="6.58233">
        <ele>1754.1999511719</ele>
        <time>2014-01-31T09:50:41.000Z</time>
      </trkpt>
      <trkpt lat="45.55944" lon="6.58233">
        <ele>1754.1999511719</ele>
        <time>2014-01-31T09:50:42.000Z</time>
      </trkpt>
      <trkpt lat="45.55944" lon="6.58233">
        <ele>1754.1999511719</ele>
        <time>2014-01-31T09:50:43.000Z</time>
      </trkpt>
      <trkpt lat="45.55944" lon="6.58233">
        <ele>1754.4000244141</ele>
        <time>2014-01-31T09:50:44.000Z</time>
      </trkpt>
      <trkpt lat="45.55944" lon="6.58233">
        <ele>1754.4000244141</ele>
        <time>2014-01-31T09:50:45.000Z</time>
      </trkpt>
      <trkpt lat="45.55944" lon="6.58233">
        <ele>1754.4000244141</ele>
        <time>2014-01-31T09:50:46.000Z</time>
      </trkpt>
      <trkpt lat="45.55944" lon="6.58233">
        <ele>1754.5999755859</ele>
        <time>2014-01-31T09:50:47.000Z</time>
      </trkpt>
      <trkpt lat="45.55944" lon="6.58233">
        <ele>1754.5999755859</ele>
        <time>2014-01-31T09:50:48.000Z</time>
      </trkpt>
      <trkpt lat="45.55944" lon="6.58233">
        <ele>1754.5999755859</ele>
        <time>2014-01-31T09:50:49.000Z</time>
      </trkpt>
      <trkpt lat="45.55944" lon="6.58233">
        <ele>1754.5999755859</ele>
        <time>2014-01-31T09:50:50.000Z</time>
      </trkpt>
      <trkpt lat="45.55944" lon="6.58233">
        <ele>1754.5999755859</ele>
        <time>2014-01-31T09:50:51.000Z</time>
      </trkpt>
      <trkpt lat="45.55944" lon="6.58233">
        <ele>1754.5999755859</ele>
        <time>2014-01-31T09:50:52.000Z</time>
      </trkpt>
      <trkpt lat="45.55944" lon="6.58233">
        <ele>1754.5999755859</ele>
        <time>2014-01-31T09:50:53.000Z</time>
      </trkpt>
      <trkpt lat="45.55944" lon="6.58233">
        <ele>1754.4000244141</ele>
        <time>2014-01-31T09:50:54.000Z</time>
      </trkpt>
      <trkpt lat="45.55944" lon="6.58233">
        <ele>1754.4000244141</ele>
        <time>2014-01-31T09:50:55.000Z</time>
      </trkpt>
      <trkpt lat="45.55944" lon="6.58233">
        <ele>1754.4000244141</ele>
        <time>2014-01-31T09:50:56.000Z</time>
      </trkpt>
      <trkpt lat="45.55944" lon="6.58233">
        <ele>1754.4000244141</ele>
        <time>2014-01-31T09:50:57.000Z</time>
      </trkpt>
      <trkpt lat="45.55944" lon="6.58233">
        <ele>1754.4000244141</ele>
        <time>2014-01-31T09:50:58.000Z</time>
      </trkpt>
      <trkpt lat="45.55944" lon="6.58233">
        <ele>1754.1999511719</ele>
        <time>2014-01-31T09:50:59.000Z</time>
      </trkpt>
      <trkpt lat="45.55944" lon="6.58233">
        <ele>1754.1999511719</ele>
        <time>2014-01-31T09:51:00.000Z</time>
      </trkpt>
      <trkpt lat="45.55944" lon="6.58233">
        <ele>1754.1999511719</ele>
        <time>2014-01-31T09:51:01.000Z</time>
      </trkpt>
      <trkpt lat="45.55944" lon="6.58233">
        <ele>1754.1999511719</ele>
        <time>2014-01-31T09:51:02.000Z</time>
      </trkpt>
      <trkpt lat="45.55944" lon="6.58233">
        <ele>1754.1999511719</ele>
        <time>2014-01-31T09:51:03.000Z</time>
      </trkpt>
      <trkpt lat="45.55944" lon="6.58233">
        <ele>1754.1999511719</ele>
        <time>2014-01-31T09:51:04.000Z</time>
      </trkpt>
      <trkpt lat="45.55944" lon="6.58233">
        <ele>1754.1999511719</ele>
        <time>2014-01-31T09:51:05.000Z</time>
      </trkpt>
      <trkpt lat="45.55944" lon="6.58233">
        <ele>1754.1999511719</ele>
        <time>2014-01-31T09:51:06.000Z</time>
      </trkpt>
      <trkpt lat="45.55944" lon="6.58233">
        <ele>1754.1999511719</ele>
        <time>2014-01-31T09:51:07.000Z</time>
      </trkpt>
      <trkpt lat="45.55944" lon="6.58233">
        <ele>1754.1999511719</ele>
        <time>2014-01-31T09:51:08.000Z</time>
      </trkpt>
      <trkpt lat="45.55944" lon="6.58233">
        <ele>1754.1999511719</ele>
        <time>2014-01-31T09:51:09.000Z</time>
      </trkpt>
      <trkpt lat="45.55944" lon="6.58233">
        <ele>1754.1999511719</ele>
        <time>2014-01-31T09:51:11.000Z</time>
      </trkpt>
      <trkpt lat="45.55944" lon="6.58233">
        <ele>1754.1999511719</ele>
        <time>2014-01-31T09:51:12.000Z</time>
      </trkpt>
      <trkpt lat="45.55944" lon="6.58233">
        <ele>1754.1999511719</ele>
        <time>2014-01-31T09:51:13.000Z</time>
      </trkpt>
      <trkpt lat="45.55944" lon="6.58233">
        <ele>1754.4000244141</ele>
        <time>2014-01-31T09:51:14.000Z</time>
      </trkpt>
      <trkpt lat="45.55944" lon="6.58233">
        <ele>1754.4000244141</ele>
        <time>2014-01-31T09:51:15.000Z</time>
      </trkpt>
      <trkpt lat="45.55944" lon="6.58233">
        <ele>1754.4000244141</ele>
        <time>2014-01-31T09:51:16.000Z</time>
      </trkpt>
      <trkpt lat="45.55944" lon="6.58233">
        <ele>1754.4000244141</ele>
        <time>2014-01-31T09:51:17.000Z</time>
      </trkpt>
      <trkpt lat="45.55944" lon="6.58233">
        <ele>1754.4000244141</ele>
        <time>2014-01-31T09:51:18.000Z</time>
      </trkpt>
      <trkpt lat="45.55944" lon="6.58233">
        <ele>1754.4000244141</ele>
        <time>2014-01-31T09:51:19.000Z</time>
      </trkpt>
      <trkpt lat="45.55944" lon="6.58233">
        <ele>1754.4000244141</ele>
        <time>2014-01-31T09:51:20.000Z</time>
      </trkpt>
      <trkpt lat="45.55944" lon="6.58233">
        <ele>1754.1999511719</ele>
        <time>2014-01-31T09:51:21.000Z</time>
      </trkpt>
      <trkpt lat="45.55944" lon="6.58233">
        <ele>1754.1999511719</ele>
        <time>2014-01-31T09:51:22.000Z</time>
      </trkpt>
      <trkpt lat="45.55944" lon="6.58233">
        <ele>1754.1999511719</ele>
        <time>2014-01-31T09:51:23.000Z</time>
      </trkpt>
      <trkpt lat="45.55944" lon="6.58233">
        <ele>1754.1999511719</ele>
        <time>2014-01-31T09:51:24.000Z</time>
      </trkpt>
      <trkpt lat="45.55944" lon="6.58233">
        <ele>1754.1999511719</ele>
        <time>2014-01-31T09:51:25.000Z</time>
      </trkpt>
      <trkpt lat="45.55944" lon="6.58233">
        <ele>1754.1999511719</ele>
        <time>2014-01-31T09:51:29.000Z</time>
      </trkpt>
      <trkpt lat="45.55944" lon="6.58233">
        <ele>1754.1999511719</ele>
        <time>2014-01-31T09:51:30.000Z</time>
      </trkpt>
      <trkpt lat="45.55944" lon="6.58233">
        <ele>1754.1999511719</ele>
        <time>2014-01-31T09:51:31.000Z</time>
      </trkpt>
      <trkpt lat="45.55944" lon="6.58233">
        <ele>1754.1999511719</ele>
        <time>2014-01-31T09:51:32.000Z</time>
      </trkpt>
      <trkpt lat="45.55944" lon="6.58233">
        <ele>1754.1999511719</ele>
        <time>2014-01-31T09:51:34.000Z</time>
      </trkpt>
      <trkpt lat="45.55944" lon="6.58233">
        <ele>1754.1999511719</ele>
        <time>2014-01-31T09:51:35.000Z</time>
      </trkpt>
      <trkpt lat="45.55944" lon="6.58233">
        <ele>1754.1999511719</ele>
        <time>2014-01-31T09:51:36.000Z</time>
      </trkpt>
      <trkpt lat="45.55944" lon="6.58233">
        <ele>1754.1999511719</ele>
        <time>2014-01-31T09:51:37.000Z</time>
      </trkpt>
      <trkpt lat="45.55944" lon="6.58233">
        <ele>1754.1999511719</ele>
        <time>2014-01-31T09:51:38.000Z</time>
      </trkpt>
      <trkpt lat="45.55944" lon="6.58233">
        <ele>1754.1999511719</ele>
        <time>2014-01-31T09:51:39.000Z</time>
      </trkpt>
      <trkpt lat="45.55944" lon="6.58233">
        <ele>1754.1999511719</ele>
        <time>2014-01-31T09:51:40.000Z</time>
      </trkpt>
      <trkpt lat="45.55944" lon="6.58233">
        <ele>1754.1999511719</ele>
        <time>2014-01-31T09:51:41.000Z</time>
      </trkpt>
      <trkpt lat="45.55944" lon="6.58233">
        <ele>1754.1999511719</ele>
        <time>2014-01-31T09:51:42.000Z</time>
      </trkpt>
      <trkpt lat="45.55944" lon="6.58233">
        <ele>1754.1999511719</ele>
        <time>2014-01-31T09:51:43.000Z</time>
      </trkpt>
      <trkpt lat="45.55944" lon="6.58233">
        <ele>1754.1999511719</ele>
        <time>2014-01-31T09:51:44.000Z</time>
      </trkpt>
      <trkpt lat="45.55944" lon="6.58233">
        <ele>1754.1999511719</ele>
        <time>2014-01-31T09:51:45.000Z</time>
      </trkpt>
      <trkpt lat="45.55944" lon="6.58233">
        <ele>1754.1999511719</ele>
        <time>2014-01-31T09:51:46.000Z</time>
      </trkpt>
      <trkpt lat="45.55944" lon="6.58233">
        <ele>1754.1999511719</ele>
        <time>2014-01-31T09:51:47.000Z</time>
      </trkpt>
      <trkpt lat="45.55944" lon="6.58233">
        <ele>1754</ele>
        <time>2014-01-31T09:51:48.000Z</time>
      </trkpt>
      <trkpt lat="45.55944" lon="6.58232">
        <ele>1754.1999511719</ele>
        <time>2014-01-31T09:51:55.000Z</time>
      </trkpt>
      <trkpt lat="45.55944" lon="6.58232">
        <ele>1754.1999511719</ele>
        <time>2014-01-31T09:51:56.000Z</time>
      </trkpt>
      <trkpt lat="45.55944" lon="6.58232">
        <ele>1754.1999511719</ele>
        <time>2014-01-31T09:51:57.000Z</time>
      </trkpt>
      <trkpt lat="45.55944" lon="6.58232">
        <ele>1754.1999511719</ele>
        <time>2014-01-31T09:51:59.000Z</time>
      </trkpt>
      <trkpt lat="45.55944" lon="6.58232">
        <ele>1754.1999511719</ele>
        <time>2014-01-31T09:52:00.000Z</time>
      </trkpt>
      <trkpt lat="45.55944" lon="6.58232">
        <ele>1754.1999511719</ele>
        <time>2014-01-31T09:52:01.000Z</time>
      </trkpt>
      <trkpt lat="45.55944" lon="6.58232">
        <ele>1754.1999511719</ele>
        <time>2014-01-31T09:52:02.000Z</time>
      </trkpt>
      <trkpt lat="45.55944" lon="6.58232">
        <ele>1754</ele>
        <time>2014-01-31T09:52:03.000Z</time>
      </trkpt>
      <trkpt lat="45.55944" lon="6.58232">
        <ele>1754</ele>
        <time>2014-01-31T09:52:04.000Z</time>
      </trkpt>
      <trkpt lat="45.55944" lon="6.58232">
        <ele>1754</ele>
        <time>2014-01-31T09:52:05.000Z</time>
      </trkpt>
      <trkpt lat="45.55944" lon="6.58232">
        <ele>1754</ele>
        <time>2014-01-31T09:52:06.000Z</time>
      </trkpt>
      <trkpt lat="45.55944" lon="6.58232">
        <ele>1754</ele>
        <time>2014-01-31T09:52:08.000Z</time>
      </trkpt>
      <trkpt lat="45.55944" lon="6.58232">
        <ele>1754</ele>
        <time>2014-01-31T09:52:09.000Z</time>
      </trkpt>
      <trkpt lat="45.55944" lon="6.58232">
        <ele>1754</ele>
        <time>2014-01-31T09:52:10.000Z</time>
      </trkpt>
      <trkpt lat="45.55944" lon="6.58232">
        <ele>1754</ele>
        <time>2014-01-31T09:52:12.000Z</time>
      </trkpt>
      <trkpt lat="45.55944" lon="6.58232">
        <ele>1754</ele>
        <time>2014-01-31T09:52:13.000Z</time>
      </trkpt>
      <trkpt lat="45.55944" lon="6.58232">
        <ele>1754</ele>
        <time>2014-01-31T09:52:14.000Z</time>
      </trkpt>
      <trkpt lat="45.55944" lon="6.58232">
        <ele>1754</ele>
        <time>2014-01-31T09:52:15.000Z</time>
      </trkpt>
      <trkpt lat="45.55944" lon="6.58232">
        <ele>1754</ele>
        <time>2014-01-31T09:52:16.000Z</time>
      </trkpt>
      <trkpt lat="45.55944" lon="6.58232">
        <ele>1754</ele>
        <time>2014-01-31T09:52:17.000Z</time>
      </trkpt>
      <trkpt lat="45.55944" lon="6.58232">
        <ele>1754</ele>
        <time>2014-01-31T09:52:20.000Z</time>
      </trkpt>
      <trkpt lat="45.55944" lon="6.58232">
        <ele>1754</ele>
        <time>2014-01-31T09:52:21.000Z</time>
      </trkpt>
      <trkpt lat="45.55944" lon="6.58232">
        <ele>1754</ele>
        <time>2014-01-31T09:52:22.000Z</time>
      </trkpt>
      <trkpt lat="45.55944" lon="6.58232">
        <ele>1754</ele>
        <time>2014-01-31T09:52:23.000Z</time>
      </trkpt>
      <trkpt lat="45.55944" lon="6.58232">
        <ele>1754</ele>
        <time>2014-01-31T09:52:24.000Z</time>
      </trkpt>
      <trkpt lat="45.55944" lon="6.58232">
        <ele>1753.8000488281</ele>
        <time>2014-01-31T09:52:25.000Z</time>
      </trkpt>
      <trkpt lat="45.55944" lon="6.58232">
        <ele>1753.8000488281</ele>
        <time>2014-01-31T09:52:26.000Z</time>
      </trkpt>
      <trkpt lat="45.55944" lon="6.58232">
        <ele>1753.8000488281</ele>
        <time>2014-01-31T09:52:27.000Z</time>
      </trkpt>
      <trkpt lat="45.55944" lon="6.58232">
        <ele>1753.8000488281</ele>
        <time>2014-01-31T09:52:28.000Z</time>
      </trkpt>
      <trkpt lat="45.55944" lon="6.58232">
        <ele>1753.8000488281</ele>
        <time>2014-01-31T09:52:29.000Z</time>
      </trkpt>
      <trkpt lat="45.55944" lon="6.58232">
        <ele>1753.8000488281</ele>
        <time>2014-01-31T09:52:33.000Z</time>
      </trkpt>
      <trkpt lat="45.55944" lon="6.58232">
        <ele>1753.8000488281</ele>
        <time>2014-01-31T09:52:35.000Z</time>
      </trkpt>
      <trkpt lat="45.55944" lon="6.58232">
        <ele>1753.8000488281</ele>
        <time>2014-01-31T09:52:36.000Z</time>
      </trkpt>
      <trkpt lat="45.55944" lon="6.58232">
        <ele>1753.8000488281</ele>
        <time>2014-01-31T09:52:37.000Z</time>
      </trkpt>
      <trkpt lat="45.55944" lon="6.58232">
        <ele>1753.8000488281</ele>
        <time>2014-01-31T09:52:38.000Z</time>
      </trkpt>
      <trkpt lat="45.55944" lon="6.58232">
        <ele>1754</ele>
        <time>2014-01-31T09:52:39.000Z</time>
      </trkpt>
      <trkpt lat="45.55944" lon="6.58232">
        <ele>1754.1999511719</ele>
        <time>2014-01-31T09:52:40.000Z</time>
      </trkpt>
      <trkpt lat="45.55944" lon="6.58232">
        <ele>1754.4000244141</ele>
        <time>2014-01-31T09:52:41.000Z</time>
      </trkpt>
      <trkpt lat="45.55944" lon="6.58232">
        <ele>1754.4000244141</ele>
        <time>2014-01-31T09:52:42.000Z</time>
      </trkpt>
      <trkpt lat="45.55945" lon="6.58231">
        <ele>1754.5999755859</ele>
        <time>2014-01-31T09:52:43.000Z</time>
      </trkpt>
      <trkpt lat="45.55945" lon="6.5823">
        <ele>1754.8000488281</ele>
        <time>2014-01-31T09:52:44.000Z</time>
      </trkpt>
      <trkpt lat="45.55945" lon="6.5823">
        <ele>1754.8000488281</ele>
        <time>2014-01-31T09:52:45.000Z</time>
      </trkpt>
      <trkpt lat="45.55945" lon="6.58229">
        <ele>1754.8000488281</ele>
        <time>2014-01-31T09:52:46.000Z</time>
      </trkpt>
      <trkpt lat="45.55945" lon="6.58226">
        <ele>1754.5999755859</ele>
        <time>2014-01-31T09:52:47.000Z</time>
      </trkpt>
      <trkpt lat="45.55945" lon="6.58225">
        <ele>1754.5999755859</ele>
        <time>2014-01-31T09:52:48.000Z</time>
      </trkpt>
      <trkpt lat="45.55945" lon="6.58223">
        <ele>1754.8000488281</ele>
        <time>2014-01-31T09:52:49.000Z</time>
      </trkpt>
      <trkpt lat="45.55945" lon="6.58222">
        <ele>1755</ele>
        <time>2014-01-31T09:52:50.000Z</time>
      </trkpt>
      <trkpt lat="45.55945" lon="6.58221">
        <ele>1755.1999511719</ele>
        <time>2014-01-31T09:52:51.000Z</time>
      </trkpt>
      <trkpt lat="45.55946" lon="6.58218">
        <ele>1755.4000244141</ele>
        <time>2014-01-31T09:52:52.000Z</time>
      </trkpt>
      <trkpt lat="45.55946" lon="6.58218">
        <ele>1755.5999755859</ele>
        <time>2014-01-31T09:52:53.000Z</time>
      </trkpt>
      <trkpt lat="45.55946" lon="6.58216">
        <ele>1755.8000488281</ele>
        <time>2014-01-31T09:52:54.000Z</time>
      </trkpt>
      <trkpt lat="45.55946" lon="6.58216">
        <ele>1755.8000488281</ele>
        <time>2014-01-31T09:52:55.000Z</time>
      </trkpt>
      <trkpt lat="45.55946" lon="6.58215">
        <ele>1755.8000488281</ele>
        <time>2014-01-31T09:52:56.000Z</time>
      </trkpt>
      <trkpt lat="45.55946" lon="6.58215">
        <ele>1756</ele>
        <time>2014-01-31T09:52:57.000Z</time>
      </trkpt>
      <trkpt lat="45.55946" lon="6.58214">
        <ele>1756.4000244141</ele>
        <time>2014-01-31T09:52:58.000Z</time>
      </trkpt>
      <trkpt lat="45.55946" lon="6.58214">
        <ele>1756.5999755859</ele>
        <time>2014-01-31T09:52:59.000Z</time>
      </trkpt>
      <trkpt lat="45.55946" lon="6.58213">
        <ele>1757</ele>
        <time>2014-01-31T09:53:00.000Z</time>
      </trkpt>
      <trkpt lat="45.55947" lon="6.58211">
        <ele>1757.1999511719</ele>
        <time>2014-01-31T09:53:01.000Z</time>
      </trkpt>
      <trkpt lat="45.55947" lon="6.5821">
        <ele>1757.5999755859</ele>
        <time>2014-01-31T09:53:02.000Z</time>
      </trkpt>
      <trkpt lat="45.55948" lon="6.58209">
        <ele>1757.8000488281</ele>
        <time>2014-01-31T09:53:03.000Z</time>
      </trkpt>
      <trkpt lat="45.55948" lon="6.58208">
        <ele>1758</ele>
        <time>2014-01-31T09:53:04.000Z</time>
      </trkpt>
      <trkpt lat="45.55948" lon="6.58207">
        <ele>1758</ele>
        <time>2014-01-31T09:53:05.000Z</time>
      </trkpt>
      <trkpt lat="45.55948" lon="6.58205">
        <ele>1758.1999511719</ele>
        <time>2014-01-31T09:53:06.000Z</time>
      </trkpt>
      <trkpt lat="45.55948" lon="6.58203">
        <ele>1758.4000244141</ele>
        <time>2014-01-31T09:53:07.000Z</time>
      </trkpt>
      <trkpt lat="45.55949" lon="6.58202">
        <ele>1758.5999755859</ele>
        <time>2014-01-31T09:53:08.000Z</time>
      </trkpt>
      <trkpt lat="45.55949" lon="6.58201">
        <ele>1759</ele>
        <time>2014-01-31T09:53:09.000Z</time>
      </trkpt>
      <trkpt lat="45.5595" lon="6.582">
        <ele>1759.1999511719</ele>
        <time>2014-01-31T09:53:10.000Z</time>
      </trkpt>
      <trkpt lat="45.5595" lon="6.58198">
        <ele>1759.4000244141</ele>
        <time>2014-01-31T09:53:11.000Z</time>
      </trkpt>
      <trkpt lat="45.5595" lon="6.58197">
        <ele>1759.5999755859</ele>
        <time>2014-01-31T09:53:12.000Z</time>
      </trkpt>
      <trkpt lat="45.5595" lon="6.58196">
        <ele>1759.8000488281</ele>
        <time>2014-01-31T09:53:13.000Z</time>
      </trkpt>
      <trkpt lat="45.5595" lon="6.58195">
        <ele>1759.8000488281</ele>
        <time>2014-01-31T09:53:14.000Z</time>
      </trkpt>
      <trkpt lat="45.55951" lon="6.58194">
        <ele>1760</ele>
        <time>2014-01-31T09:53:15.000Z</time>
      </trkpt>
      <trkpt lat="45.55951" lon="6.58193">
        <ele>1760.1999511719</ele>
        <time>2014-01-31T09:53:16.000Z</time>
      </trkpt>
      <trkpt lat="45.55951" lon="6.58193">
        <ele>1760.4000244141</ele>
        <time>2014-01-31T09:53:17.000Z</time>
      </trkpt>
      <trkpt lat="45.55951" lon="6.58192">
        <ele>1760.5999755859</ele>
        <time>2014-01-31T09:53:18.000Z</time>
      </trkpt>
      <trkpt lat="45.5595" lon="6.58192">
        <ele>1760.8000488281</ele>
        <time>2014-01-31T09:53:19.000Z</time>
      </trkpt>
      <trkpt lat="45.55949" lon="6.58191">
        <ele>1761</ele>
        <time>2014-01-31T09:53:20.000Z</time>
      </trkpt>
      <trkpt lat="45.55949" lon="6.5819">
        <ele>1761</ele>
        <time>2014-01-31T09:53:21.000Z</time>
      </trkpt>
      <trkpt lat="45.55949" lon="6.58189">
        <ele>1761.1999511719</ele>
        <time>2014-01-31T09:53:22.000Z</time>
      </trkpt>
      <trkpt lat="45.55949" lon="6.58188">
        <ele>1761.5999755859</ele>
        <time>2014-01-31T09:53:23.000Z</time>
      </trkpt>
      <trkpt lat="45.55949" lon="6.58187">
        <ele>1761.8000488281</ele>
        <time>2014-01-31T09:53:24.000Z</time>
      </trkpt>
      <trkpt lat="45.55949" lon="6.58187">
        <ele>1762</ele>
        <time>2014-01-31T09:53:25.000Z</time>
      </trkpt>
      <trkpt lat="45.55949" lon="6.58186">
        <ele>1762.4000244141</ele>
        <time>2014-01-31T09:53:26.000Z</time>
      </trkpt>
      <trkpt lat="45.5595" lon="6.58185">
        <ele>1762.5999755859</ele>
        <time>2014-01-31T09:53:27.000Z</time>
      </trkpt>
      <trkpt lat="45.5595" lon="6.58182">
        <ele>1762.8000488281</ele>
        <time>2014-01-31T09:53:28.000Z</time>
      </trkpt>
      <trkpt lat="45.5595" lon="6.58182">
        <ele>1763</ele>
        <time>2014-01-31T09:53:29.000Z</time>
      </trkpt>
      <trkpt lat="45.55951" lon="6.58181">
        <ele>1763.1999511719</ele>
        <time>2014-01-31T09:53:30.000Z</time>
      </trkpt>
      <trkpt lat="45.55951" lon="6.5818">
        <ele>1763.4000244141</ele>
        <time>2014-01-31T09:53:31.000Z</time>
      </trkpt>
      <trkpt lat="45.55951" lon="6.58179">
        <ele>1763.5999755859</ele>
        <time>2014-01-31T09:53:32.000Z</time>
      </trkpt>
      <trkpt lat="45.55951" lon="6.58178">
        <ele>1763.8000488281</ele>
        <time>2014-01-31T09:53:33.000Z</time>
      </trkpt>
      <trkpt lat="45.55951" lon="6.58177">
        <ele>1764</ele>
        <time>2014-01-31T09:53:34.000Z</time>
      </trkpt>
      <trkpt lat="45.55951" lon="6.58177">
        <ele>1764.1999511719</ele>
        <time>2014-01-31T09:53:35.000Z</time>
      </trkpt>
      <trkpt lat="45.55951" lon="6.58177">
        <ele>1764.5999755859</ele>
        <time>2014-01-31T09:53:36.000Z</time>
      </trkpt>
      <trkpt lat="45.55951" lon="6.58176">
        <ele>1764.8000488281</ele>
        <time>2014-01-31T09:53:37.000Z</time>
      </trkpt>
      <trkpt lat="45.55951" lon="6.58175">
        <ele>1765</ele>
        <time>2014-01-31T09:53:38.000Z</time>
      </trkpt>
      <trkpt lat="45.55951" lon="6.58174">
        <ele>1765.4000244141</ele>
        <time>2014-01-31T09:53:39.000Z</time>
      </trkpt>
      <trkpt lat="45.55951" lon="6.58173">
        <ele>1765.5999755859</ele>
        <time>2014-01-31T09:53:40.000Z</time>
      </trkpt>
      <trkpt lat="45.55951" lon="6.58171">
        <ele>1765.5999755859</ele>
        <time>2014-01-31T09:53:41.000Z</time>
      </trkpt>
      <trkpt lat="45.5595" lon="6.58171">
        <ele>1765.8000488281</ele>
        <time>2014-01-31T09:53:42.000Z</time>
      </trkpt>
      <trkpt lat="45.5595" lon="6.5817">
        <ele>1766</ele>
        <time>2014-01-31T09:53:43.000Z</time>
      </trkpt>
      <trkpt lat="45.5595" lon="6.58169">
        <ele>1766</ele>
        <time>2014-01-31T09:53:44.000Z</time>
      </trkpt>
      <trkpt lat="45.5595" lon="6.58169">
        <ele>1766.4000244141</ele>
        <time>2014-01-31T09:53:45.000Z</time>
      </trkpt>
      <trkpt lat="45.5595" lon="6.58166">
        <ele>1766.5999755859</ele>
        <time>2014-01-31T09:53:46.000Z</time>
      </trkpt>
      <trkpt lat="45.5595" lon="6.58165">
        <ele>1766.8000488281</ele>
        <time>2014-01-31T09:53:47.000Z</time>
      </trkpt>
      <trkpt lat="45.5595" lon="6.58166">
        <ele>1767.1999511719</ele>
        <time>2014-01-31T09:53:48.000Z</time>
      </trkpt>
      <trkpt lat="45.5595" lon="6.58165">
        <ele>1767.4000244141</ele>
        <time>2014-01-31T09:53:49.000Z</time>
      </trkpt>
      <trkpt lat="45.5595" lon="6.58164">
        <ele>1767.4000244141</ele>
        <time>2014-01-31T09:53:50.000Z</time>
      </trkpt>
      <trkpt lat="45.5595" lon="6.58162">
        <ele>1767.4000244141</ele>
        <time>2014-01-31T09:53:51.000Z</time>
      </trkpt>
      <trkpt lat="45.5595" lon="6.58162">
        <ele>1767.8000488281</ele>
        <time>2014-01-31T09:53:52.000Z</time>
      </trkpt>
      <trkpt lat="45.5595" lon="6.5816">
        <ele>1768.1999511719</ele>
        <time>2014-01-31T09:53:53.000Z</time>
      </trkpt>
      <trkpt lat="45.55951" lon="6.58159">
        <ele>1768.5999755859</ele>
        <time>2014-01-31T09:53:54.000Z</time>
      </trkpt>
      <trkpt lat="45.55952" lon="6.58158">
        <ele>1769</ele>
        <time>2014-01-31T09:53:55.000Z</time>
      </trkpt>
      <trkpt lat="45.55953" lon="6.58158">
        <ele>1769.1999511719</ele>
        <time>2014-01-31T09:53:56.000Z</time>
      </trkpt>
      <trkpt lat="45.55953" lon="6.58158">
        <ele>1769.4000244141</ele>
        <time>2014-01-31T09:53:57.000Z</time>
      </trkpt>
      <trkpt lat="45.55954" lon="6.58157">
        <ele>1769.5999755859</ele>
        <time>2014-01-31T09:53:58.000Z</time>
      </trkpt>
      <trkpt lat="45.55954" lon="6.58157">
        <ele>1769.8000488281</ele>
        <time>2014-01-31T09:53:59.000Z</time>
      </trkpt>
      <trkpt lat="45.55954" lon="6.58157">
        <ele>1770</ele>
        <time>2014-01-31T09:54:00.000Z</time>
      </trkpt>
      <trkpt lat="45.55954" lon="6.58157">
        <ele>1770.4000244141</ele>
        <time>2014-01-31T09:54:01.000Z</time>
      </trkpt>
      <trkpt lat="45.55955" lon="6.58156">
        <ele>1770.5999755859</ele>
        <time>2014-01-31T09:54:02.000Z</time>
      </trkpt>
      <trkpt lat="45.55956" lon="6.58154">
        <ele>1770.8000488281</ele>
        <time>2014-01-31T09:54:03.000Z</time>
      </trkpt>
      <trkpt lat="45.55956" lon="6.58154">
        <ele>1771</ele>
        <time>2014-01-31T09:54:04.000Z</time>
      </trkpt>
      <trkpt lat="45.55957" lon="6.58153">
        <ele>1771.1999511719</ele>
        <time>2014-01-31T09:54:05.000Z</time>
      </trkpt>
      <trkpt lat="45.55958" lon="6.58152">
        <ele>1771.4000244141</ele>
        <time>2014-01-31T09:54:06.000Z</time>
      </trkpt>
      <trkpt lat="45.55958" lon="6.58152">
        <ele>1771.5999755859</ele>
        <time>2014-01-31T09:54:07.000Z</time>
      </trkpt>
      <trkpt lat="45.55959" lon="6.5815">
        <ele>1771.8000488281</ele>
        <time>2014-01-31T09:54:08.000Z</time>
      </trkpt>
      <trkpt lat="45.55959" lon="6.5815">
        <ele>1772</ele>
        <time>2014-01-31T09:54:09.000Z</time>
      </trkpt>
      <trkpt lat="45.55959" lon="6.5815">
        <ele>1772.4000244141</ele>
        <time>2014-01-31T09:54:10.000Z</time>
      </trkpt>
      <trkpt lat="45.5596" lon="6.58147">
        <ele>1772.4000244141</ele>
        <time>2014-01-31T09:54:11.000Z</time>
      </trkpt>
      <trkpt lat="45.5596" lon="6.58147">
        <ele>1772.5999755859</ele>
        <time>2014-01-31T09:54:12.000Z</time>
      </trkpt>
      <trkpt lat="45.5596" lon="6.58145">
        <ele>1773</ele>
        <time>2014-01-31T09:54:13.000Z</time>
      </trkpt>
      <trkpt lat="45.5596" lon="6.58144">
        <ele>1773.1999511719</ele>
        <time>2014-01-31T09:54:14.000Z</time>
      </trkpt>
      <trkpt lat="45.5596" lon="6.58143">
        <ele>1773.4000244141</ele>
        <time>2014-01-31T09:54:15.000Z</time>
      </trkpt>
      <trkpt lat="45.55961" lon="6.5814">
        <ele>1773.5999755859</ele>
        <time>2014-01-31T09:54:16.000Z</time>
      </trkpt>
      <trkpt lat="45.55962" lon="6.5814">
        <ele>1773.8000488281</ele>
        <time>2014-01-31T09:54:17.000Z</time>
      </trkpt>
      <trkpt lat="45.55963" lon="6.58138">
        <ele>1774</ele>
        <time>2014-01-31T09:54:18.000Z</time>
      </trkpt>
      <trkpt lat="45.55964" lon="6.58137">
        <ele>1774</ele>
        <time>2014-01-31T09:54:19.000Z</time>
      </trkpt>
      <trkpt lat="45.55964" lon="6.58137">
        <ele>1774</ele>
        <time>2014-01-31T09:54:20.000Z</time>
      </trkpt>
      <trkpt lat="45.55965" lon="6.58135">
        <ele>1774.1999511719</ele>
        <time>2014-01-31T09:54:21.000Z</time>
      </trkpt>
      <trkpt lat="45.55966" lon="6.58134">
        <ele>1774.4000244141</ele>
        <time>2014-01-31T09:54:22.000Z</time>
      </trkpt>
      <trkpt lat="45.55965" lon="6.58134">
        <ele>1774.5999755859</ele>
        <time>2014-01-31T09:54:23.000Z</time>
      </trkpt>
      <trkpt lat="45.55966" lon="6.58131">
        <ele>1774.8000488281</ele>
        <time>2014-01-31T09:54:24.000Z</time>
      </trkpt>
      <trkpt lat="45.55967" lon="6.5813">
        <ele>1775</ele>
        <time>2014-01-31T09:54:25.000Z</time>
      </trkpt>
      <trkpt lat="45.55967" lon="6.58129">
        <ele>1775.1999511719</ele>
        <time>2014-01-31T09:54:26.000Z</time>
      </trkpt>
      <trkpt lat="45.55967" lon="6.5813">
        <ele>1775.4000244141</ele>
        <time>2014-01-31T09:54:27.000Z</time>
      </trkpt>
      <trkpt lat="45.55968" lon="6.58128">
        <ele>1775.5999755859</ele>
        <time>2014-01-31T09:54:28.000Z</time>
      </trkpt>
      <trkpt lat="45.55968" lon="6.58128">
        <ele>1775.5999755859</ele>
        <time>2014-01-31T09:54:29.000Z</time>
      </trkpt>
      <trkpt lat="45.55968" lon="6.58128">
        <ele>1776</ele>
        <time>2014-01-31T09:54:30.000Z</time>
      </trkpt>
      <trkpt lat="45.55969" lon="6.58127">
        <ele>1776.1999511719</ele>
        <time>2014-01-31T09:54:31.000Z</time>
      </trkpt>
      <trkpt lat="45.55969" lon="6.58127">
        <ele>1776.4000244141</ele>
        <time>2014-01-31T09:54:32.000Z</time>
      </trkpt>
      <trkpt lat="45.55969" lon="6.58127">
        <ele>1776.5999755859</ele>
        <time>2014-01-31T09:54:33.000Z</time>
      </trkpt>
      <trkpt lat="45.5597" lon="6.58127">
        <ele>1776.8000488281</ele>
        <time>2014-01-31T09:54:34.000Z</time>
      </trkpt>
      <trkpt lat="45.5597" lon="6.58126">
        <ele>1776.8000488281</ele>
        <time>2014-01-31T09:54:35.000Z</time>
      </trkpt>
      <trkpt lat="45.55971" lon="6.58122">
        <ele>1777</ele>
        <time>2014-01-31T09:54:36.000Z</time>
      </trkpt>
      <trkpt lat="45.55971" lon="6.58123">
        <ele>1777.4000244141</ele>
        <time>2014-01-31T09:54:37.000Z</time>
      </trkpt>
      <trkpt lat="45.55971" lon="6.58121">
        <ele>1777.5999755859</ele>
        <time>2014-01-31T09:54:38.000Z</time>
      </trkpt>
      <trkpt lat="45.55971" lon="6.58121">
        <ele>1778</ele>
        <time>2014-01-31T09:54:39.000Z</time>
      </trkpt>
      <trkpt lat="45.55971" lon="6.5812">
        <ele>1778.1999511719</ele>
        <time>2014-01-31T09:54:40.000Z</time>
      </trkpt>
      <trkpt lat="45.55971" lon="6.58117">
        <ele>1778.1999511719</ele>
        <time>2014-01-31T09:54:41.000Z</time>
      </trkpt>
      <trkpt lat="45.55971" lon="6.58117">
        <ele>1778.4000244141</ele>
        <time>2014-01-31T09:54:42.000Z</time>
      </trkpt>
      <trkpt lat="45.55971" lon="6.58116">
        <ele>1778.5999755859</ele>
        <time>2014-01-31T09:54:43.000Z</time>
      </trkpt>
      <trkpt lat="45.55971" lon="6.58115">
        <ele>1778.8000488281</ele>
        <time>2014-01-31T09:54:44.000Z</time>
      </trkpt>
      <trkpt lat="45.55971" lon="6.58115">
        <ele>1779.1999511719</ele>
        <time>2014-01-31T09:54:45.000Z</time>
      </trkpt>
      <trkpt lat="45.55971" lon="6.58113">
        <ele>1779.4000244141</ele>
        <time>2014-01-31T09:54:46.000Z</time>
      </trkpt>
      <trkpt lat="45.55971" lon="6.58113">
        <ele>1779.5999755859</ele>
        <time>2014-01-31T09:54:47.000Z</time>
      </trkpt>
      <trkpt lat="45.55971" lon="6.58112">
        <ele>1779.8000488281</ele>
        <time>2014-01-31T09:54:48.000Z</time>
      </trkpt>
      <trkpt lat="45.55971" lon="6.58111">
        <ele>1780</ele>
        <time>2014-01-31T09:54:49.000Z</time>
      </trkpt>
      <trkpt lat="45.55971" lon="6.5811">
        <ele>1780.1999511719</ele>
        <time>2014-01-31T09:54:50.000Z</time>
      </trkpt>
      <trkpt lat="45.55971" lon="6.58109">
        <ele>1780.5999755859</ele>
        <time>2014-01-31T09:54:51.000Z</time>
      </trkpt>
      <trkpt lat="45.55971" lon="6.58108">
        <ele>1781</ele>
        <time>2014-01-31T09:54:52.000Z</time>
      </trkpt>
      <trkpt lat="45.55971" lon="6.58106">
        <ele>1781.4000244141</ele>
        <time>2014-01-31T09:54:53.000Z</time>
      </trkpt>
      <trkpt lat="45.55971" lon="6.58105">
        <ele>1781.8000488281</ele>
        <time>2014-01-31T09:54:54.000Z</time>
      </trkpt>
      <trkpt lat="45.55971" lon="6.58104">
        <ele>1781.8000488281</ele>
        <time>2014-01-31T09:54:55.000Z</time>
      </trkpt>
      <trkpt lat="45.55972" lon="6.58104">
        <ele>1782</ele>
        <time>2014-01-31T09:54:56.000Z</time>
      </trkpt>
      <trkpt lat="45.55972" lon="6.58103">
        <ele>1782.1999511719</ele>
        <time>2014-01-31T09:54:57.000Z</time>
      </trkpt>
      <trkpt lat="45.55973" lon="6.58101">
        <ele>1782.1999511719</ele>
        <time>2014-01-31T09:54:58.000Z</time>
      </trkpt>
      <trkpt lat="45.55972" lon="6.58101">
        <ele>1782.5999755859</ele>
        <time>2014-01-31T09:54:59.000Z</time>
      </trkpt>
      <trkpt lat="45.55972" lon="6.581">
        <ele>1782.8000488281</ele>
        <time>2014-01-31T09:55:00.000Z</time>
      </trkpt>
      <trkpt lat="45.55972" lon="6.58101">
        <ele>1783.1999511719</ele>
        <time>2014-01-31T09:55:01.000Z</time>
      </trkpt>
      <trkpt lat="45.55972" lon="6.58101">
        <ele>1783.4000244141</ele>
        <time>2014-01-31T09:55:02.000Z</time>
      </trkpt>
      <trkpt lat="45.55972" lon="6.58101">
        <ele>1783.8000488281</ele>
        <time>2014-01-31T09:55:03.000Z</time>
      </trkpt>
      <trkpt lat="45.55972" lon="6.58101">
        <ele>1784</ele>
        <time>2014-01-31T09:55:04.000Z</time>
      </trkpt>
      <trkpt lat="45.55973" lon="6.58099">
        <ele>1784.1999511719</ele>
        <time>2014-01-31T09:55:05.000Z</time>
      </trkpt>
      <trkpt lat="45.55973" lon="6.581">
        <ele>1784.4000244141</ele>
        <time>2014-01-31T09:55:06.000Z</time>
      </trkpt>
      <trkpt lat="45.55974" lon="6.58097">
        <ele>1784.5999755859</ele>
        <time>2014-01-31T09:55:07.000Z</time>
      </trkpt>
      <trkpt lat="45.55974" lon="6.58097">
        <ele>1784.8000488281</ele>
        <time>2014-01-31T09:55:08.000Z</time>
      </trkpt>
      <trkpt lat="45.55974" lon="6.58096">
        <ele>1785.1999511719</ele>
        <time>2014-01-31T09:55:09.000Z</time>
      </trkpt>
      <trkpt lat="45.55975" lon="6.58094">
        <ele>1785.4000244141</ele>
        <time>2014-01-31T09:55:10.000Z</time>
      </trkpt>
      <trkpt lat="45.55975" lon="6.58094">
        <ele>1785.5999755859</ele>
        <time>2014-01-31T09:55:11.000Z</time>
      </trkpt>
      <trkpt lat="45.55975" lon="6.58091">
        <ele>1785.5999755859</ele>
        <time>2014-01-31T09:55:12.000Z</time>
      </trkpt>
      <trkpt lat="45.55976" lon="6.58091">
        <ele>1785.8000488281</ele>
        <time>2014-01-31T09:55:13.000Z</time>
      </trkpt>
      <trkpt lat="45.55976" lon="6.5809">
        <ele>1786</ele>
        <time>2014-01-31T09:55:14.000Z</time>
      </trkpt>
      <trkpt lat="45.55977" lon="6.58088">
        <ele>1786.4000244141</ele>
        <time>2014-01-31T09:55:15.000Z</time>
      </trkpt>
      <trkpt lat="45.55977" lon="6.58088">
        <ele>1786.5999755859</ele>
        <time>2014-01-31T09:55:16.000Z</time>
      </trkpt>
      <trkpt lat="45.55978" lon="6.58087">
        <ele>1786.8000488281</ele>
        <time>2014-01-31T09:55:17.000Z</time>
      </trkpt>
      <trkpt lat="45.55978" lon="6.58087">
        <ele>1787</ele>
        <time>2014-01-31T09:55:18.000Z</time>
      </trkpt>
      <trkpt lat="45.55979" lon="6.58086">
        <ele>1787</ele>
        <time>2014-01-31T09:55:19.000Z</time>
      </trkpt>
      <trkpt lat="45.55979" lon="6.58083">
        <ele>1787.1999511719</ele>
        <time>2014-01-31T09:55:20.000Z</time>
      </trkpt>
      <trkpt lat="45.5598" lon="6.58081">
        <ele>1787.1999511719</ele>
        <time>2014-01-31T09:55:21.000Z</time>
      </trkpt>
      <trkpt lat="45.5598" lon="6.58081">
        <ele>1787.1999511719</ele>
        <time>2014-01-31T09:55:22.000Z</time>
      </trkpt>
      <trkpt lat="45.5598" lon="6.58078">
        <ele>1787.4000244141</ele>
        <time>2014-01-31T09:55:24.000Z</time>
      </trkpt>
      <trkpt lat="45.5598" lon="6.58077">
        <ele>1787.4000244141</ele>
        <time>2014-01-31T09:55:25.000Z</time>
      </trkpt>
      <trkpt lat="45.5598" lon="6.58074">
        <ele>1787.4000244141</ele>
        <time>2014-01-31T09:55:26.000Z</time>
      </trkpt>
      <trkpt lat="45.55981" lon="6.58072">
        <ele>1787.5999755859</ele>
        <time>2014-01-31T09:55:27.000Z</time>
      </trkpt>
      <trkpt lat="45.55981" lon="6.58071">
        <ele>1787.5999755859</ele>
        <time>2014-01-31T09:55:28.000Z</time>
      </trkpt>
      <trkpt lat="45.55981" lon="6.58069">
        <ele>1787.8000488281</ele>
        <time>2014-01-31T09:55:29.000Z</time>
      </trkpt>
      <trkpt lat="45.55981" lon="6.58069">
        <ele>1787.8000488281</ele>
        <time>2014-01-31T09:55:30.000Z</time>
      </trkpt>
      <trkpt lat="45.55982" lon="6.58067">
        <ele>1788</ele>
        <time>2014-01-31T09:55:31.000Z</time>
      </trkpt>
      <trkpt lat="45.55982" lon="6.58067">
        <ele>1788</ele>
        <time>2014-01-31T09:55:32.000Z</time>
      </trkpt>
      <trkpt lat="45.55982" lon="6.58066">
        <ele>1788.4000244141</ele>
        <time>2014-01-31T09:55:33.000Z</time>
      </trkpt>
      <trkpt lat="45.55982" lon="6.58064">
        <ele>1788.5999755859</ele>
        <time>2014-01-31T09:55:34.000Z</time>
      </trkpt>
      <trkpt lat="45.55983" lon="6.58062">
        <ele>1788.8000488281</ele>
        <time>2014-01-31T09:55:35.000Z</time>
      </trkpt>
      <trkpt lat="45.55983" lon="6.58061">
        <ele>1789</ele>
        <time>2014-01-31T09:55:36.000Z</time>
      </trkpt>
      <trkpt lat="45.55983" lon="6.58059">
        <ele>1789</ele>
        <time>2014-01-31T09:55:37.000Z</time>
      </trkpt>
      <trkpt lat="45.55983" lon="6.58057">
        <ele>1789.1999511719</ele>
        <time>2014-01-31T09:55:38.000Z</time>
      </trkpt>
      <trkpt lat="45.55984" lon="6.58056">
        <ele>1789.4000244141</ele>
        <time>2014-01-31T09:55:39.000Z</time>
      </trkpt>
      <trkpt lat="45.55984" lon="6.58055">
        <ele>1789.4000244141</ele>
        <time>2014-01-31T09:55:40.000Z</time>
      </trkpt>
      <trkpt lat="45.55984" lon="6.58055">
        <ele>1789.5999755859</ele>
        <time>2014-01-31T09:55:41.000Z</time>
      </trkpt>
      <trkpt lat="45.55984" lon="6.58054">
        <ele>1789.5999755859</ele>
        <time>2014-01-31T09:55:42.000Z</time>
      </trkpt>
      <trkpt lat="45.55984" lon="6.58053">
        <ele>1789.8000488281</ele>
        <time>2014-01-31T09:55:43.000Z</time>
      </trkpt>
      <trkpt lat="45.55984" lon="6.58051">
        <ele>1789.8000488281</ele>
        <time>2014-01-31T09:55:44.000Z</time>
      </trkpt>
      <trkpt lat="45.55984" lon="6.58049">
        <ele>1790</ele>
        <time>2014-01-31T09:55:45.000Z</time>
      </trkpt>
      <trkpt lat="45.55984" lon="6.58047">
        <ele>1790</ele>
        <time>2014-01-31T09:55:46.000Z</time>
      </trkpt>
      <trkpt lat="45.55984" lon="6.58046">
        <ele>1790.1999511719</ele>
        <time>2014-01-31T09:55:47.000Z</time>
      </trkpt>
      <trkpt lat="45.55983" lon="6.58047">
        <ele>1790.1999511719</ele>
        <time>2014-01-31T09:55:48.000Z</time>
      </trkpt>
      <trkpt lat="45.55983" lon="6.58046">
        <ele>1790.4000244141</ele>
        <time>2014-01-31T09:55:49.000Z</time>
      </trkpt>
      <trkpt lat="45.55983" lon="6.58043">
        <ele>1790.5999755859</ele>
        <time>2014-01-31T09:55:50.000Z</time>
      </trkpt>
      <trkpt lat="45.55983" lon="6.58042">
        <ele>1790.5999755859</ele>
        <time>2014-01-31T09:55:51.000Z</time>
      </trkpt>
      <trkpt lat="45.55982" lon="6.5804">
        <ele>1791</ele>
        <time>2014-01-31T09:55:52.000Z</time>
      </trkpt>
      <trkpt lat="45.55983" lon="6.58039">
        <ele>1791.4000244141</ele>
        <time>2014-01-31T09:55:53.000Z</time>
      </trkpt>
      <trkpt lat="45.55983" lon="6.58039">
        <ele>1791.5999755859</ele>
        <time>2014-01-31T09:55:54.000Z</time>
      </trkpt>
      <trkpt lat="45.55983" lon="6.58038">
        <ele>1791.8000488281</ele>
        <time>2014-01-31T09:55:55.000Z</time>
      </trkpt>
      <trkpt lat="45.55984" lon="6.58037">
        <ele>1792.1999511719</ele>
        <time>2014-01-31T09:55:56.000Z</time>
      </trkpt>
      <trkpt lat="45.55984" lon="6.58036">
        <ele>1792.4000244141</ele>
        <time>2014-01-31T09:55:57.000Z</time>
      </trkpt>
      <trkpt lat="45.55984" lon="6.58033">
        <ele>1792.8000488281</ele>
        <time>2014-01-31T09:55:58.000Z</time>
      </trkpt>
      <trkpt lat="45.55985" lon="6.58032">
        <ele>1793</ele>
        <time>2014-01-31T09:55:59.000Z</time>
      </trkpt>
      <trkpt lat="45.55985" lon="6.5803">
        <ele>1793.1999511719</ele>
        <time>2014-01-31T09:56:00.000Z</time>
      </trkpt>
      <trkpt lat="45.55985" lon="6.58029">
        <ele>1793.4000244141</ele>
        <time>2014-01-31T09:56:01.000Z</time>
      </trkpt>
      <trkpt lat="45.55986" lon="6.58028">
        <ele>1793.5999755859</ele>
        <time>2014-01-31T09:56:02.000Z</time>
      </trkpt>
      <trkpt lat="45.55985" lon="6.58027">
        <ele>1793.8000488281</ele>
        <time>2014-01-31T09:56:03.000Z</time>
      </trkpt>
      <trkpt lat="45.55985" lon="6.58027">
        <ele>1793.8000488281</ele>
        <time>2014-01-31T09:56:04.000Z</time>
      </trkpt>
      <trkpt lat="45.55985" lon="6.58027">
        <ele>1794</ele>
        <time>2014-01-31T09:56:05.000Z</time>
      </trkpt>
      <trkpt lat="45.55985" lon="6.58026">
        <ele>1794.4000244141</ele>
        <time>2014-01-31T09:56:06.000Z</time>
      </trkpt>
      <trkpt lat="45.55985" lon="6.58025">
        <ele>1794.5999755859</ele>
        <time>2014-01-31T09:56:07.000Z</time>
      </trkpt>
      <trkpt lat="45.55985" lon="6.58024">
        <ele>1794.8000488281</ele>
        <time>2014-01-31T09:56:08.000Z</time>
      </trkpt>
      <trkpt lat="45.55985" lon="6.58023">
        <ele>1794.8000488281</ele>
        <time>2014-01-31T09:56:09.000Z</time>
      </trkpt>
      <trkpt lat="45.55985" lon="6.58022">
        <ele>1795</ele>
        <time>2014-01-31T09:56:10.000Z</time>
      </trkpt>
      <trkpt lat="45.55985" lon="6.58021">
        <ele>1795.1999511719</ele>
        <time>2014-01-31T09:56:11.000Z</time>
      </trkpt>
      <trkpt lat="45.55984" lon="6.5802">
        <ele>1795.4000244141</ele>
        <time>2014-01-31T09:56:12.000Z</time>
      </trkpt>
      <trkpt lat="45.55984" lon="6.58019">
        <ele>1795.5999755859</ele>
        <time>2014-01-31T09:56:13.000Z</time>
      </trkpt>
      <trkpt lat="45.55983" lon="6.58016">
        <ele>1795.5999755859</ele>
        <time>2014-01-31T09:56:14.000Z</time>
      </trkpt>
      <trkpt lat="45.55983" lon="6.58016">
        <ele>1795.8000488281</ele>
        <time>2014-01-31T09:56:15.000Z</time>
      </trkpt>
      <trkpt lat="45.55983" lon="6.58015">
        <ele>1796</ele>
        <time>2014-01-31T09:56:16.000Z</time>
      </trkpt>
      <trkpt lat="45.55984" lon="6.58013">
        <ele>1796.4000244141</ele>
        <time>2014-01-31T09:56:17.000Z</time>
      </trkpt>
      <trkpt lat="45.55984" lon="6.58011">
        <ele>1796.5999755859</ele>
        <time>2014-01-31T09:56:18.000Z</time>
      </trkpt>
      <trkpt lat="45.55984" lon="6.5801">
        <ele>1797</ele>
        <time>2014-01-31T09:56:19.000Z</time>
      </trkpt>
      <trkpt lat="45.55985" lon="6.58008">
        <ele>1797.4000244141</ele>
        <time>2014-01-31T09:56:20.000Z</time>
      </trkpt>
      <trkpt lat="45.55985" lon="6.58008">
        <ele>1797.8000488281</ele>
        <time>2014-01-31T09:56:21.000Z</time>
      </trkpt>
      <trkpt lat="45.55985" lon="6.58006">
        <ele>1798</ele>
        <time>2014-01-31T09:56:22.000Z</time>
      </trkpt>
      <trkpt lat="45.55986" lon="6.58005">
        <ele>1798.4000244141</ele>
        <time>2014-01-31T09:56:23.000Z</time>
      </trkpt>
      <trkpt lat="45.55986" lon="6.58005">
        <ele>1798.5999755859</ele>
        <time>2014-01-31T09:56:24.000Z</time>
      </trkpt>
      <trkpt lat="45.55985" lon="6.58005">
        <ele>1798.8000488281</ele>
        <time>2014-01-31T09:56:25.000Z</time>
      </trkpt>
      <trkpt lat="45.55985" lon="6.58004">
        <ele>1799.1999511719</ele>
        <time>2014-01-31T09:56:26.000Z</time>
      </trkpt>
      <trkpt lat="45.55985" lon="6.58002">
        <ele>1799.4000244141</ele>
        <time>2014-01-31T09:56:27.000Z</time>
      </trkpt>
      <trkpt lat="45.55986" lon="6.58001">
        <ele>1799.4000244141</ele>
        <time>2014-01-31T09:56:28.000Z</time>
      </trkpt>
      <trkpt lat="45.55986" lon="6.58001">
        <ele>1799.5999755859</ele>
        <time>2014-01-31T09:56:29.000Z</time>
      </trkpt>
      <trkpt lat="45.55986" lon="6.57999">
        <ele>1799.8000488281</ele>
        <time>2014-01-31T09:56:30.000Z</time>
      </trkpt>
      <trkpt lat="45.55987" lon="6.57997">
        <ele>1800</ele>
        <time>2014-01-31T09:56:31.000Z</time>
      </trkpt>
      <trkpt lat="45.55987" lon="6.57996">
        <ele>1800.4000244141</ele>
        <time>2014-01-31T09:56:32.000Z</time>
      </trkpt>
      <trkpt lat="45.55987" lon="6.57997">
        <ele>1800.5999755859</ele>
        <time>2014-01-31T09:56:33.000Z</time>
      </trkpt>
      <trkpt lat="45.55987" lon="6.57996">
        <ele>1800.8000488281</ele>
        <time>2014-01-31T09:56:34.000Z</time>
      </trkpt>
      <trkpt lat="45.55987" lon="6.57995">
        <ele>1800.8000488281</ele>
        <time>2014-01-31T09:56:35.000Z</time>
      </trkpt>
      <trkpt lat="45.55987" lon="6.57995">
        <ele>1801.1999511719</ele>
        <time>2014-01-31T09:56:36.000Z</time>
      </trkpt>
      <trkpt lat="45.55987" lon="6.57994">
        <ele>1801.1999511719</ele>
        <time>2014-01-31T09:56:37.000Z</time>
      </trkpt>
      <trkpt lat="45.55987" lon="6.57992">
        <ele>1801.4000244141</ele>
        <time>2014-01-31T09:56:38.000Z</time>
      </trkpt>
      <trkpt lat="45.55987" lon="6.57992">
        <ele>1801.5999755859</ele>
        <time>2014-01-31T09:56:39.000Z</time>
      </trkpt>
      <trkpt lat="45.55986" lon="6.5799">
        <ele>1801.8000488281</ele>
        <time>2014-01-31T09:56:40.000Z</time>
      </trkpt>
      <trkpt lat="45.55987" lon="6.57988">
        <ele>1802</ele>
        <time>2014-01-31T09:56:41.000Z</time>
      </trkpt>
      <trkpt lat="45.55986" lon="6.57987">
        <ele>1802</ele>
        <time>2014-01-31T09:56:42.000Z</time>
      </trkpt>
      <trkpt lat="45.55986" lon="6.57985">
        <ele>1802.1999511719</ele>
        <time>2014-01-31T09:56:43.000Z</time>
      </trkpt>
      <trkpt lat="45.55987" lon="6.57984">
        <ele>1802.4000244141</ele>
        <time>2014-01-31T09:56:44.000Z</time>
      </trkpt>
      <trkpt lat="45.55986" lon="6.57983">
        <ele>1802.5999755859</ele>
        <time>2014-01-31T09:56:45.000Z</time>
      </trkpt>
      <trkpt lat="45.55986" lon="6.57982">
        <ele>1802.5999755859</ele>
        <time>2014-01-31T09:56:46.000Z</time>
      </trkpt>
      <trkpt lat="45.55986" lon="6.5798">
        <ele>1802.5999755859</ele>
        <time>2014-01-31T09:56:47.000Z</time>
      </trkpt>
      <trkpt lat="45.55986" lon="6.57979">
        <ele>1802.8000488281</ele>
        <time>2014-01-31T09:56:48.000Z</time>
      </trkpt>
      <trkpt lat="45.55986" lon="6.5798">
        <ele>1802.8000488281</ele>
        <time>2014-01-31T09:56:49.000Z</time>
      </trkpt>
      <trkpt lat="45.55985" lon="6.57979">
        <ele>1803</ele>
        <time>2014-01-31T09:56:50.000Z</time>
      </trkpt>
      <trkpt lat="45.55985" lon="6.57976">
        <ele>1803.1999511719</ele>
        <time>2014-01-31T09:56:51.000Z</time>
      </trkpt>
      <trkpt lat="45.55985" lon="6.57976">
        <ele>1803.1999511719</ele>
        <time>2014-01-31T09:56:52.000Z</time>
      </trkpt>
      <trkpt lat="45.55984" lon="6.57974">
        <ele>1803.4000244141</ele>
        <time>2014-01-31T09:56:53.000Z</time>
      </trkpt>
      <trkpt lat="45.55984" lon="6.57974">
        <ele>1803.5999755859</ele>
        <time>2014-01-31T09:56:54.000Z</time>
      </trkpt>
      <trkpt lat="45.55983" lon="6.57973">
        <ele>1803.8000488281</ele>
        <time>2014-01-31T09:56:55.000Z</time>
      </trkpt>
      <trkpt lat="45.55983" lon="6.57971">
        <ele>1804</ele>
        <time>2014-01-31T09:56:56.000Z</time>
      </trkpt>
      <trkpt lat="45.55983" lon="6.57971">
        <ele>1804.1999511719</ele>
        <time>2014-01-31T09:56:57.000Z</time>
      </trkpt>
      <trkpt lat="45.55982" lon="6.57969">
        <ele>1804.4000244141</ele>
        <time>2014-01-31T09:56:58.000Z</time>
      </trkpt>
      <trkpt lat="45.55982" lon="6.57969">
        <ele>1804.4000244141</ele>
        <time>2014-01-31T09:56:59.000Z</time>
      </trkpt>
      <trkpt lat="45.55981" lon="6.57969">
        <ele>1804.4000244141</ele>
        <time>2014-01-31T09:57:00.000Z</time>
      </trkpt>
      <trkpt lat="45.55981" lon="6.57968">
        <ele>1804.5999755859</ele>
        <time>2014-01-31T09:57:01.000Z</time>
      </trkpt>
      <trkpt lat="45.5598" lon="6.57967">
        <ele>1804.8000488281</ele>
        <time>2014-01-31T09:57:02.000Z</time>
      </trkpt>
      <trkpt lat="45.5598" lon="6.57967">
        <ele>1805</ele>
        <time>2014-01-31T09:57:03.000Z</time>
      </trkpt>
      <trkpt lat="45.55979" lon="6.57965">
        <ele>1805.1999511719</ele>
        <time>2014-01-31T09:57:04.000Z</time>
      </trkpt>
      <trkpt lat="45.55979" lon="6.57964">
        <ele>1805.4000244141</ele>
        <time>2014-01-31T09:57:05.000Z</time>
      </trkpt>
      <trkpt lat="45.55978" lon="6.57962">
        <ele>1805.4000244141</ele>
        <time>2014-01-31T09:57:06.000Z</time>
      </trkpt>
      <trkpt lat="45.55977" lon="6.57961">
        <ele>1805.4000244141</ele>
        <time>2014-01-31T09:57:08.000Z</time>
      </trkpt>
      <trkpt lat="45.55975" lon="6.57959">
        <ele>1805.4000244141</ele>
        <time>2014-01-31T09:57:09.000Z</time>
      </trkpt>
      <trkpt lat="45.55975" lon="6.5796">
        <ele>1805.4000244141</ele>
        <time>2014-01-31T09:57:10.000Z</time>
      </trkpt>
      <trkpt lat="45.55974" lon="6.5796">
        <ele>1805.4000244141</ele>
        <time>2014-01-31T09:57:11.000Z</time>
      </trkpt>
      <trkpt lat="45.55973" lon="6.57959">
        <ele>1805.5999755859</ele>
        <time>2014-01-31T09:57:12.000Z</time>
      </trkpt>
      <trkpt lat="45.55972" lon="6.57959">
        <ele>1805.5999755859</ele>
        <time>2014-01-31T09:57:13.000Z</time>
      </trkpt>
      <trkpt lat="45.5597" lon="6.57959">
        <ele>1805.8000488281</ele>
        <time>2014-01-31T09:57:14.000Z</time>
      </trkpt>
      <trkpt lat="45.5597" lon="6.57959">
        <ele>1806</ele>
        <time>2014-01-31T09:57:15.000Z</time>
      </trkpt>
      <trkpt lat="45.5597" lon="6.57959">
        <ele>1806.1999511719</ele>
        <time>2014-01-31T09:57:16.000Z</time>
      </trkpt>
      <trkpt lat="45.55969" lon="6.5796">
        <ele>1806.5999755859</ele>
        <time>2014-01-31T09:57:17.000Z</time>
      </trkpt>
      <trkpt lat="45.55968" lon="6.5796">
        <ele>1806.8000488281</ele>
        <time>2014-01-31T09:57:18.000Z</time>
      </trkpt>
      <trkpt lat="45.55968" lon="6.57961">
        <ele>1807.1999511719</ele>
        <time>2014-01-31T09:57:19.000Z</time>
      </trkpt>
      <trkpt lat="45.55967" lon="6.57961">
        <ele>1807.5999755859</ele>
        <time>2014-01-31T09:57:20.000Z</time>
      </trkpt>
      <trkpt lat="45.55965" lon="6.57962">
        <ele>1808</ele>
        <time>2014-01-31T09:57:21.000Z</time>
      </trkpt>
      <trkpt lat="45.55965" lon="6.57962">
        <ele>1808.1999511719</ele>
        <time>2014-01-31T09:57:22.000Z</time>
      </trkpt>
      <trkpt lat="45.55964" lon="6.57962">
        <ele>1808.4000244141</ele>
        <time>2014-01-31T09:57:23.000Z</time>
      </trkpt>
      <trkpt lat="45.55964" lon="6.57962">
        <ele>1808.5999755859</ele>
        <time>2014-01-31T09:57:24.000Z</time>
      </trkpt>
      <trkpt lat="45.55963" lon="6.57962">
        <ele>1808.8000488281</ele>
        <time>2014-01-31T09:57:25.000Z</time>
      </trkpt>
      <trkpt lat="45.55961" lon="6.57962">
        <ele>1809</ele>
        <time>2014-01-31T09:57:26.000Z</time>
      </trkpt>
      <trkpt lat="45.55961" lon="6.57962">
        <ele>1809</ele>
        <time>2014-01-31T09:57:27.000Z</time>
      </trkpt>
      <trkpt lat="45.55959" lon="6.5796">
        <ele>1809.5999755859</ele>
        <time>2014-01-31T09:57:28.000Z</time>
      </trkpt>
      <trkpt lat="45.55959" lon="6.5796">
        <ele>1809.5999755859</ele>
        <time>2014-01-31T09:57:29.000Z</time>
      </trkpt>
      <trkpt lat="45.55958" lon="6.5796">
        <ele>1809.8000488281</ele>
        <time>2014-01-31T09:57:30.000Z</time>
      </trkpt>
      <trkpt lat="45.55957" lon="6.57959">
        <ele>1810</ele>
        <time>2014-01-31T09:57:31.000Z</time>
      </trkpt>
      <trkpt lat="45.55956" lon="6.57959">
        <ele>1810.1999511719</ele>
        <time>2014-01-31T09:57:32.000Z</time>
      </trkpt>
      <trkpt lat="45.55954" lon="6.57958">
        <ele>1810.4000244141</ele>
        <time>2014-01-31T09:57:33.000Z</time>
      </trkpt>
      <trkpt lat="45.55954" lon="6.57958">
        <ele>1810.8000488281</ele>
        <time>2014-01-31T09:57:34.000Z</time>
      </trkpt>
      <trkpt lat="45.55954" lon="6.57958">
        <ele>1811.1999511719</ele>
        <time>2014-01-31T09:57:35.000Z</time>
      </trkpt>
      <trkpt lat="45.55952" lon="6.57958">
        <ele>1811.4000244141</ele>
        <time>2014-01-31T09:57:36.000Z</time>
      </trkpt>
      <trkpt lat="45.55953" lon="6.57958">
        <ele>1811.5999755859</ele>
        <time>2014-01-31T09:57:37.000Z</time>
      </trkpt>
      <trkpt lat="45.55951" lon="6.57958">
        <ele>1811.8000488281</ele>
        <time>2014-01-31T09:57:38.000Z</time>
      </trkpt>
      <trkpt lat="45.55951" lon="6.57958">
        <ele>1811.8000488281</ele>
        <time>2014-01-31T09:57:39.000Z</time>
      </trkpt>
      <trkpt lat="45.55951" lon="6.57958">
        <ele>1812</ele>
        <time>2014-01-31T09:57:40.000Z</time>
      </trkpt>
      <trkpt lat="45.55951" lon="6.57958">
        <ele>1812.1999511719</ele>
        <time>2014-01-31T09:57:41.000Z</time>
      </trkpt>
      <trkpt lat="45.5595" lon="6.57957">
        <ele>1812.4000244141</ele>
        <time>2014-01-31T09:57:42.000Z</time>
      </trkpt>
      <trkpt lat="45.5595" lon="6.57957">
        <ele>1812.5999755859</ele>
        <time>2014-01-31T09:57:43.000Z</time>
      </trkpt>
      <trkpt lat="45.5595" lon="6.57957">
        <ele>1812.8000488281</ele>
        <time>2014-01-31T09:57:44.000Z</time>
      </trkpt>
      <trkpt lat="45.55949" lon="6.57957">
        <ele>1813</ele>
        <time>2014-01-31T09:57:45.000Z</time>
      </trkpt>
      <trkpt lat="45.55947" lon="6.57955">
        <ele>1813.1999511719</ele>
        <time>2014-01-31T09:57:46.000Z</time>
      </trkpt>
      <trkpt lat="45.55947" lon="6.57955">
        <ele>1813.4000244141</ele>
        <time>2014-01-31T09:57:47.000Z</time>
      </trkpt>
      <trkpt lat="45.55946" lon="6.57955">
        <ele>1813.8000488281</ele>
        <time>2014-01-31T09:57:48.000Z</time>
      </trkpt>
      <trkpt lat="45.55945" lon="6.57954">
        <ele>1813.8000488281</ele>
        <time>2014-01-31T09:57:49.000Z</time>
      </trkpt>
      <trkpt lat="45.55945" lon="6.57954">
        <ele>1814</ele>
        <time>2014-01-31T09:57:50.000Z</time>
      </trkpt>
      <trkpt lat="45.55943" lon="6.57952">
        <ele>1814.1999511719</ele>
        <time>2014-01-31T09:57:51.000Z</time>
      </trkpt>
      <trkpt lat="45.55943" lon="6.57952">
        <ele>1814.4000244141</ele>
        <time>2014-01-31T09:57:52.000Z</time>
      </trkpt>
      <trkpt lat="45.55941" lon="6.57951">
        <ele>1815.1999511719</ele>
        <time>2014-01-31T09:57:53.000Z</time>
      </trkpt>
      <trkpt lat="45.5594" lon="6.5795">
        <ele>1815.4000244141</ele>
        <time>2014-01-31T09:57:54.000Z</time>
      </trkpt>
      <trkpt lat="45.5594" lon="6.57951">
        <ele>1815.5999755859</ele>
        <time>2014-01-31T09:57:55.000Z</time>
      </trkpt>
      <trkpt lat="45.5594" lon="6.5795">
        <ele>1815.8000488281</ele>
        <time>2014-01-31T09:57:56.000Z</time>
      </trkpt>
      <trkpt lat="45.55939" lon="6.5795">
        <ele>1816</ele>
        <time>2014-01-31T09:57:57.000Z</time>
      </trkpt>
      <trkpt lat="45.55939" lon="6.5795">
        <ele>1816.1999511719</ele>
        <time>2014-01-31T09:57:58.000Z</time>
      </trkpt>
      <trkpt lat="45.55939" lon="6.57949">
        <ele>1816.1999511719</ele>
        <time>2014-01-31T09:57:59.000Z</time>
      </trkpt>
      <trkpt lat="45.55938" lon="6.57949">
        <ele>1816.4000244141</ele>
        <time>2014-01-31T09:58:00.000Z</time>
      </trkpt>
      <trkpt lat="45.55937" lon="6.57947">
        <ele>1816.4000244141</ele>
        <time>2014-01-31T09:58:01.000Z</time>
      </trkpt>
      <trkpt lat="45.55937" lon="6.57947">
        <ele>1816.5999755859</ele>
        <time>2014-01-31T09:58:02.000Z</time>
      </trkpt>
      <trkpt lat="45.55937" lon="6.57946">
        <ele>1817</ele>
        <time>2014-01-31T09:58:03.000Z</time>
      </trkpt>
      <trkpt lat="45.55936" lon="6.57944">
        <ele>1817.1999511719</ele>
        <time>2014-01-31T09:58:04.000Z</time>
      </trkpt>
      <trkpt lat="45.55936" lon="6.57944">
        <ele>1817.4000244141</ele>
        <time>2014-01-31T09:58:05.000Z</time>
      </trkpt>
      <trkpt lat="45.55936" lon="6.57943">
        <ele>1817.8000488281</ele>
        <time>2014-01-31T09:58:06.000Z</time>
      </trkpt>
      <trkpt lat="45.55936" lon="6.57943">
        <ele>1818</ele>
        <time>2014-01-31T09:58:07.000Z</time>
      </trkpt>
      <trkpt lat="45.55936" lon="6.5794">
        <ele>1818.4000244141</ele>
        <time>2014-01-31T09:58:08.000Z</time>
      </trkpt>
      <trkpt lat="45.55937" lon="6.57939">
        <ele>1818.5999755859</ele>
        <time>2014-01-31T09:58:09.000Z</time>
      </trkpt>
      <trkpt lat="45.55937" lon="6.57938">
        <ele>1818.8000488281</ele>
        <time>2014-01-31T09:58:10.000Z</time>
      </trkpt>
      <trkpt lat="45.55937" lon="6.57937">
        <ele>1819</ele>
        <time>2014-01-31T09:58:11.000Z</time>
      </trkpt>
      <trkpt lat="45.55937" lon="6.57937">
        <ele>1819.1999511719</ele>
        <time>2014-01-31T09:58:12.000Z</time>
      </trkpt>
      <trkpt lat="45.55938" lon="6.57936">
        <ele>1819.5999755859</ele>
        <time>2014-01-31T09:58:13.000Z</time>
      </trkpt>
      <trkpt lat="45.55938" lon="6.57936">
        <ele>1819.5999755859</ele>
        <time>2014-01-31T09:58:14.000Z</time>
      </trkpt>
      <trkpt lat="45.55938" lon="6.57933">
        <ele>1819.8000488281</ele>
        <time>2014-01-31T09:58:15.000Z</time>
      </trkpt>
      <trkpt lat="45.55939" lon="6.57932">
        <ele>1820.4000244141</ele>
        <time>2014-01-31T09:58:16.000Z</time>
      </trkpt>
      <trkpt lat="45.5594" lon="6.5793">
        <ele>1820.5999755859</ele>
        <time>2014-01-31T09:58:17.000Z</time>
      </trkpt>
      <trkpt lat="45.55941" lon="6.57929">
        <ele>1820.8000488281</ele>
        <time>2014-01-31T09:58:18.000Z</time>
      </trkpt>
      <trkpt lat="45.55941" lon="6.5793">
        <ele>1821</ele>
        <time>2014-01-31T09:58:19.000Z</time>
      </trkpt>
      <trkpt lat="45.55942" lon="6.57931">
        <ele>1821.1999511719</ele>
        <time>2014-01-31T09:58:20.000Z</time>
      </trkpt>
      <trkpt lat="45.55942" lon="6.5793">
        <ele>1821.4000244141</ele>
        <time>2014-01-31T09:58:21.000Z</time>
      </trkpt>
      <trkpt lat="45.55943" lon="6.5793">
        <ele>1821.5999755859</ele>
        <time>2014-01-31T09:58:22.000Z</time>
      </trkpt>
      <trkpt lat="45.55942" lon="6.5793">
        <ele>1821.8000488281</ele>
        <time>2014-01-31T09:58:23.000Z</time>
      </trkpt>
      <trkpt lat="45.55942" lon="6.5793">
        <ele>1822</ele>
        <time>2014-01-31T09:58:24.000Z</time>
      </trkpt>
      <trkpt lat="45.55943" lon="6.57929">
        <ele>1822.4000244141</ele>
        <time>2014-01-31T09:58:25.000Z</time>
      </trkpt>
      <trkpt lat="45.55943" lon="6.57927">
        <ele>1822.5999755859</ele>
        <time>2014-01-31T09:58:26.000Z</time>
      </trkpt>
      <trkpt lat="45.55942" lon="6.57927">
        <ele>1822.8000488281</ele>
        <time>2014-01-31T09:58:27.000Z</time>
      </trkpt>
      <trkpt lat="45.55942" lon="6.57925">
        <ele>1823</ele>
        <time>2014-01-31T09:58:28.000Z</time>
      </trkpt>
      <trkpt lat="45.55942" lon="6.57925">
        <ele>1823.1999511719</ele>
        <time>2014-01-31T09:58:29.000Z</time>
      </trkpt>
      <trkpt lat="45.55943" lon="6.57922">
        <ele>1823.4000244141</ele>
        <time>2014-01-31T09:58:30.000Z</time>
      </trkpt>
      <trkpt lat="45.55943" lon="6.57923">
        <ele>1823.5999755859</ele>
        <time>2014-01-31T09:58:31.000Z</time>
      </trkpt>
      <trkpt lat="45.55943" lon="6.57921">
        <ele>1824</ele>
        <time>2014-01-31T09:58:32.000Z</time>
      </trkpt>
      <trkpt lat="45.55943" lon="6.57921">
        <ele>1824.1999511719</ele>
        <time>2014-01-31T09:58:33.000Z</time>
      </trkpt>
      <trkpt lat="45.55943" lon="6.5792">
        <ele>1824.4000244141</ele>
        <time>2014-01-31T09:58:34.000Z</time>
      </trkpt>
      <trkpt lat="45.55944" lon="6.57917">
        <ele>1824.5999755859</ele>
        <time>2014-01-31T09:58:35.000Z</time>
      </trkpt>
      <trkpt lat="45.55944" lon="6.57918">
        <ele>1824.8000488281</ele>
        <time>2014-01-31T09:58:36.000Z</time>
      </trkpt>
      <trkpt lat="45.55945" lon="6.57917">
        <ele>1825</ele>
        <time>2014-01-31T09:58:37.000Z</time>
      </trkpt>
      <trkpt lat="45.55946" lon="6.57915">
        <ele>1825.4000244141</ele>
        <time>2014-01-31T09:58:38.000Z</time>
      </trkpt>
      <trkpt lat="45.55947" lon="6.57913">
        <ele>1825.5999755859</ele>
        <time>2014-01-31T09:58:39.000Z</time>
      </trkpt>
      <trkpt lat="45.55947" lon="6.57912">
        <ele>1826.1999511719</ele>
        <time>2014-01-31T09:58:40.000Z</time>
      </trkpt>
      <trkpt lat="45.55947" lon="6.57912">
        <ele>1826.4000244141</ele>
        <time>2014-01-31T09:58:41.000Z</time>
      </trkpt>
      <trkpt lat="45.55947" lon="6.57911">
        <ele>1826.5999755859</ele>
        <time>2014-01-31T09:58:42.000Z</time>
      </trkpt>
      <trkpt lat="45.55947" lon="6.57911">
        <ele>1827</ele>
        <time>2014-01-31T09:58:43.000Z</time>
      </trkpt>
      <trkpt lat="45.55947" lon="6.5791">
        <ele>1827.1999511719</ele>
        <time>2014-01-31T09:58:44.000Z</time>
      </trkpt>
      <trkpt lat="45.55948" lon="6.57909">
        <ele>1827.4000244141</ele>
        <time>2014-01-31T09:58:45.000Z</time>
      </trkpt>
      <trkpt lat="45.55948" lon="6.57906">
        <ele>1827.5999755859</ele>
        <time>2014-01-31T09:58:46.000Z</time>
      </trkpt>
      <trkpt lat="45.55949" lon="6.57905">
        <ele>1828</ele>
        <time>2014-01-31T09:58:47.000Z</time>
      </trkpt>
      <trkpt lat="45.55949" lon="6.57903">
        <ele>1828.1999511719</ele>
        <time>2014-01-31T09:58:48.000Z</time>
      </trkpt>
      <trkpt lat="45.5595" lon="6.57902">
        <ele>1828.5999755859</ele>
        <time>2014-01-31T09:58:49.000Z</time>
      </trkpt>
      <trkpt lat="45.55949" lon="6.57903">
        <ele>1828.8000488281</ele>
        <time>2014-01-31T09:58:50.000Z</time>
      </trkpt>
      <trkpt lat="45.55947" lon="6.57902">
        <ele>1829</ele>
        <time>2014-01-31T09:58:51.000Z</time>
      </trkpt>
      <trkpt lat="45.55947" lon="6.57903">
        <ele>1829.1999511719</ele>
        <time>2014-01-31T09:58:52.000Z</time>
      </trkpt>
      <trkpt lat="45.55945" lon="6.57902">
        <ele>1829.4000244141</ele>
        <time>2014-01-31T09:58:53.000Z</time>
      </trkpt>
      <trkpt lat="45.55945" lon="6.57903">
        <ele>1829.5999755859</ele>
        <time>2014-01-31T09:58:54.000Z</time>
      </trkpt>
      <trkpt lat="45.55944" lon="6.57902">
        <ele>1829.8000488281</ele>
        <time>2014-01-31T09:58:55.000Z</time>
      </trkpt>
      <trkpt lat="45.55944" lon="6.57902">
        <ele>1830.1999511719</ele>
        <time>2014-01-31T09:58:56.000Z</time>
      </trkpt>
      <trkpt lat="45.55944" lon="6.57902">
        <ele>1830.5999755859</ele>
        <time>2014-01-31T09:58:57.000Z</time>
      </trkpt>
      <trkpt lat="45.55944" lon="6.57902">
        <ele>1830.8000488281</ele>
        <time>2014-01-31T09:58:58.000Z</time>
      </trkpt>
      <trkpt lat="45.55942" lon="6.57902">
        <ele>1830.8000488281</ele>
        <time>2014-01-31T09:58:59.000Z</time>
      </trkpt>
      <trkpt lat="45.55941" lon="6.57902">
        <ele>1830.8000488281</ele>
        <time>2014-01-31T09:59:00.000Z</time>
      </trkpt>
      <trkpt lat="45.55941" lon="6.57902">
        <ele>1830.8000488281</ele>
        <time>2014-01-31T09:59:01.000Z</time>
      </trkpt>
      <trkpt lat="45.55939" lon="6.57902">
        <ele>1831</ele>
        <time>2014-01-31T09:59:02.000Z</time>
      </trkpt>
      <trkpt lat="45.55939" lon="6.57902">
        <ele>1831</ele>
        <time>2014-01-31T09:59:03.000Z</time>
      </trkpt>
      <trkpt lat="45.55937" lon="6.57902">
        <ele>1831.4000244141</ele>
        <time>2014-01-31T09:59:04.000Z</time>
      </trkpt>
      <trkpt lat="45.55937" lon="6.57902">
        <ele>1831.5999755859</ele>
        <time>2014-01-31T09:59:05.000Z</time>
      </trkpt>
      <trkpt lat="45.55937" lon="6.57903">
        <ele>1831.8000488281</ele>
        <time>2014-01-31T09:59:06.000Z</time>
      </trkpt>
      <trkpt lat="45.55935" lon="6.57903">
        <ele>1832</ele>
        <time>2014-01-31T09:59:07.000Z</time>
      </trkpt>
      <trkpt lat="45.55935" lon="6.57903">
        <ele>1832.1999511719</ele>
        <time>2014-01-31T09:59:08.000Z</time>
      </trkpt>
      <trkpt lat="45.55935" lon="6.57903">
        <ele>1832.4000244141</ele>
        <time>2014-01-31T09:59:09.000Z</time>
      </trkpt>
      <trkpt lat="45.55932" lon="6.57903">
        <ele>1832.5999755859</ele>
        <time>2014-01-31T09:59:10.000Z</time>
      </trkpt>
      <trkpt lat="45.55933" lon="6.57902">
        <ele>1833</ele>
        <time>2014-01-31T09:59:11.000Z</time>
      </trkpt>
      <trkpt lat="45.55931" lon="6.57902">
        <ele>1833.1999511719</ele>
        <time>2014-01-31T09:59:12.000Z</time>
      </trkpt>
      <trkpt lat="45.5593" lon="6.57903">
        <ele>1833.4000244141</ele>
        <time>2014-01-31T09:59:13.000Z</time>
      </trkpt>
      <trkpt lat="45.55929" lon="6.57903">
        <ele>1833.5999755859</ele>
        <time>2014-01-31T09:59:14.000Z</time>
      </trkpt>
      <trkpt lat="45.55929" lon="6.57903">
        <ele>1833.8000488281</ele>
        <time>2014-01-31T09:59:15.000Z</time>
      </trkpt>
      <trkpt lat="45.55929" lon="6.57903">
        <ele>1833.8000488281</ele>
        <time>2014-01-31T09:59:16.000Z</time>
      </trkpt>
      <trkpt lat="45.55928" lon="6.57904">
        <ele>1834</ele>
        <time>2014-01-31T09:59:17.000Z</time>
      </trkpt>
      <trkpt lat="45.55926" lon="6.57905">
        <ele>1834.1999511719</ele>
        <time>2014-01-31T09:59:18.000Z</time>
      </trkpt>
      <trkpt lat="45.55925" lon="6.57905">
        <ele>1834.5999755859</ele>
        <time>2014-01-31T09:59:19.000Z</time>
      </trkpt>
      <trkpt lat="45.55924" lon="6.57905">
        <ele>1834.5999755859</ele>
        <time>2014-01-31T09:59:20.000Z</time>
      </trkpt>
      <trkpt lat="45.55923" lon="6.57905">
        <ele>1834.8000488281</ele>
        <time>2014-01-31T09:59:21.000Z</time>
      </trkpt>
      <trkpt lat="45.55923" lon="6.57905">
        <ele>1834.8000488281</ele>
        <time>2014-01-31T09:59:22.000Z</time>
      </trkpt>
      <trkpt lat="45.55921" lon="6.57905">
        <ele>1835</ele>
        <time>2014-01-31T09:59:23.000Z</time>
      </trkpt>
      <trkpt lat="45.55921" lon="6.57905">
        <ele>1835.1999511719</ele>
        <time>2014-01-31T09:59:24.000Z</time>
      </trkpt>
      <trkpt lat="45.5592" lon="6.57906">
        <ele>1835.4000244141</ele>
        <time>2014-01-31T09:59:25.000Z</time>
      </trkpt>
      <trkpt lat="45.55918" lon="6.57907">
        <ele>1835.5999755859</ele>
        <time>2014-01-31T09:59:26.000Z</time>
      </trkpt>
      <trkpt lat="45.55918" lon="6.57908">
        <ele>1836</ele>
        <time>2014-01-31T09:59:27.000Z</time>
      </trkpt>
      <trkpt lat="45.55917" lon="6.57908">
        <ele>1836.4000244141</ele>
        <time>2014-01-31T09:59:28.000Z</time>
      </trkpt>
      <trkpt lat="45.55915" lon="6.57908">
        <ele>1836.5999755859</ele>
        <time>2014-01-31T09:59:29.000Z</time>
      </trkpt>
      <trkpt lat="45.55915" lon="6.57908">
        <ele>1836.8000488281</ele>
        <time>2014-01-31T09:59:30.000Z</time>
      </trkpt>
      <trkpt lat="45.55914" lon="6.57908">
        <ele>1837</ele>
        <time>2014-01-31T09:59:31.000Z</time>
      </trkpt>
      <trkpt lat="45.55913" lon="6.57908">
        <ele>1837</ele>
        <time>2014-01-31T09:59:32.000Z</time>
      </trkpt>
      <trkpt lat="45.55913" lon="6.57908">
        <ele>1837.1999511719</ele>
        <time>2014-01-31T09:59:33.000Z</time>
      </trkpt>
      <trkpt lat="45.55912" lon="6.57908">
        <ele>1837.4000244141</ele>
        <time>2014-01-31T09:59:34.000Z</time>
      </trkpt>
      <trkpt lat="45.55912" lon="6.57908">
        <ele>1837.4000244141</ele>
        <time>2014-01-31T09:59:35.000Z</time>
      </trkpt>
      <trkpt lat="45.55911" lon="6.57907">
        <ele>1837.8000488281</ele>
        <time>2014-01-31T09:59:36.000Z</time>
      </trkpt>
      <trkpt lat="45.5591" lon="6.57906">
        <ele>1837.8000488281</ele>
        <time>2014-01-31T09:59:37.000Z</time>
      </trkpt>
      <trkpt lat="45.55909" lon="6.57905">
        <ele>1838</ele>
        <time>2014-01-31T09:59:38.000Z</time>
      </trkpt>
      <trkpt lat="45.55909" lon="6.57903">
        <ele>1838.1999511719</ele>
        <time>2014-01-31T09:59:39.000Z</time>
      </trkpt>
      <trkpt lat="45.55909" lon="6.57902">
        <ele>1838.4000244141</ele>
        <time>2014-01-31T09:59:40.000Z</time>
      </trkpt>
      <trkpt lat="45.55909" lon="6.57902">
        <ele>1838.8000488281</ele>
        <time>2014-01-31T09:59:41.000Z</time>
      </trkpt>
      <trkpt lat="45.5591" lon="6.579">
        <ele>1839</ele>
        <time>2014-01-31T09:59:42.000Z</time>
      </trkpt>
      <trkpt lat="45.5591" lon="6.57899">
        <ele>1839.1999511719</ele>
        <time>2014-01-31T09:59:43.000Z</time>
      </trkpt>
      <trkpt lat="45.55911" lon="6.57897">
        <ele>1839.4000244141</ele>
        <time>2014-01-31T09:59:44.000Z</time>
      </trkpt>
      <trkpt lat="45.55912" lon="6.57895">
        <ele>1839.8000488281</ele>
        <time>2014-01-31T09:59:45.000Z</time>
      </trkpt>
      <trkpt lat="45.55912" lon="6.57894">
        <ele>1840</ele>
        <time>2014-01-31T09:59:46.000Z</time>
      </trkpt>
      <trkpt lat="45.55912" lon="6.57893">
        <ele>1840.4000244141</ele>
        <time>2014-01-31T09:59:47.000Z</time>
      </trkpt>
      <trkpt lat="45.55913" lon="6.57893">
        <ele>1840.5999755859</ele>
        <time>2014-01-31T09:59:48.000Z</time>
      </trkpt>
      <trkpt lat="45.55913" lon="6.57893">
        <ele>1840.8000488281</ele>
        <time>2014-01-31T09:59:49.000Z</time>
      </trkpt>
      <trkpt lat="45.55914" lon="6.57891">
        <ele>1841</ele>
        <time>2014-01-31T09:59:50.000Z</time>
      </trkpt>
      <trkpt lat="45.55915" lon="6.5789">
        <ele>1841.1999511719</ele>
        <time>2014-01-31T09:59:51.000Z</time>
      </trkpt>
      <trkpt lat="45.55915" lon="6.57888">
        <ele>1841.4000244141</ele>
        <time>2014-01-31T09:59:52.000Z</time>
      </trkpt>
      <trkpt lat="45.55916" lon="6.57887">
        <ele>1841.5999755859</ele>
        <time>2014-01-31T09:59:53.000Z</time>
      </trkpt>
      <trkpt lat="45.55917" lon="6.57885">
        <ele>1842</ele>
        <time>2014-01-31T09:59:54.000Z</time>
      </trkpt>
      <trkpt lat="45.55917" lon="6.57884">
        <ele>1842.1999511719</ele>
        <time>2014-01-31T09:59:55.000Z</time>
      </trkpt>
      <trkpt lat="45.55917" lon="6.57882">
        <ele>1842.4000244141</ele>
        <time>2014-01-31T09:59:56.000Z</time>
      </trkpt>
      <trkpt lat="45.55918" lon="6.57881">
        <ele>1842.5999755859</ele>
        <time>2014-01-31T09:59:57.000Z</time>
      </trkpt>
      <trkpt lat="45.55917" lon="6.5788">
        <ele>1842.8000488281</ele>
        <time>2014-01-31T09:59:58.000Z</time>
      </trkpt>
      <trkpt lat="45.55918" lon="6.57879">
        <ele>1843</ele>
        <time>2014-01-31T09:59:59.000Z</time>
      </trkpt>
      <trkpt lat="45.55918" lon="6.57879">
        <ele>1843.1999511719</ele>
        <time>2014-01-31T10:00:00.000Z</time>
      </trkpt>
      <trkpt lat="45.55918" lon="6.57878">
        <ele>1843.4000244141</ele>
        <time>2014-01-31T10:00:01.000Z</time>
      </trkpt>
      <trkpt lat="45.55919" lon="6.57878">
        <ele>1843.8000488281</ele>
        <time>2014-01-31T10:00:02.000Z</time>
      </trkpt>
      <trkpt lat="45.55919" lon="6.57877">
        <ele>1844.1999511719</ele>
        <time>2014-01-31T10:00:03.000Z</time>
      </trkpt>
      <trkpt lat="45.5592" lon="6.57876">
        <ele>1844.5999755859</ele>
        <time>2014-01-31T10:00:04.000Z</time>
      </trkpt>
      <trkpt lat="45.55921" lon="6.57875">
        <ele>1844.8000488281</ele>
        <time>2014-01-31T10:00:05.000Z</time>
      </trkpt>
      <trkpt lat="45.55921" lon="6.57875">
        <ele>1845</ele>
        <time>2014-01-31T10:00:06.000Z</time>
      </trkpt>
      <trkpt lat="45.55922" lon="6.57872">
        <ele>1845.1999511719</ele>
        <time>2014-01-31T10:00:07.000Z</time>
      </trkpt>
      <trkpt lat="45.55923" lon="6.57871">
        <ele>1845.4000244141</ele>
        <time>2014-01-31T10:00:08.000Z</time>
      </trkpt>
      <trkpt lat="45.55923" lon="6.5787">
        <ele>1845.5999755859</ele>
        <time>2014-01-31T10:00:09.000Z</time>
      </trkpt>
      <trkpt lat="45.55924" lon="6.57869">
        <ele>1845.8000488281</ele>
        <time>2014-01-31T10:00:10.000Z</time>
      </trkpt>
      <trkpt lat="45.55925" lon="6.57868">
        <ele>1846.1999511719</ele>
        <time>2014-01-31T10:00:11.000Z</time>
      </trkpt>
      <trkpt lat="45.55926" lon="6.57867">
        <ele>1846.4000244141</ele>
        <time>2014-01-31T10:00:12.000Z</time>
      </trkpt>
      <trkpt lat="45.55927" lon="6.57866">
        <ele>1846.5999755859</ele>
        <time>2014-01-31T10:00:13.000Z</time>
      </trkpt>
      <trkpt lat="45.55927" lon="6.57865">
        <ele>1846.8000488281</ele>
        <time>2014-01-31T10:00:14.000Z</time>
      </trkpt>
      <trkpt lat="45.55928" lon="6.57863">
        <ele>1847</ele>
        <time>2014-01-31T10:00:15.000Z</time>
      </trkpt>
      <trkpt lat="45.55929" lon="6.57863">
        <ele>1847.1999511719</ele>
        <time>2014-01-31T10:00:16.000Z</time>
      </trkpt>
      <trkpt lat="45.55929" lon="6.57862">
        <ele>1847.4000244141</ele>
        <time>2014-01-31T10:00:17.000Z</time>
      </trkpt>
      <trkpt lat="45.55929" lon="6.57861">
        <ele>1847.5999755859</ele>
        <time>2014-01-31T10:00:18.000Z</time>
      </trkpt>
      <trkpt lat="45.55929" lon="6.57859">
        <ele>1847.8000488281</ele>
        <time>2014-01-31T10:00:19.000Z</time>
      </trkpt>
      <trkpt lat="45.55929" lon="6.57859">
        <ele>1848.1999511719</ele>
        <time>2014-01-31T10:00:20.000Z</time>
      </trkpt>
      <trkpt lat="45.55929" lon="6.57858">
        <ele>1848.4000244141</ele>
        <time>2014-01-31T10:00:21.000Z</time>
      </trkpt>
      <trkpt lat="45.55929" lon="6.57858">
        <ele>1848.5999755859</ele>
        <time>2014-01-31T10:00:22.000Z</time>
      </trkpt>
      <trkpt lat="45.55929" lon="6.57857">
        <ele>1848.5999755859</ele>
        <time>2014-01-31T10:00:23.000Z</time>
      </trkpt>
      <trkpt lat="45.55929" lon="6.57856">
        <ele>1848.8000488281</ele>
        <time>2014-01-31T10:00:24.000Z</time>
      </trkpt>
      <trkpt lat="45.5593" lon="6.57855">
        <ele>1849</ele>
        <time>2014-01-31T10:00:25.000Z</time>
      </trkpt>
      <trkpt lat="45.5593" lon="6.57854">
        <ele>1849.1999511719</ele>
        <time>2014-01-31T10:00:26.000Z</time>
      </trkpt>
      <trkpt lat="45.55931" lon="6.57853">
        <ele>1849.4000244141</ele>
        <time>2014-01-31T10:00:27.000Z</time>
      </trkpt>
      <trkpt lat="45.55931" lon="6.57852">
        <ele>1849.4000244141</ele>
        <time>2014-01-31T10:00:28.000Z</time>
      </trkpt>
      <trkpt lat="45.55931" lon="6.57852">
        <ele>1849.5999755859</ele>
        <time>2014-01-31T10:00:29.000Z</time>
      </trkpt>
      <trkpt lat="45.55931" lon="6.57852">
        <ele>1849.8000488281</ele>
        <time>2014-01-31T10:00:30.000Z</time>
      </trkpt>
      <trkpt lat="45.55932" lon="6.57851">
        <ele>1850</ele>
        <time>2014-01-31T10:00:31.000Z</time>
      </trkpt>
      <trkpt lat="45.55932" lon="6.5785">
        <ele>1850.1999511719</ele>
        <time>2014-01-31T10:00:32.000Z</time>
      </trkpt>
      <trkpt lat="45.55932" lon="6.5785">
        <ele>1850.4000244141</ele>
        <time>2014-01-31T10:00:33.000Z</time>
      </trkpt>
      <trkpt lat="45.55932" lon="6.57849">
        <ele>1850.4000244141</ele>
        <time>2014-01-31T10:00:34.000Z</time>
      </trkpt>
      <trkpt lat="45.55932" lon="6.57848">
        <ele>1850.5999755859</ele>
        <time>2014-01-31T10:00:35.000Z</time>
      </trkpt>
      <trkpt lat="45.55933" lon="6.57847">
        <ele>1850.8000488281</ele>
        <time>2014-01-31T10:00:36.000Z</time>
      </trkpt>
      <trkpt lat="45.55933" lon="6.57846">
        <ele>1851</ele>
        <time>2014-01-31T10:00:37.000Z</time>
      </trkpt>
      <trkpt lat="45.55933" lon="6.57844">
        <ele>1851.4000244141</ele>
        <time>2014-01-31T10:00:38.000Z</time>
      </trkpt>
      <trkpt lat="45.55934" lon="6.57843">
        <ele>1851.5999755859</ele>
        <time>2014-01-31T10:00:39.000Z</time>
      </trkpt>
      <trkpt lat="45.55934" lon="6.57844">
        <ele>1852</ele>
        <time>2014-01-31T10:00:40.000Z</time>
      </trkpt>
      <trkpt lat="45.55935" lon="6.57841">
        <ele>1852.4000244141</ele>
        <time>2014-01-31T10:00:41.000Z</time>
      </trkpt>
      <trkpt lat="45.55935" lon="6.57841">
        <ele>1852.5999755859</ele>
        <time>2014-01-31T10:00:42.000Z</time>
      </trkpt>
      <trkpt lat="45.55936" lon="6.5784">
        <ele>1852.5999755859</ele>
        <time>2014-01-31T10:00:43.000Z</time>
      </trkpt>
      <trkpt lat="45.55937" lon="6.57838">
        <ele>1852.8000488281</ele>
        <time>2014-01-31T10:00:44.000Z</time>
      </trkpt>
      <trkpt lat="45.55938" lon="6.57837">
        <ele>1853</ele>
        <time>2014-01-31T10:00:45.000Z</time>
      </trkpt>
      <trkpt lat="45.55938" lon="6.57836">
        <ele>1853.1999511719</ele>
        <time>2014-01-31T10:00:46.000Z</time>
      </trkpt>
      <trkpt lat="45.55939" lon="6.57834">
        <ele>1853.1999511719</ele>
        <time>2014-01-31T10:00:47.000Z</time>
      </trkpt>
      <trkpt lat="45.5594" lon="6.57833">
        <ele>1853.4000244141</ele>
        <time>2014-01-31T10:00:48.000Z</time>
      </trkpt>
      <trkpt lat="45.55941" lon="6.57832">
        <ele>1853.8000488281</ele>
        <time>2014-01-31T10:00:49.000Z</time>
      </trkpt>
      <trkpt lat="45.55942" lon="6.57831">
        <ele>1854</ele>
        <time>2014-01-31T10:00:50.000Z</time>
      </trkpt>
      <trkpt lat="45.55943" lon="6.5783">
        <ele>1854.1999511719</ele>
        <time>2014-01-31T10:00:51.000Z</time>
      </trkpt>
      <trkpt lat="45.55943" lon="6.57829">
        <ele>1854.5999755859</ele>
        <time>2014-01-31T10:00:52.000Z</time>
      </trkpt>
      <trkpt lat="45.55944" lon="6.57828">
        <ele>1854.8000488281</ele>
        <time>2014-01-31T10:00:53.000Z</time>
      </trkpt>
      <trkpt lat="45.55944" lon="6.57827">
        <ele>1855</ele>
        <time>2014-01-31T10:00:54.000Z</time>
      </trkpt>
      <trkpt lat="45.55944" lon="6.57826">
        <ele>1855.1999511719</ele>
        <time>2014-01-31T10:00:55.000Z</time>
      </trkpt>
      <trkpt lat="45.55944" lon="6.57825">
        <ele>1855.1999511719</ele>
        <time>2014-01-31T10:00:56.000Z</time>
      </trkpt>
      <trkpt lat="45.55944" lon="6.57825">
        <ele>1855.4000244141</ele>
        <time>2014-01-31T10:00:57.000Z</time>
      </trkpt>
      <trkpt lat="45.55944" lon="6.57823">
        <ele>1855.5999755859</ele>
        <time>2014-01-31T10:00:58.000Z</time>
      </trkpt>
      <trkpt lat="45.55944" lon="6.57822">
        <ele>1856</ele>
        <time>2014-01-31T10:00:59.000Z</time>
      </trkpt>
      <trkpt lat="45.55944" lon="6.5782">
        <ele>1856.1999511719</ele>
        <time>2014-01-31T10:01:00.000Z</time>
      </trkpt>
      <trkpt lat="45.55944" lon="6.57819">
        <ele>1856.4000244141</ele>
        <time>2014-01-31T10:01:01.000Z</time>
      </trkpt>
      <trkpt lat="45.55944" lon="6.57819">
        <ele>1856.8000488281</ele>
        <time>2014-01-31T10:01:02.000Z</time>
      </trkpt>
      <trkpt lat="45.55944" lon="6.57819">
        <ele>1857</ele>
        <time>2014-01-31T10:01:03.000Z</time>
      </trkpt>
      <trkpt lat="45.55944" lon="6.57819">
        <ele>1857</ele>
        <time>2014-01-31T10:01:04.000Z</time>
      </trkpt>
      <trkpt lat="45.55944" lon="6.57819">
        <ele>1857</ele>
        <time>2014-01-31T10:01:05.000Z</time>
      </trkpt>
      <trkpt lat="45.55944" lon="6.57818">
        <ele>1857</ele>
        <time>2014-01-31T10:01:06.000Z</time>
      </trkpt>
      <trkpt lat="45.55944" lon="6.57818">
        <ele>1857</ele>
        <time>2014-01-31T10:01:07.000Z</time>
      </trkpt>
      <trkpt lat="45.55944" lon="6.57817">
        <ele>1857</ele>
        <time>2014-01-31T10:01:08.000Z</time>
      </trkpt>
      <trkpt lat="45.55944" lon="6.57817">
        <ele>1857</ele>
        <time>2014-01-31T10:01:09.000Z</time>
      </trkpt>
      <trkpt lat="45.55945" lon="6.57816">
        <ele>1857.4000244141</ele>
        <time>2014-01-31T10:01:10.000Z</time>
      </trkpt>
      <trkpt lat="45.55945" lon="6.57815">
        <ele>1857.5999755859</ele>
        <time>2014-01-31T10:01:11.000Z</time>
      </trkpt>
      <trkpt lat="45.55946" lon="6.57815">
        <ele>1857.8000488281</ele>
        <time>2014-01-31T10:01:12.000Z</time>
      </trkpt>
      <trkpt lat="45.55946" lon="6.57814">
        <ele>1857.8000488281</ele>
        <time>2014-01-31T10:01:13.000Z</time>
      </trkpt>
      <trkpt lat="45.55946" lon="6.57814">
        <ele>1858</ele>
        <time>2014-01-31T10:01:14.000Z</time>
      </trkpt>
      <trkpt lat="45.55947" lon="6.57813">
        <ele>1858.1999511719</ele>
        <time>2014-01-31T10:01:15.000Z</time>
      </trkpt>
      <trkpt lat="45.55947" lon="6.57812">
        <ele>1858.4000244141</ele>
        <time>2014-01-31T10:01:16.000Z</time>
      </trkpt>
      <trkpt lat="45.55948" lon="6.57811">
        <ele>1858.8000488281</ele>
        <time>2014-01-31T10:01:17.000Z</time>
      </trkpt>
      <trkpt lat="45.55948" lon="6.57811">
        <ele>1859</ele>
        <time>2014-01-31T10:01:18.000Z</time>
      </trkpt>
      <trkpt lat="45.55948" lon="6.5781">
        <ele>1859.1999511719</ele>
        <time>2014-01-31T10:01:19.000Z</time>
      </trkpt>
      <trkpt lat="45.55948" lon="6.57809">
        <ele>1859.4000244141</ele>
        <time>2014-01-31T10:01:20.000Z</time>
      </trkpt>
      <trkpt lat="45.55949" lon="6.57808">
        <ele>1859.4000244141</ele>
        <time>2014-01-31T10:01:21.000Z</time>
      </trkpt>
      <trkpt lat="45.55949" lon="6.57808">
        <ele>1859.5999755859</ele>
        <time>2014-01-31T10:01:22.000Z</time>
      </trkpt>
      <trkpt lat="45.5595" lon="6.57807">
        <ele>1859.5999755859</ele>
        <time>2014-01-31T10:01:23.000Z</time>
      </trkpt>
      <trkpt lat="45.5595" lon="6.57805">
        <ele>1859.8000488281</ele>
        <time>2014-01-31T10:01:24.000Z</time>
      </trkpt>
      <trkpt lat="45.55951" lon="6.57803">
        <ele>1859.8000488281</ele>
        <time>2014-01-31T10:01:25.000Z</time>
      </trkpt>
      <trkpt lat="45.55951" lon="6.57802">
        <ele>1860</ele>
        <time>2014-01-31T10:01:26.000Z</time>
      </trkpt>
      <trkpt lat="45.55952" lon="6.57801">
        <ele>1860.1999511719</ele>
        <time>2014-01-31T10:01:27.000Z</time>
      </trkpt>
      <trkpt lat="45.55953" lon="6.57801">
        <ele>1860.1999511719</ele>
        <time>2014-01-31T10:01:28.000Z</time>
      </trkpt>
      <trkpt lat="45.55953" lon="6.578">
        <ele>1860.5999755859</ele>
        <time>2014-01-31T10:01:29.000Z</time>
      </trkpt>
      <trkpt lat="45.55953" lon="6.578">
        <ele>1860.5999755859</ele>
        <time>2014-01-31T10:01:30.000Z</time>
      </trkpt>
      <trkpt lat="45.55954" lon="6.57798">
        <ele>1861</ele>
        <time>2014-01-31T10:01:31.000Z</time>
      </trkpt>
      <trkpt lat="45.55954" lon="6.57797">
        <ele>1861.1999511719</ele>
        <time>2014-01-31T10:01:32.000Z</time>
      </trkpt>
      <trkpt lat="45.55955" lon="6.57796">
        <ele>1861.4000244141</ele>
        <time>2014-01-31T10:01:33.000Z</time>
      </trkpt>
      <trkpt lat="45.55956" lon="6.57794">
        <ele>1861.5999755859</ele>
        <time>2014-01-31T10:01:34.000Z</time>
      </trkpt>
      <trkpt lat="45.55957" lon="6.57793">
        <ele>1861.5999755859</ele>
        <time>2014-01-31T10:01:35.000Z</time>
      </trkpt>
      <trkpt lat="45.55958" lon="6.57792">
        <ele>1861.8000488281</ele>
        <time>2014-01-31T10:01:36.000Z</time>
      </trkpt>
      <trkpt lat="45.55958" lon="6.57791">
        <ele>1862</ele>
        <time>2014-01-31T10:01:37.000Z</time>
      </trkpt>
      <trkpt lat="45.55959" lon="6.5779">
        <ele>1862</ele>
        <time>2014-01-31T10:01:38.000Z</time>
      </trkpt>
      <trkpt lat="45.55959" lon="6.5779">
        <ele>1862</ele>
        <time>2014-01-31T10:01:39.000Z</time>
      </trkpt>
      <trkpt lat="45.55959" lon="6.5779">
        <ele>1862.1999511719</ele>
        <time>2014-01-31T10:01:40.000Z</time>
      </trkpt>
      <trkpt lat="45.55959" lon="6.57789">
        <ele>1862.4000244141</ele>
        <time>2014-01-31T10:01:41.000Z</time>
      </trkpt>
      <trkpt lat="45.5596" lon="6.57787">
        <ele>1862.5999755859</ele>
        <time>2014-01-31T10:01:42.000Z</time>
      </trkpt>
      <trkpt lat="45.55959" lon="6.57787">
        <ele>1862.8000488281</ele>
        <time>2014-01-31T10:01:43.000Z</time>
      </trkpt>
      <trkpt lat="45.55959" lon="6.57787">
        <ele>1862.8000488281</ele>
        <time>2014-01-31T10:01:44.000Z</time>
      </trkpt>
      <trkpt lat="45.5596" lon="6.57786">
        <ele>1863</ele>
        <time>2014-01-31T10:01:45.000Z</time>
      </trkpt>
      <trkpt lat="45.5596" lon="6.57785">
        <ele>1863.1999511719</ele>
        <time>2014-01-31T10:01:46.000Z</time>
      </trkpt>
      <trkpt lat="45.5596" lon="6.57783">
        <ele>1863.4000244141</ele>
        <time>2014-01-31T10:01:47.000Z</time>
      </trkpt>
      <trkpt lat="45.5596" lon="6.57783">
        <ele>1863.5999755859</ele>
        <time>2014-01-31T10:01:48.000Z</time>
      </trkpt>
      <trkpt lat="45.5596" lon="6.57781">
        <ele>1864</ele>
        <time>2014-01-31T10:01:49.000Z</time>
      </trkpt>
      <trkpt lat="45.5596" lon="6.57781">
        <ele>1864.1999511719</ele>
        <time>2014-01-31T10:01:50.000Z</time>
      </trkpt>
      <trkpt lat="45.55961" lon="6.5778">
        <ele>1864.4000244141</ele>
        <time>2014-01-31T10:01:51.000Z</time>
      </trkpt>
      <trkpt lat="45.55961" lon="6.57778">
        <ele>1864.5999755859</ele>
        <time>2014-01-31T10:01:52.000Z</time>
      </trkpt>
      <trkpt lat="45.55962" lon="6.57777">
        <ele>1865</ele>
        <time>2014-01-31T10:01:53.000Z</time>
      </trkpt>
      <trkpt lat="45.55962" lon="6.57776">
        <ele>1865.1999511719</ele>
        <time>2014-01-31T10:01:54.000Z</time>
      </trkpt>
      <trkpt lat="45.55962" lon="6.57775">
        <ele>1865.1999511719</ele>
        <time>2014-01-31T10:01:55.000Z</time>
      </trkpt>
      <trkpt lat="45.55962" lon="6.57775">
        <ele>1865.4000244141</ele>
        <time>2014-01-31T10:01:56.000Z</time>
      </trkpt>
      <trkpt lat="45.55963" lon="6.57774">
        <ele>1865.5999755859</ele>
        <time>2014-01-31T10:01:57.000Z</time>
      </trkpt>
      <trkpt lat="45.55963" lon="6.57772">
        <ele>1865.8000488281</ele>
        <time>2014-01-31T10:01:58.000Z</time>
      </trkpt>
      <trkpt lat="45.55963" lon="6.57772">
        <ele>1866</ele>
        <time>2014-01-31T10:01:59.000Z</time>
      </trkpt>
      <trkpt lat="45.55963" lon="6.57771">
        <ele>1866.1999511719</ele>
        <time>2014-01-31T10:02:00.000Z</time>
      </trkpt>
      <trkpt lat="45.55964" lon="6.5777">
        <ele>1866.4000244141</ele>
        <time>2014-01-31T10:02:01.000Z</time>
      </trkpt>
      <trkpt lat="45.55964" lon="6.57769">
        <ele>1866.4000244141</ele>
        <time>2014-01-31T10:02:02.000Z</time>
      </trkpt>
      <trkpt lat="45.55965" lon="6.57768">
        <ele>1866.5999755859</ele>
        <time>2014-01-31T10:02:03.000Z</time>
      </trkpt>
      <trkpt lat="45.55965" lon="6.57767">
        <ele>1866.5999755859</ele>
        <time>2014-01-31T10:02:04.000Z</time>
      </trkpt>
      <trkpt lat="45.55965" lon="6.57767">
        <ele>1866.8000488281</ele>
        <time>2014-01-31T10:02:05.000Z</time>
      </trkpt>
      <trkpt lat="45.55965" lon="6.57767">
        <ele>1867</ele>
        <time>2014-01-31T10:02:06.000Z</time>
      </trkpt>
      <trkpt lat="45.55965" lon="6.57767">
        <ele>1867.1999511719</ele>
        <time>2014-01-31T10:02:07.000Z</time>
      </trkpt>
      <trkpt lat="45.55965" lon="6.57767">
        <ele>1867.4000244141</ele>
        <time>2014-01-31T10:02:08.000Z</time>
      </trkpt>
      <trkpt lat="45.55965" lon="6.57767">
        <ele>1867.4000244141</ele>
        <time>2014-01-31T10:02:09.000Z</time>
      </trkpt>
      <trkpt lat="45.55965" lon="6.57767">
        <ele>1867.5999755859</ele>
        <time>2014-01-31T10:02:10.000Z</time>
      </trkpt>
      <trkpt lat="45.55965" lon="6.57767">
        <ele>1867.5999755859</ele>
        <time>2014-01-31T10:02:11.000Z</time>
      </trkpt>
      <trkpt lat="45.55965" lon="6.57767">
        <ele>1867.5999755859</ele>
        <time>2014-01-31T10:02:12.000Z</time>
      </trkpt>
      <trkpt lat="45.55965" lon="6.57767">
        <ele>1867.5999755859</ele>
        <time>2014-01-31T10:02:13.000Z</time>
      </trkpt>
      <trkpt lat="45.55965" lon="6.57767">
        <ele>1867.8000488281</ele>
        <time>2014-01-31T10:02:14.000Z</time>
      </trkpt>
      <trkpt lat="45.55966" lon="6.57765">
        <ele>1867.8000488281</ele>
        <time>2014-01-31T10:02:15.000Z</time>
      </trkpt>
      <trkpt lat="45.55966" lon="6.57764">
        <ele>1868</ele>
        <time>2014-01-31T10:02:16.000Z</time>
      </trkpt>
      <trkpt lat="45.55967" lon="6.57763">
        <ele>1868.1999511719</ele>
        <time>2014-01-31T10:02:17.000Z</time>
      </trkpt>
      <trkpt lat="45.55967" lon="6.57761">
        <ele>1868.4000244141</ele>
        <time>2014-01-31T10:02:18.000Z</time>
      </trkpt>
      <trkpt lat="45.55968" lon="6.5776">
        <ele>1868.4000244141</ele>
        <time>2014-01-31T10:02:19.000Z</time>
      </trkpt>
      <trkpt lat="45.55969" lon="6.57759">
        <ele>1868.4000244141</ele>
        <time>2014-01-31T10:02:20.000Z</time>
      </trkpt>
      <trkpt lat="45.5597" lon="6.57757">
        <ele>1868.4000244141</ele>
        <time>2014-01-31T10:02:21.000Z</time>
      </trkpt>
      <trkpt lat="45.5597" lon="6.57756">
        <ele>1868.5999755859</ele>
        <time>2014-01-31T10:02:22.000Z</time>
      </trkpt>
      <trkpt lat="45.55971" lon="6.57754">
        <ele>1868.8000488281</ele>
        <time>2014-01-31T10:02:23.000Z</time>
      </trkpt>
      <trkpt lat="45.55973" lon="6.57752">
        <ele>1869</ele>
        <time>2014-01-31T10:02:24.000Z</time>
      </trkpt>
      <trkpt lat="45.55974" lon="6.57751">
        <ele>1869.1999511719</ele>
        <time>2014-01-31T10:02:25.000Z</time>
      </trkpt>
      <trkpt lat="45.55975" lon="6.5775">
        <ele>1869.4000244141</ele>
        <time>2014-01-31T10:02:26.000Z</time>
      </trkpt>
      <trkpt lat="45.55976" lon="6.57749">
        <ele>1869.5999755859</ele>
        <time>2014-01-31T10:02:27.000Z</time>
      </trkpt>
      <trkpt lat="45.55977" lon="6.57747">
        <ele>1869.8000488281</ele>
        <time>2014-01-31T10:02:28.000Z</time>
      </trkpt>
      <trkpt lat="45.55978" lon="6.57747">
        <ele>1869.8000488281</ele>
        <time>2014-01-31T10:02:29.000Z</time>
      </trkpt>
      <trkpt lat="45.55978" lon="6.57746">
        <ele>1870</ele>
        <time>2014-01-31T10:02:30.000Z</time>
      </trkpt>
      <trkpt lat="45.55979" lon="6.57744">
        <ele>1870.1999511719</ele>
        <time>2014-01-31T10:02:31.000Z</time>
      </trkpt>
      <trkpt lat="45.55979" lon="6.57743">
        <ele>1870.1999511719</ele>
        <time>2014-01-31T10:02:32.000Z</time>
      </trkpt>
      <trkpt lat="45.55979" lon="6.57741">
        <ele>1870.4000244141</ele>
        <time>2014-01-31T10:02:33.000Z</time>
      </trkpt>
      <trkpt lat="45.5598" lon="6.5774">
        <ele>1870.4000244141</ele>
        <time>2014-01-31T10:02:34.000Z</time>
      </trkpt>
      <trkpt lat="45.5598" lon="6.57739">
        <ele>1870.5999755859</ele>
        <time>2014-01-31T10:02:35.000Z</time>
      </trkpt>
      <trkpt lat="45.5598" lon="6.57739">
        <ele>1870.5999755859</ele>
        <time>2014-01-31T10:02:36.000Z</time>
      </trkpt>
      <trkpt lat="45.55979" lon="6.57739">
        <ele>1870.5999755859</ele>
        <time>2014-01-31T10:02:37.000Z</time>
      </trkpt>
      <trkpt lat="45.55979" lon="6.57738">
        <ele>1871</ele>
        <time>2014-01-31T10:02:38.000Z</time>
      </trkpt>
      <trkpt lat="45.55979" lon="6.57736">
        <ele>1871.1999511719</ele>
        <time>2014-01-31T10:02:39.000Z</time>
      </trkpt>
      <trkpt lat="45.55979" lon="6.57735">
        <ele>1871.4000244141</ele>
        <time>2014-01-31T10:02:40.000Z</time>
      </trkpt>
      <trkpt lat="45.55979" lon="6.57734">
        <ele>1872</ele>
        <time>2014-01-31T10:02:41.000Z</time>
      </trkpt>
      <trkpt lat="45.55979" lon="6.57732">
        <ele>1872.1999511719</ele>
        <time>2014-01-31T10:02:42.000Z</time>
      </trkpt>
      <trkpt lat="45.55979" lon="6.57731">
        <ele>1872.4000244141</ele>
        <time>2014-01-31T10:02:43.000Z</time>
      </trkpt>
      <trkpt lat="45.5598" lon="6.5773">
        <ele>1872.4000244141</ele>
        <time>2014-01-31T10:02:44.000Z</time>
      </trkpt>
      <trkpt lat="45.5598" lon="6.57728">
        <ele>1872.5999755859</ele>
        <time>2014-01-31T10:02:45.000Z</time>
      </trkpt>
      <trkpt lat="45.5598" lon="6.57728">
        <ele>1872.8000488281</ele>
        <time>2014-01-31T10:02:46.000Z</time>
      </trkpt>
      <trkpt lat="45.5598" lon="6.57727">
        <ele>1873</ele>
        <time>2014-01-31T10:02:47.000Z</time>
      </trkpt>
      <trkpt lat="45.55979" lon="6.57726">
        <ele>1873.1999511719</ele>
        <time>2014-01-31T10:02:48.000Z</time>
      </trkpt>
      <trkpt lat="45.55979" lon="6.57726">
        <ele>1873.5999755859</ele>
        <time>2014-01-31T10:02:49.000Z</time>
      </trkpt>
      <trkpt lat="45.55979" lon="6.57726">
        <ele>1873.8000488281</ele>
        <time>2014-01-31T10:02:50.000Z</time>
      </trkpt>
      <trkpt lat="45.55979" lon="6.57725">
        <ele>1874</ele>
        <time>2014-01-31T10:02:51.000Z</time>
      </trkpt>
      <trkpt lat="45.55979" lon="6.57725">
        <ele>1874.1999511719</ele>
        <time>2014-01-31T10:02:52.000Z</time>
      </trkpt>
      <trkpt lat="45.55979" lon="6.57724">
        <ele>1874.4000244141</ele>
        <time>2014-01-31T10:02:53.000Z</time>
      </trkpt>
      <trkpt lat="45.55979" lon="6.57724">
        <ele>1874.5999755859</ele>
        <time>2014-01-31T10:02:54.000Z</time>
      </trkpt>
      <trkpt lat="45.55978" lon="6.57723">
        <ele>1874.8000488281</ele>
        <time>2014-01-31T10:02:55.000Z</time>
      </trkpt>
      <trkpt lat="45.55978" lon="6.57722">
        <ele>1875</ele>
        <time>2014-01-31T10:02:56.000Z</time>
      </trkpt>
      <trkpt lat="45.55978" lon="6.57721">
        <ele>1875</ele>
        <time>2014-01-31T10:02:57.000Z</time>
      </trkpt>
      <trkpt lat="45.55978" lon="6.57721">
        <ele>1875.1999511719</ele>
        <time>2014-01-31T10:02:58.000Z</time>
      </trkpt>
      <trkpt lat="45.55978" lon="6.5772">
        <ele>1875.4000244141</ele>
        <time>2014-01-31T10:02:59.000Z</time>
      </trkpt>
      <trkpt lat="45.55978" lon="6.57719">
        <ele>1875.4000244141</ele>
        <time>2014-01-31T10:03:00.000Z</time>
      </trkpt>
      <trkpt lat="45.55979" lon="6.57719">
        <ele>1875.5999755859</ele>
        <time>2014-01-31T10:03:01.000Z</time>
      </trkpt>
      <trkpt lat="45.55979" lon="6.57718">
        <ele>1875.8000488281</ele>
        <time>2014-01-31T10:03:02.000Z</time>
      </trkpt>
      <trkpt lat="45.55979" lon="6.57719">
        <ele>1875.8000488281</ele>
        <time>2014-01-31T10:03:03.000Z</time>
      </trkpt>
      <trkpt lat="45.55979" lon="6.57719">
        <ele>1876.1999511719</ele>
        <time>2014-01-31T10:03:04.000Z</time>
      </trkpt>
      <trkpt lat="45.55979" lon="6.57719">
        <ele>1876.5999755859</ele>
        <time>2014-01-31T10:03:05.000Z</time>
      </trkpt>
      <trkpt lat="45.55979" lon="6.57719">
        <ele>1877</ele>
        <time>2014-01-31T10:03:06.000Z</time>
      </trkpt>
      <trkpt lat="45.55979" lon="6.57719">
        <ele>1877.1999511719</ele>
        <time>2014-01-31T10:03:07.000Z</time>
      </trkpt>
      <trkpt lat="45.55979" lon="6.57719">
        <ele>1877.4000244141</ele>
        <time>2014-01-31T10:03:08.000Z</time>
      </trkpt>
      <trkpt lat="45.55979" lon="6.57718">
        <ele>1877.4000244141</ele>
        <time>2014-01-31T10:03:09.000Z</time>
      </trkpt>
      <trkpt lat="45.55979" lon="6.57717">
        <ele>1877.5999755859</ele>
        <time>2014-01-31T10:03:10.000Z</time>
      </trkpt>
      <trkpt lat="45.55978" lon="6.57716">
        <ele>1877.8000488281</ele>
        <time>2014-01-31T10:03:11.000Z</time>
      </trkpt>
      <trkpt lat="45.55978" lon="6.57715">
        <ele>1878</ele>
        <time>2014-01-31T10:03:12.000Z</time>
      </trkpt>
      <trkpt lat="45.55978" lon="6.57714">
        <ele>1878.1999511719</ele>
        <time>2014-01-31T10:03:13.000Z</time>
      </trkpt>
      <trkpt lat="45.55978" lon="6.57713">
        <ele>1878.4000244141</ele>
        <time>2014-01-31T10:03:14.000Z</time>
      </trkpt>
      <trkpt lat="45.55978" lon="6.57712">
        <ele>1878.5999755859</ele>
        <time>2014-01-31T10:03:15.000Z</time>
      </trkpt>
      <trkpt lat="45.55978" lon="6.57711">
        <ele>1878.8000488281</ele>
        <time>2014-01-31T10:03:16.000Z</time>
      </trkpt>
      <trkpt lat="45.55977" lon="6.5771">
        <ele>1879</ele>
        <time>2014-01-31T10:03:17.000Z</time>
      </trkpt>
      <trkpt lat="45.55978" lon="6.57709">
        <ele>1879.1999511719</ele>
        <time>2014-01-31T10:03:18.000Z</time>
      </trkpt>
      <trkpt lat="45.55978" lon="6.57708">
        <ele>1879.4000244141</ele>
        <time>2014-01-31T10:03:19.000Z</time>
      </trkpt>
      <trkpt lat="45.55978" lon="6.57707">
        <ele>1879.5999755859</ele>
        <time>2014-01-31T10:03:20.000Z</time>
      </trkpt>
      <trkpt lat="45.55978" lon="6.57706">
        <ele>1879.8000488281</ele>
        <time>2014-01-31T10:03:21.000Z</time>
      </trkpt>
      <trkpt lat="45.55978" lon="6.57705">
        <ele>1880</ele>
        <time>2014-01-31T10:03:22.000Z</time>
      </trkpt>
      <trkpt lat="45.55978" lon="6.57704">
        <ele>1880</ele>
        <time>2014-01-31T10:03:23.000Z</time>
      </trkpt>
      <trkpt lat="45.55978" lon="6.57703">
        <ele>1880.1999511719</ele>
        <time>2014-01-31T10:03:24.000Z</time>
      </trkpt>
      <trkpt lat="45.55978" lon="6.57703">
        <ele>1880.4000244141</ele>
        <time>2014-01-31T10:03:25.000Z</time>
      </trkpt>
      <trkpt lat="45.55978" lon="6.57703">
        <ele>1880.5999755859</ele>
        <time>2014-01-31T10:03:26.000Z</time>
      </trkpt>
      <trkpt lat="45.55978" lon="6.57702">
        <ele>1880.5999755859</ele>
        <time>2014-01-31T10:03:27.000Z</time>
      </trkpt>
      <trkpt lat="45.55978" lon="6.57701">
        <ele>1880.8000488281</ele>
        <time>2014-01-31T10:03:28.000Z</time>
      </trkpt>
      <trkpt lat="45.55978" lon="6.577">
        <ele>1881</ele>
        <time>2014-01-31T10:03:29.000Z</time>
      </trkpt>
      <trkpt lat="45.55978" lon="6.57698">
        <ele>1881</ele>
        <time>2014-01-31T10:03:30.000Z</time>
      </trkpt>
      <trkpt lat="45.55977" lon="6.57697">
        <ele>1881.1999511719</ele>
        <time>2014-01-31T10:03:31.000Z</time>
      </trkpt>
      <trkpt lat="45.55977" lon="6.57697">
        <ele>1881.5999755859</ele>
        <time>2014-01-31T10:03:33.000Z</time>
      </trkpt>
      <trkpt lat="45.55976" lon="6.57697">
        <ele>1882</ele>
        <time>2014-01-31T10:03:35.000Z</time>
      </trkpt>
      <trkpt lat="45.55975" lon="6.57697">
        <ele>1882</ele>
        <time>2014-01-31T10:03:36.000Z</time>
      </trkpt>
      <trkpt lat="45.55975" lon="6.57697">
        <ele>1882.4000244141</ele>
        <time>2014-01-31T10:03:37.000Z</time>
      </trkpt>
      <trkpt lat="45.55974" lon="6.57697">
        <ele>1882.4000244141</ele>
        <time>2014-01-31T10:03:38.000Z</time>
      </trkpt>
      <trkpt lat="45.55974" lon="6.57698">
        <ele>1882.8000488281</ele>
        <time>2014-01-31T10:03:39.000Z</time>
      </trkpt>
      <trkpt lat="45.55974" lon="6.57698">
        <ele>1883</ele>
        <time>2014-01-31T10:03:40.000Z</time>
      </trkpt>
      <trkpt lat="45.55973" lon="6.57699">
        <ele>1883.4000244141</ele>
        <time>2014-01-31T10:03:41.000Z</time>
      </trkpt>
      <trkpt lat="45.55973" lon="6.57699">
        <ele>1883.5999755859</ele>
        <time>2014-01-31T10:03:42.000Z</time>
      </trkpt>
      <trkpt lat="45.55973" lon="6.57699">
        <ele>1884</ele>
        <time>2014-01-31T10:03:43.000Z</time>
      </trkpt>
      <trkpt lat="45.55972" lon="6.57699">
        <ele>1884</ele>
        <time>2014-01-31T10:03:44.000Z</time>
      </trkpt>
      <trkpt lat="45.55971" lon="6.57698">
        <ele>1884.4000244141</ele>
        <time>2014-01-31T10:03:45.000Z</time>
      </trkpt>
      <trkpt lat="45.55971" lon="6.57698">
        <ele>1884.4000244141</ele>
        <time>2014-01-31T10:03:46.000Z</time>
      </trkpt>
      <trkpt lat="45.5597" lon="6.57698">
        <ele>1884.5999755859</ele>
        <time>2014-01-31T10:03:47.000Z</time>
      </trkpt>
      <trkpt lat="45.55969" lon="6.57699">
        <ele>1884.5999755859</ele>
        <time>2014-01-31T10:03:48.000Z</time>
      </trkpt>
      <trkpt lat="45.55968" lon="6.57699">
        <ele>1884.8000488281</ele>
        <time>2014-01-31T10:03:49.000Z</time>
      </trkpt>
      <trkpt lat="45.55968" lon="6.57699">
        <ele>1884.8000488281</ele>
        <time>2014-01-31T10:03:50.000Z</time>
      </trkpt>
      <trkpt lat="45.55967" lon="6.57699">
        <ele>1885</ele>
        <time>2014-01-31T10:03:51.000Z</time>
      </trkpt>
      <trkpt lat="45.55967" lon="6.57699">
        <ele>1885</ele>
        <time>2014-01-31T10:03:52.000Z</time>
      </trkpt>
      <trkpt lat="45.55966" lon="6.577">
        <ele>1885.4000244141</ele>
        <time>2014-01-31T10:03:53.000Z</time>
      </trkpt>
      <trkpt lat="45.55965" lon="6.577">
        <ele>1885.4000244141</ele>
        <time>2014-01-31T10:03:54.000Z</time>
      </trkpt>
      <trkpt lat="45.55964" lon="6.577">
        <ele>1885.5999755859</ele>
        <time>2014-01-31T10:03:55.000Z</time>
      </trkpt>
      <trkpt lat="45.55963" lon="6.577">
        <ele>1885.8000488281</ele>
        <time>2014-01-31T10:03:56.000Z</time>
      </trkpt>
      <trkpt lat="45.55963" lon="6.57701">
        <ele>1886</ele>
        <time>2014-01-31T10:03:57.000Z</time>
      </trkpt>
      <trkpt lat="45.55962" lon="6.577">
        <ele>1886.1999511719</ele>
        <time>2014-01-31T10:03:58.000Z</time>
      </trkpt>
      <trkpt lat="45.55962" lon="6.577">
        <ele>1886.4000244141</ele>
        <time>2014-01-31T10:03:59.000Z</time>
      </trkpt>
      <trkpt lat="45.55961" lon="6.577">
        <ele>1886.5999755859</ele>
        <time>2014-01-31T10:04:00.000Z</time>
      </trkpt>
      <trkpt lat="45.5596" lon="6.577">
        <ele>1886.8000488281</ele>
        <time>2014-01-31T10:04:01.000Z</time>
      </trkpt>
      <trkpt lat="45.55959" lon="6.577">
        <ele>1887</ele>
        <time>2014-01-31T10:04:02.000Z</time>
      </trkpt>
      <trkpt lat="45.55958" lon="6.577">
        <ele>1887</ele>
        <time>2014-01-31T10:04:03.000Z</time>
      </trkpt>
      <trkpt lat="45.55957" lon="6.577">
        <ele>1887.1999511719</ele>
        <time>2014-01-31T10:04:04.000Z</time>
      </trkpt>
      <trkpt lat="45.55956" lon="6.57699">
        <ele>1887.4000244141</ele>
        <time>2014-01-31T10:04:05.000Z</time>
      </trkpt>
      <trkpt lat="45.55956" lon="6.577">
        <ele>1887.5999755859</ele>
        <time>2014-01-31T10:04:06.000Z</time>
      </trkpt>
      <trkpt lat="45.55956" lon="6.577">
        <ele>1888</ele>
        <time>2014-01-31T10:04:07.000Z</time>
      </trkpt>
      <trkpt lat="45.55955" lon="6.577">
        <ele>1888.1999511719</ele>
        <time>2014-01-31T10:04:08.000Z</time>
      </trkpt>
      <trkpt lat="45.55954" lon="6.577">
        <ele>1888.4000244141</ele>
        <time>2014-01-31T10:04:09.000Z</time>
      </trkpt>
      <trkpt lat="45.55953" lon="6.577">
        <ele>1888.5999755859</ele>
        <time>2014-01-31T10:04:10.000Z</time>
      </trkpt>
      <trkpt lat="45.55953" lon="6.577">
        <ele>1888.5999755859</ele>
        <time>2014-01-31T10:04:11.000Z</time>
      </trkpt>
      <trkpt lat="45.55952" lon="6.57699">
        <ele>1888.8000488281</ele>
        <time>2014-01-31T10:04:12.000Z</time>
      </trkpt>
      <trkpt lat="45.55951" lon="6.57699">
        <ele>1888.8000488281</ele>
        <time>2014-01-31T10:04:13.000Z</time>
      </trkpt>
      <trkpt lat="45.55951" lon="6.57699">
        <ele>1889</ele>
        <time>2014-01-31T10:04:14.000Z</time>
      </trkpt>
      <trkpt lat="45.5595" lon="6.57699">
        <ele>1889.1999511719</ele>
        <time>2014-01-31T10:04:15.000Z</time>
      </trkpt>
      <trkpt lat="45.55949" lon="6.57699">
        <ele>1889.4000244141</ele>
        <time>2014-01-31T10:04:16.000Z</time>
      </trkpt>
      <trkpt lat="45.55948" lon="6.57698">
        <ele>1889.8000488281</ele>
        <time>2014-01-31T10:04:17.000Z</time>
      </trkpt>
      <trkpt lat="45.55947" lon="6.57698">
        <ele>1890</ele>
        <time>2014-01-31T10:04:18.000Z</time>
      </trkpt>
      <trkpt lat="45.55946" lon="6.57697">
        <ele>1890.1999511719</ele>
        <time>2014-01-31T10:04:19.000Z</time>
      </trkpt>
      <trkpt lat="45.55946" lon="6.57696">
        <ele>1890.1999511719</ele>
        <time>2014-01-31T10:04:20.000Z</time>
      </trkpt>
      <trkpt lat="45.55946" lon="6.57695">
        <ele>1890.4000244141</ele>
        <time>2014-01-31T10:04:21.000Z</time>
      </trkpt>
      <trkpt lat="45.55946" lon="6.57694">
        <ele>1890.5999755859</ele>
        <time>2014-01-31T10:04:22.000Z</time>
      </trkpt>
      <trkpt lat="45.55946" lon="6.57693">
        <ele>1890.8000488281</ele>
        <time>2014-01-31T10:04:23.000Z</time>
      </trkpt>
      <trkpt lat="45.55947" lon="6.57691">
        <ele>1891</ele>
        <time>2014-01-31T10:04:24.000Z</time>
      </trkpt>
      <trkpt lat="45.55947" lon="6.5769">
        <ele>1891.1999511719</ele>
        <time>2014-01-31T10:04:25.000Z</time>
      </trkpt>
      <trkpt lat="45.55948" lon="6.5769">
        <ele>1891.4000244141</ele>
        <time>2014-01-31T10:04:26.000Z</time>
      </trkpt>
      <trkpt lat="45.55948" lon="6.57689">
        <ele>1891.5999755859</ele>
        <time>2014-01-31T10:04:27.000Z</time>
      </trkpt>
      <trkpt lat="45.55948" lon="6.57689">
        <ele>1891.8000488281</ele>
        <time>2014-01-31T10:04:28.000Z</time>
      </trkpt>
      <trkpt lat="45.55948" lon="6.57688">
        <ele>1892</ele>
        <time>2014-01-31T10:04:29.000Z</time>
      </trkpt>
      <trkpt lat="45.55948" lon="6.57686">
        <ele>1892.1999511719</ele>
        <time>2014-01-31T10:04:30.000Z</time>
      </trkpt>
      <trkpt lat="45.55948" lon="6.57685">
        <ele>1892.4000244141</ele>
        <time>2014-01-31T10:04:31.000Z</time>
      </trkpt>
      <trkpt lat="45.55948" lon="6.57684">
        <ele>1892.5999755859</ele>
        <time>2014-01-31T10:04:32.000Z</time>
      </trkpt>
      <trkpt lat="45.55949" lon="6.57682">
        <ele>1892.8000488281</ele>
        <time>2014-01-31T10:04:33.000Z</time>
      </trkpt>
      <trkpt lat="45.55949" lon="6.57682">
        <ele>1892.8000488281</ele>
        <time>2014-01-31T10:04:34.000Z</time>
      </trkpt>
      <trkpt lat="45.55948" lon="6.57681">
        <ele>1893</ele>
        <time>2014-01-31T10:04:35.000Z</time>
      </trkpt>
      <trkpt lat="45.55948" lon="6.57679">
        <ele>1893.1999511719</ele>
        <time>2014-01-31T10:04:36.000Z</time>
      </trkpt>
      <trkpt lat="45.55948" lon="6.57677">
        <ele>1893.5999755859</ele>
        <time>2014-01-31T10:04:37.000Z</time>
      </trkpt>
      <trkpt lat="45.55949" lon="6.57676">
        <ele>1893.8000488281</ele>
        <time>2014-01-31T10:04:38.000Z</time>
      </trkpt>
      <trkpt lat="45.55949" lon="6.57675">
        <ele>1894</ele>
        <time>2014-01-31T10:04:39.000Z</time>
      </trkpt>
      <trkpt lat="45.55949" lon="6.57673">
        <ele>1894.1999511719</ele>
        <time>2014-01-31T10:04:40.000Z</time>
      </trkpt>
      <trkpt lat="45.5595" lon="6.57672">
        <ele>1894.4000244141</ele>
        <time>2014-01-31T10:04:41.000Z</time>
      </trkpt>
      <trkpt lat="45.5595" lon="6.57671">
        <ele>1894.5999755859</ele>
        <time>2014-01-31T10:04:42.000Z</time>
      </trkpt>
      <trkpt lat="45.5595" lon="6.5767">
        <ele>1894.5999755859</ele>
        <time>2014-01-31T10:04:43.000Z</time>
      </trkpt>
      <trkpt lat="45.55951" lon="6.57669">
        <ele>1895</ele>
        <time>2014-01-31T10:04:44.000Z</time>
      </trkpt>
      <trkpt lat="45.55951" lon="6.57669">
        <ele>1895.1999511719</ele>
        <time>2014-01-31T10:04:45.000Z</time>
      </trkpt>
      <trkpt lat="45.55952" lon="6.57668">
        <ele>1895.4000244141</ele>
        <time>2014-01-31T10:04:46.000Z</time>
      </trkpt>
      <trkpt lat="45.55952" lon="6.57666">
        <ele>1895.5999755859</ele>
        <time>2014-01-31T10:04:47.000Z</time>
      </trkpt>
      <trkpt lat="45.55952" lon="6.57665">
        <ele>1895.5999755859</ele>
        <time>2014-01-31T10:04:48.000Z</time>
      </trkpt>
      <trkpt lat="45.55952" lon="6.57664">
        <ele>1895.8000488281</ele>
        <time>2014-01-31T10:04:49.000Z</time>
      </trkpt>
      <trkpt lat="45.55952" lon="6.57663">
        <ele>1896</ele>
        <time>2014-01-31T10:04:50.000Z</time>
      </trkpt>
      <trkpt lat="45.55952" lon="6.57663">
        <ele>1896.1999511719</ele>
        <time>2014-01-31T10:04:51.000Z</time>
      </trkpt>
      <trkpt lat="45.55952" lon="6.57663">
        <ele>1896.4000244141</ele>
        <time>2014-01-31T10:04:52.000Z</time>
      </trkpt>
      <trkpt lat="45.55951" lon="6.57664">
        <ele>1896.5999755859</ele>
        <time>2014-01-31T10:04:53.000Z</time>
      </trkpt>
      <trkpt lat="45.55951" lon="6.57664">
        <ele>1896.8000488281</ele>
        <time>2014-01-31T10:04:54.000Z</time>
      </trkpt>
      <trkpt lat="45.5595" lon="6.57665">
        <ele>1897</ele>
        <time>2014-01-31T10:04:55.000Z</time>
      </trkpt>
      <trkpt lat="45.55949" lon="6.57666">
        <ele>1897.1999511719</ele>
        <time>2014-01-31T10:04:56.000Z</time>
      </trkpt>
      <trkpt lat="45.55948" lon="6.57667">
        <ele>1897.1999511719</ele>
        <time>2014-01-31T10:04:57.000Z</time>
      </trkpt>
      <trkpt lat="45.55948" lon="6.57668">
        <ele>1897.4000244141</ele>
        <time>2014-01-31T10:04:58.000Z</time>
      </trkpt>
      <trkpt lat="45.55947" lon="6.57669">
        <ele>1897.5999755859</ele>
        <time>2014-01-31T10:04:59.000Z</time>
      </trkpt>
      <trkpt lat="45.55946" lon="6.5767">
        <ele>1898</ele>
        <time>2014-01-31T10:05:00.000Z</time>
      </trkpt>
      <trkpt lat="45.55945" lon="6.5767">
        <ele>1898.1999511719</ele>
        <time>2014-01-31T10:05:01.000Z</time>
      </trkpt>
      <trkpt lat="45.55945" lon="6.57671">
        <ele>1898.4000244141</ele>
        <time>2014-01-31T10:05:02.000Z</time>
      </trkpt>
      <trkpt lat="45.55943" lon="6.57671">
        <ele>1898.5999755859</ele>
        <time>2014-01-31T10:05:03.000Z</time>
      </trkpt>
      <trkpt lat="45.55942" lon="6.57672">
        <ele>1898.5999755859</ele>
        <time>2014-01-31T10:05:04.000Z</time>
      </trkpt>
      <trkpt lat="45.55941" lon="6.57671">
        <ele>1898.8000488281</ele>
        <time>2014-01-31T10:05:05.000Z</time>
      </trkpt>
      <trkpt lat="45.5594" lon="6.57672">
        <ele>1898.8000488281</ele>
        <time>2014-01-31T10:05:06.000Z</time>
      </trkpt>
      <trkpt lat="45.5594" lon="6.57672">
        <ele>1898.8000488281</ele>
        <time>2014-01-31T10:05:07.000Z</time>
      </trkpt>
      <trkpt lat="45.55939" lon="6.57672">
        <ele>1899</ele>
        <time>2014-01-31T10:05:08.000Z</time>
      </trkpt>
      <trkpt lat="45.55939" lon="6.57672">
        <ele>1898.8000488281</ele>
        <time>2014-01-31T10:05:09.000Z</time>
      </trkpt>
      <trkpt lat="45.55939" lon="6.57672">
        <ele>1898.8000488281</ele>
        <time>2014-01-31T10:05:10.000Z</time>
      </trkpt>
      <trkpt lat="45.55939" lon="6.57672">
        <ele>1899</ele>
        <time>2014-01-31T10:05:11.000Z</time>
      </trkpt>
      <trkpt lat="45.55939" lon="6.57672">
        <ele>1899.4000244141</ele>
        <time>2014-01-31T10:05:12.000Z</time>
      </trkpt>
      <trkpt lat="45.55939" lon="6.57671">
        <ele>1899.8000488281</ele>
        <time>2014-01-31T10:05:13.000Z</time>
      </trkpt>
      <trkpt lat="45.55939" lon="6.57669">
        <ele>1900.1999511719</ele>
        <time>2014-01-31T10:05:14.000Z</time>
      </trkpt>
      <trkpt lat="45.55939" lon="6.57668">
        <ele>1900.4000244141</ele>
        <time>2014-01-31T10:05:15.000Z</time>
      </trkpt>
      <trkpt lat="45.55939" lon="6.57667">
        <ele>1900.5999755859</ele>
        <time>2014-01-31T10:05:16.000Z</time>
      </trkpt>
      <trkpt lat="45.55939" lon="6.57665">
        <ele>1900.8000488281</ele>
        <time>2014-01-31T10:05:17.000Z</time>
      </trkpt>
      <trkpt lat="45.55939" lon="6.57664">
        <ele>1900.8000488281</ele>
        <time>2014-01-31T10:05:18.000Z</time>
      </trkpt>
      <trkpt lat="45.55939" lon="6.57662">
        <ele>1900.8000488281</ele>
        <time>2014-01-31T10:05:19.000Z</time>
      </trkpt>
      <trkpt lat="45.55939" lon="6.57661">
        <ele>1901</ele>
        <time>2014-01-31T10:05:20.000Z</time>
      </trkpt>
      <trkpt lat="45.55938" lon="6.5766">
        <ele>1901</ele>
        <time>2014-01-31T10:05:21.000Z</time>
      </trkpt>
      <trkpt lat="45.55938" lon="6.57658">
        <ele>1901.1999511719</ele>
        <time>2014-01-31T10:05:22.000Z</time>
      </trkpt>
      <trkpt lat="45.55938" lon="6.57656">
        <ele>1901.4000244141</ele>
        <time>2014-01-31T10:05:23.000Z</time>
      </trkpt>
      <trkpt lat="45.55939" lon="6.57655">
        <ele>1901.8000488281</ele>
        <time>2014-01-31T10:05:24.000Z</time>
      </trkpt>
      <trkpt lat="45.55939" lon="6.57654">
        <ele>1902</ele>
        <time>2014-01-31T10:05:25.000Z</time>
      </trkpt>
      <trkpt lat="45.55939" lon="6.57653">
        <ele>1902.1999511719</ele>
        <time>2014-01-31T10:05:26.000Z</time>
      </trkpt>
      <trkpt lat="45.5594" lon="6.57652">
        <ele>1902.4000244141</ele>
        <time>2014-01-31T10:05:27.000Z</time>
      </trkpt>
      <trkpt lat="45.5594" lon="6.57651">
        <ele>1902.5999755859</ele>
        <time>2014-01-31T10:05:28.000Z</time>
      </trkpt>
      <trkpt lat="45.5594" lon="6.5765">
        <ele>1903.1999511719</ele>
        <time>2014-01-31T10:05:29.000Z</time>
      </trkpt>
      <trkpt lat="45.55941" lon="6.57649">
        <ele>1903.4000244141</ele>
        <time>2014-01-31T10:05:30.000Z</time>
      </trkpt>
      <trkpt lat="45.55941" lon="6.57648">
        <ele>1903.5999755859</ele>
        <time>2014-01-31T10:05:31.000Z</time>
      </trkpt>
      <trkpt lat="45.55942" lon="6.57647">
        <ele>1903.8000488281</ele>
        <time>2014-01-31T10:05:32.000Z</time>
      </trkpt>
      <trkpt lat="45.55942" lon="6.57645">
        <ele>1904</ele>
        <time>2014-01-31T10:05:33.000Z</time>
      </trkpt>
      <trkpt lat="45.55943" lon="6.57644">
        <ele>1904.1999511719</ele>
        <time>2014-01-31T10:05:34.000Z</time>
      </trkpt>
      <trkpt lat="45.55943" lon="6.57643">
        <ele>1904.4000244141</ele>
        <time>2014-01-31T10:05:35.000Z</time>
      </trkpt>
      <trkpt lat="45.55943" lon="6.57642">
        <ele>1904.8000488281</ele>
        <time>2014-01-31T10:05:36.000Z</time>
      </trkpt>
      <trkpt lat="45.55943" lon="6.57641">
        <ele>1905</ele>
        <time>2014-01-31T10:05:37.000Z</time>
      </trkpt>
      <trkpt lat="45.55943" lon="6.57641">
        <ele>1905.1999511719</ele>
        <time>2014-01-31T10:05:38.000Z</time>
      </trkpt>
      <trkpt lat="45.55942" lon="6.5764">
        <ele>1905.1999511719</ele>
        <time>2014-01-31T10:05:39.000Z</time>
      </trkpt>
      <trkpt lat="45.55942" lon="6.5764">
        <ele>1905.4000244141</ele>
        <time>2014-01-31T10:05:40.000Z</time>
      </trkpt>
      <trkpt lat="45.55942" lon="6.57639">
        <ele>1905.5999755859</ele>
        <time>2014-01-31T10:05:41.000Z</time>
      </trkpt>
      <trkpt lat="45.55943" lon="6.57638">
        <ele>1905.8000488281</ele>
        <time>2014-01-31T10:05:42.000Z</time>
      </trkpt>
      <trkpt lat="45.55944" lon="6.57638">
        <ele>1906.1999511719</ele>
        <time>2014-01-31T10:05:43.000Z</time>
      </trkpt>
      <trkpt lat="45.55944" lon="6.57638">
        <ele>1906.4000244141</ele>
        <time>2014-01-31T10:05:44.000Z</time>
      </trkpt>
      <trkpt lat="45.55944" lon="6.57638">
        <ele>1906.8000488281</ele>
        <time>2014-01-31T10:05:45.000Z</time>
      </trkpt>
      <trkpt lat="45.55944" lon="6.57638">
        <ele>1906.8000488281</ele>
        <time>2014-01-31T10:05:46.000Z</time>
      </trkpt>
      <trkpt lat="45.55943" lon="6.57638">
        <ele>1907.1999511719</ele>
        <time>2014-01-31T10:05:47.000Z</time>
      </trkpt>
      <trkpt lat="45.55942" lon="6.57639">
        <ele>1907.4000244141</ele>
        <time>2014-01-31T10:05:48.000Z</time>
      </trkpt>
      <trkpt lat="45.55942" lon="6.5764">
        <ele>1907.5999755859</ele>
        <time>2014-01-31T10:05:49.000Z</time>
      </trkpt>
      <trkpt lat="45.55941" lon="6.57641">
        <ele>1907.5999755859</ele>
        <time>2014-01-31T10:05:50.000Z</time>
      </trkpt>
      <trkpt lat="45.5594" lon="6.57641">
        <ele>1907.8000488281</ele>
        <time>2014-01-31T10:05:51.000Z</time>
      </trkpt>
      <trkpt lat="45.5594" lon="6.57642">
        <ele>1907.8000488281</ele>
        <time>2014-01-31T10:05:52.000Z</time>
      </trkpt>
      <trkpt lat="45.55939" lon="6.57642">
        <ele>1908.1999511719</ele>
        <time>2014-01-31T10:05:53.000Z</time>
      </trkpt>
      <trkpt lat="45.55938" lon="6.57642">
        <ele>1908.5999755859</ele>
        <time>2014-01-31T10:05:54.000Z</time>
      </trkpt>
      <trkpt lat="45.55938" lon="6.57642">
        <ele>1908.8000488281</ele>
        <time>2014-01-31T10:05:55.000Z</time>
      </trkpt>
      <trkpt lat="45.55937" lon="6.57642">
        <ele>1909</ele>
        <time>2014-01-31T10:05:56.000Z</time>
      </trkpt>
      <trkpt lat="45.55936" lon="6.57643">
        <ele>1909</ele>
        <time>2014-01-31T10:05:57.000Z</time>
      </trkpt>
      <trkpt lat="45.55936" lon="6.57643">
        <ele>1909.1999511719</ele>
        <time>2014-01-31T10:05:58.000Z</time>
      </trkpt>
      <trkpt lat="45.55935" lon="6.57643">
        <ele>1909.4000244141</ele>
        <time>2014-01-31T10:05:59.000Z</time>
      </trkpt>
      <trkpt lat="45.55934" lon="6.57643">
        <ele>1909.5999755859</ele>
        <time>2014-01-31T10:06:00.000Z</time>
      </trkpt>
      <trkpt lat="45.55933" lon="6.57643">
        <ele>1909.8000488281</ele>
        <time>2014-01-31T10:06:01.000Z</time>
      </trkpt>
      <trkpt lat="45.55932" lon="6.57643">
        <ele>1910</ele>
        <time>2014-01-31T10:06:02.000Z</time>
      </trkpt>
      <trkpt lat="45.55931" lon="6.57642">
        <ele>1910</ele>
        <time>2014-01-31T10:06:03.000Z</time>
      </trkpt>
      <trkpt lat="45.55931" lon="6.57643">
        <ele>1910.1999511719</ele>
        <time>2014-01-31T10:06:04.000Z</time>
      </trkpt>
      <trkpt lat="45.5593" lon="6.57642">
        <ele>1910.4000244141</ele>
        <time>2014-01-31T10:06:05.000Z</time>
      </trkpt>
      <trkpt lat="45.5593" lon="6.57642">
        <ele>1910.4000244141</ele>
        <time>2014-01-31T10:06:06.000Z</time>
      </trkpt>
      <trkpt lat="45.5593" lon="6.57641">
        <ele>1910.4000244141</ele>
        <time>2014-01-31T10:06:07.000Z</time>
      </trkpt>
      <trkpt lat="45.55929" lon="6.5764">
        <ele>1910.5999755859</ele>
        <time>2014-01-31T10:06:08.000Z</time>
      </trkpt>
      <trkpt lat="45.55929" lon="6.57639">
        <ele>1910.8000488281</ele>
        <time>2014-01-31T10:06:09.000Z</time>
      </trkpt>
      <trkpt lat="45.5593" lon="6.57637">
        <ele>1911</ele>
        <time>2014-01-31T10:06:10.000Z</time>
      </trkpt>
      <trkpt lat="45.55929" lon="6.57636">
        <ele>1911.4000244141</ele>
        <time>2014-01-31T10:06:11.000Z</time>
      </trkpt>
      <trkpt lat="45.55929" lon="6.57634">
        <ele>1911.5999755859</ele>
        <time>2014-01-31T10:06:12.000Z</time>
      </trkpt>
      <trkpt lat="45.55929" lon="6.57633">
        <ele>1912</ele>
        <time>2014-01-31T10:06:13.000Z</time>
      </trkpt>
      <trkpt lat="45.55929" lon="6.57631">
        <ele>1912.1999511719</ele>
        <time>2014-01-31T10:06:14.000Z</time>
      </trkpt>
      <trkpt lat="45.55929" lon="6.57629">
        <ele>1912.4000244141</ele>
        <time>2014-01-31T10:06:15.000Z</time>
      </trkpt>
      <trkpt lat="45.55929" lon="6.57628">
        <ele>1912.5999755859</ele>
        <time>2014-01-31T10:06:16.000Z</time>
      </trkpt>
      <trkpt lat="45.55929" lon="6.57626">
        <ele>1913.1999511719</ele>
        <time>2014-01-31T10:06:17.000Z</time>
      </trkpt>
      <trkpt lat="45.55929" lon="6.57625">
        <ele>1913.4000244141</ele>
        <time>2014-01-31T10:06:18.000Z</time>
      </trkpt>
      <trkpt lat="45.55929" lon="6.57623">
        <ele>1913.8000488281</ele>
        <time>2014-01-31T10:06:19.000Z</time>
      </trkpt>
      <trkpt lat="45.55929" lon="6.57622">
        <ele>1914</ele>
        <time>2014-01-31T10:06:20.000Z</time>
      </trkpt>
      <trkpt lat="45.55929" lon="6.5762">
        <ele>1914.1999511719</ele>
        <time>2014-01-31T10:06:21.000Z</time>
      </trkpt>
      <trkpt lat="45.55929" lon="6.57619">
        <ele>1914.1999511719</ele>
        <time>2014-01-31T10:06:22.000Z</time>
      </trkpt>
      <trkpt lat="45.55929" lon="6.57617">
        <ele>1914.4000244141</ele>
        <time>2014-01-31T10:06:23.000Z</time>
      </trkpt>
      <trkpt lat="45.55929" lon="6.57616">
        <ele>1914.4000244141</ele>
        <time>2014-01-31T10:06:24.000Z</time>
      </trkpt>
      <trkpt lat="45.55929" lon="6.57614">
        <ele>1914.5999755859</ele>
        <time>2014-01-31T10:06:25.000Z</time>
      </trkpt>
      <trkpt lat="45.55929" lon="6.57612">
        <ele>1914.5999755859</ele>
        <time>2014-01-31T10:06:26.000Z</time>
      </trkpt>
      <trkpt lat="45.55929" lon="6.5761">
        <ele>1914.5999755859</ele>
        <time>2014-01-31T10:06:27.000Z</time>
      </trkpt>
      <trkpt lat="45.55929" lon="6.57608">
        <ele>1914.8000488281</ele>
        <time>2014-01-31T10:06:28.000Z</time>
      </trkpt>
      <trkpt lat="45.55929" lon="6.57607">
        <ele>1915</ele>
        <time>2014-01-31T10:06:29.000Z</time>
      </trkpt>
      <trkpt lat="45.55929" lon="6.57606">
        <ele>1915.1999511719</ele>
        <time>2014-01-31T10:06:30.000Z</time>
      </trkpt>
      <trkpt lat="45.5593" lon="6.57605">
        <ele>1915.5999755859</ele>
        <time>2014-01-31T10:06:31.000Z</time>
      </trkpt>
      <trkpt lat="45.5593" lon="6.57603">
        <ele>1915.8000488281</ele>
        <time>2014-01-31T10:06:32.000Z</time>
      </trkpt>
      <trkpt lat="45.5593" lon="6.57602">
        <ele>1916.1999511719</ele>
        <time>2014-01-31T10:06:33.000Z</time>
      </trkpt>
      <trkpt lat="45.5593" lon="6.57601">
        <ele>1916.1999511719</ele>
        <time>2014-01-31T10:06:34.000Z</time>
      </trkpt>
      <trkpt lat="45.55931" lon="6.57598">
        <ele>1916.4000244141</ele>
        <time>2014-01-31T10:06:35.000Z</time>
      </trkpt>
      <trkpt lat="45.55931" lon="6.57597">
        <ele>1916.4000244141</ele>
        <time>2014-01-31T10:06:36.000Z</time>
      </trkpt>
      <trkpt lat="45.5593" lon="6.57595">
        <ele>1916.5999755859</ele>
        <time>2014-01-31T10:06:37.000Z</time>
      </trkpt>
      <trkpt lat="45.5593" lon="6.57594">
        <ele>1916.5999755859</ele>
        <time>2014-01-31T10:06:38.000Z</time>
      </trkpt>
      <trkpt lat="45.55929" lon="6.57593">
        <ele>1916.8000488281</ele>
        <time>2014-01-31T10:06:39.000Z</time>
      </trkpt>
      <trkpt lat="45.55929" lon="6.57591">
        <ele>1917</ele>
        <time>2014-01-31T10:06:40.000Z</time>
      </trkpt>
      <trkpt lat="45.55929" lon="6.5759">
        <ele>1917.5999755859</ele>
        <time>2014-01-31T10:06:41.000Z</time>
      </trkpt>
      <trkpt lat="45.5593" lon="6.57588">
        <ele>1917.8000488281</ele>
        <time>2014-01-31T10:06:42.000Z</time>
      </trkpt>
      <trkpt lat="45.5593" lon="6.57587">
        <ele>1918.1999511719</ele>
        <time>2014-01-31T10:06:43.000Z</time>
      </trkpt>
      <trkpt lat="45.5593" lon="6.57585">
        <ele>1918.5999755859</ele>
        <time>2014-01-31T10:06:44.000Z</time>
      </trkpt>
      <trkpt lat="45.5593" lon="6.57584">
        <ele>1918.5999755859</ele>
        <time>2014-01-31T10:06:45.000Z</time>
      </trkpt>
      <trkpt lat="45.5593" lon="6.57584">
        <ele>1918.8000488281</ele>
        <time>2014-01-31T10:06:46.000Z</time>
      </trkpt>
      <trkpt lat="45.5593" lon="6.57584">
        <ele>1918.8000488281</ele>
        <time>2014-01-31T10:06:47.000Z</time>
      </trkpt>
      <trkpt lat="45.5593" lon="6.57582">
        <ele>1919</ele>
        <time>2014-01-31T10:06:48.000Z</time>
      </trkpt>
      <trkpt lat="45.55931" lon="6.57581">
        <ele>1919</ele>
        <time>2014-01-31T10:06:49.000Z</time>
      </trkpt>
      <trkpt lat="45.5593" lon="6.5758">
        <ele>1919.1999511719</ele>
        <time>2014-01-31T10:06:50.000Z</time>
      </trkpt>
      <trkpt lat="45.5593" lon="6.57579">
        <ele>1919.4000244141</ele>
        <time>2014-01-31T10:06:51.000Z</time>
      </trkpt>
      <trkpt lat="45.5593" lon="6.57577">
        <ele>1919.8000488281</ele>
        <time>2014-01-31T10:06:52.000Z</time>
      </trkpt>
      <trkpt lat="45.5593" lon="6.57576">
        <ele>1920</ele>
        <time>2014-01-31T10:06:53.000Z</time>
      </trkpt>
      <trkpt lat="45.5593" lon="6.57575">
        <ele>1920.1999511719</ele>
        <time>2014-01-31T10:06:54.000Z</time>
      </trkpt>
      <trkpt lat="45.5593" lon="6.57574">
        <ele>1920.1999511719</ele>
        <time>2014-01-31T10:06:55.000Z</time>
      </trkpt>
      <trkpt lat="45.5593" lon="6.57573">
        <ele>1920.4000244141</ele>
        <time>2014-01-31T10:06:56.000Z</time>
      </trkpt>
      <trkpt lat="45.5593" lon="6.57572">
        <ele>1920.4000244141</ele>
        <time>2014-01-31T10:06:57.000Z</time>
      </trkpt>
      <trkpt lat="45.5593" lon="6.57572">
        <ele>1920.5999755859</ele>
        <time>2014-01-31T10:06:58.000Z</time>
      </trkpt>
      <trkpt lat="45.55929" lon="6.57572">
        <ele>1920.8000488281</ele>
        <time>2014-01-31T10:06:59.000Z</time>
      </trkpt>
      <trkpt lat="45.55929" lon="6.57572">
        <ele>1921</ele>
        <time>2014-01-31T10:07:00.000Z</time>
      </trkpt>
      <trkpt lat="45.55929" lon="6.57572">
        <ele>1921.1999511719</ele>
        <time>2014-01-31T10:07:01.000Z</time>
      </trkpt>
      <trkpt lat="45.55929" lon="6.57572">
        <ele>1921.4000244141</ele>
        <time>2014-01-31T10:07:02.000Z</time>
      </trkpt>
      <trkpt lat="45.55928" lon="6.57572">
        <ele>1921.4000244141</ele>
        <time>2014-01-31T10:07:03.000Z</time>
      </trkpt>
      <trkpt lat="45.55928" lon="6.57572">
        <ele>1921.8000488281</ele>
        <time>2014-01-31T10:07:04.000Z</time>
      </trkpt>
      <trkpt lat="45.55928" lon="6.57572">
        <ele>1922.1999511719</ele>
        <time>2014-01-31T10:07:05.000Z</time>
      </trkpt>
      <trkpt lat="45.55928" lon="6.5757">
        <ele>1922.4000244141</ele>
        <time>2014-01-31T10:07:06.000Z</time>
      </trkpt>
      <trkpt lat="45.55928" lon="6.57569">
        <ele>1922.5999755859</ele>
        <time>2014-01-31T10:07:07.000Z</time>
      </trkpt>
      <trkpt lat="45.55928" lon="6.57568">
        <ele>1922.8000488281</ele>
        <time>2014-01-31T10:07:08.000Z</time>
      </trkpt>
      <trkpt lat="45.55928" lon="6.57567">
        <ele>1923</ele>
        <time>2014-01-31T10:07:09.000Z</time>
      </trkpt>
      <trkpt lat="45.55928" lon="6.57565">
        <ele>1923.1999511719</ele>
        <time>2014-01-31T10:07:10.000Z</time>
      </trkpt>
      <trkpt lat="45.55927" lon="6.57564">
        <ele>1923.4000244141</ele>
        <time>2014-01-31T10:07:11.000Z</time>
      </trkpt>
      <trkpt lat="45.55927" lon="6.57562">
        <ele>1923.5999755859</ele>
        <time>2014-01-31T10:07:12.000Z</time>
      </trkpt>
      <trkpt lat="45.55926" lon="6.5756">
        <ele>1923.8000488281</ele>
        <time>2014-01-31T10:07:13.000Z</time>
      </trkpt>
      <trkpt lat="45.55925" lon="6.57559">
        <ele>1924</ele>
        <time>2014-01-31T10:07:14.000Z</time>
      </trkpt>
      <trkpt lat="45.55925" lon="6.57558">
        <ele>1924.1999511719</ele>
        <time>2014-01-31T10:07:15.000Z</time>
      </trkpt>
      <trkpt lat="45.55925" lon="6.57556">
        <ele>1924.4000244141</ele>
        <time>2014-01-31T10:07:16.000Z</time>
      </trkpt>
      <trkpt lat="45.55925" lon="6.57554">
        <ele>1924.5999755859</ele>
        <time>2014-01-31T10:07:17.000Z</time>
      </trkpt>
      <trkpt lat="45.55925" lon="6.57553">
        <ele>1924.8000488281</ele>
        <time>2014-01-31T10:07:18.000Z</time>
      </trkpt>
      <trkpt lat="45.55925" lon="6.57552">
        <ele>1925</ele>
        <time>2014-01-31T10:07:19.000Z</time>
      </trkpt>
      <trkpt lat="45.55925" lon="6.57551">
        <ele>1925.1999511719</ele>
        <time>2014-01-31T10:07:20.000Z</time>
      </trkpt>
      <trkpt lat="45.55925" lon="6.57551">
        <ele>1925.4000244141</ele>
        <time>2014-01-31T10:07:21.000Z</time>
      </trkpt>
      <trkpt lat="45.55924" lon="6.5755">
        <ele>1925.5999755859</ele>
        <time>2014-01-31T10:07:22.000Z</time>
      </trkpt>
      <trkpt lat="45.55924" lon="6.5755">
        <ele>1925.8000488281</ele>
        <time>2014-01-31T10:07:23.000Z</time>
      </trkpt>
      <trkpt lat="45.55924" lon="6.57549">
        <ele>1926</ele>
        <time>2014-01-31T10:07:24.000Z</time>
      </trkpt>
      <trkpt lat="45.55924" lon="6.57547">
        <ele>1926.4000244141</ele>
        <time>2014-01-31T10:07:25.000Z</time>
      </trkpt>
      <trkpt lat="45.55924" lon="6.57546">
        <ele>1926.4000244141</ele>
        <time>2014-01-31T10:07:26.000Z</time>
      </trkpt>
      <trkpt lat="45.55924" lon="6.57545">
        <ele>1926.5999755859</ele>
        <time>2014-01-31T10:07:27.000Z</time>
      </trkpt>
      <trkpt lat="45.55924" lon="6.57544">
        <ele>1926.8000488281</ele>
        <time>2014-01-31T10:07:28.000Z</time>
      </trkpt>
      <trkpt lat="45.55924" lon="6.57543">
        <ele>1927.1999511719</ele>
        <time>2014-01-31T10:07:29.000Z</time>
      </trkpt>
      <trkpt lat="45.55924" lon="6.57542">
        <ele>1927.4000244141</ele>
        <time>2014-01-31T10:07:30.000Z</time>
      </trkpt>
      <trkpt lat="45.55924" lon="6.57541">
        <ele>1927.5999755859</ele>
        <time>2014-01-31T10:07:31.000Z</time>
      </trkpt>
      <trkpt lat="45.55924" lon="6.5754">
        <ele>1927.5999755859</ele>
        <time>2014-01-31T10:07:32.000Z</time>
      </trkpt>
      <trkpt lat="45.55923" lon="6.57539">
        <ele>1927.8000488281</ele>
        <time>2014-01-31T10:07:33.000Z</time>
      </trkpt>
      <trkpt lat="45.55923" lon="6.57539">
        <ele>1928</ele>
        <time>2014-01-31T10:07:34.000Z</time>
      </trkpt>
      <trkpt lat="45.55923" lon="6.57539">
        <ele>1928.1999511719</ele>
        <time>2014-01-31T10:07:35.000Z</time>
      </trkpt>
      <trkpt lat="45.55922" lon="6.5754">
        <ele>1928.4000244141</ele>
        <time>2014-01-31T10:07:36.000Z</time>
      </trkpt>
      <trkpt lat="45.55922" lon="6.5754">
        <ele>1928.5999755859</ele>
        <time>2014-01-31T10:07:37.000Z</time>
      </trkpt>
      <trkpt lat="45.55921" lon="6.57541">
        <ele>1929</ele>
        <time>2014-01-31T10:07:38.000Z</time>
      </trkpt>
      <trkpt lat="45.55921" lon="6.57542">
        <ele>1929.4000244141</ele>
        <time>2014-01-31T10:07:39.000Z</time>
      </trkpt>
      <trkpt lat="45.5592" lon="6.57542">
        <ele>1929.8000488281</ele>
        <time>2014-01-31T10:07:40.000Z</time>
      </trkpt>
      <trkpt lat="45.55919" lon="6.57542">
        <ele>1930</ele>
        <time>2014-01-31T10:07:41.000Z</time>
      </trkpt>
      <trkpt lat="45.55918" lon="6.57542">
        <ele>1930.1999511719</ele>
        <time>2014-01-31T10:07:42.000Z</time>
      </trkpt>
      <trkpt lat="45.55917" lon="6.57543">
        <ele>1930.1999511719</ele>
        <time>2014-01-31T10:07:43.000Z</time>
      </trkpt>
      <trkpt lat="45.55917" lon="6.57543">
        <ele>1930.4000244141</ele>
        <time>2014-01-31T10:07:44.000Z</time>
      </trkpt>
      <trkpt lat="45.55916" lon="6.57544">
        <ele>1930.5999755859</ele>
        <time>2014-01-31T10:07:45.000Z</time>
      </trkpt>
      <trkpt lat="45.55915" lon="6.57545">
        <ele>1930.5999755859</ele>
        <time>2014-01-31T10:07:46.000Z</time>
      </trkpt>
      <trkpt lat="45.55915" lon="6.57545">
        <ele>1930.8000488281</ele>
        <time>2014-01-31T10:07:47.000Z</time>
      </trkpt>
      <trkpt lat="45.55915" lon="6.57546">
        <ele>1930.8000488281</ele>
        <time>2014-01-31T10:07:48.000Z</time>
      </trkpt>
      <trkpt lat="45.55914" lon="6.57546">
        <ele>1931</ele>
        <time>2014-01-31T10:07:49.000Z</time>
      </trkpt>
      <trkpt lat="45.55914" lon="6.57547">
        <ele>1931.1999511719</ele>
        <time>2014-01-31T10:07:50.000Z</time>
      </trkpt>
      <trkpt lat="45.55914" lon="6.57547">
        <ele>1931.4000244141</ele>
        <time>2014-01-31T10:07:51.000Z</time>
      </trkpt>
      <trkpt lat="45.55914" lon="6.57547">
        <ele>1931.5999755859</ele>
        <time>2014-01-31T10:07:52.000Z</time>
      </trkpt>
      <trkpt lat="45.55914" lon="6.57547">
        <ele>1932</ele>
        <time>2014-01-31T10:07:53.000Z</time>
      </trkpt>
      <trkpt lat="45.55914" lon="6.57547">
        <ele>1932.1999511719</ele>
        <time>2014-01-31T10:07:54.000Z</time>
      </trkpt>
      <trkpt lat="45.55914" lon="6.57547">
        <ele>1932.4000244141</ele>
        <time>2014-01-31T10:07:55.000Z</time>
      </trkpt>
      <trkpt lat="45.55914" lon="6.57547">
        <ele>1932.5999755859</ele>
        <time>2014-01-31T10:07:56.000Z</time>
      </trkpt>
      <trkpt lat="45.55914" lon="6.57546">
        <ele>1932.8000488281</ele>
        <time>2014-01-31T10:07:57.000Z</time>
      </trkpt>
      <trkpt lat="45.55913" lon="6.57545">
        <ele>1933</ele>
        <time>2014-01-31T10:07:58.000Z</time>
      </trkpt>
      <trkpt lat="45.55913" lon="6.57544">
        <ele>1933.1999511719</ele>
        <time>2014-01-31T10:07:59.000Z</time>
      </trkpt>
      <trkpt lat="45.55913" lon="6.57542">
        <ele>1933.4000244141</ele>
        <time>2014-01-31T10:08:00.000Z</time>
      </trkpt>
      <trkpt lat="45.55913" lon="6.57541">
        <ele>1933.4000244141</ele>
        <time>2014-01-31T10:08:01.000Z</time>
      </trkpt>
      <trkpt lat="45.55913" lon="6.57541">
        <ele>1933.5999755859</ele>
        <time>2014-01-31T10:08:02.000Z</time>
      </trkpt>
      <trkpt lat="45.55913" lon="6.57539">
        <ele>1933.5999755859</ele>
        <time>2014-01-31T10:08:03.000Z</time>
      </trkpt>
      <trkpt lat="45.55912" lon="6.57538">
        <ele>1933.8000488281</ele>
        <time>2014-01-31T10:08:04.000Z</time>
      </trkpt>
      <trkpt lat="45.55912" lon="6.57537">
        <ele>1934.1999511719</ele>
        <time>2014-01-31T10:08:05.000Z</time>
      </trkpt>
      <trkpt lat="45.55912" lon="6.57535">
        <ele>1934.4000244141</ele>
        <time>2014-01-31T10:08:06.000Z</time>
      </trkpt>
      <trkpt lat="45.55911" lon="6.57534">
        <ele>1934.4000244141</ele>
        <time>2014-01-31T10:08:07.000Z</time>
      </trkpt>
      <trkpt lat="45.5591" lon="6.57534">
        <ele>1934.5999755859</ele>
        <time>2014-01-31T10:08:08.000Z</time>
      </trkpt>
      <trkpt lat="45.5591" lon="6.57534">
        <ele>1934.8000488281</ele>
        <time>2014-01-31T10:08:09.000Z</time>
      </trkpt>
      <trkpt lat="45.5591" lon="6.57535">
        <ele>1935</ele>
        <time>2014-01-31T10:08:10.000Z</time>
      </trkpt>
      <trkpt lat="45.55909" lon="6.57536">
        <ele>1935.4000244141</ele>
        <time>2014-01-31T10:08:11.000Z</time>
      </trkpt>
      <trkpt lat="45.55909" lon="6.57537">
        <ele>1935.8000488281</ele>
        <time>2014-01-31T10:08:12.000Z</time>
      </trkpt>
      <trkpt lat="45.55908" lon="6.57537">
        <ele>1936</ele>
        <time>2014-01-31T10:08:13.000Z</time>
      </trkpt>
      <trkpt lat="45.55908" lon="6.57538">
        <ele>1936.1999511719</ele>
        <time>2014-01-31T10:08:14.000Z</time>
      </trkpt>
      <trkpt lat="45.55907" lon="6.57539">
        <ele>1936.4000244141</ele>
        <time>2014-01-31T10:08:15.000Z</time>
      </trkpt>
      <trkpt lat="45.55906" lon="6.57539">
        <ele>1936.4000244141</ele>
        <time>2014-01-31T10:08:16.000Z</time>
      </trkpt>
      <trkpt lat="45.55906" lon="6.5754">
        <ele>1937</ele>
        <time>2014-01-31T10:08:17.000Z</time>
      </trkpt>
      <trkpt lat="45.55905" lon="6.57541">
        <ele>1937.1999511719</ele>
        <time>2014-01-31T10:08:18.000Z</time>
      </trkpt>
      <trkpt lat="45.55905" lon="6.57542">
        <ele>1937.4000244141</ele>
        <time>2014-01-31T10:08:19.000Z</time>
      </trkpt>
      <trkpt lat="45.55905" lon="6.57543">
        <ele>1937.5999755859</ele>
        <time>2014-01-31T10:08:20.000Z</time>
      </trkpt>
      <trkpt lat="45.55904" lon="6.57544">
        <ele>1937.8000488281</ele>
        <time>2014-01-31T10:08:21.000Z</time>
      </trkpt>
      <trkpt lat="45.55903" lon="6.57545">
        <ele>1938</ele>
        <time>2014-01-31T10:08:22.000Z</time>
      </trkpt>
      <trkpt lat="45.55903" lon="6.57546">
        <ele>1938</ele>
        <time>2014-01-31T10:08:23.000Z</time>
      </trkpt>
      <trkpt lat="45.55902" lon="6.57547">
        <ele>1938.1999511719</ele>
        <time>2014-01-31T10:08:24.000Z</time>
      </trkpt>
      <trkpt lat="45.55901" lon="6.57547">
        <ele>1938.4000244141</ele>
        <time>2014-01-31T10:08:25.000Z</time>
      </trkpt>
      <trkpt lat="45.55901" lon="6.57548">
        <ele>1938.4000244141</ele>
        <time>2014-01-31T10:08:26.000Z</time>
      </trkpt>
      <trkpt lat="45.559" lon="6.57548">
        <ele>1938.8000488281</ele>
        <time>2014-01-31T10:08:27.000Z</time>
      </trkpt>
      <trkpt lat="45.559" lon="6.57548">
        <ele>1939</ele>
        <time>2014-01-31T10:08:28.000Z</time>
      </trkpt>
      <trkpt lat="45.55899" lon="6.57548">
        <ele>1939.4000244141</ele>
        <time>2014-01-31T10:08:29.000Z</time>
      </trkpt>
      <trkpt lat="45.55899" lon="6.57547">
        <ele>1939.5999755859</ele>
        <time>2014-01-31T10:08:30.000Z</time>
      </trkpt>
      <trkpt lat="45.55899" lon="6.57546">
        <ele>1939.8000488281</ele>
        <time>2014-01-31T10:08:31.000Z</time>
      </trkpt>
      <trkpt lat="45.55899" lon="6.57544">
        <ele>1940</ele>
        <time>2014-01-31T10:08:32.000Z</time>
      </trkpt>
      <trkpt lat="45.55898" lon="6.57543">
        <ele>1940.1999511719</ele>
        <time>2014-01-31T10:08:33.000Z</time>
      </trkpt>
      <trkpt lat="45.55898" lon="6.57541">
        <ele>1940.4000244141</ele>
        <time>2014-01-31T10:08:34.000Z</time>
      </trkpt>
      <trkpt lat="45.55898" lon="6.5754">
        <ele>1940.5999755859</ele>
        <time>2014-01-31T10:08:35.000Z</time>
      </trkpt>
      <trkpt lat="45.55897" lon="6.57539">
        <ele>1940.8000488281</ele>
        <time>2014-01-31T10:08:36.000Z</time>
      </trkpt>
      <trkpt lat="45.55897" lon="6.57537">
        <ele>1941</ele>
        <time>2014-01-31T10:08:37.000Z</time>
      </trkpt>
      <trkpt lat="45.55897" lon="6.57535">
        <ele>1941.1999511719</ele>
        <time>2014-01-31T10:08:38.000Z</time>
      </trkpt>
      <trkpt lat="45.55897" lon="6.57534">
        <ele>1941.4000244141</ele>
        <time>2014-01-31T10:08:39.000Z</time>
      </trkpt>
      <trkpt lat="45.55897" lon="6.57533">
        <ele>1941.8000488281</ele>
        <time>2014-01-31T10:08:40.000Z</time>
      </trkpt>
      <trkpt lat="45.55896" lon="6.57532">
        <ele>1942.1999511719</ele>
        <time>2014-01-31T10:08:41.000Z</time>
      </trkpt>
      <trkpt lat="45.55896" lon="6.57531">
        <ele>1942.4000244141</ele>
        <time>2014-01-31T10:08:42.000Z</time>
      </trkpt>
      <trkpt lat="45.55895" lon="6.5753">
        <ele>1942.4000244141</ele>
        <time>2014-01-31T10:08:43.000Z</time>
      </trkpt>
      <trkpt lat="45.55895" lon="6.5753">
        <ele>1942.5999755859</ele>
        <time>2014-01-31T10:08:44.000Z</time>
      </trkpt>
      <trkpt lat="45.55894" lon="6.57531">
        <ele>1943</ele>
        <time>2014-01-31T10:08:45.000Z</time>
      </trkpt>
      <trkpt lat="45.55894" lon="6.57531">
        <ele>1943.1999511719</ele>
        <time>2014-01-31T10:08:46.000Z</time>
      </trkpt>
      <trkpt lat="45.55893" lon="6.57531">
        <ele>1943.4000244141</ele>
        <time>2014-01-31T10:08:47.000Z</time>
      </trkpt>
      <trkpt lat="45.55893" lon="6.57532">
        <ele>1943.5999755859</ele>
        <time>2014-01-31T10:08:48.000Z</time>
      </trkpt>
      <trkpt lat="45.55892" lon="6.57533">
        <ele>1943.8000488281</ele>
        <time>2014-01-31T10:08:49.000Z</time>
      </trkpt>
      <trkpt lat="45.55892" lon="6.57534">
        <ele>1944</ele>
        <time>2014-01-31T10:08:50.000Z</time>
      </trkpt>
      <trkpt lat="45.55891" lon="6.57534">
        <ele>1944.1999511719</ele>
        <time>2014-01-31T10:08:51.000Z</time>
      </trkpt>
      <trkpt lat="45.5589" lon="6.57535">
        <ele>1944.4000244141</ele>
        <time>2014-01-31T10:08:52.000Z</time>
      </trkpt>
      <trkpt lat="45.5589" lon="6.57535">
        <ele>1944.8000488281</ele>
        <time>2014-01-31T10:08:53.000Z</time>
      </trkpt>
      <trkpt lat="45.55889" lon="6.57535">
        <ele>1945</ele>
        <time>2014-01-31T10:08:54.000Z</time>
      </trkpt>
      <trkpt lat="45.55889" lon="6.57536">
        <ele>1945</ele>
        <time>2014-01-31T10:08:55.000Z</time>
      </trkpt>
      <trkpt lat="45.55888" lon="6.57536">
        <ele>1945.1999511719</ele>
        <time>2014-01-31T10:08:56.000Z</time>
      </trkpt>
      <trkpt lat="45.55887" lon="6.57536">
        <ele>1945.5999755859</ele>
        <time>2014-01-31T10:08:57.000Z</time>
      </trkpt>
      <trkpt lat="45.55886" lon="6.57536">
        <ele>1945.8000488281</ele>
        <time>2014-01-31T10:08:58.000Z</time>
      </trkpt>
      <trkpt lat="45.55886" lon="6.57536">
        <ele>1946</ele>
        <time>2014-01-31T10:08:59.000Z</time>
      </trkpt>
      <trkpt lat="45.55885" lon="6.57535">
        <ele>1946.1999511719</ele>
        <time>2014-01-31T10:09:00.000Z</time>
      </trkpt>
      <trkpt lat="45.55884" lon="6.57534">
        <ele>1946.4000244141</ele>
        <time>2014-01-31T10:09:01.000Z</time>
      </trkpt>
      <trkpt lat="45.55883" lon="6.57534">
        <ele>1946.5999755859</ele>
        <time>2014-01-31T10:09:02.000Z</time>
      </trkpt>
      <trkpt lat="45.55882" lon="6.57533">
        <ele>1946.8000488281</ele>
        <time>2014-01-31T10:09:03.000Z</time>
      </trkpt>
      <trkpt lat="45.55882" lon="6.57533">
        <ele>1946.8000488281</ele>
        <time>2014-01-31T10:09:04.000Z</time>
      </trkpt>
      <trkpt lat="45.55881" lon="6.57532">
        <ele>1947.4000244141</ele>
        <time>2014-01-31T10:09:05.000Z</time>
      </trkpt>
      <trkpt lat="45.5588" lon="6.57531">
        <ele>1947.5999755859</ele>
        <time>2014-01-31T10:09:06.000Z</time>
      </trkpt>
      <trkpt lat="45.55879" lon="6.5753">
        <ele>1947.8000488281</ele>
        <time>2014-01-31T10:09:07.000Z</time>
      </trkpt>
      <trkpt lat="45.55878" lon="6.57529">
        <ele>1948</ele>
        <time>2014-01-31T10:09:08.000Z</time>
      </trkpt>
      <trkpt lat="45.55877" lon="6.57528">
        <ele>1948.1999511719</ele>
        <time>2014-01-31T10:09:09.000Z</time>
      </trkpt>
      <trkpt lat="45.55877" lon="6.57527">
        <ele>1948.4000244141</ele>
        <time>2014-01-31T10:09:10.000Z</time>
      </trkpt>
      <trkpt lat="45.55876" lon="6.57527">
        <ele>1948.5999755859</ele>
        <time>2014-01-31T10:09:11.000Z</time>
      </trkpt>
      <trkpt lat="45.55876" lon="6.57526">
        <ele>1948.8000488281</ele>
        <time>2014-01-31T10:09:12.000Z</time>
      </trkpt>
      <trkpt lat="45.55875" lon="6.57526">
        <ele>1948.8000488281</ele>
        <time>2014-01-31T10:09:13.000Z</time>
      </trkpt>
      <trkpt lat="45.55875" lon="6.57525">
        <ele>1949.1999511719</ele>
        <time>2014-01-31T10:09:14.000Z</time>
      </trkpt>
      <trkpt lat="45.55874" lon="6.57524">
        <ele>1949.4000244141</ele>
        <time>2014-01-31T10:09:15.000Z</time>
      </trkpt>
      <trkpt lat="45.55874" lon="6.57523">
        <ele>1949.8000488281</ele>
        <time>2014-01-31T10:09:16.000Z</time>
      </trkpt>
      <trkpt lat="45.55874" lon="6.57522">
        <ele>1950</ele>
        <time>2014-01-31T10:09:17.000Z</time>
      </trkpt>
      <trkpt lat="45.55873" lon="6.5752">
        <ele>1950.1999511719</ele>
        <time>2014-01-31T10:09:18.000Z</time>
      </trkpt>
      <trkpt lat="45.55873" lon="6.57519">
        <ele>1950.4000244141</ele>
        <time>2014-01-31T10:09:19.000Z</time>
      </trkpt>
      <trkpt lat="45.55874" lon="6.57518">
        <ele>1950.5999755859</ele>
        <time>2014-01-31T10:09:20.000Z</time>
      </trkpt>
      <trkpt lat="45.55874" lon="6.57517">
        <ele>1950.8000488281</ele>
        <time>2014-01-31T10:09:21.000Z</time>
      </trkpt>
      <trkpt lat="45.55874" lon="6.57517">
        <ele>1951</ele>
        <time>2014-01-31T10:09:22.000Z</time>
      </trkpt>
      <trkpt lat="45.55874" lon="6.57517">
        <ele>1951.1999511719</ele>
        <time>2014-01-31T10:09:23.000Z</time>
      </trkpt>
      <trkpt lat="45.55874" lon="6.57517">
        <ele>1951.4000244141</ele>
        <time>2014-01-31T10:09:24.000Z</time>
      </trkpt>
      <trkpt lat="45.55874" lon="6.57517">
        <ele>1951.4000244141</ele>
        <time>2014-01-31T10:09:25.000Z</time>
      </trkpt>
      <trkpt lat="45.55874" lon="6.57517">
        <ele>1951.5999755859</ele>
        <time>2014-01-31T10:09:26.000Z</time>
      </trkpt>
      <trkpt lat="45.55874" lon="6.57517">
        <ele>1951.5999755859</ele>
        <time>2014-01-31T10:09:27.000Z</time>
      </trkpt>
      <trkpt lat="45.55874" lon="6.57517">
        <ele>1951.5999755859</ele>
        <time>2014-01-31T10:09:28.000Z</time>
      </trkpt>
      <trkpt lat="45.55874" lon="6.57517">
        <ele>1951.8000488281</ele>
        <time>2014-01-31T10:09:29.000Z</time>
      </trkpt>
      <trkpt lat="45.55874" lon="6.57516">
        <ele>1951.8000488281</ele>
        <time>2014-01-31T10:09:30.000Z</time>
      </trkpt>
      <trkpt lat="45.55874" lon="6.57515">
        <ele>1952</ele>
        <time>2014-01-31T10:09:31.000Z</time>
      </trkpt>
      <trkpt lat="45.55874" lon="6.57514">
        <ele>1952</ele>
        <time>2014-01-31T10:09:32.000Z</time>
      </trkpt>
      <trkpt lat="45.55874" lon="6.57513">
        <ele>1952.1999511719</ele>
        <time>2014-01-31T10:09:33.000Z</time>
      </trkpt>
      <trkpt lat="45.55874" lon="6.57511">
        <ele>1952.1999511719</ele>
        <time>2014-01-31T10:09:34.000Z</time>
      </trkpt>
      <trkpt lat="45.55874" lon="6.57511">
        <ele>1952.1999511719</ele>
        <time>2014-01-31T10:09:35.000Z</time>
      </trkpt>
      <trkpt lat="45.55874" lon="6.5751">
        <ele>1952.4000244141</ele>
        <time>2014-01-31T10:09:36.000Z</time>
      </trkpt>
      <trkpt lat="45.55874" lon="6.57509">
        <ele>1952.4000244141</ele>
        <time>2014-01-31T10:09:37.000Z</time>
      </trkpt>
      <trkpt lat="45.55873" lon="6.57508">
        <ele>1952.4000244141</ele>
        <time>2014-01-31T10:09:38.000Z</time>
      </trkpt>
      <trkpt lat="45.55873" lon="6.57507">
        <ele>1952.5999755859</ele>
        <time>2014-01-31T10:09:39.000Z</time>
      </trkpt>
      <trkpt lat="45.55873" lon="6.57506">
        <ele>1952.5999755859</ele>
        <time>2014-01-31T10:09:40.000Z</time>
      </trkpt>
      <trkpt lat="45.55873" lon="6.57505">
        <ele>1952.5999755859</ele>
        <time>2014-01-31T10:09:41.000Z</time>
      </trkpt>
      <trkpt lat="45.55873" lon="6.57504">
        <ele>1952.8000488281</ele>
        <time>2014-01-31T10:09:42.000Z</time>
      </trkpt>
      <trkpt lat="45.55872" lon="6.57502">
        <ele>1952.8000488281</ele>
        <time>2014-01-31T10:09:43.000Z</time>
      </trkpt>
      <trkpt lat="45.55872" lon="6.57501">
        <ele>1953</ele>
        <time>2014-01-31T10:09:44.000Z</time>
      </trkpt>
      <trkpt lat="45.55872" lon="6.575">
        <ele>1953</ele>
        <time>2014-01-31T10:09:45.000Z</time>
      </trkpt>
      <trkpt lat="45.55872" lon="6.57499">
        <ele>1953.1999511719</ele>
        <time>2014-01-31T10:09:46.000Z</time>
      </trkpt>
      <trkpt lat="45.55872" lon="6.57498">
        <ele>1953.4000244141</ele>
        <time>2014-01-31T10:09:47.000Z</time>
      </trkpt>
      <trkpt lat="45.55872" lon="6.57497">
        <ele>1953.5999755859</ele>
        <time>2014-01-31T10:09:48.000Z</time>
      </trkpt>
      <trkpt lat="45.55871" lon="6.57496">
        <ele>1953.8000488281</ele>
        <time>2014-01-31T10:09:49.000Z</time>
      </trkpt>
      <trkpt lat="45.55871" lon="6.57495">
        <ele>1954</ele>
        <time>2014-01-31T10:09:50.000Z</time>
      </trkpt>
      <trkpt lat="45.55871" lon="6.57494">
        <ele>1954</ele>
        <time>2014-01-31T10:09:51.000Z</time>
      </trkpt>
      <trkpt lat="45.55871" lon="6.57493">
        <ele>1954.1999511719</ele>
        <time>2014-01-31T10:09:52.000Z</time>
      </trkpt>
      <trkpt lat="45.55871" lon="6.57491">
        <ele>1954.5999755859</ele>
        <time>2014-01-31T10:09:53.000Z</time>
      </trkpt>
      <trkpt lat="45.55871" lon="6.5749">
        <ele>1954.5999755859</ele>
        <time>2014-01-31T10:09:54.000Z</time>
      </trkpt>
      <trkpt lat="45.55871" lon="6.57489">
        <ele>1954.8000488281</ele>
        <time>2014-01-31T10:09:55.000Z</time>
      </trkpt>
      <trkpt lat="45.55871" lon="6.57487">
        <ele>1955</ele>
        <time>2014-01-31T10:09:56.000Z</time>
      </trkpt>
      <trkpt lat="45.55871" lon="6.57486">
        <ele>1955</ele>
        <time>2014-01-31T10:09:57.000Z</time>
      </trkpt>
      <trkpt lat="45.55871" lon="6.57485">
        <ele>1955.1999511719</ele>
        <time>2014-01-31T10:09:58.000Z</time>
      </trkpt>
      <trkpt lat="45.55871" lon="6.57484">
        <ele>1955.1999511719</ele>
        <time>2014-01-31T10:09:59.000Z</time>
      </trkpt>
      <trkpt lat="45.55871" lon="6.57483">
        <ele>1955.4000244141</ele>
        <time>2014-01-31T10:10:00.000Z</time>
      </trkpt>
      <trkpt lat="45.55871" lon="6.57483">
        <ele>1955.8000488281</ele>
        <time>2014-01-31T10:10:01.000Z</time>
      </trkpt>
      <trkpt lat="45.55871" lon="6.57482">
        <ele>1956</ele>
        <time>2014-01-31T10:10:02.000Z</time>
      </trkpt>
      <trkpt lat="45.5587" lon="6.5748">
        <ele>1956.4000244141</ele>
        <time>2014-01-31T10:10:03.000Z</time>
      </trkpt>
      <trkpt lat="45.5587" lon="6.57479">
        <ele>1956.4000244141</ele>
        <time>2014-01-31T10:10:04.000Z</time>
      </trkpt>
      <trkpt lat="45.5587" lon="6.57478">
        <ele>1956.5999755859</ele>
        <time>2014-01-31T10:10:05.000Z</time>
      </trkpt>
      <trkpt lat="45.5587" lon="6.57476">
        <ele>1956.5999755859</ele>
        <time>2014-01-31T10:10:06.000Z</time>
      </trkpt>
      <trkpt lat="45.5587" lon="6.57474">
        <ele>1956.5999755859</ele>
        <time>2014-01-31T10:10:07.000Z</time>
      </trkpt>
      <trkpt lat="45.5587" lon="6.57473">
        <ele>1956.5999755859</ele>
        <time>2014-01-31T10:10:08.000Z</time>
      </trkpt>
      <trkpt lat="45.5587" lon="6.57472">
        <ele>1956.8000488281</ele>
        <time>2014-01-31T10:10:09.000Z</time>
      </trkpt>
      <trkpt lat="45.55871" lon="6.5747">
        <ele>1956.8000488281</ele>
        <time>2014-01-31T10:10:10.000Z</time>
      </trkpt>
      <trkpt lat="45.55871" lon="6.57468">
        <ele>1957</ele>
        <time>2014-01-31T10:10:11.000Z</time>
      </trkpt>
      <trkpt lat="45.55871" lon="6.57468">
        <ele>1957.1999511719</ele>
        <time>2014-01-31T10:10:12.000Z</time>
      </trkpt>
      <trkpt lat="45.55872" lon="6.57466">
        <ele>1957.4000244141</ele>
        <time>2014-01-31T10:10:13.000Z</time>
      </trkpt>
      <trkpt lat="45.55872" lon="6.57464">
        <ele>1957.5999755859</ele>
        <time>2014-01-31T10:10:14.000Z</time>
      </trkpt>
      <trkpt lat="45.55872" lon="6.57463">
        <ele>1957.8000488281</ele>
        <time>2014-01-31T10:10:15.000Z</time>
      </trkpt>
      <trkpt lat="45.55872" lon="6.57462">
        <ele>1958.1999511719</ele>
        <time>2014-01-31T10:10:16.000Z</time>
      </trkpt>
      <trkpt lat="45.55873" lon="6.5746">
        <ele>1958.8000488281</ele>
        <time>2014-01-31T10:10:17.000Z</time>
      </trkpt>
      <trkpt lat="45.55873" lon="6.57458">
        <ele>1958.8000488281</ele>
        <time>2014-01-31T10:10:18.000Z</time>
      </trkpt>
      <trkpt lat="45.55874" lon="6.57457">
        <ele>1959</ele>
        <time>2014-01-31T10:10:19.000Z</time>
      </trkpt>
      <trkpt lat="45.55874" lon="6.57456">
        <ele>1959.1999511719</ele>
        <time>2014-01-31T10:10:20.000Z</time>
      </trkpt>
      <trkpt lat="45.55874" lon="6.57454">
        <ele>1959.1999511719</ele>
        <time>2014-01-31T10:10:21.000Z</time>
      </trkpt>
      <trkpt lat="45.55874" lon="6.57452">
        <ele>1959.1999511719</ele>
        <time>2014-01-31T10:10:22.000Z</time>
      </trkpt>
      <trkpt lat="45.55874" lon="6.57451">
        <ele>1959.4000244141</ele>
        <time>2014-01-31T10:10:23.000Z</time>
      </trkpt>
      <trkpt lat="45.55874" lon="6.5745">
        <ele>1959.4000244141</ele>
        <time>2014-01-31T10:10:24.000Z</time>
      </trkpt>
      <trkpt lat="45.55875" lon="6.57448">
        <ele>1959.4000244141</ele>
        <time>2014-01-31T10:10:25.000Z</time>
      </trkpt>
      <trkpt lat="45.55875" lon="6.57447">
        <ele>1959.5999755859</ele>
        <time>2014-01-31T10:10:26.000Z</time>
      </trkpt>
      <trkpt lat="45.55875" lon="6.57447">
        <ele>1959.5999755859</ele>
        <time>2014-01-31T10:10:27.000Z</time>
      </trkpt>
      <trkpt lat="45.55875" lon="6.57445">
        <ele>1959.5999755859</ele>
        <time>2014-01-31T10:10:28.000Z</time>
      </trkpt>
      <trkpt lat="45.55875" lon="6.57444">
        <ele>1959.8000488281</ele>
        <time>2014-01-31T10:10:29.000Z</time>
      </trkpt>
      <trkpt lat="45.55876" lon="6.57442">
        <ele>1959.8000488281</ele>
        <time>2014-01-31T10:10:30.000Z</time>
      </trkpt>
      <trkpt lat="45.55876" lon="6.57442">
        <ele>1959.8000488281</ele>
        <time>2014-01-31T10:10:31.000Z</time>
      </trkpt>
      <trkpt lat="45.55876" lon="6.5744">
        <ele>1960</ele>
        <time>2014-01-31T10:10:32.000Z</time>
      </trkpt>
      <trkpt lat="45.55876" lon="6.57439">
        <ele>1960.1999511719</ele>
        <time>2014-01-31T10:10:33.000Z</time>
      </trkpt>
      <trkpt lat="45.55876" lon="6.57438">
        <ele>1960.1999511719</ele>
        <time>2014-01-31T10:10:34.000Z</time>
      </trkpt>
      <trkpt lat="45.55876" lon="6.57438">
        <ele>1960.4000244141</ele>
        <time>2014-01-31T10:10:35.000Z</time>
      </trkpt>
      <trkpt lat="45.55877" lon="6.57436">
        <ele>1960.5999755859</ele>
        <time>2014-01-31T10:10:36.000Z</time>
      </trkpt>
      <trkpt lat="45.55877" lon="6.57434">
        <ele>1961</ele>
        <time>2014-01-31T10:10:37.000Z</time>
      </trkpt>
      <trkpt lat="45.55877" lon="6.57433">
        <ele>1961</ele>
        <time>2014-01-31T10:10:38.000Z</time>
      </trkpt>
      <trkpt lat="45.55878" lon="6.57432">
        <ele>1961.4000244141</ele>
        <time>2014-01-31T10:10:39.000Z</time>
      </trkpt>
      <trkpt lat="45.55878" lon="6.5743">
        <ele>1961.5999755859</ele>
        <time>2014-01-31T10:10:40.000Z</time>
      </trkpt>
      <trkpt lat="45.55879" lon="6.57428">
        <ele>1962</ele>
        <time>2014-01-31T10:10:41.000Z</time>
      </trkpt>
      <trkpt lat="45.55879" lon="6.57426">
        <ele>1962.1999511719</ele>
        <time>2014-01-31T10:10:42.000Z</time>
      </trkpt>
      <trkpt lat="45.5588" lon="6.57426">
        <ele>1962.4000244141</ele>
        <time>2014-01-31T10:10:43.000Z</time>
      </trkpt>
      <trkpt lat="45.55881" lon="6.57424">
        <ele>1962.5999755859</ele>
        <time>2014-01-31T10:10:44.000Z</time>
      </trkpt>
      <trkpt lat="45.55881" lon="6.57423">
        <ele>1962.8000488281</ele>
        <time>2014-01-31T10:10:45.000Z</time>
      </trkpt>
      <trkpt lat="45.55882" lon="6.57422">
        <ele>1963.1999511719</ele>
        <time>2014-01-31T10:10:46.000Z</time>
      </trkpt>
      <trkpt lat="45.55883" lon="6.57421">
        <ele>1963.4000244141</ele>
        <time>2014-01-31T10:10:47.000Z</time>
      </trkpt>
      <trkpt lat="45.55883" lon="6.57419">
        <ele>1963.8000488281</ele>
        <time>2014-01-31T10:10:48.000Z</time>
      </trkpt>
      <trkpt lat="45.55884" lon="6.57417">
        <ele>1964</ele>
        <time>2014-01-31T10:10:49.000Z</time>
      </trkpt>
      <trkpt lat="45.55884" lon="6.57417">
        <ele>1964</ele>
        <time>2014-01-31T10:10:50.000Z</time>
      </trkpt>
      <trkpt lat="45.55885" lon="6.57415">
        <ele>1964.1999511719</ele>
        <time>2014-01-31T10:10:51.000Z</time>
      </trkpt>
      <trkpt lat="45.55885" lon="6.57414">
        <ele>1964.4000244141</ele>
        <time>2014-01-31T10:10:52.000Z</time>
      </trkpt>
      <trkpt lat="45.55885" lon="6.57414">
        <ele>1964.8000488281</ele>
        <time>2014-01-31T10:10:53.000Z</time>
      </trkpt>
      <trkpt lat="45.55885" lon="6.57412">
        <ele>1965</ele>
        <time>2014-01-31T10:10:54.000Z</time>
      </trkpt>
      <trkpt lat="45.55886" lon="6.57411">
        <ele>1965.1999511719</ele>
        <time>2014-01-31T10:10:55.000Z</time>
      </trkpt>
      <trkpt lat="45.55887" lon="6.57409">
        <ele>1965.5999755859</ele>
        <time>2014-01-31T10:10:56.000Z</time>
      </trkpt>
      <trkpt lat="45.55887" lon="6.57409">
        <ele>1965.8000488281</ele>
        <time>2014-01-31T10:10:57.000Z</time>
      </trkpt>
      <trkpt lat="45.55888" lon="6.57407">
        <ele>1965.8000488281</ele>
        <time>2014-01-31T10:10:58.000Z</time>
      </trkpt>
      <trkpt lat="45.55889" lon="6.57406">
        <ele>1966</ele>
        <time>2014-01-31T10:10:59.000Z</time>
      </trkpt>
      <trkpt lat="45.55889" lon="6.57406">
        <ele>1966</ele>
        <time>2014-01-31T10:11:00.000Z</time>
      </trkpt>
      <trkpt lat="45.5589" lon="6.57406">
        <ele>1966.1999511719</ele>
        <time>2014-01-31T10:11:01.000Z</time>
      </trkpt>
      <trkpt lat="45.55891" lon="6.57405">
        <ele>1966.4000244141</ele>
        <time>2014-01-31T10:11:02.000Z</time>
      </trkpt>
      <trkpt lat="45.55892" lon="6.57404">
        <ele>1966.5999755859</ele>
        <time>2014-01-31T10:11:03.000Z</time>
      </trkpt>
      <trkpt lat="45.55892" lon="6.57402">
        <ele>1966.8000488281</ele>
        <time>2014-01-31T10:11:04.000Z</time>
      </trkpt>
      <trkpt lat="45.55892" lon="6.57401">
        <ele>1967.1999511719</ele>
        <time>2014-01-31T10:11:05.000Z</time>
      </trkpt>
      <trkpt lat="45.55893" lon="6.57399">
        <ele>1967.4000244141</ele>
        <time>2014-01-31T10:11:06.000Z</time>
      </trkpt>
      <trkpt lat="45.55892" lon="6.57398">
        <ele>1967.4000244141</ele>
        <time>2014-01-31T10:11:07.000Z</time>
      </trkpt>
      <trkpt lat="45.55892" lon="6.57397">
        <ele>1967.5999755859</ele>
        <time>2014-01-31T10:11:08.000Z</time>
      </trkpt>
      <trkpt lat="45.55892" lon="6.57396">
        <ele>1967.8000488281</ele>
        <time>2014-01-31T10:11:09.000Z</time>
      </trkpt>
      <trkpt lat="45.55892" lon="6.57394">
        <ele>1968.1999511719</ele>
        <time>2014-01-31T10:11:10.000Z</time>
      </trkpt>
      <trkpt lat="45.55892" lon="6.57393">
        <ele>1968.5999755859</ele>
        <time>2014-01-31T10:11:11.000Z</time>
      </trkpt>
      <trkpt lat="45.55891" lon="6.57392">
        <ele>1968.8000488281</ele>
        <time>2014-01-31T10:11:12.000Z</time>
      </trkpt>
      <trkpt lat="45.55891" lon="6.57392">
        <ele>1969.1999511719</ele>
        <time>2014-01-31T10:11:13.000Z</time>
      </trkpt>
      <trkpt lat="45.5589" lon="6.57391">
        <ele>1969.4000244141</ele>
        <time>2014-01-31T10:11:14.000Z</time>
      </trkpt>
      <trkpt lat="45.5589" lon="6.57389">
        <ele>1969.5999755859</ele>
        <time>2014-01-31T10:11:15.000Z</time>
      </trkpt>
      <trkpt lat="45.55889" lon="6.57389">
        <ele>1969.5999755859</ele>
        <time>2014-01-31T10:11:16.000Z</time>
      </trkpt>
      <trkpt lat="45.55889" lon="6.57387">
        <ele>1969.8000488281</ele>
        <time>2014-01-31T10:11:17.000Z</time>
      </trkpt>
      <trkpt lat="45.55889" lon="6.57387">
        <ele>1970</ele>
        <time>2014-01-31T10:11:18.000Z</time>
      </trkpt>
      <trkpt lat="45.55888" lon="6.57386">
        <ele>1970.1999511719</ele>
        <time>2014-01-31T10:11:19.000Z</time>
      </trkpt>
      <trkpt lat="45.55888" lon="6.57385">
        <ele>1970.4000244141</ele>
        <time>2014-01-31T10:11:20.000Z</time>
      </trkpt>
      <trkpt lat="45.55887" lon="6.57384">
        <ele>1970.5999755859</ele>
        <time>2014-01-31T10:11:21.000Z</time>
      </trkpt>
      <trkpt lat="45.55887" lon="6.57383">
        <ele>1971</ele>
        <time>2014-01-31T10:11:22.000Z</time>
      </trkpt>
      <trkpt lat="45.55886" lon="6.57382">
        <ele>1971.1999511719</ele>
        <time>2014-01-31T10:11:23.000Z</time>
      </trkpt>
      <trkpt lat="45.55886" lon="6.57381">
        <ele>1971.5999755859</ele>
        <time>2014-01-31T10:11:24.000Z</time>
      </trkpt>
      <trkpt lat="45.55886" lon="6.5738">
        <ele>1972</ele>
        <time>2014-01-31T10:11:25.000Z</time>
      </trkpt>
      <trkpt lat="45.55885" lon="6.57379">
        <ele>1972.1999511719</ele>
        <time>2014-01-31T10:11:26.000Z</time>
      </trkpt>
      <trkpt lat="45.55885" lon="6.57378">
        <ele>1972.4000244141</ele>
        <time>2014-01-31T10:11:27.000Z</time>
      </trkpt>
      <trkpt lat="45.55885" lon="6.57378">
        <ele>1972.8000488281</ele>
        <time>2014-01-31T10:11:28.000Z</time>
      </trkpt>
      <trkpt lat="45.55884" lon="6.57377">
        <ele>1973</ele>
        <time>2014-01-31T10:11:29.000Z</time>
      </trkpt>
      <trkpt lat="45.55883" lon="6.57376">
        <ele>1973.8000488281</ele>
        <time>2014-01-31T10:11:30.000Z</time>
      </trkpt>
      <trkpt lat="45.55883" lon="6.57376">
        <ele>1974</ele>
        <time>2014-01-31T10:11:31.000Z</time>
      </trkpt>
      <trkpt lat="45.55882" lon="6.57375">
        <ele>1974.1999511719</ele>
        <time>2014-01-31T10:11:32.000Z</time>
      </trkpt>
      <trkpt lat="45.55882" lon="6.57375">
        <ele>1974.4000244141</ele>
        <time>2014-01-31T10:11:33.000Z</time>
      </trkpt>
      <trkpt lat="45.55882" lon="6.57374">
        <ele>1974.5999755859</ele>
        <time>2014-01-31T10:11:34.000Z</time>
      </trkpt>
      <trkpt lat="45.55882" lon="6.57373">
        <ele>1974.8000488281</ele>
        <time>2014-01-31T10:11:35.000Z</time>
      </trkpt>
      <trkpt lat="45.55882" lon="6.57373">
        <ele>1975.1999511719</ele>
        <time>2014-01-31T10:11:36.000Z</time>
      </trkpt>
      <trkpt lat="45.55882" lon="6.57372">
        <ele>1975.1999511719</ele>
        <time>2014-01-31T10:11:37.000Z</time>
      </trkpt>
      <trkpt lat="45.55881" lon="6.57372">
        <ele>1975.4000244141</ele>
        <time>2014-01-31T10:11:38.000Z</time>
      </trkpt>
      <trkpt lat="45.55881" lon="6.57371">
        <ele>1975.8000488281</ele>
        <time>2014-01-31T10:11:39.000Z</time>
      </trkpt>
      <trkpt lat="45.5588" lon="6.57371">
        <ele>1976.1999511719</ele>
        <time>2014-01-31T10:11:40.000Z</time>
      </trkpt>
      <trkpt lat="45.55879" lon="6.5737">
        <ele>1976.4000244141</ele>
        <time>2014-01-31T10:11:41.000Z</time>
      </trkpt>
      <trkpt lat="45.55878" lon="6.57368">
        <ele>1976.5999755859</ele>
        <time>2014-01-31T10:11:42.000Z</time>
      </trkpt>
      <trkpt lat="45.55878" lon="6.57368">
        <ele>1976.8000488281</ele>
        <time>2014-01-31T10:11:43.000Z</time>
      </trkpt>
      <trkpt lat="45.55877" lon="6.57367">
        <ele>1977</ele>
        <time>2014-01-31T10:11:44.000Z</time>
      </trkpt>
      <trkpt lat="45.55876" lon="6.57365">
        <ele>1977.1999511719</ele>
        <time>2014-01-31T10:11:45.000Z</time>
      </trkpt>
      <trkpt lat="45.55876" lon="6.57364">
        <ele>1977.5999755859</ele>
        <time>2014-01-31T10:11:46.000Z</time>
      </trkpt>
      <trkpt lat="45.55876" lon="6.57363">
        <ele>1977.5999755859</ele>
        <time>2014-01-31T10:11:47.000Z</time>
      </trkpt>
      <trkpt lat="45.55876" lon="6.57362">
        <ele>1977.8000488281</ele>
        <time>2014-01-31T10:11:48.000Z</time>
      </trkpt>
      <trkpt lat="45.55876" lon="6.5736">
        <ele>1978</ele>
        <time>2014-01-31T10:11:49.000Z</time>
      </trkpt>
      <trkpt lat="45.55875" lon="6.5736">
        <ele>1978.1999511719</ele>
        <time>2014-01-31T10:11:50.000Z</time>
      </trkpt>
      <trkpt lat="45.55874" lon="6.57359">
        <ele>1978.4000244141</ele>
        <time>2014-01-31T10:11:51.000Z</time>
      </trkpt>
      <trkpt lat="45.55874" lon="6.57358">
        <ele>1978.8000488281</ele>
        <time>2014-01-31T10:11:52.000Z</time>
      </trkpt>
      <trkpt lat="45.55873" lon="6.57356">
        <ele>1979</ele>
        <time>2014-01-31T10:11:53.000Z</time>
      </trkpt>
      <trkpt lat="45.55873" lon="6.57356">
        <ele>1979.4000244141</ele>
        <time>2014-01-31T10:11:54.000Z</time>
      </trkpt>
      <trkpt lat="45.55873" lon="6.57355">
        <ele>1979.8000488281</ele>
        <time>2014-01-31T10:11:55.000Z</time>
      </trkpt>
      <trkpt lat="45.55873" lon="6.57354">
        <ele>1980</ele>
        <time>2014-01-31T10:11:56.000Z</time>
      </trkpt>
      <trkpt lat="45.55873" lon="6.57353">
        <ele>1980.1999511719</ele>
        <time>2014-01-31T10:11:57.000Z</time>
      </trkpt>
      <trkpt lat="45.55873" lon="6.57352">
        <ele>1980.4000244141</ele>
        <time>2014-01-31T10:11:58.000Z</time>
      </trkpt>
      <trkpt lat="45.55873" lon="6.57351">
        <ele>1980.8000488281</ele>
        <time>2014-01-31T10:11:59.000Z</time>
      </trkpt>
      <trkpt lat="45.55873" lon="6.5735">
        <ele>1981</ele>
        <time>2014-01-31T10:12:00.000Z</time>
      </trkpt>
      <trkpt lat="45.55872" lon="6.5735">
        <ele>1981.1999511719</ele>
        <time>2014-01-31T10:12:01.000Z</time>
      </trkpt>
      <trkpt lat="45.55872" lon="6.57349">
        <ele>1981.4000244141</ele>
        <time>2014-01-31T10:12:02.000Z</time>
      </trkpt>
      <trkpt lat="45.55871" lon="6.57349">
        <ele>1981.5999755859</ele>
        <time>2014-01-31T10:12:03.000Z</time>
      </trkpt>
      <trkpt lat="45.5587" lon="6.57347">
        <ele>1981.8000488281</ele>
        <time>2014-01-31T10:12:04.000Z</time>
      </trkpt>
      <trkpt lat="45.5587" lon="6.57346">
        <ele>1982</ele>
        <time>2014-01-31T10:12:05.000Z</time>
      </trkpt>
      <trkpt lat="45.55869" lon="6.57345">
        <ele>1982.1999511719</ele>
        <time>2014-01-31T10:12:06.000Z</time>
      </trkpt>
      <trkpt lat="45.55868" lon="6.57344">
        <ele>1982.4000244141</ele>
        <time>2014-01-31T10:12:07.000Z</time>
      </trkpt>
      <trkpt lat="45.55868" lon="6.57343">
        <ele>1982.5999755859</ele>
        <time>2014-01-31T10:12:08.000Z</time>
      </trkpt>
      <trkpt lat="45.55868" lon="6.57342">
        <ele>1983</ele>
        <time>2014-01-31T10:12:09.000Z</time>
      </trkpt>
      <trkpt lat="45.55867" lon="6.57342">
        <ele>1983</ele>
        <time>2014-01-31T10:12:10.000Z</time>
      </trkpt>
      <trkpt lat="45.55867" lon="6.57341">
        <ele>1983.4000244141</ele>
        <time>2014-01-31T10:12:11.000Z</time>
      </trkpt>
      <trkpt lat="45.55867" lon="6.5734">
        <ele>1983.5999755859</ele>
        <time>2014-01-31T10:12:12.000Z</time>
      </trkpt>
      <trkpt lat="45.55867" lon="6.57339">
        <ele>1983.8000488281</ele>
        <time>2014-01-31T10:12:13.000Z</time>
      </trkpt>
      <trkpt lat="45.55866" lon="6.57338">
        <ele>1984.1999511719</ele>
        <time>2014-01-31T10:12:14.000Z</time>
      </trkpt>
      <trkpt lat="45.55866" lon="6.57338">
        <ele>1984.4000244141</ele>
        <time>2014-01-31T10:12:15.000Z</time>
      </trkpt>
      <trkpt lat="45.55865" lon="6.57337">
        <ele>1984.4000244141</ele>
        <time>2014-01-31T10:12:16.000Z</time>
      </trkpt>
      <trkpt lat="45.55865" lon="6.57336">
        <ele>1984.5999755859</ele>
        <time>2014-01-31T10:12:17.000Z</time>
      </trkpt>
      <trkpt lat="45.55864" lon="6.57336">
        <ele>1984.8000488281</ele>
        <time>2014-01-31T10:12:18.000Z</time>
      </trkpt>
      <trkpt lat="45.55864" lon="6.57336">
        <ele>1985</ele>
        <time>2014-01-31T10:12:19.000Z</time>
      </trkpt>
      <trkpt lat="45.55864" lon="6.57336">
        <ele>1985.1999511719</ele>
        <time>2014-01-31T10:12:20.000Z</time>
      </trkpt>
      <trkpt lat="45.55864" lon="6.57336">
        <ele>1985.4000244141</ele>
        <time>2014-01-31T10:12:21.000Z</time>
      </trkpt>
      <trkpt lat="45.55864" lon="6.57336">
        <ele>1985.8000488281</ele>
        <time>2014-01-31T10:12:22.000Z</time>
      </trkpt>
      <trkpt lat="45.55864" lon="6.57336">
        <ele>1986</ele>
        <time>2014-01-31T10:12:23.000Z</time>
      </trkpt>
      <trkpt lat="45.55865" lon="6.57336">
        <ele>1986.1999511719</ele>
        <time>2014-01-31T10:12:24.000Z</time>
      </trkpt>
      <trkpt lat="45.55866" lon="6.57336">
        <ele>1986.4000244141</ele>
        <time>2014-01-31T10:12:25.000Z</time>
      </trkpt>
      <trkpt lat="45.55867" lon="6.57336">
        <ele>1986.5999755859</ele>
        <time>2014-01-31T10:12:26.000Z</time>
      </trkpt>
      <trkpt lat="45.55868" lon="6.57336">
        <ele>1986.5999755859</ele>
        <time>2014-01-31T10:12:27.000Z</time>
      </trkpt>
      <trkpt lat="45.55869" lon="6.57336">
        <ele>1986.5999755859</ele>
        <time>2014-01-31T10:12:28.000Z</time>
      </trkpt>
      <trkpt lat="45.5587" lon="6.57335">
        <ele>1986.5999755859</ele>
        <time>2014-01-31T10:12:29.000Z</time>
      </trkpt>
      <trkpt lat="45.55871" lon="6.57334">
        <ele>1986.5999755859</ele>
        <time>2014-01-31T10:12:30.000Z</time>
      </trkpt>
      <trkpt lat="45.55872" lon="6.57334">
        <ele>1986.8000488281</ele>
        <time>2014-01-31T10:12:31.000Z</time>
      </trkpt>
      <trkpt lat="45.55873" lon="6.57333">
        <ele>1987</ele>
        <time>2014-01-31T10:12:32.000Z</time>
      </trkpt>
      <trkpt lat="45.55874" lon="6.57333">
        <ele>1987.1999511719</ele>
        <time>2014-01-31T10:12:33.000Z</time>
      </trkpt>
      <trkpt lat="45.55876" lon="6.57332">
        <ele>1987.4000244141</ele>
        <time>2014-01-31T10:12:34.000Z</time>
      </trkpt>
      <trkpt lat="45.55876" lon="6.57332">
        <ele>1987.5999755859</ele>
        <time>2014-01-31T10:12:35.000Z</time>
      </trkpt>
      <trkpt lat="45.55877" lon="6.57332">
        <ele>1987.8000488281</ele>
        <time>2014-01-31T10:12:36.000Z</time>
      </trkpt>
      <trkpt lat="45.55878" lon="6.57332">
        <ele>1988.1999511719</ele>
        <time>2014-01-31T10:12:37.000Z</time>
      </trkpt>
      <trkpt lat="45.55879" lon="6.57331">
        <ele>1988.5999755859</ele>
        <time>2014-01-31T10:12:38.000Z</time>
      </trkpt>
      <trkpt lat="45.5588" lon="6.57331">
        <ele>1988.8000488281</ele>
        <time>2014-01-31T10:12:39.000Z</time>
      </trkpt>
      <trkpt lat="45.55881" lon="6.57331">
        <ele>1989</ele>
        <time>2014-01-31T10:12:40.000Z</time>
      </trkpt>
      <trkpt lat="45.55882" lon="6.5733">
        <ele>1989.1999511719</ele>
        <time>2014-01-31T10:12:41.000Z</time>
      </trkpt>
      <trkpt lat="45.55882" lon="6.5733">
        <ele>1989.5999755859</ele>
        <time>2014-01-31T10:12:42.000Z</time>
      </trkpt>
      <trkpt lat="45.55883" lon="6.57329">
        <ele>1989.5999755859</ele>
        <time>2014-01-31T10:12:43.000Z</time>
      </trkpt>
      <trkpt lat="45.55884" lon="6.57328">
        <ele>1989.8000488281</ele>
        <time>2014-01-31T10:12:44.000Z</time>
      </trkpt>
      <trkpt lat="45.55885" lon="6.57328">
        <ele>1990</ele>
        <time>2014-01-31T10:12:45.000Z</time>
      </trkpt>
      <trkpt lat="45.55886" lon="6.57327">
        <ele>1990.1999511719</ele>
        <time>2014-01-31T10:12:46.000Z</time>
      </trkpt>
      <trkpt lat="45.55886" lon="6.57327">
        <ele>1990.4000244141</ele>
        <time>2014-01-31T10:12:47.000Z</time>
      </trkpt>
      <trkpt lat="45.55887" lon="6.57326">
        <ele>1990.5999755859</ele>
        <time>2014-01-31T10:12:48.000Z</time>
      </trkpt>
      <trkpt lat="45.55887" lon="6.57325">
        <ele>1990.5999755859</ele>
        <time>2014-01-31T10:12:49.000Z</time>
      </trkpt>
      <trkpt lat="45.55888" lon="6.57324">
        <ele>1990.8000488281</ele>
        <time>2014-01-31T10:12:50.000Z</time>
      </trkpt>
      <trkpt lat="45.55889" lon="6.57323">
        <ele>1991.1999511719</ele>
        <time>2014-01-31T10:12:51.000Z</time>
      </trkpt>
      <trkpt lat="45.55889" lon="6.57322">
        <ele>1991.5999755859</ele>
        <time>2014-01-31T10:12:52.000Z</time>
      </trkpt>
      <trkpt lat="45.5589" lon="6.57321">
        <ele>1991.8000488281</ele>
        <time>2014-01-31T10:12:53.000Z</time>
      </trkpt>
      <trkpt lat="45.55889" lon="6.5732">
        <ele>1992</ele>
        <time>2014-01-31T10:12:54.000Z</time>
      </trkpt>
      <trkpt lat="45.55888" lon="6.5732">
        <ele>1992.1999511719</ele>
        <time>2014-01-31T10:12:55.000Z</time>
      </trkpt>
      <trkpt lat="45.55887" lon="6.57319">
        <ele>1992.5999755859</ele>
        <time>2014-01-31T10:12:56.000Z</time>
      </trkpt>
      <trkpt lat="45.55887" lon="6.57318">
        <ele>1992.8000488281</ele>
        <time>2014-01-31T10:12:57.000Z</time>
      </trkpt>
      <trkpt lat="45.55885" lon="6.57318">
        <ele>1993</ele>
        <time>2014-01-31T10:12:58.000Z</time>
      </trkpt>
      <trkpt lat="45.55884" lon="6.57316">
        <ele>1993.1999511719</ele>
        <time>2014-01-31T10:12:59.000Z</time>
      </trkpt>
      <trkpt lat="45.55884" lon="6.57316">
        <ele>1993.4000244141</ele>
        <time>2014-01-31T10:13:00.000Z</time>
      </trkpt>
      <trkpt lat="45.55883" lon="6.57315">
        <ele>1993.5999755859</ele>
        <time>2014-01-31T10:13:01.000Z</time>
      </trkpt>
      <trkpt lat="45.55882" lon="6.57314">
        <ele>1993.8000488281</ele>
        <time>2014-01-31T10:13:02.000Z</time>
      </trkpt>
      <trkpt lat="45.55882" lon="6.57314">
        <ele>1993.8000488281</ele>
        <time>2014-01-31T10:13:03.000Z</time>
      </trkpt>
      <trkpt lat="45.55882" lon="6.57313">
        <ele>1994</ele>
        <time>2014-01-31T10:13:04.000Z</time>
      </trkpt>
      <trkpt lat="45.55882" lon="6.57312">
        <ele>1994.1999511719</ele>
        <time>2014-01-31T10:13:05.000Z</time>
      </trkpt>
      <trkpt lat="45.55882" lon="6.57312">
        <ele>1994.5999755859</ele>
        <time>2014-01-31T10:13:06.000Z</time>
      </trkpt>
      <trkpt lat="45.55882" lon="6.57312">
        <ele>1994.8000488281</ele>
        <time>2014-01-31T10:13:07.000Z</time>
      </trkpt>
      <trkpt lat="45.55883" lon="6.57311">
        <ele>1995.1999511719</ele>
        <time>2014-01-31T10:13:08.000Z</time>
      </trkpt>
      <trkpt lat="45.55883" lon="6.5731">
        <ele>1995.4000244141</ele>
        <time>2014-01-31T10:13:09.000Z</time>
      </trkpt>
      <trkpt lat="45.55884" lon="6.5731">
        <ele>1995.5999755859</ele>
        <time>2014-01-31T10:13:10.000Z</time>
      </trkpt>
      <trkpt lat="45.55884" lon="6.57309">
        <ele>1995.8000488281</ele>
        <time>2014-01-31T10:13:11.000Z</time>
      </trkpt>
      <trkpt lat="45.55885" lon="6.57308">
        <ele>1996</ele>
        <time>2014-01-31T10:13:12.000Z</time>
      </trkpt>
      <trkpt lat="45.55886" lon="6.57307">
        <ele>1996.1999511719</ele>
        <time>2014-01-31T10:13:13.000Z</time>
      </trkpt>
      <trkpt lat="45.55887" lon="6.57306">
        <ele>1996.4000244141</ele>
        <time>2014-01-31T10:13:14.000Z</time>
      </trkpt>
      <trkpt lat="45.55888" lon="6.57305">
        <ele>1996.5999755859</ele>
        <time>2014-01-31T10:13:15.000Z</time>
      </trkpt>
      <trkpt lat="45.55888" lon="6.57304">
        <ele>1996.8000488281</ele>
        <time>2014-01-31T10:13:16.000Z</time>
      </trkpt>
      <trkpt lat="45.55889" lon="6.57303">
        <ele>1997</ele>
        <time>2014-01-31T10:13:17.000Z</time>
      </trkpt>
      <trkpt lat="45.55889" lon="6.57302">
        <ele>1997.1999511719</ele>
        <time>2014-01-31T10:13:18.000Z</time>
      </trkpt>
      <trkpt lat="45.5589" lon="6.57301">
        <ele>1997.5999755859</ele>
        <time>2014-01-31T10:13:19.000Z</time>
      </trkpt>
      <trkpt lat="45.5589" lon="6.57301">
        <ele>1997.8000488281</ele>
        <time>2014-01-31T10:13:20.000Z</time>
      </trkpt>
      <trkpt lat="45.5589" lon="6.573">
        <ele>1997.8000488281</ele>
        <time>2014-01-31T10:13:21.000Z</time>
      </trkpt>
      <trkpt lat="45.55891" lon="6.57299">
        <ele>1998</ele>
        <time>2014-01-31T10:13:22.000Z</time>
      </trkpt>
      <trkpt lat="45.55891" lon="6.57298">
        <ele>1998</ele>
        <time>2014-01-31T10:13:23.000Z</time>
      </trkpt>
      <trkpt lat="45.55891" lon="6.57298">
        <ele>1998.1999511719</ele>
        <time>2014-01-31T10:13:24.000Z</time>
      </trkpt>
      <trkpt lat="45.55892" lon="6.57297">
        <ele>1998.4000244141</ele>
        <time>2014-01-31T10:13:25.000Z</time>
      </trkpt>
      <trkpt lat="45.55892" lon="6.57297">
        <ele>1998.5999755859</ele>
        <time>2014-01-31T10:13:26.000Z</time>
      </trkpt>
      <trkpt lat="45.55892" lon="6.57296">
        <ele>1999</ele>
        <time>2014-01-31T10:13:27.000Z</time>
      </trkpt>
      <trkpt lat="45.55892" lon="6.57296">
        <ele>1999.1999511719</ele>
        <time>2014-01-31T10:13:28.000Z</time>
      </trkpt>
      <trkpt lat="45.55892" lon="6.57296">
        <ele>1999.4000244141</ele>
        <time>2014-01-31T10:13:29.000Z</time>
      </trkpt>
      <trkpt lat="45.55892" lon="6.57296">
        <ele>2000</ele>
        <time>2014-01-31T10:13:30.000Z</time>
      </trkpt>
      <trkpt lat="45.55892" lon="6.57296">
        <ele>2000.1999511719</ele>
        <time>2014-01-31T10:13:31.000Z</time>
      </trkpt>
      <trkpt lat="45.55892" lon="6.57296">
        <ele>2000.5999755859</ele>
        <time>2014-01-31T10:13:32.000Z</time>
      </trkpt>
      <trkpt lat="45.55892" lon="6.57295">
        <ele>2001</ele>
        <time>2014-01-31T10:13:33.000Z</time>
      </trkpt>
      <trkpt lat="45.55891" lon="6.57293">
        <ele>2001</ele>
        <time>2014-01-31T10:13:34.000Z</time>
      </trkpt>
      <trkpt lat="45.55891" lon="6.57292">
        <ele>2001.1999511719</ele>
        <time>2014-01-31T10:13:35.000Z</time>
      </trkpt>
      <trkpt lat="45.55891" lon="6.57291">
        <ele>2001.4000244141</ele>
        <time>2014-01-31T10:13:36.000Z</time>
      </trkpt>
      <trkpt lat="45.5589" lon="6.5729">
        <ele>2001.5999755859</ele>
        <time>2014-01-31T10:13:37.000Z</time>
      </trkpt>
      <trkpt lat="45.5589" lon="6.5729">
        <ele>2002</ele>
        <time>2014-01-31T10:13:38.000Z</time>
      </trkpt>
      <trkpt lat="45.55889" lon="6.57289">
        <ele>2002.1999511719</ele>
        <time>2014-01-31T10:13:39.000Z</time>
      </trkpt>
      <trkpt lat="45.55888" lon="6.57288">
        <ele>2002.1999511719</ele>
        <time>2014-01-31T10:13:40.000Z</time>
      </trkpt>
      <trkpt lat="45.55888" lon="6.57288">
        <ele>2002.4000244141</ele>
        <time>2014-01-31T10:13:41.000Z</time>
      </trkpt>
      <trkpt lat="45.55887" lon="6.57287">
        <ele>2002.4000244141</ele>
        <time>2014-01-31T10:13:42.000Z</time>
      </trkpt>
      <trkpt lat="45.55887" lon="6.57287">
        <ele>2002.5999755859</ele>
        <time>2014-01-31T10:13:43.000Z</time>
      </trkpt>
      <trkpt lat="45.55886" lon="6.57287">
        <ele>2002.8000488281</ele>
        <time>2014-01-31T10:13:44.000Z</time>
      </trkpt>
      <trkpt lat="45.55886" lon="6.57286">
        <ele>2003</ele>
        <time>2014-01-31T10:13:45.000Z</time>
      </trkpt>
      <trkpt lat="45.55885" lon="6.57286">
        <ele>2003</ele>
        <time>2014-01-31T10:13:46.000Z</time>
      </trkpt>
      <trkpt lat="45.55884" lon="6.57285">
        <ele>2003.1999511719</ele>
        <time>2014-01-31T10:13:47.000Z</time>
      </trkpt>
      <trkpt lat="45.55884" lon="6.57284">
        <ele>2003.4000244141</ele>
        <time>2014-01-31T10:13:48.000Z</time>
      </trkpt>
      <trkpt lat="45.55883" lon="6.57284">
        <ele>2003.5999755859</ele>
        <time>2014-01-31T10:13:49.000Z</time>
      </trkpt>
      <trkpt lat="45.55883" lon="6.57284">
        <ele>2004</ele>
        <time>2014-01-31T10:13:50.000Z</time>
      </trkpt>
      <trkpt lat="45.55883" lon="6.57284">
        <ele>2004.4000244141</ele>
        <time>2014-01-31T10:13:51.000Z</time>
      </trkpt>
      <trkpt lat="45.55883" lon="6.57283">
        <ele>2004.5999755859</ele>
        <time>2014-01-31T10:13:52.000Z</time>
      </trkpt>
      <trkpt lat="45.55883" lon="6.57283">
        <ele>2005</ele>
        <time>2014-01-31T10:13:53.000Z</time>
      </trkpt>
      <trkpt lat="45.55883" lon="6.57283">
        <ele>2005.5999755859</ele>
        <time>2014-01-31T10:13:54.000Z</time>
      </trkpt>
      <trkpt lat="45.55883" lon="6.57283">
        <ele>2005.8000488281</ele>
        <time>2014-01-31T10:13:55.000Z</time>
      </trkpt>
      <trkpt lat="45.55883" lon="6.57283">
        <ele>2006</ele>
        <time>2014-01-31T10:13:56.000Z</time>
      </trkpt>
      <trkpt lat="45.55883" lon="6.57282">
        <ele>2006</ele>
        <time>2014-01-31T10:13:57.000Z</time>
      </trkpt>
      <trkpt lat="45.55883" lon="6.57281">
        <ele>2006.1999511719</ele>
        <time>2014-01-31T10:13:58.000Z</time>
      </trkpt>
      <trkpt lat="45.55884" lon="6.5728">
        <ele>2006.1999511719</ele>
        <time>2014-01-31T10:13:59.000Z</time>
      </trkpt>
      <trkpt lat="45.55884" lon="6.5728">
        <ele>2006.1999511719</ele>
        <time>2014-01-31T10:14:00.000Z</time>
      </trkpt>
      <trkpt lat="45.55885" lon="6.57279">
        <ele>2006.1999511719</ele>
        <time>2014-01-31T10:14:01.000Z</time>
      </trkpt>
      <trkpt lat="45.55885" lon="6.57278">
        <ele>2006.1999511719</ele>
        <time>2014-01-31T10:14:02.000Z</time>
      </trkpt>
      <trkpt lat="45.55885" lon="6.57278">
        <ele>2006.4000244141</ele>
        <time>2014-01-31T10:14:03.000Z</time>
      </trkpt>
      <trkpt lat="45.55886" lon="6.57277">
        <ele>2006.5999755859</ele>
        <time>2014-01-31T10:14:04.000Z</time>
      </trkpt>
      <trkpt lat="45.55886" lon="6.57277">
        <ele>2006.8000488281</ele>
        <time>2014-01-31T10:14:05.000Z</time>
      </trkpt>
      <trkpt lat="45.55886" lon="6.57275">
        <ele>2007.1999511719</ele>
        <time>2014-01-31T10:14:06.000Z</time>
      </trkpt>
      <trkpt lat="45.55887" lon="6.57275">
        <ele>2007.4000244141</ele>
        <time>2014-01-31T10:14:07.000Z</time>
      </trkpt>
      <trkpt lat="45.55887" lon="6.57274">
        <ele>2007.8000488281</ele>
        <time>2014-01-31T10:14:08.000Z</time>
      </trkpt>
      <trkpt lat="45.55887" lon="6.57272">
        <ele>2008</ele>
        <time>2014-01-31T10:14:09.000Z</time>
      </trkpt>
      <trkpt lat="45.55888" lon="6.57272">
        <ele>2008.4000244141</ele>
        <time>2014-01-31T10:14:10.000Z</time>
      </trkpt>
      <trkpt lat="45.55888" lon="6.57271">
        <ele>2008.5999755859</ele>
        <time>2014-01-31T10:14:11.000Z</time>
      </trkpt>
      <trkpt lat="45.55888" lon="6.5727">
        <ele>2009</ele>
        <time>2014-01-31T10:14:12.000Z</time>
      </trkpt>
      <trkpt lat="45.55888" lon="6.57269">
        <ele>2009.1999511719</ele>
        <time>2014-01-31T10:14:13.000Z</time>
      </trkpt>
      <trkpt lat="45.55888" lon="6.57268">
        <ele>2009.4000244141</ele>
        <time>2014-01-31T10:14:14.000Z</time>
      </trkpt>
      <trkpt lat="45.55888" lon="6.57267">
        <ele>2009.5999755859</ele>
        <time>2014-01-31T10:14:15.000Z</time>
      </trkpt>
      <trkpt lat="45.55888" lon="6.57267">
        <ele>2009.8000488281</ele>
        <time>2014-01-31T10:14:16.000Z</time>
      </trkpt>
      <trkpt lat="45.55888" lon="6.57267">
        <ele>2009.8000488281</ele>
        <time>2014-01-31T10:14:17.000Z</time>
      </trkpt>
      <trkpt lat="45.55889" lon="6.57266">
        <ele>2010.1999511719</ele>
        <time>2014-01-31T10:14:18.000Z</time>
      </trkpt>
      <trkpt lat="45.55889" lon="6.57265">
        <ele>2010.5999755859</ele>
        <time>2014-01-31T10:14:19.000Z</time>
      </trkpt>
      <trkpt lat="45.55889" lon="6.57265">
        <ele>2010.8000488281</ele>
        <time>2014-01-31T10:14:20.000Z</time>
      </trkpt>
      <trkpt lat="45.55889" lon="6.57265">
        <ele>2011.1999511719</ele>
        <time>2014-01-31T10:14:21.000Z</time>
      </trkpt>
      <trkpt lat="45.55889" lon="6.57265">
        <ele>2011.4000244141</ele>
        <time>2014-01-31T10:14:22.000Z</time>
      </trkpt>
      <trkpt lat="45.55889" lon="6.57265">
        <ele>2011.5999755859</ele>
        <time>2014-01-31T10:14:23.000Z</time>
      </trkpt>
      <trkpt lat="45.55889" lon="6.57265">
        <ele>2011.8000488281</ele>
        <time>2014-01-31T10:14:24.000Z</time>
      </trkpt>
      <trkpt lat="45.55889" lon="6.57265">
        <ele>2012.1999511719</ele>
        <time>2014-01-31T10:14:25.000Z</time>
      </trkpt>
      <trkpt lat="45.55889" lon="6.57265">
        <ele>2012.5999755859</ele>
        <time>2014-01-31T10:14:26.000Z</time>
      </trkpt>
      <trkpt lat="45.55889" lon="6.57265">
        <ele>2012.8000488281</ele>
        <time>2014-01-31T10:14:27.000Z</time>
      </trkpt>
      <trkpt lat="45.55889" lon="6.57264">
        <ele>2013</ele>
        <time>2014-01-31T10:14:28.000Z</time>
      </trkpt>
      <trkpt lat="45.55889" lon="6.57264">
        <ele>2013.1999511719</ele>
        <time>2014-01-31T10:14:29.000Z</time>
      </trkpt>
      <trkpt lat="45.55888" lon="6.57264">
        <ele>2013.4000244141</ele>
        <time>2014-01-31T10:14:30.000Z</time>
      </trkpt>
      <trkpt lat="45.55888" lon="6.57264">
        <ele>2013.5999755859</ele>
        <time>2014-01-31T10:14:31.000Z</time>
      </trkpt>
      <trkpt lat="45.55887" lon="6.57263">
        <ele>2013.8000488281</ele>
        <time>2014-01-31T10:14:32.000Z</time>
      </trkpt>
      <trkpt lat="45.55887" lon="6.57263">
        <ele>2013.8000488281</ele>
        <time>2014-01-31T10:14:33.000Z</time>
      </trkpt>
      <trkpt lat="45.55886" lon="6.57263">
        <ele>2014</ele>
        <time>2014-01-31T10:14:34.000Z</time>
      </trkpt>
      <trkpt lat="45.55885" lon="6.57263">
        <ele>2014</ele>
        <time>2014-01-31T10:14:35.000Z</time>
      </trkpt>
      <trkpt lat="45.55885" lon="6.57263">
        <ele>2014</ele>
        <time>2014-01-31T10:14:36.000Z</time>
      </trkpt>
      <trkpt lat="45.55884" lon="6.57263">
        <ele>2014.1999511719</ele>
        <time>2014-01-31T10:14:37.000Z</time>
      </trkpt>
      <trkpt lat="45.55883" lon="6.57262">
        <ele>2014.4000244141</ele>
        <time>2014-01-31T10:14:38.000Z</time>
      </trkpt>
      <trkpt lat="45.55883" lon="6.57261">
        <ele>2014.4000244141</ele>
        <time>2014-01-31T10:14:39.000Z</time>
      </trkpt>
      <trkpt lat="45.55883" lon="6.57261">
        <ele>2014.5999755859</ele>
        <time>2014-01-31T10:14:40.000Z</time>
      </trkpt>
      <trkpt lat="45.55883" lon="6.5726">
        <ele>2015</ele>
        <time>2014-01-31T10:14:41.000Z</time>
      </trkpt>
      <trkpt lat="45.55883" lon="6.57259">
        <ele>2015.4000244141</ele>
        <time>2014-01-31T10:14:42.000Z</time>
      </trkpt>
      <trkpt lat="45.55882" lon="6.57258">
        <ele>2015.4000244141</ele>
        <time>2014-01-31T10:14:43.000Z</time>
      </trkpt>
      <trkpt lat="45.55882" lon="6.57258">
        <ele>2015.5999755859</ele>
        <time>2014-01-31T10:14:44.000Z</time>
      </trkpt>
      <trkpt lat="45.55882" lon="6.57257">
        <ele>2015.5999755859</ele>
        <time>2014-01-31T10:14:45.000Z</time>
      </trkpt>
      <trkpt lat="45.55882" lon="6.57257">
        <ele>2015.8000488281</ele>
        <time>2014-01-31T10:14:46.000Z</time>
      </trkpt>
      <trkpt lat="45.55882" lon="6.57256">
        <ele>2015.8000488281</ele>
        <time>2014-01-31T10:14:47.000Z</time>
      </trkpt>
      <trkpt lat="45.55882" lon="6.57256">
        <ele>2016.1999511719</ele>
        <time>2014-01-31T10:14:48.000Z</time>
      </trkpt>
      <trkpt lat="45.55881" lon="6.57255">
        <ele>2016.4000244141</ele>
        <time>2014-01-31T10:14:49.000Z</time>
      </trkpt>
      <trkpt lat="45.55881" lon="6.57255">
        <ele>2016.8000488281</ele>
        <time>2014-01-31T10:14:50.000Z</time>
      </trkpt>
      <trkpt lat="45.5588" lon="6.57254">
        <ele>2017.1999511719</ele>
        <time>2014-01-31T10:14:51.000Z</time>
      </trkpt>
      <trkpt lat="45.5588" lon="6.57254">
        <ele>2017.5999755859</ele>
        <time>2014-01-31T10:14:52.000Z</time>
      </trkpt>
      <trkpt lat="45.5588" lon="6.57254">
        <ele>2018</ele>
        <time>2014-01-31T10:14:53.000Z</time>
      </trkpt>
      <trkpt lat="45.5588" lon="6.57253">
        <ele>2018.1999511719</ele>
        <time>2014-01-31T10:14:54.000Z</time>
      </trkpt>
      <trkpt lat="45.5588" lon="6.57252">
        <ele>2018.4000244141</ele>
        <time>2014-01-31T10:14:55.000Z</time>
      </trkpt>
      <trkpt lat="45.5588" lon="6.57251">
        <ele>2018.5999755859</ele>
        <time>2014-01-31T10:14:56.000Z</time>
      </trkpt>
      <trkpt lat="45.5588" lon="6.5725">
        <ele>2018.8000488281</ele>
        <time>2014-01-31T10:14:57.000Z</time>
      </trkpt>
      <trkpt lat="45.5588" lon="6.5725">
        <ele>2018.5999755859</ele>
        <time>2014-01-31T10:14:58.000Z</time>
      </trkpt>
      <trkpt lat="45.55879" lon="6.57249">
        <ele>2018.8000488281</ele>
        <time>2014-01-31T10:14:59.000Z</time>
      </trkpt>
      <trkpt lat="45.55879" lon="6.57248">
        <ele>2018.8000488281</ele>
        <time>2014-01-31T10:15:00.000Z</time>
      </trkpt>
      <trkpt lat="45.55879" lon="6.57248">
        <ele>2019</ele>
        <time>2014-01-31T10:15:01.000Z</time>
      </trkpt>
      <trkpt lat="45.55878" lon="6.57248">
        <ele>2019.1999511719</ele>
        <time>2014-01-31T10:15:02.000Z</time>
      </trkpt>
      <trkpt lat="45.55878" lon="6.57248">
        <ele>2019.5999755859</ele>
        <time>2014-01-31T10:15:03.000Z</time>
      </trkpt>
      <trkpt lat="45.55877" lon="6.57248">
        <ele>2019.5999755859</ele>
        <time>2014-01-31T10:15:04.000Z</time>
      </trkpt>
      <trkpt lat="45.55877" lon="6.57248">
        <ele>2020</ele>
        <time>2014-01-31T10:15:05.000Z</time>
      </trkpt>
      <trkpt lat="45.55877" lon="6.57248">
        <ele>2020.4000244141</ele>
        <time>2014-01-31T10:15:06.000Z</time>
      </trkpt>
      <trkpt lat="45.55876" lon="6.57248">
        <ele>2020.5999755859</ele>
        <time>2014-01-31T10:15:07.000Z</time>
      </trkpt>
      <trkpt lat="45.55875" lon="6.57248">
        <ele>2021</ele>
        <time>2014-01-31T10:15:08.000Z</time>
      </trkpt>
      <trkpt lat="45.55875" lon="6.57247">
        <ele>2021.1999511719</ele>
        <time>2014-01-31T10:15:09.000Z</time>
      </trkpt>
      <trkpt lat="45.55874" lon="6.57247">
        <ele>2021.4000244141</ele>
        <time>2014-01-31T10:15:10.000Z</time>
      </trkpt>
      <trkpt lat="45.55874" lon="6.57247">
        <ele>2021.4000244141</ele>
        <time>2014-01-31T10:15:11.000Z</time>
      </trkpt>
      <trkpt lat="45.55873" lon="6.57246">
        <ele>2021.5999755859</ele>
        <time>2014-01-31T10:15:12.000Z</time>
      </trkpt>
      <trkpt lat="45.55873" lon="6.57246">
        <ele>2021.5999755859</ele>
        <time>2014-01-31T10:15:13.000Z</time>
      </trkpt>
      <trkpt lat="45.55872" lon="6.57246">
        <ele>2021.8000488281</ele>
        <time>2014-01-31T10:15:14.000Z</time>
      </trkpt>
      <trkpt lat="45.55871" lon="6.57246">
        <ele>2022</ele>
        <time>2014-01-31T10:15:15.000Z</time>
      </trkpt>
      <trkpt lat="45.5587" lon="6.57245">
        <ele>2022</ele>
        <time>2014-01-31T10:15:16.000Z</time>
      </trkpt>
      <trkpt lat="45.5587" lon="6.57244">
        <ele>2022.1999511719</ele>
        <time>2014-01-31T10:15:17.000Z</time>
      </trkpt>
      <trkpt lat="45.55869" lon="6.57243">
        <ele>2022.5999755859</ele>
        <time>2014-01-31T10:15:18.000Z</time>
      </trkpt>
      <trkpt lat="45.55869" lon="6.57242">
        <ele>2022.8000488281</ele>
        <time>2014-01-31T10:15:19.000Z</time>
      </trkpt>
      <trkpt lat="45.55868" lon="6.57241">
        <ele>2023</ele>
        <time>2014-01-31T10:15:20.000Z</time>
      </trkpt>
      <trkpt lat="45.55868" lon="6.57239">
        <ele>2023.1999511719</ele>
        <time>2014-01-31T10:15:21.000Z</time>
      </trkpt>
      <trkpt lat="45.55867" lon="6.57238">
        <ele>2023.4000244141</ele>
        <time>2014-01-31T10:15:22.000Z</time>
      </trkpt>
      <trkpt lat="45.55867" lon="6.57237">
        <ele>2023.5999755859</ele>
        <time>2014-01-31T10:15:23.000Z</time>
      </trkpt>
      <trkpt lat="45.55866" lon="6.57236">
        <ele>2023.5999755859</ele>
        <time>2014-01-31T10:15:24.000Z</time>
      </trkpt>
      <trkpt lat="45.55865" lon="6.57235">
        <ele>2023.5999755859</ele>
        <time>2014-01-31T10:15:25.000Z</time>
      </trkpt>
      <trkpt lat="45.55865" lon="6.57234">
        <ele>2023.8000488281</ele>
        <time>2014-01-31T10:15:26.000Z</time>
      </trkpt>
      <trkpt lat="45.55864" lon="6.57233">
        <ele>2024</ele>
        <time>2014-01-31T10:15:27.000Z</time>
      </trkpt>
      <trkpt lat="45.55864" lon="6.57232">
        <ele>2024.1999511719</ele>
        <time>2014-01-31T10:15:28.000Z</time>
      </trkpt>
      <trkpt lat="45.55863" lon="6.57231">
        <ele>2024.4000244141</ele>
        <time>2014-01-31T10:15:29.000Z</time>
      </trkpt>
      <trkpt lat="45.55863" lon="6.5723">
        <ele>2024.8000488281</ele>
        <time>2014-01-31T10:15:30.000Z</time>
      </trkpt>
      <trkpt lat="45.55863" lon="6.57229">
        <ele>2025.1999511719</ele>
        <time>2014-01-31T10:15:31.000Z</time>
      </trkpt>
      <trkpt lat="45.55862" lon="6.57228">
        <ele>2025.1999511719</ele>
        <time>2014-01-31T10:15:32.000Z</time>
      </trkpt>
      <trkpt lat="45.55861" lon="6.57227">
        <ele>2025.4000244141</ele>
        <time>2014-01-31T10:15:33.000Z</time>
      </trkpt>
      <trkpt lat="45.5586" lon="6.57227">
        <ele>2025.4000244141</ele>
        <time>2014-01-31T10:15:34.000Z</time>
      </trkpt>
      <trkpt lat="45.5586" lon="6.57226">
        <ele>2025.5999755859</ele>
        <time>2014-01-31T10:15:35.000Z</time>
      </trkpt>
      <trkpt lat="45.55859" lon="6.57226">
        <ele>2026</ele>
        <time>2014-01-31T10:15:36.000Z</time>
      </trkpt>
      <trkpt lat="45.55858" lon="6.57225">
        <ele>2026.4000244141</ele>
        <time>2014-01-31T10:15:37.000Z</time>
      </trkpt>
      <trkpt lat="45.55858" lon="6.57224">
        <ele>2026.8000488281</ele>
        <time>2014-01-31T10:15:38.000Z</time>
      </trkpt>
      <trkpt lat="45.55857" lon="6.57224">
        <ele>2027.1999511719</ele>
        <time>2014-01-31T10:15:39.000Z</time>
      </trkpt>
      <trkpt lat="45.55857" lon="6.57223">
        <ele>2027.4000244141</ele>
        <time>2014-01-31T10:15:40.000Z</time>
      </trkpt>
      <trkpt lat="45.55856" lon="6.57223">
        <ele>2027.5999755859</ele>
        <time>2014-01-31T10:15:41.000Z</time>
      </trkpt>
      <trkpt lat="45.55856" lon="6.57223">
        <ele>2027.8000488281</ele>
        <time>2014-01-31T10:15:42.000Z</time>
      </trkpt>
      <trkpt lat="45.55856" lon="6.57223">
        <ele>2028</ele>
        <time>2014-01-31T10:15:43.000Z</time>
      </trkpt>
      <trkpt lat="45.55856" lon="6.57223">
        <ele>2028.1999511719</ele>
        <time>2014-01-31T10:15:44.000Z</time>
      </trkpt>
      <trkpt lat="45.55856" lon="6.57223">
        <ele>2028.4000244141</ele>
        <time>2014-01-31T10:15:45.000Z</time>
      </trkpt>
      <trkpt lat="45.55856" lon="6.57223">
        <ele>2028.4000244141</ele>
        <time>2014-01-31T10:15:46.000Z</time>
      </trkpt>
      <trkpt lat="45.55856" lon="6.57223">
        <ele>2028.4000244141</ele>
        <time>2014-01-31T10:15:49.000Z</time>
      </trkpt>
      <trkpt lat="45.55856" lon="6.57223">
        <ele>2028.4000244141</ele>
        <time>2014-01-31T10:15:50.000Z</time>
      </trkpt>
      <trkpt lat="45.55856" lon="6.57223">
        <ele>2028.4000244141</ele>
        <time>2014-01-31T10:15:51.000Z</time>
      </trkpt>
      <trkpt lat="45.55856" lon="6.57223">
        <ele>2028.4000244141</ele>
        <time>2014-01-31T10:15:52.000Z</time>
      </trkpt>
      <trkpt lat="45.55856" lon="6.57223">
        <ele>2028.4000244141</ele>
        <time>2014-01-31T10:15:53.000Z</time>
      </trkpt>
      <trkpt lat="45.55856" lon="6.57223">
        <ele>2028.4000244141</ele>
        <time>2014-01-31T10:15:54.000Z</time>
      </trkpt>
      <trkpt lat="45.55856" lon="6.57223">
        <ele>2028.4000244141</ele>
        <time>2014-01-31T10:15:55.000Z</time>
      </trkpt>
      <trkpt lat="45.55856" lon="6.57223">
        <ele>2028.4000244141</ele>
        <time>2014-01-31T10:15:56.000Z</time>
      </trkpt>
      <trkpt lat="45.55856" lon="6.57223">
        <ele>2028.4000244141</ele>
        <time>2014-01-31T10:15:57.000Z</time>
      </trkpt>
      <trkpt lat="45.55856" lon="6.57223">
        <ele>2028.4000244141</ele>
        <time>2014-01-31T10:15:58.000Z</time>
      </trkpt>
      <trkpt lat="45.55855" lon="6.57221">
        <ele>2028.4000244141</ele>
        <time>2014-01-31T10:15:59.000Z</time>
      </trkpt>
      <trkpt lat="45.55854" lon="6.57221">
        <ele>2028.4000244141</ele>
        <time>2014-01-31T10:16:00.000Z</time>
      </trkpt>
      <trkpt lat="45.55854" lon="6.57219">
        <ele>2028.4000244141</ele>
        <time>2014-01-31T10:16:01.000Z</time>
      </trkpt>
      <trkpt lat="45.55853" lon="6.57218">
        <ele>2028.5999755859</ele>
        <time>2014-01-31T10:16:02.000Z</time>
      </trkpt>
      <trkpt lat="45.55852" lon="6.57217">
        <ele>2028.8000488281</ele>
        <time>2014-01-31T10:16:03.000Z</time>
      </trkpt>
      <trkpt lat="45.55852" lon="6.57217">
        <ele>2029</ele>
        <time>2014-01-31T10:16:04.000Z</time>
      </trkpt>
      <trkpt lat="45.55851" lon="6.57215">
        <ele>2029</ele>
        <time>2014-01-31T10:16:05.000Z</time>
      </trkpt>
      <trkpt lat="45.5585" lon="6.57214">
        <ele>2029</ele>
        <time>2014-01-31T10:16:06.000Z</time>
      </trkpt>
      <trkpt lat="45.5585" lon="6.57213">
        <ele>2029</ele>
        <time>2014-01-31T10:16:07.000Z</time>
      </trkpt>
      <trkpt lat="45.55849" lon="6.57213">
        <ele>2029</ele>
        <time>2014-01-31T10:16:08.000Z</time>
      </trkpt>
      <trkpt lat="45.55848" lon="6.57211">
        <ele>2029.1999511719</ele>
        <time>2014-01-31T10:16:09.000Z</time>
      </trkpt>
      <trkpt lat="45.55847" lon="6.5721">
        <ele>2029.5999755859</ele>
        <time>2014-01-31T10:16:10.000Z</time>
      </trkpt>
      <trkpt lat="45.55847" lon="6.5721">
        <ele>2029.8000488281</ele>
        <time>2014-01-31T10:16:11.000Z</time>
      </trkpt>
      <trkpt lat="45.55846" lon="6.57208">
        <ele>2029.8000488281</ele>
        <time>2014-01-31T10:16:12.000Z</time>
      </trkpt>
      <trkpt lat="45.55845" lon="6.57207">
        <ele>2029.8000488281</ele>
        <time>2014-01-31T10:16:13.000Z</time>
      </trkpt>
      <trkpt lat="45.55845" lon="6.57206">
        <ele>2030</ele>
        <time>2014-01-31T10:16:14.000Z</time>
      </trkpt>
      <trkpt lat="45.55844" lon="6.57205">
        <ele>2030</ele>
        <time>2014-01-31T10:16:15.000Z</time>
      </trkpt>
      <trkpt lat="45.55843" lon="6.57203">
        <ele>2030.1999511719</ele>
        <time>2014-01-31T10:16:16.000Z</time>
      </trkpt>
      <trkpt lat="45.55842" lon="6.57201">
        <ele>2030.4000244141</ele>
        <time>2014-01-31T10:16:17.000Z</time>
      </trkpt>
      <trkpt lat="45.55842" lon="6.572">
        <ele>2030.5999755859</ele>
        <time>2014-01-31T10:16:18.000Z</time>
      </trkpt>
      <trkpt lat="45.55841" lon="6.57198">
        <ele>2030.8000488281</ele>
        <time>2014-01-31T10:16:19.000Z</time>
      </trkpt>
      <trkpt lat="45.5584" lon="6.57197">
        <ele>2030.8000488281</ele>
        <time>2014-01-31T10:16:20.000Z</time>
      </trkpt>
      <trkpt lat="45.5584" lon="6.57196">
        <ele>2031</ele>
        <time>2014-01-31T10:16:21.000Z</time>
      </trkpt>
      <trkpt lat="45.55839" lon="6.57195">
        <ele>2031</ele>
        <time>2014-01-31T10:16:22.000Z</time>
      </trkpt>
      <trkpt lat="45.55838" lon="6.57194">
        <ele>2031</ele>
        <time>2014-01-31T10:16:23.000Z</time>
      </trkpt>
      <trkpt lat="45.55837" lon="6.57192">
        <ele>2031</ele>
        <time>2014-01-31T10:16:24.000Z</time>
      </trkpt>
      <trkpt lat="45.55835" lon="6.57191">
        <ele>2031.1999511719</ele>
        <time>2014-01-31T10:16:25.000Z</time>
      </trkpt>
      <trkpt lat="45.55834" lon="6.57189">
        <ele>2031.4000244141</ele>
        <time>2014-01-31T10:16:26.000Z</time>
      </trkpt>
      <trkpt lat="45.55834" lon="6.57188">
        <ele>2031.5999755859</ele>
        <time>2014-01-31T10:16:27.000Z</time>
      </trkpt>
      <trkpt lat="45.55833" lon="6.57187">
        <ele>2031.5999755859</ele>
        <time>2014-01-31T10:16:28.000Z</time>
      </trkpt>
      <trkpt lat="45.55832" lon="6.57186">
        <ele>2031.8000488281</ele>
        <time>2014-01-31T10:16:29.000Z</time>
      </trkpt>
      <trkpt lat="45.55832" lon="6.57185">
        <ele>2031.8000488281</ele>
        <time>2014-01-31T10:16:30.000Z</time>
      </trkpt>
      <trkpt lat="45.55831" lon="6.57183">
        <ele>2032</ele>
        <time>2014-01-31T10:16:31.000Z</time>
      </trkpt>
      <trkpt lat="45.5583" lon="6.57182">
        <ele>2032.1999511719</ele>
        <time>2014-01-31T10:16:32.000Z</time>
      </trkpt>
      <trkpt lat="45.55829" lon="6.57182">
        <ele>2032.1999511719</ele>
        <time>2014-01-31T10:16:33.000Z</time>
      </trkpt>
      <trkpt lat="45.55828" lon="6.57181">
        <ele>2032.4000244141</ele>
        <time>2014-01-31T10:16:34.000Z</time>
      </trkpt>
      <trkpt lat="45.55827" lon="6.57179">
        <ele>2032.4000244141</ele>
        <time>2014-01-31T10:16:35.000Z</time>
      </trkpt>
      <trkpt lat="45.55827" lon="6.57179">
        <ele>2032.4000244141</ele>
        <time>2014-01-31T10:16:36.000Z</time>
      </trkpt>
      <trkpt lat="45.55826" lon="6.57178">
        <ele>2032.5999755859</ele>
        <time>2014-01-31T10:16:37.000Z</time>
      </trkpt>
      <trkpt lat="45.55825" lon="6.57176">
        <ele>2032.5999755859</ele>
        <time>2014-01-31T10:16:38.000Z</time>
      </trkpt>
      <trkpt lat="45.55824" lon="6.57175">
        <ele>2032.5999755859</ele>
        <time>2014-01-31T10:16:39.000Z</time>
      </trkpt>
      <trkpt lat="45.55824" lon="6.57174">
        <ele>2032.8000488281</ele>
        <time>2014-01-31T10:16:40.000Z</time>
      </trkpt>
      <trkpt lat="45.55823" lon="6.57173">
        <ele>2033</ele>
        <time>2014-01-31T10:16:41.000Z</time>
      </trkpt>
      <trkpt lat="45.55822" lon="6.57171">
        <ele>2033.4000244141</ele>
        <time>2014-01-31T10:16:42.000Z</time>
      </trkpt>
      <trkpt lat="45.55821" lon="6.5717">
        <ele>2033.5999755859</ele>
        <time>2014-01-31T10:16:43.000Z</time>
      </trkpt>
      <trkpt lat="45.55821" lon="6.5717">
        <ele>2033.8000488281</ele>
        <time>2014-01-31T10:16:44.000Z</time>
      </trkpt>
      <trkpt lat="45.5582" lon="6.57168">
        <ele>2033.8000488281</ele>
        <time>2014-01-31T10:16:45.000Z</time>
      </trkpt>
      <trkpt lat="45.5582" lon="6.57167">
        <ele>2034</ele>
        <time>2014-01-31T10:16:46.000Z</time>
      </trkpt>
      <trkpt lat="45.55819" lon="6.57166">
        <ele>2034.1999511719</ele>
        <time>2014-01-31T10:16:47.000Z</time>
      </trkpt>
      <trkpt lat="45.55819" lon="6.57165">
        <ele>2034.4000244141</ele>
        <time>2014-01-31T10:16:48.000Z</time>
      </trkpt>
      <trkpt lat="45.55818" lon="6.57164">
        <ele>2034.5999755859</ele>
        <time>2014-01-31T10:16:49.000Z</time>
      </trkpt>
      <trkpt lat="45.55817" lon="6.57162">
        <ele>2034.8000488281</ele>
        <time>2014-01-31T10:16:50.000Z</time>
      </trkpt>
      <trkpt lat="45.55816" lon="6.57161">
        <ele>2035.1999511719</ele>
        <time>2014-01-31T10:16:51.000Z</time>
      </trkpt>
      <trkpt lat="45.55816" lon="6.5716">
        <ele>2035.4000244141</ele>
        <time>2014-01-31T10:16:52.000Z</time>
      </trkpt>
      <trkpt lat="45.55816" lon="6.5716">
        <ele>2035.4000244141</ele>
        <time>2014-01-31T10:16:53.000Z</time>
      </trkpt>
      <trkpt lat="45.55815" lon="6.57159">
        <ele>2035.5999755859</ele>
        <time>2014-01-31T10:16:54.000Z</time>
      </trkpt>
      <trkpt lat="45.55815" lon="6.57158">
        <ele>2035.5999755859</ele>
        <time>2014-01-31T10:16:55.000Z</time>
      </trkpt>
      <trkpt lat="45.55814" lon="6.57156">
        <ele>2035.5999755859</ele>
        <time>2014-01-31T10:16:56.000Z</time>
      </trkpt>
      <trkpt lat="45.55814" lon="6.57155">
        <ele>2035.8000488281</ele>
        <time>2014-01-31T10:16:57.000Z</time>
      </trkpt>
      <trkpt lat="45.55813" lon="6.57154">
        <ele>2035.8000488281</ele>
        <time>2014-01-31T10:16:58.000Z</time>
      </trkpt>
      <trkpt lat="45.55813" lon="6.57153">
        <ele>2035.8000488281</ele>
        <time>2014-01-31T10:16:59.000Z</time>
      </trkpt>
      <trkpt lat="45.55812" lon="6.57151">
        <ele>2036</ele>
        <time>2014-01-31T10:17:00.000Z</time>
      </trkpt>
      <trkpt lat="45.55811" lon="6.5715">
        <ele>2036.4000244141</ele>
        <time>2014-01-31T10:17:01.000Z</time>
      </trkpt>
      <trkpt lat="45.55811" lon="6.57149">
        <ele>2036.5999755859</ele>
        <time>2014-01-31T10:17:02.000Z</time>
      </trkpt>
      <trkpt lat="45.5581" lon="6.57147">
        <ele>2037</ele>
        <time>2014-01-31T10:17:03.000Z</time>
      </trkpt>
      <trkpt lat="45.5581" lon="6.57146">
        <ele>2037.4000244141</ele>
        <time>2014-01-31T10:17:04.000Z</time>
      </trkpt>
      <trkpt lat="45.55809" lon="6.57145">
        <ele>2037.5999755859</ele>
        <time>2014-01-31T10:17:05.000Z</time>
      </trkpt>
      <trkpt lat="45.55808" lon="6.57144">
        <ele>2038</ele>
        <time>2014-01-31T10:17:06.000Z</time>
      </trkpt>
      <trkpt lat="45.55808" lon="6.57143">
        <ele>2038</ele>
        <time>2014-01-31T10:17:07.000Z</time>
      </trkpt>
      <trkpt lat="45.55807" lon="6.57142">
        <ele>2038.1999511719</ele>
        <time>2014-01-31T10:17:08.000Z</time>
      </trkpt>
      <trkpt lat="45.55806" lon="6.57141">
        <ele>2038.5999755859</ele>
        <time>2014-01-31T10:17:09.000Z</time>
      </trkpt>
      <trkpt lat="45.55806" lon="6.57141">
        <ele>2038.8000488281</ele>
        <time>2014-01-31T10:17:10.000Z</time>
      </trkpt>
      <trkpt lat="45.55805" lon="6.5714">
        <ele>2039</ele>
        <time>2014-01-31T10:17:11.000Z</time>
      </trkpt>
      <trkpt lat="45.55804" lon="6.57139">
        <ele>2039</ele>
        <time>2014-01-31T10:17:12.000Z</time>
      </trkpt>
      <trkpt lat="45.55804" lon="6.57138">
        <ele>2039.1999511719</ele>
        <time>2014-01-31T10:17:13.000Z</time>
      </trkpt>
      <trkpt lat="45.55803" lon="6.57138">
        <ele>2039.4000244141</ele>
        <time>2014-01-31T10:17:14.000Z</time>
      </trkpt>
      <trkpt lat="45.55803" lon="6.57137">
        <ele>2039.8000488281</ele>
        <time>2014-01-31T10:17:15.000Z</time>
      </trkpt>
      <trkpt lat="45.55802" lon="6.57136">
        <ele>2040</ele>
        <time>2014-01-31T10:17:16.000Z</time>
      </trkpt>
      <trkpt lat="45.55802" lon="6.57135">
        <ele>2040.1999511719</ele>
        <time>2014-01-31T10:17:17.000Z</time>
      </trkpt>
      <trkpt lat="45.55801" lon="6.57134">
        <ele>2040.4000244141</ele>
        <time>2014-01-31T10:17:18.000Z</time>
      </trkpt>
      <trkpt lat="45.55801" lon="6.57133">
        <ele>2040.5999755859</ele>
        <time>2014-01-31T10:17:19.000Z</time>
      </trkpt>
      <trkpt lat="45.558" lon="6.57132">
        <ele>2040.8000488281</ele>
        <time>2014-01-31T10:17:20.000Z</time>
      </trkpt>
      <trkpt lat="45.55801" lon="6.57131">
        <ele>2041</ele>
        <time>2014-01-31T10:17:21.000Z</time>
      </trkpt>
      <trkpt lat="45.55801" lon="6.5713">
        <ele>2041</ele>
        <time>2014-01-31T10:17:22.000Z</time>
      </trkpt>
      <trkpt lat="45.55801" lon="6.57129">
        <ele>2041.1999511719</ele>
        <time>2014-01-31T10:17:23.000Z</time>
      </trkpt>
      <trkpt lat="45.55801" lon="6.57127">
        <ele>2041.4000244141</ele>
        <time>2014-01-31T10:17:24.000Z</time>
      </trkpt>
      <trkpt lat="45.55801" lon="6.57127">
        <ele>2041.5999755859</ele>
        <time>2014-01-31T10:17:25.000Z</time>
      </trkpt>
      <trkpt lat="45.55801" lon="6.57125">
        <ele>2041.8000488281</ele>
        <time>2014-01-31T10:17:26.000Z</time>
      </trkpt>
      <trkpt lat="45.55801" lon="6.57124">
        <ele>2042</ele>
        <time>2014-01-31T10:17:27.000Z</time>
      </trkpt>
      <trkpt lat="45.558" lon="6.57123">
        <ele>2042.1999511719</ele>
        <time>2014-01-31T10:17:28.000Z</time>
      </trkpt>
      <trkpt lat="45.558" lon="6.57122">
        <ele>2042.1999511719</ele>
        <time>2014-01-31T10:17:29.000Z</time>
      </trkpt>
      <trkpt lat="45.558" lon="6.57121">
        <ele>2042.8000488281</ele>
        <time>2014-01-31T10:17:30.000Z</time>
      </trkpt>
      <trkpt lat="45.558" lon="6.5712">
        <ele>2043</ele>
        <time>2014-01-31T10:17:31.000Z</time>
      </trkpt>
      <trkpt lat="45.55799" lon="6.57119">
        <ele>2043.1999511719</ele>
        <time>2014-01-31T10:17:32.000Z</time>
      </trkpt>
      <trkpt lat="45.558" lon="6.57118">
        <ele>2043.5999755859</ele>
        <time>2014-01-31T10:17:33.000Z</time>
      </trkpt>
      <trkpt lat="45.55799" lon="6.57117">
        <ele>2043.8000488281</ele>
        <time>2014-01-31T10:17:34.000Z</time>
      </trkpt>
      <trkpt lat="45.55799" lon="6.57117">
        <ele>2043.8000488281</ele>
        <time>2014-01-31T10:17:35.000Z</time>
      </trkpt>
      <trkpt lat="45.55799" lon="6.57116">
        <ele>2044</ele>
        <time>2014-01-31T10:17:36.000Z</time>
      </trkpt>
      <trkpt lat="45.55798" lon="6.57115">
        <ele>2044.1999511719</ele>
        <time>2014-01-31T10:17:37.000Z</time>
      </trkpt>
      <trkpt lat="45.55797" lon="6.57114">
        <ele>2044.4000244141</ele>
        <time>2014-01-31T10:17:38.000Z</time>
      </trkpt>
      <trkpt lat="45.55796" lon="6.57113">
        <ele>2044.8000488281</ele>
        <time>2014-01-31T10:17:39.000Z</time>
      </trkpt>
      <trkpt lat="45.55795" lon="6.57113">
        <ele>2045</ele>
        <time>2014-01-31T10:17:40.000Z</time>
      </trkpt>
      <trkpt lat="45.55795" lon="6.57113">
        <ele>2045.1999511719</ele>
        <time>2014-01-31T10:17:41.000Z</time>
      </trkpt>
      <trkpt lat="45.55794" lon="6.57112">
        <ele>2045.1999511719</ele>
        <time>2014-01-31T10:17:42.000Z</time>
      </trkpt>
      <trkpt lat="45.55794" lon="6.57111">
        <ele>2045.4000244141</ele>
        <time>2014-01-31T10:17:43.000Z</time>
      </trkpt>
      <trkpt lat="45.55793" lon="6.5711">
        <ele>2045.5999755859</ele>
        <time>2014-01-31T10:17:44.000Z</time>
      </trkpt>
      <trkpt lat="45.55792" lon="6.57109">
        <ele>2045.8000488281</ele>
        <time>2014-01-31T10:17:45.000Z</time>
      </trkpt>
      <trkpt lat="45.55792" lon="6.57108">
        <ele>2046</ele>
        <time>2014-01-31T10:17:46.000Z</time>
      </trkpt>
      <trkpt lat="45.55792" lon="6.57107">
        <ele>2046.1999511719</ele>
        <time>2014-01-31T10:17:47.000Z</time>
      </trkpt>
      <trkpt lat="45.55792" lon="6.57107">
        <ele>2046.5999755859</ele>
        <time>2014-01-31T10:17:48.000Z</time>
      </trkpt>
      <trkpt lat="45.55791" lon="6.57106">
        <ele>2046.8000488281</ele>
        <time>2014-01-31T10:17:49.000Z</time>
      </trkpt>
      <trkpt lat="45.55791" lon="6.57106">
        <ele>2047.1999511719</ele>
        <time>2014-01-31T10:17:50.000Z</time>
      </trkpt>
      <trkpt lat="45.55791" lon="6.57104">
        <ele>2047.4000244141</ele>
        <time>2014-01-31T10:17:51.000Z</time>
      </trkpt>
      <trkpt lat="45.55791" lon="6.57103">
        <ele>2047.5999755859</ele>
        <time>2014-01-31T10:17:52.000Z</time>
      </trkpt>
      <trkpt lat="45.55791" lon="6.57101">
        <ele>2047.8000488281</ele>
        <time>2014-01-31T10:17:53.000Z</time>
      </trkpt>
      <trkpt lat="45.55791" lon="6.57099">
        <ele>2048.1999511719</ele>
        <time>2014-01-31T10:17:54.000Z</time>
      </trkpt>
      <trkpt lat="45.55791" lon="6.57099">
        <ele>2048.3999023438</ele>
        <time>2014-01-31T10:17:55.000Z</time>
      </trkpt>
      <trkpt lat="45.55791" lon="6.57098">
        <ele>2048.8000488281</ele>
        <time>2014-01-31T10:17:56.000Z</time>
      </trkpt>
      <trkpt lat="45.5579" lon="6.57097">
        <ele>2049.1999511719</ele>
        <time>2014-01-31T10:17:57.000Z</time>
      </trkpt>
      <trkpt lat="45.55789" lon="6.57097">
        <ele>2049.3999023438</ele>
        <time>2014-01-31T10:17:58.000Z</time>
      </trkpt>
      <trkpt lat="45.55789" lon="6.57095">
        <ele>2049.6000976562</ele>
        <time>2014-01-31T10:17:59.000Z</time>
      </trkpt>
      <trkpt lat="45.55788" lon="6.57094">
        <ele>2049.8000488281</ele>
        <time>2014-01-31T10:18:00.000Z</time>
      </trkpt>
      <trkpt lat="45.55788" lon="6.57093">
        <ele>2050</ele>
        <time>2014-01-31T10:18:01.000Z</time>
      </trkpt>
      <trkpt lat="45.55787" lon="6.57092">
        <ele>2050.3999023438</ele>
        <time>2014-01-31T10:18:02.000Z</time>
      </trkpt>
      <trkpt lat="45.55787" lon="6.57091">
        <ele>2050.6000976562</ele>
        <time>2014-01-31T10:18:03.000Z</time>
      </trkpt>
      <trkpt lat="45.55786" lon="6.57091">
        <ele>2050.6000976562</ele>
        <time>2014-01-31T10:18:04.000Z</time>
      </trkpt>
      <trkpt lat="45.55786" lon="6.5709">
        <ele>2050.8000488281</ele>
        <time>2014-01-31T10:18:05.000Z</time>
      </trkpt>
      <trkpt lat="45.55785" lon="6.57089">
        <ele>2051</ele>
        <time>2014-01-31T10:18:06.000Z</time>
      </trkpt>
      <trkpt lat="45.55785" lon="6.57088">
        <ele>2051.1999511719</ele>
        <time>2014-01-31T10:18:07.000Z</time>
      </trkpt>
      <trkpt lat="45.55784" lon="6.57087">
        <ele>2051.6000976562</ele>
        <time>2014-01-31T10:18:08.000Z</time>
      </trkpt>
      <trkpt lat="45.55784" lon="6.57086">
        <ele>2051.6000976562</ele>
        <time>2014-01-31T10:18:09.000Z</time>
      </trkpt>
      <trkpt lat="45.55783" lon="6.57085">
        <ele>2051.8000488281</ele>
        <time>2014-01-31T10:18:10.000Z</time>
      </trkpt>
      <trkpt lat="45.55783" lon="6.57084">
        <ele>2052</ele>
        <time>2014-01-31T10:18:11.000Z</time>
      </trkpt>
      <trkpt lat="45.55782" lon="6.57083">
        <ele>2052</ele>
        <time>2014-01-31T10:18:12.000Z</time>
      </trkpt>
      <trkpt lat="45.55782" lon="6.57082">
        <ele>2052.1999511719</ele>
        <time>2014-01-31T10:18:13.000Z</time>
      </trkpt>
      <trkpt lat="45.55781" lon="6.57081">
        <ele>2052.3999023438</ele>
        <time>2014-01-31T10:18:14.000Z</time>
      </trkpt>
      <trkpt lat="45.55781" lon="6.5708">
        <ele>2052.3999023438</ele>
        <time>2014-01-31T10:18:15.000Z</time>
      </trkpt>
      <trkpt lat="45.55781" lon="6.57079">
        <ele>2052.6000976562</ele>
        <time>2014-01-31T10:18:16.000Z</time>
      </trkpt>
      <trkpt lat="45.55781" lon="6.57078">
        <ele>2052.6000976562</ele>
        <time>2014-01-31T10:18:17.000Z</time>
      </trkpt>
      <trkpt lat="45.55781" lon="6.57076">
        <ele>2052.8000488281</ele>
        <time>2014-01-31T10:18:18.000Z</time>
      </trkpt>
      <trkpt lat="45.55781" lon="6.57076">
        <ele>2053</ele>
        <time>2014-01-31T10:18:19.000Z</time>
      </trkpt>
      <trkpt lat="45.55781" lon="6.57075">
        <ele>2053.1999511719</ele>
        <time>2014-01-31T10:18:20.000Z</time>
      </trkpt>
      <trkpt lat="45.5578" lon="6.57073">
        <ele>2053.3999023438</ele>
        <time>2014-01-31T10:18:21.000Z</time>
      </trkpt>
      <trkpt lat="45.5578" lon="6.57071">
        <ele>2053.6000976562</ele>
        <time>2014-01-31T10:18:22.000Z</time>
      </trkpt>
      <trkpt lat="45.55781" lon="6.5707">
        <ele>2053.8000488281</ele>
        <time>2014-01-31T10:18:23.000Z</time>
      </trkpt>
      <trkpt lat="45.55781" lon="6.57069">
        <ele>2054</ele>
        <time>2014-01-31T10:18:24.000Z</time>
      </trkpt>
      <trkpt lat="45.5578" lon="6.57068">
        <ele>2054.1999511719</ele>
        <time>2014-01-31T10:18:25.000Z</time>
      </trkpt>
      <trkpt lat="45.5578" lon="6.57067">
        <ele>2054.3999023438</ele>
        <time>2014-01-31T10:18:26.000Z</time>
      </trkpt>
      <trkpt lat="45.55779" lon="6.57066">
        <ele>2054.6000976562</ele>
        <time>2014-01-31T10:18:27.000Z</time>
      </trkpt>
      <trkpt lat="45.55779" lon="6.57066">
        <ele>2054.8000488281</ele>
        <time>2014-01-31T10:18:28.000Z</time>
      </trkpt>
      <trkpt lat="45.55779" lon="6.57066">
        <ele>2055</ele>
        <time>2014-01-31T10:18:29.000Z</time>
      </trkpt>
      <trkpt lat="45.55779" lon="6.57066">
        <ele>2055.1999511719</ele>
        <time>2014-01-31T10:18:30.000Z</time>
      </trkpt>
      <trkpt lat="45.55779" lon="6.57066">
        <ele>2055.1999511719</ele>
        <time>2014-01-31T10:18:31.000Z</time>
      </trkpt>
      <trkpt lat="45.55779" lon="6.57066">
        <ele>2055.1999511719</ele>
        <time>2014-01-31T10:18:32.000Z</time>
      </trkpt>
      <trkpt lat="45.55779" lon="6.57065">
        <ele>2055.1999511719</ele>
        <time>2014-01-31T10:18:33.000Z</time>
      </trkpt>
      <trkpt lat="45.55779" lon="6.57065">
        <ele>2055.1999511719</ele>
        <time>2014-01-31T10:18:34.000Z</time>
      </trkpt>
      <trkpt lat="45.55779" lon="6.57063">
        <ele>2055.3999023438</ele>
        <time>2014-01-31T10:18:35.000Z</time>
      </trkpt>
      <trkpt lat="45.55778" lon="6.57062">
        <ele>2055.6000976562</ele>
        <time>2014-01-31T10:18:36.000Z</time>
      </trkpt>
      <trkpt lat="45.55778" lon="6.57061">
        <ele>2055.8000488281</ele>
        <time>2014-01-31T10:18:37.000Z</time>
      </trkpt>
      <trkpt lat="45.55779" lon="6.57059">
        <ele>2056</ele>
        <time>2014-01-31T10:18:38.000Z</time>
      </trkpt>
      <trkpt lat="45.55779" lon="6.57058">
        <ele>2056.1999511719</ele>
        <time>2014-01-31T10:18:39.000Z</time>
      </trkpt>
      <trkpt lat="45.55779" lon="6.57057">
        <ele>2056.3999023438</ele>
        <time>2014-01-31T10:18:40.000Z</time>
      </trkpt>
      <trkpt lat="45.55779" lon="6.57055">
        <ele>2056.3999023438</ele>
        <time>2014-01-31T10:18:41.000Z</time>
      </trkpt>
      <trkpt lat="45.55779" lon="6.57055">
        <ele>2056.6000976562</ele>
        <time>2014-01-31T10:18:42.000Z</time>
      </trkpt>
      <trkpt lat="45.55779" lon="6.57054">
        <ele>2056.8000488281</ele>
        <time>2014-01-31T10:18:43.000Z</time>
      </trkpt>
      <trkpt lat="45.55779" lon="6.57053">
        <ele>2057</ele>
        <time>2014-01-31T10:18:44.000Z</time>
      </trkpt>
      <trkpt lat="45.55778" lon="6.57053">
        <ele>2057.1999511719</ele>
        <time>2014-01-31T10:18:45.000Z</time>
      </trkpt>
      <trkpt lat="45.55778" lon="6.57051">
        <ele>2057.3999023438</ele>
        <time>2014-01-31T10:18:46.000Z</time>
      </trkpt>
      <trkpt lat="45.55778" lon="6.5705">
        <ele>2057.6000976562</ele>
        <time>2014-01-31T10:18:47.000Z</time>
      </trkpt>
      <trkpt lat="45.55778" lon="6.57049">
        <ele>2057.8000488281</ele>
        <time>2014-01-31T10:18:48.000Z</time>
      </trkpt>
      <trkpt lat="45.55778" lon="6.57047">
        <ele>2058</ele>
        <time>2014-01-31T10:18:49.000Z</time>
      </trkpt>
      <trkpt lat="45.55779" lon="6.57046">
        <ele>2058.1999511719</ele>
        <time>2014-01-31T10:18:50.000Z</time>
      </trkpt>
      <trkpt lat="45.55779" lon="6.57045">
        <ele>2058.3999023438</ele>
        <time>2014-01-31T10:18:51.000Z</time>
      </trkpt>
      <trkpt lat="45.55779" lon="6.57043">
        <ele>2058.6000976562</ele>
        <time>2014-01-31T10:18:52.000Z</time>
      </trkpt>
      <trkpt lat="45.55779" lon="6.57043">
        <ele>2058.6000976562</ele>
        <time>2014-01-31T10:18:53.000Z</time>
      </trkpt>
      <trkpt lat="45.55779" lon="6.57042">
        <ele>2058.8000488281</ele>
        <time>2014-01-31T10:18:54.000Z</time>
      </trkpt>
      <trkpt lat="45.55779" lon="6.57041">
        <ele>2059</ele>
        <time>2014-01-31T10:18:55.000Z</time>
      </trkpt>
      <trkpt lat="45.55779" lon="6.57041">
        <ele>2059.1999511719</ele>
        <time>2014-01-31T10:18:56.000Z</time>
      </trkpt>
      <trkpt lat="45.55779" lon="6.57039">
        <ele>2059.3999023438</ele>
        <time>2014-01-31T10:18:57.000Z</time>
      </trkpt>
      <trkpt lat="45.55779" lon="6.57037">
        <ele>2059.6000976562</ele>
        <time>2014-01-31T10:18:58.000Z</time>
      </trkpt>
      <trkpt lat="45.55779" lon="6.57036">
        <ele>2059.8000488281</ele>
        <time>2014-01-31T10:18:59.000Z</time>
      </trkpt>
      <trkpt lat="45.55779" lon="6.57035">
        <ele>2060.1999511719</ele>
        <time>2014-01-31T10:19:00.000Z</time>
      </trkpt>
      <trkpt lat="45.55779" lon="6.57033">
        <ele>2060.3999023438</ele>
        <time>2014-01-31T10:19:01.000Z</time>
      </trkpt>
      <trkpt lat="45.5578" lon="6.57032">
        <ele>2060.6000976562</ele>
        <time>2014-01-31T10:19:02.000Z</time>
      </trkpt>
      <trkpt lat="45.55779" lon="6.57032">
        <ele>2060.8000488281</ele>
        <time>2014-01-31T10:19:03.000Z</time>
      </trkpt>
      <trkpt lat="45.55779" lon="6.57031">
        <ele>2061</ele>
        <time>2014-01-31T10:19:04.000Z</time>
      </trkpt>
      <trkpt lat="45.55779" lon="6.57029">
        <ele>2061.1999511719</ele>
        <time>2014-01-31T10:19:05.000Z</time>
      </trkpt>
      <trkpt lat="45.55779" lon="6.57029">
        <ele>2061.6000976562</ele>
        <time>2014-01-31T10:19:06.000Z</time>
      </trkpt>
      <trkpt lat="45.55779" lon="6.57028">
        <ele>2061.6000976562</ele>
        <time>2014-01-31T10:19:07.000Z</time>
      </trkpt>
      <trkpt lat="45.55779" lon="6.57027">
        <ele>2061.6000976562</ele>
        <time>2014-01-31T10:19:08.000Z</time>
      </trkpt>
      <trkpt lat="45.55779" lon="6.57026">
        <ele>2061.8000488281</ele>
        <time>2014-01-31T10:19:09.000Z</time>
      </trkpt>
      <trkpt lat="45.55779" lon="6.57026">
        <ele>2062</ele>
        <time>2014-01-31T10:19:10.000Z</time>
      </trkpt>
      <trkpt lat="45.55779" lon="6.57024">
        <ele>2062</ele>
        <time>2014-01-31T10:19:11.000Z</time>
      </trkpt>
      <trkpt lat="45.55779" lon="6.57023">
        <ele>2062.1999511719</ele>
        <time>2014-01-31T10:19:12.000Z</time>
      </trkpt>
      <trkpt lat="45.55779" lon="6.57022">
        <ele>2062.3999023438</ele>
        <time>2014-01-31T10:19:13.000Z</time>
      </trkpt>
      <trkpt lat="45.55779" lon="6.5702">
        <ele>2062.6000976562</ele>
        <time>2014-01-31T10:19:14.000Z</time>
      </trkpt>
      <trkpt lat="45.55778" lon="6.5702">
        <ele>2062.8000488281</ele>
        <time>2014-01-31T10:19:15.000Z</time>
      </trkpt>
      <trkpt lat="45.55778" lon="6.57018">
        <ele>2063.1999511719</ele>
        <time>2014-01-31T10:19:16.000Z</time>
      </trkpt>
      <trkpt lat="45.55778" lon="6.57017">
        <ele>2063.3999023438</ele>
        <time>2014-01-31T10:19:17.000Z</time>
      </trkpt>
      <trkpt lat="45.55779" lon="6.57016">
        <ele>2063.8000488281</ele>
        <time>2014-01-31T10:19:18.000Z</time>
      </trkpt>
      <trkpt lat="45.55779" lon="6.57014">
        <ele>2063.8000488281</ele>
        <time>2014-01-31T10:19:19.000Z</time>
      </trkpt>
      <trkpt lat="45.55779" lon="6.57014">
        <ele>2064</ele>
        <time>2014-01-31T10:19:20.000Z</time>
      </trkpt>
      <trkpt lat="45.55779" lon="6.57013">
        <ele>2064.1999511719</ele>
        <time>2014-01-31T10:19:21.000Z</time>
      </trkpt>
      <trkpt lat="45.55779" lon="6.57013">
        <ele>2064.3999023438</ele>
        <time>2014-01-31T10:19:22.000Z</time>
      </trkpt>
      <trkpt lat="45.55779" lon="6.57013">
        <ele>2064.8000488281</ele>
        <time>2014-01-31T10:19:23.000Z</time>
      </trkpt>
      <trkpt lat="45.5578" lon="6.57012">
        <ele>2065.1999511719</ele>
        <time>2014-01-31T10:19:24.000Z</time>
      </trkpt>
      <trkpt lat="45.5578" lon="6.57011">
        <ele>2065.3999023438</ele>
        <time>2014-01-31T10:19:25.000Z</time>
      </trkpt>
      <trkpt lat="45.5578" lon="6.57011">
        <ele>2065.6000976562</ele>
        <time>2014-01-31T10:19:26.000Z</time>
      </trkpt>
      <trkpt lat="45.55781" lon="6.5701">
        <ele>2065.8000488281</ele>
        <time>2014-01-31T10:19:27.000Z</time>
      </trkpt>
      <trkpt lat="45.55782" lon="6.57009">
        <ele>2066</ele>
        <time>2014-01-31T10:19:28.000Z</time>
      </trkpt>
      <trkpt lat="45.55783" lon="6.57009">
        <ele>2066.1999511719</ele>
        <time>2014-01-31T10:19:29.000Z</time>
      </trkpt>
      <trkpt lat="45.55783" lon="6.57008">
        <ele>2066.6000976562</ele>
        <time>2014-01-31T10:19:30.000Z</time>
      </trkpt>
      <trkpt lat="45.55784" lon="6.57008">
        <ele>2066.8000488281</ele>
        <time>2014-01-31T10:19:31.000Z</time>
      </trkpt>
      <trkpt lat="45.55784" lon="6.57009">
        <ele>2067</ele>
        <time>2014-01-31T10:19:32.000Z</time>
      </trkpt>
      <trkpt lat="45.55784" lon="6.57009">
        <ele>2067</ele>
        <time>2014-01-31T10:19:33.000Z</time>
      </trkpt>
      <trkpt lat="45.55784" lon="6.57009">
        <ele>2067.1999511719</ele>
        <time>2014-01-31T10:19:34.000Z</time>
      </trkpt>
      <trkpt lat="45.55784" lon="6.57009">
        <ele>2067.1999511719</ele>
        <time>2014-01-31T10:19:35.000Z</time>
      </trkpt>
      <trkpt lat="45.55784" lon="6.57009">
        <ele>2067</ele>
        <time>2014-01-31T10:19:36.000Z</time>
      </trkpt>
      <trkpt lat="45.55784" lon="6.57009">
        <ele>2067</ele>
        <time>2014-01-31T10:19:37.000Z</time>
      </trkpt>
      <trkpt lat="45.55784" lon="6.57009">
        <ele>2067.1999511719</ele>
        <time>2014-01-31T10:19:39.000Z</time>
      </trkpt>
      <trkpt lat="45.55784" lon="6.57009">
        <ele>2067.1999511719</ele>
        <time>2014-01-31T10:19:40.000Z</time>
      </trkpt>
      <trkpt lat="45.55784" lon="6.57009">
        <ele>2067.1999511719</ele>
        <time>2014-01-31T10:19:41.000Z</time>
      </trkpt>
      <trkpt lat="45.55784" lon="6.57009">
        <ele>2067.1999511719</ele>
        <time>2014-01-31T10:19:42.000Z</time>
      </trkpt>
      <trkpt lat="45.55784" lon="6.57009">
        <ele>2067.3999023438</ele>
        <time>2014-01-31T10:19:43.000Z</time>
      </trkpt>
      <trkpt lat="45.55784" lon="6.57009">
        <ele>2067.3999023438</ele>
        <time>2014-01-31T10:19:44.000Z</time>
      </trkpt>
      <trkpt lat="45.55784" lon="6.57009">
        <ele>2067.3999023438</ele>
        <time>2014-01-31T10:19:45.000Z</time>
      </trkpt>
      <trkpt lat="45.55784" lon="6.57009">
        <ele>2067.3999023438</ele>
        <time>2014-01-31T10:19:46.000Z</time>
      </trkpt>
      <trkpt lat="45.55784" lon="6.57009">
        <ele>2067.3999023438</ele>
        <time>2014-01-31T10:19:47.000Z</time>
      </trkpt>
      <trkpt lat="45.55784" lon="6.57009">
        <ele>2067.3999023438</ele>
        <time>2014-01-31T10:19:48.000Z</time>
      </trkpt>
      <trkpt lat="45.55784" lon="6.57009">
        <ele>2067.1999511719</ele>
        <time>2014-01-31T10:19:49.000Z</time>
      </trkpt>
      <trkpt lat="45.55784" lon="6.57009">
        <ele>2067.1999511719</ele>
        <time>2014-01-31T10:19:50.000Z</time>
      </trkpt>
      <trkpt lat="45.55784" lon="6.57009">
        <ele>2067.1999511719</ele>
        <time>2014-01-31T10:19:52.000Z</time>
      </trkpt>
      <trkpt lat="45.55784" lon="6.57009">
        <ele>2067.3999023438</ele>
        <time>2014-01-31T10:19:53.000Z</time>
      </trkpt>
      <trkpt lat="45.55784" lon="6.57009">
        <ele>2067.3999023438</ele>
        <time>2014-01-31T10:19:54.000Z</time>
      </trkpt>
      <trkpt lat="45.55784" lon="6.57009">
        <ele>2067.3999023438</ele>
        <time>2014-01-31T10:19:55.000Z</time>
      </trkpt>
      <trkpt lat="45.55784" lon="6.57009">
        <ele>2067.3999023438</ele>
        <time>2014-01-31T10:19:56.000Z</time>
      </trkpt>
      <trkpt lat="45.55784" lon="6.57009">
        <ele>2067.3999023438</ele>
        <time>2014-01-31T10:19:58.000Z</time>
      </trkpt>
      <trkpt lat="45.55784" lon="6.57009">
        <ele>2067.1999511719</ele>
        <time>2014-01-31T10:20:00.000Z</time>
      </trkpt>
      <trkpt lat="45.55784" lon="6.57009">
        <ele>2067.1999511719</ele>
        <time>2014-01-31T10:20:01.000Z</time>
      </trkpt>
      <trkpt lat="45.55784" lon="6.57009">
        <ele>2067.1999511719</ele>
        <time>2014-01-31T10:20:02.000Z</time>
      </trkpt>
      <trkpt lat="45.55784" lon="6.57009">
        <ele>2067.1999511719</ele>
        <time>2014-01-31T10:20:03.000Z</time>
      </trkpt>
      <trkpt lat="45.55784" lon="6.57009">
        <ele>2067.1999511719</ele>
        <time>2014-01-31T10:20:04.000Z</time>
      </trkpt>
      <trkpt lat="45.55784" lon="6.57009">
        <ele>2067.3999023438</ele>
        <time>2014-01-31T10:20:05.000Z</time>
      </trkpt>
      <trkpt lat="45.55784" lon="6.57009">
        <ele>2067.3999023438</ele>
        <time>2014-01-31T10:20:07.000Z</time>
      </trkpt>
      <trkpt lat="45.55784" lon="6.57008">
        <ele>2067.6000976562</ele>
        <time>2014-01-31T10:20:08.000Z</time>
      </trkpt>
      <trkpt lat="45.55784" lon="6.57009">
        <ele>2067.6000976562</ele>
        <time>2014-01-31T10:20:09.000Z</time>
      </trkpt>
      <trkpt lat="45.55785" lon="6.57009">
        <ele>2067.6000976562</ele>
        <time>2014-01-31T10:20:10.000Z</time>
      </trkpt>
      <trkpt lat="45.55784" lon="6.57009">
        <ele>2067.6000976562</ele>
        <time>2014-01-31T10:20:11.000Z</time>
      </trkpt>
      <trkpt lat="45.55784" lon="6.57009">
        <ele>2067.6000976562</ele>
        <time>2014-01-31T10:20:12.000Z</time>
      </trkpt>
      <trkpt lat="45.55784" lon="6.57009">
        <ele>2067.6000976562</ele>
        <time>2014-01-31T10:20:13.000Z</time>
      </trkpt>
      <trkpt lat="45.55784" lon="6.57009">
        <ele>2067.6000976562</ele>
        <time>2014-01-31T10:20:14.000Z</time>
      </trkpt>
      <trkpt lat="45.55784" lon="6.57009">
        <ele>2067.6000976562</ele>
        <time>2014-01-31T10:20:16.000Z</time>
      </trkpt>
      <trkpt lat="45.55784" lon="6.57009">
        <ele>2067.6000976562</ele>
        <time>2014-01-31T10:20:17.000Z</time>
      </trkpt>
      <trkpt lat="45.55784" lon="6.57009">
        <ele>2067.6000976562</ele>
        <time>2014-01-31T10:20:18.000Z</time>
      </trkpt>
      <trkpt lat="45.55784" lon="6.57009">
        <ele>2067.6000976562</ele>
        <time>2014-01-31T10:20:19.000Z</time>
      </trkpt>
      <trkpt lat="45.55784" lon="6.57008">
        <ele>2067.6000976562</ele>
        <time>2014-01-31T10:20:20.000Z</time>
      </trkpt>
      <trkpt lat="45.55785" lon="6.57008">
        <ele>2067.6000976562</ele>
        <time>2014-01-31T10:20:21.000Z</time>
      </trkpt>
      <trkpt lat="45.55785" lon="6.57007">
        <ele>2067.6000976562</ele>
        <time>2014-01-31T10:20:22.000Z</time>
      </trkpt>
      <trkpt lat="45.55786" lon="6.57006">
        <ele>2067.6000976562</ele>
        <time>2014-01-31T10:20:23.000Z</time>
      </trkpt>
      <trkpt lat="45.55786" lon="6.57006">
        <ele>2067.8000488281</ele>
        <time>2014-01-31T10:20:24.000Z</time>
      </trkpt>
      <trkpt lat="45.55787" lon="6.57005">
        <ele>2067.8000488281</ele>
        <time>2014-01-31T10:20:25.000Z</time>
      </trkpt>
      <trkpt lat="45.55787" lon="6.57004">
        <ele>2067.8000488281</ele>
        <time>2014-01-31T10:20:26.000Z</time>
      </trkpt>
      <trkpt lat="45.55788" lon="6.57003">
        <ele>2068</ele>
        <time>2014-01-31T10:20:27.000Z</time>
      </trkpt>
      <trkpt lat="45.55788" lon="6.57003">
        <ele>2068</ele>
        <time>2014-01-31T10:20:28.000Z</time>
      </trkpt>
      <trkpt lat="45.55788" lon="6.57003">
        <ele>2068.1999511719</ele>
        <time>2014-01-31T10:20:29.000Z</time>
      </trkpt>
      <trkpt lat="45.55789" lon="6.57003">
        <ele>2068.3999023438</ele>
        <time>2014-01-31T10:20:30.000Z</time>
      </trkpt>
      <trkpt lat="45.55789" lon="6.57003">
        <ele>2068.3999023438</ele>
        <time>2014-01-31T10:20:31.000Z</time>
      </trkpt>
      <trkpt lat="45.55789" lon="6.57003">
        <ele>2068.6000976562</ele>
        <time>2014-01-31T10:20:32.000Z</time>
      </trkpt>
      <trkpt lat="45.55789" lon="6.57003">
        <ele>2068.8000488281</ele>
        <time>2014-01-31T10:20:33.000Z</time>
      </trkpt>
      <trkpt lat="45.55789" lon="6.57003">
        <ele>2068.8000488281</ele>
        <time>2014-01-31T10:20:34.000Z</time>
      </trkpt>
      <trkpt lat="45.55789" lon="6.57003">
        <ele>2069</ele>
        <time>2014-01-31T10:20:35.000Z</time>
      </trkpt>
      <trkpt lat="45.5579" lon="6.57002">
        <ele>2069</ele>
        <time>2014-01-31T10:20:36.000Z</time>
      </trkpt>
      <trkpt lat="45.55791" lon="6.57001">
        <ele>2069.1999511719</ele>
        <time>2014-01-31T10:20:37.000Z</time>
      </trkpt>
      <trkpt lat="45.55791" lon="6.57">
        <ele>2069.1999511719</ele>
        <time>2014-01-31T10:20:38.000Z</time>
      </trkpt>
      <trkpt lat="45.55792" lon="6.56999">
        <ele>2069.3999023438</ele>
        <time>2014-01-31T10:20:39.000Z</time>
      </trkpt>
      <trkpt lat="45.55793" lon="6.56998">
        <ele>2069.3999023438</ele>
        <time>2014-01-31T10:20:40.000Z</time>
      </trkpt>
      <trkpt lat="45.55794" lon="6.56998">
        <ele>2069.3999023438</ele>
        <time>2014-01-31T10:20:41.000Z</time>
      </trkpt>
      <trkpt lat="45.55794" lon="6.56997">
        <ele>2069.3999023438</ele>
        <time>2014-01-31T10:20:42.000Z</time>
      </trkpt>
      <trkpt lat="45.55795" lon="6.56997">
        <ele>2069.6000976562</ele>
        <time>2014-01-31T10:20:43.000Z</time>
      </trkpt>
      <trkpt lat="45.55796" lon="6.56996">
        <ele>2069.6000976562</ele>
        <time>2014-01-31T10:20:44.000Z</time>
      </trkpt>
      <trkpt lat="45.55797" lon="6.56996">
        <ele>2069.8000488281</ele>
        <time>2014-01-31T10:20:45.000Z</time>
      </trkpt>
      <trkpt lat="45.55797" lon="6.56995">
        <ele>2070</ele>
        <time>2014-01-31T10:20:46.000Z</time>
      </trkpt>
      <trkpt lat="45.55798" lon="6.56994">
        <ele>2070.1999511719</ele>
        <time>2014-01-31T10:20:47.000Z</time>
      </trkpt>
      <trkpt lat="45.55799" lon="6.56994">
        <ele>2070.3999023438</ele>
        <time>2014-01-31T10:20:48.000Z</time>
      </trkpt>
      <trkpt lat="45.55799" lon="6.56993">
        <ele>2070.6000976562</ele>
        <time>2014-01-31T10:20:49.000Z</time>
      </trkpt>
      <trkpt lat="45.558" lon="6.56992">
        <ele>2071</ele>
        <time>2014-01-31T10:20:50.000Z</time>
      </trkpt>
      <trkpt lat="45.55801" lon="6.56992">
        <ele>2071</ele>
        <time>2014-01-31T10:20:51.000Z</time>
      </trkpt>
      <trkpt lat="45.55802" lon="6.56991">
        <ele>2071.1999511719</ele>
        <time>2014-01-31T10:20:52.000Z</time>
      </trkpt>
      <trkpt lat="45.55803" lon="6.5699">
        <ele>2071.3999023438</ele>
        <time>2014-01-31T10:20:53.000Z</time>
      </trkpt>
      <trkpt lat="45.55803" lon="6.5699">
        <ele>2071.6000976562</ele>
        <time>2014-01-31T10:20:54.000Z</time>
      </trkpt>
      <trkpt lat="45.55804" lon="6.56989">
        <ele>2071.8000488281</ele>
        <time>2014-01-31T10:20:55.000Z</time>
      </trkpt>
      <trkpt lat="45.55805" lon="6.56989">
        <ele>2072</ele>
        <time>2014-01-31T10:20:56.000Z</time>
      </trkpt>
      <trkpt lat="45.55805" lon="6.56989">
        <ele>2072.1999511719</ele>
        <time>2014-01-31T10:20:57.000Z</time>
      </trkpt>
      <trkpt lat="45.55806" lon="6.56988">
        <ele>2072.3999023438</ele>
        <time>2014-01-31T10:20:58.000Z</time>
      </trkpt>
      <trkpt lat="45.55807" lon="6.56987">
        <ele>2072.3999023438</ele>
        <time>2014-01-31T10:20:59.000Z</time>
      </trkpt>
      <trkpt lat="45.55807" lon="6.56987">
        <ele>2072.6000976562</ele>
        <time>2014-01-31T10:21:00.000Z</time>
      </trkpt>
      <trkpt lat="45.55808" lon="6.56986">
        <ele>2072.6000976562</ele>
        <time>2014-01-31T10:21:01.000Z</time>
      </trkpt>
      <trkpt lat="45.55808" lon="6.56985">
        <ele>2072.8000488281</ele>
        <time>2014-01-31T10:21:02.000Z</time>
      </trkpt>
      <trkpt lat="45.55809" lon="6.56984">
        <ele>2072.8000488281</ele>
        <time>2014-01-31T10:21:03.000Z</time>
      </trkpt>
      <trkpt lat="45.55809" lon="6.56984">
        <ele>2073</ele>
        <time>2014-01-31T10:21:04.000Z</time>
      </trkpt>
      <trkpt lat="45.5581" lon="6.56983">
        <ele>2073.1999511719</ele>
        <time>2014-01-31T10:21:05.000Z</time>
      </trkpt>
      <trkpt lat="45.55811" lon="6.56982">
        <ele>2073.3999023438</ele>
        <time>2014-01-31T10:21:06.000Z</time>
      </trkpt>
      <trkpt lat="45.55811" lon="6.56982">
        <ele>2074</ele>
        <time>2014-01-31T10:21:07.000Z</time>
      </trkpt>
      <trkpt lat="45.55813" lon="6.56981">
        <ele>2074</ele>
        <time>2014-01-31T10:21:08.000Z</time>
      </trkpt>
      <trkpt lat="45.55813" lon="6.5698">
        <ele>2074.1999511719</ele>
        <time>2014-01-31T10:21:09.000Z</time>
      </trkpt>
      <trkpt lat="45.55813" lon="6.56979">
        <ele>2074.1999511719</ele>
        <time>2014-01-31T10:21:10.000Z</time>
      </trkpt>
      <trkpt lat="45.55814" lon="6.56978">
        <ele>2074.3999023438</ele>
        <time>2014-01-31T10:21:11.000Z</time>
      </trkpt>
      <trkpt lat="45.55815" lon="6.56978">
        <ele>2074.6000976562</ele>
        <time>2014-01-31T10:21:12.000Z</time>
      </trkpt>
      <trkpt lat="45.55816" lon="6.56977">
        <ele>2074.8000488281</ele>
        <time>2014-01-31T10:21:13.000Z</time>
      </trkpt>
      <trkpt lat="45.55817" lon="6.56976">
        <ele>2074.8000488281</ele>
        <time>2014-01-31T10:21:14.000Z</time>
      </trkpt>
      <trkpt lat="45.55817" lon="6.56976">
        <ele>2075</ele>
        <time>2014-01-31T10:21:15.000Z</time>
      </trkpt>
      <trkpt lat="45.55818" lon="6.56976">
        <ele>2075.1999511719</ele>
        <time>2014-01-31T10:21:16.000Z</time>
      </trkpt>
      <trkpt lat="45.55819" lon="6.56975">
        <ele>2075.3999023438</ele>
        <time>2014-01-31T10:21:17.000Z</time>
      </trkpt>
      <trkpt lat="45.5582" lon="6.56975">
        <ele>2075.6000976562</ele>
        <time>2014-01-31T10:21:18.000Z</time>
      </trkpt>
      <trkpt lat="45.5582" lon="6.56974">
        <ele>2075.8000488281</ele>
        <time>2014-01-31T10:21:19.000Z</time>
      </trkpt>
      <trkpt lat="45.55821" lon="6.56973">
        <ele>2076</ele>
        <time>2014-01-31T10:21:20.000Z</time>
      </trkpt>
      <trkpt lat="45.55822" lon="6.56973">
        <ele>2076.1999511719</ele>
        <time>2014-01-31T10:21:21.000Z</time>
      </trkpt>
      <trkpt lat="45.55822" lon="6.56973">
        <ele>2076.3999023438</ele>
        <time>2014-01-31T10:21:22.000Z</time>
      </trkpt>
      <trkpt lat="45.55823" lon="6.56972">
        <ele>2076.6000976562</ele>
        <time>2014-01-31T10:21:23.000Z</time>
      </trkpt>
      <trkpt lat="45.55824" lon="6.56971">
        <ele>2076.8000488281</ele>
        <time>2014-01-31T10:21:24.000Z</time>
      </trkpt>
      <trkpt lat="45.55825" lon="6.5697">
        <ele>2077</ele>
        <time>2014-01-31T10:21:25.000Z</time>
      </trkpt>
      <trkpt lat="45.55826" lon="6.5697">
        <ele>2077.1999511719</ele>
        <time>2014-01-31T10:21:26.000Z</time>
      </trkpt>
      <trkpt lat="45.55826" lon="6.56969">
        <ele>2077.3999023438</ele>
        <time>2014-01-31T10:21:27.000Z</time>
      </trkpt>
      <trkpt lat="45.55827" lon="6.56969">
        <ele>2077.6000976562</ele>
        <time>2014-01-31T10:21:28.000Z</time>
      </trkpt>
      <trkpt lat="45.55828" lon="6.56968">
        <ele>2077.8000488281</ele>
        <time>2014-01-31T10:21:29.000Z</time>
      </trkpt>
      <trkpt lat="45.55829" lon="6.56968">
        <ele>2078</ele>
        <time>2014-01-31T10:21:30.000Z</time>
      </trkpt>
      <trkpt lat="45.5583" lon="6.56967">
        <ele>2078.3999023438</ele>
        <time>2014-01-31T10:21:31.000Z</time>
      </trkpt>
      <trkpt lat="45.55831" lon="6.56965">
        <ele>2078.6000976562</ele>
        <time>2014-01-31T10:21:32.000Z</time>
      </trkpt>
      <trkpt lat="45.55831" lon="6.56965">
        <ele>2078.8000488281</ele>
        <time>2014-01-31T10:21:33.000Z</time>
      </trkpt>
      <trkpt lat="45.55832" lon="6.56964">
        <ele>2079</ele>
        <time>2014-01-31T10:21:34.000Z</time>
      </trkpt>
      <trkpt lat="45.55833" lon="6.56963">
        <ele>2079.1999511719</ele>
        <time>2014-01-31T10:21:35.000Z</time>
      </trkpt>
      <trkpt lat="45.55833" lon="6.56962">
        <ele>2079.3999023438</ele>
        <time>2014-01-31T10:21:36.000Z</time>
      </trkpt>
      <trkpt lat="45.55833" lon="6.56961">
        <ele>2079.3999023438</ele>
        <time>2014-01-31T10:21:37.000Z</time>
      </trkpt>
      <trkpt lat="45.55834" lon="6.5696">
        <ele>2079.6000976562</ele>
        <time>2014-01-31T10:21:38.000Z</time>
      </trkpt>
      <trkpt lat="45.55835" lon="6.5696">
        <ele>2079.8000488281</ele>
        <time>2014-01-31T10:21:39.000Z</time>
      </trkpt>
      <trkpt lat="45.55836" lon="6.56959">
        <ele>2080</ele>
        <time>2014-01-31T10:21:40.000Z</time>
      </trkpt>
      <trkpt lat="45.55836" lon="6.56958">
        <ele>2080.1999511719</ele>
        <time>2014-01-31T10:21:41.000Z</time>
      </trkpt>
      <trkpt lat="45.55836" lon="6.56957">
        <ele>2080.3999023438</ele>
        <time>2014-01-31T10:21:42.000Z</time>
      </trkpt>
      <trkpt lat="45.55837" lon="6.56955">
        <ele>2080.6000976562</ele>
        <time>2014-01-31T10:21:43.000Z</time>
      </trkpt>
      <trkpt lat="45.55837" lon="6.56954">
        <ele>2080.6000976562</ele>
        <time>2014-01-31T10:21:44.000Z</time>
      </trkpt>
      <trkpt lat="45.55838" lon="6.56954">
        <ele>2080.8000488281</ele>
        <time>2014-01-31T10:21:45.000Z</time>
      </trkpt>
      <trkpt lat="45.55838" lon="6.56953">
        <ele>2081</ele>
        <time>2014-01-31T10:21:46.000Z</time>
      </trkpt>
      <trkpt lat="45.55839" lon="6.56953">
        <ele>2081.1999511719</ele>
        <time>2014-01-31T10:21:47.000Z</time>
      </trkpt>
      <trkpt lat="45.5584" lon="6.56953">
        <ele>2081.3999023438</ele>
        <time>2014-01-31T10:21:48.000Z</time>
      </trkpt>
      <trkpt lat="45.55841" lon="6.56953">
        <ele>2081.3999023438</ele>
        <time>2014-01-31T10:21:49.000Z</time>
      </trkpt>
      <trkpt lat="45.55841" lon="6.56953">
        <ele>2081.6000976562</ele>
        <time>2014-01-31T10:21:50.000Z</time>
      </trkpt>
      <trkpt lat="45.55842" lon="6.56952">
        <ele>2081.8000488281</ele>
        <time>2014-01-31T10:21:51.000Z</time>
      </trkpt>
      <trkpt lat="45.55843" lon="6.5695">
        <ele>2082</ele>
        <time>2014-01-31T10:21:52.000Z</time>
      </trkpt>
      <trkpt lat="45.55843" lon="6.56949">
        <ele>2082.1999511719</ele>
        <time>2014-01-31T10:21:53.000Z</time>
      </trkpt>
      <trkpt lat="45.55844" lon="6.56949">
        <ele>2082.3999023438</ele>
        <time>2014-01-31T10:21:54.000Z</time>
      </trkpt>
      <trkpt lat="45.55845" lon="6.56947">
        <ele>2082.6000976562</ele>
        <time>2014-01-31T10:21:55.000Z</time>
      </trkpt>
      <trkpt lat="45.55846" lon="6.56947">
        <ele>2082.8000488281</ele>
        <time>2014-01-31T10:21:56.000Z</time>
      </trkpt>
      <trkpt lat="45.55847" lon="6.56946">
        <ele>2083</ele>
        <time>2014-01-31T10:21:57.000Z</time>
      </trkpt>
      <trkpt lat="45.55847" lon="6.56945">
        <ele>2083.1999511719</ele>
        <time>2014-01-31T10:21:58.000Z</time>
      </trkpt>
      <trkpt lat="45.55848" lon="6.56946">
        <ele>2083.3999023438</ele>
        <time>2014-01-31T10:21:59.000Z</time>
      </trkpt>
      <trkpt lat="45.55849" lon="6.56945">
        <ele>2083.6000976562</ele>
        <time>2014-01-31T10:22:00.000Z</time>
      </trkpt>
      <trkpt lat="45.55849" lon="6.56945">
        <ele>2083.8000488281</ele>
        <time>2014-01-31T10:22:01.000Z</time>
      </trkpt>
      <trkpt lat="45.5585" lon="6.56945">
        <ele>2084</ele>
        <time>2014-01-31T10:22:02.000Z</time>
      </trkpt>
      <trkpt lat="45.55851" lon="6.56943">
        <ele>2084.1999511719</ele>
        <time>2014-01-31T10:22:03.000Z</time>
      </trkpt>
      <trkpt lat="45.55851" lon="6.56943">
        <ele>2084.3999023438</ele>
        <time>2014-01-31T10:22:04.000Z</time>
      </trkpt>
      <trkpt lat="45.55852" lon="6.56942">
        <ele>2084.6000976562</ele>
        <time>2014-01-31T10:22:05.000Z</time>
      </trkpt>
      <trkpt lat="45.55852" lon="6.56941">
        <ele>2084.6000976562</ele>
        <time>2014-01-31T10:22:06.000Z</time>
      </trkpt>
      <trkpt lat="45.55853" lon="6.56941">
        <ele>2084.8000488281</ele>
        <time>2014-01-31T10:22:07.000Z</time>
      </trkpt>
      <trkpt lat="45.55853" lon="6.56941">
        <ele>2085</ele>
        <time>2014-01-31T10:22:08.000Z</time>
      </trkpt>
      <trkpt lat="45.55854" lon="6.56941">
        <ele>2085.1999511719</ele>
        <time>2014-01-31T10:22:09.000Z</time>
      </trkpt>
      <trkpt lat="45.55856" lon="6.56941">
        <ele>2085.3999023438</ele>
        <time>2014-01-31T10:22:10.000Z</time>
      </trkpt>
      <trkpt lat="45.55857" lon="6.56941">
        <ele>2085.6000976562</ele>
        <time>2014-01-31T10:22:11.000Z</time>
      </trkpt>
      <trkpt lat="45.55857" lon="6.56941">
        <ele>2085.8000488281</ele>
        <time>2014-01-31T10:22:12.000Z</time>
      </trkpt>
      <trkpt lat="45.55859" lon="6.56942">
        <ele>2086</ele>
        <time>2014-01-31T10:22:13.000Z</time>
      </trkpt>
      <trkpt lat="45.5586" lon="6.56942">
        <ele>2086.1999511719</ele>
        <time>2014-01-31T10:22:14.000Z</time>
      </trkpt>
      <trkpt lat="45.55861" lon="6.56942">
        <ele>2086.3999023438</ele>
        <time>2014-01-31T10:22:15.000Z</time>
      </trkpt>
      <trkpt lat="45.55863" lon="6.56942">
        <ele>2086.6000976562</ele>
        <time>2014-01-31T10:22:16.000Z</time>
      </trkpt>
      <trkpt lat="45.55863" lon="6.56942">
        <ele>2086.6000976562</ele>
        <time>2014-01-31T10:22:17.000Z</time>
      </trkpt>
      <trkpt lat="45.55865" lon="6.56942">
        <ele>2086.8000488281</ele>
        <time>2014-01-31T10:22:18.000Z</time>
      </trkpt>
      <trkpt lat="45.55865" lon="6.56941">
        <ele>2087.1999511719</ele>
        <time>2014-01-31T10:22:19.000Z</time>
      </trkpt>
      <trkpt lat="45.55866" lon="6.56941">
        <ele>2087.3999023438</ele>
        <time>2014-01-31T10:22:20.000Z</time>
      </trkpt>
      <trkpt lat="45.55867" lon="6.56941">
        <ele>2087.6000976562</ele>
        <time>2014-01-31T10:22:21.000Z</time>
      </trkpt>
      <trkpt lat="45.55867" lon="6.56941">
        <ele>2087.8000488281</ele>
        <time>2014-01-31T10:22:22.000Z</time>
      </trkpt>
      <trkpt lat="45.55868" lon="6.56941">
        <ele>2088</ele>
        <time>2014-01-31T10:22:23.000Z</time>
      </trkpt>
      <trkpt lat="45.55869" lon="6.5694">
        <ele>2088.1999511719</ele>
        <time>2014-01-31T10:22:24.000Z</time>
      </trkpt>
      <trkpt lat="45.55869" lon="6.5694">
        <ele>2088.3999023438</ele>
        <time>2014-01-31T10:22:25.000Z</time>
      </trkpt>
      <trkpt lat="45.5587" lon="6.5694">
        <ele>2088.6000976562</ele>
        <time>2014-01-31T10:22:26.000Z</time>
      </trkpt>
      <trkpt lat="45.55871" lon="6.5694">
        <ele>2088.8000488281</ele>
        <time>2014-01-31T10:22:27.000Z</time>
      </trkpt>
      <trkpt lat="45.55872" lon="6.5694">
        <ele>2089</ele>
        <time>2014-01-31T10:22:28.000Z</time>
      </trkpt>
      <trkpt lat="45.55873" lon="6.56939">
        <ele>2089.1999511719</ele>
        <time>2014-01-31T10:22:29.000Z</time>
      </trkpt>
      <trkpt lat="45.55873" lon="6.56939">
        <ele>2089.3999023438</ele>
        <time>2014-01-31T10:22:30.000Z</time>
      </trkpt>
      <trkpt lat="45.55874" lon="6.56938">
        <ele>2089.6000976562</ele>
        <time>2014-01-31T10:22:31.000Z</time>
      </trkpt>
      <trkpt lat="45.55875" lon="6.56938">
        <ele>2089.8000488281</ele>
        <time>2014-01-31T10:22:32.000Z</time>
      </trkpt>
      <trkpt lat="45.55876" lon="6.56937">
        <ele>2089.8000488281</ele>
        <time>2014-01-31T10:22:33.000Z</time>
      </trkpt>
      <trkpt lat="45.55876" lon="6.56937">
        <ele>2090</ele>
        <time>2014-01-31T10:22:34.000Z</time>
      </trkpt>
      <trkpt lat="45.55877" lon="6.56937">
        <ele>2090.1999511719</ele>
        <time>2014-01-31T10:22:35.000Z</time>
      </trkpt>
      <trkpt lat="45.55877" lon="6.56937">
        <ele>2090.3999023438</ele>
        <time>2014-01-31T10:22:36.000Z</time>
      </trkpt>
      <trkpt lat="45.55877" lon="6.56937">
        <ele>2090.6000976562</ele>
        <time>2014-01-31T10:22:37.000Z</time>
      </trkpt>
      <trkpt lat="45.55877" lon="6.56937">
        <ele>2090.6000976562</ele>
        <time>2014-01-31T10:22:38.000Z</time>
      </trkpt>
      <trkpt lat="45.55877" lon="6.56937">
        <ele>2090.6000976562</ele>
        <time>2014-01-31T10:22:39.000Z</time>
      </trkpt>
      <trkpt lat="45.55877" lon="6.56937">
        <ele>2090.8000488281</ele>
        <time>2014-01-31T10:22:40.000Z</time>
      </trkpt>
      <trkpt lat="45.55877" lon="6.56937">
        <ele>2090.6000976562</ele>
        <time>2014-01-31T10:22:41.000Z</time>
      </trkpt>
      <trkpt lat="45.55877" lon="6.56937">
        <ele>2090.6000976562</ele>
        <time>2014-01-31T10:22:42.000Z</time>
      </trkpt>
      <trkpt lat="45.55877" lon="6.56937">
        <ele>2090.6000976562</ele>
        <time>2014-01-31T10:22:43.000Z</time>
      </trkpt>
      <trkpt lat="45.55878" lon="6.56936">
        <ele>2090.6000976562</ele>
        <time>2014-01-31T10:22:44.000Z</time>
      </trkpt>
      <trkpt lat="45.55879" lon="6.56934">
        <ele>2090.8000488281</ele>
        <time>2014-01-31T10:22:46.000Z</time>
      </trkpt>
      <trkpt lat="45.5588" lon="6.56935">
        <ele>2091</ele>
        <time>2014-01-31T10:22:47.000Z</time>
      </trkpt>
      <trkpt lat="45.55881" lon="6.56934">
        <ele>2091.1999511719</ele>
        <time>2014-01-31T10:22:48.000Z</time>
      </trkpt>
      <trkpt lat="45.55882" lon="6.56934">
        <ele>2091.3999023438</ele>
        <time>2014-01-31T10:22:49.000Z</time>
      </trkpt>
      <trkpt lat="45.55882" lon="6.56934">
        <ele>2091.6000976562</ele>
        <time>2014-01-31T10:22:50.000Z</time>
      </trkpt>
      <trkpt lat="45.55884" lon="6.56933">
        <ele>2091.8000488281</ele>
        <time>2014-01-31T10:22:51.000Z</time>
      </trkpt>
      <trkpt lat="45.55884" lon="6.56933">
        <ele>2092</ele>
        <time>2014-01-31T10:22:52.000Z</time>
      </trkpt>
      <trkpt lat="45.55885" lon="6.56933">
        <ele>2092.1999511719</ele>
        <time>2014-01-31T10:22:53.000Z</time>
      </trkpt>
      <trkpt lat="45.55886" lon="6.56933">
        <ele>2092.1999511719</ele>
        <time>2014-01-31T10:22:54.000Z</time>
      </trkpt>
      <trkpt lat="45.55887" lon="6.56932">
        <ele>2092.3999023438</ele>
        <time>2014-01-31T10:22:55.000Z</time>
      </trkpt>
      <trkpt lat="45.55888" lon="6.56932">
        <ele>2092.8000488281</ele>
        <time>2014-01-31T10:22:56.000Z</time>
      </trkpt>
      <trkpt lat="45.55889" lon="6.56932">
        <ele>2093</ele>
        <time>2014-01-31T10:22:57.000Z</time>
      </trkpt>
      <trkpt lat="45.55889" lon="6.56932">
        <ele>2093.1999511719</ele>
        <time>2014-01-31T10:22:58.000Z</time>
      </trkpt>
      <trkpt lat="45.5589" lon="6.56932">
        <ele>2093.1999511719</ele>
        <time>2014-01-31T10:22:59.000Z</time>
      </trkpt>
      <trkpt lat="45.55891" lon="6.56932">
        <ele>2093.3999023438</ele>
        <time>2014-01-31T10:23:00.000Z</time>
      </trkpt>
      <trkpt lat="45.55892" lon="6.56932">
        <ele>2093.6000976562</ele>
        <time>2014-01-31T10:23:01.000Z</time>
      </trkpt>
      <trkpt lat="45.55893" lon="6.56932">
        <ele>2093.8000488281</ele>
        <time>2014-01-31T10:23:02.000Z</time>
      </trkpt>
      <trkpt lat="45.55893" lon="6.56932">
        <ele>2094</ele>
        <time>2014-01-31T10:23:03.000Z</time>
      </trkpt>
      <trkpt lat="45.55895" lon="6.56932">
        <ele>2094.1999511719</ele>
        <time>2014-01-31T10:23:04.000Z</time>
      </trkpt>
      <trkpt lat="45.55896" lon="6.56931">
        <ele>2094.3999023438</ele>
        <time>2014-01-31T10:23:05.000Z</time>
      </trkpt>
      <trkpt lat="45.55896" lon="6.5693">
        <ele>2094.6000976562</ele>
        <time>2014-01-31T10:23:06.000Z</time>
      </trkpt>
      <trkpt lat="45.55897" lon="6.5693">
        <ele>2095</ele>
        <time>2014-01-31T10:23:07.000Z</time>
      </trkpt>
      <trkpt lat="45.55898" lon="6.56929">
        <ele>2095.1999511719</ele>
        <time>2014-01-31T10:23:08.000Z</time>
      </trkpt>
      <trkpt lat="45.55899" lon="6.56929">
        <ele>2095.3999023438</ele>
        <time>2014-01-31T10:23:09.000Z</time>
      </trkpt>
      <trkpt lat="45.559" lon="6.56929">
        <ele>2095.6000976562</ele>
        <time>2014-01-31T10:23:10.000Z</time>
      </trkpt>
      <trkpt lat="45.559" lon="6.56929">
        <ele>2095.8000488281</ele>
        <time>2014-01-31T10:23:11.000Z</time>
      </trkpt>
      <trkpt lat="45.55901" lon="6.56929">
        <ele>2096</ele>
        <time>2014-01-31T10:23:12.000Z</time>
      </trkpt>
      <trkpt lat="45.55902" lon="6.56928">
        <ele>2096.1999511719</ele>
        <time>2014-01-31T10:23:13.000Z</time>
      </trkpt>
      <trkpt lat="45.55903" lon="6.56929">
        <ele>2096.1999511719</ele>
        <time>2014-01-31T10:23:14.000Z</time>
      </trkpt>
      <trkpt lat="45.55904" lon="6.56929">
        <ele>2096.3999023438</ele>
        <time>2014-01-31T10:23:15.000Z</time>
      </trkpt>
      <trkpt lat="45.55905" lon="6.56929">
        <ele>2096.6000976562</ele>
        <time>2014-01-31T10:23:16.000Z</time>
      </trkpt>
      <trkpt lat="45.55905" lon="6.56928">
        <ele>2096.8000488281</ele>
        <time>2014-01-31T10:23:17.000Z</time>
      </trkpt>
      <trkpt lat="45.55906" lon="6.56927">
        <ele>2096.8000488281</ele>
        <time>2014-01-31T10:23:18.000Z</time>
      </trkpt>
      <trkpt lat="45.55906" lon="6.56927">
        <ele>2097</ele>
        <time>2014-01-31T10:23:19.000Z</time>
      </trkpt>
      <trkpt lat="45.55907" lon="6.56926">
        <ele>2097.1999511719</ele>
        <time>2014-01-31T10:23:20.000Z</time>
      </trkpt>
      <trkpt lat="45.55908" lon="6.56925">
        <ele>2097.1999511719</ele>
        <time>2014-01-31T10:23:21.000Z</time>
      </trkpt>
      <trkpt lat="45.55908" lon="6.56925">
        <ele>2097.3999023438</ele>
        <time>2014-01-31T10:23:22.000Z</time>
      </trkpt>
      <trkpt lat="45.55909" lon="6.56924">
        <ele>2097.3999023438</ele>
        <time>2014-01-31T10:23:23.000Z</time>
      </trkpt>
      <trkpt lat="45.5591" lon="6.56924">
        <ele>2097.6000976562</ele>
        <time>2014-01-31T10:23:24.000Z</time>
      </trkpt>
      <trkpt lat="45.55911" lon="6.56923">
        <ele>2097.8000488281</ele>
        <time>2014-01-31T10:23:25.000Z</time>
      </trkpt>
      <trkpt lat="45.55912" lon="6.56923">
        <ele>2098</ele>
        <time>2014-01-31T10:23:26.000Z</time>
      </trkpt>
      <trkpt lat="45.55912" lon="6.56923">
        <ele>2098.1999511719</ele>
        <time>2014-01-31T10:23:27.000Z</time>
      </trkpt>
      <trkpt lat="45.55913" lon="6.56922">
        <ele>2098.6000976562</ele>
        <time>2014-01-31T10:23:28.000Z</time>
      </trkpt>
      <trkpt lat="45.55914" lon="6.56922">
        <ele>2098.6000976562</ele>
        <time>2014-01-31T10:23:29.000Z</time>
      </trkpt>
      <trkpt lat="45.55914" lon="6.56921">
        <ele>2098.8000488281</ele>
        <time>2014-01-31T10:23:30.000Z</time>
      </trkpt>
      <trkpt lat="45.55915" lon="6.56921">
        <ele>2099.1999511719</ele>
        <time>2014-01-31T10:23:31.000Z</time>
      </trkpt>
      <trkpt lat="45.55915" lon="6.56921">
        <ele>2099.1999511719</ele>
        <time>2014-01-31T10:23:32.000Z</time>
      </trkpt>
      <trkpt lat="45.55915" lon="6.56921">
        <ele>2099.3999023438</ele>
        <time>2014-01-31T10:23:33.000Z</time>
      </trkpt>
      <trkpt lat="45.55915" lon="6.56921">
        <ele>2099.3999023438</ele>
        <time>2014-01-31T10:23:34.000Z</time>
      </trkpt>
      <trkpt lat="45.55915" lon="6.56921">
        <ele>2099.6000976562</ele>
        <time>2014-01-31T10:23:35.000Z</time>
      </trkpt>
      <trkpt lat="45.55915" lon="6.56921">
        <ele>2099.6000976562</ele>
        <time>2014-01-31T10:23:36.000Z</time>
      </trkpt>
      <trkpt lat="45.55915" lon="6.56921">
        <ele>2099.6000976562</ele>
        <time>2014-01-31T10:23:37.000Z</time>
      </trkpt>
      <trkpt lat="45.55915" lon="6.56921">
        <ele>2099.6000976562</ele>
        <time>2014-01-31T10:23:38.000Z</time>
      </trkpt>
      <trkpt lat="45.55915" lon="6.56921">
        <ele>2099.6000976562</ele>
        <time>2014-01-31T10:23:40.000Z</time>
      </trkpt>
      <trkpt lat="45.55915" lon="6.56921">
        <ele>2099.8000488281</ele>
        <time>2014-01-31T10:23:41.000Z</time>
      </trkpt>
      <trkpt lat="45.55915" lon="6.56921">
        <ele>2099.8000488281</ele>
        <time>2014-01-31T10:23:42.000Z</time>
      </trkpt>
      <trkpt lat="45.55915" lon="6.56921">
        <ele>2099.8000488281</ele>
        <time>2014-01-31T10:23:43.000Z</time>
      </trkpt>
      <trkpt lat="45.55915" lon="6.56921">
        <ele>2099.8000488281</ele>
        <time>2014-01-31T10:23:44.000Z</time>
      </trkpt>
      <trkpt lat="45.55915" lon="6.56921">
        <ele>2099.8000488281</ele>
        <time>2014-01-31T10:23:45.000Z</time>
      </trkpt>
      <trkpt lat="45.55915" lon="6.56921">
        <ele>2099.8000488281</ele>
        <time>2014-01-31T10:23:46.000Z</time>
      </trkpt>
      <trkpt lat="45.55915" lon="6.5692">
        <ele>2100</ele>
        <time>2014-01-31T10:23:47.000Z</time>
      </trkpt>
      <trkpt lat="45.55916" lon="6.56921">
        <ele>2100</ele>
        <time>2014-01-31T10:23:48.000Z</time>
      </trkpt>
      <trkpt lat="45.55916" lon="6.5692">
        <ele>2100</ele>
        <time>2014-01-31T10:23:49.000Z</time>
      </trkpt>
      <trkpt lat="45.55917" lon="6.56919">
        <ele>2100</ele>
        <time>2014-01-31T10:23:50.000Z</time>
      </trkpt>
      <trkpt lat="45.55918" lon="6.56919">
        <ele>2100.1999511719</ele>
        <time>2014-01-31T10:23:51.000Z</time>
      </trkpt>
      <trkpt lat="45.55918" lon="6.56918">
        <ele>2100.1999511719</ele>
        <time>2014-01-31T10:23:52.000Z</time>
      </trkpt>
      <trkpt lat="45.55918" lon="6.56918">
        <ele>2100.1999511719</ele>
        <time>2014-01-31T10:23:53.000Z</time>
      </trkpt>
      <trkpt lat="45.55919" lon="6.56916">
        <ele>2100.3999023438</ele>
        <time>2014-01-31T10:23:54.000Z</time>
      </trkpt>
      <trkpt lat="45.55919" lon="6.56915">
        <ele>2100.3999023438</ele>
        <time>2014-01-31T10:23:55.000Z</time>
      </trkpt>
      <trkpt lat="45.5592" lon="6.56914">
        <ele>2100.8000488281</ele>
        <time>2014-01-31T10:23:56.000Z</time>
      </trkpt>
      <trkpt lat="45.5592" lon="6.56914">
        <ele>2101</ele>
        <time>2014-01-31T10:23:57.000Z</time>
      </trkpt>
      <trkpt lat="45.5592" lon="6.56913">
        <ele>2101.3999023438</ele>
        <time>2014-01-31T10:23:58.000Z</time>
      </trkpt>
      <trkpt lat="45.55919" lon="6.56914">
        <ele>2101.6000976562</ele>
        <time>2014-01-31T10:23:59.000Z</time>
      </trkpt>
      <trkpt lat="45.5592" lon="6.56914">
        <ele>2101.8000488281</ele>
        <time>2014-01-31T10:24:00.000Z</time>
      </trkpt>
      <trkpt lat="45.5592" lon="6.56914">
        <ele>2102</ele>
        <time>2014-01-31T10:24:01.000Z</time>
      </trkpt>
      <trkpt lat="45.5592" lon="6.56914">
        <ele>2102</ele>
        <time>2014-01-31T10:24:02.000Z</time>
      </trkpt>
      <trkpt lat="45.5592" lon="6.56914">
        <ele>2102.1999511719</ele>
        <time>2014-01-31T10:24:03.000Z</time>
      </trkpt>
      <trkpt lat="45.5592" lon="6.56914">
        <ele>2102.1999511719</ele>
        <time>2014-01-31T10:24:04.000Z</time>
      </trkpt>
      <trkpt lat="45.5592" lon="6.56914">
        <ele>2102.1999511719</ele>
        <time>2014-01-31T10:24:05.000Z</time>
      </trkpt>
      <trkpt lat="45.5592" lon="6.56914">
        <ele>2102.1999511719</ele>
        <time>2014-01-31T10:24:06.000Z</time>
      </trkpt>
      <trkpt lat="45.5592" lon="6.56914">
        <ele>2102.1999511719</ele>
        <time>2014-01-31T10:24:07.000Z</time>
      </trkpt>
      <trkpt lat="45.5592" lon="6.56914">
        <ele>2102.3999023438</ele>
        <time>2014-01-31T10:24:08.000Z</time>
      </trkpt>
      <trkpt lat="45.5592" lon="6.56914">
        <ele>2102.3999023438</ele>
        <time>2014-01-31T10:24:09.000Z</time>
      </trkpt>
      <trkpt lat="45.5592" lon="6.56914">
        <ele>2102.3999023438</ele>
        <time>2014-01-31T10:24:13.000Z</time>
      </trkpt>
      <trkpt lat="45.5592" lon="6.56914">
        <ele>2102.1999511719</ele>
        <time>2014-01-31T10:24:14.000Z</time>
      </trkpt>
      <trkpt lat="45.5592" lon="6.56914">
        <ele>2102.1999511719</ele>
        <time>2014-01-31T10:24:15.000Z</time>
      </trkpt>
      <trkpt lat="45.5592" lon="6.56913">
        <ele>2102.1999511719</ele>
        <time>2014-01-31T10:24:16.000Z</time>
      </trkpt>
      <trkpt lat="45.55919" lon="6.56912">
        <ele>2102.1999511719</ele>
        <time>2014-01-31T10:24:17.000Z</time>
      </trkpt>
      <trkpt lat="45.55919" lon="6.5691">
        <ele>2102.1999511719</ele>
        <time>2014-01-31T10:24:18.000Z</time>
      </trkpt>
      <trkpt lat="45.55918" lon="6.56909">
        <ele>2102.1999511719</ele>
        <time>2014-01-31T10:24:19.000Z</time>
      </trkpt>
      <trkpt lat="45.55917" lon="6.56908">
        <ele>2102.3999023438</ele>
        <time>2014-01-31T10:24:20.000Z</time>
      </trkpt>
      <trkpt lat="45.55917" lon="6.56907">
        <ele>2102.6000976562</ele>
        <time>2014-01-31T10:24:21.000Z</time>
      </trkpt>
      <trkpt lat="45.55916" lon="6.56906">
        <ele>2102.8000488281</ele>
        <time>2014-01-31T10:24:22.000Z</time>
      </trkpt>
      <trkpt lat="45.55916" lon="6.56905">
        <ele>2103</ele>
        <time>2014-01-31T10:24:23.000Z</time>
      </trkpt>
      <trkpt lat="45.55915" lon="6.56905">
        <ele>2103</ele>
        <time>2014-01-31T10:24:24.000Z</time>
      </trkpt>
      <trkpt lat="45.55915" lon="6.56904">
        <ele>2103.1999511719</ele>
        <time>2014-01-31T10:24:25.000Z</time>
      </trkpt>
      <trkpt lat="45.55915" lon="6.56903">
        <ele>2103.1999511719</ele>
        <time>2014-01-31T10:24:26.000Z</time>
      </trkpt>
      <trkpt lat="45.55915" lon="6.56902">
        <ele>2103.3999023438</ele>
        <time>2014-01-31T10:24:27.000Z</time>
      </trkpt>
      <trkpt lat="45.55915" lon="6.56901">
        <ele>2103.6000976562</ele>
        <time>2014-01-31T10:24:28.000Z</time>
      </trkpt>
      <trkpt lat="45.55915" lon="6.56901">
        <ele>2103.6000976562</ele>
        <time>2014-01-31T10:24:29.000Z</time>
      </trkpt>
      <trkpt lat="45.55915" lon="6.56901">
        <ele>2103.8000488281</ele>
        <time>2014-01-31T10:24:30.000Z</time>
      </trkpt>
      <trkpt lat="45.55915" lon="6.56901">
        <ele>2104</ele>
        <time>2014-01-31T10:24:31.000Z</time>
      </trkpt>
      <trkpt lat="45.55915" lon="6.56901">
        <ele>2104.1999511719</ele>
        <time>2014-01-31T10:24:32.000Z</time>
      </trkpt>
      <trkpt lat="45.55915" lon="6.56901">
        <ele>2104.1999511719</ele>
        <time>2014-01-31T10:24:33.000Z</time>
      </trkpt>
      <trkpt lat="45.55915" lon="6.56901">
        <ele>2104.1999511719</ele>
        <time>2014-01-31T10:24:34.000Z</time>
      </trkpt>
      <trkpt lat="45.55915" lon="6.56901">
        <ele>2104.1999511719</ele>
        <time>2014-01-31T10:24:35.000Z</time>
      </trkpt>
      <trkpt lat="45.55915" lon="6.56901">
        <ele>2104.1999511719</ele>
        <time>2014-01-31T10:24:36.000Z</time>
      </trkpt>
      <trkpt lat="45.55915" lon="6.56901">
        <ele>2104.1999511719</ele>
        <time>2014-01-31T10:24:37.000Z</time>
      </trkpt>
      <trkpt lat="45.55915" lon="6.56901">
        <ele>2104.1999511719</ele>
        <time>2014-01-31T10:24:39.000Z</time>
      </trkpt>
      <trkpt lat="45.55915" lon="6.56901">
        <ele>2104.3999023438</ele>
        <time>2014-01-31T10:24:40.000Z</time>
      </trkpt>
      <trkpt lat="45.55915" lon="6.56901">
        <ele>2104.6000976562</ele>
        <time>2014-01-31T10:24:41.000Z</time>
      </trkpt>
      <trkpt lat="45.55915" lon="6.56901">
        <ele>2104.8000488281</ele>
        <time>2014-01-31T10:24:42.000Z</time>
      </trkpt>
      <trkpt lat="45.55915" lon="6.56901">
        <ele>2105</ele>
        <time>2014-01-31T10:24:43.000Z</time>
      </trkpt>
      <trkpt lat="45.55915" lon="6.56901">
        <ele>2105</ele>
        <time>2014-01-31T10:24:44.000Z</time>
      </trkpt>
      <trkpt lat="45.55915" lon="6.56901">
        <ele>2105</ele>
        <time>2014-01-31T10:24:45.000Z</time>
      </trkpt>
      <trkpt lat="45.55915" lon="6.56901">
        <ele>2104.8000488281</ele>
        <time>2014-01-31T10:24:46.000Z</time>
      </trkpt>
      <trkpt lat="45.55915" lon="6.56901">
        <ele>2104.8000488281</ele>
        <time>2014-01-31T10:24:47.000Z</time>
      </trkpt>
      <trkpt lat="45.55915" lon="6.56901">
        <ele>2104.6000976562</ele>
        <time>2014-01-31T10:24:48.000Z</time>
      </trkpt>
      <trkpt lat="45.55915" lon="6.56901">
        <ele>2104.6000976562</ele>
        <time>2014-01-31T10:24:49.000Z</time>
      </trkpt>
      <trkpt lat="45.55915" lon="6.56901">
        <ele>2104.6000976562</ele>
        <time>2014-01-31T10:24:50.000Z</time>
      </trkpt>
      <trkpt lat="45.55915" lon="6.56901">
        <ele>2104.6000976562</ele>
        <time>2014-01-31T10:24:51.000Z</time>
      </trkpt>
      <trkpt lat="45.55915" lon="6.56901">
        <ele>2104.6000976562</ele>
        <time>2014-01-31T10:24:52.000Z</time>
      </trkpt>
      <trkpt lat="45.55915" lon="6.56901">
        <ele>2104.6000976562</ele>
        <time>2014-01-31T10:24:53.000Z</time>
      </trkpt>
      <trkpt lat="45.55915" lon="6.56901">
        <ele>2104.6000976562</ele>
        <time>2014-01-31T10:24:54.000Z</time>
      </trkpt>
      <trkpt lat="45.55915" lon="6.56901">
        <ele>2104.6000976562</ele>
        <time>2014-01-31T10:24:55.000Z</time>
      </trkpt>
      <trkpt lat="45.55915" lon="6.56901">
        <ele>2104.6000976562</ele>
        <time>2014-01-31T10:24:56.000Z</time>
      </trkpt>
      <trkpt lat="45.55915" lon="6.569">
        <ele>2104.6000976562</ele>
        <time>2014-01-31T10:24:57.000Z</time>
      </trkpt>
      <trkpt lat="45.55915" lon="6.56899">
        <ele>2104.6000976562</ele>
        <time>2014-01-31T10:24:58.000Z</time>
      </trkpt>
      <trkpt lat="45.55914" lon="6.56897">
        <ele>2104.6000976562</ele>
        <time>2014-01-31T10:25:00.000Z</time>
      </trkpt>
      <trkpt lat="45.55914" lon="6.56897">
        <ele>2104.6000976562</ele>
        <time>2014-01-31T10:25:01.000Z</time>
      </trkpt>
      <trkpt lat="45.55914" lon="6.56897">
        <ele>2104.8000488281</ele>
        <time>2014-01-31T10:25:02.000Z</time>
      </trkpt>
      <trkpt lat="45.55914" lon="6.56897">
        <ele>2104.8000488281</ele>
        <time>2014-01-31T10:25:03.000Z</time>
      </trkpt>
      <trkpt lat="45.55914" lon="6.56897">
        <ele>2104.8000488281</ele>
        <time>2014-01-31T10:25:04.000Z</time>
      </trkpt>
      <trkpt lat="45.55914" lon="6.56897">
        <ele>2105</ele>
        <time>2014-01-31T10:25:05.000Z</time>
      </trkpt>
      <trkpt lat="45.55914" lon="6.56897">
        <ele>2105</ele>
        <time>2014-01-31T10:25:06.000Z</time>
      </trkpt>
      <trkpt lat="45.55914" lon="6.56897">
        <ele>2105</ele>
        <time>2014-01-31T10:25:07.000Z</time>
      </trkpt>
      <trkpt lat="45.55914" lon="6.56897">
        <ele>2105.1999511719</ele>
        <time>2014-01-31T10:25:08.000Z</time>
      </trkpt>
      <trkpt lat="45.55914" lon="6.56897">
        <ele>2105.1999511719</ele>
        <time>2014-01-31T10:25:09.000Z</time>
      </trkpt>
      <trkpt lat="45.55914" lon="6.56897">
        <ele>2105.1999511719</ele>
        <time>2014-01-31T10:25:11.000Z</time>
      </trkpt>
      <trkpt lat="45.55914" lon="6.56898">
        <ele>2105.1999511719</ele>
        <time>2014-01-31T10:25:12.000Z</time>
      </trkpt>
      <trkpt lat="45.55913" lon="6.56898">
        <ele>2105.1999511719</ele>
        <time>2014-01-31T10:25:13.000Z</time>
      </trkpt>
      <trkpt lat="45.55913" lon="6.56899">
        <ele>2105.1999511719</ele>
        <time>2014-01-31T10:25:14.000Z</time>
      </trkpt>
      <trkpt lat="45.55913" lon="6.56899">
        <ele>2105.1999511719</ele>
        <time>2014-01-31T10:25:15.000Z</time>
      </trkpt>
      <trkpt lat="45.55913" lon="6.56899">
        <ele>2105.3999023438</ele>
        <time>2014-01-31T10:25:16.000Z</time>
      </trkpt>
      <trkpt lat="45.55913" lon="6.56899">
        <ele>2105.3999023438</ele>
        <time>2014-01-31T10:25:17.000Z</time>
      </trkpt>
      <trkpt lat="45.55913" lon="6.56899">
        <ele>2105.3999023438</ele>
        <time>2014-01-31T10:25:18.000Z</time>
      </trkpt>
      <trkpt lat="45.55913" lon="6.56899">
        <ele>2105.3999023438</ele>
        <time>2014-01-31T10:25:19.000Z</time>
      </trkpt>
      <trkpt lat="45.55913" lon="6.56899">
        <ele>2105.6000976562</ele>
        <time>2014-01-31T10:25:20.000Z</time>
      </trkpt>
      <trkpt lat="45.55913" lon="6.56899">
        <ele>2105.6000976562</ele>
        <time>2014-01-31T10:25:21.000Z</time>
      </trkpt>
      <trkpt lat="45.55913" lon="6.56899">
        <ele>2105.6000976562</ele>
        <time>2014-01-31T10:25:22.000Z</time>
      </trkpt>
      <trkpt lat="45.55913" lon="6.56899">
        <ele>2105.6000976562</ele>
        <time>2014-01-31T10:25:23.000Z</time>
      </trkpt>
      <trkpt lat="45.55913" lon="6.56899">
        <ele>2105.6000976562</ele>
        <time>2014-01-31T10:25:25.000Z</time>
      </trkpt>
      <trkpt lat="45.55913" lon="6.56899">
        <ele>2105.6000976562</ele>
        <time>2014-01-31T10:25:26.000Z</time>
      </trkpt>
      <trkpt lat="45.55913" lon="6.56899">
        <ele>2105.3999023438</ele>
        <time>2014-01-31T10:25:27.000Z</time>
      </trkpt>
      <trkpt lat="45.55913" lon="6.56899">
        <ele>2105.1999511719</ele>
        <time>2014-01-31T10:25:28.000Z</time>
      </trkpt>
      <trkpt lat="45.55913" lon="6.56898">
        <ele>2105.1999511719</ele>
        <time>2014-01-31T10:25:29.000Z</time>
      </trkpt>
      <trkpt lat="45.55913" lon="6.56898">
        <ele>2105.1999511719</ele>
        <time>2014-01-31T10:25:30.000Z</time>
      </trkpt>
      <trkpt lat="45.55913" lon="6.56898">
        <ele>2105.1999511719</ele>
        <time>2014-01-31T10:25:31.000Z</time>
      </trkpt>
      <trkpt lat="45.55913" lon="6.56898">
        <ele>2105.1999511719</ele>
        <time>2014-01-31T10:25:32.000Z</time>
      </trkpt>
      <trkpt lat="45.55913" lon="6.56898">
        <ele>2105</ele>
        <time>2014-01-31T10:25:33.000Z</time>
      </trkpt>
      <trkpt lat="45.55913" lon="6.56898">
        <ele>2105</ele>
        <time>2014-01-31T10:25:34.000Z</time>
      </trkpt>
      <trkpt lat="45.55913" lon="6.56898">
        <ele>2105</ele>
        <time>2014-01-31T10:25:35.000Z</time>
      </trkpt>
      <trkpt lat="45.55913" lon="6.56898">
        <ele>2105</ele>
        <time>2014-01-31T10:25:37.000Z</time>
      </trkpt>
      <trkpt lat="45.55913" lon="6.56898">
        <ele>2105</ele>
        <time>2014-01-31T10:25:38.000Z</time>
      </trkpt>
      <trkpt lat="45.55913" lon="6.56898">
        <ele>2105.1999511719</ele>
        <time>2014-01-31T10:25:39.000Z</time>
      </trkpt>
      <trkpt lat="45.55913" lon="6.56898">
        <ele>2105.1999511719</ele>
        <time>2014-01-31T10:25:40.000Z</time>
      </trkpt>
      <trkpt lat="45.55913" lon="6.56898">
        <ele>2105.1999511719</ele>
        <time>2014-01-31T10:25:41.000Z</time>
      </trkpt>
      <trkpt lat="45.55913" lon="6.56898">
        <ele>2105.1999511719</ele>
        <time>2014-01-31T10:25:42.000Z</time>
      </trkpt>
      <trkpt lat="45.55913" lon="6.56898">
        <ele>2105.3999023438</ele>
        <time>2014-01-31T10:25:43.000Z</time>
      </trkpt>
      <trkpt lat="45.55913" lon="6.56898">
        <ele>2105.3999023438</ele>
        <time>2014-01-31T10:25:44.000Z</time>
      </trkpt>
      <trkpt lat="45.55913" lon="6.56898">
        <ele>2105.3999023438</ele>
        <time>2014-01-31T10:25:45.000Z</time>
      </trkpt>
      <trkpt lat="45.55913" lon="6.56898">
        <ele>2105.3999023438</ele>
        <time>2014-01-31T10:25:46.000Z</time>
      </trkpt>
      <trkpt lat="45.55913" lon="6.56898">
        <ele>2105.3999023438</ele>
        <time>2014-01-31T10:25:47.000Z</time>
      </trkpt>
      <trkpt lat="45.55913" lon="6.56898">
        <ele>2105.1999511719</ele>
        <time>2014-01-31T10:25:48.000Z</time>
      </trkpt>
      <trkpt lat="45.55913" lon="6.56898">
        <ele>2105.1999511719</ele>
        <time>2014-01-31T10:25:49.000Z</time>
      </trkpt>
      <trkpt lat="45.55913" lon="6.56898">
        <ele>2105.1999511719</ele>
        <time>2014-01-31T10:25:50.000Z</time>
      </trkpt>
      <trkpt lat="45.55913" lon="6.56898">
        <ele>2105.1999511719</ele>
        <time>2014-01-31T10:25:51.000Z</time>
      </trkpt>
      <trkpt lat="45.55913" lon="6.56898">
        <ele>2105.1999511719</ele>
        <time>2014-01-31T10:25:52.000Z</time>
      </trkpt>
      <trkpt lat="45.55913" lon="6.56898">
        <ele>2105.1999511719</ele>
        <time>2014-01-31T10:25:55.000Z</time>
      </trkpt>
      <trkpt lat="45.55913" lon="6.56898">
        <ele>2105.1999511719</ele>
        <time>2014-01-31T10:25:56.000Z</time>
      </trkpt>
      <trkpt lat="45.55913" lon="6.56898">
        <ele>2105.1999511719</ele>
        <time>2014-01-31T10:25:57.000Z</time>
      </trkpt>
      <trkpt lat="45.55913" lon="6.56898">
        <ele>2105.1999511719</ele>
        <time>2014-01-31T10:26:00.000Z</time>
      </trkpt>
      <trkpt lat="45.55913" lon="6.56898">
        <ele>2105.1999511719</ele>
        <time>2014-01-31T10:26:01.000Z</time>
      </trkpt>
      <trkpt lat="45.55913" lon="6.56898">
        <ele>2105.1999511719</ele>
        <time>2014-01-31T10:26:05.000Z</time>
      </trkpt>
      <trkpt lat="45.55913" lon="6.56898">
        <ele>2105</ele>
        <time>2014-01-31T10:26:06.000Z</time>
      </trkpt>
      <trkpt lat="45.55913" lon="6.56898">
        <ele>2105</ele>
        <time>2014-01-31T10:26:10.000Z</time>
      </trkpt>
      <trkpt lat="45.55913" lon="6.56898">
        <ele>2105</ele>
        <time>2014-01-31T10:26:11.000Z</time>
      </trkpt>
      <trkpt lat="45.55913" lon="6.56898">
        <ele>2105</ele>
        <time>2014-01-31T10:26:12.000Z</time>
      </trkpt>
      <trkpt lat="45.55913" lon="6.56898">
        <ele>2105</ele>
        <time>2014-01-31T10:26:13.000Z</time>
      </trkpt>
      <trkpt lat="45.55913" lon="6.56898">
        <ele>2105</ele>
        <time>2014-01-31T10:26:14.000Z</time>
      </trkpt>
      <trkpt lat="45.55913" lon="6.56898">
        <ele>2104.8000488281</ele>
        <time>2014-01-31T10:26:15.000Z</time>
      </trkpt>
      <trkpt lat="45.55913" lon="6.56898">
        <ele>2104.8000488281</ele>
        <time>2014-01-31T10:26:16.000Z</time>
      </trkpt>
      <trkpt lat="45.55913" lon="6.56898">
        <ele>2104.8000488281</ele>
        <time>2014-01-31T10:26:17.000Z</time>
      </trkpt>
      <trkpt lat="45.55913" lon="6.56898">
        <ele>2104.8000488281</ele>
        <time>2014-01-31T10:26:18.000Z</time>
      </trkpt>
      <trkpt lat="45.55913" lon="6.56898">
        <ele>2104.8000488281</ele>
        <time>2014-01-31T10:26:19.000Z</time>
      </trkpt>
      <trkpt lat="45.55913" lon="6.56898">
        <ele>2104.8000488281</ele>
        <time>2014-01-31T10:26:20.000Z</time>
      </trkpt>
      <trkpt lat="45.55913" lon="6.56898">
        <ele>2104.6000976562</ele>
        <time>2014-01-31T10:26:21.000Z</time>
      </trkpt>
      <trkpt lat="45.55913" lon="6.56898">
        <ele>2104.3999023438</ele>
        <time>2014-01-31T10:26:22.000Z</time>
      </trkpt>
      <trkpt lat="45.55913" lon="6.56898">
        <ele>2104.3999023438</ele>
        <time>2014-01-31T10:26:23.000Z</time>
      </trkpt>
      <trkpt lat="45.55913" lon="6.56898">
        <ele>2104.3999023438</ele>
        <time>2014-01-31T10:26:24.000Z</time>
      </trkpt>
      <trkpt lat="45.55913" lon="6.56898">
        <ele>2104.3999023438</ele>
        <time>2014-01-31T10:26:25.000Z</time>
      </trkpt>
      <trkpt lat="45.55913" lon="6.56898">
        <ele>2104.3999023438</ele>
        <time>2014-01-31T10:26:26.000Z</time>
      </trkpt>
      <trkpt lat="45.55913" lon="6.56898">
        <ele>2104.3999023438</ele>
        <time>2014-01-31T10:26:28.000Z</time>
      </trkpt>
      <trkpt lat="45.55913" lon="6.56898">
        <ele>2104.6000976562</ele>
        <time>2014-01-31T10:26:29.000Z</time>
      </trkpt>
      <trkpt lat="45.55913" lon="6.56898">
        <ele>2104.6000976562</ele>
        <time>2014-01-31T10:26:30.000Z</time>
      </trkpt>
      <trkpt lat="45.55913" lon="6.56898">
        <ele>2104.3999023438</ele>
        <time>2014-01-31T10:26:31.000Z</time>
      </trkpt>
      <trkpt lat="45.55913" lon="6.56898">
        <ele>2104.3999023438</ele>
        <time>2014-01-31T10:26:32.000Z</time>
      </trkpt>
      <trkpt lat="45.55913" lon="6.56898">
        <ele>2104.6000976562</ele>
        <time>2014-01-31T10:26:33.000Z</time>
      </trkpt>
      <trkpt lat="45.55913" lon="6.56898">
        <ele>2104.6000976562</ele>
        <time>2014-01-31T10:26:34.000Z</time>
      </trkpt>
      <trkpt lat="45.55913" lon="6.56898">
        <ele>2104.6000976562</ele>
        <time>2014-01-31T10:26:35.000Z</time>
      </trkpt>
      <trkpt lat="45.55913" lon="6.56898">
        <ele>2104.6000976562</ele>
        <time>2014-01-31T10:26:36.000Z</time>
      </trkpt>
      <trkpt lat="45.55913" lon="6.56898">
        <ele>2104.6000976562</ele>
        <time>2014-01-31T10:26:37.000Z</time>
      </trkpt>
      <trkpt lat="45.55913" lon="6.56898">
        <ele>2104.6000976562</ele>
        <time>2014-01-31T10:26:38.000Z</time>
      </trkpt>
      <trkpt lat="45.55913" lon="6.56898">
        <ele>2104.8000488281</ele>
        <time>2014-01-31T10:26:39.000Z</time>
      </trkpt>
      <trkpt lat="45.55913" lon="6.56898">
        <ele>2104.8000488281</ele>
        <time>2014-01-31T10:26:40.000Z</time>
      </trkpt>
      <trkpt lat="45.55913" lon="6.56898">
        <ele>2104.8000488281</ele>
        <time>2014-01-31T10:26:41.000Z</time>
      </trkpt>
      <trkpt lat="45.55913" lon="6.56898">
        <ele>2104.8000488281</ele>
        <time>2014-01-31T10:26:42.000Z</time>
      </trkpt>
      <trkpt lat="45.55913" lon="6.56898">
        <ele>2104.8000488281</ele>
        <time>2014-01-31T10:26:43.000Z</time>
      </trkpt>
      <trkpt lat="45.55913" lon="6.56898">
        <ele>2104.8000488281</ele>
        <time>2014-01-31T10:26:44.000Z</time>
      </trkpt>
      <trkpt lat="45.55913" lon="6.56898">
        <ele>2105</ele>
        <time>2014-01-31T10:26:45.000Z</time>
      </trkpt>
      <trkpt lat="45.55913" lon="6.56898">
        <ele>2104.8000488281</ele>
        <time>2014-01-31T10:26:46.000Z</time>
      </trkpt>
      <trkpt lat="45.55913" lon="6.56898">
        <ele>2104.8000488281</ele>
        <time>2014-01-31T10:26:47.000Z</time>
      </trkpt>
      <trkpt lat="45.55913" lon="6.56898">
        <ele>2104.8000488281</ele>
        <time>2014-01-31T10:26:48.000Z</time>
      </trkpt>
      <trkpt lat="45.55913" lon="6.56898">
        <ele>2104.8000488281</ele>
        <time>2014-01-31T10:26:50.000Z</time>
      </trkpt>
      <trkpt lat="45.55913" lon="6.56898">
        <ele>2104.8000488281</ele>
        <time>2014-01-31T10:26:51.000Z</time>
      </trkpt>
      <trkpt lat="45.55913" lon="6.56898">
        <ele>2104.8000488281</ele>
        <time>2014-01-31T10:26:52.000Z</time>
      </trkpt>
      <trkpt lat="45.55913" lon="6.56898">
        <ele>2104.8000488281</ele>
        <time>2014-01-31T10:26:53.000Z</time>
      </trkpt>
      <trkpt lat="45.55913" lon="6.56898">
        <ele>2104.8000488281</ele>
        <time>2014-01-31T10:26:54.000Z</time>
      </trkpt>
      <trkpt lat="45.55913" lon="6.56898">
        <ele>2104.8000488281</ele>
        <time>2014-01-31T10:26:56.000Z</time>
      </trkpt>
      <trkpt lat="45.55913" lon="6.56898">
        <ele>2104.8000488281</ele>
        <time>2014-01-31T10:27:05.000Z</time>
      </trkpt>
      <trkpt lat="45.55913" lon="6.56898">
        <ele>2104.8000488281</ele>
        <time>2014-01-31T10:27:06.000Z</time>
      </trkpt>
      <trkpt lat="45.55913" lon="6.56898">
        <ele>2105</ele>
        <time>2014-01-31T10:27:07.000Z</time>
      </trkpt>
      <trkpt lat="45.55913" lon="6.56898">
        <ele>2105</ele>
        <time>2014-01-31T10:27:08.000Z</time>
      </trkpt>
      <trkpt lat="45.55913" lon="6.56898">
        <ele>2105</ele>
        <time>2014-01-31T10:27:09.000Z</time>
      </trkpt>
      <trkpt lat="45.55913" lon="6.56898">
        <ele>2105</ele>
        <time>2014-01-31T10:27:11.000Z</time>
      </trkpt>
      <trkpt lat="45.55913" lon="6.56898">
        <ele>2105</ele>
        <time>2014-01-31T10:27:12.000Z</time>
      </trkpt>
      <trkpt lat="45.55913" lon="6.56898">
        <ele>2104.8000488281</ele>
        <time>2014-01-31T10:27:14.000Z</time>
      </trkpt>
      <trkpt lat="45.55913" lon="6.56898">
        <ele>2105</ele>
        <time>2014-01-31T10:27:16.000Z</time>
      </trkpt>
      <trkpt lat="45.55913" lon="6.56898">
        <ele>2105</ele>
        <time>2014-01-31T10:27:17.000Z</time>
      </trkpt>
      <trkpt lat="45.55913" lon="6.56898">
        <ele>2105</ele>
        <time>2014-01-31T10:27:18.000Z</time>
      </trkpt>
      <trkpt lat="45.55913" lon="6.56898">
        <ele>2104.8000488281</ele>
        <time>2014-01-31T10:27:20.000Z</time>
      </trkpt>
      <trkpt lat="45.55913" lon="6.56898">
        <ele>2104.8000488281</ele>
        <time>2014-01-31T10:27:21.000Z</time>
      </trkpt>
      <trkpt lat="45.55913" lon="6.56898">
        <ele>2104.6000976562</ele>
        <time>2014-01-31T10:27:22.000Z</time>
      </trkpt>
      <trkpt lat="45.55913" lon="6.56898">
        <ele>2104.6000976562</ele>
        <time>2014-01-31T10:27:23.000Z</time>
      </trkpt>
      <trkpt lat="45.55913" lon="6.56898">
        <ele>2104.6000976562</ele>
        <time>2014-01-31T10:27:24.000Z</time>
      </trkpt>
      <trkpt lat="45.55913" lon="6.56898">
        <ele>2104.6000976562</ele>
        <time>2014-01-31T10:27:25.000Z</time>
      </trkpt>
      <trkpt lat="45.55913" lon="6.56898">
        <ele>2104.8000488281</ele>
        <time>2014-01-31T10:27:26.000Z</time>
      </trkpt>
      <trkpt lat="45.55913" lon="6.56898">
        <ele>2104.8000488281</ele>
        <time>2014-01-31T10:27:27.000Z</time>
      </trkpt>
      <trkpt lat="45.55913" lon="6.56898">
        <ele>2105</ele>
        <time>2014-01-31T10:27:28.000Z</time>
      </trkpt>
      <trkpt lat="45.55913" lon="6.56898">
        <ele>2105</ele>
        <time>2014-01-31T10:27:29.000Z</time>
      </trkpt>
      <trkpt lat="45.55913" lon="6.56898">
        <ele>2105.1999511719</ele>
        <time>2014-01-31T10:27:30.000Z</time>
      </trkpt>
      <trkpt lat="45.55913" lon="6.56898">
        <ele>2105.1999511719</ele>
        <time>2014-01-31T10:27:31.000Z</time>
      </trkpt>
      <trkpt lat="45.55913" lon="6.56898">
        <ele>2105.1999511719</ele>
        <time>2014-01-31T10:27:32.000Z</time>
      </trkpt>
      <trkpt lat="45.55913" lon="6.56898">
        <ele>2104.8000488281</ele>
        <time>2014-01-31T10:27:33.000Z</time>
      </trkpt>
      <trkpt lat="45.55913" lon="6.56898">
        <ele>2104.8000488281</ele>
        <time>2014-01-31T10:27:34.000Z</time>
      </trkpt>
      <trkpt lat="45.55913" lon="6.56898">
        <ele>2104.6000976562</ele>
        <time>2014-01-31T10:27:35.000Z</time>
      </trkpt>
      <trkpt lat="45.55913" lon="6.56898">
        <ele>2104.6000976562</ele>
        <time>2014-01-31T10:27:36.000Z</time>
      </trkpt>
      <trkpt lat="45.55913" lon="6.56898">
        <ele>2104.6000976562</ele>
        <time>2014-01-31T10:27:37.000Z</time>
      </trkpt>
      <trkpt lat="45.55913" lon="6.56898">
        <ele>2104.6000976562</ele>
        <time>2014-01-31T10:27:38.000Z</time>
      </trkpt>
      <trkpt lat="45.55913" lon="6.56898">
        <ele>2104.8000488281</ele>
        <time>2014-01-31T10:27:39.000Z</time>
      </trkpt>
      <trkpt lat="45.55913" lon="6.56898">
        <ele>2104.8000488281</ele>
        <time>2014-01-31T10:27:40.000Z</time>
      </trkpt>
      <trkpt lat="45.55913" lon="6.56898">
        <ele>2104.8000488281</ele>
        <time>2014-01-31T10:27:41.000Z</time>
      </trkpt>
      <trkpt lat="45.55913" lon="6.56898">
        <ele>2104.8000488281</ele>
        <time>2014-01-31T10:27:42.000Z</time>
      </trkpt>
      <trkpt lat="45.55913" lon="6.56898">
        <ele>2104.8000488281</ele>
        <time>2014-01-31T10:27:43.000Z</time>
      </trkpt>
      <trkpt lat="45.55913" lon="6.56898">
        <ele>2104.8000488281</ele>
        <time>2014-01-31T10:27:44.000Z</time>
      </trkpt>
      <trkpt lat="45.55913" lon="6.56898">
        <ele>2104.8000488281</ele>
        <time>2014-01-31T10:27:45.000Z</time>
      </trkpt>
      <trkpt lat="45.55913" lon="6.56898">
        <ele>2104.8000488281</ele>
        <time>2014-01-31T10:27:47.000Z</time>
      </trkpt>
      <trkpt lat="45.55913" lon="6.56898">
        <ele>2104.8000488281</ele>
        <time>2014-01-31T10:27:48.000Z</time>
      </trkpt>
      <trkpt lat="45.55913" lon="6.56898">
        <ele>2104.8000488281</ele>
        <time>2014-01-31T10:27:49.000Z</time>
      </trkpt>
      <trkpt lat="45.55913" lon="6.56898">
        <ele>2104.8000488281</ele>
        <time>2014-01-31T10:27:50.000Z</time>
      </trkpt>
      <trkpt lat="45.55913" lon="6.56898">
        <ele>2104.8000488281</ele>
        <time>2014-01-31T10:27:51.000Z</time>
      </trkpt>
      <trkpt lat="45.55913" lon="6.56898">
        <ele>2104.8000488281</ele>
        <time>2014-01-31T10:27:52.000Z</time>
      </trkpt>
      <trkpt lat="45.55913" lon="6.56898">
        <ele>2104.8000488281</ele>
        <time>2014-01-31T10:27:53.000Z</time>
      </trkpt>
      <trkpt lat="45.55913" lon="6.56898">
        <ele>2104.8000488281</ele>
        <time>2014-01-31T10:27:54.000Z</time>
      </trkpt>
      <trkpt lat="45.55913" lon="6.56898">
        <ele>2104.8000488281</ele>
        <time>2014-01-31T10:27:55.000Z</time>
      </trkpt>
      <trkpt lat="45.55913" lon="6.56898">
        <ele>2104.8000488281</ele>
        <time>2014-01-31T10:27:56.000Z</time>
      </trkpt>
      <trkpt lat="45.55913" lon="6.56898">
        <ele>2104.8000488281</ele>
        <time>2014-01-31T10:27:57.000Z</time>
      </trkpt>
      <trkpt lat="45.55913" lon="6.56898">
        <ele>2104.8000488281</ele>
        <time>2014-01-31T10:27:58.000Z</time>
      </trkpt>
      <trkpt lat="45.55913" lon="6.56898">
        <ele>2104.8000488281</ele>
        <time>2014-01-31T10:27:59.000Z</time>
      </trkpt>
      <trkpt lat="45.55913" lon="6.56898">
        <ele>2104.8000488281</ele>
        <time>2014-01-31T10:28:00.000Z</time>
      </trkpt>
      <trkpt lat="45.55913" lon="6.56898">
        <ele>2104.8000488281</ele>
        <time>2014-01-31T10:28:01.000Z</time>
      </trkpt>
      <trkpt lat="45.55913" lon="6.56898">
        <ele>2104.8000488281</ele>
        <time>2014-01-31T10:28:02.000Z</time>
      </trkpt>
      <trkpt lat="45.55913" lon="6.56898">
        <ele>2104.8000488281</ele>
        <time>2014-01-31T10:28:04.000Z</time>
      </trkpt>
      <trkpt lat="45.55913" lon="6.56898">
        <ele>2104.8000488281</ele>
        <time>2014-01-31T10:28:05.000Z</time>
      </trkpt>
      <trkpt lat="45.55913" lon="6.56898">
        <ele>2104.8000488281</ele>
        <time>2014-01-31T10:28:07.000Z</time>
      </trkpt>
      <trkpt lat="45.55913" lon="6.56898">
        <ele>2104.8000488281</ele>
        <time>2014-01-31T10:28:08.000Z</time>
      </trkpt>
      <trkpt lat="45.55913" lon="6.56898">
        <ele>2104.8000488281</ele>
        <time>2014-01-31T10:28:09.000Z</time>
      </trkpt>
      <trkpt lat="45.55913" lon="6.56898">
        <ele>2104.8000488281</ele>
        <time>2014-01-31T10:28:10.000Z</time>
      </trkpt>
      <trkpt lat="45.55913" lon="6.56898">
        <ele>2104.8000488281</ele>
        <time>2014-01-31T10:28:11.000Z</time>
      </trkpt>
      <trkpt lat="45.55913" lon="6.56898">
        <ele>2104.8000488281</ele>
        <time>2014-01-31T10:28:12.000Z</time>
      </trkpt>
      <trkpt lat="45.55913" lon="6.56898">
        <ele>2104.8000488281</ele>
        <time>2014-01-31T10:28:13.000Z</time>
      </trkpt>
      <trkpt lat="45.55913" lon="6.56898">
        <ele>2104.8000488281</ele>
        <time>2014-01-31T10:28:14.000Z</time>
      </trkpt>
      <trkpt lat="45.55913" lon="6.56898">
        <ele>2104.8000488281</ele>
        <time>2014-01-31T10:28:15.000Z</time>
      </trkpt>
      <trkpt lat="45.55913" lon="6.56898">
        <ele>2104.8000488281</ele>
        <time>2014-01-31T10:28:16.000Z</time>
      </trkpt>
      <trkpt lat="45.55913" lon="6.56898">
        <ele>2104.8000488281</ele>
        <time>2014-01-31T10:28:17.000Z</time>
      </trkpt>
      <trkpt lat="45.55913" lon="6.56898">
        <ele>2105</ele>
        <time>2014-01-31T10:28:18.000Z</time>
      </trkpt>
      <trkpt lat="45.55913" lon="6.56898">
        <ele>2105</ele>
        <time>2014-01-31T10:28:19.000Z</time>
      </trkpt>
      <trkpt lat="45.55913" lon="6.56898">
        <ele>2104.8000488281</ele>
        <time>2014-01-31T10:28:21.000Z</time>
      </trkpt>
      <trkpt lat="45.55913" lon="6.56898">
        <ele>2104.8000488281</ele>
        <time>2014-01-31T10:28:22.000Z</time>
      </trkpt>
      <trkpt lat="45.55913" lon="6.56898">
        <ele>2104.8000488281</ele>
        <time>2014-01-31T10:28:23.000Z</time>
      </trkpt>
      <trkpt lat="45.55913" lon="6.56898">
        <ele>2104.8000488281</ele>
        <time>2014-01-31T10:28:24.000Z</time>
      </trkpt>
      <trkpt lat="45.55913" lon="6.56898">
        <ele>2104.8000488281</ele>
        <time>2014-01-31T10:28:25.000Z</time>
      </trkpt>
      <trkpt lat="45.55913" lon="6.56898">
        <ele>2104.8000488281</ele>
        <time>2014-01-31T10:28:26.000Z</time>
      </trkpt>
      <trkpt lat="45.55913" lon="6.56898">
        <ele>2104.8000488281</ele>
        <time>2014-01-31T10:28:27.000Z</time>
      </trkpt>
      <trkpt lat="45.55913" lon="6.56898">
        <ele>2104.8000488281</ele>
        <time>2014-01-31T10:28:28.000Z</time>
      </trkpt>
      <trkpt lat="45.55913" lon="6.56898">
        <ele>2104.8000488281</ele>
        <time>2014-01-31T10:28:31.000Z</time>
      </trkpt>
      <trkpt lat="45.55913" lon="6.56898">
        <ele>2104.8000488281</ele>
        <time>2014-01-31T10:28:32.000Z</time>
      </trkpt>
      <trkpt lat="45.55913" lon="6.56898">
        <ele>2104.8000488281</ele>
        <time>2014-01-31T10:28:33.000Z</time>
      </trkpt>
      <trkpt lat="45.55913" lon="6.56898">
        <ele>2104.8000488281</ele>
        <time>2014-01-31T10:28:34.000Z</time>
      </trkpt>
      <trkpt lat="45.55913" lon="6.56898">
        <ele>2104.8000488281</ele>
        <time>2014-01-31T10:28:36.000Z</time>
      </trkpt>
      <trkpt lat="45.55913" lon="6.56898">
        <ele>2104.8000488281</ele>
        <time>2014-01-31T10:28:37.000Z</time>
      </trkpt>
      <trkpt lat="45.55913" lon="6.56898">
        <ele>2104.8000488281</ele>
        <time>2014-01-31T10:28:38.000Z</time>
      </trkpt>
      <trkpt lat="45.55913" lon="6.56898">
        <ele>2104.8000488281</ele>
        <time>2014-01-31T10:28:40.000Z</time>
      </trkpt>
      <trkpt lat="45.55913" lon="6.56898">
        <ele>2104.8000488281</ele>
        <time>2014-01-31T10:28:41.000Z</time>
      </trkpt>
      <trkpt lat="45.55913" lon="6.56898">
        <ele>2104.8000488281</ele>
        <time>2014-01-31T10:28:43.000Z</time>
      </trkpt>
      <trkpt lat="45.55913" lon="6.56898">
        <ele>2104.8000488281</ele>
        <time>2014-01-31T10:28:52.000Z</time>
      </trkpt>
      <trkpt lat="45.55913" lon="6.56898">
        <ele>2104.8000488281</ele>
        <time>2014-01-31T10:28:53.000Z</time>
      </trkpt>
      <trkpt lat="45.55913" lon="6.56898">
        <ele>2104.8000488281</ele>
        <time>2014-01-31T10:28:54.000Z</time>
      </trkpt>
      <trkpt lat="45.55913" lon="6.56898">
        <ele>2104.6000976562</ele>
        <time>2014-01-31T10:28:55.000Z</time>
      </trkpt>
      <trkpt lat="45.55913" lon="6.56898">
        <ele>2104.6000976562</ele>
        <time>2014-01-31T10:28:56.000Z</time>
      </trkpt>
      <trkpt lat="45.55913" lon="6.56898">
        <ele>2104.8000488281</ele>
        <time>2014-01-31T10:28:57.000Z</time>
      </trkpt>
      <trkpt lat="45.55913" lon="6.56898">
        <ele>2104.8000488281</ele>
        <time>2014-01-31T10:28:58.000Z</time>
      </trkpt>
      <trkpt lat="45.55913" lon="6.56898">
        <ele>2105</ele>
        <time>2014-01-31T10:28:59.000Z</time>
      </trkpt>
      <trkpt lat="45.55913" lon="6.56898">
        <ele>2105</ele>
        <time>2014-01-31T10:29:00.000Z</time>
      </trkpt>
      <trkpt lat="45.55913" lon="6.56898">
        <ele>2105</ele>
        <time>2014-01-31T10:29:01.000Z</time>
      </trkpt>
      <trkpt lat="45.55913" lon="6.56898">
        <ele>2105</ele>
        <time>2014-01-31T10:29:02.000Z</time>
      </trkpt>
      <trkpt lat="45.55913" lon="6.56898">
        <ele>2105</ele>
        <time>2014-01-31T10:29:03.000Z</time>
      </trkpt>
      <trkpt lat="45.55913" lon="6.56898">
        <ele>2105</ele>
        <time>2014-01-31T10:29:04.000Z</time>
      </trkpt>
      <trkpt lat="45.55913" lon="6.56898">
        <ele>2105</ele>
        <time>2014-01-31T10:29:05.000Z</time>
      </trkpt>
      <trkpt lat="45.55913" lon="6.56898">
        <ele>2104.8000488281</ele>
        <time>2014-01-31T10:29:06.000Z</time>
      </trkpt>
      <trkpt lat="45.55913" lon="6.56898">
        <ele>2104.8000488281</ele>
        <time>2014-01-31T10:29:07.000Z</time>
      </trkpt>
      <trkpt lat="45.55913" lon="6.56898">
        <ele>2104.8000488281</ele>
        <time>2014-01-31T10:29:09.000Z</time>
      </trkpt>
      <trkpt lat="45.55913" lon="6.56898">
        <ele>2105</ele>
        <time>2014-01-31T10:29:10.000Z</time>
      </trkpt>
      <trkpt lat="45.55913" lon="6.56898">
        <ele>2105</ele>
        <time>2014-01-31T10:29:11.000Z</time>
      </trkpt>
      <trkpt lat="45.55913" lon="6.56898">
        <ele>2105</ele>
        <time>2014-01-31T10:29:12.000Z</time>
      </trkpt>
      <trkpt lat="45.55913" lon="6.56898">
        <ele>2105</ele>
        <time>2014-01-31T10:29:13.000Z</time>
      </trkpt>
      <trkpt lat="45.55913" lon="6.56898">
        <ele>2105</ele>
        <time>2014-01-31T10:29:14.000Z</time>
      </trkpt>
      <trkpt lat="45.55913" lon="6.56898">
        <ele>2105</ele>
        <time>2014-01-31T10:29:15.000Z</time>
      </trkpt>
      <trkpt lat="45.55913" lon="6.56898">
        <ele>2105</ele>
        <time>2014-01-31T10:29:16.000Z</time>
      </trkpt>
      <trkpt lat="45.55913" lon="6.56898">
        <ele>2105.1999511719</ele>
        <time>2014-01-31T10:29:17.000Z</time>
      </trkpt>
      <trkpt lat="45.55913" lon="6.56898">
        <ele>2105.1999511719</ele>
        <time>2014-01-31T10:29:18.000Z</time>
      </trkpt>
      <trkpt lat="45.55913" lon="6.56898">
        <ele>2105.1999511719</ele>
        <time>2014-01-31T10:29:19.000Z</time>
      </trkpt>
      <trkpt lat="45.55913" lon="6.56898">
        <ele>2105</ele>
        <time>2014-01-31T10:29:20.000Z</time>
      </trkpt>
      <trkpt lat="45.55913" lon="6.56898">
        <ele>2105</ele>
        <time>2014-01-31T10:29:21.000Z</time>
      </trkpt>
      <trkpt lat="45.55913" lon="6.56898">
        <ele>2105</ele>
        <time>2014-01-31T10:29:22.000Z</time>
      </trkpt>
      <trkpt lat="45.55913" lon="6.56898">
        <ele>2105</ele>
        <time>2014-01-31T10:29:23.000Z</time>
      </trkpt>
      <trkpt lat="45.55913" lon="6.56898">
        <ele>2105</ele>
        <time>2014-01-31T10:29:27.000Z</time>
      </trkpt>
      <trkpt lat="45.55913" lon="6.56898">
        <ele>2105</ele>
        <time>2014-01-31T10:29:28.000Z</time>
      </trkpt>
      <trkpt lat="45.55913" lon="6.56898">
        <ele>2105</ele>
        <time>2014-01-31T10:29:29.000Z</time>
      </trkpt>
      <trkpt lat="45.55913" lon="6.56898">
        <ele>2104.8000488281</ele>
        <time>2014-01-31T10:29:30.000Z</time>
      </trkpt>
      <trkpt lat="45.55913" lon="6.56898">
        <ele>2104.8000488281</ele>
        <time>2014-01-31T10:29:31.000Z</time>
      </trkpt>
      <trkpt lat="45.55913" lon="6.56898">
        <ele>2104.8000488281</ele>
        <time>2014-01-31T10:29:32.000Z</time>
      </trkpt>
      <trkpt lat="45.55913" lon="6.56898">
        <ele>2105</ele>
        <time>2014-01-31T10:29:33.000Z</time>
      </trkpt>
      <trkpt lat="45.55913" lon="6.56898">
        <ele>2105</ele>
        <time>2014-01-31T10:29:34.000Z</time>
      </trkpt>
      <trkpt lat="45.55913" lon="6.56898">
        <ele>2105</ele>
        <time>2014-01-31T10:29:35.000Z</time>
      </trkpt>
      <trkpt lat="45.55913" lon="6.56898">
        <ele>2105</ele>
        <time>2014-01-31T10:29:36.000Z</time>
      </trkpt>
      <trkpt lat="45.55913" lon="6.56898">
        <ele>2105</ele>
        <time>2014-01-31T10:29:37.000Z</time>
      </trkpt>
      <trkpt lat="45.55913" lon="6.56898">
        <ele>2105</ele>
        <time>2014-01-31T10:29:38.000Z</time>
      </trkpt>
      <trkpt lat="45.55913" lon="6.56898">
        <ele>2105</ele>
        <time>2014-01-31T10:29:39.000Z</time>
      </trkpt>
      <trkpt lat="45.55913" lon="6.56898">
        <ele>2105</ele>
        <time>2014-01-31T10:29:40.000Z</time>
      </trkpt>
      <trkpt lat="45.55913" lon="6.56898">
        <ele>2105</ele>
        <time>2014-01-31T10:29:41.000Z</time>
      </trkpt>
      <trkpt lat="45.55913" lon="6.56898">
        <ele>2105</ele>
        <time>2014-01-31T10:29:43.000Z</time>
      </trkpt>
      <trkpt lat="45.55912" lon="6.56897">
        <ele>2105</ele>
        <time>2014-01-31T10:29:45.000Z</time>
      </trkpt>
      <trkpt lat="45.55912" lon="6.56896">
        <ele>2105</ele>
        <time>2014-01-31T10:29:46.000Z</time>
      </trkpt>
      <trkpt lat="45.55912" lon="6.56895">
        <ele>2104.8000488281</ele>
        <time>2014-01-31T10:29:47.000Z</time>
      </trkpt>
      <trkpt lat="45.55911" lon="6.56893">
        <ele>2104.8000488281</ele>
        <time>2014-01-31T10:29:48.000Z</time>
      </trkpt>
      <trkpt lat="45.55911" lon="6.56893">
        <ele>2105</ele>
        <time>2014-01-31T10:29:49.000Z</time>
      </trkpt>
      <trkpt lat="45.55911" lon="6.56891">
        <ele>2105.1999511719</ele>
        <time>2014-01-31T10:29:50.000Z</time>
      </trkpt>
      <trkpt lat="45.5591" lon="6.56889">
        <ele>2105.1999511719</ele>
        <time>2014-01-31T10:29:51.000Z</time>
      </trkpt>
      <trkpt lat="45.5591" lon="6.56888">
        <ele>2105.3999023438</ele>
        <time>2014-01-31T10:29:52.000Z</time>
      </trkpt>
      <trkpt lat="45.5591" lon="6.56887">
        <ele>2105.6000976562</ele>
        <time>2014-01-31T10:29:53.000Z</time>
      </trkpt>
      <trkpt lat="45.55909" lon="6.56885">
        <ele>2106</ele>
        <time>2014-01-31T10:29:54.000Z</time>
      </trkpt>
      <trkpt lat="45.55909" lon="6.56884">
        <ele>2106.1999511719</ele>
        <time>2014-01-31T10:29:55.000Z</time>
      </trkpt>
      <trkpt lat="45.55909" lon="6.56883">
        <ele>2106.3999023438</ele>
        <time>2014-01-31T10:29:56.000Z</time>
      </trkpt>
      <trkpt lat="45.55909" lon="6.56882">
        <ele>2106.8000488281</ele>
        <time>2014-01-31T10:29:57.000Z</time>
      </trkpt>
      <trkpt lat="45.55908" lon="6.5688">
        <ele>2106.8000488281</ele>
        <time>2014-01-31T10:29:58.000Z</time>
      </trkpt>
      <trkpt lat="45.55908" lon="6.56879">
        <ele>2107</ele>
        <time>2014-01-31T10:29:59.000Z</time>
      </trkpt>
      <trkpt lat="45.55908" lon="6.56878">
        <ele>2107</ele>
        <time>2014-01-31T10:30:00.000Z</time>
      </trkpt>
      <trkpt lat="45.55907" lon="6.56878">
        <ele>2107.1999511719</ele>
        <time>2014-01-31T10:30:01.000Z</time>
      </trkpt>
      <trkpt lat="45.55906" lon="6.56876">
        <ele>2107.3999023438</ele>
        <time>2014-01-31T10:30:02.000Z</time>
      </trkpt>
      <trkpt lat="45.55906" lon="6.56875">
        <ele>2107.6000976562</ele>
        <time>2014-01-31T10:30:03.000Z</time>
      </trkpt>
      <trkpt lat="45.55906" lon="6.56874">
        <ele>2107.8000488281</ele>
        <time>2014-01-31T10:30:04.000Z</time>
      </trkpt>
      <trkpt lat="45.55906" lon="6.56873">
        <ele>2107.8000488281</ele>
        <time>2014-01-31T10:30:05.000Z</time>
      </trkpt>
      <trkpt lat="45.55906" lon="6.56873">
        <ele>2107.8000488281</ele>
        <time>2014-01-31T10:30:06.000Z</time>
      </trkpt>
      <trkpt lat="45.55906" lon="6.56872">
        <ele>2108</ele>
        <time>2014-01-31T10:30:07.000Z</time>
      </trkpt>
      <trkpt lat="45.55905" lon="6.5687">
        <ele>2108</ele>
        <time>2014-01-31T10:30:08.000Z</time>
      </trkpt>
      <trkpt lat="45.55905" lon="6.56869">
        <ele>2108</ele>
        <time>2014-01-31T10:30:09.000Z</time>
      </trkpt>
      <trkpt lat="45.55905" lon="6.56868">
        <ele>2108.1999511719</ele>
        <time>2014-01-31T10:30:10.000Z</time>
      </trkpt>
      <trkpt lat="45.55906" lon="6.56866">
        <ele>2108.3999023438</ele>
        <time>2014-01-31T10:30:11.000Z</time>
      </trkpt>
      <trkpt lat="45.55906" lon="6.56864">
        <ele>2108.6000976562</ele>
        <time>2014-01-31T10:30:12.000Z</time>
      </trkpt>
      <trkpt lat="45.55906" lon="6.56863">
        <ele>2108.6000976562</ele>
        <time>2014-01-31T10:30:13.000Z</time>
      </trkpt>
      <trkpt lat="45.55906" lon="6.56862">
        <ele>2108.8000488281</ele>
        <time>2014-01-31T10:30:14.000Z</time>
      </trkpt>
      <trkpt lat="45.55906" lon="6.56861">
        <ele>2108.8000488281</ele>
        <time>2014-01-31T10:30:15.000Z</time>
      </trkpt>
      <trkpt lat="45.55906" lon="6.56859">
        <ele>2109</ele>
        <time>2014-01-31T10:30:16.000Z</time>
      </trkpt>
      <trkpt lat="45.55906" lon="6.56859">
        <ele>2109.1999511719</ele>
        <time>2014-01-31T10:30:17.000Z</time>
      </trkpt>
      <trkpt lat="45.55907" lon="6.56858">
        <ele>2109.3999023438</ele>
        <time>2014-01-31T10:30:18.000Z</time>
      </trkpt>
      <trkpt lat="45.55907" lon="6.56857">
        <ele>2109.6000976562</ele>
        <time>2014-01-31T10:30:19.000Z</time>
      </trkpt>
      <trkpt lat="45.55908" lon="6.56857">
        <ele>2110</ele>
        <time>2014-01-31T10:30:20.000Z</time>
      </trkpt>
      <trkpt lat="45.55909" lon="6.56855">
        <ele>2110</ele>
        <time>2014-01-31T10:30:21.000Z</time>
      </trkpt>
      <trkpt lat="45.55909" lon="6.56855">
        <ele>2110.3999023438</ele>
        <time>2014-01-31T10:30:22.000Z</time>
      </trkpt>
      <trkpt lat="45.5591" lon="6.56854">
        <ele>2110.3999023438</ele>
        <time>2014-01-31T10:30:23.000Z</time>
      </trkpt>
      <trkpt lat="45.5591" lon="6.56852">
        <ele>2110.6000976562</ele>
        <time>2014-01-31T10:30:24.000Z</time>
      </trkpt>
      <trkpt lat="45.55911" lon="6.56851">
        <ele>2110.8000488281</ele>
        <time>2014-01-31T10:30:25.000Z</time>
      </trkpt>
      <trkpt lat="45.55911" lon="6.56849">
        <ele>2111</ele>
        <time>2014-01-31T10:30:26.000Z</time>
      </trkpt>
      <trkpt lat="45.55911" lon="6.56848">
        <ele>2111</ele>
        <time>2014-01-31T10:30:27.000Z</time>
      </trkpt>
      <trkpt lat="45.55911" lon="6.56848">
        <ele>2111.1999511719</ele>
        <time>2014-01-31T10:30:28.000Z</time>
      </trkpt>
      <trkpt lat="45.55911" lon="6.56846">
        <ele>2111.3999023438</ele>
        <time>2014-01-31T10:30:29.000Z</time>
      </trkpt>
      <trkpt lat="45.55911" lon="6.56846">
        <ele>2111.6000976562</ele>
        <time>2014-01-31T10:30:30.000Z</time>
      </trkpt>
      <trkpt lat="45.55911" lon="6.56846">
        <ele>2111.8000488281</ele>
        <time>2014-01-31T10:30:31.000Z</time>
      </trkpt>
      <trkpt lat="45.55911" lon="6.56844">
        <ele>2112</ele>
        <time>2014-01-31T10:30:32.000Z</time>
      </trkpt>
      <trkpt lat="45.55911" lon="6.56844">
        <ele>2112.1999511719</ele>
        <time>2014-01-31T10:30:33.000Z</time>
      </trkpt>
      <trkpt lat="45.55911" lon="6.56842">
        <ele>2112.3999023438</ele>
        <time>2014-01-31T10:30:34.000Z</time>
      </trkpt>
      <trkpt lat="45.55911" lon="6.56841">
        <ele>2112.3999023438</ele>
        <time>2014-01-31T10:30:35.000Z</time>
      </trkpt>
      <trkpt lat="45.55911" lon="6.56841">
        <ele>2112.6000976562</ele>
        <time>2014-01-31T10:30:36.000Z</time>
      </trkpt>
      <trkpt lat="45.55911" lon="6.56838">
        <ele>2112.8000488281</ele>
        <time>2014-01-31T10:30:37.000Z</time>
      </trkpt>
      <trkpt lat="45.55911" lon="6.56838">
        <ele>2113</ele>
        <time>2014-01-31T10:30:38.000Z</time>
      </trkpt>
      <trkpt lat="45.55912" lon="6.56837">
        <ele>2113.1999511719</ele>
        <time>2014-01-31T10:30:39.000Z</time>
      </trkpt>
      <trkpt lat="45.55912" lon="6.56835">
        <ele>2113.3999023438</ele>
        <time>2014-01-31T10:30:40.000Z</time>
      </trkpt>
      <trkpt lat="45.55912" lon="6.56834">
        <ele>2113.6000976562</ele>
        <time>2014-01-31T10:30:41.000Z</time>
      </trkpt>
      <trkpt lat="45.55912" lon="6.56832">
        <ele>2113.6000976562</ele>
        <time>2014-01-31T10:30:42.000Z</time>
      </trkpt>
      <trkpt lat="45.55912" lon="6.56831">
        <ele>2113.8000488281</ele>
        <time>2014-01-31T10:30:43.000Z</time>
      </trkpt>
      <trkpt lat="45.55912" lon="6.56831">
        <ele>2114</ele>
        <time>2014-01-31T10:30:44.000Z</time>
      </trkpt>
      <trkpt lat="45.55911" lon="6.56829">
        <ele>2114.1999511719</ele>
        <time>2014-01-31T10:30:45.000Z</time>
      </trkpt>
      <trkpt lat="45.55912" lon="6.56827">
        <ele>2114.3999023438</ele>
        <time>2014-01-31T10:30:46.000Z</time>
      </trkpt>
      <trkpt lat="45.55912" lon="6.56827">
        <ele>2114.6000976562</ele>
        <time>2014-01-31T10:30:47.000Z</time>
      </trkpt>
      <trkpt lat="45.55912" lon="6.56824">
        <ele>2114.6000976562</ele>
        <time>2014-01-31T10:30:48.000Z</time>
      </trkpt>
      <trkpt lat="45.55912" lon="6.56823">
        <ele>2114.6000976562</ele>
        <time>2014-01-31T10:30:49.000Z</time>
      </trkpt>
      <trkpt lat="45.55912" lon="6.56822">
        <ele>2114.6000976562</ele>
        <time>2014-01-31T10:30:50.000Z</time>
      </trkpt>
      <trkpt lat="45.55912" lon="6.5682">
        <ele>2114.8000488281</ele>
        <time>2014-01-31T10:30:51.000Z</time>
      </trkpt>
      <trkpt lat="45.55912" lon="6.5682">
        <ele>2114.8000488281</ele>
        <time>2014-01-31T10:30:52.000Z</time>
      </trkpt>
      <trkpt lat="45.55912" lon="6.56819">
        <ele>2114.8000488281</ele>
        <time>2014-01-31T10:30:53.000Z</time>
      </trkpt>
      <trkpt lat="45.55912" lon="6.56817">
        <ele>2115</ele>
        <time>2014-01-31T10:30:54.000Z</time>
      </trkpt>
      <trkpt lat="45.55912" lon="6.56816">
        <ele>2115</ele>
        <time>2014-01-31T10:30:55.000Z</time>
      </trkpt>
      <trkpt lat="45.55912" lon="6.56814">
        <ele>2115</ele>
        <time>2014-01-31T10:30:56.000Z</time>
      </trkpt>
      <trkpt lat="45.55912" lon="6.56813">
        <ele>2115.1999511719</ele>
        <time>2014-01-31T10:30:57.000Z</time>
      </trkpt>
      <trkpt lat="45.55912" lon="6.56812">
        <ele>2115.1999511719</ele>
        <time>2014-01-31T10:30:58.000Z</time>
      </trkpt>
      <trkpt lat="45.55913" lon="6.5681">
        <ele>2115.1999511719</ele>
        <time>2014-01-31T10:30:59.000Z</time>
      </trkpt>
      <trkpt lat="45.55913" lon="6.56809">
        <ele>2115.3999023438</ele>
        <time>2014-01-31T10:31:00.000Z</time>
      </trkpt>
      <trkpt lat="45.55913" lon="6.56808">
        <ele>2115.3999023438</ele>
        <time>2014-01-31T10:31:01.000Z</time>
      </trkpt>
      <trkpt lat="45.55913" lon="6.56806">
        <ele>2115.6000976562</ele>
        <time>2014-01-31T10:31:02.000Z</time>
      </trkpt>
      <trkpt lat="45.55914" lon="6.56806">
        <ele>2115.6000976562</ele>
        <time>2014-01-31T10:31:03.000Z</time>
      </trkpt>
      <trkpt lat="45.55914" lon="6.56805">
        <ele>2115.6000976562</ele>
        <time>2014-01-31T10:31:04.000Z</time>
      </trkpt>
      <trkpt lat="45.55914" lon="6.56803">
        <ele>2115.8000488281</ele>
        <time>2014-01-31T10:31:05.000Z</time>
      </trkpt>
      <trkpt lat="45.55914" lon="6.56803">
        <ele>2115.8000488281</ele>
        <time>2014-01-31T10:31:06.000Z</time>
      </trkpt>
      <trkpt lat="45.55915" lon="6.56801">
        <ele>2115.8000488281</ele>
        <time>2014-01-31T10:31:07.000Z</time>
      </trkpt>
      <trkpt lat="45.55915" lon="6.56799">
        <ele>2116</ele>
        <time>2014-01-31T10:31:08.000Z</time>
      </trkpt>
      <trkpt lat="45.55916" lon="6.56797">
        <ele>2116</ele>
        <time>2014-01-31T10:31:09.000Z</time>
      </trkpt>
      <trkpt lat="45.55917" lon="6.56796">
        <ele>2116.1999511719</ele>
        <time>2014-01-31T10:31:10.000Z</time>
      </trkpt>
      <trkpt lat="45.55918" lon="6.56794">
        <ele>2116.1999511719</ele>
        <time>2014-01-31T10:31:11.000Z</time>
      </trkpt>
      <trkpt lat="45.55918" lon="6.56794">
        <ele>2116.1999511719</ele>
        <time>2014-01-31T10:31:12.000Z</time>
      </trkpt>
      <trkpt lat="45.55919" lon="6.56792">
        <ele>2116.1999511719</ele>
        <time>2014-01-31T10:31:13.000Z</time>
      </trkpt>
      <trkpt lat="45.5592" lon="6.56791">
        <ele>2116.1999511719</ele>
        <time>2014-01-31T10:31:15.000Z</time>
      </trkpt>
      <trkpt lat="45.55919" lon="6.56789">
        <ele>2116.1999511719</ele>
        <time>2014-01-31T10:31:16.000Z</time>
      </trkpt>
      <trkpt lat="45.55919" lon="6.56788">
        <ele>2116.3999023438</ele>
        <time>2014-01-31T10:31:17.000Z</time>
      </trkpt>
      <trkpt lat="45.55919" lon="6.56787">
        <ele>2116.6000976562</ele>
        <time>2014-01-31T10:31:18.000Z</time>
      </trkpt>
      <trkpt lat="45.55919" lon="6.56785">
        <ele>2116.6000976562</ele>
        <time>2014-01-31T10:31:19.000Z</time>
      </trkpt>
      <trkpt lat="45.55918" lon="6.56785">
        <ele>2116.8000488281</ele>
        <time>2014-01-31T10:31:20.000Z</time>
      </trkpt>
      <trkpt lat="45.55918" lon="6.56783">
        <ele>2116.8000488281</ele>
        <time>2014-01-31T10:31:21.000Z</time>
      </trkpt>
      <trkpt lat="45.55917" lon="6.56782">
        <ele>2117</ele>
        <time>2014-01-31T10:31:22.000Z</time>
      </trkpt>
      <trkpt lat="45.55917" lon="6.56781">
        <ele>2117.1999511719</ele>
        <time>2014-01-31T10:31:23.000Z</time>
      </trkpt>
      <trkpt lat="45.55917" lon="6.5678">
        <ele>2117.1999511719</ele>
        <time>2014-01-31T10:31:24.000Z</time>
      </trkpt>
      <trkpt lat="45.55916" lon="6.56779">
        <ele>2117.3999023438</ele>
        <time>2014-01-31T10:31:25.000Z</time>
      </trkpt>
      <trkpt lat="45.55915" lon="6.56778">
        <ele>2117.6000976562</ele>
        <time>2014-01-31T10:31:26.000Z</time>
      </trkpt>
      <trkpt lat="45.55914" lon="6.56776">
        <ele>2118</ele>
        <time>2014-01-31T10:31:27.000Z</time>
      </trkpt>
      <trkpt lat="45.55914" lon="6.56776">
        <ele>2118.1999511719</ele>
        <time>2014-01-31T10:31:28.000Z</time>
      </trkpt>
      <trkpt lat="45.55913" lon="6.56774">
        <ele>2118.3999023438</ele>
        <time>2014-01-31T10:31:29.000Z</time>
      </trkpt>
      <trkpt lat="45.55913" lon="6.56773">
        <ele>2118.6000976562</ele>
        <time>2014-01-31T10:31:30.000Z</time>
      </trkpt>
      <trkpt lat="45.55912" lon="6.56772">
        <ele>2118.8000488281</ele>
        <time>2014-01-31T10:31:31.000Z</time>
      </trkpt>
      <trkpt lat="45.55911" lon="6.5677">
        <ele>2119</ele>
        <time>2014-01-31T10:31:32.000Z</time>
      </trkpt>
      <trkpt lat="45.55911" lon="6.5677">
        <ele>2119.1999511719</ele>
        <time>2014-01-31T10:31:33.000Z</time>
      </trkpt>
      <trkpt lat="45.5591" lon="6.56769">
        <ele>2119.3999023438</ele>
        <time>2014-01-31T10:31:34.000Z</time>
      </trkpt>
      <trkpt lat="45.55909" lon="6.56767">
        <ele>2119.3999023438</ele>
        <time>2014-01-31T10:31:35.000Z</time>
      </trkpt>
      <trkpt lat="45.55908" lon="6.56766">
        <ele>2119.6000976562</ele>
        <time>2014-01-31T10:31:36.000Z</time>
      </trkpt>
      <trkpt lat="45.55908" lon="6.56765">
        <ele>2119.6000976562</ele>
        <time>2014-01-31T10:31:37.000Z</time>
      </trkpt>
      <trkpt lat="45.55908" lon="6.56764">
        <ele>2119.6000976562</ele>
        <time>2014-01-31T10:31:38.000Z</time>
      </trkpt>
      <trkpt lat="45.55907" lon="6.56764">
        <ele>2119.6000976562</ele>
        <time>2014-01-31T10:31:39.000Z</time>
      </trkpt>
      <trkpt lat="45.55907" lon="6.56762">
        <ele>2119.8000488281</ele>
        <time>2014-01-31T10:31:40.000Z</time>
      </trkpt>
      <trkpt lat="45.55907" lon="6.56762">
        <ele>2120</ele>
        <time>2014-01-31T10:31:41.000Z</time>
      </trkpt>
      <trkpt lat="45.55906" lon="6.56761">
        <ele>2120.1999511719</ele>
        <time>2014-01-31T10:31:42.000Z</time>
      </trkpt>
      <trkpt lat="45.55906" lon="6.5676">
        <ele>2120.1999511719</ele>
        <time>2014-01-31T10:31:43.000Z</time>
      </trkpt>
      <trkpt lat="45.55906" lon="6.5676">
        <ele>2120.3999023438</ele>
        <time>2014-01-31T10:31:44.000Z</time>
      </trkpt>
      <trkpt lat="45.55905" lon="6.56758">
        <ele>2120.6000976562</ele>
        <time>2014-01-31T10:31:45.000Z</time>
      </trkpt>
      <trkpt lat="45.55905" lon="6.56757">
        <ele>2120.8000488281</ele>
        <time>2014-01-31T10:31:46.000Z</time>
      </trkpt>
      <trkpt lat="45.55905" lon="6.56757">
        <ele>2121</ele>
        <time>2014-01-31T10:31:47.000Z</time>
      </trkpt>
      <trkpt lat="45.55905" lon="6.56755">
        <ele>2121.1999511719</ele>
        <time>2014-01-31T10:31:48.000Z</time>
      </trkpt>
      <trkpt lat="45.55905" lon="6.56755">
        <ele>2121.3999023438</ele>
        <time>2014-01-31T10:31:49.000Z</time>
      </trkpt>
      <trkpt lat="45.55905" lon="6.56753">
        <ele>2121.3999023438</ele>
        <time>2014-01-31T10:31:50.000Z</time>
      </trkpt>
      <trkpt lat="45.55905" lon="6.56752">
        <ele>2121.6000976562</ele>
        <time>2014-01-31T10:31:51.000Z</time>
      </trkpt>
      <trkpt lat="45.55905" lon="6.56752">
        <ele>2121.8000488281</ele>
        <time>2014-01-31T10:31:52.000Z</time>
      </trkpt>
      <trkpt lat="45.55905" lon="6.5675">
        <ele>2122</ele>
        <time>2014-01-31T10:31:53.000Z</time>
      </trkpt>
      <trkpt lat="45.55905" lon="6.56749">
        <ele>2122.1999511719</ele>
        <time>2014-01-31T10:31:54.000Z</time>
      </trkpt>
      <trkpt lat="45.55905" lon="6.56748">
        <ele>2122.1999511719</ele>
        <time>2014-01-31T10:31:55.000Z</time>
      </trkpt>
      <trkpt lat="45.55906" lon="6.56746">
        <ele>2122.3999023438</ele>
        <time>2014-01-31T10:31:56.000Z</time>
      </trkpt>
      <trkpt lat="45.55907" lon="6.56745">
        <ele>2122.6000976562</ele>
        <time>2014-01-31T10:31:57.000Z</time>
      </trkpt>
      <trkpt lat="45.55908" lon="6.56744">
        <ele>2122.8000488281</ele>
        <time>2014-01-31T10:31:58.000Z</time>
      </trkpt>
      <trkpt lat="45.55908" lon="6.56742">
        <ele>2123</ele>
        <time>2014-01-31T10:31:59.000Z</time>
      </trkpt>
      <trkpt lat="45.55909" lon="6.56741">
        <ele>2123.1999511719</ele>
        <time>2014-01-31T10:32:00.000Z</time>
      </trkpt>
      <trkpt lat="45.55909" lon="6.5674">
        <ele>2123.3999023438</ele>
        <time>2014-01-31T10:32:01.000Z</time>
      </trkpt>
      <trkpt lat="45.5591" lon="6.56739">
        <ele>2123.3999023438</ele>
        <time>2014-01-31T10:32:02.000Z</time>
      </trkpt>
      <trkpt lat="45.5591" lon="6.56739">
        <ele>2123.6000976562</ele>
        <time>2014-01-31T10:32:03.000Z</time>
      </trkpt>
      <trkpt lat="45.5591" lon="6.56738">
        <ele>2123.6000976562</ele>
        <time>2014-01-31T10:32:04.000Z</time>
      </trkpt>
      <trkpt lat="45.55911" lon="6.56738">
        <ele>2123.8000488281</ele>
        <time>2014-01-31T10:32:05.000Z</time>
      </trkpt>
      <trkpt lat="45.55911" lon="6.56737">
        <ele>2124</ele>
        <time>2014-01-31T10:32:06.000Z</time>
      </trkpt>
      <trkpt lat="45.55912" lon="6.56735">
        <ele>2124.1999511719</ele>
        <time>2014-01-31T10:32:07.000Z</time>
      </trkpt>
      <trkpt lat="45.55913" lon="6.56734">
        <ele>2124.3999023438</ele>
        <time>2014-01-31T10:32:08.000Z</time>
      </trkpt>
      <trkpt lat="45.55914" lon="6.56734">
        <ele>2124.6000976562</ele>
        <time>2014-01-31T10:32:09.000Z</time>
      </trkpt>
      <trkpt lat="45.55914" lon="6.56734">
        <ele>2124.8000488281</ele>
        <time>2014-01-31T10:32:10.000Z</time>
      </trkpt>
      <trkpt lat="45.55915" lon="6.56733">
        <ele>2124.8000488281</ele>
        <time>2014-01-31T10:32:11.000Z</time>
      </trkpt>
      <trkpt lat="45.55916" lon="6.56731">
        <ele>2125</ele>
        <time>2014-01-31T10:32:12.000Z</time>
      </trkpt>
      <trkpt lat="45.55916" lon="6.56731">
        <ele>2125.1999511719</ele>
        <time>2014-01-31T10:32:13.000Z</time>
      </trkpt>
      <trkpt lat="45.55916" lon="6.56729">
        <ele>2125.1999511719</ele>
        <time>2014-01-31T10:32:14.000Z</time>
      </trkpt>
      <trkpt lat="45.55916" lon="6.56727">
        <ele>2125.6000976562</ele>
        <time>2014-01-31T10:32:15.000Z</time>
      </trkpt>
      <trkpt lat="45.55916" lon="6.56726">
        <ele>2125.8000488281</ele>
        <time>2014-01-31T10:32:16.000Z</time>
      </trkpt>
      <trkpt lat="45.55916" lon="6.56724">
        <ele>2125.8000488281</ele>
        <time>2014-01-31T10:32:17.000Z</time>
      </trkpt>
      <trkpt lat="45.55916" lon="6.56723">
        <ele>2126.1999511719</ele>
        <time>2014-01-31T10:32:18.000Z</time>
      </trkpt>
      <trkpt lat="45.55916" lon="6.56722">
        <ele>2126.3999023438</ele>
        <time>2014-01-31T10:32:19.000Z</time>
      </trkpt>
      <trkpt lat="45.55916" lon="6.5672">
        <ele>2126.6000976562</ele>
        <time>2014-01-31T10:32:20.000Z</time>
      </trkpt>
      <trkpt lat="45.55916" lon="6.5672">
        <ele>2126.8000488281</ele>
        <time>2014-01-31T10:32:21.000Z</time>
      </trkpt>
      <trkpt lat="45.55917" lon="6.56718">
        <ele>2127</ele>
        <time>2014-01-31T10:32:22.000Z</time>
      </trkpt>
      <trkpt lat="45.55917" lon="6.56718">
        <ele>2127</ele>
        <time>2014-01-31T10:32:23.000Z</time>
      </trkpt>
      <trkpt lat="45.55917" lon="6.56717">
        <ele>2127.1999511719</ele>
        <time>2014-01-31T10:32:24.000Z</time>
      </trkpt>
      <trkpt lat="45.55918" lon="6.56715">
        <ele>2127.6000976562</ele>
        <time>2014-01-31T10:32:25.000Z</time>
      </trkpt>
      <trkpt lat="45.55919" lon="6.56715">
        <ele>2127.6000976562</ele>
        <time>2014-01-31T10:32:26.000Z</time>
      </trkpt>
      <trkpt lat="45.55919" lon="6.56714">
        <ele>2127.8000488281</ele>
        <time>2014-01-31T10:32:27.000Z</time>
      </trkpt>
      <trkpt lat="45.55919" lon="6.56714">
        <ele>2128</ele>
        <time>2014-01-31T10:32:28.000Z</time>
      </trkpt>
      <trkpt lat="45.5592" lon="6.56713">
        <ele>2128</ele>
        <time>2014-01-31T10:32:29.000Z</time>
      </trkpt>
      <trkpt lat="45.5592" lon="6.56712">
        <ele>2128.1999511719</ele>
        <time>2014-01-31T10:32:30.000Z</time>
      </trkpt>
      <trkpt lat="45.55921" lon="6.56712">
        <ele>2128.3999023438</ele>
        <time>2014-01-31T10:32:31.000Z</time>
      </trkpt>
      <trkpt lat="45.55922" lon="6.5671">
        <ele>2128.8000488281</ele>
        <time>2014-01-31T10:32:32.000Z</time>
      </trkpt>
      <trkpt lat="45.55923" lon="6.56709">
        <ele>2129</ele>
        <time>2014-01-31T10:32:33.000Z</time>
      </trkpt>
      <trkpt lat="45.55924" lon="6.56708">
        <ele>2129.3999023438</ele>
        <time>2014-01-31T10:32:34.000Z</time>
      </trkpt>
      <trkpt lat="45.55924" lon="6.56708">
        <ele>2129.6000976562</ele>
        <time>2014-01-31T10:32:35.000Z</time>
      </trkpt>
      <trkpt lat="45.55924" lon="6.56707">
        <ele>2129.8000488281</ele>
        <time>2014-01-31T10:32:36.000Z</time>
      </trkpt>
      <trkpt lat="45.55925" lon="6.56705">
        <ele>2129.8000488281</ele>
        <time>2014-01-31T10:32:37.000Z</time>
      </trkpt>
      <trkpt lat="45.55925" lon="6.56704">
        <ele>2129.8000488281</ele>
        <time>2014-01-31T10:32:38.000Z</time>
      </trkpt>
      <trkpt lat="45.55926" lon="6.56703">
        <ele>2130</ele>
        <time>2014-01-31T10:32:39.000Z</time>
      </trkpt>
      <trkpt lat="45.55925" lon="6.56703">
        <ele>2130.1999511719</ele>
        <time>2014-01-31T10:32:40.000Z</time>
      </trkpt>
      <trkpt lat="45.55926" lon="6.56702">
        <ele>2130.3999023438</ele>
        <time>2014-01-31T10:32:41.000Z</time>
      </trkpt>
      <trkpt lat="45.55926" lon="6.56701">
        <ele>2130.6000976562</ele>
        <time>2014-01-31T10:32:42.000Z</time>
      </trkpt>
      <trkpt lat="45.55926" lon="6.56701">
        <ele>2130.8000488281</ele>
        <time>2014-01-31T10:32:43.000Z</time>
      </trkpt>
      <trkpt lat="45.55927" lon="6.56699">
        <ele>2130.8000488281</ele>
        <time>2014-01-31T10:32:44.000Z</time>
      </trkpt>
      <trkpt lat="45.55927" lon="6.56698">
        <ele>2131</ele>
        <time>2014-01-31T10:32:45.000Z</time>
      </trkpt>
      <trkpt lat="45.55927" lon="6.56698">
        <ele>2131.1999511719</ele>
        <time>2014-01-31T10:32:46.000Z</time>
      </trkpt>
      <trkpt lat="45.55927" lon="6.56697">
        <ele>2131.6000976562</ele>
        <time>2014-01-31T10:32:47.000Z</time>
      </trkpt>
      <trkpt lat="45.55927" lon="6.56696">
        <ele>2131.8000488281</ele>
        <time>2014-01-31T10:32:48.000Z</time>
      </trkpt>
      <trkpt lat="45.55928" lon="6.56695">
        <ele>2132</ele>
        <time>2014-01-31T10:32:49.000Z</time>
      </trkpt>
      <trkpt lat="45.55928" lon="6.56694">
        <ele>2132.1999511719</ele>
        <time>2014-01-31T10:32:50.000Z</time>
      </trkpt>
      <trkpt lat="45.55928" lon="6.56693">
        <ele>2132.3999023438</ele>
        <time>2014-01-31T10:32:51.000Z</time>
      </trkpt>
      <trkpt lat="45.55928" lon="6.56693">
        <ele>2132.3999023438</ele>
        <time>2014-01-31T10:32:52.000Z</time>
      </trkpt>
      <trkpt lat="45.55928" lon="6.56691">
        <ele>2132.3999023438</ele>
        <time>2014-01-31T10:32:53.000Z</time>
      </trkpt>
      <trkpt lat="45.55929" lon="6.5669">
        <ele>2132.6000976562</ele>
        <time>2014-01-31T10:32:54.000Z</time>
      </trkpt>
      <trkpt lat="45.55929" lon="6.56689">
        <ele>2132.6000976562</ele>
        <time>2014-01-31T10:32:55.000Z</time>
      </trkpt>
      <trkpt lat="45.55929" lon="6.56689">
        <ele>2132.8000488281</ele>
        <time>2014-01-31T10:32:56.000Z</time>
      </trkpt>
      <trkpt lat="45.55929" lon="6.56688">
        <ele>2133</ele>
        <time>2014-01-31T10:32:57.000Z</time>
      </trkpt>
      <trkpt lat="45.5593" lon="6.56687">
        <ele>2133.1999511719</ele>
        <time>2014-01-31T10:32:58.000Z</time>
      </trkpt>
      <trkpt lat="45.5593" lon="6.56686">
        <ele>2133.3999023438</ele>
        <time>2014-01-31T10:32:59.000Z</time>
      </trkpt>
      <trkpt lat="45.5593" lon="6.56686">
        <ele>2133.6000976562</ele>
        <time>2014-01-31T10:33:00.000Z</time>
      </trkpt>
      <trkpt lat="45.5593" lon="6.56685">
        <ele>2133.8000488281</ele>
        <time>2014-01-31T10:33:01.000Z</time>
      </trkpt>
      <trkpt lat="45.55931" lon="6.56683">
        <ele>2134.1999511719</ele>
        <time>2014-01-31T10:33:02.000Z</time>
      </trkpt>
      <trkpt lat="45.55931" lon="6.56683">
        <ele>2134.1999511719</ele>
        <time>2014-01-31T10:33:03.000Z</time>
      </trkpt>
      <trkpt lat="45.55931" lon="6.56681">
        <ele>2134.3999023438</ele>
        <time>2014-01-31T10:33:04.000Z</time>
      </trkpt>
      <trkpt lat="45.55932" lon="6.56681">
        <ele>2134.6000976562</ele>
        <time>2014-01-31T10:33:05.000Z</time>
      </trkpt>
      <trkpt lat="45.55932" lon="6.5668">
        <ele>2134.8000488281</ele>
        <time>2014-01-31T10:33:06.000Z</time>
      </trkpt>
      <trkpt lat="45.55932" lon="6.5668">
        <ele>2135</ele>
        <time>2014-01-31T10:33:07.000Z</time>
      </trkpt>
      <trkpt lat="45.55932" lon="6.56679">
        <ele>2135.1999511719</ele>
        <time>2014-01-31T10:33:08.000Z</time>
      </trkpt>
      <trkpt lat="45.55933" lon="6.56678">
        <ele>2135.1999511719</ele>
        <time>2014-01-31T10:33:09.000Z</time>
      </trkpt>
      <trkpt lat="45.55933" lon="6.56677">
        <ele>2135.3999023438</ele>
        <time>2014-01-31T10:33:10.000Z</time>
      </trkpt>
      <trkpt lat="45.55934" lon="6.56675">
        <ele>2135.6000976562</ele>
        <time>2014-01-31T10:33:11.000Z</time>
      </trkpt>
      <trkpt lat="45.55934" lon="6.56675">
        <ele>2135.6000976562</ele>
        <time>2014-01-31T10:33:12.000Z</time>
      </trkpt>
      <trkpt lat="45.55935" lon="6.56673">
        <ele>2135.8000488281</ele>
        <time>2014-01-31T10:33:13.000Z</time>
      </trkpt>
      <trkpt lat="45.55936" lon="6.56672">
        <ele>2135.8000488281</ele>
        <time>2014-01-31T10:33:14.000Z</time>
      </trkpt>
      <trkpt lat="45.55936" lon="6.56671">
        <ele>2136</ele>
        <time>2014-01-31T10:33:15.000Z</time>
      </trkpt>
      <trkpt lat="45.55936" lon="6.56672">
        <ele>2136.1999511719</ele>
        <time>2014-01-31T10:33:16.000Z</time>
      </trkpt>
      <trkpt lat="45.55936" lon="6.5667">
        <ele>2136.3999023438</ele>
        <time>2014-01-31T10:33:17.000Z</time>
      </trkpt>
      <trkpt lat="45.55936" lon="6.5667">
        <ele>2136.6000976562</ele>
        <time>2014-01-31T10:33:18.000Z</time>
      </trkpt>
      <trkpt lat="45.55937" lon="6.5667">
        <ele>2136.8000488281</ele>
        <time>2014-01-31T10:33:19.000Z</time>
      </trkpt>
      <trkpt lat="45.55937" lon="6.56668">
        <ele>2137</ele>
        <time>2014-01-31T10:33:20.000Z</time>
      </trkpt>
      <trkpt lat="45.55937" lon="6.56668">
        <ele>2137</ele>
        <time>2014-01-31T10:33:21.000Z</time>
      </trkpt>
      <trkpt lat="45.55938" lon="6.56666">
        <ele>2137.1999511719</ele>
        <time>2014-01-31T10:33:22.000Z</time>
      </trkpt>
      <trkpt lat="45.55938" lon="6.56666">
        <ele>2137.3999023438</ele>
        <time>2014-01-31T10:33:23.000Z</time>
      </trkpt>
      <trkpt lat="45.55939" lon="6.56665">
        <ele>2137.6000976562</ele>
        <time>2014-01-31T10:33:24.000Z</time>
      </trkpt>
      <trkpt lat="45.55938" lon="6.56665">
        <ele>2137.6000976562</ele>
        <time>2014-01-31T10:33:25.000Z</time>
      </trkpt>
      <trkpt lat="45.55939" lon="6.56664">
        <ele>2137.8000488281</ele>
        <time>2014-01-31T10:33:26.000Z</time>
      </trkpt>
      <trkpt lat="45.55939" lon="6.56663">
        <ele>2138</ele>
        <time>2014-01-31T10:33:27.000Z</time>
      </trkpt>
      <trkpt lat="45.55939" lon="6.56663">
        <ele>2138.1999511719</ele>
        <time>2014-01-31T10:33:28.000Z</time>
      </trkpt>
      <trkpt lat="45.55939" lon="6.56662">
        <ele>2138.3999023438</ele>
        <time>2014-01-31T10:33:29.000Z</time>
      </trkpt>
      <trkpt lat="45.5594" lon="6.56661">
        <ele>2138.3999023438</ele>
        <time>2014-01-31T10:33:30.000Z</time>
      </trkpt>
      <trkpt lat="45.5594" lon="6.5666">
        <ele>2138.6000976562</ele>
        <time>2014-01-31T10:33:31.000Z</time>
      </trkpt>
      <trkpt lat="45.5594" lon="6.56659">
        <ele>2138.8000488281</ele>
        <time>2014-01-31T10:33:32.000Z</time>
      </trkpt>
      <trkpt lat="45.55942" lon="6.56658">
        <ele>2139</ele>
        <time>2014-01-31T10:33:33.000Z</time>
      </trkpt>
      <trkpt lat="45.55942" lon="6.56658">
        <ele>2139.3999023438</ele>
        <time>2014-01-31T10:33:34.000Z</time>
      </trkpt>
      <trkpt lat="45.55942" lon="6.56656">
        <ele>2139.3999023438</ele>
        <time>2014-01-31T10:33:35.000Z</time>
      </trkpt>
      <trkpt lat="45.55942" lon="6.56656">
        <ele>2139.8000488281</ele>
        <time>2014-01-31T10:33:36.000Z</time>
      </trkpt>
      <trkpt lat="45.55943" lon="6.56655">
        <ele>2139.8000488281</ele>
        <time>2014-01-31T10:33:37.000Z</time>
      </trkpt>
      <trkpt lat="45.55943" lon="6.56655">
        <ele>2140</ele>
        <time>2014-01-31T10:33:38.000Z</time>
      </trkpt>
      <trkpt lat="45.55944" lon="6.56653">
        <ele>2140</ele>
        <time>2014-01-31T10:33:39.000Z</time>
      </trkpt>
      <trkpt lat="45.55943" lon="6.56653">
        <ele>2140.1999511719</ele>
        <time>2014-01-31T10:33:40.000Z</time>
      </trkpt>
      <trkpt lat="45.55944" lon="6.56652">
        <ele>2140.3999023438</ele>
        <time>2014-01-31T10:33:41.000Z</time>
      </trkpt>
      <trkpt lat="45.55944" lon="6.56652">
        <ele>2140.6000976562</ele>
        <time>2014-01-31T10:33:42.000Z</time>
      </trkpt>
      <trkpt lat="45.55945" lon="6.56651">
        <ele>2140.6000976562</ele>
        <time>2014-01-31T10:33:43.000Z</time>
      </trkpt>
      <trkpt lat="45.55945" lon="6.5665">
        <ele>2141</ele>
        <time>2014-01-31T10:33:44.000Z</time>
      </trkpt>
      <trkpt lat="45.55945" lon="6.56649">
        <ele>2140.8000488281</ele>
        <time>2014-01-31T10:33:45.000Z</time>
      </trkpt>
      <trkpt lat="45.55946" lon="6.56648">
        <ele>2141.1999511719</ele>
        <time>2014-01-31T10:33:46.000Z</time>
      </trkpt>
      <trkpt lat="45.55946" lon="6.56647">
        <ele>2141</ele>
        <time>2014-01-31T10:33:47.000Z</time>
      </trkpt>
      <trkpt lat="45.55947" lon="6.56647">
        <ele>2141.1999511719</ele>
        <time>2014-01-31T10:33:48.000Z</time>
      </trkpt>
      <trkpt lat="45.55947" lon="6.56646">
        <ele>2141.1999511719</ele>
        <time>2014-01-31T10:33:49.000Z</time>
      </trkpt>
      <trkpt lat="45.55948" lon="6.56646">
        <ele>2141.3999023438</ele>
        <time>2014-01-31T10:33:50.000Z</time>
      </trkpt>
      <trkpt lat="45.55948" lon="6.56645">
        <ele>2141.6000976562</ele>
        <time>2014-01-31T10:33:51.000Z</time>
      </trkpt>
      <trkpt lat="45.55948" lon="6.56644">
        <ele>2141.8000488281</ele>
        <time>2014-01-31T10:33:52.000Z</time>
      </trkpt>
      <trkpt lat="45.55949" lon="6.56644">
        <ele>2141.8000488281</ele>
        <time>2014-01-31T10:33:53.000Z</time>
      </trkpt>
      <trkpt lat="45.55949" lon="6.56643">
        <ele>2142.1999511719</ele>
        <time>2014-01-31T10:33:54.000Z</time>
      </trkpt>
      <trkpt lat="45.5595" lon="6.56642">
        <ele>2142.3999023438</ele>
        <time>2014-01-31T10:33:55.000Z</time>
      </trkpt>
      <trkpt lat="45.5595" lon="6.56641">
        <ele>2142.6000976562</ele>
        <time>2014-01-31T10:33:56.000Z</time>
      </trkpt>
      <trkpt lat="45.55951" lon="6.5664">
        <ele>2142.6000976562</ele>
        <time>2014-01-31T10:33:57.000Z</time>
      </trkpt>
      <trkpt lat="45.55951" lon="6.5664">
        <ele>2143</ele>
        <time>2014-01-31T10:33:58.000Z</time>
      </trkpt>
      <trkpt lat="45.55952" lon="6.56639">
        <ele>2143.1999511719</ele>
        <time>2014-01-31T10:33:59.000Z</time>
      </trkpt>
      <trkpt lat="45.55952" lon="6.56638">
        <ele>2143.3999023438</ele>
        <time>2014-01-31T10:34:01.000Z</time>
      </trkpt>
      <trkpt lat="45.55953" lon="6.56637">
        <ele>2143.3999023438</ele>
        <time>2014-01-31T10:34:02.000Z</time>
      </trkpt>
      <trkpt lat="45.55954" lon="6.56636">
        <ele>2143.6000976562</ele>
        <time>2014-01-31T10:34:03.000Z</time>
      </trkpt>
      <trkpt lat="45.55954" lon="6.56636">
        <ele>2143.8000488281</ele>
        <time>2014-01-31T10:34:04.000Z</time>
      </trkpt>
      <trkpt lat="45.55955" lon="6.56634">
        <ele>2144</ele>
        <time>2014-01-31T10:34:05.000Z</time>
      </trkpt>
      <trkpt lat="45.55956" lon="6.56634">
        <ele>2144.1999511719</ele>
        <time>2014-01-31T10:34:06.000Z</time>
      </trkpt>
      <trkpt lat="45.55957" lon="6.56632">
        <ele>2144.3999023438</ele>
        <time>2014-01-31T10:34:07.000Z</time>
      </trkpt>
      <trkpt lat="45.55957" lon="6.56633">
        <ele>2144.6000976562</ele>
        <time>2014-01-31T10:34:08.000Z</time>
      </trkpt>
      <trkpt lat="45.55958" lon="6.56631">
        <ele>2144.6000976562</ele>
        <time>2014-01-31T10:34:09.000Z</time>
      </trkpt>
      <trkpt lat="45.55958" lon="6.56632">
        <ele>2144.8000488281</ele>
        <time>2014-01-31T10:34:10.000Z</time>
      </trkpt>
      <trkpt lat="45.55958" lon="6.56631">
        <ele>2144.8000488281</ele>
        <time>2014-01-31T10:34:11.000Z</time>
      </trkpt>
      <trkpt lat="45.55959" lon="6.5663">
        <ele>2145</ele>
        <time>2014-01-31T10:34:12.000Z</time>
      </trkpt>
      <trkpt lat="45.55959" lon="6.5663">
        <ele>2145.1999511719</ele>
        <time>2014-01-31T10:34:13.000Z</time>
      </trkpt>
      <trkpt lat="45.5596" lon="6.56628">
        <ele>2145.3999023438</ele>
        <time>2014-01-31T10:34:14.000Z</time>
      </trkpt>
      <trkpt lat="45.5596" lon="6.56628">
        <ele>2145.6000976562</ele>
        <time>2014-01-31T10:34:15.000Z</time>
      </trkpt>
      <trkpt lat="45.5596" lon="6.56626">
        <ele>2145.8000488281</ele>
        <time>2014-01-31T10:34:16.000Z</time>
      </trkpt>
      <trkpt lat="45.5596" lon="6.56626">
        <ele>2146</ele>
        <time>2014-01-31T10:34:17.000Z</time>
      </trkpt>
      <trkpt lat="45.5596" lon="6.56624">
        <ele>2146.1999511719</ele>
        <time>2014-01-31T10:34:18.000Z</time>
      </trkpt>
      <trkpt lat="45.5596" lon="6.56624">
        <ele>2146.1999511719</ele>
        <time>2014-01-31T10:34:19.000Z</time>
      </trkpt>
      <trkpt lat="45.55959" lon="6.56623">
        <ele>2146.1999511719</ele>
        <time>2014-01-31T10:34:20.000Z</time>
      </trkpt>
      <trkpt lat="45.55959" lon="6.56621">
        <ele>2146.3999023438</ele>
        <time>2014-01-31T10:34:21.000Z</time>
      </trkpt>
      <trkpt lat="45.5596" lon="6.56621">
        <ele>2146.8000488281</ele>
        <time>2014-01-31T10:34:22.000Z</time>
      </trkpt>
      <trkpt lat="45.5596" lon="6.56619">
        <ele>2147</ele>
        <time>2014-01-31T10:34:23.000Z</time>
      </trkpt>
      <trkpt lat="45.5596" lon="6.56619">
        <ele>2147.1999511719</ele>
        <time>2014-01-31T10:34:24.000Z</time>
      </trkpt>
      <trkpt lat="45.55959" lon="6.56618">
        <ele>2147.1999511719</ele>
        <time>2014-01-31T10:34:25.000Z</time>
      </trkpt>
      <trkpt lat="45.55959" lon="6.56618">
        <ele>2147.6000976562</ele>
        <time>2014-01-31T10:34:26.000Z</time>
      </trkpt>
      <trkpt lat="45.55959" lon="6.56617">
        <ele>2147.3999023438</ele>
        <time>2014-01-31T10:34:27.000Z</time>
      </trkpt>
      <trkpt lat="45.55959" lon="6.56615">
        <ele>2147.6000976562</ele>
        <time>2014-01-31T10:34:28.000Z</time>
      </trkpt>
      <trkpt lat="45.55959" lon="6.56614">
        <ele>2147.6000976562</ele>
        <time>2014-01-31T10:34:29.000Z</time>
      </trkpt>
      <trkpt lat="45.55958" lon="6.56612">
        <ele>2147.6000976562</ele>
        <time>2014-01-31T10:34:30.000Z</time>
      </trkpt>
      <trkpt lat="45.55958" lon="6.56612">
        <ele>2147.6000976562</ele>
        <time>2014-01-31T10:34:31.000Z</time>
      </trkpt>
      <trkpt lat="45.55957" lon="6.56609">
        <ele>2147.8000488281</ele>
        <time>2014-01-31T10:34:32.000Z</time>
      </trkpt>
      <trkpt lat="45.55957" lon="6.56609">
        <ele>2147.8000488281</ele>
        <time>2014-01-31T10:34:33.000Z</time>
      </trkpt>
      <trkpt lat="45.55957" lon="6.56607">
        <ele>2147.8000488281</ele>
        <time>2014-01-31T10:34:34.000Z</time>
      </trkpt>
      <trkpt lat="45.55957" lon="6.56607">
        <ele>2147.8000488281</ele>
        <time>2014-01-31T10:34:35.000Z</time>
      </trkpt>
      <trkpt lat="45.55957" lon="6.56606">
        <ele>2147.8000488281</ele>
        <time>2014-01-31T10:34:36.000Z</time>
      </trkpt>
      <trkpt lat="45.55956" lon="6.56604">
        <ele>2148</ele>
        <time>2014-01-31T10:34:37.000Z</time>
      </trkpt>
      <trkpt lat="45.55956" lon="6.56603">
        <ele>2148.1999511719</ele>
        <time>2014-01-31T10:34:38.000Z</time>
      </trkpt>
      <trkpt lat="45.55956" lon="6.56601">
        <ele>2148.3999023438</ele>
        <time>2014-01-31T10:34:39.000Z</time>
      </trkpt>
      <trkpt lat="45.55956" lon="6.56601">
        <ele>2148.3999023438</ele>
        <time>2014-01-31T10:34:40.000Z</time>
      </trkpt>
      <trkpt lat="45.55955" lon="6.56598">
        <ele>2148.6000976562</ele>
        <time>2014-01-31T10:34:41.000Z</time>
      </trkpt>
      <trkpt lat="45.55955" lon="6.56598">
        <ele>2148.8000488281</ele>
        <time>2014-01-31T10:34:42.000Z</time>
      </trkpt>
      <trkpt lat="45.55955" lon="6.56596">
        <ele>2149</ele>
        <time>2014-01-31T10:34:43.000Z</time>
      </trkpt>
      <trkpt lat="45.55955" lon="6.56596">
        <ele>2149</ele>
        <time>2014-01-31T10:34:44.000Z</time>
      </trkpt>
      <trkpt lat="45.55955" lon="6.56596">
        <ele>2149</ele>
        <time>2014-01-31T10:34:45.000Z</time>
      </trkpt>
      <trkpt lat="45.55954" lon="6.56595">
        <ele>2149.1999511719</ele>
        <time>2014-01-31T10:34:46.000Z</time>
      </trkpt>
      <trkpt lat="45.55954" lon="6.56594">
        <ele>2149.3999023438</ele>
        <time>2014-01-31T10:34:47.000Z</time>
      </trkpt>
      <trkpt lat="45.55954" lon="6.56593">
        <ele>2149.8000488281</ele>
        <time>2014-01-31T10:34:48.000Z</time>
      </trkpt>
      <trkpt lat="45.55953" lon="6.56592">
        <ele>2150</ele>
        <time>2014-01-31T10:34:49.000Z</time>
      </trkpt>
      <trkpt lat="45.55953" lon="6.56591">
        <ele>2150.3999023438</ele>
        <time>2014-01-31T10:34:50.000Z</time>
      </trkpt>
      <trkpt lat="45.55953" lon="6.56589">
        <ele>2150.6000976562</ele>
        <time>2014-01-31T10:34:51.000Z</time>
      </trkpt>
      <trkpt lat="45.55953" lon="6.56588">
        <ele>2150.6000976562</ele>
        <time>2014-01-31T10:34:52.000Z</time>
      </trkpt>
      <trkpt lat="45.55953" lon="6.56587">
        <ele>2150.8000488281</ele>
        <time>2014-01-31T10:34:53.000Z</time>
      </trkpt>
      <trkpt lat="45.55953" lon="6.56587">
        <ele>2150.8000488281</ele>
        <time>2014-01-31T10:34:54.000Z</time>
      </trkpt>
      <trkpt lat="45.55953" lon="6.56586">
        <ele>2151</ele>
        <time>2014-01-31T10:34:55.000Z</time>
      </trkpt>
      <trkpt lat="45.55953" lon="6.56586">
        <ele>2151</ele>
        <time>2014-01-31T10:34:56.000Z</time>
      </trkpt>
      <trkpt lat="45.55953" lon="6.56585">
        <ele>2151.1999511719</ele>
        <time>2014-01-31T10:34:57.000Z</time>
      </trkpt>
      <trkpt lat="45.55953" lon="6.56584">
        <ele>2151.3999023438</ele>
        <time>2014-01-31T10:34:58.000Z</time>
      </trkpt>
      <trkpt lat="45.55953" lon="6.56583">
        <ele>2151.6000976562</ele>
        <time>2014-01-31T10:34:59.000Z</time>
      </trkpt>
      <trkpt lat="45.55952" lon="6.56582">
        <ele>2151.6000976562</ele>
        <time>2014-01-31T10:35:00.000Z</time>
      </trkpt>
      <trkpt lat="45.55952" lon="6.56581">
        <ele>2151.8000488281</ele>
        <time>2014-01-31T10:35:01.000Z</time>
      </trkpt>
      <trkpt lat="45.55952" lon="6.56581">
        <ele>2152</ele>
        <time>2014-01-31T10:35:02.000Z</time>
      </trkpt>
      <trkpt lat="45.55952" lon="6.56581">
        <ele>2152</ele>
        <time>2014-01-31T10:35:03.000Z</time>
      </trkpt>
      <trkpt lat="45.55952" lon="6.56581">
        <ele>2152.1999511719</ele>
        <time>2014-01-31T10:35:04.000Z</time>
      </trkpt>
      <trkpt lat="45.55952" lon="6.56581">
        <ele>2152.1999511719</ele>
        <time>2014-01-31T10:35:05.000Z</time>
      </trkpt>
      <trkpt lat="45.55952" lon="6.56581">
        <ele>2152.1999511719</ele>
        <time>2014-01-31T10:35:06.000Z</time>
      </trkpt>
      <trkpt lat="45.55952" lon="6.56581">
        <ele>2152.1999511719</ele>
        <time>2014-01-31T10:35:07.000Z</time>
      </trkpt>
      <trkpt lat="45.55952" lon="6.56581">
        <ele>2152.3999023438</ele>
        <time>2014-01-31T10:35:09.000Z</time>
      </trkpt>
      <trkpt lat="45.55952" lon="6.56581">
        <ele>2152.3999023438</ele>
        <time>2014-01-31T10:35:10.000Z</time>
      </trkpt>
      <trkpt lat="45.55952" lon="6.56581">
        <ele>2152.6000976562</ele>
        <time>2014-01-31T10:35:11.000Z</time>
      </trkpt>
      <trkpt lat="45.55952" lon="6.56581">
        <ele>2152.6000976562</ele>
        <time>2014-01-31T10:35:12.000Z</time>
      </trkpt>
      <trkpt lat="45.55952" lon="6.56581">
        <ele>2152.6000976562</ele>
        <time>2014-01-31T10:35:13.000Z</time>
      </trkpt>
      <trkpt lat="45.55952" lon="6.56581">
        <ele>2152.6000976562</ele>
        <time>2014-01-31T10:35:14.000Z</time>
      </trkpt>
      <trkpt lat="45.55952" lon="6.56581">
        <ele>2152.3999023438</ele>
        <time>2014-01-31T10:35:15.000Z</time>
      </trkpt>
      <trkpt lat="45.55952" lon="6.56581">
        <ele>2152.1999511719</ele>
        <time>2014-01-31T10:35:16.000Z</time>
      </trkpt>
      <trkpt lat="45.55952" lon="6.56581">
        <ele>2152</ele>
        <time>2014-01-31T10:35:17.000Z</time>
      </trkpt>
      <trkpt lat="45.55952" lon="6.56581">
        <ele>2152</ele>
        <time>2014-01-31T10:35:18.000Z</time>
      </trkpt>
      <trkpt lat="45.55952" lon="6.56581">
        <ele>2151.8000488281</ele>
        <time>2014-01-31T10:35:19.000Z</time>
      </trkpt>
      <trkpt lat="45.55952" lon="6.56581">
        <ele>2151.8000488281</ele>
        <time>2014-01-31T10:35:20.000Z</time>
      </trkpt>
      <trkpt lat="45.55952" lon="6.56581">
        <ele>2151.8000488281</ele>
        <time>2014-01-31T10:35:21.000Z</time>
      </trkpt>
      <trkpt lat="45.55952" lon="6.56581">
        <ele>2151.6000976562</ele>
        <time>2014-01-31T10:35:22.000Z</time>
      </trkpt>
      <trkpt lat="45.55952" lon="6.56581">
        <ele>2151.6000976562</ele>
        <time>2014-01-31T10:35:23.000Z</time>
      </trkpt>
      <trkpt lat="45.55952" lon="6.56581">
        <ele>2151.6000976562</ele>
        <time>2014-01-31T10:35:24.000Z</time>
      </trkpt>
      <trkpt lat="45.55952" lon="6.56581">
        <ele>2151.6000976562</ele>
        <time>2014-01-31T10:35:25.000Z</time>
      </trkpt>
      <trkpt lat="45.55952" lon="6.56581">
        <ele>2151.6000976562</ele>
        <time>2014-01-31T10:35:26.000Z</time>
      </trkpt>
      <trkpt lat="45.55952" lon="6.56581">
        <ele>2151.6000976562</ele>
        <time>2014-01-31T10:35:27.000Z</time>
      </trkpt>
      <trkpt lat="45.55952" lon="6.56581">
        <ele>2151.8000488281</ele>
        <time>2014-01-31T10:35:28.000Z</time>
      </trkpt>
      <trkpt lat="45.55952" lon="6.5658">
        <ele>2151.8000488281</ele>
        <time>2014-01-31T10:35:29.000Z</time>
      </trkpt>
      <trkpt lat="45.55952" lon="6.5658">
        <ele>2152</ele>
        <time>2014-01-31T10:35:30.000Z</time>
      </trkpt>
      <trkpt lat="45.55952" lon="6.56579">
        <ele>2152</ele>
        <time>2014-01-31T10:35:31.000Z</time>
      </trkpt>
      <trkpt lat="45.55951" lon="6.56577">
        <ele>2152</ele>
        <time>2014-01-31T10:35:32.000Z</time>
      </trkpt>
      <trkpt lat="45.55951" lon="6.56577">
        <ele>2152.1999511719</ele>
        <time>2014-01-31T10:35:33.000Z</time>
      </trkpt>
      <trkpt lat="45.55951" lon="6.56575">
        <ele>2152.3999023438</ele>
        <time>2014-01-31T10:35:34.000Z</time>
      </trkpt>
      <trkpt lat="45.5595" lon="6.56573">
        <ele>2152.3999023438</ele>
        <time>2014-01-31T10:35:35.000Z</time>
      </trkpt>
      <trkpt lat="45.5595" lon="6.56572">
        <ele>2152.6000976562</ele>
        <time>2014-01-31T10:35:36.000Z</time>
      </trkpt>
      <trkpt lat="45.5595" lon="6.56571">
        <ele>2152.8000488281</ele>
        <time>2014-01-31T10:35:37.000Z</time>
      </trkpt>
      <trkpt lat="45.5595" lon="6.56569">
        <ele>2153</ele>
        <time>2014-01-31T10:35:38.000Z</time>
      </trkpt>
      <trkpt lat="45.5595" lon="6.56569">
        <ele>2153.1999511719</ele>
        <time>2014-01-31T10:35:39.000Z</time>
      </trkpt>
      <trkpt lat="45.55949" lon="6.56567">
        <ele>2153.3999023438</ele>
        <time>2014-01-31T10:35:40.000Z</time>
      </trkpt>
      <trkpt lat="45.55948" lon="6.56566">
        <ele>2153.6000976562</ele>
        <time>2014-01-31T10:35:41.000Z</time>
      </trkpt>
      <trkpt lat="45.55948" lon="6.56564">
        <ele>2153.8000488281</ele>
        <time>2014-01-31T10:35:42.000Z</time>
      </trkpt>
      <trkpt lat="45.55947" lon="6.56564">
        <ele>2153.8000488281</ele>
        <time>2014-01-31T10:35:43.000Z</time>
      </trkpt>
      <trkpt lat="45.55947" lon="6.56563">
        <ele>2154</ele>
        <time>2014-01-31T10:35:44.000Z</time>
      </trkpt>
      <trkpt lat="45.55946" lon="6.56562">
        <ele>2154</ele>
        <time>2014-01-31T10:35:45.000Z</time>
      </trkpt>
      <trkpt lat="45.55945" lon="6.5656">
        <ele>2154.1999511719</ele>
        <time>2014-01-31T10:35:46.000Z</time>
      </trkpt>
      <trkpt lat="45.55945" lon="6.56559">
        <ele>2154.3999023438</ele>
        <time>2014-01-31T10:35:47.000Z</time>
      </trkpt>
      <trkpt lat="45.55943" lon="6.56558">
        <ele>2154.6000976562</ele>
        <time>2014-01-31T10:35:48.000Z</time>
      </trkpt>
      <trkpt lat="45.55943" lon="6.56557">
        <ele>2154.6000976562</ele>
        <time>2014-01-31T10:35:49.000Z</time>
      </trkpt>
      <trkpt lat="45.55942" lon="6.56556">
        <ele>2154.6000976562</ele>
        <time>2014-01-31T10:35:50.000Z</time>
      </trkpt>
      <trkpt lat="45.55941" lon="6.56554">
        <ele>2154.6000976562</ele>
        <time>2014-01-31T10:35:51.000Z</time>
      </trkpt>
      <trkpt lat="45.5594" lon="6.56554">
        <ele>2154.8000488281</ele>
        <time>2014-01-31T10:35:52.000Z</time>
      </trkpt>
      <trkpt lat="45.5594" lon="6.56552">
        <ele>2154.8000488281</ele>
        <time>2014-01-31T10:35:53.000Z</time>
      </trkpt>
      <trkpt lat="45.5594" lon="6.5655">
        <ele>2155</ele>
        <time>2014-01-31T10:35:54.000Z</time>
      </trkpt>
      <trkpt lat="45.5594" lon="6.56548">
        <ele>2155</ele>
        <time>2014-01-31T10:35:55.000Z</time>
      </trkpt>
      <trkpt lat="45.55941" lon="6.56547">
        <ele>2155.1999511719</ele>
        <time>2014-01-31T10:35:56.000Z</time>
      </trkpt>
      <trkpt lat="45.55941" lon="6.56547">
        <ele>2155.3999023438</ele>
        <time>2014-01-31T10:35:57.000Z</time>
      </trkpt>
      <trkpt lat="45.55941" lon="6.56547">
        <ele>2155.3999023438</ele>
        <time>2014-01-31T10:35:58.000Z</time>
      </trkpt>
      <trkpt lat="45.55941" lon="6.56547">
        <ele>2155.6000976562</ele>
        <time>2014-01-31T10:35:59.000Z</time>
      </trkpt>
      <trkpt lat="45.55941" lon="6.56547">
        <ele>2155.6000976562</ele>
        <time>2014-01-31T10:36:00.000Z</time>
      </trkpt>
      <trkpt lat="45.55941" lon="6.56547">
        <ele>2155.6000976562</ele>
        <time>2014-01-31T10:36:01.000Z</time>
      </trkpt>
      <trkpt lat="45.55941" lon="6.56547">
        <ele>2155.6000976562</ele>
        <time>2014-01-31T10:36:02.000Z</time>
      </trkpt>
      <trkpt lat="45.55941" lon="6.56547">
        <ele>2155.6000976562</ele>
        <time>2014-01-31T10:36:03.000Z</time>
      </trkpt>
      <trkpt lat="45.55941" lon="6.56546">
        <ele>2155.6000976562</ele>
        <time>2014-01-31T10:36:04.000Z</time>
      </trkpt>
      <trkpt lat="45.55941" lon="6.56545">
        <ele>2155.6000976562</ele>
        <time>2014-01-31T10:36:05.000Z</time>
      </trkpt>
      <trkpt lat="45.5594" lon="6.56544">
        <ele>2155.6000976562</ele>
        <time>2014-01-31T10:36:06.000Z</time>
      </trkpt>
      <trkpt lat="45.5594" lon="6.56542">
        <ele>2155.6000976562</ele>
        <time>2014-01-31T10:36:07.000Z</time>
      </trkpt>
      <trkpt lat="45.55939" lon="6.5654">
        <ele>2155.6000976562</ele>
        <time>2014-01-31T10:36:08.000Z</time>
      </trkpt>
      <trkpt lat="45.55939" lon="6.5654">
        <ele>2155.6000976562</ele>
        <time>2014-01-31T10:36:09.000Z</time>
      </trkpt>
      <trkpt lat="45.55939" lon="6.56538">
        <ele>2155.8000488281</ele>
        <time>2014-01-31T10:36:10.000Z</time>
      </trkpt>
      <trkpt lat="45.55939" lon="6.56535">
        <ele>2155.8000488281</ele>
        <time>2014-01-31T10:36:11.000Z</time>
      </trkpt>
      <trkpt lat="45.55939" lon="6.56533">
        <ele>2155.8000488281</ele>
        <time>2014-01-31T10:36:12.000Z</time>
      </trkpt>
      <trkpt lat="45.55939" lon="6.56533">
        <ele>2156</ele>
        <time>2014-01-31T10:36:13.000Z</time>
      </trkpt>
      <trkpt lat="45.55939" lon="6.56533">
        <ele>2156</ele>
        <time>2014-01-31T10:36:14.000Z</time>
      </trkpt>
      <trkpt lat="45.55939" lon="6.56533">
        <ele>2156.1999511719</ele>
        <time>2014-01-31T10:36:15.000Z</time>
      </trkpt>
      <trkpt lat="45.55939" lon="6.56533">
        <ele>2156.3999023438</ele>
        <time>2014-01-31T10:36:16.000Z</time>
      </trkpt>
      <trkpt lat="45.55939" lon="6.56533">
        <ele>2156.8000488281</ele>
        <time>2014-01-31T10:36:17.000Z</time>
      </trkpt>
      <trkpt lat="45.55939" lon="6.56533">
        <ele>2157</ele>
        <time>2014-01-31T10:36:18.000Z</time>
      </trkpt>
      <trkpt lat="45.55939" lon="6.56533">
        <ele>2157</ele>
        <time>2014-01-31T10:36:19.000Z</time>
      </trkpt>
      <trkpt lat="45.55939" lon="6.56533">
        <ele>2157.1999511719</ele>
        <time>2014-01-31T10:36:20.000Z</time>
      </trkpt>
      <trkpt lat="45.55939" lon="6.56533">
        <ele>2157.1999511719</ele>
        <time>2014-01-31T10:36:21.000Z</time>
      </trkpt>
      <trkpt lat="45.55939" lon="6.56533">
        <ele>2157.1999511719</ele>
        <time>2014-01-31T10:36:22.000Z</time>
      </trkpt>
      <trkpt lat="45.55939" lon="6.56533">
        <ele>2157</ele>
        <time>2014-01-31T10:36:23.000Z</time>
      </trkpt>
      <trkpt lat="45.55939" lon="6.56533">
        <ele>2157</ele>
        <time>2014-01-31T10:36:24.000Z</time>
      </trkpt>
      <trkpt lat="45.55939" lon="6.56533">
        <ele>2157</ele>
        <time>2014-01-31T10:36:25.000Z</time>
      </trkpt>
      <trkpt lat="45.55939" lon="6.56533">
        <ele>2157</ele>
        <time>2014-01-31T10:36:26.000Z</time>
      </trkpt>
      <trkpt lat="45.55939" lon="6.56533">
        <ele>2157</ele>
        <time>2014-01-31T10:36:27.000Z</time>
      </trkpt>
      <trkpt lat="45.55939" lon="6.56533">
        <ele>2157</ele>
        <time>2014-01-31T10:36:28.000Z</time>
      </trkpt>
      <trkpt lat="45.55939" lon="6.56533">
        <ele>2157</ele>
        <time>2014-01-31T10:36:29.000Z</time>
      </trkpt>
      <trkpt lat="45.55939" lon="6.56533">
        <ele>2157</ele>
        <time>2014-01-31T10:36:30.000Z</time>
      </trkpt>
      <trkpt lat="45.55939" lon="6.56533">
        <ele>2157</ele>
        <time>2014-01-31T10:36:31.000Z</time>
      </trkpt>
      <trkpt lat="45.5594" lon="6.56532">
        <ele>2157</ele>
        <time>2014-01-31T10:36:32.000Z</time>
      </trkpt>
      <trkpt lat="45.5594" lon="6.56532">
        <ele>2157</ele>
        <time>2014-01-31T10:36:33.000Z</time>
      </trkpt>
      <trkpt lat="45.5594" lon="6.5653">
        <ele>2157</ele>
        <time>2014-01-31T10:36:34.000Z</time>
      </trkpt>
      <trkpt lat="45.55941" lon="6.56528">
        <ele>2157</ele>
        <time>2014-01-31T10:36:36.000Z</time>
      </trkpt>
      <trkpt lat="45.55941" lon="6.56527">
        <ele>2157.1999511719</ele>
        <time>2014-01-31T10:36:37.000Z</time>
      </trkpt>
      <trkpt lat="45.55941" lon="6.56527">
        <ele>2157.3999023438</ele>
        <time>2014-01-31T10:36:38.000Z</time>
      </trkpt>
      <trkpt lat="45.55941" lon="6.56524">
        <ele>2157.3999023438</ele>
        <time>2014-01-31T10:36:39.000Z</time>
      </trkpt>
      <trkpt lat="45.55941" lon="6.56525">
        <ele>2157.6000976562</ele>
        <time>2014-01-31T10:36:40.000Z</time>
      </trkpt>
      <trkpt lat="45.55941" lon="6.56524">
        <ele>2157.8000488281</ele>
        <time>2014-01-31T10:36:41.000Z</time>
      </trkpt>
      <trkpt lat="45.5594" lon="6.56522">
        <ele>2158</ele>
        <time>2014-01-31T10:36:42.000Z</time>
      </trkpt>
      <trkpt lat="45.5594" lon="6.56521">
        <ele>2158.1999511719</ele>
        <time>2014-01-31T10:36:43.000Z</time>
      </trkpt>
      <trkpt lat="45.5594" lon="6.56519">
        <ele>2158.3999023438</ele>
        <time>2014-01-31T10:36:44.000Z</time>
      </trkpt>
      <trkpt lat="45.5594" lon="6.56519">
        <ele>2158.6000976562</ele>
        <time>2014-01-31T10:36:45.000Z</time>
      </trkpt>
      <trkpt lat="45.55939" lon="6.56517">
        <ele>2159</ele>
        <time>2014-01-31T10:36:46.000Z</time>
      </trkpt>
      <trkpt lat="45.55939" lon="6.56517">
        <ele>2159.3999023438</ele>
        <time>2014-01-31T10:36:47.000Z</time>
      </trkpt>
      <trkpt lat="45.55938" lon="6.56516">
        <ele>2159.6000976562</ele>
        <time>2014-01-31T10:36:48.000Z</time>
      </trkpt>
      <trkpt lat="45.55938" lon="6.56514">
        <ele>2159.8000488281</ele>
        <time>2014-01-31T10:36:49.000Z</time>
      </trkpt>
      <trkpt lat="45.55938" lon="6.56514">
        <ele>2160</ele>
        <time>2014-01-31T10:36:50.000Z</time>
      </trkpt>
      <trkpt lat="45.55938" lon="6.56512">
        <ele>2160</ele>
        <time>2014-01-31T10:36:51.000Z</time>
      </trkpt>
      <trkpt lat="45.55938" lon="6.56512">
        <ele>2160.1999511719</ele>
        <time>2014-01-31T10:36:52.000Z</time>
      </trkpt>
      <trkpt lat="45.55937" lon="6.56509">
        <ele>2160.3999023438</ele>
        <time>2014-01-31T10:36:53.000Z</time>
      </trkpt>
      <trkpt lat="45.55937" lon="6.56509">
        <ele>2160.6000976562</ele>
        <time>2014-01-31T10:36:54.000Z</time>
      </trkpt>
      <trkpt lat="45.55937" lon="6.56509">
        <ele>2160.8000488281</ele>
        <time>2014-01-31T10:36:55.000Z</time>
      </trkpt>
      <trkpt lat="45.55937" lon="6.56508">
        <ele>2161.1999511719</ele>
        <time>2014-01-31T10:36:56.000Z</time>
      </trkpt>
      <trkpt lat="45.55936" lon="6.56507">
        <ele>2161.3999023438</ele>
        <time>2014-01-31T10:36:57.000Z</time>
      </trkpt>
      <trkpt lat="45.55935" lon="6.56505">
        <ele>2161.6000976562</ele>
        <time>2014-01-31T10:36:58.000Z</time>
      </trkpt>
      <trkpt lat="45.55935" lon="6.56505">
        <ele>2161.8000488281</ele>
        <time>2014-01-31T10:36:59.000Z</time>
      </trkpt>
      <trkpt lat="45.55935" lon="6.56505">
        <ele>2162</ele>
        <time>2014-01-31T10:37:00.000Z</time>
      </trkpt>
      <trkpt lat="45.55935" lon="6.56504">
        <ele>2162.1999511719</ele>
        <time>2014-01-31T10:37:01.000Z</time>
      </trkpt>
      <trkpt lat="45.55934" lon="6.56504">
        <ele>2162.1999511719</ele>
        <time>2014-01-31T10:37:02.000Z</time>
      </trkpt>
      <trkpt lat="45.55934" lon="6.56504">
        <ele>2162.3999023438</ele>
        <time>2014-01-31T10:37:03.000Z</time>
      </trkpt>
      <trkpt lat="45.55934" lon="6.56503">
        <ele>2162.3999023438</ele>
        <time>2014-01-31T10:37:04.000Z</time>
      </trkpt>
      <trkpt lat="45.55933" lon="6.56502">
        <ele>2162.6000976562</ele>
        <time>2014-01-31T10:37:05.000Z</time>
      </trkpt>
      <trkpt lat="45.55933" lon="6.56501">
        <ele>2162.8000488281</ele>
        <time>2014-01-31T10:37:06.000Z</time>
      </trkpt>
      <trkpt lat="45.55933" lon="6.56499">
        <ele>2163</ele>
        <time>2014-01-31T10:37:07.000Z</time>
      </trkpt>
      <trkpt lat="45.55933" lon="6.56497">
        <ele>2163.3999023438</ele>
        <time>2014-01-31T10:37:08.000Z</time>
      </trkpt>
      <trkpt lat="45.55932" lon="6.56496">
        <ele>2163.6000976562</ele>
        <time>2014-01-31T10:37:09.000Z</time>
      </trkpt>
      <trkpt lat="45.55932" lon="6.56495">
        <ele>2164.1999511719</ele>
        <time>2014-01-31T10:37:10.000Z</time>
      </trkpt>
      <trkpt lat="45.55932" lon="6.56494">
        <ele>2164.3999023438</ele>
        <time>2014-01-31T10:37:11.000Z</time>
      </trkpt>
      <trkpt lat="45.55932" lon="6.56493">
        <ele>2164.6000976562</ele>
        <time>2014-01-31T10:37:12.000Z</time>
      </trkpt>
      <trkpt lat="45.55932" lon="6.56493">
        <ele>2164.8000488281</ele>
        <time>2014-01-31T10:37:13.000Z</time>
      </trkpt>
      <trkpt lat="45.55932" lon="6.56492">
        <ele>2165</ele>
        <time>2014-01-31T10:37:14.000Z</time>
      </trkpt>
      <trkpt lat="45.55932" lon="6.56491">
        <ele>2165</ele>
        <time>2014-01-31T10:37:15.000Z</time>
      </trkpt>
      <trkpt lat="45.55932" lon="6.56489">
        <ele>2165.1999511719</ele>
        <time>2014-01-31T10:37:16.000Z</time>
      </trkpt>
      <trkpt lat="45.55931" lon="6.5649">
        <ele>2165.1999511719</ele>
        <time>2014-01-31T10:37:17.000Z</time>
      </trkpt>
      <trkpt lat="45.55931" lon="6.56489">
        <ele>2165.3999023438</ele>
        <time>2014-01-31T10:37:18.000Z</time>
      </trkpt>
      <trkpt lat="45.55931" lon="6.56489">
        <ele>2165.3999023438</ele>
        <time>2014-01-31T10:37:19.000Z</time>
      </trkpt>
      <trkpt lat="45.5593" lon="6.56488">
        <ele>2165.6000976562</ele>
        <time>2014-01-31T10:37:20.000Z</time>
      </trkpt>
      <trkpt lat="45.5593" lon="6.56488">
        <ele>2165.8000488281</ele>
        <time>2014-01-31T10:37:21.000Z</time>
      </trkpt>
      <trkpt lat="45.5593" lon="6.56487">
        <ele>2166</ele>
        <time>2014-01-31T10:37:22.000Z</time>
      </trkpt>
      <trkpt lat="45.55929" lon="6.56486">
        <ele>2166.3999023438</ele>
        <time>2014-01-31T10:37:23.000Z</time>
      </trkpt>
      <trkpt lat="45.55929" lon="6.56486">
        <ele>2166.3999023438</ele>
        <time>2014-01-31T10:37:24.000Z</time>
      </trkpt>
      <trkpt lat="45.55929" lon="6.56485">
        <ele>2166.6000976562</ele>
        <time>2014-01-31T10:37:25.000Z</time>
      </trkpt>
      <trkpt lat="45.55929" lon="6.56484">
        <ele>2166.8000488281</ele>
        <time>2014-01-31T10:37:26.000Z</time>
      </trkpt>
      <trkpt lat="45.55929" lon="6.56484">
        <ele>2167</ele>
        <time>2014-01-31T10:37:27.000Z</time>
      </trkpt>
      <trkpt lat="45.55929" lon="6.56484">
        <ele>2167.1999511719</ele>
        <time>2014-01-31T10:37:28.000Z</time>
      </trkpt>
      <trkpt lat="45.55929" lon="6.56483">
        <ele>2167.3999023438</ele>
        <time>2014-01-31T10:37:29.000Z</time>
      </trkpt>
      <trkpt lat="45.55929" lon="6.56483">
        <ele>2167.3999023438</ele>
        <time>2014-01-31T10:37:30.000Z</time>
      </trkpt>
      <trkpt lat="45.55929" lon="6.56482">
        <ele>2167.8000488281</ele>
        <time>2014-01-31T10:37:31.000Z</time>
      </trkpt>
      <trkpt lat="45.55929" lon="6.56482">
        <ele>2167.8000488281</ele>
        <time>2014-01-31T10:37:32.000Z</time>
      </trkpt>
      <trkpt lat="45.55929" lon="6.56481">
        <ele>2168</ele>
        <time>2014-01-31T10:37:33.000Z</time>
      </trkpt>
      <trkpt lat="45.55929" lon="6.56479">
        <ele>2168.6000976562</ele>
        <time>2014-01-31T10:37:34.000Z</time>
      </trkpt>
      <trkpt lat="45.55929" lon="6.56478">
        <ele>2168.6000976562</ele>
        <time>2014-01-31T10:37:35.000Z</time>
      </trkpt>
      <trkpt lat="45.55928" lon="6.56477">
        <ele>2168.8000488281</ele>
        <time>2014-01-31T10:37:36.000Z</time>
      </trkpt>
      <trkpt lat="45.55928" lon="6.56475">
        <ele>2169</ele>
        <time>2014-01-31T10:37:37.000Z</time>
      </trkpt>
      <trkpt lat="45.55928" lon="6.56474">
        <ele>2169.1999511719</ele>
        <time>2014-01-31T10:37:38.000Z</time>
      </trkpt>
      <trkpt lat="45.55928" lon="6.56471">
        <ele>2169.1999511719</ele>
        <time>2014-01-31T10:37:39.000Z</time>
      </trkpt>
      <trkpt lat="45.55928" lon="6.56471">
        <ele>2169.3999023438</ele>
        <time>2014-01-31T10:37:40.000Z</time>
      </trkpt>
      <trkpt lat="45.55928" lon="6.56469">
        <ele>2169.3999023438</ele>
        <time>2014-01-31T10:37:41.000Z</time>
      </trkpt>
      <trkpt lat="45.55928" lon="6.56469">
        <ele>2169.6000976562</ele>
        <time>2014-01-31T10:37:42.000Z</time>
      </trkpt>
      <trkpt lat="45.55928" lon="6.56468">
        <ele>2169.8000488281</ele>
        <time>2014-01-31T10:37:43.000Z</time>
      </trkpt>
      <trkpt lat="45.55928" lon="6.56467">
        <ele>2170</ele>
        <time>2014-01-31T10:37:44.000Z</time>
      </trkpt>
      <trkpt lat="45.55927" lon="6.56466">
        <ele>2170</ele>
        <time>2014-01-31T10:37:45.000Z</time>
      </trkpt>
      <trkpt lat="45.55927" lon="6.56465">
        <ele>2170.3999023438</ele>
        <time>2014-01-31T10:37:46.000Z</time>
      </trkpt>
      <trkpt lat="45.55927" lon="6.56464">
        <ele>2170.3999023438</ele>
        <time>2014-01-31T10:37:47.000Z</time>
      </trkpt>
      <trkpt lat="45.55927" lon="6.56462">
        <ele>2170.8000488281</ele>
        <time>2014-01-31T10:37:48.000Z</time>
      </trkpt>
      <trkpt lat="45.55927" lon="6.56461">
        <ele>2170.8000488281</ele>
        <time>2014-01-31T10:37:49.000Z</time>
      </trkpt>
      <trkpt lat="45.55927" lon="6.56459">
        <ele>2171</ele>
        <time>2014-01-31T10:37:50.000Z</time>
      </trkpt>
      <trkpt lat="45.55928" lon="6.56458">
        <ele>2171</ele>
        <time>2014-01-31T10:37:51.000Z</time>
      </trkpt>
      <trkpt lat="45.55927" lon="6.56456">
        <ele>2171.1999511719</ele>
        <time>2014-01-31T10:37:52.000Z</time>
      </trkpt>
      <trkpt lat="45.55927" lon="6.56456">
        <ele>2171.1999511719</ele>
        <time>2014-01-31T10:37:53.000Z</time>
      </trkpt>
      <trkpt lat="45.55927" lon="6.56455">
        <ele>2171.3999023438</ele>
        <time>2014-01-31T10:37:54.000Z</time>
      </trkpt>
      <trkpt lat="45.55927" lon="6.56454">
        <ele>2171.3999023438</ele>
        <time>2014-01-31T10:37:55.000Z</time>
      </trkpt>
      <trkpt lat="45.55927" lon="6.56454">
        <ele>2171.6000976562</ele>
        <time>2014-01-31T10:37:56.000Z</time>
      </trkpt>
      <trkpt lat="45.55926" lon="6.56453">
        <ele>2171.6000976562</ele>
        <time>2014-01-31T10:37:57.000Z</time>
      </trkpt>
      <trkpt lat="45.55926" lon="6.56452">
        <ele>2171.8000488281</ele>
        <time>2014-01-31T10:37:58.000Z</time>
      </trkpt>
      <trkpt lat="45.55926" lon="6.5645">
        <ele>2172</ele>
        <time>2014-01-31T10:37:59.000Z</time>
      </trkpt>
      <trkpt lat="45.55926" lon="6.56449">
        <ele>2172.1999511719</ele>
        <time>2014-01-31T10:38:00.000Z</time>
      </trkpt>
      <trkpt lat="45.55926" lon="6.56448">
        <ele>2172.1999511719</ele>
        <time>2014-01-31T10:38:01.000Z</time>
      </trkpt>
      <trkpt lat="45.55926" lon="6.56447">
        <ele>2172.6000976562</ele>
        <time>2014-01-31T10:38:02.000Z</time>
      </trkpt>
      <trkpt lat="45.55926" lon="6.56446">
        <ele>2172.6000976562</ele>
        <time>2014-01-31T10:38:03.000Z</time>
      </trkpt>
      <trkpt lat="45.55927" lon="6.56445">
        <ele>2172.8000488281</ele>
        <time>2014-01-31T10:38:04.000Z</time>
      </trkpt>
      <trkpt lat="45.55926" lon="6.56445">
        <ele>2173</ele>
        <time>2014-01-31T10:38:05.000Z</time>
      </trkpt>
      <trkpt lat="45.55926" lon="6.56445">
        <ele>2173.3999023438</ele>
        <time>2014-01-31T10:38:06.000Z</time>
      </trkpt>
      <trkpt lat="45.55926" lon="6.56445">
        <ele>2173.3999023438</ele>
        <time>2014-01-31T10:38:07.000Z</time>
      </trkpt>
      <trkpt lat="45.55925" lon="6.56444">
        <ele>2173.6000976562</ele>
        <time>2014-01-31T10:38:08.000Z</time>
      </trkpt>
      <trkpt lat="45.55924" lon="6.56443">
        <ele>2173.6000976562</ele>
        <time>2014-01-31T10:38:09.000Z</time>
      </trkpt>
      <trkpt lat="45.55924" lon="6.56441">
        <ele>2173.8000488281</ele>
        <time>2014-01-31T10:38:10.000Z</time>
      </trkpt>
      <trkpt lat="45.55923" lon="6.56441">
        <ele>2173.8000488281</ele>
        <time>2014-01-31T10:38:11.000Z</time>
      </trkpt>
      <trkpt lat="45.55923" lon="6.56441">
        <ele>2174</ele>
        <time>2014-01-31T10:38:12.000Z</time>
      </trkpt>
      <trkpt lat="45.55923" lon="6.5644">
        <ele>2174</ele>
        <time>2014-01-31T10:38:13.000Z</time>
      </trkpt>
      <trkpt lat="45.55923" lon="6.5644">
        <ele>2174</ele>
        <time>2014-01-31T10:38:14.000Z</time>
      </trkpt>
      <trkpt lat="45.55922" lon="6.56439">
        <ele>2174.1999511719</ele>
        <time>2014-01-31T10:38:15.000Z</time>
      </trkpt>
      <trkpt lat="45.55922" lon="6.56438">
        <ele>2174.3999023438</ele>
        <time>2014-01-31T10:38:16.000Z</time>
      </trkpt>
      <trkpt lat="45.55922" lon="6.56437">
        <ele>2174.6000976562</ele>
        <time>2014-01-31T10:38:17.000Z</time>
      </trkpt>
      <trkpt lat="45.55921" lon="6.56437">
        <ele>2174.6000976562</ele>
        <time>2014-01-31T10:38:18.000Z</time>
      </trkpt>
      <trkpt lat="45.55921" lon="6.56435">
        <ele>2175</ele>
        <time>2014-01-31T10:38:19.000Z</time>
      </trkpt>
      <trkpt lat="45.5592" lon="6.56435">
        <ele>2175</ele>
        <time>2014-01-31T10:38:20.000Z</time>
      </trkpt>
      <trkpt lat="45.5592" lon="6.56433">
        <ele>2175.1999511719</ele>
        <time>2014-01-31T10:38:21.000Z</time>
      </trkpt>
      <trkpt lat="45.5592" lon="6.56433">
        <ele>2175.6000976562</ele>
        <time>2014-01-31T10:38:22.000Z</time>
      </trkpt>
      <trkpt lat="45.55919" lon="6.5643">
        <ele>2175.3999023438</ele>
        <time>2014-01-31T10:38:23.000Z</time>
      </trkpt>
      <trkpt lat="45.55919" lon="6.56431">
        <ele>2175.8000488281</ele>
        <time>2014-01-31T10:38:24.000Z</time>
      </trkpt>
      <trkpt lat="45.55918" lon="6.56429">
        <ele>2175.8000488281</ele>
        <time>2014-01-31T10:38:25.000Z</time>
      </trkpt>
      <trkpt lat="45.55918" lon="6.56429">
        <ele>2176.1999511719</ele>
        <time>2014-01-31T10:38:26.000Z</time>
      </trkpt>
      <trkpt lat="45.55918" lon="6.56428">
        <ele>2176.1999511719</ele>
        <time>2014-01-31T10:38:27.000Z</time>
      </trkpt>
      <trkpt lat="45.55917" lon="6.56427">
        <ele>2176.6000976562</ele>
        <time>2014-01-31T10:38:28.000Z</time>
      </trkpt>
      <trkpt lat="45.55917" lon="6.56426">
        <ele>2176.3999023438</ele>
        <time>2014-01-31T10:38:29.000Z</time>
      </trkpt>
      <trkpt lat="45.55917" lon="6.56426">
        <ele>2176.6000976562</ele>
        <time>2014-01-31T10:38:30.000Z</time>
      </trkpt>
      <trkpt lat="45.55917" lon="6.56425">
        <ele>2177</ele>
        <time>2014-01-31T10:38:32.000Z</time>
      </trkpt>
      <trkpt lat="45.55916" lon="6.56424">
        <ele>2177.1999511719</ele>
        <time>2014-01-31T10:38:33.000Z</time>
      </trkpt>
      <trkpt lat="45.55916" lon="6.56421">
        <ele>2177.3999023438</ele>
        <time>2014-01-31T10:38:34.000Z</time>
      </trkpt>
      <trkpt lat="45.55915" lon="6.56422">
        <ele>2177.6000976562</ele>
        <time>2014-01-31T10:38:35.000Z</time>
      </trkpt>
      <trkpt lat="45.55915" lon="6.5642">
        <ele>2177.8000488281</ele>
        <time>2014-01-31T10:38:36.000Z</time>
      </trkpt>
      <trkpt lat="45.55914" lon="6.5642">
        <ele>2178</ele>
        <time>2014-01-31T10:38:37.000Z</time>
      </trkpt>
      <trkpt lat="45.55914" lon="6.5642">
        <ele>2178</ele>
        <time>2014-01-31T10:38:38.000Z</time>
      </trkpt>
      <trkpt lat="45.55914" lon="6.56419">
        <ele>2178.1999511719</ele>
        <time>2014-01-31T10:38:39.000Z</time>
      </trkpt>
      <trkpt lat="45.55914" lon="6.56418">
        <ele>2178.1999511719</ele>
        <time>2014-01-31T10:38:40.000Z</time>
      </trkpt>
      <trkpt lat="45.55913" lon="6.56417">
        <ele>2178.1999511719</ele>
        <time>2014-01-31T10:38:41.000Z</time>
      </trkpt>
      <trkpt lat="45.55913" lon="6.56417">
        <ele>2178.3999023438</ele>
        <time>2014-01-31T10:38:42.000Z</time>
      </trkpt>
      <trkpt lat="45.55913" lon="6.56414">
        <ele>2178.3999023438</ele>
        <time>2014-01-31T10:38:43.000Z</time>
      </trkpt>
      <trkpt lat="45.55913" lon="6.56413">
        <ele>2178.6000976562</ele>
        <time>2014-01-31T10:38:44.000Z</time>
      </trkpt>
      <trkpt lat="45.55913" lon="6.56411">
        <ele>2178.8000488281</ele>
        <time>2014-01-31T10:38:45.000Z</time>
      </trkpt>
      <trkpt lat="45.55913" lon="6.5641">
        <ele>2179.1999511719</ele>
        <time>2014-01-31T10:38:46.000Z</time>
      </trkpt>
      <trkpt lat="45.55913" lon="6.56409">
        <ele>2179.3999023438</ele>
        <time>2014-01-31T10:38:47.000Z</time>
      </trkpt>
      <trkpt lat="45.55913" lon="6.56409">
        <ele>2179.8000488281</ele>
        <time>2014-01-31T10:38:48.000Z</time>
      </trkpt>
      <trkpt lat="45.55913" lon="6.56407">
        <ele>2179.8000488281</ele>
        <time>2014-01-31T10:38:49.000Z</time>
      </trkpt>
      <trkpt lat="45.55913" lon="6.56407">
        <ele>2180</ele>
        <time>2014-01-31T10:38:50.000Z</time>
      </trkpt>
      <trkpt lat="45.55912" lon="6.56407">
        <ele>2180</ele>
        <time>2014-01-31T10:38:51.000Z</time>
      </trkpt>
      <trkpt lat="45.55912" lon="6.56406">
        <ele>2180.1999511719</ele>
        <time>2014-01-31T10:38:52.000Z</time>
      </trkpt>
      <trkpt lat="45.55912" lon="6.56405">
        <ele>2180.1999511719</ele>
        <time>2014-01-31T10:38:53.000Z</time>
      </trkpt>
      <trkpt lat="45.55913" lon="6.56403">
        <ele>2180.3999023438</ele>
        <time>2014-01-31T10:38:54.000Z</time>
      </trkpt>
      <trkpt lat="45.55913" lon="6.56403">
        <ele>2180.3999023438</ele>
        <time>2014-01-31T10:38:55.000Z</time>
      </trkpt>
      <trkpt lat="45.55912" lon="6.56401">
        <ele>2180.6000976562</ele>
        <time>2014-01-31T10:38:56.000Z</time>
      </trkpt>
      <trkpt lat="45.55913" lon="6.564">
        <ele>2180.6000976562</ele>
        <time>2014-01-31T10:38:57.000Z</time>
      </trkpt>
      <trkpt lat="45.55912" lon="6.56399">
        <ele>2180.8000488281</ele>
        <time>2014-01-31T10:38:58.000Z</time>
      </trkpt>
      <trkpt lat="45.55913" lon="6.56397">
        <ele>2181</ele>
        <time>2014-01-31T10:38:59.000Z</time>
      </trkpt>
      <trkpt lat="45.55913" lon="6.56397">
        <ele>2181.3999023438</ele>
        <time>2014-01-31T10:39:00.000Z</time>
      </trkpt>
      <trkpt lat="45.55913" lon="6.56396">
        <ele>2181.6000976562</ele>
        <time>2014-01-31T10:39:01.000Z</time>
      </trkpt>
      <trkpt lat="45.55912" lon="6.56396">
        <ele>2181.8000488281</ele>
        <time>2014-01-31T10:39:02.000Z</time>
      </trkpt>
      <trkpt lat="45.55912" lon="6.56396">
        <ele>2182</ele>
        <time>2014-01-31T10:39:03.000Z</time>
      </trkpt>
      <trkpt lat="45.55912" lon="6.56396">
        <ele>2182</ele>
        <time>2014-01-31T10:39:04.000Z</time>
      </trkpt>
      <trkpt lat="45.55912" lon="6.56396">
        <ele>2182.1999511719</ele>
        <time>2014-01-31T10:39:05.000Z</time>
      </trkpt>
      <trkpt lat="45.55912" lon="6.56396">
        <ele>2182.3999023438</ele>
        <time>2014-01-31T10:39:06.000Z</time>
      </trkpt>
      <trkpt lat="45.55912" lon="6.56396">
        <ele>2182.6000976562</ele>
        <time>2014-01-31T10:39:07.000Z</time>
      </trkpt>
      <trkpt lat="45.55912" lon="6.56396">
        <ele>2182.6000976562</ele>
        <time>2014-01-31T10:39:08.000Z</time>
      </trkpt>
      <trkpt lat="45.55912" lon="6.56396">
        <ele>2182.8000488281</ele>
        <time>2014-01-31T10:39:09.000Z</time>
      </trkpt>
      <trkpt lat="45.55912" lon="6.56396">
        <ele>2183.1999511719</ele>
        <time>2014-01-31T10:39:10.000Z</time>
      </trkpt>
      <trkpt lat="45.55912" lon="6.56396">
        <ele>2183.3999023438</ele>
        <time>2014-01-31T10:39:11.000Z</time>
      </trkpt>
      <trkpt lat="45.55911" lon="6.56396">
        <ele>2183.3999023438</ele>
        <time>2014-01-31T10:39:12.000Z</time>
      </trkpt>
      <trkpt lat="45.55911" lon="6.56396">
        <ele>2183.6000976562</ele>
        <time>2014-01-31T10:39:13.000Z</time>
      </trkpt>
      <trkpt lat="45.55911" lon="6.56396">
        <ele>2183.6000976562</ele>
        <time>2014-01-31T10:39:14.000Z</time>
      </trkpt>
      <trkpt lat="45.55911" lon="6.56396">
        <ele>2183.6000976562</ele>
        <time>2014-01-31T10:39:15.000Z</time>
      </trkpt>
      <trkpt lat="45.55911" lon="6.56396">
        <ele>2183.3999023438</ele>
        <time>2014-01-31T10:39:16.000Z</time>
      </trkpt>
      <trkpt lat="45.55911" lon="6.56396">
        <ele>2183.3999023438</ele>
        <time>2014-01-31T10:39:17.000Z</time>
      </trkpt>
      <trkpt lat="45.55911" lon="6.56396">
        <ele>2183.1999511719</ele>
        <time>2014-01-31T10:39:18.000Z</time>
      </trkpt>
      <trkpt lat="45.55911" lon="6.56396">
        <ele>2183.1999511719</ele>
        <time>2014-01-31T10:39:19.000Z</time>
      </trkpt>
      <trkpt lat="45.55911" lon="6.56396">
        <ele>2183.1999511719</ele>
        <time>2014-01-31T10:39:20.000Z</time>
      </trkpt>
      <trkpt lat="45.5591" lon="6.56395">
        <ele>2183.1999511719</ele>
        <time>2014-01-31T10:39:24.000Z</time>
      </trkpt>
      <trkpt lat="45.55909" lon="6.56393">
        <ele>2183</ele>
        <time>2014-01-31T10:39:25.000Z</time>
      </trkpt>
      <trkpt lat="45.55909" lon="6.56393">
        <ele>2183</ele>
        <time>2014-01-31T10:39:26.000Z</time>
      </trkpt>
      <trkpt lat="45.55909" lon="6.56393">
        <ele>2183</ele>
        <time>2014-01-31T10:39:27.000Z</time>
      </trkpt>
      <trkpt lat="45.55909" lon="6.56393">
        <ele>2183.1999511719</ele>
        <time>2014-01-31T10:39:29.000Z</time>
      </trkpt>
      <trkpt lat="45.55909" lon="6.56393">
        <ele>2183.1999511719</ele>
        <time>2014-01-31T10:39:30.000Z</time>
      </trkpt>
      <trkpt lat="45.55908" lon="6.56391">
        <ele>2183.3999023438</ele>
        <time>2014-01-31T10:39:31.000Z</time>
      </trkpt>
      <trkpt lat="45.55908" lon="6.5639">
        <ele>2183.6000976562</ele>
        <time>2014-01-31T10:39:32.000Z</time>
      </trkpt>
      <trkpt lat="45.55908" lon="6.5639">
        <ele>2183.6000976562</ele>
        <time>2014-01-31T10:39:33.000Z</time>
      </trkpt>
      <trkpt lat="45.55907" lon="6.56388">
        <ele>2183.6000976562</ele>
        <time>2014-01-31T10:39:34.000Z</time>
      </trkpt>
      <trkpt lat="45.55907" lon="6.56388">
        <ele>2183.6000976562</ele>
        <time>2014-01-31T10:39:35.000Z</time>
      </trkpt>
      <trkpt lat="45.55906" lon="6.56386">
        <ele>2183.8000488281</ele>
        <time>2014-01-31T10:39:36.000Z</time>
      </trkpt>
      <trkpt lat="45.55906" lon="6.56385">
        <ele>2184.1999511719</ele>
        <time>2014-01-31T10:39:37.000Z</time>
      </trkpt>
      <trkpt lat="45.55906" lon="6.56385">
        <ele>2184.3999023438</ele>
        <time>2014-01-31T10:39:38.000Z</time>
      </trkpt>
      <trkpt lat="45.55905" lon="6.56383">
        <ele>2184.8000488281</ele>
        <time>2014-01-31T10:39:39.000Z</time>
      </trkpt>
      <trkpt lat="45.55905" lon="6.56383">
        <ele>2185</ele>
        <time>2014-01-31T10:39:40.000Z</time>
      </trkpt>
      <trkpt lat="45.55905" lon="6.56381">
        <ele>2185</ele>
        <time>2014-01-31T10:39:41.000Z</time>
      </trkpt>
      <trkpt lat="45.55905" lon="6.56381">
        <ele>2185.1999511719</ele>
        <time>2014-01-31T10:39:42.000Z</time>
      </trkpt>
      <trkpt lat="45.55905" lon="6.56381">
        <ele>2185.3999023438</ele>
        <time>2014-01-31T10:39:43.000Z</time>
      </trkpt>
      <trkpt lat="45.55905" lon="6.56379">
        <ele>2185.8000488281</ele>
        <time>2014-01-31T10:39:44.000Z</time>
      </trkpt>
      <trkpt lat="45.55905" lon="6.56379">
        <ele>2186</ele>
        <time>2014-01-31T10:39:45.000Z</time>
      </trkpt>
      <trkpt lat="45.55906" lon="6.56377">
        <ele>2186.3999023438</ele>
        <time>2014-01-31T10:39:46.000Z</time>
      </trkpt>
      <trkpt lat="45.55906" lon="6.56377">
        <ele>2186.6000976562</ele>
        <time>2014-01-31T10:39:47.000Z</time>
      </trkpt>
      <trkpt lat="45.55905" lon="6.56375">
        <ele>2186.8000488281</ele>
        <time>2014-01-31T10:39:48.000Z</time>
      </trkpt>
      <trkpt lat="45.55905" lon="6.56375">
        <ele>2186.8000488281</ele>
        <time>2014-01-31T10:39:49.000Z</time>
      </trkpt>
      <trkpt lat="45.55905" lon="6.56375">
        <ele>2186.8000488281</ele>
        <time>2014-01-31T10:39:50.000Z</time>
      </trkpt>
      <trkpt lat="45.55905" lon="6.56373">
        <ele>2187</ele>
        <time>2014-01-31T10:39:51.000Z</time>
      </trkpt>
      <trkpt lat="45.55905" lon="6.56373">
        <ele>2187</ele>
        <time>2014-01-31T10:39:52.000Z</time>
      </trkpt>
      <trkpt lat="45.55905" lon="6.56371">
        <ele>2187.3999023438</ele>
        <time>2014-01-31T10:39:53.000Z</time>
      </trkpt>
      <trkpt lat="45.55905" lon="6.56371">
        <ele>2187.6000976562</ele>
        <time>2014-01-31T10:39:54.000Z</time>
      </trkpt>
      <trkpt lat="45.55905" lon="6.56369">
        <ele>2188</ele>
        <time>2014-01-31T10:39:55.000Z</time>
      </trkpt>
      <trkpt lat="45.55905" lon="6.5637">
        <ele>2188.1999511719</ele>
        <time>2014-01-31T10:39:56.000Z</time>
      </trkpt>
      <trkpt lat="45.55905" lon="6.56369">
        <ele>2188.3999023438</ele>
        <time>2014-01-31T10:39:57.000Z</time>
      </trkpt>
      <trkpt lat="45.55905" lon="6.56368">
        <ele>2188.8000488281</ele>
        <time>2014-01-31T10:39:58.000Z</time>
      </trkpt>
      <trkpt lat="45.55905" lon="6.56367">
        <ele>2188.8000488281</ele>
        <time>2014-01-31T10:39:59.000Z</time>
      </trkpt>
      <trkpt lat="45.55905" lon="6.56366">
        <ele>2189</ele>
        <time>2014-01-31T10:40:00.000Z</time>
      </trkpt>
      <trkpt lat="45.55905" lon="6.56365">
        <ele>2189</ele>
        <time>2014-01-31T10:40:01.000Z</time>
      </trkpt>
      <trkpt lat="45.55905" lon="6.56363">
        <ele>2189.1999511719</ele>
        <time>2014-01-31T10:40:02.000Z</time>
      </trkpt>
      <trkpt lat="45.55905" lon="6.56363">
        <ele>2189.3999023438</ele>
        <time>2014-01-31T10:40:03.000Z</time>
      </trkpt>
      <trkpt lat="45.55906" lon="6.56362">
        <ele>2189.6000976562</ele>
        <time>2014-01-31T10:40:04.000Z</time>
      </trkpt>
      <trkpt lat="45.55906" lon="6.56362">
        <ele>2189.8000488281</ele>
        <time>2014-01-31T10:40:05.000Z</time>
      </trkpt>
      <trkpt lat="45.55906" lon="6.5636">
        <ele>2190</ele>
        <time>2014-01-31T10:40:06.000Z</time>
      </trkpt>
      <trkpt lat="45.55907" lon="6.5636">
        <ele>2190.1999511719</ele>
        <time>2014-01-31T10:40:07.000Z</time>
      </trkpt>
      <trkpt lat="45.55907" lon="6.56358">
        <ele>2190</ele>
        <time>2014-01-31T10:40:08.000Z</time>
      </trkpt>
      <trkpt lat="45.55907" lon="6.56358">
        <ele>2190</ele>
        <time>2014-01-31T10:40:09.000Z</time>
      </trkpt>
      <trkpt lat="45.55907" lon="6.56356">
        <ele>2190</ele>
        <time>2014-01-31T10:40:10.000Z</time>
      </trkpt>
      <trkpt lat="45.55907" lon="6.56356">
        <ele>2190</ele>
        <time>2014-01-31T10:40:11.000Z</time>
      </trkpt>
      <trkpt lat="45.55907" lon="6.56354">
        <ele>2190</ele>
        <time>2014-01-31T10:40:12.000Z</time>
      </trkpt>
      <trkpt lat="45.55907" lon="6.56354">
        <ele>2190.1999511719</ele>
        <time>2014-01-31T10:40:13.000Z</time>
      </trkpt>
      <trkpt lat="45.55907" lon="6.56353">
        <ele>2190.3999023438</ele>
        <time>2014-01-31T10:40:14.000Z</time>
      </trkpt>
      <trkpt lat="45.55907" lon="6.56353">
        <ele>2190.8000488281</ele>
        <time>2014-01-31T10:40:15.000Z</time>
      </trkpt>
      <trkpt lat="45.55907" lon="6.56353">
        <ele>2191</ele>
        <time>2014-01-31T10:40:16.000Z</time>
      </trkpt>
      <trkpt lat="45.55907" lon="6.56352">
        <ele>2191.3999023438</ele>
        <time>2014-01-31T10:40:17.000Z</time>
      </trkpt>
      <trkpt lat="45.55907" lon="6.56351">
        <ele>2191.6000976562</ele>
        <time>2014-01-31T10:40:18.000Z</time>
      </trkpt>
      <trkpt lat="45.55907" lon="6.5635">
        <ele>2192</ele>
        <time>2014-01-31T10:40:19.000Z</time>
      </trkpt>
      <trkpt lat="45.55908" lon="6.56349">
        <ele>2192</ele>
        <time>2014-01-31T10:40:20.000Z</time>
      </trkpt>
      <trkpt lat="45.55908" lon="6.56347">
        <ele>2192.3999023438</ele>
        <time>2014-01-31T10:40:21.000Z</time>
      </trkpt>
      <trkpt lat="45.55908" lon="6.56348">
        <ele>2192.8000488281</ele>
        <time>2014-01-31T10:40:22.000Z</time>
      </trkpt>
      <trkpt lat="45.55909" lon="6.56346">
        <ele>2192.6000976562</ele>
        <time>2014-01-31T10:40:23.000Z</time>
      </trkpt>
      <trkpt lat="45.55909" lon="6.56346">
        <ele>2193</ele>
        <time>2014-01-31T10:40:24.000Z</time>
      </trkpt>
      <trkpt lat="45.55909" lon="6.56344">
        <ele>2193</ele>
        <time>2014-01-31T10:40:25.000Z</time>
      </trkpt>
      <trkpt lat="45.55909" lon="6.56345">
        <ele>2193.3999023438</ele>
        <time>2014-01-31T10:40:26.000Z</time>
      </trkpt>
      <trkpt lat="45.5591" lon="6.56343">
        <ele>2193.3999023438</ele>
        <time>2014-01-31T10:40:27.000Z</time>
      </trkpt>
      <trkpt lat="45.5591" lon="6.56343">
        <ele>2193.8000488281</ele>
        <time>2014-01-31T10:40:28.000Z</time>
      </trkpt>
      <trkpt lat="45.5591" lon="6.56342">
        <ele>2193.6000976562</ele>
        <time>2014-01-31T10:40:29.000Z</time>
      </trkpt>
      <trkpt lat="45.5591" lon="6.56342">
        <ele>2194</ele>
        <time>2014-01-31T10:40:30.000Z</time>
      </trkpt>
      <trkpt lat="45.55911" lon="6.56341">
        <ele>2194</ele>
        <time>2014-01-31T10:40:31.000Z</time>
      </trkpt>
      <trkpt lat="45.55911" lon="6.5634">
        <ele>2194.1999511719</ele>
        <time>2014-01-31T10:40:32.000Z</time>
      </trkpt>
      <trkpt lat="45.55911" lon="6.56339">
        <ele>2194.3999023438</ele>
        <time>2014-01-31T10:40:33.000Z</time>
      </trkpt>
      <trkpt lat="45.55911" lon="6.56337">
        <ele>2194.6000976562</ele>
        <time>2014-01-31T10:40:34.000Z</time>
      </trkpt>
      <trkpt lat="45.55912" lon="6.56336">
        <ele>2194.8000488281</ele>
        <time>2014-01-31T10:40:35.000Z</time>
      </trkpt>
      <trkpt lat="45.55913" lon="6.56335">
        <ele>2195</ele>
        <time>2014-01-31T10:40:36.000Z</time>
      </trkpt>
      <trkpt lat="45.55913" lon="6.56335">
        <ele>2195</ele>
        <time>2014-01-31T10:40:37.000Z</time>
      </trkpt>
      <trkpt lat="45.55913" lon="6.56334">
        <ele>2195.1999511719</ele>
        <time>2014-01-31T10:40:38.000Z</time>
      </trkpt>
      <trkpt lat="45.55913" lon="6.56333">
        <ele>2195.3999023438</ele>
        <time>2014-01-31T10:40:39.000Z</time>
      </trkpt>
      <trkpt lat="45.55913" lon="6.56332">
        <ele>2195.3999023438</ele>
        <time>2014-01-31T10:40:40.000Z</time>
      </trkpt>
      <trkpt lat="45.55913" lon="6.56331">
        <ele>2195.6000976562</ele>
        <time>2014-01-31T10:40:41.000Z</time>
      </trkpt>
      <trkpt lat="45.55913" lon="6.5633">
        <ele>2195.6000976562</ele>
        <time>2014-01-31T10:40:42.000Z</time>
      </trkpt>
      <trkpt lat="45.55913" lon="6.5633">
        <ele>2196</ele>
        <time>2014-01-31T10:40:43.000Z</time>
      </trkpt>
      <trkpt lat="45.55913" lon="6.56329">
        <ele>2196.1999511719</ele>
        <time>2014-01-31T10:40:44.000Z</time>
      </trkpt>
      <trkpt lat="45.55914" lon="6.56328">
        <ele>2196.6000976562</ele>
        <time>2014-01-31T10:40:45.000Z</time>
      </trkpt>
      <trkpt lat="45.55913" lon="6.56327">
        <ele>2197</ele>
        <time>2014-01-31T10:40:46.000Z</time>
      </trkpt>
      <trkpt lat="45.55914" lon="6.56327">
        <ele>2197</ele>
        <time>2014-01-31T10:40:47.000Z</time>
      </trkpt>
      <trkpt lat="45.55914" lon="6.56326">
        <ele>2197.1999511719</ele>
        <time>2014-01-31T10:40:48.000Z</time>
      </trkpt>
      <trkpt lat="45.55914" lon="6.56325">
        <ele>2197.3999023438</ele>
        <time>2014-01-31T10:40:49.000Z</time>
      </trkpt>
      <trkpt lat="45.55914" lon="6.56324">
        <ele>2197.3999023438</ele>
        <time>2014-01-31T10:40:50.000Z</time>
      </trkpt>
      <trkpt lat="45.55915" lon="6.56323">
        <ele>2197.6000976562</ele>
        <time>2014-01-31T10:40:51.000Z</time>
      </trkpt>
      <trkpt lat="45.55915" lon="6.56321">
        <ele>2197.8000488281</ele>
        <time>2014-01-31T10:40:52.000Z</time>
      </trkpt>
      <trkpt lat="45.55915" lon="6.56321">
        <ele>2197.8000488281</ele>
        <time>2014-01-31T10:40:53.000Z</time>
      </trkpt>
      <trkpt lat="45.55915" lon="6.56319">
        <ele>2198</ele>
        <time>2014-01-31T10:40:54.000Z</time>
      </trkpt>
      <trkpt lat="45.55915" lon="6.56319">
        <ele>2198.1999511719</ele>
        <time>2014-01-31T10:40:55.000Z</time>
      </trkpt>
      <trkpt lat="45.55915" lon="6.56317">
        <ele>2198.3999023438</ele>
        <time>2014-01-31T10:40:56.000Z</time>
      </trkpt>
      <trkpt lat="45.55915" lon="6.56317">
        <ele>2198.8000488281</ele>
        <time>2014-01-31T10:40:57.000Z</time>
      </trkpt>
      <trkpt lat="45.55915" lon="6.56317">
        <ele>2198.8000488281</ele>
        <time>2014-01-31T10:40:58.000Z</time>
      </trkpt>
      <trkpt lat="45.55915" lon="6.56317">
        <ele>2199.1999511719</ele>
        <time>2014-01-31T10:40:59.000Z</time>
      </trkpt>
      <trkpt lat="45.55916" lon="6.56316">
        <ele>2199.3999023438</ele>
        <time>2014-01-31T10:41:00.000Z</time>
      </trkpt>
      <trkpt lat="45.55915" lon="6.56316">
        <ele>2199.6000976562</ele>
        <time>2014-01-31T10:41:01.000Z</time>
      </trkpt>
      <trkpt lat="45.55915" lon="6.56315">
        <ele>2199.8000488281</ele>
        <time>2014-01-31T10:41:02.000Z</time>
      </trkpt>
      <trkpt lat="45.55915" lon="6.56314">
        <ele>2200</ele>
        <time>2014-01-31T10:41:03.000Z</time>
      </trkpt>
      <trkpt lat="45.55915" lon="6.56314">
        <ele>2200</ele>
        <time>2014-01-31T10:41:04.000Z</time>
      </trkpt>
      <trkpt lat="45.55915" lon="6.56313">
        <ele>2200.3999023438</ele>
        <time>2014-01-31T10:41:05.000Z</time>
      </trkpt>
      <trkpt lat="45.55915" lon="6.56313">
        <ele>2200.3999023438</ele>
        <time>2014-01-31T10:41:06.000Z</time>
      </trkpt>
      <trkpt lat="45.55916" lon="6.56313">
        <ele>2200.8000488281</ele>
        <time>2014-01-31T10:41:07.000Z</time>
      </trkpt>
      <trkpt lat="45.55916" lon="6.56311">
        <ele>2201.1999511719</ele>
        <time>2014-01-31T10:41:09.000Z</time>
      </trkpt>
      <trkpt lat="45.55916" lon="6.5631">
        <ele>2201.3999023438</ele>
        <time>2014-01-31T10:41:10.000Z</time>
      </trkpt>
      <trkpt lat="45.55916" lon="6.56308">
        <ele>2201.3999023438</ele>
        <time>2014-01-31T10:41:11.000Z</time>
      </trkpt>
      <trkpt lat="45.55916" lon="6.56308">
        <ele>2201.6000976562</ele>
        <time>2014-01-31T10:41:12.000Z</time>
      </trkpt>
      <trkpt lat="45.55916" lon="6.56306">
        <ele>2201.6000976562</ele>
        <time>2014-01-31T10:41:13.000Z</time>
      </trkpt>
      <trkpt lat="45.55916" lon="6.56306">
        <ele>2202</ele>
        <time>2014-01-31T10:41:14.000Z</time>
      </trkpt>
      <trkpt lat="45.55916" lon="6.56304">
        <ele>2201.8000488281</ele>
        <time>2014-01-31T10:41:15.000Z</time>
      </trkpt>
      <trkpt lat="45.55916" lon="6.56304">
        <ele>2202.1999511719</ele>
        <time>2014-01-31T10:41:16.000Z</time>
      </trkpt>
      <trkpt lat="45.55916" lon="6.56302">
        <ele>2202</ele>
        <time>2014-01-31T10:41:17.000Z</time>
      </trkpt>
      <trkpt lat="45.55916" lon="6.56302">
        <ele>2202.3999023438</ele>
        <time>2014-01-31T10:41:18.000Z</time>
      </trkpt>
      <trkpt lat="45.55917" lon="6.563">
        <ele>2202.1999511719</ele>
        <time>2014-01-31T10:41:19.000Z</time>
      </trkpt>
      <trkpt lat="45.55917" lon="6.563">
        <ele>2202.6000976562</ele>
        <time>2014-01-31T10:41:20.000Z</time>
      </trkpt>
      <trkpt lat="45.55917" lon="6.563">
        <ele>2202.6000976562</ele>
        <time>2014-01-31T10:41:21.000Z</time>
      </trkpt>
      <trkpt lat="45.55918" lon="6.56299">
        <ele>2203</ele>
        <time>2014-01-31T10:41:22.000Z</time>
      </trkpt>
      <trkpt lat="45.55918" lon="6.56299">
        <ele>2203</ele>
        <time>2014-01-31T10:41:23.000Z</time>
      </trkpt>
      <trkpt lat="45.55918" lon="6.56298">
        <ele>2203.3999023438</ele>
        <time>2014-01-31T10:41:24.000Z</time>
      </trkpt>
      <trkpt lat="45.55918" lon="6.56297">
        <ele>2203.3999023438</ele>
        <time>2014-01-31T10:41:25.000Z</time>
      </trkpt>
      <trkpt lat="45.55918" lon="6.56296">
        <ele>2203.8000488281</ele>
        <time>2014-01-31T10:41:26.000Z</time>
      </trkpt>
      <trkpt lat="45.55918" lon="6.56295">
        <ele>2204</ele>
        <time>2014-01-31T10:41:27.000Z</time>
      </trkpt>
      <trkpt lat="45.55918" lon="6.56295">
        <ele>2204.3999023438</ele>
        <time>2014-01-31T10:41:28.000Z</time>
      </trkpt>
      <trkpt lat="45.55918" lon="6.56295">
        <ele>2204.1999511719</ele>
        <time>2014-01-31T10:41:29.000Z</time>
      </trkpt>
      <trkpt lat="45.55918" lon="6.56294">
        <ele>2204.6000976562</ele>
        <time>2014-01-31T10:41:30.000Z</time>
      </trkpt>
      <trkpt lat="45.55918" lon="6.56294">
        <ele>2204.6000976562</ele>
        <time>2014-01-31T10:41:31.000Z</time>
      </trkpt>
      <trkpt lat="45.55918" lon="6.56293">
        <ele>2204.8000488281</ele>
        <time>2014-01-31T10:41:32.000Z</time>
      </trkpt>
      <trkpt lat="45.55918" lon="6.56293">
        <ele>2204.8000488281</ele>
        <time>2014-01-31T10:41:33.000Z</time>
      </trkpt>
      <trkpt lat="45.55918" lon="6.56292">
        <ele>2205</ele>
        <time>2014-01-31T10:41:34.000Z</time>
      </trkpt>
      <trkpt lat="45.55918" lon="6.56292">
        <ele>2205.1999511719</ele>
        <time>2014-01-31T10:41:35.000Z</time>
      </trkpt>
      <trkpt lat="45.55918" lon="6.5629">
        <ele>2205.1999511719</ele>
        <time>2014-01-31T10:41:36.000Z</time>
      </trkpt>
      <trkpt lat="45.55919" lon="6.56289">
        <ele>2205.1999511719</ele>
        <time>2014-01-31T10:41:37.000Z</time>
      </trkpt>
      <trkpt lat="45.55918" lon="6.56289">
        <ele>2205.1999511719</ele>
        <time>2014-01-31T10:41:38.000Z</time>
      </trkpt>
      <trkpt lat="45.55918" lon="6.56289">
        <ele>2205.3999023438</ele>
        <time>2014-01-31T10:41:39.000Z</time>
      </trkpt>
      <trkpt lat="45.55919" lon="6.56288">
        <ele>2205.3999023438</ele>
        <time>2014-01-31T10:41:40.000Z</time>
      </trkpt>
      <trkpt lat="45.55919" lon="6.56288">
        <ele>2205.6000976562</ele>
        <time>2014-01-31T10:41:41.000Z</time>
      </trkpt>
      <trkpt lat="45.55919" lon="6.56288">
        <ele>2206</ele>
        <time>2014-01-31T10:41:42.000Z</time>
      </trkpt>
      <trkpt lat="45.55919" lon="6.56288">
        <ele>2206</ele>
        <time>2014-01-31T10:41:43.000Z</time>
      </trkpt>
      <trkpt lat="45.55919" lon="6.56288">
        <ele>2206.1999511719</ele>
        <time>2014-01-31T10:41:44.000Z</time>
      </trkpt>
      <trkpt lat="45.55919" lon="6.56288">
        <ele>2206.1999511719</ele>
        <time>2014-01-31T10:41:47.000Z</time>
      </trkpt>
      <trkpt lat="45.55919" lon="6.56288">
        <ele>2206.1999511719</ele>
        <time>2014-01-31T10:41:48.000Z</time>
      </trkpt>
      <trkpt lat="45.55919" lon="6.56288">
        <ele>2206.1999511719</ele>
        <time>2014-01-31T10:41:50.000Z</time>
      </trkpt>
      <trkpt lat="45.55919" lon="6.56288">
        <ele>2206.1999511719</ele>
        <time>2014-01-31T10:41:51.000Z</time>
      </trkpt>
      <trkpt lat="45.55919" lon="6.56288">
        <ele>2206.1999511719</ele>
        <time>2014-01-31T10:41:52.000Z</time>
      </trkpt>
      <trkpt lat="45.55919" lon="6.56288">
        <ele>2206</ele>
        <time>2014-01-31T10:41:53.000Z</time>
      </trkpt>
      <trkpt lat="45.55919" lon="6.56287">
        <ele>2206</ele>
        <time>2014-01-31T10:41:54.000Z</time>
      </trkpt>
      <trkpt lat="45.55919" lon="6.56284">
        <ele>2206</ele>
        <time>2014-01-31T10:41:55.000Z</time>
      </trkpt>
      <trkpt lat="45.5592" lon="6.56283">
        <ele>2206</ele>
        <time>2014-01-31T10:41:56.000Z</time>
      </trkpt>
      <trkpt lat="45.5592" lon="6.56282">
        <ele>2205.8000488281</ele>
        <time>2014-01-31T10:41:57.000Z</time>
      </trkpt>
      <trkpt lat="45.5592" lon="6.56279">
        <ele>2206.1999511719</ele>
        <time>2014-01-31T10:41:58.000Z</time>
      </trkpt>
      <trkpt lat="45.5592" lon="6.56279">
        <ele>2206.8000488281</ele>
        <time>2014-01-31T10:41:59.000Z</time>
      </trkpt>
      <trkpt lat="45.5592" lon="6.56277">
        <ele>2207</ele>
        <time>2014-01-31T10:42:00.000Z</time>
      </trkpt>
      <trkpt lat="45.5592" lon="6.56277">
        <ele>2207.3999023438</ele>
        <time>2014-01-31T10:42:01.000Z</time>
      </trkpt>
      <trkpt lat="45.5592" lon="6.56275">
        <ele>2207.6000976562</ele>
        <time>2014-01-31T10:42:02.000Z</time>
      </trkpt>
      <trkpt lat="45.55921" lon="6.56275">
        <ele>2208</ele>
        <time>2014-01-31T10:42:03.000Z</time>
      </trkpt>
      <trkpt lat="45.55921" lon="6.56274">
        <ele>2208</ele>
        <time>2014-01-31T10:42:04.000Z</time>
      </trkpt>
      <trkpt lat="45.55921" lon="6.56273">
        <ele>2208</ele>
        <time>2014-01-31T10:42:05.000Z</time>
      </trkpt>
      <trkpt lat="45.55921" lon="6.56273">
        <ele>2208</ele>
        <time>2014-01-31T10:42:06.000Z</time>
      </trkpt>
      <trkpt lat="45.55922" lon="6.56271">
        <ele>2208.1999511719</ele>
        <time>2014-01-31T10:42:07.000Z</time>
      </trkpt>
      <trkpt lat="45.55922" lon="6.56271">
        <ele>2208.1999511719</ele>
        <time>2014-01-31T10:42:08.000Z</time>
      </trkpt>
      <trkpt lat="45.55922" lon="6.56269">
        <ele>2208.3999023438</ele>
        <time>2014-01-31T10:42:09.000Z</time>
      </trkpt>
      <trkpt lat="45.55922" lon="6.56269">
        <ele>2208.6000976562</ele>
        <time>2014-01-31T10:42:10.000Z</time>
      </trkpt>
      <trkpt lat="45.55923" lon="6.56267">
        <ele>2208.6000976562</ele>
        <time>2014-01-31T10:42:11.000Z</time>
      </trkpt>
      <trkpt lat="45.55923" lon="6.56267">
        <ele>2208.8000488281</ele>
        <time>2014-01-31T10:42:12.000Z</time>
      </trkpt>
      <trkpt lat="45.55923" lon="6.56265">
        <ele>2209</ele>
        <time>2014-01-31T10:42:13.000Z</time>
      </trkpt>
      <trkpt lat="45.55923" lon="6.56265">
        <ele>2209</ele>
        <time>2014-01-31T10:42:14.000Z</time>
      </trkpt>
      <trkpt lat="45.55923" lon="6.56264">
        <ele>2209.1999511719</ele>
        <time>2014-01-31T10:42:15.000Z</time>
      </trkpt>
      <trkpt lat="45.55924" lon="6.56264">
        <ele>2209.3999023438</ele>
        <time>2014-01-31T10:42:16.000Z</time>
      </trkpt>
      <trkpt lat="45.55924" lon="6.56263">
        <ele>2209.3999023438</ele>
        <time>2014-01-31T10:42:17.000Z</time>
      </trkpt>
      <trkpt lat="45.55924" lon="6.56263">
        <ele>2209.6000976562</ele>
        <time>2014-01-31T10:42:18.000Z</time>
      </trkpt>
      <trkpt lat="45.55924" lon="6.56261">
        <ele>2210</ele>
        <time>2014-01-31T10:42:19.000Z</time>
      </trkpt>
      <trkpt lat="45.55924" lon="6.56262">
        <ele>2210.1999511719</ele>
        <time>2014-01-31T10:42:20.000Z</time>
      </trkpt>
      <trkpt lat="45.55924" lon="6.56261">
        <ele>2210.1999511719</ele>
        <time>2014-01-31T10:42:21.000Z</time>
      </trkpt>
      <trkpt lat="45.55925" lon="6.56261">
        <ele>2210.3999023438</ele>
        <time>2014-01-31T10:42:22.000Z</time>
      </trkpt>
      <trkpt lat="45.55925" lon="6.56258">
        <ele>2210.6000976562</ele>
        <time>2014-01-31T10:42:23.000Z</time>
      </trkpt>
      <trkpt lat="45.55925" lon="6.56259">
        <ele>2210.8000488281</ele>
        <time>2014-01-31T10:42:24.000Z</time>
      </trkpt>
      <trkpt lat="45.55925" lon="6.56258">
        <ele>2211</ele>
        <time>2014-01-31T10:42:25.000Z</time>
      </trkpt>
      <trkpt lat="45.55925" lon="6.56258">
        <ele>2211.3999023438</ele>
        <time>2014-01-31T10:42:26.000Z</time>
      </trkpt>
      <trkpt lat="45.55925" lon="6.56257">
        <ele>2211.3999023438</ele>
        <time>2014-01-31T10:42:27.000Z</time>
      </trkpt>
      <trkpt lat="45.55925" lon="6.56257">
        <ele>2211.8000488281</ele>
        <time>2014-01-31T10:42:28.000Z</time>
      </trkpt>
      <trkpt lat="45.55925" lon="6.56257">
        <ele>2212</ele>
        <time>2014-01-31T10:42:29.000Z</time>
      </trkpt>
      <trkpt lat="45.55925" lon="6.56257">
        <ele>2212.6000976562</ele>
        <time>2014-01-31T10:42:30.000Z</time>
      </trkpt>
      <trkpt lat="45.55925" lon="6.56256">
        <ele>2212.6000976562</ele>
        <time>2014-01-31T10:42:31.000Z</time>
      </trkpt>
      <trkpt lat="45.55926" lon="6.56256">
        <ele>2212.8000488281</ele>
        <time>2014-01-31T10:42:32.000Z</time>
      </trkpt>
      <trkpt lat="45.55926" lon="6.56254">
        <ele>2212.8000488281</ele>
        <time>2014-01-31T10:42:33.000Z</time>
      </trkpt>
      <trkpt lat="45.55926" lon="6.56254">
        <ele>2213</ele>
        <time>2014-01-31T10:42:34.000Z</time>
      </trkpt>
      <trkpt lat="45.55926" lon="6.56253">
        <ele>2213</ele>
        <time>2014-01-31T10:42:35.000Z</time>
      </trkpt>
      <trkpt lat="45.55927" lon="6.56252">
        <ele>2213.1999511719</ele>
        <time>2014-01-31T10:42:36.000Z</time>
      </trkpt>
      <trkpt lat="45.55927" lon="6.56251">
        <ele>2213.1999511719</ele>
        <time>2014-01-31T10:42:37.000Z</time>
      </trkpt>
      <trkpt lat="45.55928" lon="6.5625">
        <ele>2213.3999023438</ele>
        <time>2014-01-31T10:42:38.000Z</time>
      </trkpt>
      <trkpt lat="45.55928" lon="6.56249">
        <ele>2213.3999023438</ele>
        <time>2014-01-31T10:42:39.000Z</time>
      </trkpt>
      <trkpt lat="45.55929" lon="6.56248">
        <ele>2213.6000976562</ele>
        <time>2014-01-31T10:42:40.000Z</time>
      </trkpt>
      <trkpt lat="45.55929" lon="6.56247">
        <ele>2213.6000976562</ele>
        <time>2014-01-31T10:42:41.000Z</time>
      </trkpt>
      <trkpt lat="45.55929" lon="6.56247">
        <ele>2214</ele>
        <time>2014-01-31T10:42:42.000Z</time>
      </trkpt>
      <trkpt lat="45.5593" lon="6.56246">
        <ele>2214</ele>
        <time>2014-01-31T10:42:43.000Z</time>
      </trkpt>
      <trkpt lat="45.5593" lon="6.56245">
        <ele>2214.3999023438</ele>
        <time>2014-01-31T10:42:44.000Z</time>
      </trkpt>
      <trkpt lat="45.55931" lon="6.56245">
        <ele>2214.6000976562</ele>
        <time>2014-01-31T10:42:45.000Z</time>
      </trkpt>
      <trkpt lat="45.55931" lon="6.56245">
        <ele>2215</ele>
        <time>2014-01-31T10:42:46.000Z</time>
      </trkpt>
      <trkpt lat="45.55931" lon="6.56244">
        <ele>2215.1999511719</ele>
        <time>2014-01-31T10:42:47.000Z</time>
      </trkpt>
      <trkpt lat="45.55931" lon="6.56244">
        <ele>2215.1999511719</ele>
        <time>2014-01-31T10:42:48.000Z</time>
      </trkpt>
      <trkpt lat="45.55932" lon="6.56243">
        <ele>2215.1999511719</ele>
        <time>2014-01-31T10:42:49.000Z</time>
      </trkpt>
      <trkpt lat="45.55932" lon="6.56243">
        <ele>2215.1999511719</ele>
        <time>2014-01-31T10:42:50.000Z</time>
      </trkpt>
      <trkpt lat="45.55932" lon="6.56242">
        <ele>2215.3999023438</ele>
        <time>2014-01-31T10:42:51.000Z</time>
      </trkpt>
      <trkpt lat="45.55933" lon="6.56242">
        <ele>2215.6000976562</ele>
        <time>2014-01-31T10:42:52.000Z</time>
      </trkpt>
      <trkpt lat="45.55933" lon="6.56241">
        <ele>2215.6000976562</ele>
        <time>2014-01-31T10:42:53.000Z</time>
      </trkpt>
      <trkpt lat="45.55933" lon="6.56241">
        <ele>2215.8000488281</ele>
        <time>2014-01-31T10:42:54.000Z</time>
      </trkpt>
      <trkpt lat="45.55934" lon="6.5624">
        <ele>2216</ele>
        <time>2014-01-31T10:42:55.000Z</time>
      </trkpt>
      <trkpt lat="45.55935" lon="6.56241">
        <ele>2216.3999023438</ele>
        <time>2014-01-31T10:42:56.000Z</time>
      </trkpt>
      <trkpt lat="45.55936" lon="6.56241">
        <ele>2216.3999023438</ele>
        <time>2014-01-31T10:42:57.000Z</time>
      </trkpt>
      <trkpt lat="45.55937" lon="6.56241">
        <ele>2216.6000976562</ele>
        <time>2014-01-31T10:42:58.000Z</time>
      </trkpt>
      <trkpt lat="45.55937" lon="6.56241">
        <ele>2216.8000488281</ele>
        <time>2014-01-31T10:42:59.000Z</time>
      </trkpt>
      <trkpt lat="45.55937" lon="6.56241">
        <ele>2217</ele>
        <time>2014-01-31T10:43:00.000Z</time>
      </trkpt>
      <trkpt lat="45.55937" lon="6.56241">
        <ele>2217.1999511719</ele>
        <time>2014-01-31T10:43:01.000Z</time>
      </trkpt>
      <trkpt lat="45.55937" lon="6.56242">
        <ele>2217.3999023438</ele>
        <time>2014-01-31T10:43:02.000Z</time>
      </trkpt>
      <trkpt lat="45.55938" lon="6.56243">
        <ele>2217.6000976562</ele>
        <time>2014-01-31T10:43:03.000Z</time>
      </trkpt>
      <trkpt lat="45.55938" lon="6.56244">
        <ele>2217.8000488281</ele>
        <time>2014-01-31T10:43:04.000Z</time>
      </trkpt>
      <trkpt lat="45.55939" lon="6.56244">
        <ele>2217.8000488281</ele>
        <time>2014-01-31T10:43:05.000Z</time>
      </trkpt>
      <trkpt lat="45.5594" lon="6.56245">
        <ele>2218</ele>
        <time>2014-01-31T10:43:06.000Z</time>
      </trkpt>
      <trkpt lat="45.5594" lon="6.56246">
        <ele>2218</ele>
        <time>2014-01-31T10:43:07.000Z</time>
      </trkpt>
      <trkpt lat="45.55941" lon="6.56247">
        <ele>2218.3999023438</ele>
        <time>2014-01-31T10:43:08.000Z</time>
      </trkpt>
      <trkpt lat="45.55942" lon="6.56247">
        <ele>2218.6000976562</ele>
        <time>2014-01-31T10:43:09.000Z</time>
      </trkpt>
      <trkpt lat="45.55942" lon="6.56249">
        <ele>2219.1999511719</ele>
        <time>2014-01-31T10:43:10.000Z</time>
      </trkpt>
      <trkpt lat="45.55942" lon="6.56249">
        <ele>2219.6000976562</ele>
        <time>2014-01-31T10:43:11.000Z</time>
      </trkpt>
      <trkpt lat="45.55942" lon="6.56249">
        <ele>2219.8000488281</ele>
        <time>2014-01-31T10:43:12.000Z</time>
      </trkpt>
      <trkpt lat="45.55943" lon="6.5625">
        <ele>2220</ele>
        <time>2014-01-31T10:43:13.000Z</time>
      </trkpt>
      <trkpt lat="45.55943" lon="6.56251">
        <ele>2220.1999511719</ele>
        <time>2014-01-31T10:43:15.000Z</time>
      </trkpt>
      <trkpt lat="45.55944" lon="6.56252">
        <ele>2220.3999023438</ele>
        <time>2014-01-31T10:43:16.000Z</time>
      </trkpt>
      <trkpt lat="45.55945" lon="6.56253">
        <ele>2220.6000976562</ele>
        <time>2014-01-31T10:43:17.000Z</time>
      </trkpt>
      <trkpt lat="45.55945" lon="6.56253">
        <ele>2220.6000976562</ele>
        <time>2014-01-31T10:43:18.000Z</time>
      </trkpt>
      <trkpt lat="45.55946" lon="6.56255">
        <ele>2221</ele>
        <time>2014-01-31T10:43:19.000Z</time>
      </trkpt>
      <trkpt lat="45.55946" lon="6.56255">
        <ele>2221.3999023438</ele>
        <time>2014-01-31T10:43:20.000Z</time>
      </trkpt>
      <trkpt lat="45.55947" lon="6.56257">
        <ele>2221.6000976562</ele>
        <time>2014-01-31T10:43:21.000Z</time>
      </trkpt>
      <trkpt lat="45.55947" lon="6.56257">
        <ele>2222</ele>
        <time>2014-01-31T10:43:22.000Z</time>
      </trkpt>
      <trkpt lat="45.55948" lon="6.56259">
        <ele>2222.1999511719</ele>
        <time>2014-01-31T10:43:23.000Z</time>
      </trkpt>
      <trkpt lat="45.55947" lon="6.56259">
        <ele>2222.6000976562</ele>
        <time>2014-01-31T10:43:24.000Z</time>
      </trkpt>
      <trkpt lat="45.55948" lon="6.5626">
        <ele>2222.6000976562</ele>
        <time>2014-01-31T10:43:25.000Z</time>
      </trkpt>
      <trkpt lat="45.55948" lon="6.5626">
        <ele>2223</ele>
        <time>2014-01-31T10:43:26.000Z</time>
      </trkpt>
      <trkpt lat="45.55948" lon="6.56261">
        <ele>2222.8000488281</ele>
        <time>2014-01-31T10:43:27.000Z</time>
      </trkpt>
      <trkpt lat="45.55948" lon="6.56262">
        <ele>2223.1999511719</ele>
        <time>2014-01-31T10:43:28.000Z</time>
      </trkpt>
      <trkpt lat="45.55949" lon="6.56262">
        <ele>2223</ele>
        <time>2014-01-31T10:43:29.000Z</time>
      </trkpt>
      <trkpt lat="45.5595" lon="6.56264">
        <ele>2223.3999023438</ele>
        <time>2014-01-31T10:43:30.000Z</time>
      </trkpt>
      <trkpt lat="45.5595" lon="6.56264">
        <ele>2223.1999511719</ele>
        <time>2014-01-31T10:43:31.000Z</time>
      </trkpt>
      <trkpt lat="45.5595" lon="6.56266">
        <ele>2223.8000488281</ele>
        <time>2014-01-31T10:43:32.000Z</time>
      </trkpt>
      <trkpt lat="45.5595" lon="6.56266">
        <ele>2223.6000976562</ele>
        <time>2014-01-31T10:43:33.000Z</time>
      </trkpt>
      <trkpt lat="45.55951" lon="6.56267">
        <ele>2223.8000488281</ele>
        <time>2014-01-31T10:43:34.000Z</time>
      </trkpt>
      <trkpt lat="45.55951" lon="6.56267">
        <ele>2224.1999511719</ele>
        <time>2014-01-31T10:43:35.000Z</time>
      </trkpt>
      <trkpt lat="45.55952" lon="6.56268">
        <ele>2224.1999511719</ele>
        <time>2014-01-31T10:43:36.000Z</time>
      </trkpt>
      <trkpt lat="45.55952" lon="6.56269">
        <ele>2224.3999023438</ele>
        <time>2014-01-31T10:43:37.000Z</time>
      </trkpt>
      <trkpt lat="45.55953" lon="6.5627">
        <ele>2224.6000976562</ele>
        <time>2014-01-31T10:43:38.000Z</time>
      </trkpt>
      <trkpt lat="45.55953" lon="6.5627">
        <ele>2224.8000488281</ele>
        <time>2014-01-31T10:43:39.000Z</time>
      </trkpt>
      <trkpt lat="45.55954" lon="6.56271">
        <ele>2225</ele>
        <time>2014-01-31T10:43:40.000Z</time>
      </trkpt>
      <trkpt lat="45.55954" lon="6.56271">
        <ele>2225.1999511719</ele>
        <time>2014-01-31T10:43:41.000Z</time>
      </trkpt>
      <trkpt lat="45.55955" lon="6.56272">
        <ele>2225.3999023438</ele>
        <time>2014-01-31T10:43:42.000Z</time>
      </trkpt>
      <trkpt lat="45.55955" lon="6.56273">
        <ele>2225.3999023438</ele>
        <time>2014-01-31T10:43:43.000Z</time>
      </trkpt>
      <trkpt lat="45.55955" lon="6.56273">
        <ele>2225.6000976562</ele>
        <time>2014-01-31T10:43:44.000Z</time>
      </trkpt>
      <trkpt lat="45.55956" lon="6.56274">
        <ele>2225.6000976562</ele>
        <time>2014-01-31T10:43:45.000Z</time>
      </trkpt>
      <trkpt lat="45.55956" lon="6.56274">
        <ele>2225.8000488281</ele>
        <time>2014-01-31T10:43:46.000Z</time>
      </trkpt>
      <trkpt lat="45.55957" lon="6.56275">
        <ele>2225.8000488281</ele>
        <time>2014-01-31T10:43:47.000Z</time>
      </trkpt>
      <trkpt lat="45.55957" lon="6.56275">
        <ele>2226</ele>
        <time>2014-01-31T10:43:48.000Z</time>
      </trkpt>
      <trkpt lat="45.55958" lon="6.56277">
        <ele>2226.1999511719</ele>
        <time>2014-01-31T10:43:49.000Z</time>
      </trkpt>
      <trkpt lat="45.55958" lon="6.56276">
        <ele>2226.6000976562</ele>
        <time>2014-01-31T10:43:50.000Z</time>
      </trkpt>
      <trkpt lat="45.55958" lon="6.56277">
        <ele>2226.8000488281</ele>
        <time>2014-01-31T10:43:51.000Z</time>
      </trkpt>
      <trkpt lat="45.55958" lon="6.56278">
        <ele>2227</ele>
        <time>2014-01-31T10:43:52.000Z</time>
      </trkpt>
      <trkpt lat="45.55959" lon="6.56278">
        <ele>2227.1999511719</ele>
        <time>2014-01-31T10:43:53.000Z</time>
      </trkpt>
      <trkpt lat="45.55959" lon="6.56279">
        <ele>2227.6000976562</ele>
        <time>2014-01-31T10:43:54.000Z</time>
      </trkpt>
      <trkpt lat="45.55959" lon="6.56279">
        <ele>2227.6000976562</ele>
        <time>2014-01-31T10:43:55.000Z</time>
      </trkpt>
      <trkpt lat="45.5596" lon="6.56279">
        <ele>2228</ele>
        <time>2014-01-31T10:43:56.000Z</time>
      </trkpt>
      <trkpt lat="45.5596" lon="6.5628">
        <ele>2227.8000488281</ele>
        <time>2014-01-31T10:43:57.000Z</time>
      </trkpt>
      <trkpt lat="45.5596" lon="6.5628">
        <ele>2228.1999511719</ele>
        <time>2014-01-31T10:43:58.000Z</time>
      </trkpt>
      <trkpt lat="45.55961" lon="6.56281">
        <ele>2228.6000976562</ele>
        <time>2014-01-31T10:43:59.000Z</time>
      </trkpt>
      <trkpt lat="45.55961" lon="6.56283">
        <ele>2228.6000976562</ele>
        <time>2014-01-31T10:44:00.000Z</time>
      </trkpt>
      <trkpt lat="45.55961" lon="6.56283">
        <ele>2229</ele>
        <time>2014-01-31T10:44:01.000Z</time>
      </trkpt>
      <trkpt lat="45.55962" lon="6.56285">
        <ele>2229</ele>
        <time>2014-01-31T10:44:02.000Z</time>
      </trkpt>
      <trkpt lat="45.55962" lon="6.56285">
        <ele>2229.3999023438</ele>
        <time>2014-01-31T10:44:03.000Z</time>
      </trkpt>
      <trkpt lat="45.55962" lon="6.56285">
        <ele>2229.3999023438</ele>
        <time>2014-01-31T10:44:04.000Z</time>
      </trkpt>
      <trkpt lat="45.55962" lon="6.56286">
        <ele>2229.8000488281</ele>
        <time>2014-01-31T10:44:05.000Z</time>
      </trkpt>
      <trkpt lat="45.55962" lon="6.56287">
        <ele>2229.8000488281</ele>
        <time>2014-01-31T10:44:06.000Z</time>
      </trkpt>
      <trkpt lat="45.55963" lon="6.56287">
        <ele>2230.1999511719</ele>
        <time>2014-01-31T10:44:07.000Z</time>
      </trkpt>
      <trkpt lat="45.55963" lon="6.56288">
        <ele>2230.3999023438</ele>
        <time>2014-01-31T10:44:08.000Z</time>
      </trkpt>
      <trkpt lat="45.55964" lon="6.56288">
        <ele>2230.8000488281</ele>
        <time>2014-01-31T10:44:09.000Z</time>
      </trkpt>
      <trkpt lat="45.55965" lon="6.56289">
        <ele>2230.8000488281</ele>
        <time>2014-01-31T10:44:10.000Z</time>
      </trkpt>
      <trkpt lat="45.55965" lon="6.5629">
        <ele>2231.1999511719</ele>
        <time>2014-01-31T10:44:11.000Z</time>
      </trkpt>
      <trkpt lat="45.55966" lon="6.5629">
        <ele>2231.1999511719</ele>
        <time>2014-01-31T10:44:12.000Z</time>
      </trkpt>
      <trkpt lat="45.55966" lon="6.56291">
        <ele>2231.6000976562</ele>
        <time>2014-01-31T10:44:13.000Z</time>
      </trkpt>
      <trkpt lat="45.55967" lon="6.56291">
        <ele>2231.6000976562</ele>
        <time>2014-01-31T10:44:14.000Z</time>
      </trkpt>
      <trkpt lat="45.55967" lon="6.56292">
        <ele>2232</ele>
        <time>2014-01-31T10:44:15.000Z</time>
      </trkpt>
      <trkpt lat="45.55967" lon="6.56292">
        <ele>2232</ele>
        <time>2014-01-31T10:44:16.000Z</time>
      </trkpt>
      <trkpt lat="45.55968" lon="6.56294">
        <ele>2232.3999023438</ele>
        <time>2014-01-31T10:44:17.000Z</time>
      </trkpt>
      <trkpt lat="45.55968" lon="6.56293">
        <ele>2232.1999511719</ele>
        <time>2014-01-31T10:44:18.000Z</time>
      </trkpt>
      <trkpt lat="45.55969" lon="6.56295">
        <ele>2232.6000976562</ele>
        <time>2014-01-31T10:44:19.000Z</time>
      </trkpt>
      <trkpt lat="45.55969" lon="6.56294">
        <ele>2232.3999023438</ele>
        <time>2014-01-31T10:44:20.000Z</time>
      </trkpt>
      <trkpt lat="45.5597" lon="6.56296">
        <ele>2232.8000488281</ele>
        <time>2014-01-31T10:44:21.000Z</time>
      </trkpt>
      <trkpt lat="45.5597" lon="6.56295">
        <ele>2233</ele>
        <time>2014-01-31T10:44:22.000Z</time>
      </trkpt>
      <trkpt lat="45.55971" lon="6.56296">
        <ele>2233.3999023438</ele>
        <time>2014-01-31T10:44:23.000Z</time>
      </trkpt>
      <trkpt lat="45.55971" lon="6.56296">
        <ele>2233.6000976562</ele>
        <time>2014-01-31T10:44:24.000Z</time>
      </trkpt>
      <trkpt lat="45.55971" lon="6.56296">
        <ele>2233.8000488281</ele>
        <time>2014-01-31T10:44:25.000Z</time>
      </trkpt>
      <trkpt lat="45.55971" lon="6.56297">
        <ele>2234</ele>
        <time>2014-01-31T10:44:26.000Z</time>
      </trkpt>
      <trkpt lat="45.55971" lon="6.56297">
        <ele>2234.1999511719</ele>
        <time>2014-01-31T10:44:27.000Z</time>
      </trkpt>
      <trkpt lat="45.55972" lon="6.56297">
        <ele>2234.3999023438</ele>
        <time>2014-01-31T10:44:28.000Z</time>
      </trkpt>
      <trkpt lat="45.55972" lon="6.56298">
        <ele>2234.6000976562</ele>
        <time>2014-01-31T10:44:29.000Z</time>
      </trkpt>
      <trkpt lat="45.55973" lon="6.56298">
        <ele>2234.8000488281</ele>
        <time>2014-01-31T10:44:30.000Z</time>
      </trkpt>
      <trkpt lat="45.55973" lon="6.56299">
        <ele>2235</ele>
        <time>2014-01-31T10:44:31.000Z</time>
      </trkpt>
      <trkpt lat="45.55974" lon="6.563">
        <ele>2235.1999511719</ele>
        <time>2014-01-31T10:44:32.000Z</time>
      </trkpt>
      <trkpt lat="45.55974" lon="6.56301">
        <ele>2235.3999023438</ele>
        <time>2014-01-31T10:44:33.000Z</time>
      </trkpt>
      <trkpt lat="45.55975" lon="6.56302">
        <ele>2235.6000976562</ele>
        <time>2014-01-31T10:44:34.000Z</time>
      </trkpt>
      <trkpt lat="45.55975" lon="6.56302">
        <ele>2235.6000976562</ele>
        <time>2014-01-31T10:44:35.000Z</time>
      </trkpt>
      <trkpt lat="45.55976" lon="6.56304">
        <ele>2235.8000488281</ele>
        <time>2014-01-31T10:44:36.000Z</time>
      </trkpt>
      <trkpt lat="45.55976" lon="6.56303">
        <ele>2235.8000488281</ele>
        <time>2014-01-31T10:44:37.000Z</time>
      </trkpt>
      <trkpt lat="45.55976" lon="6.56304">
        <ele>2235.8000488281</ele>
        <time>2014-01-31T10:44:38.000Z</time>
      </trkpt>
      <trkpt lat="45.55977" lon="6.56305">
        <ele>2236</ele>
        <time>2014-01-31T10:44:39.000Z</time>
      </trkpt>
      <trkpt lat="45.55977" lon="6.56305">
        <ele>2236.1999511719</ele>
        <time>2014-01-31T10:44:40.000Z</time>
      </trkpt>
      <trkpt lat="45.55978" lon="6.56306">
        <ele>2236.3999023438</ele>
        <time>2014-01-31T10:44:41.000Z</time>
      </trkpt>
      <trkpt lat="45.55978" lon="6.56306">
        <ele>2236.6000976562</ele>
        <time>2014-01-31T10:44:42.000Z</time>
      </trkpt>
      <trkpt lat="45.55979" lon="6.56307">
        <ele>2236.8000488281</ele>
        <time>2014-01-31T10:44:43.000Z</time>
      </trkpt>
      <trkpt lat="45.5598" lon="6.56307">
        <ele>2237</ele>
        <time>2014-01-31T10:44:44.000Z</time>
      </trkpt>
      <trkpt lat="45.5598" lon="6.56308">
        <ele>2237.1999511719</ele>
        <time>2014-01-31T10:44:45.000Z</time>
      </trkpt>
      <trkpt lat="45.55981" lon="6.56309">
        <ele>2237.1999511719</ele>
        <time>2014-01-31T10:44:46.000Z</time>
      </trkpt>
      <trkpt lat="45.55982" lon="6.56311">
        <ele>2237.6000976562</ele>
        <time>2014-01-31T10:44:47.000Z</time>
      </trkpt>
      <trkpt lat="45.55982" lon="6.56311">
        <ele>2238</ele>
        <time>2014-01-31T10:44:48.000Z</time>
      </trkpt>
      <trkpt lat="45.55982" lon="6.56313">
        <ele>2238</ele>
        <time>2014-01-31T10:44:49.000Z</time>
      </trkpt>
      <trkpt lat="45.55982" lon="6.56312">
        <ele>2238.3999023438</ele>
        <time>2014-01-31T10:44:50.000Z</time>
      </trkpt>
      <trkpt lat="45.55982" lon="6.56313">
        <ele>2238.3999023438</ele>
        <time>2014-01-31T10:44:51.000Z</time>
      </trkpt>
      <trkpt lat="45.55982" lon="6.56314">
        <ele>2238.8000488281</ele>
        <time>2014-01-31T10:44:52.000Z</time>
      </trkpt>
      <trkpt lat="45.55982" lon="6.56315">
        <ele>2238.8000488281</ele>
        <time>2014-01-31T10:44:53.000Z</time>
      </trkpt>
      <trkpt lat="45.55983" lon="6.56315">
        <ele>2239.1999511719</ele>
        <time>2014-01-31T10:44:54.000Z</time>
      </trkpt>
      <trkpt lat="45.55983" lon="6.56316">
        <ele>2239.3999023438</ele>
        <time>2014-01-31T10:44:55.000Z</time>
      </trkpt>
      <trkpt lat="45.55985" lon="6.56317">
        <ele>2239.6000976562</ele>
        <time>2014-01-31T10:44:56.000Z</time>
      </trkpt>
      <trkpt lat="45.55985" lon="6.56317">
        <ele>2239.8000488281</ele>
        <time>2014-01-31T10:44:57.000Z</time>
      </trkpt>
      <trkpt lat="45.55986" lon="6.56319">
        <ele>2240</ele>
        <time>2014-01-31T10:44:58.000Z</time>
      </trkpt>
      <trkpt lat="45.55986" lon="6.56319">
        <ele>2240</ele>
        <time>2014-01-31T10:44:59.000Z</time>
      </trkpt>
      <trkpt lat="45.55987" lon="6.56321">
        <ele>2240.1999511719</ele>
        <time>2014-01-31T10:45:00.000Z</time>
      </trkpt>
      <trkpt lat="45.55986" lon="6.56321">
        <ele>2240.1999511719</ele>
        <time>2014-01-31T10:45:01.000Z</time>
      </trkpt>
      <trkpt lat="45.55987" lon="6.56321">
        <ele>2240.3999023438</ele>
        <time>2014-01-31T10:45:02.000Z</time>
      </trkpt>
      <trkpt lat="45.55987" lon="6.56322">
        <ele>2240.6000976562</ele>
        <time>2014-01-31T10:45:03.000Z</time>
      </trkpt>
      <trkpt lat="45.55988" lon="6.56322">
        <ele>2240.8000488281</ele>
        <time>2014-01-31T10:45:04.000Z</time>
      </trkpt>
      <trkpt lat="45.55989" lon="6.56322">
        <ele>2241.1999511719</ele>
        <time>2014-01-31T10:45:05.000Z</time>
      </trkpt>
      <trkpt lat="45.55989" lon="6.56322">
        <ele>2241.3999023438</ele>
        <time>2014-01-31T10:45:06.000Z</time>
      </trkpt>
      <trkpt lat="45.5599" lon="6.56323">
        <ele>2241.6000976562</ele>
        <time>2014-01-31T10:45:07.000Z</time>
      </trkpt>
      <trkpt lat="45.5599" lon="6.56323">
        <ele>2241.6000976562</ele>
        <time>2014-01-31T10:45:08.000Z</time>
      </trkpt>
      <trkpt lat="45.55991" lon="6.56324">
        <ele>2242</ele>
        <time>2014-01-31T10:45:09.000Z</time>
      </trkpt>
      <trkpt lat="45.55991" lon="6.56324">
        <ele>2242</ele>
        <time>2014-01-31T10:45:10.000Z</time>
      </trkpt>
      <trkpt lat="45.55992" lon="6.56325">
        <ele>2242.3999023438</ele>
        <time>2014-01-31T10:45:11.000Z</time>
      </trkpt>
      <trkpt lat="45.55992" lon="6.56324">
        <ele>2242.8000488281</ele>
        <time>2014-01-31T10:45:12.000Z</time>
      </trkpt>
      <trkpt lat="45.55993" lon="6.56324">
        <ele>2243</ele>
        <time>2014-01-31T10:45:13.000Z</time>
      </trkpt>
      <trkpt lat="45.55993" lon="6.56325">
        <ele>2243.1999511719</ele>
        <time>2014-01-31T10:45:14.000Z</time>
      </trkpt>
      <trkpt lat="45.55994" lon="6.56326">
        <ele>2243.3999023438</ele>
        <time>2014-01-31T10:45:15.000Z</time>
      </trkpt>
      <trkpt lat="45.55994" lon="6.56327">
        <ele>2243.8000488281</ele>
        <time>2014-01-31T10:45:16.000Z</time>
      </trkpt>
      <trkpt lat="45.55995" lon="6.56327">
        <ele>2244</ele>
        <time>2014-01-31T10:45:17.000Z</time>
      </trkpt>
      <trkpt lat="45.55995" lon="6.56328">
        <ele>2244.1999511719</ele>
        <time>2014-01-31T10:45:18.000Z</time>
      </trkpt>
      <trkpt lat="45.55996" lon="6.56328">
        <ele>2244.3999023438</ele>
        <time>2014-01-31T10:45:19.000Z</time>
      </trkpt>
      <trkpt lat="45.55997" lon="6.5633">
        <ele>2244.6000976562</ele>
        <time>2014-01-31T10:45:20.000Z</time>
      </trkpt>
      <trkpt lat="45.55997" lon="6.5633">
        <ele>2244.8000488281</ele>
        <time>2014-01-31T10:45:21.000Z</time>
      </trkpt>
      <trkpt lat="45.55998" lon="6.56331">
        <ele>2245</ele>
        <time>2014-01-31T10:45:22.000Z</time>
      </trkpt>
      <trkpt lat="45.55998" lon="6.56331">
        <ele>2245</ele>
        <time>2014-01-31T10:45:23.000Z</time>
      </trkpt>
      <trkpt lat="45.55998" lon="6.56332">
        <ele>2245.1999511719</ele>
        <time>2014-01-31T10:45:24.000Z</time>
      </trkpt>
      <trkpt lat="45.55999" lon="6.56333">
        <ele>2245.1999511719</ele>
        <time>2014-01-31T10:45:25.000Z</time>
      </trkpt>
      <trkpt lat="45.55999" lon="6.56334">
        <ele>2245.3999023438</ele>
        <time>2014-01-31T10:45:26.000Z</time>
      </trkpt>
      <trkpt lat="45.55999" lon="6.56335">
        <ele>2245.6000976562</ele>
        <time>2014-01-31T10:45:27.000Z</time>
      </trkpt>
      <trkpt lat="45.56" lon="6.56335">
        <ele>2245.6000976562</ele>
        <time>2014-01-31T10:45:28.000Z</time>
      </trkpt>
      <trkpt lat="45.56" lon="6.56336">
        <ele>2246</ele>
        <time>2014-01-31T10:45:29.000Z</time>
      </trkpt>
      <trkpt lat="45.56" lon="6.56337">
        <ele>2246.1999511719</ele>
        <time>2014-01-31T10:45:30.000Z</time>
      </trkpt>
      <trkpt lat="45.56002" lon="6.56339">
        <ele>2246.3999023438</ele>
        <time>2014-01-31T10:45:31.000Z</time>
      </trkpt>
      <trkpt lat="45.56001" lon="6.56339">
        <ele>2246.3999023438</ele>
        <time>2014-01-31T10:45:32.000Z</time>
      </trkpt>
      <trkpt lat="45.56002" lon="6.5634">
        <ele>2246.8000488281</ele>
        <time>2014-01-31T10:45:33.000Z</time>
      </trkpt>
      <trkpt lat="45.56002" lon="6.5634">
        <ele>2246.8000488281</ele>
        <time>2014-01-31T10:45:34.000Z</time>
      </trkpt>
      <trkpt lat="45.56004" lon="6.56341">
        <ele>2247.1999511719</ele>
        <time>2014-01-31T10:45:35.000Z</time>
      </trkpt>
      <trkpt lat="45.56004" lon="6.56341">
        <ele>2247.6000976562</ele>
        <time>2014-01-31T10:45:36.000Z</time>
      </trkpt>
      <trkpt lat="45.56005" lon="6.56342">
        <ele>2247.3999023438</ele>
        <time>2014-01-31T10:45:37.000Z</time>
      </trkpt>
      <trkpt lat="45.56005" lon="6.56342">
        <ele>2247.8000488281</ele>
        <time>2014-01-31T10:45:38.000Z</time>
      </trkpt>
      <trkpt lat="45.56006" lon="6.56343">
        <ele>2247.8000488281</ele>
        <time>2014-01-31T10:45:39.000Z</time>
      </trkpt>
      <trkpt lat="45.56006" lon="6.56343">
        <ele>2248.1999511719</ele>
        <time>2014-01-31T10:45:40.000Z</time>
      </trkpt>
      <trkpt lat="45.56006" lon="6.56343">
        <ele>2248.1999511719</ele>
        <time>2014-01-31T10:45:41.000Z</time>
      </trkpt>
      <trkpt lat="45.56006" lon="6.56343">
        <ele>2248.6000976562</ele>
        <time>2014-01-31T10:45:42.000Z</time>
      </trkpt>
      <trkpt lat="45.56006" lon="6.56343">
        <ele>2248.3999023438</ele>
        <time>2014-01-31T10:45:43.000Z</time>
      </trkpt>
      <trkpt lat="45.56007" lon="6.56343">
        <ele>2248.8000488281</ele>
        <time>2014-01-31T10:45:44.000Z</time>
      </trkpt>
      <trkpt lat="45.56007" lon="6.56343">
        <ele>2248.8000488281</ele>
        <time>2014-01-31T10:45:45.000Z</time>
      </trkpt>
      <trkpt lat="45.56008" lon="6.56343">
        <ele>2249.1999511719</ele>
        <time>2014-01-31T10:45:46.000Z</time>
      </trkpt>
      <trkpt lat="45.56008" lon="6.56343">
        <ele>2249.1999511719</ele>
        <time>2014-01-31T10:45:47.000Z</time>
      </trkpt>
      <trkpt lat="45.56009" lon="6.56344">
        <ele>2249.6000976562</ele>
        <time>2014-01-31T10:45:48.000Z</time>
      </trkpt>
      <trkpt lat="45.56009" lon="6.56344">
        <ele>2249.6000976562</ele>
        <time>2014-01-31T10:45:49.000Z</time>
      </trkpt>
      <trkpt lat="45.5601" lon="6.56344">
        <ele>2250</ele>
        <time>2014-01-31T10:45:50.000Z</time>
      </trkpt>
      <trkpt lat="45.5601" lon="6.56345">
        <ele>2250</ele>
        <time>2014-01-31T10:45:51.000Z</time>
      </trkpt>
      <trkpt lat="45.56012" lon="6.56346">
        <ele>2250.1999511719</ele>
        <time>2014-01-31T10:45:52.000Z</time>
      </trkpt>
      <trkpt lat="45.56012" lon="6.56345">
        <ele>2250.1999511719</ele>
        <time>2014-01-31T10:45:53.000Z</time>
      </trkpt>
      <trkpt lat="45.56013" lon="6.56345">
        <ele>2250.6000976562</ele>
        <time>2014-01-31T10:45:54.000Z</time>
      </trkpt>
      <trkpt lat="45.56013" lon="6.56345">
        <ele>2250.8000488281</ele>
        <time>2014-01-31T10:45:55.000Z</time>
      </trkpt>
      <trkpt lat="45.56015" lon="6.56345">
        <ele>2251</ele>
        <time>2014-01-31T10:45:56.000Z</time>
      </trkpt>
      <trkpt lat="45.56015" lon="6.56345">
        <ele>2251.1999511719</ele>
        <time>2014-01-31T10:45:57.000Z</time>
      </trkpt>
      <trkpt lat="45.56015" lon="6.56345">
        <ele>2251.3999023438</ele>
        <time>2014-01-31T10:45:58.000Z</time>
      </trkpt>
      <trkpt lat="45.56016" lon="6.56346">
        <ele>2251.8000488281</ele>
        <time>2014-01-31T10:45:59.000Z</time>
      </trkpt>
      <trkpt lat="45.56016" lon="6.56346">
        <ele>2251.8000488281</ele>
        <time>2014-01-31T10:46:00.000Z</time>
      </trkpt>
      <trkpt lat="45.56017" lon="6.56346">
        <ele>2252</ele>
        <time>2014-01-31T10:46:01.000Z</time>
      </trkpt>
      <trkpt lat="45.56017" lon="6.56347">
        <ele>2252.1999511719</ele>
        <time>2014-01-31T10:46:02.000Z</time>
      </trkpt>
      <trkpt lat="45.56018" lon="6.56347">
        <ele>2252.1999511719</ele>
        <time>2014-01-31T10:46:03.000Z</time>
      </trkpt>
      <trkpt lat="45.56018" lon="6.56348">
        <ele>2252.3999023438</ele>
        <time>2014-01-31T10:46:04.000Z</time>
      </trkpt>
      <trkpt lat="45.5602" lon="6.56349">
        <ele>2252.6000976562</ele>
        <time>2014-01-31T10:46:05.000Z</time>
      </trkpt>
      <trkpt lat="45.5602" lon="6.56349">
        <ele>2252.8000488281</ele>
        <time>2014-01-31T10:46:06.000Z</time>
      </trkpt>
      <trkpt lat="45.56021" lon="6.56349">
        <ele>2253</ele>
        <time>2014-01-31T10:46:07.000Z</time>
      </trkpt>
      <trkpt lat="45.56021" lon="6.56349">
        <ele>2253.1999511719</ele>
        <time>2014-01-31T10:46:08.000Z</time>
      </trkpt>
      <trkpt lat="45.56022" lon="6.5635">
        <ele>2253.3999023438</ele>
        <time>2014-01-31T10:46:09.000Z</time>
      </trkpt>
      <trkpt lat="45.56022" lon="6.5635">
        <ele>2253.8000488281</ele>
        <time>2014-01-31T10:46:10.000Z</time>
      </trkpt>
      <trkpt lat="45.56022" lon="6.5635">
        <ele>2253.8000488281</ele>
        <time>2014-01-31T10:46:11.000Z</time>
      </trkpt>
      <trkpt lat="45.56022" lon="6.56351">
        <ele>2254.1999511719</ele>
        <time>2014-01-31T10:46:12.000Z</time>
      </trkpt>
      <trkpt lat="45.56023" lon="6.56352">
        <ele>2254.1999511719</ele>
        <time>2014-01-31T10:46:13.000Z</time>
      </trkpt>
      <trkpt lat="45.56023" lon="6.56352">
        <ele>2254.6000976562</ele>
        <time>2014-01-31T10:46:14.000Z</time>
      </trkpt>
      <trkpt lat="45.56024" lon="6.56352">
        <ele>2254.3999023438</ele>
        <time>2014-01-31T10:46:15.000Z</time>
      </trkpt>
      <trkpt lat="45.56025" lon="6.56352">
        <ele>2254.8000488281</ele>
        <time>2014-01-31T10:46:16.000Z</time>
      </trkpt>
      <trkpt lat="45.56025" lon="6.56352">
        <ele>2254.6000976562</ele>
        <time>2014-01-31T10:46:17.000Z</time>
      </trkpt>
      <trkpt lat="45.56026" lon="6.56352">
        <ele>2255</ele>
        <time>2014-01-31T10:46:18.000Z</time>
      </trkpt>
      <trkpt lat="45.56026" lon="6.56352">
        <ele>2255</ele>
        <time>2014-01-31T10:46:19.000Z</time>
      </trkpt>
      <trkpt lat="45.56026" lon="6.56352">
        <ele>2255.3999023438</ele>
        <time>2014-01-31T10:46:20.000Z</time>
      </trkpt>
      <trkpt lat="45.56027" lon="6.56351">
        <ele>2255.6000976562</ele>
        <time>2014-01-31T10:46:21.000Z</time>
      </trkpt>
      <trkpt lat="45.56027" lon="6.56351">
        <ele>2256</ele>
        <time>2014-01-31T10:46:22.000Z</time>
      </trkpt>
      <trkpt lat="45.56028" lon="6.56352">
        <ele>2256.3999023438</ele>
        <time>2014-01-31T10:46:23.000Z</time>
      </trkpt>
      <trkpt lat="45.56028" lon="6.56352">
        <ele>2256.8000488281</ele>
        <time>2014-01-31T10:46:24.000Z</time>
      </trkpt>
      <trkpt lat="45.56028" lon="6.56352">
        <ele>2257.1999511719</ele>
        <time>2014-01-31T10:46:25.000Z</time>
      </trkpt>
      <trkpt lat="45.56028" lon="6.56352">
        <ele>2257.3999023438</ele>
        <time>2014-01-31T10:46:26.000Z</time>
      </trkpt>
      <trkpt lat="45.56029" lon="6.56352">
        <ele>2257.8000488281</ele>
        <time>2014-01-31T10:46:27.000Z</time>
      </trkpt>
      <trkpt lat="45.56029" lon="6.56351">
        <ele>2258</ele>
        <time>2014-01-31T10:46:28.000Z</time>
      </trkpt>
      <trkpt lat="45.5603" lon="6.56351">
        <ele>2258.6000976562</ele>
        <time>2014-01-31T10:46:29.000Z</time>
      </trkpt>
      <trkpt lat="45.56031" lon="6.56351">
        <ele>2258.6000976562</ele>
        <time>2014-01-31T10:46:30.000Z</time>
      </trkpt>
      <trkpt lat="45.56031" lon="6.56351">
        <ele>2259</ele>
        <time>2014-01-31T10:46:31.000Z</time>
      </trkpt>
      <trkpt lat="45.56032" lon="6.56351">
        <ele>2259</ele>
        <time>2014-01-31T10:46:32.000Z</time>
      </trkpt>
      <trkpt lat="45.56033" lon="6.56352">
        <ele>2259.1999511719</ele>
        <time>2014-01-31T10:46:33.000Z</time>
      </trkpt>
      <trkpt lat="45.56033" lon="6.56352">
        <ele>2259.3999023438</ele>
        <time>2014-01-31T10:46:34.000Z</time>
      </trkpt>
      <trkpt lat="45.56034" lon="6.56352">
        <ele>2259.6000976562</ele>
        <time>2014-01-31T10:46:35.000Z</time>
      </trkpt>
      <trkpt lat="45.56034" lon="6.56353">
        <ele>2259.6000976562</ele>
        <time>2014-01-31T10:46:36.000Z</time>
      </trkpt>
      <trkpt lat="45.56035" lon="6.56353">
        <ele>2259.6000976562</ele>
        <time>2014-01-31T10:46:37.000Z</time>
      </trkpt>
      <trkpt lat="45.56035" lon="6.56354">
        <ele>2259.6000976562</ele>
        <time>2014-01-31T10:46:38.000Z</time>
      </trkpt>
      <trkpt lat="45.56036" lon="6.56354">
        <ele>2259.6000976562</ele>
        <time>2014-01-31T10:46:39.000Z</time>
      </trkpt>
      <trkpt lat="45.56036" lon="6.56354">
        <ele>2259.8000488281</ele>
        <time>2014-01-31T10:46:40.000Z</time>
      </trkpt>
      <trkpt lat="45.56036" lon="6.56354">
        <ele>2259.8000488281</ele>
        <time>2014-01-31T10:46:41.000Z</time>
      </trkpt>
      <trkpt lat="45.56036" lon="6.56354">
        <ele>2260</ele>
        <time>2014-01-31T10:46:42.000Z</time>
      </trkpt>
      <trkpt lat="45.56036" lon="6.56354">
        <ele>2260.1999511719</ele>
        <time>2014-01-31T10:46:43.000Z</time>
      </trkpt>
      <trkpt lat="45.56036" lon="6.56354">
        <ele>2260.6000976562</ele>
        <time>2014-01-31T10:46:44.000Z</time>
      </trkpt>
      <trkpt lat="45.56036" lon="6.56354">
        <ele>2260.8000488281</ele>
        <time>2014-01-31T10:46:45.000Z</time>
      </trkpt>
      <trkpt lat="45.56036" lon="6.56354">
        <ele>2260.8000488281</ele>
        <time>2014-01-31T10:46:46.000Z</time>
      </trkpt>
      <trkpt lat="45.56036" lon="6.56354">
        <ele>2261</ele>
        <time>2014-01-31T10:46:47.000Z</time>
      </trkpt>
      <trkpt lat="45.56037" lon="6.56354">
        <ele>2260.8000488281</ele>
        <time>2014-01-31T10:46:48.000Z</time>
      </trkpt>
      <trkpt lat="45.56037" lon="6.56354">
        <ele>2260.8000488281</ele>
        <time>2014-01-31T10:46:49.000Z</time>
      </trkpt>
      <trkpt lat="45.56037" lon="6.56354">
        <ele>2260.8000488281</ele>
        <time>2014-01-31T10:46:50.000Z</time>
      </trkpt>
      <trkpt lat="45.56037" lon="6.56354">
        <ele>2260.8000488281</ele>
        <time>2014-01-31T10:46:51.000Z</time>
      </trkpt>
      <trkpt lat="45.56037" lon="6.56354">
        <ele>2261</ele>
        <time>2014-01-31T10:46:52.000Z</time>
      </trkpt>
      <trkpt lat="45.56037" lon="6.56354">
        <ele>2261.1999511719</ele>
        <time>2014-01-31T10:46:53.000Z</time>
      </trkpt>
      <trkpt lat="45.56037" lon="6.56355">
        <ele>2261.3999023438</ele>
        <time>2014-01-31T10:46:54.000Z</time>
      </trkpt>
      <trkpt lat="45.56038" lon="6.56355">
        <ele>2261.3999023438</ele>
        <time>2014-01-31T10:46:55.000Z</time>
      </trkpt>
      <trkpt lat="45.56039" lon="6.56355">
        <ele>2261.6000976562</ele>
        <time>2014-01-31T10:46:56.000Z</time>
      </trkpt>
      <trkpt lat="45.56039" lon="6.56355">
        <ele>2261.8000488281</ele>
        <time>2014-01-31T10:46:57.000Z</time>
      </trkpt>
      <trkpt lat="45.56039" lon="6.56355">
        <ele>2262</ele>
        <time>2014-01-31T10:46:58.000Z</time>
      </trkpt>
      <trkpt lat="45.56039" lon="6.56355">
        <ele>2262.3999023438</ele>
        <time>2014-01-31T10:46:59.000Z</time>
      </trkpt>
      <trkpt lat="45.56039" lon="6.56355">
        <ele>2262.6000976562</ele>
        <time>2014-01-31T10:47:00.000Z</time>
      </trkpt>
      <trkpt lat="45.56039" lon="6.56355">
        <ele>2262.8000488281</ele>
        <time>2014-01-31T10:47:01.000Z</time>
      </trkpt>
      <trkpt lat="45.56039" lon="6.56355">
        <ele>2263</ele>
        <time>2014-01-31T10:47:02.000Z</time>
      </trkpt>
      <trkpt lat="45.56039" lon="6.56355">
        <ele>2263</ele>
        <time>2014-01-31T10:47:03.000Z</time>
      </trkpt>
      <trkpt lat="45.56039" lon="6.56355">
        <ele>2263</ele>
        <time>2014-01-31T10:47:04.000Z</time>
      </trkpt>
      <trkpt lat="45.56039" lon="6.56355">
        <ele>2263</ele>
        <time>2014-01-31T10:47:05.000Z</time>
      </trkpt>
      <trkpt lat="45.56039" lon="6.56355">
        <ele>2263</ele>
        <time>2014-01-31T10:47:06.000Z</time>
      </trkpt>
      <trkpt lat="45.56039" lon="6.56353">
        <ele>2262.8000488281</ele>
        <time>2014-01-31T10:47:07.000Z</time>
      </trkpt>
      <trkpt lat="45.56039" lon="6.56353">
        <ele>2262.8000488281</ele>
        <time>2014-01-31T10:47:08.000Z</time>
      </trkpt>
      <trkpt lat="45.56039" lon="6.56353">
        <ele>2262.6000976562</ele>
        <time>2014-01-31T10:47:09.000Z</time>
      </trkpt>
      <trkpt lat="45.56038" lon="6.56352">
        <ele>2262.3999023438</ele>
        <time>2014-01-31T10:47:10.000Z</time>
      </trkpt>
      <trkpt lat="45.56038" lon="6.56351">
        <ele>2262.3999023438</ele>
        <time>2014-01-31T10:47:11.000Z</time>
      </trkpt>
      <trkpt lat="45.56038" lon="6.56351">
        <ele>2262.6000976562</ele>
        <time>2014-01-31T10:47:12.000Z</time>
      </trkpt>
      <trkpt lat="45.56038" lon="6.56351">
        <ele>2263</ele>
        <time>2014-01-31T10:47:13.000Z</time>
      </trkpt>
      <trkpt lat="45.56038" lon="6.5635">
        <ele>2263.3999023438</ele>
        <time>2014-01-31T10:47:14.000Z</time>
      </trkpt>
      <trkpt lat="45.56039" lon="6.56349">
        <ele>2263.8000488281</ele>
        <time>2014-01-31T10:47:15.000Z</time>
      </trkpt>
      <trkpt lat="45.56039" lon="6.56348">
        <ele>2264</ele>
        <time>2014-01-31T10:47:16.000Z</time>
      </trkpt>
      <trkpt lat="45.56039" lon="6.56347">
        <ele>2264.1999511719</ele>
        <time>2014-01-31T10:47:17.000Z</time>
      </trkpt>
      <trkpt lat="45.5604" lon="6.56345">
        <ele>2264.1999511719</ele>
        <time>2014-01-31T10:47:18.000Z</time>
      </trkpt>
      <trkpt lat="45.5604" lon="6.56345">
        <ele>2264.3999023438</ele>
        <time>2014-01-31T10:47:19.000Z</time>
      </trkpt>
      <trkpt lat="45.56041" lon="6.56343">
        <ele>2264.3999023438</ele>
        <time>2014-01-31T10:47:20.000Z</time>
      </trkpt>
      <trkpt lat="45.56041" lon="6.56343">
        <ele>2264.6000976562</ele>
        <time>2014-01-31T10:47:21.000Z</time>
      </trkpt>
      <trkpt lat="45.56041" lon="6.56343">
        <ele>2264.6000976562</ele>
        <time>2014-01-31T10:47:22.000Z</time>
      </trkpt>
      <trkpt lat="45.56041" lon="6.56342">
        <ele>2265</ele>
        <time>2014-01-31T10:47:23.000Z</time>
      </trkpt>
      <trkpt lat="45.56041" lon="6.56341">
        <ele>2265</ele>
        <time>2014-01-31T10:47:24.000Z</time>
      </trkpt>
      <trkpt lat="45.56041" lon="6.56341">
        <ele>2265.3999023438</ele>
        <time>2014-01-31T10:47:25.000Z</time>
      </trkpt>
      <trkpt lat="45.56041" lon="6.5634">
        <ele>2265.6000976562</ele>
        <time>2014-01-31T10:47:26.000Z</time>
      </trkpt>
      <trkpt lat="45.56041" lon="6.5634">
        <ele>2266</ele>
        <time>2014-01-31T10:47:27.000Z</time>
      </trkpt>
      <trkpt lat="45.56041" lon="6.56339">
        <ele>2266.1999511719</ele>
        <time>2014-01-31T10:47:28.000Z</time>
      </trkpt>
      <trkpt lat="45.56041" lon="6.56338">
        <ele>2266.3999023438</ele>
        <time>2014-01-31T10:47:29.000Z</time>
      </trkpt>
      <trkpt lat="45.56041" lon="6.56337">
        <ele>2266.3999023438</ele>
        <time>2014-01-31T10:47:30.000Z</time>
      </trkpt>
      <trkpt lat="45.56041" lon="6.56337">
        <ele>2266.3999023438</ele>
        <time>2014-01-31T10:47:31.000Z</time>
      </trkpt>
      <trkpt lat="45.56041" lon="6.56337">
        <ele>2266.6000976562</ele>
        <time>2014-01-31T10:47:32.000Z</time>
      </trkpt>
      <trkpt lat="45.56041" lon="6.56336">
        <ele>2266.6000976562</ele>
        <time>2014-01-31T10:47:33.000Z</time>
      </trkpt>
      <trkpt lat="45.56041" lon="6.56335">
        <ele>2266.8000488281</ele>
        <time>2014-01-31T10:47:34.000Z</time>
      </trkpt>
      <trkpt lat="45.56041" lon="6.56335">
        <ele>2267</ele>
        <time>2014-01-31T10:47:35.000Z</time>
      </trkpt>
      <trkpt lat="45.56042" lon="6.56334">
        <ele>2267.1999511719</ele>
        <time>2014-01-31T10:47:36.000Z</time>
      </trkpt>
      <trkpt lat="45.56042" lon="6.56333">
        <ele>2267.1999511719</ele>
        <time>2014-01-31T10:47:37.000Z</time>
      </trkpt>
      <trkpt lat="45.56042" lon="6.56333">
        <ele>2267.3999023438</ele>
        <time>2014-01-31T10:47:38.000Z</time>
      </trkpt>
      <trkpt lat="45.56042" lon="6.56333">
        <ele>2267.3999023438</ele>
        <time>2014-01-31T10:47:39.000Z</time>
      </trkpt>
      <trkpt lat="45.56042" lon="6.56332">
        <ele>2267.3999023438</ele>
        <time>2014-01-31T10:47:40.000Z</time>
      </trkpt>
      <trkpt lat="45.56042" lon="6.56331">
        <ele>2267.6000976562</ele>
        <time>2014-01-31T10:47:41.000Z</time>
      </trkpt>
      <trkpt lat="45.56043" lon="6.5633">
        <ele>2267.6000976562</ele>
        <time>2014-01-31T10:47:42.000Z</time>
      </trkpt>
      <trkpt lat="45.56043" lon="6.5633">
        <ele>2267.8000488281</ele>
        <time>2014-01-31T10:47:43.000Z</time>
      </trkpt>
      <trkpt lat="45.56043" lon="6.56329">
        <ele>2268.1999511719</ele>
        <time>2014-01-31T10:47:44.000Z</time>
      </trkpt>
      <trkpt lat="45.56043" lon="6.56329">
        <ele>2268.1999511719</ele>
        <time>2014-01-31T10:47:45.000Z</time>
      </trkpt>
      <trkpt lat="45.56044" lon="6.56326">
        <ele>2268.3999023438</ele>
        <time>2014-01-31T10:47:46.000Z</time>
      </trkpt>
      <trkpt lat="45.56044" lon="6.56327">
        <ele>2268.3999023438</ele>
        <time>2014-01-31T10:47:47.000Z</time>
      </trkpt>
      <trkpt lat="45.56045" lon="6.56325">
        <ele>2268.3999023438</ele>
        <time>2014-01-31T10:47:48.000Z</time>
      </trkpt>
      <trkpt lat="45.56045" lon="6.56325">
        <ele>2268.6000976562</ele>
        <time>2014-01-31T10:47:49.000Z</time>
      </trkpt>
      <trkpt lat="45.56045" lon="6.56324">
        <ele>2268.8000488281</ele>
        <time>2014-01-31T10:47:50.000Z</time>
      </trkpt>
      <trkpt lat="45.56045" lon="6.56324">
        <ele>2269.1999511719</ele>
        <time>2014-01-31T10:47:51.000Z</time>
      </trkpt>
      <trkpt lat="45.56045" lon="6.56323">
        <ele>2269.3999023438</ele>
        <time>2014-01-31T10:47:52.000Z</time>
      </trkpt>
      <trkpt lat="45.56045" lon="6.56323">
        <ele>2269.3999023438</ele>
        <time>2014-01-31T10:47:53.000Z</time>
      </trkpt>
      <trkpt lat="45.56045" lon="6.56322">
        <ele>2269.3999023438</ele>
        <time>2014-01-31T10:47:54.000Z</time>
      </trkpt>
      <trkpt lat="45.56045" lon="6.56322">
        <ele>2269.6000976562</ele>
        <time>2014-01-31T10:47:55.000Z</time>
      </trkpt>
      <trkpt lat="45.56045" lon="6.56321">
        <ele>2269.8000488281</ele>
        <time>2014-01-31T10:47:56.000Z</time>
      </trkpt>
      <trkpt lat="45.56046" lon="6.56321">
        <ele>2270</ele>
        <time>2014-01-31T10:47:57.000Z</time>
      </trkpt>
      <trkpt lat="45.56045" lon="6.5632">
        <ele>2270.1999511719</ele>
        <time>2014-01-31T10:47:58.000Z</time>
      </trkpt>
      <trkpt lat="45.56046" lon="6.56318">
        <ele>2270.6000976562</ele>
        <time>2014-01-31T10:47:59.000Z</time>
      </trkpt>
      <trkpt lat="45.56046" lon="6.56318">
        <ele>2270.6000976562</ele>
        <time>2014-01-31T10:48:00.000Z</time>
      </trkpt>
      <trkpt lat="45.56046" lon="6.56317">
        <ele>2270.6000976562</ele>
        <time>2014-01-31T10:48:01.000Z</time>
      </trkpt>
      <trkpt lat="45.56046" lon="6.56317">
        <ele>2270.6000976562</ele>
        <time>2014-01-31T10:48:02.000Z</time>
      </trkpt>
      <trkpt lat="45.56046" lon="6.56316">
        <ele>2271</ele>
        <time>2014-01-31T10:48:03.000Z</time>
      </trkpt>
      <trkpt lat="45.56047" lon="6.56315">
        <ele>2271.1999511719</ele>
        <time>2014-01-31T10:48:04.000Z</time>
      </trkpt>
      <trkpt lat="45.56047" lon="6.56315">
        <ele>2271.6000976562</ele>
        <time>2014-01-31T10:48:05.000Z</time>
      </trkpt>
      <trkpt lat="45.56047" lon="6.56315">
        <ele>2272</ele>
        <time>2014-01-31T10:48:06.000Z</time>
      </trkpt>
      <trkpt lat="45.56048" lon="6.56314">
        <ele>2272.1999511719</ele>
        <time>2014-01-31T10:48:07.000Z</time>
      </trkpt>
      <trkpt lat="45.56048" lon="6.56314">
        <ele>2272.3999023438</ele>
        <time>2014-01-31T10:48:08.000Z</time>
      </trkpt>
      <trkpt lat="45.56049" lon="6.56313">
        <ele>2272.6000976562</ele>
        <time>2014-01-31T10:48:09.000Z</time>
      </trkpt>
      <trkpt lat="45.56049" lon="6.56312">
        <ele>2272.6000976562</ele>
        <time>2014-01-31T10:48:10.000Z</time>
      </trkpt>
      <trkpt lat="45.5605" lon="6.56312">
        <ele>2272.6000976562</ele>
        <time>2014-01-31T10:48:11.000Z</time>
      </trkpt>
      <trkpt lat="45.5605" lon="6.56311">
        <ele>2272.6000976562</ele>
        <time>2014-01-31T10:48:12.000Z</time>
      </trkpt>
      <trkpt lat="45.56051" lon="6.5631">
        <ele>2272.3999023438</ele>
        <time>2014-01-31T10:48:13.000Z</time>
      </trkpt>
      <trkpt lat="45.56051" lon="6.56309">
        <ele>2272.1999511719</ele>
        <time>2014-01-31T10:48:14.000Z</time>
      </trkpt>
      <trkpt lat="45.56052" lon="6.56308">
        <ele>2272.1999511719</ele>
        <time>2014-01-31T10:48:15.000Z</time>
      </trkpt>
      <trkpt lat="45.56053" lon="6.56308">
        <ele>2272</ele>
        <time>2014-01-31T10:48:16.000Z</time>
      </trkpt>
      <trkpt lat="45.56054" lon="6.56308">
        <ele>2272</ele>
        <time>2014-01-31T10:48:17.000Z</time>
      </trkpt>
      <trkpt lat="45.56055" lon="6.56308">
        <ele>2272</ele>
        <time>2014-01-31T10:48:18.000Z</time>
      </trkpt>
      <trkpt lat="45.56056" lon="6.56307">
        <ele>2272</ele>
        <time>2014-01-31T10:48:19.000Z</time>
      </trkpt>
      <trkpt lat="45.56057" lon="6.56307">
        <ele>2272</ele>
        <time>2014-01-31T10:48:20.000Z</time>
      </trkpt>
      <trkpt lat="45.56058" lon="6.56307">
        <ele>2272</ele>
        <time>2014-01-31T10:48:21.000Z</time>
      </trkpt>
      <trkpt lat="45.56058" lon="6.56307">
        <ele>2272.1999511719</ele>
        <time>2014-01-31T10:48:22.000Z</time>
      </trkpt>
      <trkpt lat="45.56059" lon="6.56306">
        <ele>2272.1999511719</ele>
        <time>2014-01-31T10:48:23.000Z</time>
      </trkpt>
      <trkpt lat="45.5606" lon="6.56305">
        <ele>2272.3999023438</ele>
        <time>2014-01-31T10:48:24.000Z</time>
      </trkpt>
      <trkpt lat="45.56062" lon="6.56304">
        <ele>2272.6000976562</ele>
        <time>2014-01-31T10:48:25.000Z</time>
      </trkpt>
      <trkpt lat="45.56063" lon="6.56303">
        <ele>2272.8000488281</ele>
        <time>2014-01-31T10:48:26.000Z</time>
      </trkpt>
      <trkpt lat="45.56063" lon="6.56302">
        <ele>2273</ele>
        <time>2014-01-31T10:48:27.000Z</time>
      </trkpt>
      <trkpt lat="45.56063" lon="6.56302">
        <ele>2273.1999511719</ele>
        <time>2014-01-31T10:48:28.000Z</time>
      </trkpt>
      <trkpt lat="45.56064" lon="6.56302">
        <ele>2273.1999511719</ele>
        <time>2014-01-31T10:48:29.000Z</time>
      </trkpt>
      <trkpt lat="45.56064" lon="6.56301">
        <ele>2273.3999023438</ele>
        <time>2014-01-31T10:48:30.000Z</time>
      </trkpt>
      <trkpt lat="45.56065" lon="6.56301">
        <ele>2273.3999023438</ele>
        <time>2014-01-31T10:48:32.000Z</time>
      </trkpt>
      <trkpt lat="45.56065" lon="6.56299">
        <ele>2273.3999023438</ele>
        <time>2014-01-31T10:48:33.000Z</time>
      </trkpt>
      <trkpt lat="45.56065" lon="6.56299">
        <ele>2273.6000976562</ele>
        <time>2014-01-31T10:48:34.000Z</time>
      </trkpt>
      <trkpt lat="45.56066" lon="6.56297">
        <ele>2273.6000976562</ele>
        <time>2014-01-31T10:48:35.000Z</time>
      </trkpt>
      <trkpt lat="45.56065" lon="6.56297">
        <ele>2274</ele>
        <time>2014-01-31T10:48:36.000Z</time>
      </trkpt>
      <trkpt lat="45.56065" lon="6.56297">
        <ele>2274</ele>
        <time>2014-01-31T10:48:37.000Z</time>
      </trkpt>
      <trkpt lat="45.56066" lon="6.56297">
        <ele>2274.3999023438</ele>
        <time>2014-01-31T10:48:38.000Z</time>
      </trkpt>
      <trkpt lat="45.56066" lon="6.56297">
        <ele>2274.6000976562</ele>
        <time>2014-01-31T10:48:39.000Z</time>
      </trkpt>
      <trkpt lat="45.56066" lon="6.56297">
        <ele>2275</ele>
        <time>2014-01-31T10:48:40.000Z</time>
      </trkpt>
      <trkpt lat="45.56066" lon="6.56297">
        <ele>2275</ele>
        <time>2014-01-31T10:48:41.000Z</time>
      </trkpt>
      <trkpt lat="45.56066" lon="6.56296">
        <ele>2275.1999511719</ele>
        <time>2014-01-31T10:48:42.000Z</time>
      </trkpt>
      <trkpt lat="45.56066" lon="6.56296">
        <ele>2275.3999023438</ele>
        <time>2014-01-31T10:48:43.000Z</time>
      </trkpt>
      <trkpt lat="45.56066" lon="6.56296">
        <ele>2275.6000976562</ele>
        <time>2014-01-31T10:48:44.000Z</time>
      </trkpt>
      <trkpt lat="45.56066" lon="6.56296">
        <ele>2275.6000976562</ele>
        <time>2014-01-31T10:48:45.000Z</time>
      </trkpt>
      <trkpt lat="45.56066" lon="6.56296">
        <ele>2275.8000488281</ele>
        <time>2014-01-31T10:48:46.000Z</time>
      </trkpt>
      <trkpt lat="45.56066" lon="6.56296">
        <ele>2276</ele>
        <time>2014-01-31T10:48:47.000Z</time>
      </trkpt>
      <trkpt lat="45.56066" lon="6.56296">
        <ele>2276</ele>
        <time>2014-01-31T10:48:48.000Z</time>
      </trkpt>
      <trkpt lat="45.56066" lon="6.56296">
        <ele>2276</ele>
        <time>2014-01-31T10:48:49.000Z</time>
      </trkpt>
      <trkpt lat="45.56066" lon="6.56295">
        <ele>2276</ele>
        <time>2014-01-31T10:48:50.000Z</time>
      </trkpt>
      <trkpt lat="45.56066" lon="6.56294">
        <ele>2276</ele>
        <time>2014-01-31T10:48:51.000Z</time>
      </trkpt>
      <trkpt lat="45.56066" lon="6.56294">
        <ele>2276</ele>
        <time>2014-01-31T10:48:53.000Z</time>
      </trkpt>
      <trkpt lat="45.56066" lon="6.56294">
        <ele>2276.1999511719</ele>
        <time>2014-01-31T10:48:54.000Z</time>
      </trkpt>
      <trkpt lat="45.56066" lon="6.56294">
        <ele>2276.3999023438</ele>
        <time>2014-01-31T10:48:55.000Z</time>
      </trkpt>
      <trkpt lat="45.56066" lon="6.56294">
        <ele>2276.6000976562</ele>
        <time>2014-01-31T10:48:56.000Z</time>
      </trkpt>
      <trkpt lat="45.56066" lon="6.56294">
        <ele>2276.6000976562</ele>
        <time>2014-01-31T10:48:57.000Z</time>
      </trkpt>
      <trkpt lat="45.56066" lon="6.56294">
        <ele>2276.8000488281</ele>
        <time>2014-01-31T10:48:58.000Z</time>
      </trkpt>
      <trkpt lat="45.56066" lon="6.56294">
        <ele>2276.8000488281</ele>
        <time>2014-01-31T10:48:59.000Z</time>
      </trkpt>
      <trkpt lat="45.56066" lon="6.56294">
        <ele>2276.8000488281</ele>
        <time>2014-01-31T10:49:00.000Z</time>
      </trkpt>
      <trkpt lat="45.56066" lon="6.56294">
        <ele>2276.8000488281</ele>
        <time>2014-01-31T10:49:01.000Z</time>
      </trkpt>
      <trkpt lat="45.56066" lon="6.56292">
        <ele>2276.8000488281</ele>
        <time>2014-01-31T10:49:02.000Z</time>
      </trkpt>
      <trkpt lat="45.56066" lon="6.56292">
        <ele>2276.8000488281</ele>
        <time>2014-01-31T10:49:03.000Z</time>
      </trkpt>
      <trkpt lat="45.56066" lon="6.5629">
        <ele>2276.8000488281</ele>
        <time>2014-01-31T10:49:04.000Z</time>
      </trkpt>
      <trkpt lat="45.56066" lon="6.56288">
        <ele>2276.6000976562</ele>
        <time>2014-01-31T10:49:05.000Z</time>
      </trkpt>
      <trkpt lat="45.56066" lon="6.56288">
        <ele>2276.6000976562</ele>
        <time>2014-01-31T10:49:06.000Z</time>
      </trkpt>
      <trkpt lat="45.56067" lon="6.56287">
        <ele>2276.6000976562</ele>
        <time>2014-01-31T10:49:07.000Z</time>
      </trkpt>
      <trkpt lat="45.56067" lon="6.56286">
        <ele>2276.6000976562</ele>
        <time>2014-01-31T10:49:09.000Z</time>
      </trkpt>
      <trkpt lat="45.56067" lon="6.56285">
        <ele>2276.8000488281</ele>
        <time>2014-01-31T10:49:10.000Z</time>
      </trkpt>
      <trkpt lat="45.56067" lon="6.56284">
        <ele>2277</ele>
        <time>2014-01-31T10:49:11.000Z</time>
      </trkpt>
      <trkpt lat="45.56069" lon="6.56284">
        <ele>2277.1999511719</ele>
        <time>2014-01-31T10:49:12.000Z</time>
      </trkpt>
      <trkpt lat="45.56067" lon="6.56282">
        <ele>2277.3999023438</ele>
        <time>2014-01-31T10:49:13.000Z</time>
      </trkpt>
      <trkpt lat="45.56068" lon="6.56281">
        <ele>2277.6000976562</ele>
        <time>2014-01-31T10:49:14.000Z</time>
      </trkpt>
      <trkpt lat="45.56068" lon="6.56282">
        <ele>2278</ele>
        <time>2014-01-31T10:49:15.000Z</time>
      </trkpt>
      <trkpt lat="45.56068" lon="6.56282">
        <ele>2278.3999023438</ele>
        <time>2014-01-31T10:49:16.000Z</time>
      </trkpt>
      <trkpt lat="45.56068" lon="6.56281">
        <ele>2278.6000976562</ele>
        <time>2014-01-31T10:49:17.000Z</time>
      </trkpt>
      <trkpt lat="45.56068" lon="6.56279">
        <ele>2278.8000488281</ele>
        <time>2014-01-31T10:49:18.000Z</time>
      </trkpt>
      <trkpt lat="45.56068" lon="6.56279">
        <ele>2278.8000488281</ele>
        <time>2014-01-31T10:49:19.000Z</time>
      </trkpt>
      <trkpt lat="45.56068" lon="6.56279">
        <ele>2279</ele>
        <time>2014-01-31T10:49:20.000Z</time>
      </trkpt>
      <trkpt lat="45.56068" lon="6.56279">
        <ele>2279</ele>
        <time>2014-01-31T10:49:21.000Z</time>
      </trkpt>
      <trkpt lat="45.56069" lon="6.56278">
        <ele>2279.1999511719</ele>
        <time>2014-01-31T10:49:22.000Z</time>
      </trkpt>
      <trkpt lat="45.56069" lon="6.56277">
        <ele>2279.3999023438</ele>
        <time>2014-01-31T10:49:23.000Z</time>
      </trkpt>
      <trkpt lat="45.5607" lon="6.56275">
        <ele>2279.6000976562</ele>
        <time>2014-01-31T10:49:24.000Z</time>
      </trkpt>
      <trkpt lat="45.5607" lon="6.56275">
        <ele>2279.8000488281</ele>
        <time>2014-01-31T10:49:25.000Z</time>
      </trkpt>
      <trkpt lat="45.5607" lon="6.56273">
        <ele>2279.8000488281</ele>
        <time>2014-01-31T10:49:26.000Z</time>
      </trkpt>
      <trkpt lat="45.5607" lon="6.56273">
        <ele>2280</ele>
        <time>2014-01-31T10:49:27.000Z</time>
      </trkpt>
      <trkpt lat="45.56071" lon="6.56271">
        <ele>2280</ele>
        <time>2014-01-31T10:49:28.000Z</time>
      </trkpt>
      <trkpt lat="45.56071" lon="6.56271">
        <ele>2280.1999511719</ele>
        <time>2014-01-31T10:49:29.000Z</time>
      </trkpt>
      <trkpt lat="45.56072" lon="6.56269">
        <ele>2280.3999023438</ele>
        <time>2014-01-31T10:49:30.000Z</time>
      </trkpt>
      <trkpt lat="45.56071" lon="6.56269">
        <ele>2280.3999023438</ele>
        <time>2014-01-31T10:49:31.000Z</time>
      </trkpt>
      <trkpt lat="45.56072" lon="6.56268">
        <ele>2280.6000976562</ele>
        <time>2014-01-31T10:49:32.000Z</time>
      </trkpt>
      <trkpt lat="45.56072" lon="6.56267">
        <ele>2281</ele>
        <time>2014-01-31T10:49:33.000Z</time>
      </trkpt>
      <trkpt lat="45.56072" lon="6.56267">
        <ele>2281.1999511719</ele>
        <time>2014-01-31T10:49:34.000Z</time>
      </trkpt>
      <trkpt lat="45.56072" lon="6.56266">
        <ele>2281.8000488281</ele>
        <time>2014-01-31T10:49:35.000Z</time>
      </trkpt>
      <trkpt lat="45.56072" lon="6.56266">
        <ele>2282.1999511719</ele>
        <time>2014-01-31T10:49:36.000Z</time>
      </trkpt>
      <trkpt lat="45.56072" lon="6.56266">
        <ele>2282.3999023438</ele>
        <time>2014-01-31T10:49:37.000Z</time>
      </trkpt>
      <trkpt lat="45.56072" lon="6.56266">
        <ele>2282.6000976562</ele>
        <time>2014-01-31T10:49:38.000Z</time>
      </trkpt>
      <trkpt lat="45.56072" lon="6.56266">
        <ele>2282.6000976562</ele>
        <time>2014-01-31T10:49:39.000Z</time>
      </trkpt>
      <trkpt lat="45.56072" lon="6.56266">
        <ele>2282.6000976562</ele>
        <time>2014-01-31T10:49:40.000Z</time>
      </trkpt>
      <trkpt lat="45.56072" lon="6.56266">
        <ele>2282.6000976562</ele>
        <time>2014-01-31T10:49:41.000Z</time>
      </trkpt>
      <trkpt lat="45.56072" lon="6.56266">
        <ele>2282.6000976562</ele>
        <time>2014-01-31T10:49:42.000Z</time>
      </trkpt>
      <trkpt lat="45.56072" lon="6.56266">
        <ele>2282.6000976562</ele>
        <time>2014-01-31T10:49:43.000Z</time>
      </trkpt>
      <trkpt lat="45.56072" lon="6.56266">
        <ele>2282.3999023438</ele>
        <time>2014-01-31T10:49:44.000Z</time>
      </trkpt>
      <trkpt lat="45.56072" lon="6.56266">
        <ele>2282.3999023438</ele>
        <time>2014-01-31T10:49:45.000Z</time>
      </trkpt>
      <trkpt lat="45.56072" lon="6.56266">
        <ele>2282.3999023438</ele>
        <time>2014-01-31T10:49:46.000Z</time>
      </trkpt>
      <trkpt lat="45.56072" lon="6.56266">
        <ele>2282.3999023438</ele>
        <time>2014-01-31T10:49:47.000Z</time>
      </trkpt>
      <trkpt lat="45.56072" lon="6.56266">
        <ele>2282.3999023438</ele>
        <time>2014-01-31T10:49:48.000Z</time>
      </trkpt>
      <trkpt lat="45.56072" lon="6.56266">
        <ele>2282.3999023438</ele>
        <time>2014-01-31T10:49:49.000Z</time>
      </trkpt>
      <trkpt lat="45.56072" lon="6.56266">
        <ele>2282.3999023438</ele>
        <time>2014-01-31T10:49:50.000Z</time>
      </trkpt>
      <trkpt lat="45.56072" lon="6.56266">
        <ele>2282.3999023438</ele>
        <time>2014-01-31T10:49:51.000Z</time>
      </trkpt>
      <trkpt lat="45.56072" lon="6.56266">
        <ele>2282.3999023438</ele>
        <time>2014-01-31T10:49:52.000Z</time>
      </trkpt>
      <trkpt lat="45.56072" lon="6.56266">
        <ele>2282.6000976562</ele>
        <time>2014-01-31T10:49:53.000Z</time>
      </trkpt>
      <trkpt lat="45.56072" lon="6.56266">
        <ele>2282.6000976562</ele>
        <time>2014-01-31T10:49:54.000Z</time>
      </trkpt>
      <trkpt lat="45.56072" lon="6.56266">
        <ele>2282.6000976562</ele>
        <time>2014-01-31T10:49:55.000Z</time>
      </trkpt>
      <trkpt lat="45.56072" lon="6.56266">
        <ele>2282.6000976562</ele>
        <time>2014-01-31T10:49:56.000Z</time>
      </trkpt>
      <trkpt lat="45.56072" lon="6.56266">
        <ele>2282.6000976562</ele>
        <time>2014-01-31T10:49:57.000Z</time>
      </trkpt>
      <trkpt lat="45.56072" lon="6.56266">
        <ele>2282.6000976562</ele>
        <time>2014-01-31T10:50:01.000Z</time>
      </trkpt>
      <trkpt lat="45.56072" lon="6.56266">
        <ele>2282.6000976562</ele>
        <time>2014-01-31T10:50:02.000Z</time>
      </trkpt>
      <trkpt lat="45.56072" lon="6.56265">
        <ele>2282.6000976562</ele>
        <time>2014-01-31T10:50:03.000Z</time>
      </trkpt>
      <trkpt lat="45.56072" lon="6.56261">
        <ele>2282.6000976562</ele>
        <time>2014-01-31T10:50:05.000Z</time>
      </trkpt>
      <trkpt lat="45.56072" lon="6.5626">
        <ele>2282.8000488281</ele>
        <time>2014-01-31T10:50:06.000Z</time>
      </trkpt>
      <trkpt lat="45.56072" lon="6.56259">
        <ele>2283</ele>
        <time>2014-01-31T10:50:07.000Z</time>
      </trkpt>
      <trkpt lat="45.56072" lon="6.56257">
        <ele>2283.1999511719</ele>
        <time>2014-01-31T10:50:08.000Z</time>
      </trkpt>
      <trkpt lat="45.56072" lon="6.56257">
        <ele>2283.1999511719</ele>
        <time>2014-01-31T10:50:09.000Z</time>
      </trkpt>
      <trkpt lat="45.56073" lon="6.56255">
        <ele>2283.1999511719</ele>
        <time>2014-01-31T10:50:10.000Z</time>
      </trkpt>
      <trkpt lat="45.56073" lon="6.56254">
        <ele>2283.1999511719</ele>
        <time>2014-01-31T10:50:11.000Z</time>
      </trkpt>
      <trkpt lat="45.56073" lon="6.56255">
        <ele>2283.1999511719</ele>
        <time>2014-01-31T10:50:12.000Z</time>
      </trkpt>
      <trkpt lat="45.56074" lon="6.56253">
        <ele>2283.1999511719</ele>
        <time>2014-01-31T10:50:13.000Z</time>
      </trkpt>
      <trkpt lat="45.56074" lon="6.56251">
        <ele>2283.3999023438</ele>
        <time>2014-01-31T10:50:14.000Z</time>
      </trkpt>
      <trkpt lat="45.56074" lon="6.56251">
        <ele>2283.8000488281</ele>
        <time>2014-01-31T10:50:15.000Z</time>
      </trkpt>
      <trkpt lat="45.56075" lon="6.56249">
        <ele>2284.1999511719</ele>
        <time>2014-01-31T10:50:16.000Z</time>
      </trkpt>
      <trkpt lat="45.56075" lon="6.56249">
        <ele>2284.3999023438</ele>
        <time>2014-01-31T10:50:17.000Z</time>
      </trkpt>
      <trkpt lat="45.56075" lon="6.56248">
        <ele>2284.6000976562</ele>
        <time>2014-01-31T10:50:18.000Z</time>
      </trkpt>
      <trkpt lat="45.56076" lon="6.56246">
        <ele>2284.8000488281</ele>
        <time>2014-01-31T10:50:19.000Z</time>
      </trkpt>
      <trkpt lat="45.56076" lon="6.56245">
        <ele>2285.1999511719</ele>
        <time>2014-01-31T10:50:20.000Z</time>
      </trkpt>
      <trkpt lat="45.56076" lon="6.56245">
        <ele>2285.3999023438</ele>
        <time>2014-01-31T10:50:21.000Z</time>
      </trkpt>
      <trkpt lat="45.56078" lon="6.56242">
        <ele>2285.6000976562</ele>
        <time>2014-01-31T10:50:22.000Z</time>
      </trkpt>
      <trkpt lat="45.56078" lon="6.56241">
        <ele>2286</ele>
        <time>2014-01-31T10:50:23.000Z</time>
      </trkpt>
      <trkpt lat="45.56078" lon="6.56242">
        <ele>2286.3999023438</ele>
        <time>2014-01-31T10:50:24.000Z</time>
      </trkpt>
      <trkpt lat="45.56079" lon="6.56241">
        <ele>2286.8000488281</ele>
        <time>2014-01-31T10:50:25.000Z</time>
      </trkpt>
      <trkpt lat="45.56079" lon="6.5624">
        <ele>2287</ele>
        <time>2014-01-31T10:50:26.000Z</time>
      </trkpt>
      <trkpt lat="45.56079" lon="6.5624">
        <ele>2287.3999023438</ele>
        <time>2014-01-31T10:50:27.000Z</time>
      </trkpt>
      <trkpt lat="45.56079" lon="6.56239">
        <ele>2287.6000976562</ele>
        <time>2014-01-31T10:50:28.000Z</time>
      </trkpt>
      <trkpt lat="45.56079" lon="6.56239">
        <ele>2287.6000976562</ele>
        <time>2014-01-31T10:50:29.000Z</time>
      </trkpt>
      <trkpt lat="45.5608" lon="6.56239">
        <ele>2288</ele>
        <time>2014-01-31T10:50:30.000Z</time>
      </trkpt>
      <trkpt lat="45.5608" lon="6.56238">
        <ele>2288.1999511719</ele>
        <time>2014-01-31T10:50:31.000Z</time>
      </trkpt>
      <trkpt lat="45.5608" lon="6.56237">
        <ele>2288.3999023438</ele>
        <time>2014-01-31T10:50:32.000Z</time>
      </trkpt>
      <trkpt lat="45.56081" lon="6.56237">
        <ele>2288.6000976562</ele>
        <time>2014-01-31T10:50:33.000Z</time>
      </trkpt>
      <trkpt lat="45.56082" lon="6.56235">
        <ele>2288.8000488281</ele>
        <time>2014-01-31T10:50:34.000Z</time>
      </trkpt>
      <trkpt lat="45.56082" lon="6.56235">
        <ele>2289</ele>
        <time>2014-01-31T10:50:35.000Z</time>
      </trkpt>
      <trkpt lat="45.56082" lon="6.56233">
        <ele>2289.1999511719</ele>
        <time>2014-01-31T10:50:36.000Z</time>
      </trkpt>
      <trkpt lat="45.56082" lon="6.56232">
        <ele>2289.3999023438</ele>
        <time>2014-01-31T10:50:37.000Z</time>
      </trkpt>
      <trkpt lat="45.56082" lon="6.56232">
        <ele>2289.8000488281</ele>
        <time>2014-01-31T10:50:38.000Z</time>
      </trkpt>
      <trkpt lat="45.56083" lon="6.56231">
        <ele>2290.1999511719</ele>
        <time>2014-01-31T10:50:39.000Z</time>
      </trkpt>
      <trkpt lat="45.56082" lon="6.56231">
        <ele>2290.3999023438</ele>
        <time>2014-01-31T10:50:40.000Z</time>
      </trkpt>
      <trkpt lat="45.56083" lon="6.5623">
        <ele>2290.6000976562</ele>
        <time>2014-01-31T10:50:41.000Z</time>
      </trkpt>
      <trkpt lat="45.56083" lon="6.56229">
        <ele>2290.6000976562</ele>
        <time>2014-01-31T10:50:42.000Z</time>
      </trkpt>
      <trkpt lat="45.56083" lon="6.56229">
        <ele>2290.8000488281</ele>
        <time>2014-01-31T10:50:43.000Z</time>
      </trkpt>
      <trkpt lat="45.56084" lon="6.56228">
        <ele>2291</ele>
        <time>2014-01-31T10:50:44.000Z</time>
      </trkpt>
      <trkpt lat="45.56084" lon="6.56227">
        <ele>2291.3999023438</ele>
        <time>2014-01-31T10:50:45.000Z</time>
      </trkpt>
      <trkpt lat="45.56085" lon="6.56227">
        <ele>2291.8000488281</ele>
        <time>2014-01-31T10:50:46.000Z</time>
      </trkpt>
      <trkpt lat="45.56085" lon="6.56226">
        <ele>2292.6000976562</ele>
        <time>2014-01-31T10:50:47.000Z</time>
      </trkpt>
      <trkpt lat="45.56085" lon="6.56226">
        <ele>2292.8000488281</ele>
        <time>2014-01-31T10:50:48.000Z</time>
      </trkpt>
      <trkpt lat="45.56085" lon="6.56226">
        <ele>2293</ele>
        <time>2014-01-31T10:50:49.000Z</time>
      </trkpt>
      <trkpt lat="45.56086" lon="6.56225">
        <ele>2293.1999511719</ele>
        <time>2014-01-31T10:50:50.000Z</time>
      </trkpt>
      <trkpt lat="45.56086" lon="6.56225">
        <ele>2293.1999511719</ele>
        <time>2014-01-31T10:50:51.000Z</time>
      </trkpt>
      <trkpt lat="45.56086" lon="6.56225">
        <ele>2293.3999023438</ele>
        <time>2014-01-31T10:50:52.000Z</time>
      </trkpt>
      <trkpt lat="45.56086" lon="6.56225">
        <ele>2293.8000488281</ele>
        <time>2014-01-31T10:50:53.000Z</time>
      </trkpt>
      <trkpt lat="45.56086" lon="6.56225">
        <ele>2294</ele>
        <time>2014-01-31T10:50:54.000Z</time>
      </trkpt>
      <trkpt lat="45.56086" lon="6.56225">
        <ele>2294.1999511719</ele>
        <time>2014-01-31T10:50:55.000Z</time>
      </trkpt>
      <trkpt lat="45.56086" lon="6.56225">
        <ele>2294.1999511719</ele>
        <time>2014-01-31T10:50:56.000Z</time>
      </trkpt>
      <trkpt lat="45.56086" lon="6.56225">
        <ele>2294.1999511719</ele>
        <time>2014-01-31T10:50:57.000Z</time>
      </trkpt>
      <trkpt lat="45.56086" lon="6.56225">
        <ele>2294.1999511719</ele>
        <time>2014-01-31T10:50:58.000Z</time>
      </trkpt>
      <trkpt lat="45.56086" lon="6.56225">
        <ele>2294.1999511719</ele>
        <time>2014-01-31T10:50:59.000Z</time>
      </trkpt>
      <trkpt lat="45.56086" lon="6.56225">
        <ele>2294.1999511719</ele>
        <time>2014-01-31T10:51:00.000Z</time>
      </trkpt>
      <trkpt lat="45.56086" lon="6.56225">
        <ele>2294.1999511719</ele>
        <time>2014-01-31T10:51:01.000Z</time>
      </trkpt>
      <trkpt lat="45.56087" lon="6.56224">
        <ele>2294</ele>
        <time>2014-01-31T10:51:02.000Z</time>
      </trkpt>
      <trkpt lat="45.56088" lon="6.56224">
        <ele>2294.1999511719</ele>
        <time>2014-01-31T10:51:03.000Z</time>
      </trkpt>
      <trkpt lat="45.56089" lon="6.56223">
        <ele>2294.3999023438</ele>
        <time>2014-01-31T10:51:04.000Z</time>
      </trkpt>
      <trkpt lat="45.5609" lon="6.56222">
        <ele>2294.3999023438</ele>
        <time>2014-01-31T10:51:05.000Z</time>
      </trkpt>
      <trkpt lat="45.5609" lon="6.56222">
        <ele>2294.3999023438</ele>
        <time>2014-01-31T10:51:06.000Z</time>
      </trkpt>
      <trkpt lat="45.56091" lon="6.56221">
        <ele>2294.3999023438</ele>
        <time>2014-01-31T10:51:07.000Z</time>
      </trkpt>
      <trkpt lat="45.56091" lon="6.5622">
        <ele>2294.3999023438</ele>
        <time>2014-01-31T10:51:08.000Z</time>
      </trkpt>
      <trkpt lat="45.56091" lon="6.5622">
        <ele>2294.3999023438</ele>
        <time>2014-01-31T10:51:09.000Z</time>
      </trkpt>
      <trkpt lat="45.56091" lon="6.56219">
        <ele>2294.3999023438</ele>
        <time>2014-01-31T10:51:10.000Z</time>
      </trkpt>
      <trkpt lat="45.56091" lon="6.56219">
        <ele>2294.3999023438</ele>
        <time>2014-01-31T10:51:11.000Z</time>
      </trkpt>
      <trkpt lat="45.56091" lon="6.56219">
        <ele>2294.3999023438</ele>
        <time>2014-01-31T10:51:14.000Z</time>
      </trkpt>
      <trkpt lat="45.56091" lon="6.56219">
        <ele>2294.3999023438</ele>
        <time>2014-01-31T10:51:15.000Z</time>
      </trkpt>
      <trkpt lat="45.56091" lon="6.56219">
        <ele>2294.1999511719</ele>
        <time>2014-01-31T10:51:16.000Z</time>
      </trkpt>
      <trkpt lat="45.56091" lon="6.56219">
        <ele>2294.1999511719</ele>
        <time>2014-01-31T10:51:17.000Z</time>
      </trkpt>
      <trkpt lat="45.56091" lon="6.56219">
        <ele>2294.1999511719</ele>
        <time>2014-01-31T10:51:18.000Z</time>
      </trkpt>
      <trkpt lat="45.56091" lon="6.56219">
        <ele>2294.1999511719</ele>
        <time>2014-01-31T10:51:19.000Z</time>
      </trkpt>
      <trkpt lat="45.56091" lon="6.56219">
        <ele>2294.1999511719</ele>
        <time>2014-01-31T10:51:20.000Z</time>
      </trkpt>
      <trkpt lat="45.56091" lon="6.56219">
        <ele>2294.1999511719</ele>
        <time>2014-01-31T10:51:21.000Z</time>
      </trkpt>
      <trkpt lat="45.56091" lon="6.56219">
        <ele>2294.1999511719</ele>
        <time>2014-01-31T10:51:22.000Z</time>
      </trkpt>
      <trkpt lat="45.56091" lon="6.56219">
        <ele>2294.1999511719</ele>
        <time>2014-01-31T10:51:23.000Z</time>
      </trkpt>
      <trkpt lat="45.56091" lon="6.56219">
        <ele>2294.1999511719</ele>
        <time>2014-01-31T10:51:24.000Z</time>
      </trkpt>
      <trkpt lat="45.56091" lon="6.56219">
        <ele>2294.1999511719</ele>
        <time>2014-01-31T10:51:25.000Z</time>
      </trkpt>
      <trkpt lat="45.56091" lon="6.56219">
        <ele>2294.1999511719</ele>
        <time>2014-01-31T10:51:26.000Z</time>
      </trkpt>
      <trkpt lat="45.56091" lon="6.56219">
        <ele>2294.1999511719</ele>
        <time>2014-01-31T10:51:27.000Z</time>
      </trkpt>
      <trkpt lat="45.56091" lon="6.56219">
        <ele>2294.1999511719</ele>
        <time>2014-01-31T10:51:28.000Z</time>
      </trkpt>
      <trkpt lat="45.56091" lon="6.56219">
        <ele>2294.1999511719</ele>
        <time>2014-01-31T10:51:29.000Z</time>
      </trkpt>
      <trkpt lat="45.56091" lon="6.56219">
        <ele>2294</ele>
        <time>2014-01-31T10:51:30.000Z</time>
      </trkpt>
      <trkpt lat="45.56091" lon="6.56219">
        <ele>2294</ele>
        <time>2014-01-31T10:51:31.000Z</time>
      </trkpt>
      <trkpt lat="45.56091" lon="6.56219">
        <ele>2294.1999511719</ele>
        <time>2014-01-31T10:51:32.000Z</time>
      </trkpt>
      <trkpt lat="45.56091" lon="6.56219">
        <ele>2294.1999511719</ele>
        <time>2014-01-31T10:51:33.000Z</time>
      </trkpt>
      <trkpt lat="45.5609" lon="6.56219">
        <ele>2294.1999511719</ele>
        <time>2014-01-31T10:51:34.000Z</time>
      </trkpt>
      <trkpt lat="45.56089" lon="6.56219">
        <ele>2294.6000976562</ele>
        <time>2014-01-31T10:51:35.000Z</time>
      </trkpt>
      <trkpt lat="45.56087" lon="6.5622">
        <ele>2294.8000488281</ele>
        <time>2014-01-31T10:51:36.000Z</time>
      </trkpt>
      <trkpt lat="45.56086" lon="6.5622">
        <ele>2294.8000488281</ele>
        <time>2014-01-31T10:51:37.000Z</time>
      </trkpt>
      <trkpt lat="45.56085" lon="6.56221">
        <ele>2294.8000488281</ele>
        <time>2014-01-31T10:51:38.000Z</time>
      </trkpt>
      <trkpt lat="45.56085" lon="6.56221">
        <ele>2295</ele>
        <time>2014-01-31T10:51:39.000Z</time>
      </trkpt>
      <trkpt lat="45.56085" lon="6.56221">
        <ele>2294.8000488281</ele>
        <time>2014-01-31T10:51:42.000Z</time>
      </trkpt>
      <trkpt lat="45.56085" lon="6.56221">
        <ele>2294.8000488281</ele>
        <time>2014-01-31T10:51:43.000Z</time>
      </trkpt>
      <trkpt lat="45.56085" lon="6.56221">
        <ele>2294.6000976562</ele>
        <time>2014-01-31T10:51:44.000Z</time>
      </trkpt>
      <trkpt lat="45.56085" lon="6.56221">
        <ele>2294.3999023438</ele>
        <time>2014-01-31T10:51:45.000Z</time>
      </trkpt>
      <trkpt lat="45.56085" lon="6.56221">
        <ele>2294.1999511719</ele>
        <time>2014-01-31T10:51:46.000Z</time>
      </trkpt>
      <trkpt lat="45.56085" lon="6.56221">
        <ele>2294.3999023438</ele>
        <time>2014-01-31T10:51:47.000Z</time>
      </trkpt>
      <trkpt lat="45.56085" lon="6.56221">
        <ele>2294.3999023438</ele>
        <time>2014-01-31T10:51:48.000Z</time>
      </trkpt>
      <trkpt lat="45.56085" lon="6.56221">
        <ele>2294.8000488281</ele>
        <time>2014-01-31T10:51:49.000Z</time>
      </trkpt>
      <trkpt lat="45.56085" lon="6.56221">
        <ele>2295</ele>
        <time>2014-01-31T10:51:50.000Z</time>
      </trkpt>
      <trkpt lat="45.56085" lon="6.56221">
        <ele>2295</ele>
        <time>2014-01-31T10:51:51.000Z</time>
      </trkpt>
      <trkpt lat="45.56085" lon="6.56221">
        <ele>2295</ele>
        <time>2014-01-31T10:51:52.000Z</time>
      </trkpt>
      <trkpt lat="45.56085" lon="6.56221">
        <ele>2294.8000488281</ele>
        <time>2014-01-31T10:51:53.000Z</time>
      </trkpt>
      <trkpt lat="45.56085" lon="6.56221">
        <ele>2294.8000488281</ele>
        <time>2014-01-31T10:51:54.000Z</time>
      </trkpt>
      <trkpt lat="45.56085" lon="6.56221">
        <ele>2294.6000976562</ele>
        <time>2014-01-31T10:51:55.000Z</time>
      </trkpt>
      <trkpt lat="45.56085" lon="6.56221">
        <ele>2294.3999023438</ele>
        <time>2014-01-31T10:51:56.000Z</time>
      </trkpt>
      <trkpt lat="45.56085" lon="6.56221">
        <ele>2294.3999023438</ele>
        <time>2014-01-31T10:51:57.000Z</time>
      </trkpt>
      <trkpt lat="45.56085" lon="6.56221">
        <ele>2294.3999023438</ele>
        <time>2014-01-31T10:51:58.000Z</time>
      </trkpt>
      <trkpt lat="45.56085" lon="6.56221">
        <ele>2294</ele>
        <time>2014-01-31T10:51:59.000Z</time>
      </trkpt>
      <trkpt lat="45.56085" lon="6.56221">
        <ele>2293.8000488281</ele>
        <time>2014-01-31T10:52:00.000Z</time>
      </trkpt>
      <trkpt lat="45.56085" lon="6.56221">
        <ele>2293.8000488281</ele>
        <time>2014-01-31T10:52:01.000Z</time>
      </trkpt>
      <trkpt lat="45.56085" lon="6.56221">
        <ele>2293.8000488281</ele>
        <time>2014-01-31T10:52:02.000Z</time>
      </trkpt>
      <trkpt lat="45.56085" lon="6.56221">
        <ele>2294</ele>
        <time>2014-01-31T10:52:04.000Z</time>
      </trkpt>
      <trkpt lat="45.56085" lon="6.56221">
        <ele>2294.1999511719</ele>
        <time>2014-01-31T10:52:05.000Z</time>
      </trkpt>
      <trkpt lat="45.56085" lon="6.56221">
        <ele>2294.3999023438</ele>
        <time>2014-01-31T10:52:06.000Z</time>
      </trkpt>
      <trkpt lat="45.56085" lon="6.56221">
        <ele>2294.6000976562</ele>
        <time>2014-01-31T10:52:07.000Z</time>
      </trkpt>
      <trkpt lat="45.56085" lon="6.56221">
        <ele>2294.6000976562</ele>
        <time>2014-01-31T10:52:08.000Z</time>
      </trkpt>
      <trkpt lat="45.56085" lon="6.56221">
        <ele>2294.6000976562</ele>
        <time>2014-01-31T10:52:09.000Z</time>
      </trkpt>
      <trkpt lat="45.56085" lon="6.56221">
        <ele>2294.3999023438</ele>
        <time>2014-01-31T10:52:10.000Z</time>
      </trkpt>
      <trkpt lat="45.56085" lon="6.56221">
        <ele>2294.3999023438</ele>
        <time>2014-01-31T10:52:11.000Z</time>
      </trkpt>
      <trkpt lat="45.56085" lon="6.56221">
        <ele>2294.3999023438</ele>
        <time>2014-01-31T10:52:12.000Z</time>
      </trkpt>
      <trkpt lat="45.56085" lon="6.56221">
        <ele>2294.3999023438</ele>
        <time>2014-01-31T10:52:13.000Z</time>
      </trkpt>
      <trkpt lat="45.56085" lon="6.56221">
        <ele>2294.3999023438</ele>
        <time>2014-01-31T10:52:14.000Z</time>
      </trkpt>
      <trkpt lat="45.56085" lon="6.56221">
        <ele>2294.1999511719</ele>
        <time>2014-01-31T10:52:15.000Z</time>
      </trkpt>
      <trkpt lat="45.56085" lon="6.56221">
        <ele>2294.1999511719</ele>
        <time>2014-01-31T10:52:16.000Z</time>
      </trkpt>
      <trkpt lat="45.56085" lon="6.56221">
        <ele>2294.1999511719</ele>
        <time>2014-01-31T10:52:17.000Z</time>
      </trkpt>
      <trkpt lat="45.56085" lon="6.56221">
        <ele>2294.3999023438</ele>
        <time>2014-01-31T10:52:18.000Z</time>
      </trkpt>
      <trkpt lat="45.56085" lon="6.56221">
        <ele>2294.3999023438</ele>
        <time>2014-01-31T10:52:19.000Z</time>
      </trkpt>
      <trkpt lat="45.56085" lon="6.56221">
        <ele>2294.3999023438</ele>
        <time>2014-01-31T10:52:20.000Z</time>
      </trkpt>
      <trkpt lat="45.56085" lon="6.56221">
        <ele>2294.1999511719</ele>
        <time>2014-01-31T10:52:23.000Z</time>
      </trkpt>
      <trkpt lat="45.56085" lon="6.56221">
        <ele>2294.1999511719</ele>
        <time>2014-01-31T10:52:24.000Z</time>
      </trkpt>
      <trkpt lat="45.56085" lon="6.56221">
        <ele>2294.1999511719</ele>
        <time>2014-01-31T10:52:25.000Z</time>
      </trkpt>
      <trkpt lat="45.56085" lon="6.56221">
        <ele>2294.1999511719</ele>
        <time>2014-01-31T10:52:26.000Z</time>
      </trkpt>
      <trkpt lat="45.56085" lon="6.56221">
        <ele>2294.1999511719</ele>
        <time>2014-01-31T10:52:27.000Z</time>
      </trkpt>
      <trkpt lat="45.56085" lon="6.56221">
        <ele>2294.1999511719</ele>
        <time>2014-01-31T10:52:28.000Z</time>
      </trkpt>
      <trkpt lat="45.56085" lon="6.56221">
        <ele>2294.1999511719</ele>
        <time>2014-01-31T10:52:29.000Z</time>
      </trkpt>
      <trkpt lat="45.56085" lon="6.56221">
        <ele>2294.3999023438</ele>
        <time>2014-01-31T10:52:30.000Z</time>
      </trkpt>
      <trkpt lat="45.56085" lon="6.56221">
        <ele>2294.3999023438</ele>
        <time>2014-01-31T10:52:31.000Z</time>
      </trkpt>
      <trkpt lat="45.56085" lon="6.56221">
        <ele>2294.3999023438</ele>
        <time>2014-01-31T10:52:33.000Z</time>
      </trkpt>
      <trkpt lat="45.56085" lon="6.56221">
        <ele>2294.1999511719</ele>
        <time>2014-01-31T10:52:34.000Z</time>
      </trkpt>
      <trkpt lat="45.56085" lon="6.56221">
        <ele>2294.1999511719</ele>
        <time>2014-01-31T10:52:37.000Z</time>
      </trkpt>
      <trkpt lat="45.56085" lon="6.56221">
        <ele>2294.3999023438</ele>
        <time>2014-01-31T10:52:39.000Z</time>
      </trkpt>
      <trkpt lat="45.56085" lon="6.56221">
        <ele>2294.3999023438</ele>
        <time>2014-01-31T10:52:40.000Z</time>
      </trkpt>
      <trkpt lat="45.56085" lon="6.56221">
        <ele>2294.3999023438</ele>
        <time>2014-01-31T10:52:41.000Z</time>
      </trkpt>
      <trkpt lat="45.56085" lon="6.56221">
        <ele>2294.1999511719</ele>
        <time>2014-01-31T10:52:42.000Z</time>
      </trkpt>
      <trkpt lat="45.56085" lon="6.56221">
        <ele>2294.1999511719</ele>
        <time>2014-01-31T10:52:43.000Z</time>
      </trkpt>
      <trkpt lat="45.56085" lon="6.56221">
        <ele>2294.1999511719</ele>
        <time>2014-01-31T10:52:44.000Z</time>
      </trkpt>
      <trkpt lat="45.56085" lon="6.56221">
        <ele>2294</ele>
        <time>2014-01-31T10:52:45.000Z</time>
      </trkpt>
      <trkpt lat="45.56085" lon="6.56221">
        <ele>2294.1999511719</ele>
        <time>2014-01-31T10:52:47.000Z</time>
      </trkpt>
      <trkpt lat="45.56085" lon="6.56221">
        <ele>2294.1999511719</ele>
        <time>2014-01-31T10:52:48.000Z</time>
      </trkpt>
      <trkpt lat="45.56085" lon="6.56221">
        <ele>2294.1999511719</ele>
        <time>2014-01-31T10:52:49.000Z</time>
      </trkpt>
      <trkpt lat="45.56085" lon="6.56221">
        <ele>2294.3999023438</ele>
        <time>2014-01-31T10:52:50.000Z</time>
      </trkpt>
      <trkpt lat="45.56085" lon="6.56221">
        <ele>2294.3999023438</ele>
        <time>2014-01-31T10:52:51.000Z</time>
      </trkpt>
      <trkpt lat="45.56085" lon="6.56221">
        <ele>2294.6000976562</ele>
        <time>2014-01-31T10:52:52.000Z</time>
      </trkpt>
      <trkpt lat="45.56085" lon="6.56221">
        <ele>2294.8000488281</ele>
        <time>2014-01-31T10:52:53.000Z</time>
      </trkpt>
      <trkpt lat="45.56085" lon="6.56221">
        <ele>2294.8000488281</ele>
        <time>2014-01-31T10:52:54.000Z</time>
      </trkpt>
      <trkpt lat="45.56085" lon="6.56221">
        <ele>2294.8000488281</ele>
        <time>2014-01-31T10:52:55.000Z</time>
      </trkpt>
      <trkpt lat="45.56085" lon="6.56221">
        <ele>2294.8000488281</ele>
        <time>2014-01-31T10:52:56.000Z</time>
      </trkpt>
      <trkpt lat="45.56085" lon="6.56221">
        <ele>2294.6000976562</ele>
        <time>2014-01-31T10:52:57.000Z</time>
      </trkpt>
      <trkpt lat="45.56085" lon="6.56221">
        <ele>2294.6000976562</ele>
        <time>2014-01-31T10:52:58.000Z</time>
      </trkpt>
      <trkpt lat="45.56086" lon="6.56221">
        <ele>2294.3999023438</ele>
        <time>2014-01-31T10:52:59.000Z</time>
      </trkpt>
      <trkpt lat="45.56086" lon="6.56221">
        <ele>2294.3999023438</ele>
        <time>2014-01-31T10:53:00.000Z</time>
      </trkpt>
      <trkpt lat="45.56086" lon="6.56221">
        <ele>2294.3999023438</ele>
        <time>2014-01-31T10:53:02.000Z</time>
      </trkpt>
      <trkpt lat="45.56086" lon="6.56221">
        <ele>2294.6000976562</ele>
        <time>2014-01-31T10:53:03.000Z</time>
      </trkpt>
      <trkpt lat="45.56086" lon="6.56221">
        <ele>2294.6000976562</ele>
        <time>2014-01-31T10:53:04.000Z</time>
      </trkpt>
      <trkpt lat="45.56086" lon="6.56221">
        <ele>2294.8000488281</ele>
        <time>2014-01-31T10:53:05.000Z</time>
      </trkpt>
      <trkpt lat="45.56086" lon="6.56221">
        <ele>2294.8000488281</ele>
        <time>2014-01-31T10:53:06.000Z</time>
      </trkpt>
      <trkpt lat="45.56086" lon="6.56221">
        <ele>2294.8000488281</ele>
        <time>2014-01-31T10:53:07.000Z</time>
      </trkpt>
      <trkpt lat="45.56086" lon="6.56221">
        <ele>2294.6000976562</ele>
        <time>2014-01-31T10:53:08.000Z</time>
      </trkpt>
      <trkpt lat="45.56086" lon="6.56221">
        <ele>2294.1999511719</ele>
        <time>2014-01-31T10:53:09.000Z</time>
      </trkpt>
      <trkpt lat="45.56086" lon="6.56221">
        <ele>2294.1999511719</ele>
        <time>2014-01-31T10:53:10.000Z</time>
      </trkpt>
      <trkpt lat="45.56086" lon="6.56221">
        <ele>2294</ele>
        <time>2014-01-31T10:53:11.000Z</time>
      </trkpt>
      <trkpt lat="45.56086" lon="6.56221">
        <ele>2294.1999511719</ele>
        <time>2014-01-31T10:53:12.000Z</time>
      </trkpt>
      <trkpt lat="45.56086" lon="6.56221">
        <ele>2294.1999511719</ele>
        <time>2014-01-31T10:53:13.000Z</time>
      </trkpt>
      <trkpt lat="45.56086" lon="6.56221">
        <ele>2294.1999511719</ele>
        <time>2014-01-31T10:53:14.000Z</time>
      </trkpt>
      <trkpt lat="45.56086" lon="6.56221">
        <ele>2294.1999511719</ele>
        <time>2014-01-31T10:53:15.000Z</time>
      </trkpt>
      <trkpt lat="45.56086" lon="6.56221">
        <ele>2294.1999511719</ele>
        <time>2014-01-31T10:53:16.000Z</time>
      </trkpt>
      <trkpt lat="45.56086" lon="6.56221">
        <ele>2294.3999023438</ele>
        <time>2014-01-31T10:53:17.000Z</time>
      </trkpt>
      <trkpt lat="45.56086" lon="6.56221">
        <ele>2294.3999023438</ele>
        <time>2014-01-31T10:53:18.000Z</time>
      </trkpt>
      <trkpt lat="45.56086" lon="6.56221">
        <ele>2294.3999023438</ele>
        <time>2014-01-31T10:53:19.000Z</time>
      </trkpt>
      <trkpt lat="45.56086" lon="6.56221">
        <ele>2294.3999023438</ele>
        <time>2014-01-31T10:53:20.000Z</time>
      </trkpt>
      <trkpt lat="45.56086" lon="6.56221">
        <ele>2294.3999023438</ele>
        <time>2014-01-31T10:53:22.000Z</time>
      </trkpt>
      <trkpt lat="45.56086" lon="6.56221">
        <ele>2294.1999511719</ele>
        <time>2014-01-31T10:53:23.000Z</time>
      </trkpt>
      <trkpt lat="45.56086" lon="6.56221">
        <ele>2294.1999511719</ele>
        <time>2014-01-31T10:53:24.000Z</time>
      </trkpt>
      <trkpt lat="45.56086" lon="6.56221">
        <ele>2294.1999511719</ele>
        <time>2014-01-31T10:53:25.000Z</time>
      </trkpt>
      <trkpt lat="45.56086" lon="6.56221">
        <ele>2294</ele>
        <time>2014-01-31T10:53:26.000Z</time>
      </trkpt>
      <trkpt lat="45.56086" lon="6.56221">
        <ele>2294</ele>
        <time>2014-01-31T10:53:27.000Z</time>
      </trkpt>
      <trkpt lat="45.56086" lon="6.56221">
        <ele>2293.8000488281</ele>
        <time>2014-01-31T10:53:28.000Z</time>
      </trkpt>
      <trkpt lat="45.56086" lon="6.56221">
        <ele>2294</ele>
        <time>2014-01-31T10:53:29.000Z</time>
      </trkpt>
      <trkpt lat="45.56086" lon="6.56221">
        <ele>2294</ele>
        <time>2014-01-31T10:53:30.000Z</time>
      </trkpt>
      <trkpt lat="45.56086" lon="6.56221">
        <ele>2294</ele>
        <time>2014-01-31T10:53:31.000Z</time>
      </trkpt>
      <trkpt lat="45.56086" lon="6.56221">
        <ele>2294</ele>
        <time>2014-01-31T10:53:32.000Z</time>
      </trkpt>
      <trkpt lat="45.56086" lon="6.56221">
        <ele>2294.1999511719</ele>
        <time>2014-01-31T10:53:33.000Z</time>
      </trkpt>
      <trkpt lat="45.56086" lon="6.56221">
        <ele>2294.1999511719</ele>
        <time>2014-01-31T10:53:34.000Z</time>
      </trkpt>
      <trkpt lat="45.56086" lon="6.56221">
        <ele>2294.1999511719</ele>
        <time>2014-01-31T10:53:35.000Z</time>
      </trkpt>
      <trkpt lat="45.56086" lon="6.56221">
        <ele>2294.3999023438</ele>
        <time>2014-01-31T10:53:36.000Z</time>
      </trkpt>
      <trkpt lat="45.56086" lon="6.56221">
        <ele>2294.3999023438</ele>
        <time>2014-01-31T10:53:37.000Z</time>
      </trkpt>
      <trkpt lat="45.56086" lon="6.56221">
        <ele>2294.6000976562</ele>
        <time>2014-01-31T10:53:38.000Z</time>
      </trkpt>
      <trkpt lat="45.56086" lon="6.56221">
        <ele>2294.6000976562</ele>
        <time>2014-01-31T10:53:39.000Z</time>
      </trkpt>
      <trkpt lat="45.56086" lon="6.56221">
        <ele>2294.6000976562</ele>
        <time>2014-01-31T10:53:40.000Z</time>
      </trkpt>
      <trkpt lat="45.56086" lon="6.56221">
        <ele>2294.3999023438</ele>
        <time>2014-01-31T10:53:41.000Z</time>
      </trkpt>
      <trkpt lat="45.56086" lon="6.56221">
        <ele>2294.3999023438</ele>
        <time>2014-01-31T10:53:42.000Z</time>
      </trkpt>
      <trkpt lat="45.56086" lon="6.56221">
        <ele>2294.3999023438</ele>
        <time>2014-01-31T10:53:43.000Z</time>
      </trkpt>
      <trkpt lat="45.56086" lon="6.56221">
        <ele>2294.3999023438</ele>
        <time>2014-01-31T10:53:44.000Z</time>
      </trkpt>
      <trkpt lat="45.56086" lon="6.56221">
        <ele>2294.3999023438</ele>
        <time>2014-01-31T10:53:45.000Z</time>
      </trkpt>
      <trkpt lat="45.56086" lon="6.56221">
        <ele>2294.3999023438</ele>
        <time>2014-01-31T10:53:46.000Z</time>
      </trkpt>
      <trkpt lat="45.56086" lon="6.56221">
        <ele>2294.3999023438</ele>
        <time>2014-01-31T10:53:47.000Z</time>
      </trkpt>
      <trkpt lat="45.56086" lon="6.56221">
        <ele>2294.3999023438</ele>
        <time>2014-01-31T10:53:48.000Z</time>
      </trkpt>
      <trkpt lat="45.56086" lon="6.56221">
        <ele>2294.3999023438</ele>
        <time>2014-01-31T10:53:49.000Z</time>
      </trkpt>
      <trkpt lat="45.56086" lon="6.56221">
        <ele>2294.1999511719</ele>
        <time>2014-01-31T10:53:50.000Z</time>
      </trkpt>
      <trkpt lat="45.56086" lon="6.56221">
        <ele>2294.3999023438</ele>
        <time>2014-01-31T10:53:52.000Z</time>
      </trkpt>
      <trkpt lat="45.56086" lon="6.56221">
        <ele>2294.3999023438</ele>
        <time>2014-01-31T10:53:53.000Z</time>
      </trkpt>
      <trkpt lat="45.56086" lon="6.56221">
        <ele>2294.3999023438</ele>
        <time>2014-01-31T10:53:54.000Z</time>
      </trkpt>
      <trkpt lat="45.56086" lon="6.56221">
        <ele>2294.3999023438</ele>
        <time>2014-01-31T10:53:55.000Z</time>
      </trkpt>
      <trkpt lat="45.56086" lon="6.56221">
        <ele>2294.3999023438</ele>
        <time>2014-01-31T10:53:56.000Z</time>
      </trkpt>
      <trkpt lat="45.56086" lon="6.56221">
        <ele>2294.3999023438</ele>
        <time>2014-01-31T10:53:57.000Z</time>
      </trkpt>
      <trkpt lat="45.56086" lon="6.56221">
        <ele>2294.3999023438</ele>
        <time>2014-01-31T10:54:01.000Z</time>
      </trkpt>
      <trkpt lat="45.56086" lon="6.56221">
        <ele>2294.6000976562</ele>
        <time>2014-01-31T10:54:02.000Z</time>
      </trkpt>
      <trkpt lat="45.56086" lon="6.56221">
        <ele>2294.8000488281</ele>
        <time>2014-01-31T10:54:03.000Z</time>
      </trkpt>
      <trkpt lat="45.56086" lon="6.56221">
        <ele>2295</ele>
        <time>2014-01-31T10:54:04.000Z</time>
      </trkpt>
      <trkpt lat="45.56086" lon="6.56221">
        <ele>2295</ele>
        <time>2014-01-31T10:54:05.000Z</time>
      </trkpt>
      <trkpt lat="45.56086" lon="6.56221">
        <ele>2295.1999511719</ele>
        <time>2014-01-31T10:54:06.000Z</time>
      </trkpt>
      <trkpt lat="45.56086" lon="6.56221">
        <ele>2295</ele>
        <time>2014-01-31T10:54:07.000Z</time>
      </trkpt>
      <trkpt lat="45.56086" lon="6.56221">
        <ele>2295</ele>
        <time>2014-01-31T10:54:08.000Z</time>
      </trkpt>
      <trkpt lat="45.56086" lon="6.56221">
        <ele>2294.8000488281</ele>
        <time>2014-01-31T10:54:09.000Z</time>
      </trkpt>
      <trkpt lat="45.56086" lon="6.56221">
        <ele>2294.6000976562</ele>
        <time>2014-01-31T10:54:10.000Z</time>
      </trkpt>
      <trkpt lat="45.56086" lon="6.56221">
        <ele>2294.6000976562</ele>
        <time>2014-01-31T10:54:11.000Z</time>
      </trkpt>
      <trkpt lat="45.56086" lon="6.56221">
        <ele>2294.6000976562</ele>
        <time>2014-01-31T10:54:12.000Z</time>
      </trkpt>
      <trkpt lat="45.56086" lon="6.56221">
        <ele>2294.6000976562</ele>
        <time>2014-01-31T10:54:13.000Z</time>
      </trkpt>
      <trkpt lat="45.56086" lon="6.56221">
        <ele>2294.8000488281</ele>
        <time>2014-01-31T10:54:14.000Z</time>
      </trkpt>
      <trkpt lat="45.56086" lon="6.56221">
        <ele>2294.8000488281</ele>
        <time>2014-01-31T10:54:15.000Z</time>
      </trkpt>
      <trkpt lat="45.56086" lon="6.56221">
        <ele>2295</ele>
        <time>2014-01-31T10:54:16.000Z</time>
      </trkpt>
      <trkpt lat="45.56086" lon="6.56221">
        <ele>2295</ele>
        <time>2014-01-31T10:54:17.000Z</time>
      </trkpt>
      <trkpt lat="45.56086" lon="6.56221">
        <ele>2295</ele>
        <time>2014-01-31T10:54:18.000Z</time>
      </trkpt>
      <trkpt lat="45.56086" lon="6.56222">
        <ele>2295</ele>
        <time>2014-01-31T10:54:19.000Z</time>
      </trkpt>
      <trkpt lat="45.56086" lon="6.56222">
        <ele>2294.8000488281</ele>
        <time>2014-01-31T10:54:20.000Z</time>
      </trkpt>
      <trkpt lat="45.56086" lon="6.56222">
        <ele>2294.8000488281</ele>
        <time>2014-01-31T10:54:21.000Z</time>
      </trkpt>
      <trkpt lat="45.56086" lon="6.56222">
        <ele>2294.6000976562</ele>
        <time>2014-01-31T10:54:22.000Z</time>
      </trkpt>
      <trkpt lat="45.56086" lon="6.56222">
        <ele>2294.6000976562</ele>
        <time>2014-01-31T10:54:23.000Z</time>
      </trkpt>
      <trkpt lat="45.56086" lon="6.56222">
        <ele>2294.6000976562</ele>
        <time>2014-01-31T10:54:24.000Z</time>
      </trkpt>
      <trkpt lat="45.56086" lon="6.56222">
        <ele>2294.6000976562</ele>
        <time>2014-01-31T10:54:25.000Z</time>
      </trkpt>
      <trkpt lat="45.56086" lon="6.56222">
        <ele>2294.6000976562</ele>
        <time>2014-01-31T10:54:26.000Z</time>
      </trkpt>
      <trkpt lat="45.56086" lon="6.56222">
        <ele>2294.6000976562</ele>
        <time>2014-01-31T10:54:27.000Z</time>
      </trkpt>
      <trkpt lat="45.56086" lon="6.56222">
        <ele>2294.6000976562</ele>
        <time>2014-01-31T10:54:28.000Z</time>
      </trkpt>
      <trkpt lat="45.56086" lon="6.56222">
        <ele>2294.6000976562</ele>
        <time>2014-01-31T10:54:29.000Z</time>
      </trkpt>
      <trkpt lat="45.56086" lon="6.56222">
        <ele>2294.6000976562</ele>
        <time>2014-01-31T10:54:30.000Z</time>
      </trkpt>
      <trkpt lat="45.56086" lon="6.56222">
        <ele>2294.3999023438</ele>
        <time>2014-01-31T10:54:32.000Z</time>
      </trkpt>
      <trkpt lat="45.56086" lon="6.56222">
        <ele>2294.3999023438</ele>
        <time>2014-01-31T10:54:33.000Z</time>
      </trkpt>
      <trkpt lat="45.56086" lon="6.56222">
        <ele>2294.6000976562</ele>
        <time>2014-01-31T10:54:35.000Z</time>
      </trkpt>
      <trkpt lat="45.56086" lon="6.56222">
        <ele>2294.6000976562</ele>
        <time>2014-01-31T10:54:36.000Z</time>
      </trkpt>
      <trkpt lat="45.56086" lon="6.56222">
        <ele>2294.6000976562</ele>
        <time>2014-01-31T10:54:38.000Z</time>
      </trkpt>
      <trkpt lat="45.56086" lon="6.56222">
        <ele>2294.3999023438</ele>
        <time>2014-01-31T10:54:39.000Z</time>
      </trkpt>
      <trkpt lat="45.56086" lon="6.56222">
        <ele>2294.3999023438</ele>
        <time>2014-01-31T10:54:42.000Z</time>
      </trkpt>
      <trkpt lat="45.56086" lon="6.56222">
        <ele>2294.6000976562</ele>
        <time>2014-01-31T10:54:45.000Z</time>
      </trkpt>
      <trkpt lat="45.56086" lon="6.56222">
        <ele>2294.6000976562</ele>
        <time>2014-01-31T10:54:46.000Z</time>
      </trkpt>
      <trkpt lat="45.56086" lon="6.56222">
        <ele>2294.6000976562</ele>
        <time>2014-01-31T10:54:47.000Z</time>
      </trkpt>
      <trkpt lat="45.56086" lon="6.56222">
        <ele>2294.6000976562</ele>
        <time>2014-01-31T10:54:48.000Z</time>
      </trkpt>
      <trkpt lat="45.56086" lon="6.56222">
        <ele>2294.6000976562</ele>
        <time>2014-01-31T10:54:49.000Z</time>
      </trkpt>
      <trkpt lat="45.56086" lon="6.56222">
        <ele>2294.6000976562</ele>
        <time>2014-01-31T10:54:52.000Z</time>
      </trkpt>
      <trkpt lat="45.56086" lon="6.56222">
        <ele>2294.6000976562</ele>
        <time>2014-01-31T10:54:53.000Z</time>
      </trkpt>
      <trkpt lat="45.56086" lon="6.56222">
        <ele>2294.6000976562</ele>
        <time>2014-01-31T10:54:54.000Z</time>
      </trkpt>
      <trkpt lat="45.56086" lon="6.56222">
        <ele>2294.6000976562</ele>
        <time>2014-01-31T10:54:57.000Z</time>
      </trkpt>
      <trkpt lat="45.56086" lon="6.56222">
        <ele>2294.6000976562</ele>
        <time>2014-01-31T10:54:58.000Z</time>
      </trkpt>
      <trkpt lat="45.56086" lon="6.56222">
        <ele>2294.6000976562</ele>
        <time>2014-01-31T10:54:59.000Z</time>
      </trkpt>
      <trkpt lat="45.56086" lon="6.56222">
        <ele>2294.6000976562</ele>
        <time>2014-01-31T10:55:02.000Z</time>
      </trkpt>
      <trkpt lat="45.56086" lon="6.56222">
        <ele>2294.6000976562</ele>
        <time>2014-01-31T10:55:03.000Z</time>
      </trkpt>
      <trkpt lat="45.56086" lon="6.56222">
        <ele>2294.6000976562</ele>
        <time>2014-01-31T10:55:04.000Z</time>
      </trkpt>
      <trkpt lat="45.56086" lon="6.56222">
        <ele>2294.6000976562</ele>
        <time>2014-01-31T10:55:05.000Z</time>
      </trkpt>
      <trkpt lat="45.56086" lon="6.56222">
        <ele>2294.8000488281</ele>
        <time>2014-01-31T10:55:06.000Z</time>
      </trkpt>
      <trkpt lat="45.56086" lon="6.56222">
        <ele>2294.8000488281</ele>
        <time>2014-01-31T10:55:07.000Z</time>
      </trkpt>
      <trkpt lat="45.56086" lon="6.56222">
        <ele>2294.8000488281</ele>
        <time>2014-01-31T10:55:08.000Z</time>
      </trkpt>
      <trkpt lat="45.56086" lon="6.56222">
        <ele>2294.8000488281</ele>
        <time>2014-01-31T10:55:09.000Z</time>
      </trkpt>
      <trkpt lat="45.56086" lon="6.56222">
        <ele>2294.8000488281</ele>
        <time>2014-01-31T10:55:10.000Z</time>
      </trkpt>
      <trkpt lat="45.56086" lon="6.56222">
        <ele>2294.8000488281</ele>
        <time>2014-01-31T10:55:11.000Z</time>
      </trkpt>
      <trkpt lat="45.56086" lon="6.56222">
        <ele>2294.8000488281</ele>
        <time>2014-01-31T10:55:12.000Z</time>
      </trkpt>
      <trkpt lat="45.56086" lon="6.56222">
        <ele>2294.8000488281</ele>
        <time>2014-01-31T10:55:13.000Z</time>
      </trkpt>
      <trkpt lat="45.56086" lon="6.56222">
        <ele>2294.8000488281</ele>
        <time>2014-01-31T10:55:16.000Z</time>
      </trkpt>
      <trkpt lat="45.56086" lon="6.56222">
        <ele>2294.8000488281</ele>
        <time>2014-01-31T10:55:17.000Z</time>
      </trkpt>
      <trkpt lat="45.56086" lon="6.56222">
        <ele>2294.6000976562</ele>
        <time>2014-01-31T10:55:18.000Z</time>
      </trkpt>
      <trkpt lat="45.56086" lon="6.56222">
        <ele>2294.6000976562</ele>
        <time>2014-01-31T10:55:19.000Z</time>
      </trkpt>
      <trkpt lat="45.56086" lon="6.56222">
        <ele>2294.6000976562</ele>
        <time>2014-01-31T10:55:20.000Z</time>
      </trkpt>
      <trkpt lat="45.56086" lon="6.56222">
        <ele>2294.3999023438</ele>
        <time>2014-01-31T10:55:21.000Z</time>
      </trkpt>
      <trkpt lat="45.56086" lon="6.56222">
        <ele>2294.3999023438</ele>
        <time>2014-01-31T10:55:22.000Z</time>
      </trkpt>
      <trkpt lat="45.56086" lon="6.56222">
        <ele>2294.3999023438</ele>
        <time>2014-01-31T10:55:23.000Z</time>
      </trkpt>
      <trkpt lat="45.56086" lon="6.56222">
        <ele>2294.3999023438</ele>
        <time>2014-01-31T10:55:24.000Z</time>
      </trkpt>
      <trkpt lat="45.56086" lon="6.56222">
        <ele>2294.3999023438</ele>
        <time>2014-01-31T10:55:25.000Z</time>
      </trkpt>
      <trkpt lat="45.56086" lon="6.56222">
        <ele>2294.3999023438</ele>
        <time>2014-01-31T10:55:26.000Z</time>
      </trkpt>
      <trkpt lat="45.56086" lon="6.56222">
        <ele>2294.3999023438</ele>
        <time>2014-01-31T10:55:27.000Z</time>
      </trkpt>
      <trkpt lat="45.56086" lon="6.56222">
        <ele>2294.3999023438</ele>
        <time>2014-01-31T10:55:28.000Z</time>
      </trkpt>
      <trkpt lat="45.56086" lon="6.56222">
        <ele>2294.3999023438</ele>
        <time>2014-01-31T10:55:29.000Z</time>
      </trkpt>
      <trkpt lat="45.56086" lon="6.56222">
        <ele>2294.3999023438</ele>
        <time>2014-01-31T10:55:30.000Z</time>
      </trkpt>
      <trkpt lat="45.56086" lon="6.56222">
        <ele>2294.6000976562</ele>
        <time>2014-01-31T10:55:31.000Z</time>
      </trkpt>
      <trkpt lat="45.56086" lon="6.56222">
        <ele>2294.6000976562</ele>
        <time>2014-01-31T10:55:32.000Z</time>
      </trkpt>
      <trkpt lat="45.56086" lon="6.56222">
        <ele>2294.8000488281</ele>
        <time>2014-01-31T10:55:33.000Z</time>
      </trkpt>
      <trkpt lat="45.56086" lon="6.56222">
        <ele>2294.8000488281</ele>
        <time>2014-01-31T10:55:34.000Z</time>
      </trkpt>
      <trkpt lat="45.56086" lon="6.56222">
        <ele>2294.8000488281</ele>
        <time>2014-01-31T10:55:35.000Z</time>
      </trkpt>
      <trkpt lat="45.56086" lon="6.56222">
        <ele>2294.8000488281</ele>
        <time>2014-01-31T10:55:37.000Z</time>
      </trkpt>
      <trkpt lat="45.56086" lon="6.56222">
        <ele>2294.8000488281</ele>
        <time>2014-01-31T10:55:38.000Z</time>
      </trkpt>
      <trkpt lat="45.56086" lon="6.56222">
        <ele>2294.8000488281</ele>
        <time>2014-01-31T10:55:39.000Z</time>
      </trkpt>
      <trkpt lat="45.56086" lon="6.56222">
        <ele>2294.8000488281</ele>
        <time>2014-01-31T10:55:40.000Z</time>
      </trkpt>
      <trkpt lat="45.56086" lon="6.56222">
        <ele>2294.8000488281</ele>
        <time>2014-01-31T10:55:41.000Z</time>
      </trkpt>
      <trkpt lat="45.56086" lon="6.56222">
        <ele>2295</ele>
        <time>2014-01-31T10:55:42.000Z</time>
      </trkpt>
      <trkpt lat="45.56086" lon="6.56222">
        <ele>2295</ele>
        <time>2014-01-31T10:55:43.000Z</time>
      </trkpt>
      <trkpt lat="45.56086" lon="6.56222">
        <ele>2295</ele>
        <time>2014-01-31T10:55:44.000Z</time>
      </trkpt>
      <trkpt lat="45.56086" lon="6.56222">
        <ele>2295</ele>
        <time>2014-01-31T10:55:45.000Z</time>
      </trkpt>
      <trkpt lat="45.56086" lon="6.56222">
        <ele>2295</ele>
        <time>2014-01-31T10:55:46.000Z</time>
      </trkpt>
      <trkpt lat="45.56086" lon="6.56222">
        <ele>2295</ele>
        <time>2014-01-31T10:55:47.000Z</time>
      </trkpt>
      <trkpt lat="45.56086" lon="6.56222">
        <ele>2295</ele>
        <time>2014-01-31T10:55:50.000Z</time>
      </trkpt>
      <trkpt lat="45.56086" lon="6.56222">
        <ele>2295</ele>
        <time>2014-01-31T10:55:51.000Z</time>
      </trkpt>
      <trkpt lat="45.56086" lon="6.56222">
        <ele>2295</ele>
        <time>2014-01-31T10:55:52.000Z</time>
      </trkpt>
      <trkpt lat="45.56086" lon="6.56222">
        <ele>2295.1999511719</ele>
        <time>2014-01-31T10:55:53.000Z</time>
      </trkpt>
      <trkpt lat="45.56086" lon="6.56222">
        <ele>2295.1999511719</ele>
        <time>2014-01-31T10:55:54.000Z</time>
      </trkpt>
      <trkpt lat="45.56086" lon="6.56222">
        <ele>2295.1999511719</ele>
        <time>2014-01-31T10:55:55.000Z</time>
      </trkpt>
      <trkpt lat="45.56086" lon="6.56222">
        <ele>2295.1999511719</ele>
        <time>2014-01-31T10:55:56.000Z</time>
      </trkpt>
      <trkpt lat="45.56086" lon="6.56222">
        <ele>2295.1999511719</ele>
        <time>2014-01-31T10:55:57.000Z</time>
      </trkpt>
      <trkpt lat="45.56086" lon="6.56222">
        <ele>2295</ele>
        <time>2014-01-31T10:55:58.000Z</time>
      </trkpt>
      <trkpt lat="45.56086" lon="6.56222">
        <ele>2295</ele>
        <time>2014-01-31T10:55:59.000Z</time>
      </trkpt>
      <trkpt lat="45.56086" lon="6.56222">
        <ele>2294.8000488281</ele>
        <time>2014-01-31T10:56:00.000Z</time>
      </trkpt>
      <trkpt lat="45.56086" lon="6.56222">
        <ele>2294.6000976562</ele>
        <time>2014-01-31T10:56:01.000Z</time>
      </trkpt>
      <trkpt lat="45.56086" lon="6.56222">
        <ele>2294.3999023438</ele>
        <time>2014-01-31T10:56:02.000Z</time>
      </trkpt>
      <trkpt lat="45.56086" lon="6.56222">
        <ele>2294.3999023438</ele>
        <time>2014-01-31T10:56:03.000Z</time>
      </trkpt>
      <trkpt lat="45.56086" lon="6.56222">
        <ele>2294.3999023438</ele>
        <time>2014-01-31T10:56:04.000Z</time>
      </trkpt>
      <trkpt lat="45.56086" lon="6.56222">
        <ele>2294.3999023438</ele>
        <time>2014-01-31T10:56:05.000Z</time>
      </trkpt>
      <trkpt lat="45.56086" lon="6.56222">
        <ele>2294.6000976562</ele>
        <time>2014-01-31T10:56:06.000Z</time>
      </trkpt>
      <trkpt lat="45.56086" lon="6.56222">
        <ele>2294.8000488281</ele>
        <time>2014-01-31T10:56:07.000Z</time>
      </trkpt>
      <trkpt lat="45.56086" lon="6.56222">
        <ele>2294.8000488281</ele>
        <time>2014-01-31T10:56:08.000Z</time>
      </trkpt>
      <trkpt lat="45.56086" lon="6.56222">
        <ele>2294.8000488281</ele>
        <time>2014-01-31T10:56:09.000Z</time>
      </trkpt>
      <trkpt lat="45.56086" lon="6.56222">
        <ele>2294.8000488281</ele>
        <time>2014-01-31T10:56:11.000Z</time>
      </trkpt>
      <trkpt lat="45.56086" lon="6.56222">
        <ele>2294.8000488281</ele>
        <time>2014-01-31T10:56:12.000Z</time>
      </trkpt>
      <trkpt lat="45.56086" lon="6.56222">
        <ele>2294.8000488281</ele>
        <time>2014-01-31T10:56:13.000Z</time>
      </trkpt>
      <trkpt lat="45.56086" lon="6.56222">
        <ele>2294.8000488281</ele>
        <time>2014-01-31T10:56:14.000Z</time>
      </trkpt>
      <trkpt lat="45.56086" lon="6.56222">
        <ele>2294.6000976562</ele>
        <time>2014-01-31T10:56:15.000Z</time>
      </trkpt>
      <trkpt lat="45.56086" lon="6.56222">
        <ele>2294.6000976562</ele>
        <time>2014-01-31T10:56:16.000Z</time>
      </trkpt>
      <trkpt lat="45.56086" lon="6.56222">
        <ele>2294.6000976562</ele>
        <time>2014-01-31T10:56:17.000Z</time>
      </trkpt>
      <trkpt lat="45.56086" lon="6.56222">
        <ele>2294.6000976562</ele>
        <time>2014-01-31T10:56:18.000Z</time>
      </trkpt>
      <trkpt lat="45.56086" lon="6.56222">
        <ele>2294.6000976562</ele>
        <time>2014-01-31T10:56:19.000Z</time>
      </trkpt>
      <trkpt lat="45.56086" lon="6.56222">
        <ele>2294.8000488281</ele>
        <time>2014-01-31T10:56:20.000Z</time>
      </trkpt>
      <trkpt lat="45.56086" lon="6.56222">
        <ele>2294.8000488281</ele>
        <time>2014-01-31T10:56:21.000Z</time>
      </trkpt>
      <trkpt lat="45.56086" lon="6.56222">
        <ele>2294.8000488281</ele>
        <time>2014-01-31T10:56:22.000Z</time>
      </trkpt>
      <trkpt lat="45.56086" lon="6.56222">
        <ele>2294.8000488281</ele>
        <time>2014-01-31T10:56:23.000Z</time>
      </trkpt>
      <trkpt lat="45.56086" lon="6.56222">
        <ele>2294.8000488281</ele>
        <time>2014-01-31T10:56:24.000Z</time>
      </trkpt>
      <trkpt lat="45.56086" lon="6.56222">
        <ele>2294.6000976562</ele>
        <time>2014-01-31T10:56:26.000Z</time>
      </trkpt>
      <trkpt lat="45.56086" lon="6.56222">
        <ele>2294.6000976562</ele>
        <time>2014-01-31T10:56:27.000Z</time>
      </trkpt>
      <trkpt lat="45.56086" lon="6.56222">
        <ele>2294.6000976562</ele>
        <time>2014-01-31T10:56:28.000Z</time>
      </trkpt>
      <trkpt lat="45.56086" lon="6.56222">
        <ele>2294.6000976562</ele>
        <time>2014-01-31T10:56:29.000Z</time>
      </trkpt>
      <trkpt lat="45.56086" lon="6.56222">
        <ele>2294.6000976562</ele>
        <time>2014-01-31T10:56:30.000Z</time>
      </trkpt>
      <trkpt lat="45.56086" lon="6.56222">
        <ele>2294.6000976562</ele>
        <time>2014-01-31T10:56:31.000Z</time>
      </trkpt>
      <trkpt lat="45.56086" lon="6.56222">
        <ele>2294.6000976562</ele>
        <time>2014-01-31T10:56:32.000Z</time>
      </trkpt>
      <trkpt lat="45.56086" lon="6.56222">
        <ele>2294.6000976562</ele>
        <time>2014-01-31T10:56:33.000Z</time>
      </trkpt>
      <trkpt lat="45.56086" lon="6.56222">
        <ele>2294.3999023438</ele>
        <time>2014-01-31T10:56:34.000Z</time>
      </trkpt>
      <trkpt lat="45.56086" lon="6.56222">
        <ele>2294.6000976562</ele>
        <time>2014-01-31T10:56:36.000Z</time>
      </trkpt>
      <trkpt lat="45.56086" lon="6.56222">
        <ele>2294.6000976562</ele>
        <time>2014-01-31T10:56:37.000Z</time>
      </trkpt>
      <trkpt lat="45.56086" lon="6.56222">
        <ele>2294.6000976562</ele>
        <time>2014-01-31T10:56:38.000Z</time>
      </trkpt>
      <trkpt lat="45.56086" lon="6.56222">
        <ele>2294.6000976562</ele>
        <time>2014-01-31T10:56:39.000Z</time>
      </trkpt>
      <trkpt lat="45.56086" lon="6.56222">
        <ele>2294.6000976562</ele>
        <time>2014-01-31T10:56:40.000Z</time>
      </trkpt>
      <trkpt lat="45.56086" lon="6.56222">
        <ele>2294.3999023438</ele>
        <time>2014-01-31T10:56:42.000Z</time>
      </trkpt>
      <trkpt lat="45.56086" lon="6.56222">
        <ele>2294.1999511719</ele>
        <time>2014-01-31T10:56:43.000Z</time>
      </trkpt>
      <trkpt lat="45.56086" lon="6.56222">
        <ele>2294</ele>
        <time>2014-01-31T10:56:44.000Z</time>
      </trkpt>
      <trkpt lat="45.56086" lon="6.56222">
        <ele>2293.8000488281</ele>
        <time>2014-01-31T10:56:45.000Z</time>
      </trkpt>
      <trkpt lat="45.56086" lon="6.56222">
        <ele>2293.6000976562</ele>
        <time>2014-01-31T10:56:46.000Z</time>
      </trkpt>
      <trkpt lat="45.56086" lon="6.56222">
        <ele>2293.8000488281</ele>
        <time>2014-01-31T10:56:47.000Z</time>
      </trkpt>
      <trkpt lat="45.56086" lon="6.56222">
        <ele>2294</ele>
        <time>2014-01-31T10:56:48.000Z</time>
      </trkpt>
      <trkpt lat="45.56086" lon="6.56222">
        <ele>2294.3999023438</ele>
        <time>2014-01-31T10:56:49.000Z</time>
      </trkpt>
      <trkpt lat="45.56086" lon="6.56222">
        <ele>2294.6000976562</ele>
        <time>2014-01-31T10:56:50.000Z</time>
      </trkpt>
      <trkpt lat="45.56086" lon="6.56222">
        <ele>2294.6000976562</ele>
        <time>2014-01-31T10:56:51.000Z</time>
      </trkpt>
      <trkpt lat="45.56086" lon="6.56222">
        <ele>2294.8000488281</ele>
        <time>2014-01-31T10:56:52.000Z</time>
      </trkpt>
      <trkpt lat="45.56086" lon="6.56222">
        <ele>2294.8000488281</ele>
        <time>2014-01-31T10:56:53.000Z</time>
      </trkpt>
      <trkpt lat="45.56086" lon="6.56222">
        <ele>2294.6000976562</ele>
        <time>2014-01-31T10:56:55.000Z</time>
      </trkpt>
      <trkpt lat="45.56086" lon="6.56222">
        <ele>2294.3999023438</ele>
        <time>2014-01-31T10:56:56.000Z</time>
      </trkpt>
      <trkpt lat="45.56086" lon="6.56222">
        <ele>2294.1999511719</ele>
        <time>2014-01-31T10:56:57.000Z</time>
      </trkpt>
      <trkpt lat="45.56086" lon="6.56222">
        <ele>2294</ele>
        <time>2014-01-31T10:56:58.000Z</time>
      </trkpt>
      <trkpt lat="45.56086" lon="6.56222">
        <ele>2294</ele>
        <time>2014-01-31T10:56:59.000Z</time>
      </trkpt>
      <trkpt lat="45.56086" lon="6.56222">
        <ele>2294.1999511719</ele>
        <time>2014-01-31T10:57:00.000Z</time>
      </trkpt>
      <trkpt lat="45.56086" lon="6.56222">
        <ele>2294.1999511719</ele>
        <time>2014-01-31T10:57:01.000Z</time>
      </trkpt>
      <trkpt lat="45.56086" lon="6.56222">
        <ele>2294.1999511719</ele>
        <time>2014-01-31T10:57:02.000Z</time>
      </trkpt>
      <trkpt lat="45.56086" lon="6.56222">
        <ele>2294.3999023438</ele>
        <time>2014-01-31T10:57:03.000Z</time>
      </trkpt>
      <trkpt lat="45.56086" lon="6.56222">
        <ele>2294.6000976562</ele>
        <time>2014-01-31T10:57:04.000Z</time>
      </trkpt>
      <trkpt lat="45.56086" lon="6.56222">
        <ele>2294.8000488281</ele>
        <time>2014-01-31T10:57:05.000Z</time>
      </trkpt>
      <trkpt lat="45.56086" lon="6.56222">
        <ele>2294.8000488281</ele>
        <time>2014-01-31T10:57:06.000Z</time>
      </trkpt>
      <trkpt lat="45.56086" lon="6.56222">
        <ele>2295</ele>
        <time>2014-01-31T10:57:07.000Z</time>
      </trkpt>
      <trkpt lat="45.56086" lon="6.56222">
        <ele>2295</ele>
        <time>2014-01-31T10:57:08.000Z</time>
      </trkpt>
      <trkpt lat="45.56086" lon="6.56222">
        <ele>2295</ele>
        <time>2014-01-31T10:57:09.000Z</time>
      </trkpt>
      <trkpt lat="45.56086" lon="6.56222">
        <ele>2295</ele>
        <time>2014-01-31T10:57:10.000Z</time>
      </trkpt>
      <trkpt lat="45.56086" lon="6.56222">
        <ele>2295</ele>
        <time>2014-01-31T10:57:11.000Z</time>
      </trkpt>
      <trkpt lat="45.56086" lon="6.56222">
        <ele>2294.8000488281</ele>
        <time>2014-01-31T10:57:12.000Z</time>
      </trkpt>
      <trkpt lat="45.56086" lon="6.56222">
        <ele>2294.8000488281</ele>
        <time>2014-01-31T10:57:13.000Z</time>
      </trkpt>
      <trkpt lat="45.56086" lon="6.56222">
        <ele>2294.8000488281</ele>
        <time>2014-01-31T10:57:14.000Z</time>
      </trkpt>
      <trkpt lat="45.56086" lon="6.56222">
        <ele>2294.8000488281</ele>
        <time>2014-01-31T10:57:15.000Z</time>
      </trkpt>
      <trkpt lat="45.56086" lon="6.56222">
        <ele>2294.8000488281</ele>
        <time>2014-01-31T10:57:16.000Z</time>
      </trkpt>
      <trkpt lat="45.56086" lon="6.56222">
        <ele>2294.8000488281</ele>
        <time>2014-01-31T10:57:17.000Z</time>
      </trkpt>
      <trkpt lat="45.56086" lon="6.56222">
        <ele>2294.8000488281</ele>
        <time>2014-01-31T10:57:18.000Z</time>
      </trkpt>
      <trkpt lat="45.56086" lon="6.56222">
        <ele>2294.6000976562</ele>
        <time>2014-01-31T10:57:19.000Z</time>
      </trkpt>
      <trkpt lat="45.56086" lon="6.56222">
        <ele>2294.8000488281</ele>
        <time>2014-01-31T10:57:22.000Z</time>
      </trkpt>
      <trkpt lat="45.56086" lon="6.56222">
        <ele>2294.8000488281</ele>
        <time>2014-01-31T10:57:23.000Z</time>
      </trkpt>
      <trkpt lat="45.56086" lon="6.56222">
        <ele>2294.8000488281</ele>
        <time>2014-01-31T10:57:24.000Z</time>
      </trkpt>
      <trkpt lat="45.56086" lon="6.56222">
        <ele>2294.8000488281</ele>
        <time>2014-01-31T10:57:25.000Z</time>
      </trkpt>
      <trkpt lat="45.56086" lon="6.56222">
        <ele>2294.8000488281</ele>
        <time>2014-01-31T10:57:26.000Z</time>
      </trkpt>
      <trkpt lat="45.56086" lon="6.56222">
        <ele>2294.8000488281</ele>
        <time>2014-01-31T10:57:27.000Z</time>
      </trkpt>
      <trkpt lat="45.56086" lon="6.56222">
        <ele>2294.8000488281</ele>
        <time>2014-01-31T10:57:29.000Z</time>
      </trkpt>
      <trkpt lat="45.56086" lon="6.56222">
        <ele>2294.8000488281</ele>
        <time>2014-01-31T10:57:30.000Z</time>
      </trkpt>
      <trkpt lat="45.56086" lon="6.56222">
        <ele>2294.8000488281</ele>
        <time>2014-01-31T10:57:31.000Z</time>
      </trkpt>
      <trkpt lat="45.56086" lon="6.56222">
        <ele>2294.8000488281</ele>
        <time>2014-01-31T10:57:33.000Z</time>
      </trkpt>
      <trkpt lat="45.56086" lon="6.56222">
        <ele>2294.8000488281</ele>
        <time>2014-01-31T10:57:35.000Z</time>
      </trkpt>
      <trkpt lat="45.56086" lon="6.56222">
        <ele>2294.8000488281</ele>
        <time>2014-01-31T10:57:36.000Z</time>
      </trkpt>
      <trkpt lat="45.56086" lon="6.56222">
        <ele>2294.8000488281</ele>
        <time>2014-01-31T10:57:37.000Z</time>
      </trkpt>
      <trkpt lat="45.56086" lon="6.56222">
        <ele>2294.8000488281</ele>
        <time>2014-01-31T10:57:38.000Z</time>
      </trkpt>
      <trkpt lat="45.56086" lon="6.56222">
        <ele>2294.8000488281</ele>
        <time>2014-01-31T10:57:41.000Z</time>
      </trkpt>
      <trkpt lat="45.56086" lon="6.56222">
        <ele>2294.8000488281</ele>
        <time>2014-01-31T10:57:42.000Z</time>
      </trkpt>
      <trkpt lat="45.56086" lon="6.56222">
        <ele>2294.8000488281</ele>
        <time>2014-01-31T10:57:43.000Z</time>
      </trkpt>
      <trkpt lat="45.56086" lon="6.56222">
        <ele>2294.8000488281</ele>
        <time>2014-01-31T10:57:44.000Z</time>
      </trkpt>
      <trkpt lat="45.56086" lon="6.56222">
        <ele>2294.8000488281</ele>
        <time>2014-01-31T10:57:46.000Z</time>
      </trkpt>
      <trkpt lat="45.56086" lon="6.56222">
        <ele>2294.8000488281</ele>
        <time>2014-01-31T10:57:47.000Z</time>
      </trkpt>
      <trkpt lat="45.56086" lon="6.56222">
        <ele>2294.8000488281</ele>
        <time>2014-01-31T10:57:48.000Z</time>
      </trkpt>
      <trkpt lat="45.56086" lon="6.56222">
        <ele>2294.6000976562</ele>
        <time>2014-01-31T10:57:49.000Z</time>
      </trkpt>
      <trkpt lat="45.56086" lon="6.56222">
        <ele>2294.6000976562</ele>
        <time>2014-01-31T10:57:50.000Z</time>
      </trkpt>
      <trkpt lat="45.56086" lon="6.56222">
        <ele>2294.6000976562</ele>
        <time>2014-01-31T10:57:51.000Z</time>
      </trkpt>
      <trkpt lat="45.56086" lon="6.56222">
        <ele>2294.6000976562</ele>
        <time>2014-01-31T10:57:53.000Z</time>
      </trkpt>
      <trkpt lat="45.56086" lon="6.56222">
        <ele>2294.8000488281</ele>
        <time>2014-01-31T10:57:54.000Z</time>
      </trkpt>
      <trkpt lat="45.56086" lon="6.56222">
        <ele>2294.8000488281</ele>
        <time>2014-01-31T10:57:55.000Z</time>
      </trkpt>
      <trkpt lat="45.56086" lon="6.56222">
        <ele>2294.6000976562</ele>
        <time>2014-01-31T10:57:57.000Z</time>
      </trkpt>
      <trkpt lat="45.56086" lon="6.56222">
        <ele>2294.6000976562</ele>
        <time>2014-01-31T10:57:58.000Z</time>
      </trkpt>
      <trkpt lat="45.56086" lon="6.56222">
        <ele>2294.6000976562</ele>
        <time>2014-01-31T10:57:59.000Z</time>
      </trkpt>
      <trkpt lat="45.56086" lon="6.56222">
        <ele>2294.8000488281</ele>
        <time>2014-01-31T10:58:00.000Z</time>
      </trkpt>
      <trkpt lat="45.56086" lon="6.56222">
        <ele>2295</ele>
        <time>2014-01-31T10:58:01.000Z</time>
      </trkpt>
      <trkpt lat="45.56086" lon="6.56222">
        <ele>2295</ele>
        <time>2014-01-31T10:58:02.000Z</time>
      </trkpt>
      <trkpt lat="45.56086" lon="6.56222">
        <ele>2295</ele>
        <time>2014-01-31T10:58:03.000Z</time>
      </trkpt>
      <trkpt lat="45.56086" lon="6.56222">
        <ele>2295</ele>
        <time>2014-01-31T10:58:05.000Z</time>
      </trkpt>
      <trkpt lat="45.56086" lon="6.56222">
        <ele>2295</ele>
        <time>2014-01-31T10:58:06.000Z</time>
      </trkpt>
      <trkpt lat="45.56086" lon="6.56222">
        <ele>2295</ele>
        <time>2014-01-31T10:58:07.000Z</time>
      </trkpt>
      <trkpt lat="45.56086" lon="6.56222">
        <ele>2295</ele>
        <time>2014-01-31T10:58:08.000Z</time>
      </trkpt>
      <trkpt lat="45.56086" lon="6.56222">
        <ele>2294.8000488281</ele>
        <time>2014-01-31T10:58:09.000Z</time>
      </trkpt>
      <trkpt lat="45.56086" lon="6.56222">
        <ele>2295</ele>
        <time>2014-01-31T10:58:10.000Z</time>
      </trkpt>
      <trkpt lat="45.56086" lon="6.56222">
        <ele>2295</ele>
        <time>2014-01-31T10:58:11.000Z</time>
      </trkpt>
      <trkpt lat="45.56086" lon="6.56222">
        <ele>2295</ele>
        <time>2014-01-31T10:58:12.000Z</time>
      </trkpt>
      <trkpt lat="45.56086" lon="6.56222">
        <ele>2295</ele>
        <time>2014-01-31T10:58:13.000Z</time>
      </trkpt>
      <trkpt lat="45.56086" lon="6.56222">
        <ele>2295.1999511719</ele>
        <time>2014-01-31T10:58:14.000Z</time>
      </trkpt>
      <trkpt lat="45.56086" lon="6.56222">
        <ele>2295.1999511719</ele>
        <time>2014-01-31T10:58:15.000Z</time>
      </trkpt>
      <trkpt lat="45.56086" lon="6.56222">
        <ele>2295.1999511719</ele>
        <time>2014-01-31T10:58:16.000Z</time>
      </trkpt>
      <trkpt lat="45.56086" lon="6.56222">
        <ele>2295.1999511719</ele>
        <time>2014-01-31T10:58:17.000Z</time>
      </trkpt>
      <trkpt lat="45.56086" lon="6.56222">
        <ele>2295.1999511719</ele>
        <time>2014-01-31T10:58:18.000Z</time>
      </trkpt>
      <trkpt lat="45.56086" lon="6.56222">
        <ele>2295</ele>
        <time>2014-01-31T10:58:19.000Z</time>
      </trkpt>
      <trkpt lat="45.56086" lon="6.56222">
        <ele>2295</ele>
        <time>2014-01-31T10:58:20.000Z</time>
      </trkpt>
      <trkpt lat="45.56086" lon="6.56222">
        <ele>2295</ele>
        <time>2014-01-31T10:58:21.000Z</time>
      </trkpt>
      <trkpt lat="45.56086" lon="6.56222">
        <ele>2295</ele>
        <time>2014-01-31T10:58:22.000Z</time>
      </trkpt>
      <trkpt lat="45.56086" lon="6.56222">
        <ele>2295</ele>
        <time>2014-01-31T10:58:23.000Z</time>
      </trkpt>
      <trkpt lat="45.56086" lon="6.56222">
        <ele>2295</ele>
        <time>2014-01-31T10:58:24.000Z</time>
      </trkpt>
      <trkpt lat="45.56086" lon="6.56222">
        <ele>2295</ele>
        <time>2014-01-31T10:58:25.000Z</time>
      </trkpt>
      <trkpt lat="45.56086" lon="6.56222">
        <ele>2295</ele>
        <time>2014-01-31T10:58:26.000Z</time>
      </trkpt>
      <trkpt lat="45.56086" lon="6.56222">
        <ele>2295</ele>
        <time>2014-01-31T10:58:27.000Z</time>
      </trkpt>
      <trkpt lat="45.56086" lon="6.56222">
        <ele>2295</ele>
        <time>2014-01-31T10:58:31.000Z</time>
      </trkpt>
      <trkpt lat="45.56086" lon="6.56222">
        <ele>2295</ele>
        <time>2014-01-31T10:58:32.000Z</time>
      </trkpt>
      <trkpt lat="45.56086" lon="6.56222">
        <ele>2295</ele>
        <time>2014-01-31T10:58:33.000Z</time>
      </trkpt>
      <trkpt lat="45.56086" lon="6.56222">
        <ele>2295</ele>
        <time>2014-01-31T10:58:34.000Z</time>
      </trkpt>
      <trkpt lat="45.56086" lon="6.56222">
        <ele>2295</ele>
        <time>2014-01-31T10:58:35.000Z</time>
      </trkpt>
      <trkpt lat="45.56086" lon="6.56222">
        <ele>2295</ele>
        <time>2014-01-31T10:58:36.000Z</time>
      </trkpt>
      <trkpt lat="45.56086" lon="6.56222">
        <ele>2295.1999511719</ele>
        <time>2014-01-31T10:58:37.000Z</time>
      </trkpt>
      <trkpt lat="45.56086" lon="6.56222">
        <ele>2295</ele>
        <time>2014-01-31T10:58:38.000Z</time>
      </trkpt>
      <trkpt lat="45.56086" lon="6.56222">
        <ele>2295</ele>
        <time>2014-01-31T10:58:39.000Z</time>
      </trkpt>
      <trkpt lat="45.56086" lon="6.56222">
        <ele>2295</ele>
        <time>2014-01-31T10:58:40.000Z</time>
      </trkpt>
      <trkpt lat="45.56086" lon="6.56222">
        <ele>2295</ele>
        <time>2014-01-31T10:58:41.000Z</time>
      </trkpt>
      <trkpt lat="45.56086" lon="6.56222">
        <ele>2295</ele>
        <time>2014-01-31T10:58:42.000Z</time>
      </trkpt>
      <trkpt lat="45.56086" lon="6.56222">
        <ele>2295</ele>
        <time>2014-01-31T10:58:43.000Z</time>
      </trkpt>
      <trkpt lat="45.56086" lon="6.56222">
        <ele>2294.8000488281</ele>
        <time>2014-01-31T10:58:44.000Z</time>
      </trkpt>
      <trkpt lat="45.56086" lon="6.56222">
        <ele>2294.8000488281</ele>
        <time>2014-01-31T10:58:45.000Z</time>
      </trkpt>
      <trkpt lat="45.56086" lon="6.56222">
        <ele>2294.8000488281</ele>
        <time>2014-01-31T10:58:46.000Z</time>
      </trkpt>
      <trkpt lat="45.56086" lon="6.56222">
        <ele>2294.8000488281</ele>
        <time>2014-01-31T10:58:47.000Z</time>
      </trkpt>
      <trkpt lat="45.56086" lon="6.56222">
        <ele>2294.8000488281</ele>
        <time>2014-01-31T10:58:48.000Z</time>
      </trkpt>
      <trkpt lat="45.56086" lon="6.56222">
        <ele>2294.8000488281</ele>
        <time>2014-01-31T10:58:49.000Z</time>
      </trkpt>
      <trkpt lat="45.56086" lon="6.56222">
        <ele>2294.8000488281</ele>
        <time>2014-01-31T10:58:50.000Z</time>
      </trkpt>
      <trkpt lat="45.56086" lon="6.56222">
        <ele>2294.8000488281</ele>
        <time>2014-01-31T10:58:51.000Z</time>
      </trkpt>
      <trkpt lat="45.56086" lon="6.56222">
        <ele>2294.8000488281</ele>
        <time>2014-01-31T10:58:52.000Z</time>
      </trkpt>
      <trkpt lat="45.56086" lon="6.56222">
        <ele>2295</ele>
        <time>2014-01-31T10:58:53.000Z</time>
      </trkpt>
      <trkpt lat="45.56086" lon="6.56222">
        <ele>2295</ele>
        <time>2014-01-31T10:58:54.000Z</time>
      </trkpt>
      <trkpt lat="45.56086" lon="6.56222">
        <ele>2295</ele>
        <time>2014-01-31T10:58:55.000Z</time>
      </trkpt>
      <trkpt lat="45.56086" lon="6.56222">
        <ele>2295</ele>
        <time>2014-01-31T10:58:56.000Z</time>
      </trkpt>
      <trkpt lat="45.56086" lon="6.56222">
        <ele>2294.8000488281</ele>
        <time>2014-01-31T10:58:57.000Z</time>
      </trkpt>
      <trkpt lat="45.56086" lon="6.56222">
        <ele>2294.8000488281</ele>
        <time>2014-01-31T10:58:58.000Z</time>
      </trkpt>
      <trkpt lat="45.56086" lon="6.56222">
        <ele>2294.8000488281</ele>
        <time>2014-01-31T10:58:59.000Z</time>
      </trkpt>
      <trkpt lat="45.56086" lon="6.56222">
        <ele>2294.8000488281</ele>
        <time>2014-01-31T10:59:00.000Z</time>
      </trkpt>
      <trkpt lat="45.56086" lon="6.56222">
        <ele>2294.6000976562</ele>
        <time>2014-01-31T10:59:01.000Z</time>
      </trkpt>
      <trkpt lat="45.56086" lon="6.56222">
        <ele>2294.6000976562</ele>
        <time>2014-01-31T10:59:02.000Z</time>
      </trkpt>
      <trkpt lat="45.56086" lon="6.56222">
        <ele>2294.6000976562</ele>
        <time>2014-01-31T10:59:04.000Z</time>
      </trkpt>
      <trkpt lat="45.56086" lon="6.56222">
        <ele>2294.6000976562</ele>
        <time>2014-01-31T10:59:06.000Z</time>
      </trkpt>
      <trkpt lat="45.56086" lon="6.56222">
        <ele>2294.6000976562</ele>
        <time>2014-01-31T10:59:07.000Z</time>
      </trkpt>
      <trkpt lat="45.56086" lon="6.56222">
        <ele>2294.6000976562</ele>
        <time>2014-01-31T10:59:08.000Z</time>
      </trkpt>
      <trkpt lat="45.56086" lon="6.56222">
        <ele>2294.6000976562</ele>
        <time>2014-01-31T10:59:09.000Z</time>
      </trkpt>
      <trkpt lat="45.56086" lon="6.56222">
        <ele>2294.6000976562</ele>
        <time>2014-01-31T10:59:10.000Z</time>
      </trkpt>
      <trkpt lat="45.56086" lon="6.56222">
        <ele>2294.6000976562</ele>
        <time>2014-01-31T10:59:11.000Z</time>
      </trkpt>
      <trkpt lat="45.56086" lon="6.56222">
        <ele>2294.3999023438</ele>
        <time>2014-01-31T10:59:12.000Z</time>
      </trkpt>
      <trkpt lat="45.56086" lon="6.56222">
        <ele>2294.3999023438</ele>
        <time>2014-01-31T10:59:13.000Z</time>
      </trkpt>
      <trkpt lat="45.56086" lon="6.56222">
        <ele>2294.3999023438</ele>
        <time>2014-01-31T10:59:14.000Z</time>
      </trkpt>
      <trkpt lat="45.56086" lon="6.56222">
        <ele>2294.3999023438</ele>
        <time>2014-01-31T10:59:15.000Z</time>
      </trkpt>
      <trkpt lat="45.56086" lon="6.56222">
        <ele>2294.3999023438</ele>
        <time>2014-01-31T10:59:16.000Z</time>
      </trkpt>
      <trkpt lat="45.56086" lon="6.56222">
        <ele>2294.3999023438</ele>
        <time>2014-01-31T10:59:19.000Z</time>
      </trkpt>
      <trkpt lat="45.56086" lon="6.56222">
        <ele>2294.3999023438</ele>
        <time>2014-01-31T10:59:20.000Z</time>
      </trkpt>
      <trkpt lat="45.56086" lon="6.56222">
        <ele>2294.3999023438</ele>
        <time>2014-01-31T10:59:21.000Z</time>
      </trkpt>
      <trkpt lat="45.56086" lon="6.56222">
        <ele>2294.3999023438</ele>
        <time>2014-01-31T10:59:22.000Z</time>
      </trkpt>
      <trkpt lat="45.56086" lon="6.56222">
        <ele>2294.3999023438</ele>
        <time>2014-01-31T10:59:23.000Z</time>
      </trkpt>
      <trkpt lat="45.56086" lon="6.56222">
        <ele>2294.3999023438</ele>
        <time>2014-01-31T10:59:24.000Z</time>
      </trkpt>
      <trkpt lat="45.56086" lon="6.56222">
        <ele>2294.3999023438</ele>
        <time>2014-01-31T10:59:25.000Z</time>
      </trkpt>
      <trkpt lat="45.56086" lon="6.56222">
        <ele>2294.3999023438</ele>
        <time>2014-01-31T10:59:26.000Z</time>
      </trkpt>
      <trkpt lat="45.56086" lon="6.56222">
        <ele>2294.3999023438</ele>
        <time>2014-01-31T10:59:27.000Z</time>
      </trkpt>
      <trkpt lat="45.56086" lon="6.56222">
        <ele>2294.3999023438</ele>
        <time>2014-01-31T10:59:28.000Z</time>
      </trkpt>
      <trkpt lat="45.56086" lon="6.56222">
        <ele>2294.3999023438</ele>
        <time>2014-01-31T10:59:29.000Z</time>
      </trkpt>
      <trkpt lat="45.56086" lon="6.56222">
        <ele>2294.3999023438</ele>
        <time>2014-01-31T10:59:30.000Z</time>
      </trkpt>
      <trkpt lat="45.56086" lon="6.56222">
        <ele>2294.3999023438</ele>
        <time>2014-01-31T10:59:31.000Z</time>
      </trkpt>
      <trkpt lat="45.56086" lon="6.56222">
        <ele>2294.3999023438</ele>
        <time>2014-01-31T10:59:32.000Z</time>
      </trkpt>
      <trkpt lat="45.56086" lon="6.56222">
        <ele>2294.3999023438</ele>
        <time>2014-01-31T10:59:33.000Z</time>
      </trkpt>
      <trkpt lat="45.56086" lon="6.56222">
        <ele>2294.3999023438</ele>
        <time>2014-01-31T10:59:34.000Z</time>
      </trkpt>
      <trkpt lat="45.56086" lon="6.56222">
        <ele>2294.3999023438</ele>
        <time>2014-01-31T10:59:35.000Z</time>
      </trkpt>
      <trkpt lat="45.56086" lon="6.56222">
        <ele>2294.3999023438</ele>
        <time>2014-01-31T10:59:38.000Z</time>
      </trkpt>
      <trkpt lat="45.56086" lon="6.56223">
        <ele>2294.3999023438</ele>
        <time>2014-01-31T10:59:39.000Z</time>
      </trkpt>
      <trkpt lat="45.56086" lon="6.56223">
        <ele>2294.6000976562</ele>
        <time>2014-01-31T10:59:40.000Z</time>
      </trkpt>
      <trkpt lat="45.56086" lon="6.56223">
        <ele>2294.6000976562</ele>
        <time>2014-01-31T10:59:41.000Z</time>
      </trkpt>
      <trkpt lat="45.56086" lon="6.56223">
        <ele>2294.6000976562</ele>
        <time>2014-01-31T10:59:42.000Z</time>
      </trkpt>
      <trkpt lat="45.56086" lon="6.56223">
        <ele>2294.3999023438</ele>
        <time>2014-01-31T10:59:43.000Z</time>
      </trkpt>
      <trkpt lat="45.56086" lon="6.56223">
        <ele>2294.3999023438</ele>
        <time>2014-01-31T10:59:44.000Z</time>
      </trkpt>
      <trkpt lat="45.56086" lon="6.56223">
        <ele>2294.3999023438</ele>
        <time>2014-01-31T10:59:45.000Z</time>
      </trkpt>
      <trkpt lat="45.56086" lon="6.56223">
        <ele>2294.3999023438</ele>
        <time>2014-01-31T10:59:46.000Z</time>
      </trkpt>
      <trkpt lat="45.56086" lon="6.56223">
        <ele>2294.3999023438</ele>
        <time>2014-01-31T10:59:47.000Z</time>
      </trkpt>
      <trkpt lat="45.56086" lon="6.56223">
        <ele>2294.3999023438</ele>
        <time>2014-01-31T10:59:49.000Z</time>
      </trkpt>
      <trkpt lat="45.56086" lon="6.56223">
        <ele>2294.3999023438</ele>
        <time>2014-01-31T10:59:50.000Z</time>
      </trkpt>
      <trkpt lat="45.56086" lon="6.56223">
        <ele>2294.3999023438</ele>
        <time>2014-01-31T10:59:51.000Z</time>
      </trkpt>
      <trkpt lat="45.56086" lon="6.56223">
        <ele>2294.3999023438</ele>
        <time>2014-01-31T10:59:52.000Z</time>
      </trkpt>
      <trkpt lat="45.56086" lon="6.56223">
        <ele>2294.3999023438</ele>
        <time>2014-01-31T10:59:53.000Z</time>
      </trkpt>
      <trkpt lat="45.56086" lon="6.56223">
        <ele>2294.3999023438</ele>
        <time>2014-01-31T10:59:56.000Z</time>
      </trkpt>
      <trkpt lat="45.56086" lon="6.56223">
        <ele>2294.3999023438</ele>
        <time>2014-01-31T10:59:57.000Z</time>
      </trkpt>
      <trkpt lat="45.56086" lon="6.56223">
        <ele>2294.3999023438</ele>
        <time>2014-01-31T10:59:58.000Z</time>
      </trkpt>
      <trkpt lat="45.56086" lon="6.56223">
        <ele>2294.3999023438</ele>
        <time>2014-01-31T10:59:59.000Z</time>
      </trkpt>
      <trkpt lat="45.56086" lon="6.56223">
        <ele>2294.6000976562</ele>
        <time>2014-01-31T11:00:00.000Z</time>
      </trkpt>
      <trkpt lat="45.56086" lon="6.56223">
        <ele>2294.6000976562</ele>
        <time>2014-01-31T11:00:01.000Z</time>
      </trkpt>
      <trkpt lat="45.56086" lon="6.56223">
        <ele>2294.6000976562</ele>
        <time>2014-01-31T11:00:02.000Z</time>
      </trkpt>
      <trkpt lat="45.56086" lon="6.56223">
        <ele>2294.6000976562</ele>
        <time>2014-01-31T11:00:03.000Z</time>
      </trkpt>
      <trkpt lat="45.56086" lon="6.56223">
        <ele>2294.6000976562</ele>
        <time>2014-01-31T11:00:05.000Z</time>
      </trkpt>
      <trkpt lat="45.56086" lon="6.56223">
        <ele>2294.6000976562</ele>
        <time>2014-01-31T11:00:06.000Z</time>
      </trkpt>
      <trkpt lat="45.56086" lon="6.56223">
        <ele>2294.3999023438</ele>
        <time>2014-01-31T11:00:07.000Z</time>
      </trkpt>
      <trkpt lat="45.56086" lon="6.56223">
        <ele>2294.3999023438</ele>
        <time>2014-01-31T11:00:08.000Z</time>
      </trkpt>
      <trkpt lat="45.56086" lon="6.56223">
        <ele>2294.3999023438</ele>
        <time>2014-01-31T11:00:09.000Z</time>
      </trkpt>
      <trkpt lat="45.56086" lon="6.56223">
        <ele>2294.3999023438</ele>
        <time>2014-01-31T11:00:10.000Z</time>
      </trkpt>
      <trkpt lat="45.56086" lon="6.56223">
        <ele>2294.3999023438</ele>
        <time>2014-01-31T11:00:11.000Z</time>
      </trkpt>
      <trkpt lat="45.56086" lon="6.56223">
        <ele>2294.1999511719</ele>
        <time>2014-01-31T11:00:12.000Z</time>
      </trkpt>
      <trkpt lat="45.56086" lon="6.56223">
        <ele>2294.1999511719</ele>
        <time>2014-01-31T11:00:13.000Z</time>
      </trkpt>
      <trkpt lat="45.56086" lon="6.56223">
        <ele>2294.3999023438</ele>
        <time>2014-01-31T11:00:15.000Z</time>
      </trkpt>
      <trkpt lat="45.56086" lon="6.56223">
        <ele>2294.3999023438</ele>
        <time>2014-01-31T11:00:16.000Z</time>
      </trkpt>
      <trkpt lat="45.56086" lon="6.56223">
        <ele>2294.3999023438</ele>
        <time>2014-01-31T11:00:17.000Z</time>
      </trkpt>
      <trkpt lat="45.56086" lon="6.56223">
        <ele>2294.3999023438</ele>
        <time>2014-01-31T11:00:18.000Z</time>
      </trkpt>
      <trkpt lat="45.56087" lon="6.56223">
        <ele>2294.3999023438</ele>
        <time>2014-01-31T11:00:19.000Z</time>
      </trkpt>
      <trkpt lat="45.56087" lon="6.56223">
        <ele>2294.3999023438</ele>
        <time>2014-01-31T11:00:20.000Z</time>
      </trkpt>
      <trkpt lat="45.56087" lon="6.56223">
        <ele>2294.6000976562</ele>
        <time>2014-01-31T11:00:21.000Z</time>
      </trkpt>
      <trkpt lat="45.56087" lon="6.56223">
        <ele>2294.6000976562</ele>
        <time>2014-01-31T11:00:22.000Z</time>
      </trkpt>
      <trkpt lat="45.56087" lon="6.56223">
        <ele>2294.8000488281</ele>
        <time>2014-01-31T11:00:23.000Z</time>
      </trkpt>
      <trkpt lat="45.56087" lon="6.56223">
        <ele>2295.1999511719</ele>
        <time>2014-01-31T11:00:24.000Z</time>
      </trkpt>
      <trkpt lat="45.56087" lon="6.56223">
        <ele>2295.1999511719</ele>
        <time>2014-01-31T11:00:25.000Z</time>
      </trkpt>
      <trkpt lat="45.56087" lon="6.56223">
        <ele>2295.1999511719</ele>
        <time>2014-01-31T11:00:26.000Z</time>
      </trkpt>
      <trkpt lat="45.56087" lon="6.56223">
        <ele>2295.1999511719</ele>
        <time>2014-01-31T11:00:27.000Z</time>
      </trkpt>
      <trkpt lat="45.56087" lon="6.56223">
        <ele>2295.1999511719</ele>
        <time>2014-01-31T11:00:28.000Z</time>
      </trkpt>
      <trkpt lat="45.56087" lon="6.56223">
        <ele>2295.1999511719</ele>
        <time>2014-01-31T11:00:29.000Z</time>
      </trkpt>
      <trkpt lat="45.56087" lon="6.56223">
        <ele>2295.3999023438</ele>
        <time>2014-01-31T11:00:30.000Z</time>
      </trkpt>
      <trkpt lat="45.56087" lon="6.56223">
        <ele>2295.3999023438</ele>
        <time>2014-01-31T11:00:31.000Z</time>
      </trkpt>
      <trkpt lat="45.56087" lon="6.56223">
        <ele>2295.3999023438</ele>
        <time>2014-01-31T11:00:32.000Z</time>
      </trkpt>
      <trkpt lat="45.56087" lon="6.56223">
        <ele>2295.3999023438</ele>
        <time>2014-01-31T11:00:33.000Z</time>
      </trkpt>
      <trkpt lat="45.56087" lon="6.56223">
        <ele>2295.1999511719</ele>
        <time>2014-01-31T11:00:34.000Z</time>
      </trkpt>
      <trkpt lat="45.56087" lon="6.56223">
        <ele>2295</ele>
        <time>2014-01-31T11:00:35.000Z</time>
      </trkpt>
      <trkpt lat="45.56087" lon="6.56223">
        <ele>2294.8000488281</ele>
        <time>2014-01-31T11:00:36.000Z</time>
      </trkpt>
      <trkpt lat="45.56087" lon="6.56223">
        <ele>2294.3999023438</ele>
        <time>2014-01-31T11:00:37.000Z</time>
      </trkpt>
      <trkpt lat="45.56087" lon="6.56223">
        <ele>2294.1999511719</ele>
        <time>2014-01-31T11:00:38.000Z</time>
      </trkpt>
      <trkpt lat="45.56087" lon="6.56223">
        <ele>2294.1999511719</ele>
        <time>2014-01-31T11:00:39.000Z</time>
      </trkpt>
      <trkpt lat="45.56087" lon="6.56223">
        <ele>2294.1999511719</ele>
        <time>2014-01-31T11:00:40.000Z</time>
      </trkpt>
      <trkpt lat="45.56087" lon="6.56223">
        <ele>2294.1999511719</ele>
        <time>2014-01-31T11:00:41.000Z</time>
      </trkpt>
      <trkpt lat="45.56087" lon="6.56223">
        <ele>2294.1999511719</ele>
        <time>2014-01-31T11:00:42.000Z</time>
      </trkpt>
      <trkpt lat="45.56087" lon="6.56223">
        <ele>2294.1999511719</ele>
        <time>2014-01-31T11:00:43.000Z</time>
      </trkpt>
      <trkpt lat="45.56087" lon="6.56223">
        <ele>2294.3999023438</ele>
        <time>2014-01-31T11:00:44.000Z</time>
      </trkpt>
      <trkpt lat="45.56087" lon="6.56223">
        <ele>2294.3999023438</ele>
        <time>2014-01-31T11:00:45.000Z</time>
      </trkpt>
      <trkpt lat="45.56087" lon="6.56223">
        <ele>2294.6000976562</ele>
        <time>2014-01-31T11:00:46.000Z</time>
      </trkpt>
      <trkpt lat="45.56087" lon="6.56223">
        <ele>2294.8000488281</ele>
        <time>2014-01-31T11:00:47.000Z</time>
      </trkpt>
      <trkpt lat="45.56087" lon="6.56223">
        <ele>2294.8000488281</ele>
        <time>2014-01-31T11:00:48.000Z</time>
      </trkpt>
      <trkpt lat="45.56087" lon="6.56223">
        <ele>2294.8000488281</ele>
        <time>2014-01-31T11:00:49.000Z</time>
      </trkpt>
      <trkpt lat="45.56087" lon="6.56223">
        <ele>2294.8000488281</ele>
        <time>2014-01-31T11:00:50.000Z</time>
      </trkpt>
      <trkpt lat="45.56087" lon="6.56223">
        <ele>2294.6000976562</ele>
        <time>2014-01-31T11:00:51.000Z</time>
      </trkpt>
      <trkpt lat="45.56087" lon="6.56223">
        <ele>2294.6000976562</ele>
        <time>2014-01-31T11:00:52.000Z</time>
      </trkpt>
      <trkpt lat="45.56087" lon="6.56223">
        <ele>2294.6000976562</ele>
        <time>2014-01-31T11:00:53.000Z</time>
      </trkpt>
      <trkpt lat="45.56087" lon="6.56223">
        <ele>2294.6000976562</ele>
        <time>2014-01-31T11:00:54.000Z</time>
      </trkpt>
      <trkpt lat="45.56087" lon="6.56223">
        <ele>2294.6000976562</ele>
        <time>2014-01-31T11:00:55.000Z</time>
      </trkpt>
      <trkpt lat="45.56087" lon="6.56223">
        <ele>2294.6000976562</ele>
        <time>2014-01-31T11:00:56.000Z</time>
      </trkpt>
      <trkpt lat="45.56087" lon="6.56223">
        <ele>2294.6000976562</ele>
        <time>2014-01-31T11:00:57.000Z</time>
      </trkpt>
      <trkpt lat="45.56087" lon="6.56223">
        <ele>2294.3999023438</ele>
        <time>2014-01-31T11:00:58.000Z</time>
      </trkpt>
      <trkpt lat="45.56087" lon="6.56223">
        <ele>2294.3999023438</ele>
        <time>2014-01-31T11:00:59.000Z</time>
      </trkpt>
      <trkpt lat="45.56087" lon="6.56223">
        <ele>2294.3999023438</ele>
        <time>2014-01-31T11:01:00.000Z</time>
      </trkpt>
      <trkpt lat="45.56087" lon="6.56223">
        <ele>2294.3999023438</ele>
        <time>2014-01-31T11:01:01.000Z</time>
      </trkpt>
      <trkpt lat="45.56087" lon="6.56223">
        <ele>2294.3999023438</ele>
        <time>2014-01-31T11:01:03.000Z</time>
      </trkpt>
      <trkpt lat="45.56087" lon="6.56223">
        <ele>2294.3999023438</ele>
        <time>2014-01-31T11:01:04.000Z</time>
      </trkpt>
      <trkpt lat="45.56087" lon="6.56223">
        <ele>2294.3999023438</ele>
        <time>2014-01-31T11:01:05.000Z</time>
      </trkpt>
      <trkpt lat="45.56087" lon="6.56223">
        <ele>2294.3999023438</ele>
        <time>2014-01-31T11:01:07.000Z</time>
      </trkpt>
      <trkpt lat="45.56087" lon="6.56223">
        <ele>2294.3999023438</ele>
        <time>2014-01-31T11:01:08.000Z</time>
      </trkpt>
      <trkpt lat="45.56087" lon="6.56223">
        <ele>2294.3999023438</ele>
        <time>2014-01-31T11:01:09.000Z</time>
      </trkpt>
      <trkpt lat="45.56087" lon="6.56223">
        <ele>2294.3999023438</ele>
        <time>2014-01-31T11:01:10.000Z</time>
      </trkpt>
      <trkpt lat="45.56087" lon="6.56223">
        <ele>2294.1999511719</ele>
        <time>2014-01-31T11:01:11.000Z</time>
      </trkpt>
      <trkpt lat="45.56087" lon="6.56223">
        <ele>2294</ele>
        <time>2014-01-31T11:01:12.000Z</time>
      </trkpt>
      <trkpt lat="45.56087" lon="6.56223">
        <ele>2294</ele>
        <time>2014-01-31T11:01:13.000Z</time>
      </trkpt>
      <trkpt lat="45.56087" lon="6.56223">
        <ele>2294</ele>
        <time>2014-01-31T11:01:14.000Z</time>
      </trkpt>
      <trkpt lat="45.56087" lon="6.56223">
        <ele>2294.1999511719</ele>
        <time>2014-01-31T11:01:15.000Z</time>
      </trkpt>
      <trkpt lat="45.56087" lon="6.56223">
        <ele>2294.3999023438</ele>
        <time>2014-01-31T11:01:16.000Z</time>
      </trkpt>
      <trkpt lat="45.56087" lon="6.56223">
        <ele>2294.3999023438</ele>
        <time>2014-01-31T11:01:17.000Z</time>
      </trkpt>
      <trkpt lat="45.56087" lon="6.56223">
        <ele>2294.3999023438</ele>
        <time>2014-01-31T11:01:18.000Z</time>
      </trkpt>
      <trkpt lat="45.56087" lon="6.56223">
        <ele>2294.6000976562</ele>
        <time>2014-01-31T11:01:19.000Z</time>
      </trkpt>
      <trkpt lat="45.56087" lon="6.56223">
        <ele>2294.8000488281</ele>
        <time>2014-01-31T11:01:20.000Z</time>
      </trkpt>
      <trkpt lat="45.56087" lon="6.56223">
        <ele>2294.8000488281</ele>
        <time>2014-01-31T11:01:21.000Z</time>
      </trkpt>
      <trkpt lat="45.56087" lon="6.56223">
        <ele>2295</ele>
        <time>2014-01-31T11:01:22.000Z</time>
      </trkpt>
      <trkpt lat="45.56087" lon="6.56223">
        <ele>2295</ele>
        <time>2014-01-31T11:01:23.000Z</time>
      </trkpt>
      <trkpt lat="45.56087" lon="6.56223">
        <ele>2295</ele>
        <time>2014-01-31T11:01:24.000Z</time>
      </trkpt>
      <trkpt lat="45.56087" lon="6.56223">
        <ele>2294.8000488281</ele>
        <time>2014-01-31T11:01:25.000Z</time>
      </trkpt>
      <trkpt lat="45.56087" lon="6.56223">
        <ele>2294.8000488281</ele>
        <time>2014-01-31T11:01:26.000Z</time>
      </trkpt>
      <trkpt lat="45.56087" lon="6.56223">
        <ele>2294.8000488281</ele>
        <time>2014-01-31T11:01:27.000Z</time>
      </trkpt>
      <trkpt lat="45.56087" lon="6.56223">
        <ele>2294.8000488281</ele>
        <time>2014-01-31T11:01:28.000Z</time>
      </trkpt>
      <trkpt lat="45.56087" lon="6.56223">
        <ele>2294.8000488281</ele>
        <time>2014-01-31T11:01:30.000Z</time>
      </trkpt>
      <trkpt lat="45.56087" lon="6.56223">
        <ele>2294.8000488281</ele>
        <time>2014-01-31T11:01:31.000Z</time>
      </trkpt>
      <trkpt lat="45.56087" lon="6.56223">
        <ele>2294.8000488281</ele>
        <time>2014-01-31T11:01:34.000Z</time>
      </trkpt>
      <trkpt lat="45.56087" lon="6.56223">
        <ele>2294.6000976562</ele>
        <time>2014-01-31T11:01:35.000Z</time>
      </trkpt>
      <trkpt lat="45.56087" lon="6.56223">
        <ele>2294.6000976562</ele>
        <time>2014-01-31T11:01:36.000Z</time>
      </trkpt>
      <trkpt lat="45.56087" lon="6.56223">
        <ele>2294.6000976562</ele>
        <time>2014-01-31T11:01:37.000Z</time>
      </trkpt>
      <trkpt lat="45.56087" lon="6.56223">
        <ele>2294.3999023438</ele>
        <time>2014-01-31T11:01:38.000Z</time>
      </trkpt>
      <trkpt lat="45.56087" lon="6.56223">
        <ele>2294.3999023438</ele>
        <time>2014-01-31T11:01:39.000Z</time>
      </trkpt>
      <trkpt lat="45.56087" lon="6.56223">
        <ele>2294.3999023438</ele>
        <time>2014-01-31T11:01:40.000Z</time>
      </trkpt>
      <trkpt lat="45.56087" lon="6.56223">
        <ele>2294.3999023438</ele>
        <time>2014-01-31T11:01:41.000Z</time>
      </trkpt>
      <trkpt lat="45.56087" lon="6.56223">
        <ele>2294.3999023438</ele>
        <time>2014-01-31T11:01:42.000Z</time>
      </trkpt>
      <trkpt lat="45.56087" lon="6.56223">
        <ele>2294.1999511719</ele>
        <time>2014-01-31T11:01:43.000Z</time>
      </trkpt>
      <trkpt lat="45.56087" lon="6.56223">
        <ele>2294.1999511719</ele>
        <time>2014-01-31T11:01:44.000Z</time>
      </trkpt>
      <trkpt lat="45.56087" lon="6.56223">
        <ele>2294</ele>
        <time>2014-01-31T11:01:45.000Z</time>
      </trkpt>
      <trkpt lat="45.56087" lon="6.56223">
        <ele>2294</ele>
        <time>2014-01-31T11:01:46.000Z</time>
      </trkpt>
      <trkpt lat="45.56087" lon="6.56223">
        <ele>2294</ele>
        <time>2014-01-31T11:01:47.000Z</time>
      </trkpt>
      <trkpt lat="45.56087" lon="6.56223">
        <ele>2294</ele>
        <time>2014-01-31T11:01:48.000Z</time>
      </trkpt>
      <trkpt lat="45.56087" lon="6.56223">
        <ele>2294.1999511719</ele>
        <time>2014-01-31T11:01:49.000Z</time>
      </trkpt>
      <trkpt lat="45.56087" lon="6.56223">
        <ele>2294.3999023438</ele>
        <time>2014-01-31T11:01:50.000Z</time>
      </trkpt>
      <trkpt lat="45.56087" lon="6.56223">
        <ele>2294.6000976562</ele>
        <time>2014-01-31T11:01:51.000Z</time>
      </trkpt>
      <trkpt lat="45.56087" lon="6.56223">
        <ele>2294.6000976562</ele>
        <time>2014-01-31T11:01:52.000Z</time>
      </trkpt>
      <trkpt lat="45.56087" lon="6.56223">
        <ele>2294.6000976562</ele>
        <time>2014-01-31T11:01:53.000Z</time>
      </trkpt>
      <trkpt lat="45.56087" lon="6.56223">
        <ele>2294.6000976562</ele>
        <time>2014-01-31T11:01:54.000Z</time>
      </trkpt>
      <trkpt lat="45.56087" lon="6.56223">
        <ele>2294.6000976562</ele>
        <time>2014-01-31T11:01:55.000Z</time>
      </trkpt>
      <trkpt lat="45.56087" lon="6.56223">
        <ele>2294.3999023438</ele>
        <time>2014-01-31T11:01:56.000Z</time>
      </trkpt>
      <trkpt lat="45.56087" lon="6.56223">
        <ele>2294.1999511719</ele>
        <time>2014-01-31T11:01:57.000Z</time>
      </trkpt>
      <trkpt lat="45.56087" lon="6.56223">
        <ele>2294.1999511719</ele>
        <time>2014-01-31T11:01:58.000Z</time>
      </trkpt>
      <trkpt lat="45.56087" lon="6.56223">
        <ele>2294.1999511719</ele>
        <time>2014-01-31T11:01:59.000Z</time>
      </trkpt>
      <trkpt lat="45.56087" lon="6.56223">
        <ele>2294</ele>
        <time>2014-01-31T11:02:00.000Z</time>
      </trkpt>
      <trkpt lat="45.56087" lon="6.56223">
        <ele>2294</ele>
        <time>2014-01-31T11:02:02.000Z</time>
      </trkpt>
      <trkpt lat="45.56087" lon="6.56223">
        <ele>2294</ele>
        <time>2014-01-31T11:02:03.000Z</time>
      </trkpt>
      <trkpt lat="45.56087" lon="6.56223">
        <ele>2294.1999511719</ele>
        <time>2014-01-31T11:02:04.000Z</time>
      </trkpt>
      <trkpt lat="45.56087" lon="6.56223">
        <ele>2294.1999511719</ele>
        <time>2014-01-31T11:02:05.000Z</time>
      </trkpt>
      <trkpt lat="45.56087" lon="6.56223">
        <ele>2294.1999511719</ele>
        <time>2014-01-31T11:02:06.000Z</time>
      </trkpt>
      <trkpt lat="45.56087" lon="6.56223">
        <ele>2294.1999511719</ele>
        <time>2014-01-31T11:02:07.000Z</time>
      </trkpt>
      <trkpt lat="45.56087" lon="6.56223">
        <ele>2294.3999023438</ele>
        <time>2014-01-31T11:02:08.000Z</time>
      </trkpt>
      <trkpt lat="45.56087" lon="6.56223">
        <ele>2294.3999023438</ele>
        <time>2014-01-31T11:02:09.000Z</time>
      </trkpt>
      <trkpt lat="45.56087" lon="6.56223">
        <ele>2294.3999023438</ele>
        <time>2014-01-31T11:02:10.000Z</time>
      </trkpt>
      <trkpt lat="45.56087" lon="6.56223">
        <ele>2294.3999023438</ele>
        <time>2014-01-31T11:02:11.000Z</time>
      </trkpt>
      <trkpt lat="45.56087" lon="6.56223">
        <ele>2294.3999023438</ele>
        <time>2014-01-31T11:02:12.000Z</time>
      </trkpt>
      <trkpt lat="45.56087" lon="6.56223">
        <ele>2294.3999023438</ele>
        <time>2014-01-31T11:02:13.000Z</time>
      </trkpt>
      <trkpt lat="45.56087" lon="6.56223">
        <ele>2294.3999023438</ele>
        <time>2014-01-31T11:02:14.000Z</time>
      </trkpt>
      <trkpt lat="45.56087" lon="6.56223">
        <ele>2294.1999511719</ele>
        <time>2014-01-31T11:02:15.000Z</time>
      </trkpt>
      <trkpt lat="45.56087" lon="6.56223">
        <ele>2294.1999511719</ele>
        <time>2014-01-31T11:02:16.000Z</time>
      </trkpt>
      <trkpt lat="45.56087" lon="6.56223">
        <ele>2294.3999023438</ele>
        <time>2014-01-31T11:02:17.000Z</time>
      </trkpt>
      <trkpt lat="45.56087" lon="6.56223">
        <ele>2294.3999023438</ele>
        <time>2014-01-31T11:02:18.000Z</time>
      </trkpt>
      <trkpt lat="45.56087" lon="6.56223">
        <ele>2294.3999023438</ele>
        <time>2014-01-31T11:02:19.000Z</time>
      </trkpt>
      <trkpt lat="45.56087" lon="6.56223">
        <ele>2294.6000976562</ele>
        <time>2014-01-31T11:02:20.000Z</time>
      </trkpt>
      <trkpt lat="45.56087" lon="6.56223">
        <ele>2294.6000976562</ele>
        <time>2014-01-31T11:02:21.000Z</time>
      </trkpt>
      <trkpt lat="45.56087" lon="6.56223">
        <ele>2294.6000976562</ele>
        <time>2014-01-31T11:02:22.000Z</time>
      </trkpt>
      <trkpt lat="45.56087" lon="6.56223">
        <ele>2294.6000976562</ele>
        <time>2014-01-31T11:02:23.000Z</time>
      </trkpt>
      <trkpt lat="45.56087" lon="6.56223">
        <ele>2294.6000976562</ele>
        <time>2014-01-31T11:02:24.000Z</time>
      </trkpt>
      <trkpt lat="45.56087" lon="6.56223">
        <ele>2294.6000976562</ele>
        <time>2014-01-31T11:02:25.000Z</time>
      </trkpt>
      <trkpt lat="45.56087" lon="6.56223">
        <ele>2294.6000976562</ele>
        <time>2014-01-31T11:02:26.000Z</time>
      </trkpt>
      <trkpt lat="45.56087" lon="6.56223">
        <ele>2294.6000976562</ele>
        <time>2014-01-31T11:02:27.000Z</time>
      </trkpt>
      <trkpt lat="45.56087" lon="6.56223">
        <ele>2294.6000976562</ele>
        <time>2014-01-31T11:02:28.000Z</time>
      </trkpt>
      <trkpt lat="45.56087" lon="6.56223">
        <ele>2294.6000976562</ele>
        <time>2014-01-31T11:02:29.000Z</time>
      </trkpt>
      <trkpt lat="45.56087" lon="6.56223">
        <ele>2294.6000976562</ele>
        <time>2014-01-31T11:02:30.000Z</time>
      </trkpt>
      <trkpt lat="45.56087" lon="6.56223">
        <ele>2294.6000976562</ele>
        <time>2014-01-31T11:02:31.000Z</time>
      </trkpt>
      <trkpt lat="45.56087" lon="6.56223">
        <ele>2294.6000976562</ele>
        <time>2014-01-31T11:02:32.000Z</time>
      </trkpt>
      <trkpt lat="45.56087" lon="6.56223">
        <ele>2294.6000976562</ele>
        <time>2014-01-31T11:02:35.000Z</time>
      </trkpt>
      <trkpt lat="45.56087" lon="6.56223">
        <ele>2294.6000976562</ele>
        <time>2014-01-31T11:02:36.000Z</time>
      </trkpt>
      <trkpt lat="45.56087" lon="6.56223">
        <ele>2294.6000976562</ele>
        <time>2014-01-31T11:02:37.000Z</time>
      </trkpt>
      <trkpt lat="45.56087" lon="6.56223">
        <ele>2294.8000488281</ele>
        <time>2014-01-31T11:02:38.000Z</time>
      </trkpt>
      <trkpt lat="45.56087" lon="6.56223">
        <ele>2294.8000488281</ele>
        <time>2014-01-31T11:02:39.000Z</time>
      </trkpt>
      <trkpt lat="45.56087" lon="6.56223">
        <ele>2294.8000488281</ele>
        <time>2014-01-31T11:02:40.000Z</time>
      </trkpt>
      <trkpt lat="45.56087" lon="6.56223">
        <ele>2294.8000488281</ele>
        <time>2014-01-31T11:02:41.000Z</time>
      </trkpt>
      <trkpt lat="45.56087" lon="6.56223">
        <ele>2295</ele>
        <time>2014-01-31T11:02:42.000Z</time>
      </trkpt>
      <trkpt lat="45.56087" lon="6.56223">
        <ele>2294.8000488281</ele>
        <time>2014-01-31T11:02:43.000Z</time>
      </trkpt>
      <trkpt lat="45.56087" lon="6.56223">
        <ele>2294.8000488281</ele>
        <time>2014-01-31T11:02:44.000Z</time>
      </trkpt>
      <trkpt lat="45.56087" lon="6.56223">
        <ele>2294.8000488281</ele>
        <time>2014-01-31T11:02:45.000Z</time>
      </trkpt>
      <trkpt lat="45.56087" lon="6.56223">
        <ele>2294.8000488281</ele>
        <time>2014-01-31T11:02:46.000Z</time>
      </trkpt>
      <trkpt lat="45.56087" lon="6.56223">
        <ele>2294.8000488281</ele>
        <time>2014-01-31T11:02:47.000Z</time>
      </trkpt>
      <trkpt lat="45.56087" lon="6.56223">
        <ele>2294.8000488281</ele>
        <time>2014-01-31T11:02:48.000Z</time>
      </trkpt>
      <trkpt lat="45.56087" lon="6.56223">
        <ele>2295</ele>
        <time>2014-01-31T11:02:49.000Z</time>
      </trkpt>
      <trkpt lat="45.56087" lon="6.56223">
        <ele>2295</ele>
        <time>2014-01-31T11:02:50.000Z</time>
      </trkpt>
      <trkpt lat="45.56087" lon="6.56223">
        <ele>2295</ele>
        <time>2014-01-31T11:02:51.000Z</time>
      </trkpt>
      <trkpt lat="45.56087" lon="6.56223">
        <ele>2295</ele>
        <time>2014-01-31T11:02:55.000Z</time>
      </trkpt>
      <trkpt lat="45.56087" lon="6.56225">
        <ele>2294.8000488281</ele>
        <time>2014-01-31T11:02:56.000Z</time>
      </trkpt>
      <trkpt lat="45.56087" lon="6.56225">
        <ele>2294.8000488281</ele>
        <time>2014-01-31T11:02:57.000Z</time>
      </trkpt>
      <trkpt lat="45.56087" lon="6.56225">
        <ele>2294.6000976562</ele>
        <time>2014-01-31T11:02:58.000Z</time>
      </trkpt>
      <trkpt lat="45.56087" lon="6.56225">
        <ele>2294.6000976562</ele>
        <time>2014-01-31T11:02:59.000Z</time>
      </trkpt>
      <trkpt lat="45.56087" lon="6.56225">
        <ele>2294.6000976562</ele>
        <time>2014-01-31T11:03:00.000Z</time>
      </trkpt>
      <trkpt lat="45.56087" lon="6.56225">
        <ele>2294.6000976562</ele>
        <time>2014-01-31T11:03:01.000Z</time>
      </trkpt>
      <trkpt lat="45.56087" lon="6.56225">
        <ele>2294.6000976562</ele>
        <time>2014-01-31T11:03:02.000Z</time>
      </trkpt>
      <trkpt lat="45.56087" lon="6.56225">
        <ele>2294.6000976562</ele>
        <time>2014-01-31T11:03:03.000Z</time>
      </trkpt>
      <trkpt lat="45.56087" lon="6.56225">
        <ele>2294.6000976562</ele>
        <time>2014-01-31T11:03:04.000Z</time>
      </trkpt>
      <trkpt lat="45.56087" lon="6.56225">
        <ele>2294.6000976562</ele>
        <time>2014-01-31T11:03:06.000Z</time>
      </trkpt>
      <trkpt lat="45.56087" lon="6.56225">
        <ele>2294.6000976562</ele>
        <time>2014-01-31T11:03:07.000Z</time>
      </trkpt>
      <trkpt lat="45.56087" lon="6.56225">
        <ele>2294.3999023438</ele>
        <time>2014-01-31T11:03:08.000Z</time>
      </trkpt>
      <trkpt lat="45.56087" lon="6.56225">
        <ele>2294.1999511719</ele>
        <time>2014-01-31T11:03:09.000Z</time>
      </trkpt>
      <trkpt lat="45.56087" lon="6.56225">
        <ele>2294</ele>
        <time>2014-01-31T11:03:10.000Z</time>
      </trkpt>
      <trkpt lat="45.56087" lon="6.56225">
        <ele>2293.8000488281</ele>
        <time>2014-01-31T11:03:11.000Z</time>
      </trkpt>
      <trkpt lat="45.56087" lon="6.56225">
        <ele>2293.6000976562</ele>
        <time>2014-01-31T11:03:12.000Z</time>
      </trkpt>
      <trkpt lat="45.56087" lon="6.56225">
        <ele>2293.8000488281</ele>
        <time>2014-01-31T11:03:13.000Z</time>
      </trkpt>
      <trkpt lat="45.56087" lon="6.56225">
        <ele>2294</ele>
        <time>2014-01-31T11:03:14.000Z</time>
      </trkpt>
      <trkpt lat="45.56087" lon="6.56225">
        <ele>2294.1999511719</ele>
        <time>2014-01-31T11:03:15.000Z</time>
      </trkpt>
      <trkpt lat="45.56087" lon="6.56225">
        <ele>2294.3999023438</ele>
        <time>2014-01-31T11:03:16.000Z</time>
      </trkpt>
      <trkpt lat="45.56087" lon="6.56225">
        <ele>2294.3999023438</ele>
        <time>2014-01-31T11:03:17.000Z</time>
      </trkpt>
      <trkpt lat="45.56087" lon="6.56225">
        <ele>2294.3999023438</ele>
        <time>2014-01-31T11:03:18.000Z</time>
      </trkpt>
      <trkpt lat="45.56087" lon="6.56225">
        <ele>2294.3999023438</ele>
        <time>2014-01-31T11:03:19.000Z</time>
      </trkpt>
      <trkpt lat="45.56087" lon="6.56225">
        <ele>2294.1999511719</ele>
        <time>2014-01-31T11:03:20.000Z</time>
      </trkpt>
      <trkpt lat="45.56087" lon="6.56225">
        <ele>2293.8000488281</ele>
        <time>2014-01-31T11:03:21.000Z</time>
      </trkpt>
      <trkpt lat="45.56087" lon="6.56225">
        <ele>2293.6000976562</ele>
        <time>2014-01-31T11:03:22.000Z</time>
      </trkpt>
      <trkpt lat="45.56087" lon="6.56225">
        <ele>2293.3999023438</ele>
        <time>2014-01-31T11:03:23.000Z</time>
      </trkpt>
      <trkpt lat="45.56087" lon="6.56225">
        <ele>2293.3999023438</ele>
        <time>2014-01-31T11:03:24.000Z</time>
      </trkpt>
      <trkpt lat="45.56087" lon="6.56225">
        <ele>2293.3999023438</ele>
        <time>2014-01-31T11:03:25.000Z</time>
      </trkpt>
      <trkpt lat="45.56087" lon="6.56225">
        <ele>2293.6000976562</ele>
        <time>2014-01-31T11:03:26.000Z</time>
      </trkpt>
      <trkpt lat="45.56087" lon="6.56225">
        <ele>2293.6000976562</ele>
        <time>2014-01-31T11:03:27.000Z</time>
      </trkpt>
      <trkpt lat="45.56087" lon="6.56225">
        <ele>2293.8000488281</ele>
        <time>2014-01-31T11:03:28.000Z</time>
      </trkpt>
      <trkpt lat="45.56087" lon="6.56225">
        <ele>2294</ele>
        <time>2014-01-31T11:03:29.000Z</time>
      </trkpt>
      <trkpt lat="45.56087" lon="6.56225">
        <ele>2294.1999511719</ele>
        <time>2014-01-31T11:03:30.000Z</time>
      </trkpt>
      <trkpt lat="45.56087" lon="6.56225">
        <ele>2294.3999023438</ele>
        <time>2014-01-31T11:03:31.000Z</time>
      </trkpt>
      <trkpt lat="45.56087" lon="6.56225">
        <ele>2294.6000976562</ele>
        <time>2014-01-31T11:03:32.000Z</time>
      </trkpt>
      <trkpt lat="45.56087" lon="6.56225">
        <ele>2294.8000488281</ele>
        <time>2014-01-31T11:03:33.000Z</time>
      </trkpt>
      <trkpt lat="45.56087" lon="6.56225">
        <ele>2294.8000488281</ele>
        <time>2014-01-31T11:03:34.000Z</time>
      </trkpt>
      <trkpt lat="45.56087" lon="6.56225">
        <ele>2295</ele>
        <time>2014-01-31T11:03:35.000Z</time>
      </trkpt>
      <trkpt lat="45.56088" lon="6.56225">
        <ele>2294.8000488281</ele>
        <time>2014-01-31T11:03:36.000Z</time>
      </trkpt>
      <trkpt lat="45.56088" lon="6.56225">
        <ele>2294.6000976562</ele>
        <time>2014-01-31T11:03:37.000Z</time>
      </trkpt>
      <trkpt lat="45.56088" lon="6.56225">
        <ele>2294.3999023438</ele>
        <time>2014-01-31T11:03:38.000Z</time>
      </trkpt>
      <trkpt lat="45.56088" lon="6.56225">
        <ele>2294.3999023438</ele>
        <time>2014-01-31T11:03:39.000Z</time>
      </trkpt>
      <trkpt lat="45.56088" lon="6.56225">
        <ele>2294.3999023438</ele>
        <time>2014-01-31T11:03:40.000Z</time>
      </trkpt>
      <trkpt lat="45.56088" lon="6.56225">
        <ele>2294.3999023438</ele>
        <time>2014-01-31T11:03:41.000Z</time>
      </trkpt>
      <trkpt lat="45.56088" lon="6.56225">
        <ele>2294.6000976562</ele>
        <time>2014-01-31T11:03:42.000Z</time>
      </trkpt>
      <trkpt lat="45.56088" lon="6.56225">
        <ele>2294.6000976562</ele>
        <time>2014-01-31T11:03:43.000Z</time>
      </trkpt>
      <trkpt lat="45.56088" lon="6.56225">
        <ele>2294.6000976562</ele>
        <time>2014-01-31T11:03:44.000Z</time>
      </trkpt>
      <trkpt lat="45.56088" lon="6.56225">
        <ele>2294.6000976562</ele>
        <time>2014-01-31T11:03:45.000Z</time>
      </trkpt>
      <trkpt lat="45.56088" lon="6.56225">
        <ele>2294.6000976562</ele>
        <time>2014-01-31T11:03:46.000Z</time>
      </trkpt>
      <trkpt lat="45.56088" lon="6.56225">
        <ele>2294.3999023438</ele>
        <time>2014-01-31T11:03:47.000Z</time>
      </trkpt>
      <trkpt lat="45.56088" lon="6.56225">
        <ele>2294.3999023438</ele>
        <time>2014-01-31T11:03:48.000Z</time>
      </trkpt>
      <trkpt lat="45.56088" lon="6.56225">
        <ele>2294.3999023438</ele>
        <time>2014-01-31T11:03:49.000Z</time>
      </trkpt>
      <trkpt lat="45.56088" lon="6.56225">
        <ele>2294.3999023438</ele>
        <time>2014-01-31T11:03:50.000Z</time>
      </trkpt>
      <trkpt lat="45.56088" lon="6.56225">
        <ele>2294.3999023438</ele>
        <time>2014-01-31T11:03:51.000Z</time>
      </trkpt>
      <trkpt lat="45.56088" lon="6.56225">
        <ele>2294.3999023438</ele>
        <time>2014-01-31T11:03:52.000Z</time>
      </trkpt>
      <trkpt lat="45.56088" lon="6.56225">
        <ele>2294.3999023438</ele>
        <time>2014-01-31T11:03:53.000Z</time>
      </trkpt>
      <trkpt lat="45.56088" lon="6.56225">
        <ele>2294.1999511719</ele>
        <time>2014-01-31T11:03:54.000Z</time>
      </trkpt>
      <trkpt lat="45.56088" lon="6.56225">
        <ele>2294.1999511719</ele>
        <time>2014-01-31T11:03:55.000Z</time>
      </trkpt>
      <trkpt lat="45.56088" lon="6.56225">
        <ele>2294</ele>
        <time>2014-01-31T11:03:56.000Z</time>
      </trkpt>
      <trkpt lat="45.56088" lon="6.56225">
        <ele>2294.1999511719</ele>
        <time>2014-01-31T11:03:58.000Z</time>
      </trkpt>
      <trkpt lat="45.56088" lon="6.56225">
        <ele>2294.3999023438</ele>
        <time>2014-01-31T11:03:59.000Z</time>
      </trkpt>
      <trkpt lat="45.56088" lon="6.56225">
        <ele>2295</ele>
        <time>2014-01-31T11:04:00.000Z</time>
      </trkpt>
      <trkpt lat="45.56088" lon="6.56225">
        <ele>2295.1999511719</ele>
        <time>2014-01-31T11:04:01.000Z</time>
      </trkpt>
      <trkpt lat="45.56088" lon="6.56225">
        <ele>2295.1999511719</ele>
        <time>2014-01-31T11:04:02.000Z</time>
      </trkpt>
      <trkpt lat="45.56088" lon="6.56225">
        <ele>2295</ele>
        <time>2014-01-31T11:04:03.000Z</time>
      </trkpt>
      <trkpt lat="45.56088" lon="6.56225">
        <ele>2294.8000488281</ele>
        <time>2014-01-31T11:04:04.000Z</time>
      </trkpt>
      <trkpt lat="45.56088" lon="6.56225">
        <ele>2294.6000976562</ele>
        <time>2014-01-31T11:04:05.000Z</time>
      </trkpt>
      <trkpt lat="45.56088" lon="6.56225">
        <ele>2294.3999023438</ele>
        <time>2014-01-31T11:04:06.000Z</time>
      </trkpt>
      <trkpt lat="45.56088" lon="6.56225">
        <ele>2294.1999511719</ele>
        <time>2014-01-31T11:04:07.000Z</time>
      </trkpt>
      <trkpt lat="45.56088" lon="6.56225">
        <ele>2294.1999511719</ele>
        <time>2014-01-31T11:04:08.000Z</time>
      </trkpt>
      <trkpt lat="45.56088" lon="6.56225">
        <ele>2294.1999511719</ele>
        <time>2014-01-31T11:04:09.000Z</time>
      </trkpt>
      <trkpt lat="45.56088" lon="6.56225">
        <ele>2294.1999511719</ele>
        <time>2014-01-31T11:04:10.000Z</time>
      </trkpt>
      <trkpt lat="45.56088" lon="6.56225">
        <ele>2294.3999023438</ele>
        <time>2014-01-31T11:04:11.000Z</time>
      </trkpt>
      <trkpt lat="45.56088" lon="6.56225">
        <ele>2294.8000488281</ele>
        <time>2014-01-31T11:04:12.000Z</time>
      </trkpt>
      <trkpt lat="45.56088" lon="6.56225">
        <ele>2295</ele>
        <time>2014-01-31T11:04:13.000Z</time>
      </trkpt>
      <trkpt lat="45.56088" lon="6.56225">
        <ele>2295</ele>
        <time>2014-01-31T11:04:14.000Z</time>
      </trkpt>
      <trkpt lat="45.56088" lon="6.56225">
        <ele>2295.1999511719</ele>
        <time>2014-01-31T11:04:15.000Z</time>
      </trkpt>
      <trkpt lat="45.56088" lon="6.56225">
        <ele>2295.1999511719</ele>
        <time>2014-01-31T11:04:16.000Z</time>
      </trkpt>
      <trkpt lat="45.56088" lon="6.56225">
        <ele>2295.1999511719</ele>
        <time>2014-01-31T11:04:17.000Z</time>
      </trkpt>
      <trkpt lat="45.56088" lon="6.56225">
        <ele>2295</ele>
        <time>2014-01-31T11:04:18.000Z</time>
      </trkpt>
      <trkpt lat="45.56088" lon="6.56225">
        <ele>2295</ele>
        <time>2014-01-31T11:04:19.000Z</time>
      </trkpt>
      <trkpt lat="45.56088" lon="6.56225">
        <ele>2294.8000488281</ele>
        <time>2014-01-31T11:04:20.000Z</time>
      </trkpt>
      <trkpt lat="45.56088" lon="6.56225">
        <ele>2294.8000488281</ele>
        <time>2014-01-31T11:04:21.000Z</time>
      </trkpt>
      <trkpt lat="45.56088" lon="6.56225">
        <ele>2294.8000488281</ele>
        <time>2014-01-31T11:04:22.000Z</time>
      </trkpt>
      <trkpt lat="45.56088" lon="6.56225">
        <ele>2294.8000488281</ele>
        <time>2014-01-31T11:04:23.000Z</time>
      </trkpt>
      <trkpt lat="45.56088" lon="6.56225">
        <ele>2295</ele>
        <time>2014-01-31T11:04:24.000Z</time>
      </trkpt>
      <trkpt lat="45.56088" lon="6.56225">
        <ele>2295.1999511719</ele>
        <time>2014-01-31T11:04:25.000Z</time>
      </trkpt>
      <trkpt lat="45.56088" lon="6.56225">
        <ele>2295.1999511719</ele>
        <time>2014-01-31T11:04:26.000Z</time>
      </trkpt>
      <trkpt lat="45.56088" lon="6.56225">
        <ele>2295.3999023438</ele>
        <time>2014-01-31T11:04:27.000Z</time>
      </trkpt>
      <trkpt lat="45.56088" lon="6.56225">
        <ele>2295.1999511719</ele>
        <time>2014-01-31T11:04:28.000Z</time>
      </trkpt>
      <trkpt lat="45.56088" lon="6.56225">
        <ele>2295</ele>
        <time>2014-01-31T11:04:29.000Z</time>
      </trkpt>
      <trkpt lat="45.56088" lon="6.56225">
        <ele>2294.8000488281</ele>
        <time>2014-01-31T11:04:30.000Z</time>
      </trkpt>
      <trkpt lat="45.56088" lon="6.56225">
        <ele>2294.6000976562</ele>
        <time>2014-01-31T11:04:31.000Z</time>
      </trkpt>
      <trkpt lat="45.56088" lon="6.56225">
        <ele>2294.3999023438</ele>
        <time>2014-01-31T11:04:32.000Z</time>
      </trkpt>
      <trkpt lat="45.56088" lon="6.56225">
        <ele>2294.3999023438</ele>
        <time>2014-01-31T11:04:33.000Z</time>
      </trkpt>
      <trkpt lat="45.56088" lon="6.56225">
        <ele>2294.1999511719</ele>
        <time>2014-01-31T11:04:34.000Z</time>
      </trkpt>
      <trkpt lat="45.56088" lon="6.56225">
        <ele>2294.1999511719</ele>
        <time>2014-01-31T11:04:35.000Z</time>
      </trkpt>
      <trkpt lat="45.56088" lon="6.56225">
        <ele>2294.1999511719</ele>
        <time>2014-01-31T11:04:36.000Z</time>
      </trkpt>
      <trkpt lat="45.56088" lon="6.56225">
        <ele>2294</ele>
        <time>2014-01-31T11:04:37.000Z</time>
      </trkpt>
      <trkpt lat="45.56088" lon="6.56225">
        <ele>2294</ele>
        <time>2014-01-31T11:04:38.000Z</time>
      </trkpt>
      <trkpt lat="45.56088" lon="6.56225">
        <ele>2293.8000488281</ele>
        <time>2014-01-31T11:04:39.000Z</time>
      </trkpt>
      <trkpt lat="45.56088" lon="6.56225">
        <ele>2293.8000488281</ele>
        <time>2014-01-31T11:04:40.000Z</time>
      </trkpt>
      <trkpt lat="45.56088" lon="6.56225">
        <ele>2293.6000976562</ele>
        <time>2014-01-31T11:04:41.000Z</time>
      </trkpt>
      <trkpt lat="45.56088" lon="6.56225">
        <ele>2293.6000976562</ele>
        <time>2014-01-31T11:04:42.000Z</time>
      </trkpt>
      <trkpt lat="45.56088" lon="6.56225">
        <ele>2293.8000488281</ele>
        <time>2014-01-31T11:04:43.000Z</time>
      </trkpt>
      <trkpt lat="45.56088" lon="6.56225">
        <ele>2293.8000488281</ele>
        <time>2014-01-31T11:04:44.000Z</time>
      </trkpt>
      <trkpt lat="45.56088" lon="6.56225">
        <ele>2294</ele>
        <time>2014-01-31T11:04:45.000Z</time>
      </trkpt>
      <trkpt lat="45.56088" lon="6.56225">
        <ele>2294.1999511719</ele>
        <time>2014-01-31T11:04:46.000Z</time>
      </trkpt>
      <trkpt lat="45.56088" lon="6.56225">
        <ele>2294.1999511719</ele>
        <time>2014-01-31T11:04:47.000Z</time>
      </trkpt>
      <trkpt lat="45.56088" lon="6.56225">
        <ele>2294.3999023438</ele>
        <time>2014-01-31T11:04:48.000Z</time>
      </trkpt>
      <trkpt lat="45.56088" lon="6.56225">
        <ele>2294.3999023438</ele>
        <time>2014-01-31T11:04:49.000Z</time>
      </trkpt>
      <trkpt lat="45.56088" lon="6.56225">
        <ele>2294.3999023438</ele>
        <time>2014-01-31T11:04:50.000Z</time>
      </trkpt>
      <trkpt lat="45.56088" lon="6.56225">
        <ele>2294.3999023438</ele>
        <time>2014-01-31T11:04:51.000Z</time>
      </trkpt>
      <trkpt lat="45.56088" lon="6.56225">
        <ele>2294.3999023438</ele>
        <time>2014-01-31T11:04:52.000Z</time>
      </trkpt>
      <trkpt lat="45.56088" lon="6.56225">
        <ele>2294.3999023438</ele>
        <time>2014-01-31T11:04:53.000Z</time>
      </trkpt>
      <trkpt lat="45.56088" lon="6.56225">
        <ele>2294.1999511719</ele>
        <time>2014-01-31T11:04:54.000Z</time>
      </trkpt>
      <trkpt lat="45.56088" lon="6.56225">
        <ele>2294.1999511719</ele>
        <time>2014-01-31T11:04:55.000Z</time>
      </trkpt>
      <trkpt lat="45.56088" lon="6.56226">
        <ele>2294</ele>
        <time>2014-01-31T11:04:56.000Z</time>
      </trkpt>
      <trkpt lat="45.56088" lon="6.56226">
        <ele>2294</ele>
        <time>2014-01-31T11:04:57.000Z</time>
      </trkpt>
      <trkpt lat="45.56088" lon="6.56226">
        <ele>2294</ele>
        <time>2014-01-31T11:04:58.000Z</time>
      </trkpt>
      <trkpt lat="45.56088" lon="6.56226">
        <ele>2294.1999511719</ele>
        <time>2014-01-31T11:04:59.000Z</time>
      </trkpt>
      <trkpt lat="45.56088" lon="6.56226">
        <ele>2294.3999023438</ele>
        <time>2014-01-31T11:05:00.000Z</time>
      </trkpt>
      <trkpt lat="45.56088" lon="6.56226">
        <ele>2294.6000976562</ele>
        <time>2014-01-31T11:05:01.000Z</time>
      </trkpt>
      <trkpt lat="45.56088" lon="6.56226">
        <ele>2294.6000976562</ele>
        <time>2014-01-31T11:05:02.000Z</time>
      </trkpt>
      <trkpt lat="45.56088" lon="6.56226">
        <ele>2294.6000976562</ele>
        <time>2014-01-31T11:05:03.000Z</time>
      </trkpt>
      <trkpt lat="45.56088" lon="6.56226">
        <ele>2294.6000976562</ele>
        <time>2014-01-31T11:05:04.000Z</time>
      </trkpt>
      <trkpt lat="45.56088" lon="6.56226">
        <ele>2294.6000976562</ele>
        <time>2014-01-31T11:05:05.000Z</time>
      </trkpt>
      <trkpt lat="45.56088" lon="6.56226">
        <ele>2294.6000976562</ele>
        <time>2014-01-31T11:05:06.000Z</time>
      </trkpt>
      <trkpt lat="45.56088" lon="6.56226">
        <ele>2294.6000976562</ele>
        <time>2014-01-31T11:05:07.000Z</time>
      </trkpt>
      <trkpt lat="45.56088" lon="6.56226">
        <ele>2294.3999023438</ele>
        <time>2014-01-31T11:05:08.000Z</time>
      </trkpt>
      <trkpt lat="45.56088" lon="6.56226">
        <ele>2294.3999023438</ele>
        <time>2014-01-31T11:05:09.000Z</time>
      </trkpt>
      <trkpt lat="45.56088" lon="6.56226">
        <ele>2294.3999023438</ele>
        <time>2014-01-31T11:05:10.000Z</time>
      </trkpt>
      <trkpt lat="45.56088" lon="6.56226">
        <ele>2294.3999023438</ele>
        <time>2014-01-31T11:05:11.000Z</time>
      </trkpt>
      <trkpt lat="45.56088" lon="6.56226">
        <ele>2294.3999023438</ele>
        <time>2014-01-31T11:05:12.000Z</time>
      </trkpt>
      <trkpt lat="45.56088" lon="6.56226">
        <ele>2294.3999023438</ele>
        <time>2014-01-31T11:05:13.000Z</time>
      </trkpt>
      <trkpt lat="45.56088" lon="6.56226">
        <ele>2294.3999023438</ele>
        <time>2014-01-31T11:05:14.000Z</time>
      </trkpt>
      <trkpt lat="45.56088" lon="6.56226">
        <ele>2294.3999023438</ele>
        <time>2014-01-31T11:05:15.000Z</time>
      </trkpt>
      <trkpt lat="45.56088" lon="6.56226">
        <ele>2294.3999023438</ele>
        <time>2014-01-31T11:05:16.000Z</time>
      </trkpt>
      <trkpt lat="45.56088" lon="6.56226">
        <ele>2294.3999023438</ele>
        <time>2014-01-31T11:05:17.000Z</time>
      </trkpt>
      <trkpt lat="45.56088" lon="6.56226">
        <ele>2294.3999023438</ele>
        <time>2014-01-31T11:05:18.000Z</time>
      </trkpt>
      <trkpt lat="45.56088" lon="6.56226">
        <ele>2294.3999023438</ele>
        <time>2014-01-31T11:05:21.000Z</time>
      </trkpt>
      <trkpt lat="45.56088" lon="6.56226">
        <ele>2294.3999023438</ele>
        <time>2014-01-31T11:05:22.000Z</time>
      </trkpt>
      <trkpt lat="45.56088" lon="6.56226">
        <ele>2294.3999023438</ele>
        <time>2014-01-31T11:05:23.000Z</time>
      </trkpt>
      <trkpt lat="45.56088" lon="6.56226">
        <ele>2294.3999023438</ele>
        <time>2014-01-31T11:05:24.000Z</time>
      </trkpt>
      <trkpt lat="45.56088" lon="6.56226">
        <ele>2294.1999511719</ele>
        <time>2014-01-31T11:05:25.000Z</time>
      </trkpt>
      <trkpt lat="45.56088" lon="6.56226">
        <ele>2294.1999511719</ele>
        <time>2014-01-31T11:05:26.000Z</time>
      </trkpt>
      <trkpt lat="45.56088" lon="6.56226">
        <ele>2294.1999511719</ele>
        <time>2014-01-31T11:05:28.000Z</time>
      </trkpt>
      <trkpt lat="45.56088" lon="6.56226">
        <ele>2294.1999511719</ele>
        <time>2014-01-31T11:05:30.000Z</time>
      </trkpt>
      <trkpt lat="45.56088" lon="6.56226">
        <ele>2294.1999511719</ele>
        <time>2014-01-31T11:05:31.000Z</time>
      </trkpt>
      <trkpt lat="45.56088" lon="6.56226">
        <ele>2294.3999023438</ele>
        <time>2014-01-31T11:05:32.000Z</time>
      </trkpt>
      <trkpt lat="45.56088" lon="6.56226">
        <ele>2294.3999023438</ele>
        <time>2014-01-31T11:05:33.000Z</time>
      </trkpt>
      <trkpt lat="45.56088" lon="6.56226">
        <ele>2294.3999023438</ele>
        <time>2014-01-31T11:05:34.000Z</time>
      </trkpt>
      <trkpt lat="45.56088" lon="6.56226">
        <ele>2294.3999023438</ele>
        <time>2014-01-31T11:05:36.000Z</time>
      </trkpt>
      <trkpt lat="45.56088" lon="6.56226">
        <ele>2294.1999511719</ele>
        <time>2014-01-31T11:05:37.000Z</time>
      </trkpt>
      <trkpt lat="45.56088" lon="6.56226">
        <ele>2294.1999511719</ele>
        <time>2014-01-31T11:05:38.000Z</time>
      </trkpt>
      <trkpt lat="45.56088" lon="6.56226">
        <ele>2294.1999511719</ele>
        <time>2014-01-31T11:05:39.000Z</time>
      </trkpt>
      <trkpt lat="45.56088" lon="6.56226">
        <ele>2294.1999511719</ele>
        <time>2014-01-31T11:05:40.000Z</time>
      </trkpt>
      <trkpt lat="45.56088" lon="6.56226">
        <ele>2294.1999511719</ele>
        <time>2014-01-31T11:05:41.000Z</time>
      </trkpt>
      <trkpt lat="45.56088" lon="6.56226">
        <ele>2294.1999511719</ele>
        <time>2014-01-31T11:05:42.000Z</time>
      </trkpt>
      <trkpt lat="45.56088" lon="6.56226">
        <ele>2294.1999511719</ele>
        <time>2014-01-31T11:05:43.000Z</time>
      </trkpt>
      <trkpt lat="45.56088" lon="6.56226">
        <ele>2294.1999511719</ele>
        <time>2014-01-31T11:05:47.000Z</time>
      </trkpt>
      <trkpt lat="45.56088" lon="6.56226">
        <ele>2294.1999511719</ele>
        <time>2014-01-31T11:05:50.000Z</time>
      </trkpt>
      <trkpt lat="45.56088" lon="6.56226">
        <ele>2294.1999511719</ele>
        <time>2014-01-31T11:05:55.000Z</time>
      </trkpt>
      <trkpt lat="45.56088" lon="6.56226">
        <ele>2294.1999511719</ele>
        <time>2014-01-31T11:05:56.000Z</time>
      </trkpt>
      <trkpt lat="45.56088" lon="6.56226">
        <ele>2294.1999511719</ele>
        <time>2014-01-31T11:05:57.000Z</time>
      </trkpt>
      <trkpt lat="45.56088" lon="6.56226">
        <ele>2294.1999511719</ele>
        <time>2014-01-31T11:05:58.000Z</time>
      </trkpt>
      <trkpt lat="45.56088" lon="6.56226">
        <ele>2294.1999511719</ele>
        <time>2014-01-31T11:05:59.000Z</time>
      </trkpt>
      <trkpt lat="45.56088" lon="6.56226">
        <ele>2294</ele>
        <time>2014-01-31T11:06:00.000Z</time>
      </trkpt>
      <trkpt lat="45.56088" lon="6.56226">
        <ele>2294</ele>
        <time>2014-01-31T11:06:01.000Z</time>
      </trkpt>
      <trkpt lat="45.56088" lon="6.56226">
        <ele>2294</ele>
        <time>2014-01-31T11:06:02.000Z</time>
      </trkpt>
      <trkpt lat="45.56088" lon="6.56226">
        <ele>2294</ele>
        <time>2014-01-31T11:06:03.000Z</time>
      </trkpt>
      <trkpt lat="45.56088" lon="6.56226">
        <ele>2294</ele>
        <time>2014-01-31T11:06:04.000Z</time>
      </trkpt>
      <trkpt lat="45.56088" lon="6.56226">
        <ele>2294</ele>
        <time>2014-01-31T11:06:06.000Z</time>
      </trkpt>
      <trkpt lat="45.56088" lon="6.56226">
        <ele>2294</ele>
        <time>2014-01-31T11:06:07.000Z</time>
      </trkpt>
      <trkpt lat="45.56088" lon="6.56226">
        <ele>2294</ele>
        <time>2014-01-31T11:06:08.000Z</time>
      </trkpt>
      <trkpt lat="45.56088" lon="6.56226">
        <ele>2294</ele>
        <time>2014-01-31T11:06:09.000Z</time>
      </trkpt>
      <trkpt lat="45.56088" lon="6.56226">
        <ele>2294</ele>
        <time>2014-01-31T11:06:10.000Z</time>
      </trkpt>
      <trkpt lat="45.56088" lon="6.56226">
        <ele>2294</ele>
        <time>2014-01-31T11:06:11.000Z</time>
      </trkpt>
      <trkpt lat="45.56088" lon="6.56226">
        <ele>2294</ele>
        <time>2014-01-31T11:06:12.000Z</time>
      </trkpt>
      <trkpt lat="45.56088" lon="6.56226">
        <ele>2294</ele>
        <time>2014-01-31T11:06:13.000Z</time>
      </trkpt>
      <trkpt lat="45.56088" lon="6.56226">
        <ele>2294</ele>
        <time>2014-01-31T11:06:14.000Z</time>
      </trkpt>
      <trkpt lat="45.56088" lon="6.56226">
        <ele>2294</ele>
        <time>2014-01-31T11:06:15.000Z</time>
      </trkpt>
      <trkpt lat="45.56088" lon="6.56226">
        <ele>2294</ele>
        <time>2014-01-31T11:06:16.000Z</time>
      </trkpt>
      <trkpt lat="45.56088" lon="6.56226">
        <ele>2294</ele>
        <time>2014-01-31T11:06:17.000Z</time>
      </trkpt>
      <trkpt lat="45.56088" lon="6.56226">
        <ele>2294</ele>
        <time>2014-01-31T11:06:18.000Z</time>
      </trkpt>
      <trkpt lat="45.56088" lon="6.56226">
        <ele>2294</ele>
        <time>2014-01-31T11:06:19.000Z</time>
      </trkpt>
      <trkpt lat="45.56088" lon="6.56226">
        <ele>2294</ele>
        <time>2014-01-31T11:06:20.000Z</time>
      </trkpt>
      <trkpt lat="45.56088" lon="6.56226">
        <ele>2294</ele>
        <time>2014-01-31T11:06:23.000Z</time>
      </trkpt>
      <trkpt lat="45.56088" lon="6.56226">
        <ele>2294</ele>
        <time>2014-01-31T11:06:24.000Z</time>
      </trkpt>
      <trkpt lat="45.56088" lon="6.56226">
        <ele>2293.8000488281</ele>
        <time>2014-01-31T11:06:25.000Z</time>
      </trkpt>
      <trkpt lat="45.56088" lon="6.56226">
        <ele>2293.8000488281</ele>
        <time>2014-01-31T11:06:26.000Z</time>
      </trkpt>
      <trkpt lat="45.56088" lon="6.56226">
        <ele>2293.8000488281</ele>
        <time>2014-01-31T11:06:27.000Z</time>
      </trkpt>
      <trkpt lat="45.56088" lon="6.56226">
        <ele>2293.8000488281</ele>
        <time>2014-01-31T11:06:28.000Z</time>
      </trkpt>
      <trkpt lat="45.56088" lon="6.56226">
        <ele>2293.6000976562</ele>
        <time>2014-01-31T11:06:29.000Z</time>
      </trkpt>
      <trkpt lat="45.56088" lon="6.56226">
        <ele>2293.6000976562</ele>
        <time>2014-01-31T11:06:30.000Z</time>
      </trkpt>
      <trkpt lat="45.56088" lon="6.56226">
        <ele>2293.8000488281</ele>
        <time>2014-01-31T11:06:32.000Z</time>
      </trkpt>
      <trkpt lat="45.56088" lon="6.56226">
        <ele>2293.8000488281</ele>
        <time>2014-01-31T11:06:33.000Z</time>
      </trkpt>
      <trkpt lat="45.56088" lon="6.56226">
        <ele>2294</ele>
        <time>2014-01-31T11:06:34.000Z</time>
      </trkpt>
      <trkpt lat="45.56088" lon="6.56226">
        <ele>2294</ele>
        <time>2014-01-31T11:06:35.000Z</time>
      </trkpt>
      <trkpt lat="45.56088" lon="6.56226">
        <ele>2294</ele>
        <time>2014-01-31T11:06:36.000Z</time>
      </trkpt>
      <trkpt lat="45.56088" lon="6.56226">
        <ele>2294</ele>
        <time>2014-01-31T11:06:37.000Z</time>
      </trkpt>
      <trkpt lat="45.56088" lon="6.56226">
        <ele>2294</ele>
        <time>2014-01-31T11:06:38.000Z</time>
      </trkpt>
      <trkpt lat="45.56088" lon="6.56226">
        <ele>2294</ele>
        <time>2014-01-31T11:06:39.000Z</time>
      </trkpt>
      <trkpt lat="45.56088" lon="6.56226">
        <ele>2294</ele>
        <time>2014-01-31T11:06:40.000Z</time>
      </trkpt>
      <trkpt lat="45.56088" lon="6.56226">
        <ele>2294</ele>
        <time>2014-01-31T11:06:41.000Z</time>
      </trkpt>
      <trkpt lat="45.56088" lon="6.56226">
        <ele>2294</ele>
        <time>2014-01-31T11:06:44.000Z</time>
      </trkpt>
      <trkpt lat="45.56088" lon="6.56226">
        <ele>2294</ele>
        <time>2014-01-31T11:06:45.000Z</time>
      </trkpt>
      <trkpt lat="45.56088" lon="6.56226">
        <ele>2294</ele>
        <time>2014-01-31T11:06:46.000Z</time>
      </trkpt>
      <trkpt lat="45.56088" lon="6.56226">
        <ele>2294</ele>
        <time>2014-01-31T11:06:48.000Z</time>
      </trkpt>
      <trkpt lat="45.56088" lon="6.56226">
        <ele>2293.8000488281</ele>
        <time>2014-01-31T11:06:49.000Z</time>
      </trkpt>
      <trkpt lat="45.56088" lon="6.56226">
        <ele>2293.8000488281</ele>
        <time>2014-01-31T11:06:50.000Z</time>
      </trkpt>
      <trkpt lat="45.56088" lon="6.56226">
        <ele>2293.8000488281</ele>
        <time>2014-01-31T11:06:53.000Z</time>
      </trkpt>
      <trkpt lat="45.56088" lon="6.56226">
        <ele>2294</ele>
        <time>2014-01-31T11:06:54.000Z</time>
      </trkpt>
      <trkpt lat="45.56088" lon="6.56226">
        <ele>2294</ele>
        <time>2014-01-31T11:06:55.000Z</time>
      </trkpt>
      <trkpt lat="45.56088" lon="6.56226">
        <ele>2294</ele>
        <time>2014-01-31T11:06:56.000Z</time>
      </trkpt>
      <trkpt lat="45.56088" lon="6.56226">
        <ele>2294</ele>
        <time>2014-01-31T11:06:57.000Z</time>
      </trkpt>
      <trkpt lat="45.56088" lon="6.56226">
        <ele>2294</ele>
        <time>2014-01-31T11:06:58.000Z</time>
      </trkpt>
      <trkpt lat="45.56088" lon="6.56226">
        <ele>2294</ele>
        <time>2014-01-31T11:06:59.000Z</time>
      </trkpt>
      <trkpt lat="45.56088" lon="6.56226">
        <ele>2293.8000488281</ele>
        <time>2014-01-31T11:07:00.000Z</time>
      </trkpt>
      <trkpt lat="45.56088" lon="6.56226">
        <ele>2293.8000488281</ele>
        <time>2014-01-31T11:07:01.000Z</time>
      </trkpt>
      <trkpt lat="45.56088" lon="6.56226">
        <ele>2293.8000488281</ele>
        <time>2014-01-31T11:07:02.000Z</time>
      </trkpt>
      <trkpt lat="45.56088" lon="6.56226">
        <ele>2293.8000488281</ele>
        <time>2014-01-31T11:07:03.000Z</time>
      </trkpt>
      <trkpt lat="45.56088" lon="6.56226">
        <ele>2293.8000488281</ele>
        <time>2014-01-31T11:07:04.000Z</time>
      </trkpt>
      <trkpt lat="45.56088" lon="6.56226">
        <ele>2293.8000488281</ele>
        <time>2014-01-31T11:07:05.000Z</time>
      </trkpt>
      <trkpt lat="45.56088" lon="6.56226">
        <ele>2293.8000488281</ele>
        <time>2014-01-31T11:07:06.000Z</time>
      </trkpt>
      <trkpt lat="45.56088" lon="6.56226">
        <ele>2293.8000488281</ele>
        <time>2014-01-31T11:07:07.000Z</time>
      </trkpt>
      <trkpt lat="45.56088" lon="6.56226">
        <ele>2293.8000488281</ele>
        <time>2014-01-31T11:07:11.000Z</time>
      </trkpt>
      <trkpt lat="45.56088" lon="6.56226">
        <ele>2294</ele>
        <time>2014-01-31T11:07:12.000Z</time>
      </trkpt>
      <trkpt lat="45.56088" lon="6.56226">
        <ele>2294</ele>
        <time>2014-01-31T11:07:13.000Z</time>
      </trkpt>
      <trkpt lat="45.56088" lon="6.56226">
        <ele>2294</ele>
        <time>2014-01-31T11:07:14.000Z</time>
      </trkpt>
      <trkpt lat="45.56088" lon="6.56226">
        <ele>2294</ele>
        <time>2014-01-31T11:07:15.000Z</time>
      </trkpt>
      <trkpt lat="45.56088" lon="6.56226">
        <ele>2294</ele>
        <time>2014-01-31T11:07:16.000Z</time>
      </trkpt>
      <trkpt lat="45.56088" lon="6.56226">
        <ele>2294</ele>
        <time>2014-01-31T11:07:17.000Z</time>
      </trkpt>
      <trkpt lat="45.56088" lon="6.56226">
        <ele>2294</ele>
        <time>2014-01-31T11:07:23.000Z</time>
      </trkpt>
      <trkpt lat="45.56088" lon="6.56226">
        <ele>2294</ele>
        <time>2014-01-31T11:07:24.000Z</time>
      </trkpt>
      <trkpt lat="45.56088" lon="6.56226">
        <ele>2294</ele>
        <time>2014-01-31T11:07:25.000Z</time>
      </trkpt>
      <trkpt lat="45.56088" lon="6.56226">
        <ele>2294</ele>
        <time>2014-01-31T11:07:26.000Z</time>
      </trkpt>
      <trkpt lat="45.56088" lon="6.56226">
        <ele>2294</ele>
        <time>2014-01-31T11:07:29.000Z</time>
      </trkpt>
      <trkpt lat="45.56088" lon="6.56226">
        <ele>2294</ele>
        <time>2014-01-31T11:07:30.000Z</time>
      </trkpt>
      <trkpt lat="45.56088" lon="6.56226">
        <ele>2294</ele>
        <time>2014-01-31T11:07:31.000Z</time>
      </trkpt>
      <trkpt lat="45.56088" lon="6.56226">
        <ele>2294</ele>
        <time>2014-01-31T11:07:32.000Z</time>
      </trkpt>
      <trkpt lat="45.56088" lon="6.56225">
        <ele>2294</ele>
        <time>2014-01-31T11:07:36.000Z</time>
      </trkpt>
      <trkpt lat="45.56088" lon="6.56225">
        <ele>2294</ele>
        <time>2014-01-31T11:07:37.000Z</time>
      </trkpt>
      <trkpt lat="45.56088" lon="6.56225">
        <ele>2294</ele>
        <time>2014-01-31T11:07:38.000Z</time>
      </trkpt>
      <trkpt lat="45.56088" lon="6.56225">
        <ele>2294</ele>
        <time>2014-01-31T11:07:39.000Z</time>
      </trkpt>
      <trkpt lat="45.56088" lon="6.56225">
        <ele>2294</ele>
        <time>2014-01-31T11:07:40.000Z</time>
      </trkpt>
      <trkpt lat="45.56088" lon="6.56225">
        <ele>2294</ele>
        <time>2014-01-31T11:07:41.000Z</time>
      </trkpt>
      <trkpt lat="45.56088" lon="6.56225">
        <ele>2294</ele>
        <time>2014-01-31T11:07:42.000Z</time>
      </trkpt>
      <trkpt lat="45.56088" lon="6.56225">
        <ele>2294</ele>
        <time>2014-01-31T11:07:44.000Z</time>
      </trkpt>
      <trkpt lat="45.56088" lon="6.56225">
        <ele>2294</ele>
        <time>2014-01-31T11:07:45.000Z</time>
      </trkpt>
      <trkpt lat="45.56088" lon="6.56225">
        <ele>2294.1999511719</ele>
        <time>2014-01-31T11:07:46.000Z</time>
      </trkpt>
      <trkpt lat="45.56088" lon="6.56225">
        <ele>2294.3999023438</ele>
        <time>2014-01-31T11:07:47.000Z</time>
      </trkpt>
      <trkpt lat="45.56088" lon="6.56225">
        <ele>2294.3999023438</ele>
        <time>2014-01-31T11:07:48.000Z</time>
      </trkpt>
      <trkpt lat="45.56088" lon="6.56225">
        <ele>2294.3999023438</ele>
        <time>2014-01-31T11:07:49.000Z</time>
      </trkpt>
      <trkpt lat="45.56088" lon="6.56225">
        <ele>2294.3999023438</ele>
        <time>2014-01-31T11:07:50.000Z</time>
      </trkpt>
      <trkpt lat="45.56088" lon="6.56225">
        <ele>2294.3999023438</ele>
        <time>2014-01-31T11:07:51.000Z</time>
      </trkpt>
      <trkpt lat="45.56088" lon="6.56225">
        <ele>2294.1999511719</ele>
        <time>2014-01-31T11:07:52.000Z</time>
      </trkpt>
      <trkpt lat="45.56088" lon="6.56225">
        <ele>2294.1999511719</ele>
        <time>2014-01-31T11:07:53.000Z</time>
      </trkpt>
      <trkpt lat="45.56088" lon="6.56225">
        <ele>2294.1999511719</ele>
        <time>2014-01-31T11:07:54.000Z</time>
      </trkpt>
      <trkpt lat="45.56088" lon="6.56225">
        <ele>2294.1999511719</ele>
        <time>2014-01-31T11:07:55.000Z</time>
      </trkpt>
      <trkpt lat="45.56088" lon="6.56225">
        <ele>2294.1999511719</ele>
        <time>2014-01-31T11:07:56.000Z</time>
      </trkpt>
      <trkpt lat="45.56088" lon="6.56225">
        <ele>2294.1999511719</ele>
        <time>2014-01-31T11:07:57.000Z</time>
      </trkpt>
      <trkpt lat="45.56088" lon="6.56225">
        <ele>2294.1999511719</ele>
        <time>2014-01-31T11:07:58.000Z</time>
      </trkpt>
      <trkpt lat="45.56088" lon="6.56225">
        <ele>2294</ele>
        <time>2014-01-31T11:07:59.000Z</time>
      </trkpt>
      <trkpt lat="45.56088" lon="6.56225">
        <ele>2294</ele>
        <time>2014-01-31T11:08:00.000Z</time>
      </trkpt>
      <trkpt lat="45.56088" lon="6.56225">
        <ele>2294</ele>
        <time>2014-01-31T11:08:01.000Z</time>
      </trkpt>
      <trkpt lat="45.56088" lon="6.56225">
        <ele>2293.8000488281</ele>
        <time>2014-01-31T11:08:02.000Z</time>
      </trkpt>
      <trkpt lat="45.56088" lon="6.56225">
        <ele>2293.8000488281</ele>
        <time>2014-01-31T11:08:03.000Z</time>
      </trkpt>
      <trkpt lat="45.56088" lon="6.56225">
        <ele>2293.8000488281</ele>
        <time>2014-01-31T11:08:04.000Z</time>
      </trkpt>
      <trkpt lat="45.56088" lon="6.56225">
        <ele>2293.8000488281</ele>
        <time>2014-01-31T11:08:05.000Z</time>
      </trkpt>
      <trkpt lat="45.56088" lon="6.56225">
        <ele>2293.8000488281</ele>
        <time>2014-01-31T11:08:06.000Z</time>
      </trkpt>
      <trkpt lat="45.56088" lon="6.56225">
        <ele>2294</ele>
        <time>2014-01-31T11:08:07.000Z</time>
      </trkpt>
      <trkpt lat="45.56088" lon="6.56225">
        <ele>2294</ele>
        <time>2014-01-31T11:08:08.000Z</time>
      </trkpt>
      <trkpt lat="45.56088" lon="6.56225">
        <ele>2294</ele>
        <time>2014-01-31T11:08:09.000Z</time>
      </trkpt>
      <trkpt lat="45.56088" lon="6.56225">
        <ele>2294</ele>
        <time>2014-01-31T11:08:10.000Z</time>
      </trkpt>
      <trkpt lat="45.56088" lon="6.56225">
        <ele>2294</ele>
        <time>2014-01-31T11:08:11.000Z</time>
      </trkpt>
      <trkpt lat="45.56088" lon="6.56225">
        <ele>2294</ele>
        <time>2014-01-31T11:08:12.000Z</time>
      </trkpt>
      <trkpt lat="45.56088" lon="6.56225">
        <ele>2294</ele>
        <time>2014-01-31T11:08:13.000Z</time>
      </trkpt>
      <trkpt lat="45.56088" lon="6.56225">
        <ele>2294</ele>
        <time>2014-01-31T11:08:14.000Z</time>
      </trkpt>
      <trkpt lat="45.56088" lon="6.56225">
        <ele>2294</ele>
        <time>2014-01-31T11:08:15.000Z</time>
      </trkpt>
      <trkpt lat="45.56088" lon="6.56226">
        <ele>2294</ele>
        <time>2014-01-31T11:08:16.000Z</time>
      </trkpt>
      <trkpt lat="45.56088" lon="6.56226">
        <ele>2294</ele>
        <time>2014-01-31T11:08:17.000Z</time>
      </trkpt>
      <trkpt lat="45.56088" lon="6.56226">
        <ele>2294</ele>
        <time>2014-01-31T11:08:18.000Z</time>
      </trkpt>
      <trkpt lat="45.56088" lon="6.56226">
        <ele>2294</ele>
        <time>2014-01-31T11:08:20.000Z</time>
      </trkpt>
      <trkpt lat="45.56088" lon="6.56226">
        <ele>2294</ele>
        <time>2014-01-31T11:08:21.000Z</time>
      </trkpt>
      <trkpt lat="45.56088" lon="6.56226">
        <ele>2293.8000488281</ele>
        <time>2014-01-31T11:08:22.000Z</time>
      </trkpt>
      <trkpt lat="45.56088" lon="6.56226">
        <ele>2293.8000488281</ele>
        <time>2014-01-31T11:08:23.000Z</time>
      </trkpt>
      <trkpt lat="45.56088" lon="6.56226">
        <ele>2294</ele>
        <time>2014-01-31T11:08:24.000Z</time>
      </trkpt>
      <trkpt lat="45.56088" lon="6.56226">
        <ele>2294</ele>
        <time>2014-01-31T11:08:25.000Z</time>
      </trkpt>
      <trkpt lat="45.56088" lon="6.56226">
        <ele>2294</ele>
        <time>2014-01-31T11:08:26.000Z</time>
      </trkpt>
      <trkpt lat="45.56088" lon="6.56226">
        <ele>2294</ele>
        <time>2014-01-31T11:08:27.000Z</time>
      </trkpt>
      <trkpt lat="45.56088" lon="6.56226">
        <ele>2294.1999511719</ele>
        <time>2014-01-31T11:08:28.000Z</time>
      </trkpt>
      <trkpt lat="45.56088" lon="6.56226">
        <ele>2294.1999511719</ele>
        <time>2014-01-31T11:08:29.000Z</time>
      </trkpt>
      <trkpt lat="45.56088" lon="6.56226">
        <ele>2294</ele>
        <time>2014-01-31T11:08:30.000Z</time>
      </trkpt>
      <trkpt lat="45.56088" lon="6.56226">
        <ele>2294</ele>
        <time>2014-01-31T11:08:31.000Z</time>
      </trkpt>
      <trkpt lat="45.56088" lon="6.56226">
        <ele>2294</ele>
        <time>2014-01-31T11:08:32.000Z</time>
      </trkpt>
      <trkpt lat="45.56088" lon="6.56226">
        <ele>2293.8000488281</ele>
        <time>2014-01-31T11:08:33.000Z</time>
      </trkpt>
      <trkpt lat="45.56088" lon="6.56226">
        <ele>2293.8000488281</ele>
        <time>2014-01-31T11:08:34.000Z</time>
      </trkpt>
      <trkpt lat="45.56088" lon="6.56226">
        <ele>2293.6000976562</ele>
        <time>2014-01-31T11:08:35.000Z</time>
      </trkpt>
      <trkpt lat="45.56088" lon="6.56226">
        <ele>2293.6000976562</ele>
        <time>2014-01-31T11:08:36.000Z</time>
      </trkpt>
      <trkpt lat="45.56088" lon="6.56226">
        <ele>2293.6000976562</ele>
        <time>2014-01-31T11:08:37.000Z</time>
      </trkpt>
      <trkpt lat="45.56088" lon="6.56226">
        <ele>2293.6000976562</ele>
        <time>2014-01-31T11:08:38.000Z</time>
      </trkpt>
      <trkpt lat="45.56088" lon="6.56226">
        <ele>2293.6000976562</ele>
        <time>2014-01-31T11:08:39.000Z</time>
      </trkpt>
      <trkpt lat="45.56088" lon="6.56226">
        <ele>2293.6000976562</ele>
        <time>2014-01-31T11:08:40.000Z</time>
      </trkpt>
      <trkpt lat="45.56088" lon="6.56226">
        <ele>2293.8000488281</ele>
        <time>2014-01-31T11:08:41.000Z</time>
      </trkpt>
      <trkpt lat="45.56086" lon="6.56227">
        <ele>2293.8000488281</ele>
        <time>2014-01-31T11:08:42.000Z</time>
      </trkpt>
      <trkpt lat="45.56083" lon="6.56229">
        <ele>2294</ele>
        <time>2014-01-31T11:08:43.000Z</time>
      </trkpt>
      <trkpt lat="45.5608" lon="6.56234">
        <ele>2294</ele>
        <time>2014-01-31T11:08:44.000Z</time>
      </trkpt>
      <trkpt lat="45.56077" lon="6.5624">
        <ele>2294</ele>
        <time>2014-01-31T11:08:45.000Z</time>
      </trkpt>
      <trkpt lat="45.56077" lon="6.56246">
        <ele>2294</ele>
        <time>2014-01-31T11:08:46.000Z</time>
      </trkpt>
      <trkpt lat="45.56077" lon="6.56249">
        <ele>2293.8000488281</ele>
        <time>2014-01-31T11:08:47.000Z</time>
      </trkpt>
      <trkpt lat="45.56076" lon="6.56252">
        <ele>2291.8000488281</ele>
        <time>2014-01-31T11:08:48.000Z</time>
      </trkpt>
      <trkpt lat="45.56074" lon="6.56257">
        <ele>2290.3999023438</ele>
        <time>2014-01-31T11:08:49.000Z</time>
      </trkpt>
      <trkpt lat="45.56074" lon="6.56262">
        <ele>2289</ele>
        <time>2014-01-31T11:08:50.000Z</time>
      </trkpt>
      <trkpt lat="45.56075" lon="6.56265">
        <ele>2288.1999511719</ele>
        <time>2014-01-31T11:08:51.000Z</time>
      </trkpt>
      <trkpt lat="45.56076" lon="6.56268">
        <ele>2287.3999023438</ele>
        <time>2014-01-31T11:08:52.000Z</time>
      </trkpt>
      <trkpt lat="45.56077" lon="6.56269">
        <ele>2286.6000976562</ele>
        <time>2014-01-31T11:08:53.000Z</time>
      </trkpt>
      <trkpt lat="45.56079" lon="6.56268">
        <ele>2285.3999023438</ele>
        <time>2014-01-31T11:08:54.000Z</time>
      </trkpt>
      <trkpt lat="45.56081" lon="6.56267">
        <ele>2284</ele>
        <time>2014-01-31T11:08:55.000Z</time>
      </trkpt>
      <trkpt lat="45.56082" lon="6.56266">
        <ele>2283.1999511719</ele>
        <time>2014-01-31T11:08:56.000Z</time>
      </trkpt>
      <trkpt lat="45.56083" lon="6.56265">
        <ele>2282.6000976562</ele>
        <time>2014-01-31T11:08:57.000Z</time>
      </trkpt>
      <trkpt lat="45.56084" lon="6.56264">
        <ele>2282</ele>
        <time>2014-01-31T11:08:58.000Z</time>
      </trkpt>
      <trkpt lat="45.56086" lon="6.56264">
        <ele>2281.6000976562</ele>
        <time>2014-01-31T11:08:59.000Z</time>
      </trkpt>
      <trkpt lat="45.56087" lon="6.56265">
        <ele>2281</ele>
        <time>2014-01-31T11:09:00.000Z</time>
      </trkpt>
      <trkpt lat="45.56087" lon="6.56265">
        <ele>2280.1999511719</ele>
        <time>2014-01-31T11:09:01.000Z</time>
      </trkpt>
      <trkpt lat="45.56087" lon="6.56266">
        <ele>2279.3999023438</ele>
        <time>2014-01-31T11:09:02.000Z</time>
      </trkpt>
      <trkpt lat="45.56088" lon="6.56266">
        <ele>2278.8000488281</ele>
        <time>2014-01-31T11:09:03.000Z</time>
      </trkpt>
      <trkpt lat="45.5609" lon="6.56266">
        <ele>2278.3999023438</ele>
        <time>2014-01-31T11:09:04.000Z</time>
      </trkpt>
      <trkpt lat="45.56091" lon="6.56265">
        <ele>2278.1999511719</ele>
        <time>2014-01-31T11:09:05.000Z</time>
      </trkpt>
      <trkpt lat="45.56092" lon="6.56266">
        <ele>2278</ele>
        <time>2014-01-31T11:09:06.000Z</time>
      </trkpt>
      <trkpt lat="45.56093" lon="6.56267">
        <ele>2277.3999023438</ele>
        <time>2014-01-31T11:09:07.000Z</time>
      </trkpt>
      <trkpt lat="45.56094" lon="6.56269">
        <ele>2276.3999023438</ele>
        <time>2014-01-31T11:09:08.000Z</time>
      </trkpt>
      <trkpt lat="45.56096" lon="6.5627">
        <ele>2275</ele>
        <time>2014-01-31T11:09:09.000Z</time>
      </trkpt>
      <trkpt lat="45.56099" lon="6.5627">
        <ele>2274</ele>
        <time>2014-01-31T11:09:10.000Z</time>
      </trkpt>
      <trkpt lat="45.56101" lon="6.5627">
        <ele>2273.1999511719</ele>
        <time>2014-01-31T11:09:11.000Z</time>
      </trkpt>
      <trkpt lat="45.56103" lon="6.5627">
        <ele>2272.6000976562</ele>
        <time>2014-01-31T11:09:12.000Z</time>
      </trkpt>
      <trkpt lat="45.56104" lon="6.5627">
        <ele>2270.1999511719</ele>
        <time>2014-01-31T11:09:13.000Z</time>
      </trkpt>
      <trkpt lat="45.56105" lon="6.56269">
        <ele>2268.8000488281</ele>
        <time>2014-01-31T11:09:14.000Z</time>
      </trkpt>
      <trkpt lat="45.56105" lon="6.56267">
        <ele>2267.8000488281</ele>
        <time>2014-01-31T11:09:15.000Z</time>
      </trkpt>
      <trkpt lat="45.56106" lon="6.56266">
        <ele>2267</ele>
        <time>2014-01-31T11:09:16.000Z</time>
      </trkpt>
      <trkpt lat="45.56106" lon="6.56265">
        <ele>2266.3999023438</ele>
        <time>2014-01-31T11:09:17.000Z</time>
      </trkpt>
      <trkpt lat="45.56107" lon="6.56264">
        <ele>2266</ele>
        <time>2014-01-31T11:09:18.000Z</time>
      </trkpt>
      <trkpt lat="45.56107" lon="6.56265">
        <ele>2265.3999023438</ele>
        <time>2014-01-31T11:09:19.000Z</time>
      </trkpt>
      <trkpt lat="45.56106" lon="6.56265">
        <ele>2264.8000488281</ele>
        <time>2014-01-31T11:09:20.000Z</time>
      </trkpt>
      <trkpt lat="45.56107" lon="6.56265">
        <ele>2264</ele>
        <time>2014-01-31T11:09:21.000Z</time>
      </trkpt>
      <trkpt lat="45.56108" lon="6.56266">
        <ele>2263.6000976562</ele>
        <time>2014-01-31T11:09:22.000Z</time>
      </trkpt>
      <trkpt lat="45.56109" lon="6.56267">
        <ele>2263.1999511719</ele>
        <time>2014-01-31T11:09:23.000Z</time>
      </trkpt>
      <trkpt lat="45.5611" lon="6.56269">
        <ele>2262.8000488281</ele>
        <time>2014-01-31T11:09:24.000Z</time>
      </trkpt>
      <trkpt lat="45.56111" lon="6.56272">
        <ele>2262.3999023438</ele>
        <time>2014-01-31T11:09:25.000Z</time>
      </trkpt>
      <trkpt lat="45.56113" lon="6.56274">
        <ele>2261.3999023438</ele>
        <time>2014-01-31T11:09:26.000Z</time>
      </trkpt>
      <trkpt lat="45.56114" lon="6.56275">
        <ele>2260.1999511719</ele>
        <time>2014-01-31T11:09:27.000Z</time>
      </trkpt>
      <trkpt lat="45.56115" lon="6.56276">
        <ele>2259</ele>
        <time>2014-01-31T11:09:28.000Z</time>
      </trkpt>
      <trkpt lat="45.56116" lon="6.56276">
        <ele>2258.1999511719</ele>
        <time>2014-01-31T11:09:29.000Z</time>
      </trkpt>
      <trkpt lat="45.56115" lon="6.56276">
        <ele>2257.3999023438</ele>
        <time>2014-01-31T11:09:30.000Z</time>
      </trkpt>
      <trkpt lat="45.56115" lon="6.56276">
        <ele>2256.3999023438</ele>
        <time>2014-01-31T11:09:31.000Z</time>
      </trkpt>
      <trkpt lat="45.56116" lon="6.56275">
        <ele>2255.6000976562</ele>
        <time>2014-01-31T11:09:32.000Z</time>
      </trkpt>
      <trkpt lat="45.56116" lon="6.56275">
        <ele>2255.1999511719</ele>
        <time>2014-01-31T11:09:33.000Z</time>
      </trkpt>
      <trkpt lat="45.56116" lon="6.56274">
        <ele>2254.8000488281</ele>
        <time>2014-01-31T11:09:34.000Z</time>
      </trkpt>
      <trkpt lat="45.56116" lon="6.56274">
        <ele>2254.8000488281</ele>
        <time>2014-01-31T11:09:35.000Z</time>
      </trkpt>
      <trkpt lat="45.56116" lon="6.56274">
        <ele>2254.6000976562</ele>
        <time>2014-01-31T11:09:36.000Z</time>
      </trkpt>
      <trkpt lat="45.56116" lon="6.56274">
        <ele>2254.6000976562</ele>
        <time>2014-01-31T11:09:37.000Z</time>
      </trkpt>
      <trkpt lat="45.56116" lon="6.56273">
        <ele>2254.3999023438</ele>
        <time>2014-01-31T11:09:38.000Z</time>
      </trkpt>
      <trkpt lat="45.56118" lon="6.56272">
        <ele>2254.3999023438</ele>
        <time>2014-01-31T11:09:39.000Z</time>
      </trkpt>
      <trkpt lat="45.56119" lon="6.56274">
        <ele>2254</ele>
        <time>2014-01-31T11:09:40.000Z</time>
      </trkpt>
      <trkpt lat="45.56121" lon="6.56277">
        <ele>2253.3999023438</ele>
        <time>2014-01-31T11:09:41.000Z</time>
      </trkpt>
      <trkpt lat="45.56123" lon="6.56278">
        <ele>2252.3999023438</ele>
        <time>2014-01-31T11:09:42.000Z</time>
      </trkpt>
      <trkpt lat="45.56126" lon="6.5628">
        <ele>2251.6000976562</ele>
        <time>2014-01-31T11:09:43.000Z</time>
      </trkpt>
      <trkpt lat="45.56126" lon="6.56283">
        <ele>2250.3999023438</ele>
        <time>2014-01-31T11:09:44.000Z</time>
      </trkpt>
      <trkpt lat="45.56128" lon="6.56286">
        <ele>2248.3999023438</ele>
        <time>2014-01-31T11:09:45.000Z</time>
      </trkpt>
      <trkpt lat="45.5613" lon="6.56287">
        <ele>2246</ele>
        <time>2014-01-31T11:09:46.000Z</time>
      </trkpt>
      <trkpt lat="45.56132" lon="6.56287">
        <ele>2244</ele>
        <time>2014-01-31T11:09:47.000Z</time>
      </trkpt>
      <trkpt lat="45.56135" lon="6.56286">
        <ele>2242.8000488281</ele>
        <time>2014-01-31T11:09:48.000Z</time>
      </trkpt>
      <trkpt lat="45.56137" lon="6.56286">
        <ele>2241.6000976562</ele>
        <time>2014-01-31T11:09:49.000Z</time>
      </trkpt>
      <trkpt lat="45.5614" lon="6.56288">
        <ele>2240</ele>
        <time>2014-01-31T11:09:50.000Z</time>
      </trkpt>
      <trkpt lat="45.56144" lon="6.56288">
        <ele>2238.1999511719</ele>
        <time>2014-01-31T11:09:51.000Z</time>
      </trkpt>
      <trkpt lat="45.56147" lon="6.56289">
        <ele>2236.6000976562</ele>
        <time>2014-01-31T11:09:52.000Z</time>
      </trkpt>
      <trkpt lat="45.5615" lon="6.56291">
        <ele>2235.1999511719</ele>
        <time>2014-01-31T11:09:53.000Z</time>
      </trkpt>
      <trkpt lat="45.56152" lon="6.56292">
        <ele>2233.8000488281</ele>
        <time>2014-01-31T11:09:54.000Z</time>
      </trkpt>
      <trkpt lat="45.56153" lon="6.56292">
        <ele>2231.8000488281</ele>
        <time>2014-01-31T11:09:55.000Z</time>
      </trkpt>
      <trkpt lat="45.56153" lon="6.56294">
        <ele>2229.8000488281</ele>
        <time>2014-01-31T11:09:56.000Z</time>
      </trkpt>
      <trkpt lat="45.56154" lon="6.56297">
        <ele>2228</ele>
        <time>2014-01-31T11:09:57.000Z</time>
      </trkpt>
      <trkpt lat="45.56156" lon="6.56299">
        <ele>2226.6000976562</ele>
        <time>2014-01-31T11:09:58.000Z</time>
      </trkpt>
      <trkpt lat="45.56157" lon="6.56299">
        <ele>2225.3999023438</ele>
        <time>2014-01-31T11:09:59.000Z</time>
      </trkpt>
      <trkpt lat="45.56159" lon="6.56297">
        <ele>2224.3999023438</ele>
        <time>2014-01-31T11:10:00.000Z</time>
      </trkpt>
      <trkpt lat="45.56162" lon="6.56295">
        <ele>2222.8000488281</ele>
        <time>2014-01-31T11:10:01.000Z</time>
      </trkpt>
      <trkpt lat="45.56165" lon="6.56291">
        <ele>2221.3999023438</ele>
        <time>2014-01-31T11:10:02.000Z</time>
      </trkpt>
      <trkpt lat="45.56168" lon="6.56288">
        <ele>2220</ele>
        <time>2014-01-31T11:10:03.000Z</time>
      </trkpt>
      <trkpt lat="45.5617" lon="6.56286">
        <ele>2218.8000488281</ele>
        <time>2014-01-31T11:10:04.000Z</time>
      </trkpt>
      <trkpt lat="45.56172" lon="6.56286">
        <ele>2217.6000976562</ele>
        <time>2014-01-31T11:10:05.000Z</time>
      </trkpt>
      <trkpt lat="45.56174" lon="6.56287">
        <ele>2216.3999023438</ele>
        <time>2014-01-31T11:10:06.000Z</time>
      </trkpt>
      <trkpt lat="45.56177" lon="6.56289">
        <ele>2215.1999511719</ele>
        <time>2014-01-31T11:10:07.000Z</time>
      </trkpt>
      <trkpt lat="45.56181" lon="6.5629">
        <ele>2214.1999511719</ele>
        <time>2014-01-31T11:10:08.000Z</time>
      </trkpt>
      <trkpt lat="45.56184" lon="6.5629">
        <ele>2213</ele>
        <time>2014-01-31T11:10:09.000Z</time>
      </trkpt>
      <trkpt lat="45.56187" lon="6.56289">
        <ele>2211.6000976562</ele>
        <time>2014-01-31T11:10:10.000Z</time>
      </trkpt>
      <trkpt lat="45.5619" lon="6.56288">
        <ele>2209.8000488281</ele>
        <time>2014-01-31T11:10:11.000Z</time>
      </trkpt>
      <trkpt lat="45.56193" lon="6.56289">
        <ele>2207.8000488281</ele>
        <time>2014-01-31T11:10:12.000Z</time>
      </trkpt>
      <trkpt lat="45.56193" lon="6.56293">
        <ele>2206.1999511719</ele>
        <time>2014-01-31T11:10:13.000Z</time>
      </trkpt>
      <trkpt lat="45.56194" lon="6.56297">
        <ele>2204.8000488281</ele>
        <time>2014-01-31T11:10:14.000Z</time>
      </trkpt>
      <trkpt lat="45.56196" lon="6.563">
        <ele>2203.8000488281</ele>
        <time>2014-01-31T11:10:15.000Z</time>
      </trkpt>
      <trkpt lat="45.56199" lon="6.563">
        <ele>2202.8000488281</ele>
        <time>2014-01-31T11:10:16.000Z</time>
      </trkpt>
      <trkpt lat="45.56203" lon="6.56298">
        <ele>2201.6000976562</ele>
        <time>2014-01-31T11:10:17.000Z</time>
      </trkpt>
      <trkpt lat="45.56207" lon="6.56297">
        <ele>2199.8000488281</ele>
        <time>2014-01-31T11:10:18.000Z</time>
      </trkpt>
      <trkpt lat="45.56212" lon="6.56297">
        <ele>2198</ele>
        <time>2014-01-31T11:10:19.000Z</time>
      </trkpt>
      <trkpt lat="45.56217" lon="6.56296">
        <ele>2196.3999023438</ele>
        <time>2014-01-31T11:10:20.000Z</time>
      </trkpt>
      <trkpt lat="45.56222" lon="6.56296">
        <ele>2195.1999511719</ele>
        <time>2014-01-31T11:10:21.000Z</time>
      </trkpt>
      <trkpt lat="45.56227" lon="6.56296">
        <ele>2194.1999511719</ele>
        <time>2014-01-31T11:10:22.000Z</time>
      </trkpt>
      <trkpt lat="45.56233" lon="6.56297">
        <ele>2193.3999023438</ele>
        <time>2014-01-31T11:10:23.000Z</time>
      </trkpt>
      <trkpt lat="45.56238" lon="6.56298">
        <ele>2192</ele>
        <time>2014-01-31T11:10:24.000Z</time>
      </trkpt>
      <trkpt lat="45.56244" lon="6.56299">
        <ele>2191.3999023438</ele>
        <time>2014-01-31T11:10:25.000Z</time>
      </trkpt>
      <trkpt lat="45.5625" lon="6.56301">
        <ele>2190.6000976562</ele>
        <time>2014-01-31T11:10:26.000Z</time>
      </trkpt>
      <trkpt lat="45.56256" lon="6.56303">
        <ele>2189.8000488281</ele>
        <time>2014-01-31T11:10:27.000Z</time>
      </trkpt>
      <trkpt lat="45.56262" lon="6.56307">
        <ele>2189</ele>
        <time>2014-01-31T11:10:28.000Z</time>
      </trkpt>
      <trkpt lat="45.56267" lon="6.56311">
        <ele>2188</ele>
        <time>2014-01-31T11:10:29.000Z</time>
      </trkpt>
      <trkpt lat="45.56273" lon="6.56314">
        <ele>2186.8000488281</ele>
        <time>2014-01-31T11:10:30.000Z</time>
      </trkpt>
      <trkpt lat="45.56279" lon="6.56317">
        <ele>2185.6000976562</ele>
        <time>2014-01-31T11:10:31.000Z</time>
      </trkpt>
      <trkpt lat="45.56285" lon="6.56322">
        <ele>2184.3999023438</ele>
        <time>2014-01-31T11:10:32.000Z</time>
      </trkpt>
      <trkpt lat="45.56291" lon="6.56328">
        <ele>2183.3999023438</ele>
        <time>2014-01-31T11:10:33.000Z</time>
      </trkpt>
      <trkpt lat="45.56298" lon="6.56334">
        <ele>2182.1999511719</ele>
        <time>2014-01-31T11:10:34.000Z</time>
      </trkpt>
      <trkpt lat="45.56303" lon="6.56341">
        <ele>2181</ele>
        <time>2014-01-31T11:10:35.000Z</time>
      </trkpt>
      <trkpt lat="45.56307" lon="6.56347">
        <ele>2179.6000976562</ele>
        <time>2014-01-31T11:10:36.000Z</time>
      </trkpt>
      <trkpt lat="45.5631" lon="6.56353">
        <ele>2178.1999511719</ele>
        <time>2014-01-31T11:10:37.000Z</time>
      </trkpt>
      <trkpt lat="45.56312" lon="6.56357">
        <ele>2176.6000976562</ele>
        <time>2014-01-31T11:10:38.000Z</time>
      </trkpt>
      <trkpt lat="45.56314" lon="6.5636">
        <ele>2175.6000976562</ele>
        <time>2014-01-31T11:10:39.000Z</time>
      </trkpt>
      <trkpt lat="45.56314" lon="6.56362">
        <ele>2175</ele>
        <time>2014-01-31T11:10:40.000Z</time>
      </trkpt>
      <trkpt lat="45.56314" lon="6.56362">
        <ele>2174.6000976562</ele>
        <time>2014-01-31T11:10:41.000Z</time>
      </trkpt>
      <trkpt lat="45.56314" lon="6.56363">
        <ele>2174.3999023438</ele>
        <time>2014-01-31T11:10:42.000Z</time>
      </trkpt>
      <trkpt lat="45.56315" lon="6.56363">
        <ele>2174.6000976562</ele>
        <time>2014-01-31T11:10:43.000Z</time>
      </trkpt>
      <trkpt lat="45.56315" lon="6.56363">
        <ele>2175</ele>
        <time>2014-01-31T11:10:44.000Z</time>
      </trkpt>
      <trkpt lat="45.56314" lon="6.56363">
        <ele>2175.1999511719</ele>
        <time>2014-01-31T11:10:45.000Z</time>
      </trkpt>
      <trkpt lat="45.56314" lon="6.56363">
        <ele>2175.3999023438</ele>
        <time>2014-01-31T11:10:46.000Z</time>
      </trkpt>
      <trkpt lat="45.56314" lon="6.56363">
        <ele>2175.6000976562</ele>
        <time>2014-01-31T11:10:47.000Z</time>
      </trkpt>
      <trkpt lat="45.56314" lon="6.56363">
        <ele>2175.6000976562</ele>
        <time>2014-01-31T11:10:48.000Z</time>
      </trkpt>
      <trkpt lat="45.56314" lon="6.56363">
        <ele>2175.6000976562</ele>
        <time>2014-01-31T11:10:50.000Z</time>
      </trkpt>
      <trkpt lat="45.56314" lon="6.56363">
        <ele>2175.3999023438</ele>
        <time>2014-01-31T11:10:51.000Z</time>
      </trkpt>
      <trkpt lat="45.56314" lon="6.56363">
        <ele>2175.3999023438</ele>
        <time>2014-01-31T11:10:52.000Z</time>
      </trkpt>
      <trkpt lat="45.56314" lon="6.56363">
        <ele>2175.3999023438</ele>
        <time>2014-01-31T11:10:53.000Z</time>
      </trkpt>
      <trkpt lat="45.56314" lon="6.56363">
        <ele>2175.3999023438</ele>
        <time>2014-01-31T11:10:54.000Z</time>
      </trkpt>
      <trkpt lat="45.56314" lon="6.56363">
        <ele>2175.3999023438</ele>
        <time>2014-01-31T11:10:55.000Z</time>
      </trkpt>
      <trkpt lat="45.56314" lon="6.56363">
        <ele>2175.1999511719</ele>
        <time>2014-01-31T11:10:59.000Z</time>
      </trkpt>
      <trkpt lat="45.56314" lon="6.56363">
        <ele>2175.1999511719</ele>
        <time>2014-01-31T11:11:00.000Z</time>
      </trkpt>
      <trkpt lat="45.56314" lon="6.56363">
        <ele>2175.1999511719</ele>
        <time>2014-01-31T11:11:01.000Z</time>
      </trkpt>
      <trkpt lat="45.56314" lon="6.56363">
        <ele>2175.1999511719</ele>
        <time>2014-01-31T11:11:02.000Z</time>
      </trkpt>
      <trkpt lat="45.56314" lon="6.56363">
        <ele>2175</ele>
        <time>2014-01-31T11:11:03.000Z</time>
      </trkpt>
      <trkpt lat="45.56314" lon="6.56363">
        <ele>2175</ele>
        <time>2014-01-31T11:11:04.000Z</time>
      </trkpt>
      <trkpt lat="45.56314" lon="6.56363">
        <ele>2174.8000488281</ele>
        <time>2014-01-31T11:11:05.000Z</time>
      </trkpt>
      <trkpt lat="45.56314" lon="6.56363">
        <ele>2174.8000488281</ele>
        <time>2014-01-31T11:11:06.000Z</time>
      </trkpt>
      <trkpt lat="45.56314" lon="6.56363">
        <ele>2174.8000488281</ele>
        <time>2014-01-31T11:11:07.000Z</time>
      </trkpt>
      <trkpt lat="45.56314" lon="6.56363">
        <ele>2174.8000488281</ele>
        <time>2014-01-31T11:11:08.000Z</time>
      </trkpt>
      <trkpt lat="45.56314" lon="6.56363">
        <ele>2174.8000488281</ele>
        <time>2014-01-31T11:11:09.000Z</time>
      </trkpt>
      <trkpt lat="45.56314" lon="6.56363">
        <ele>2175</ele>
        <time>2014-01-31T11:11:10.000Z</time>
      </trkpt>
      <trkpt lat="45.56314" lon="6.56363">
        <ele>2174.8000488281</ele>
        <time>2014-01-31T11:11:12.000Z</time>
      </trkpt>
      <trkpt lat="45.56314" lon="6.56363">
        <ele>2174.3999023438</ele>
        <time>2014-01-31T11:11:13.000Z</time>
      </trkpt>
      <trkpt lat="45.56314" lon="6.56363">
        <ele>2174.1999511719</ele>
        <time>2014-01-31T11:11:14.000Z</time>
      </trkpt>
      <trkpt lat="45.56314" lon="6.56363">
        <ele>2174</ele>
        <time>2014-01-31T11:11:15.000Z</time>
      </trkpt>
      <trkpt lat="45.56314" lon="6.56363">
        <ele>2173.8000488281</ele>
        <time>2014-01-31T11:11:16.000Z</time>
      </trkpt>
      <trkpt lat="45.56314" lon="6.56363">
        <ele>2173.8000488281</ele>
        <time>2014-01-31T11:11:17.000Z</time>
      </trkpt>
      <trkpt lat="45.56314" lon="6.56363">
        <ele>2173.8000488281</ele>
        <time>2014-01-31T11:11:18.000Z</time>
      </trkpt>
      <trkpt lat="45.56314" lon="6.56363">
        <ele>2174</ele>
        <time>2014-01-31T11:11:19.000Z</time>
      </trkpt>
      <trkpt lat="45.56314" lon="6.56363">
        <ele>2174.1999511719</ele>
        <time>2014-01-31T11:11:20.000Z</time>
      </trkpt>
      <trkpt lat="45.56314" lon="6.56363">
        <ele>2174.3999023438</ele>
        <time>2014-01-31T11:11:21.000Z</time>
      </trkpt>
      <trkpt lat="45.56314" lon="6.56363">
        <ele>2175</ele>
        <time>2014-01-31T11:11:22.000Z</time>
      </trkpt>
      <trkpt lat="45.56314" lon="6.56363">
        <ele>2175.3999023438</ele>
        <time>2014-01-31T11:11:23.000Z</time>
      </trkpt>
      <trkpt lat="45.56314" lon="6.56363">
        <ele>2175.6000976562</ele>
        <time>2014-01-31T11:11:24.000Z</time>
      </trkpt>
      <trkpt lat="45.56315" lon="6.56363">
        <ele>2175.8000488281</ele>
        <time>2014-01-31T11:11:25.000Z</time>
      </trkpt>
      <trkpt lat="45.56315" lon="6.56363">
        <ele>2175.8000488281</ele>
        <time>2014-01-31T11:11:26.000Z</time>
      </trkpt>
      <trkpt lat="45.56315" lon="6.56363">
        <ele>2175.6000976562</ele>
        <time>2014-01-31T11:11:27.000Z</time>
      </trkpt>
      <trkpt lat="45.56315" lon="6.56363">
        <ele>2175.3999023438</ele>
        <time>2014-01-31T11:11:28.000Z</time>
      </trkpt>
      <trkpt lat="45.56315" lon="6.56363">
        <ele>2175.1999511719</ele>
        <time>2014-01-31T11:11:29.000Z</time>
      </trkpt>
      <trkpt lat="45.56315" lon="6.56363">
        <ele>2175.1999511719</ele>
        <time>2014-01-31T11:11:30.000Z</time>
      </trkpt>
      <trkpt lat="45.56315" lon="6.56363">
        <ele>2175</ele>
        <time>2014-01-31T11:11:31.000Z</time>
      </trkpt>
      <trkpt lat="45.56315" lon="6.56363">
        <ele>2175</ele>
        <time>2014-01-31T11:11:32.000Z</time>
      </trkpt>
      <trkpt lat="45.56315" lon="6.56363">
        <ele>2175</ele>
        <time>2014-01-31T11:11:33.000Z</time>
      </trkpt>
      <trkpt lat="45.56315" lon="6.56363">
        <ele>2175</ele>
        <time>2014-01-31T11:11:34.000Z</time>
      </trkpt>
      <trkpt lat="45.56315" lon="6.56363">
        <ele>2175</ele>
        <time>2014-01-31T11:11:36.000Z</time>
      </trkpt>
      <trkpt lat="45.56315" lon="6.56363">
        <ele>2175</ele>
        <time>2014-01-31T11:11:38.000Z</time>
      </trkpt>
      <trkpt lat="45.56315" lon="6.56363">
        <ele>2175</ele>
        <time>2014-01-31T11:11:39.000Z</time>
      </trkpt>
      <trkpt lat="45.56315" lon="6.56363">
        <ele>2175.1999511719</ele>
        <time>2014-01-31T11:11:40.000Z</time>
      </trkpt>
      <trkpt lat="45.56315" lon="6.56363">
        <ele>2175.1999511719</ele>
        <time>2014-01-31T11:11:41.000Z</time>
      </trkpt>
      <trkpt lat="45.56315" lon="6.56363">
        <ele>2175.1999511719</ele>
        <time>2014-01-31T11:11:42.000Z</time>
      </trkpt>
      <trkpt lat="45.56315" lon="6.56363">
        <ele>2175.1999511719</ele>
        <time>2014-01-31T11:11:43.000Z</time>
      </trkpt>
      <trkpt lat="45.56315" lon="6.56363">
        <ele>2175.3999023438</ele>
        <time>2014-01-31T11:11:44.000Z</time>
      </trkpt>
      <trkpt lat="45.56315" lon="6.56363">
        <ele>2175.3999023438</ele>
        <time>2014-01-31T11:11:45.000Z</time>
      </trkpt>
      <trkpt lat="45.56315" lon="6.56363">
        <ele>2175.3999023438</ele>
        <time>2014-01-31T11:11:46.000Z</time>
      </trkpt>
      <trkpt lat="45.56315" lon="6.56363">
        <ele>2175.3999023438</ele>
        <time>2014-01-31T11:11:47.000Z</time>
      </trkpt>
      <trkpt lat="45.56315" lon="6.56363">
        <ele>2175.1999511719</ele>
        <time>2014-01-31T11:11:48.000Z</time>
      </trkpt>
      <trkpt lat="45.56315" lon="6.56363">
        <ele>2175.1999511719</ele>
        <time>2014-01-31T11:11:49.000Z</time>
      </trkpt>
      <trkpt lat="45.56315" lon="6.56363">
        <ele>2175.1999511719</ele>
        <time>2014-01-31T11:11:50.000Z</time>
      </trkpt>
      <trkpt lat="45.56315" lon="6.56363">
        <ele>2175.1999511719</ele>
        <time>2014-01-31T11:11:51.000Z</time>
      </trkpt>
      <trkpt lat="45.56315" lon="6.56363">
        <ele>2175.1999511719</ele>
        <time>2014-01-31T11:11:52.000Z</time>
      </trkpt>
      <trkpt lat="45.56315" lon="6.56363">
        <ele>2175</ele>
        <time>2014-01-31T11:11:53.000Z</time>
      </trkpt>
      <trkpt lat="45.56315" lon="6.56363">
        <ele>2175</ele>
        <time>2014-01-31T11:11:54.000Z</time>
      </trkpt>
      <trkpt lat="45.56315" lon="6.56363">
        <ele>2175</ele>
        <time>2014-01-31T11:11:55.000Z</time>
      </trkpt>
      <trkpt lat="45.56315" lon="6.56363">
        <ele>2175</ele>
        <time>2014-01-31T11:11:56.000Z</time>
      </trkpt>
      <trkpt lat="45.56315" lon="6.56363">
        <ele>2175</ele>
        <time>2014-01-31T11:11:59.000Z</time>
      </trkpt>
      <trkpt lat="45.56315" lon="6.56363">
        <ele>2175</ele>
        <time>2014-01-31T11:12:00.000Z</time>
      </trkpt>
      <trkpt lat="45.56315" lon="6.56363">
        <ele>2175.1999511719</ele>
        <time>2014-01-31T11:12:01.000Z</time>
      </trkpt>
      <trkpt lat="45.56315" lon="6.56363">
        <ele>2175</ele>
        <time>2014-01-31T11:12:02.000Z</time>
      </trkpt>
      <trkpt lat="45.56315" lon="6.56363">
        <ele>2175</ele>
        <time>2014-01-31T11:12:03.000Z</time>
      </trkpt>
      <trkpt lat="45.56315" lon="6.56363">
        <ele>2175</ele>
        <time>2014-01-31T11:12:04.000Z</time>
      </trkpt>
      <trkpt lat="45.56315" lon="6.56363">
        <ele>2175</ele>
        <time>2014-01-31T11:12:05.000Z</time>
      </trkpt>
      <trkpt lat="45.56315" lon="6.56363">
        <ele>2175</ele>
        <time>2014-01-31T11:12:06.000Z</time>
      </trkpt>
      <trkpt lat="45.56315" lon="6.56363">
        <ele>2175</ele>
        <time>2014-01-31T11:12:07.000Z</time>
      </trkpt>
      <trkpt lat="45.56315" lon="6.56363">
        <ele>2175</ele>
        <time>2014-01-31T11:12:08.000Z</time>
      </trkpt>
      <trkpt lat="45.56315" lon="6.56363">
        <ele>2175.1999511719</ele>
        <time>2014-01-31T11:12:09.000Z</time>
      </trkpt>
      <trkpt lat="45.56315" lon="6.56363">
        <ele>2175.3999023438</ele>
        <time>2014-01-31T11:12:10.000Z</time>
      </trkpt>
      <trkpt lat="45.56315" lon="6.56363">
        <ele>2175.3999023438</ele>
        <time>2014-01-31T11:12:11.000Z</time>
      </trkpt>
      <trkpt lat="45.56315" lon="6.56363">
        <ele>2175.3999023438</ele>
        <time>2014-01-31T11:12:12.000Z</time>
      </trkpt>
      <trkpt lat="45.56314" lon="6.56363">
        <ele>2175.3999023438</ele>
        <time>2014-01-31T11:12:13.000Z</time>
      </trkpt>
      <trkpt lat="45.56314" lon="6.56363">
        <ele>2175.6000976562</ele>
        <time>2014-01-31T11:12:14.000Z</time>
      </trkpt>
      <trkpt lat="45.56314" lon="6.56363">
        <ele>2175.6000976562</ele>
        <time>2014-01-31T11:12:15.000Z</time>
      </trkpt>
      <trkpt lat="45.56314" lon="6.56363">
        <ele>2175.6000976562</ele>
        <time>2014-01-31T11:12:16.000Z</time>
      </trkpt>
      <trkpt lat="45.56314" lon="6.56363">
        <ele>2175.6000976562</ele>
        <time>2014-01-31T11:12:17.000Z</time>
      </trkpt>
      <trkpt lat="45.56314" lon="6.56363">
        <ele>2175.6000976562</ele>
        <time>2014-01-31T11:12:18.000Z</time>
      </trkpt>
      <trkpt lat="45.56314" lon="6.56363">
        <ele>2175.6000976562</ele>
        <time>2014-01-31T11:12:20.000Z</time>
      </trkpt>
      <trkpt lat="45.56314" lon="6.56364">
        <ele>2175.6000976562</ele>
        <time>2014-01-31T11:12:21.000Z</time>
      </trkpt>
      <trkpt lat="45.56314" lon="6.56364">
        <ele>2175.6000976562</ele>
        <time>2014-01-31T11:12:22.000Z</time>
      </trkpt>
      <trkpt lat="45.56314" lon="6.56364">
        <ele>2175.6000976562</ele>
        <time>2014-01-31T11:12:24.000Z</time>
      </trkpt>
      <trkpt lat="45.56314" lon="6.56364">
        <ele>2175.3999023438</ele>
        <time>2014-01-31T11:12:25.000Z</time>
      </trkpt>
      <trkpt lat="45.56314" lon="6.56364">
        <ele>2175.3999023438</ele>
        <time>2014-01-31T11:12:26.000Z</time>
      </trkpt>
      <trkpt lat="45.56314" lon="6.56364">
        <ele>2175.1999511719</ele>
        <time>2014-01-31T11:12:27.000Z</time>
      </trkpt>
      <trkpt lat="45.56314" lon="6.56364">
        <ele>2175.1999511719</ele>
        <time>2014-01-31T11:12:28.000Z</time>
      </trkpt>
      <trkpt lat="45.56314" lon="6.56364">
        <ele>2175.1999511719</ele>
        <time>2014-01-31T11:12:29.000Z</time>
      </trkpt>
      <trkpt lat="45.56314" lon="6.56364">
        <ele>2175.1999511719</ele>
        <time>2014-01-31T11:12:33.000Z</time>
      </trkpt>
      <trkpt lat="45.56314" lon="6.56364">
        <ele>2175.1999511719</ele>
        <time>2014-01-31T11:12:34.000Z</time>
      </trkpt>
      <trkpt lat="45.56314" lon="6.56364">
        <ele>2175.1999511719</ele>
        <time>2014-01-31T11:12:35.000Z</time>
      </trkpt>
      <trkpt lat="45.56314" lon="6.56364">
        <ele>2175.1999511719</ele>
        <time>2014-01-31T11:12:36.000Z</time>
      </trkpt>
      <trkpt lat="45.56314" lon="6.56364">
        <ele>2175</ele>
        <time>2014-01-31T11:12:37.000Z</time>
      </trkpt>
      <trkpt lat="45.56314" lon="6.56364">
        <ele>2175</ele>
        <time>2014-01-31T11:12:38.000Z</time>
      </trkpt>
      <trkpt lat="45.56314" lon="6.56364">
        <ele>2175</ele>
        <time>2014-01-31T11:12:39.000Z</time>
      </trkpt>
      <trkpt lat="45.56314" lon="6.56364">
        <ele>2175.1999511719</ele>
        <time>2014-01-31T11:12:40.000Z</time>
      </trkpt>
      <trkpt lat="45.56314" lon="6.56363">
        <ele>2175.1999511719</ele>
        <time>2014-01-31T11:12:50.000Z</time>
      </trkpt>
      <trkpt lat="45.56314" lon="6.56363">
        <ele>2175.1999511719</ele>
        <time>2014-01-31T11:12:51.000Z</time>
      </trkpt>
      <trkpt lat="45.56314" lon="6.56363">
        <ele>2175.1999511719</ele>
        <time>2014-01-31T11:12:52.000Z</time>
      </trkpt>
      <trkpt lat="45.56314" lon="6.56363">
        <ele>2175.1999511719</ele>
        <time>2014-01-31T11:12:53.000Z</time>
      </trkpt>
      <trkpt lat="45.56314" lon="6.56363">
        <ele>2175.1999511719</ele>
        <time>2014-01-31T11:12:54.000Z</time>
      </trkpt>
      <trkpt lat="45.56314" lon="6.56363">
        <ele>2175.1999511719</ele>
        <time>2014-01-31T11:12:55.000Z</time>
      </trkpt>
      <trkpt lat="45.56314" lon="6.56363">
        <ele>2175.1999511719</ele>
        <time>2014-01-31T11:12:56.000Z</time>
      </trkpt>
      <trkpt lat="45.56314" lon="6.56363">
        <ele>2175.1999511719</ele>
        <time>2014-01-31T11:12:57.000Z</time>
      </trkpt>
      <trkpt lat="45.56314" lon="6.56363">
        <ele>2175.1999511719</ele>
        <time>2014-01-31T11:12:58.000Z</time>
      </trkpt>
      <trkpt lat="45.56314" lon="6.56363">
        <ele>2175.1999511719</ele>
        <time>2014-01-31T11:13:01.000Z</time>
      </trkpt>
      <trkpt lat="45.56314" lon="6.56363">
        <ele>2175.3999023438</ele>
        <time>2014-01-31T11:13:02.000Z</time>
      </trkpt>
      <trkpt lat="45.56314" lon="6.56363">
        <ele>2175.3999023438</ele>
        <time>2014-01-31T11:13:03.000Z</time>
      </trkpt>
      <trkpt lat="45.56314" lon="6.56363">
        <ele>2175.3999023438</ele>
        <time>2014-01-31T11:13:04.000Z</time>
      </trkpt>
      <trkpt lat="45.56314" lon="6.56363">
        <ele>2175.3999023438</ele>
        <time>2014-01-31T11:13:05.000Z</time>
      </trkpt>
      <trkpt lat="45.56314" lon="6.56363">
        <ele>2175.3999023438</ele>
        <time>2014-01-31T11:13:06.000Z</time>
      </trkpt>
      <trkpt lat="45.56314" lon="6.56363">
        <ele>2175.3999023438</ele>
        <time>2014-01-31T11:13:07.000Z</time>
      </trkpt>
      <trkpt lat="45.56314" lon="6.56363">
        <ele>2175.3999023438</ele>
        <time>2014-01-31T11:13:08.000Z</time>
      </trkpt>
      <trkpt lat="45.56314" lon="6.56363">
        <ele>2175.6000976562</ele>
        <time>2014-01-31T11:13:09.000Z</time>
      </trkpt>
      <trkpt lat="45.56314" lon="6.56363">
        <ele>2175.6000976562</ele>
        <time>2014-01-31T11:13:10.000Z</time>
      </trkpt>
      <trkpt lat="45.56314" lon="6.56364">
        <ele>2175.6000976562</ele>
        <time>2014-01-31T11:13:11.000Z</time>
      </trkpt>
      <trkpt lat="45.56314" lon="6.56364">
        <ele>2175.6000976562</ele>
        <time>2014-01-31T11:13:13.000Z</time>
      </trkpt>
      <trkpt lat="45.56314" lon="6.56364">
        <ele>2175.3999023438</ele>
        <time>2014-01-31T11:13:14.000Z</time>
      </trkpt>
      <trkpt lat="45.56314" lon="6.56364">
        <ele>2175.3999023438</ele>
        <time>2014-01-31T11:13:15.000Z</time>
      </trkpt>
      <trkpt lat="45.56314" lon="6.56364">
        <ele>2175.3999023438</ele>
        <time>2014-01-31T11:13:16.000Z</time>
      </trkpt>
      <trkpt lat="45.56314" lon="6.56364">
        <ele>2175.3999023438</ele>
        <time>2014-01-31T11:13:17.000Z</time>
      </trkpt>
      <trkpt lat="45.56314" lon="6.56364">
        <ele>2175.3999023438</ele>
        <time>2014-01-31T11:13:18.000Z</time>
      </trkpt>
      <trkpt lat="45.56314" lon="6.56364">
        <ele>2175.1999511719</ele>
        <time>2014-01-31T11:13:19.000Z</time>
      </trkpt>
      <trkpt lat="45.56314" lon="6.56364">
        <ele>2175.1999511719</ele>
        <time>2014-01-31T11:13:20.000Z</time>
      </trkpt>
      <trkpt lat="45.56314" lon="6.56364">
        <ele>2175.1999511719</ele>
        <time>2014-01-31T11:13:21.000Z</time>
      </trkpt>
      <trkpt lat="45.56314" lon="6.56364">
        <ele>2175.1999511719</ele>
        <time>2014-01-31T11:13:22.000Z</time>
      </trkpt>
      <trkpt lat="45.56314" lon="6.56364">
        <ele>2175.1999511719</ele>
        <time>2014-01-31T11:13:23.000Z</time>
      </trkpt>
      <trkpt lat="45.56314" lon="6.56364">
        <ele>2175</ele>
        <time>2014-01-31T11:13:24.000Z</time>
      </trkpt>
      <trkpt lat="45.56314" lon="6.56364">
        <ele>2175</ele>
        <time>2014-01-31T11:13:25.000Z</time>
      </trkpt>
      <trkpt lat="45.56314" lon="6.56364">
        <ele>2174.8000488281</ele>
        <time>2014-01-31T11:13:26.000Z</time>
      </trkpt>
      <trkpt lat="45.56314" lon="6.56364">
        <ele>2174.8000488281</ele>
        <time>2014-01-31T11:13:27.000Z</time>
      </trkpt>
      <trkpt lat="45.56314" lon="6.56364">
        <ele>2174.8000488281</ele>
        <time>2014-01-31T11:13:28.000Z</time>
      </trkpt>
      <trkpt lat="45.56314" lon="6.56364">
        <ele>2174.8000488281</ele>
        <time>2014-01-31T11:13:29.000Z</time>
      </trkpt>
      <trkpt lat="45.56314" lon="6.56364">
        <ele>2174.8000488281</ele>
        <time>2014-01-31T11:13:30.000Z</time>
      </trkpt>
      <trkpt lat="45.56314" lon="6.56364">
        <ele>2174.8000488281</ele>
        <time>2014-01-31T11:13:31.000Z</time>
      </trkpt>
      <trkpt lat="45.56314" lon="6.56364">
        <ele>2174.6000976562</ele>
        <time>2014-01-31T11:13:32.000Z</time>
      </trkpt>
      <trkpt lat="45.56314" lon="6.56364">
        <ele>2174.6000976562</ele>
        <time>2014-01-31T11:13:33.000Z</time>
      </trkpt>
      <trkpt lat="45.56314" lon="6.56364">
        <ele>2174.6000976562</ele>
        <time>2014-01-31T11:13:34.000Z</time>
      </trkpt>
      <trkpt lat="45.56314" lon="6.56364">
        <ele>2174.6000976562</ele>
        <time>2014-01-31T11:13:35.000Z</time>
      </trkpt>
      <trkpt lat="45.56314" lon="6.56364">
        <ele>2174.8000488281</ele>
        <time>2014-01-31T11:13:36.000Z</time>
      </trkpt>
      <trkpt lat="45.56314" lon="6.56364">
        <ele>2175</ele>
        <time>2014-01-31T11:13:37.000Z</time>
      </trkpt>
      <trkpt lat="45.56314" lon="6.56364">
        <ele>2175.1999511719</ele>
        <time>2014-01-31T11:13:38.000Z</time>
      </trkpt>
      <trkpt lat="45.56314" lon="6.56364">
        <ele>2175.1999511719</ele>
        <time>2014-01-31T11:13:39.000Z</time>
      </trkpt>
      <trkpt lat="45.56314" lon="6.56364">
        <ele>2175.1999511719</ele>
        <time>2014-01-31T11:13:40.000Z</time>
      </trkpt>
      <trkpt lat="45.56314" lon="6.56364">
        <ele>2175.1999511719</ele>
        <time>2014-01-31T11:13:41.000Z</time>
      </trkpt>
      <trkpt lat="45.56314" lon="6.56364">
        <ele>2175.1999511719</ele>
        <time>2014-01-31T11:13:42.000Z</time>
      </trkpt>
      <trkpt lat="45.56314" lon="6.56364">
        <ele>2175.1999511719</ele>
        <time>2014-01-31T11:13:43.000Z</time>
      </trkpt>
      <trkpt lat="45.56314" lon="6.56364">
        <ele>2175.1999511719</ele>
        <time>2014-01-31T11:13:44.000Z</time>
      </trkpt>
      <trkpt lat="45.56314" lon="6.56364">
        <ele>2175.1999511719</ele>
        <time>2014-01-31T11:13:45.000Z</time>
      </trkpt>
      <trkpt lat="45.56314" lon="6.56364">
        <ele>2175.1999511719</ele>
        <time>2014-01-31T11:13:47.000Z</time>
      </trkpt>
      <trkpt lat="45.56314" lon="6.56364">
        <ele>2175.1999511719</ele>
        <time>2014-01-31T11:13:48.000Z</time>
      </trkpt>
      <trkpt lat="45.56314" lon="6.56364">
        <ele>2175.1999511719</ele>
        <time>2014-01-31T11:13:49.000Z</time>
      </trkpt>
      <trkpt lat="45.56314" lon="6.56364">
        <ele>2175.1999511719</ele>
        <time>2014-01-31T11:13:50.000Z</time>
      </trkpt>
      <trkpt lat="45.56314" lon="6.56364">
        <ele>2175.1999511719</ele>
        <time>2014-01-31T11:13:52.000Z</time>
      </trkpt>
      <trkpt lat="45.56314" lon="6.56364">
        <ele>2175.1999511719</ele>
        <time>2014-01-31T11:13:55.000Z</time>
      </trkpt>
      <trkpt lat="45.56314" lon="6.56364">
        <ele>2175.1999511719</ele>
        <time>2014-01-31T11:13:59.000Z</time>
      </trkpt>
      <trkpt lat="45.56314" lon="6.56364">
        <ele>2175.1999511719</ele>
        <time>2014-01-31T11:14:01.000Z</time>
      </trkpt>
      <trkpt lat="45.56314" lon="6.56364">
        <ele>2175.1999511719</ele>
        <time>2014-01-31T11:14:02.000Z</time>
      </trkpt>
      <trkpt lat="45.56314" lon="6.56364">
        <ele>2175.1999511719</ele>
        <time>2014-01-31T11:14:03.000Z</time>
      </trkpt>
      <trkpt lat="45.56314" lon="6.56364">
        <ele>2175.1999511719</ele>
        <time>2014-01-31T11:14:06.000Z</time>
      </trkpt>
      <trkpt lat="45.56314" lon="6.56364">
        <ele>2175.1999511719</ele>
        <time>2014-01-31T11:14:08.000Z</time>
      </trkpt>
      <trkpt lat="45.56314" lon="6.56364">
        <ele>2175.1999511719</ele>
        <time>2014-01-31T11:14:10.000Z</time>
      </trkpt>
      <trkpt lat="45.56314" lon="6.56364">
        <ele>2175.1999511719</ele>
        <time>2014-01-31T11:14:11.000Z</time>
      </trkpt>
      <trkpt lat="45.56314" lon="6.56364">
        <ele>2175.1999511719</ele>
        <time>2014-01-31T11:14:12.000Z</time>
      </trkpt>
      <trkpt lat="45.56314" lon="6.56364">
        <ele>2175.1999511719</ele>
        <time>2014-01-31T11:14:13.000Z</time>
      </trkpt>
      <trkpt lat="45.56314" lon="6.56364">
        <ele>2175.1999511719</ele>
        <time>2014-01-31T11:14:14.000Z</time>
      </trkpt>
      <trkpt lat="45.56314" lon="6.56364">
        <ele>2175.1999511719</ele>
        <time>2014-01-31T11:14:15.000Z</time>
      </trkpt>
      <trkpt lat="45.56314" lon="6.56364">
        <ele>2175.1999511719</ele>
        <time>2014-01-31T11:14:16.000Z</time>
      </trkpt>
      <trkpt lat="45.56314" lon="6.56364">
        <ele>2175.3999023438</ele>
        <time>2014-01-31T11:14:17.000Z</time>
      </trkpt>
      <trkpt lat="45.56314" lon="6.56364">
        <ele>2175.3999023438</ele>
        <time>2014-01-31T11:14:18.000Z</time>
      </trkpt>
      <trkpt lat="45.56314" lon="6.56364">
        <ele>2175.3999023438</ele>
        <time>2014-01-31T11:14:19.000Z</time>
      </trkpt>
      <trkpt lat="45.56314" lon="6.56364">
        <ele>2175.3999023438</ele>
        <time>2014-01-31T11:14:20.000Z</time>
      </trkpt>
      <trkpt lat="45.56314" lon="6.56364">
        <ele>2175.3999023438</ele>
        <time>2014-01-31T11:14:21.000Z</time>
      </trkpt>
      <trkpt lat="45.56314" lon="6.56364">
        <ele>2175.3999023438</ele>
        <time>2014-01-31T11:14:22.000Z</time>
      </trkpt>
      <trkpt lat="45.56314" lon="6.56364">
        <ele>2175.3999023438</ele>
        <time>2014-01-31T11:14:23.000Z</time>
      </trkpt>
      <trkpt lat="45.56314" lon="6.56364">
        <ele>2175.3999023438</ele>
        <time>2014-01-31T11:14:24.000Z</time>
      </trkpt>
      <trkpt lat="45.56314" lon="6.56364">
        <ele>2175.1999511719</ele>
        <time>2014-01-31T11:14:26.000Z</time>
      </trkpt>
      <trkpt lat="45.56314" lon="6.56364">
        <ele>2175.1999511719</ele>
        <time>2014-01-31T11:14:27.000Z</time>
      </trkpt>
      <trkpt lat="45.56314" lon="6.56364">
        <ele>2175.1999511719</ele>
        <time>2014-01-31T11:14:28.000Z</time>
      </trkpt>
      <trkpt lat="45.56314" lon="6.56364">
        <ele>2175.3999023438</ele>
        <time>2014-01-31T11:14:30.000Z</time>
      </trkpt>
      <trkpt lat="45.56314" lon="6.56364">
        <ele>2175.3999023438</ele>
        <time>2014-01-31T11:14:31.000Z</time>
      </trkpt>
      <trkpt lat="45.56314" lon="6.56364">
        <ele>2175.3999023438</ele>
        <time>2014-01-31T11:14:32.000Z</time>
      </trkpt>
      <trkpt lat="45.56314" lon="6.56364">
        <ele>2175.3999023438</ele>
        <time>2014-01-31T11:14:33.000Z</time>
      </trkpt>
      <trkpt lat="45.56314" lon="6.56364">
        <ele>2175.3999023438</ele>
        <time>2014-01-31T11:14:34.000Z</time>
      </trkpt>
      <trkpt lat="45.56314" lon="6.56364">
        <ele>2175.3999023438</ele>
        <time>2014-01-31T11:14:35.000Z</time>
      </trkpt>
      <trkpt lat="45.56314" lon="6.56364">
        <ele>2175.6000976562</ele>
        <time>2014-01-31T11:14:36.000Z</time>
      </trkpt>
      <trkpt lat="45.56314" lon="6.56364">
        <ele>2175.6000976562</ele>
        <time>2014-01-31T11:14:38.000Z</time>
      </trkpt>
      <trkpt lat="45.56314" lon="6.56364">
        <ele>2175.6000976562</ele>
        <time>2014-01-31T11:14:39.000Z</time>
      </trkpt>
      <trkpt lat="45.56314" lon="6.56364">
        <ele>2175.6000976562</ele>
        <time>2014-01-31T11:14:41.000Z</time>
      </trkpt>
      <trkpt lat="45.56314" lon="6.56364">
        <ele>2175.3999023438</ele>
        <time>2014-01-31T11:14:42.000Z</time>
      </trkpt>
      <trkpt lat="45.56314" lon="6.56364">
        <ele>2175.3999023438</ele>
        <time>2014-01-31T11:14:43.000Z</time>
      </trkpt>
      <trkpt lat="45.56314" lon="6.56364">
        <ele>2175.3999023438</ele>
        <time>2014-01-31T11:14:44.000Z</time>
      </trkpt>
      <trkpt lat="45.56314" lon="6.56364">
        <ele>2175.3999023438</ele>
        <time>2014-01-31T11:14:45.000Z</time>
      </trkpt>
      <trkpt lat="45.56314" lon="6.56364">
        <ele>2175.3999023438</ele>
        <time>2014-01-31T11:14:46.000Z</time>
      </trkpt>
      <trkpt lat="45.56314" lon="6.56364">
        <ele>2175.3999023438</ele>
        <time>2014-01-31T11:14:47.000Z</time>
      </trkpt>
      <trkpt lat="45.56314" lon="6.56364">
        <ele>2175.3999023438</ele>
        <time>2014-01-31T11:14:48.000Z</time>
      </trkpt>
      <trkpt lat="45.56314" lon="6.56364">
        <ele>2175.3999023438</ele>
        <time>2014-01-31T11:14:49.000Z</time>
      </trkpt>
      <trkpt lat="45.56314" lon="6.56364">
        <ele>2175.3999023438</ele>
        <time>2014-01-31T11:14:50.000Z</time>
      </trkpt>
      <trkpt lat="45.56314" lon="6.56364">
        <ele>2175.1999511719</ele>
        <time>2014-01-31T11:14:51.000Z</time>
      </trkpt>
      <trkpt lat="45.56314" lon="6.56364">
        <ele>2175.1999511719</ele>
        <time>2014-01-31T11:14:52.000Z</time>
      </trkpt>
      <trkpt lat="45.56314" lon="6.56364">
        <ele>2175</ele>
        <time>2014-01-31T11:14:53.000Z</time>
      </trkpt>
      <trkpt lat="45.56314" lon="6.56364">
        <ele>2174.8000488281</ele>
        <time>2014-01-31T11:14:54.000Z</time>
      </trkpt>
      <trkpt lat="45.56314" lon="6.56364">
        <ele>2174.8000488281</ele>
        <time>2014-01-31T11:14:55.000Z</time>
      </trkpt>
      <trkpt lat="45.56314" lon="6.56364">
        <ele>2174.6000976562</ele>
        <time>2014-01-31T11:14:56.000Z</time>
      </trkpt>
      <trkpt lat="45.56314" lon="6.56364">
        <ele>2174.6000976562</ele>
        <time>2014-01-31T11:14:57.000Z</time>
      </trkpt>
      <trkpt lat="45.56314" lon="6.56364">
        <ele>2174.6000976562</ele>
        <time>2014-01-31T11:14:58.000Z</time>
      </trkpt>
      <trkpt lat="45.56314" lon="6.56364">
        <ele>2174.6000976562</ele>
        <time>2014-01-31T11:14:59.000Z</time>
      </trkpt>
      <trkpt lat="45.56314" lon="6.56364">
        <ele>2174.6000976562</ele>
        <time>2014-01-31T11:15:00.000Z</time>
      </trkpt>
      <trkpt lat="45.56314" lon="6.56364">
        <ele>2174.8000488281</ele>
        <time>2014-01-31T11:15:01.000Z</time>
      </trkpt>
      <trkpt lat="45.56314" lon="6.56364">
        <ele>2174.8000488281</ele>
        <time>2014-01-31T11:15:02.000Z</time>
      </trkpt>
      <trkpt lat="45.56314" lon="6.56364">
        <ele>2174.8000488281</ele>
        <time>2014-01-31T11:15:03.000Z</time>
      </trkpt>
      <trkpt lat="45.56314" lon="6.56364">
        <ele>2174.8000488281</ele>
        <time>2014-01-31T11:15:04.000Z</time>
      </trkpt>
      <trkpt lat="45.56314" lon="6.56364">
        <ele>2174.8000488281</ele>
        <time>2014-01-31T11:15:06.000Z</time>
      </trkpt>
      <trkpt lat="45.56314" lon="6.56364">
        <ele>2174.8000488281</ele>
        <time>2014-01-31T11:15:07.000Z</time>
      </trkpt>
      <trkpt lat="45.56314" lon="6.56364">
        <ele>2174.8000488281</ele>
        <time>2014-01-31T11:15:08.000Z</time>
      </trkpt>
      <trkpt lat="45.56314" lon="6.56364">
        <ele>2174.8000488281</ele>
        <time>2014-01-31T11:15:09.000Z</time>
      </trkpt>
      <trkpt lat="45.56314" lon="6.56364">
        <ele>2174.8000488281</ele>
        <time>2014-01-31T11:15:11.000Z</time>
      </trkpt>
      <trkpt lat="45.56314" lon="6.56364">
        <ele>2174.8000488281</ele>
        <time>2014-01-31T11:15:12.000Z</time>
      </trkpt>
      <trkpt lat="45.56314" lon="6.56364">
        <ele>2174.8000488281</ele>
        <time>2014-01-31T11:15:13.000Z</time>
      </trkpt>
      <trkpt lat="45.56314" lon="6.56364">
        <ele>2174.8000488281</ele>
        <time>2014-01-31T11:15:14.000Z</time>
      </trkpt>
      <trkpt lat="45.56314" lon="6.56364">
        <ele>2174.8000488281</ele>
        <time>2014-01-31T11:15:18.000Z</time>
      </trkpt>
      <trkpt lat="45.56314" lon="6.56364">
        <ele>2174.8000488281</ele>
        <time>2014-01-31T11:15:19.000Z</time>
      </trkpt>
      <trkpt lat="45.56314" lon="6.56364">
        <ele>2174.8000488281</ele>
        <time>2014-01-31T11:15:20.000Z</time>
      </trkpt>
      <trkpt lat="45.56314" lon="6.56364">
        <ele>2174.8000488281</ele>
        <time>2014-01-31T11:15:21.000Z</time>
      </trkpt>
      <trkpt lat="45.56314" lon="6.56364">
        <ele>2174.8000488281</ele>
        <time>2014-01-31T11:15:27.000Z</time>
      </trkpt>
      <trkpt lat="45.56314" lon="6.56364">
        <ele>2174.8000488281</ele>
        <time>2014-01-31T11:15:28.000Z</time>
      </trkpt>
      <trkpt lat="45.56314" lon="6.56364">
        <ele>2174.8000488281</ele>
        <time>2014-01-31T11:15:29.000Z</time>
      </trkpt>
      <trkpt lat="45.56314" lon="6.56364">
        <ele>2174.8000488281</ele>
        <time>2014-01-31T11:15:30.000Z</time>
      </trkpt>
      <trkpt lat="45.56314" lon="6.56364">
        <ele>2174.8000488281</ele>
        <time>2014-01-31T11:15:33.000Z</time>
      </trkpt>
      <trkpt lat="45.56314" lon="6.56364">
        <ele>2174.8000488281</ele>
        <time>2014-01-31T11:15:34.000Z</time>
      </trkpt>
      <trkpt lat="45.56314" lon="6.56364">
        <ele>2175</ele>
        <time>2014-01-31T11:15:35.000Z</time>
      </trkpt>
      <trkpt lat="45.56314" lon="6.56364">
        <ele>2175</ele>
        <time>2014-01-31T11:15:37.000Z</time>
      </trkpt>
      <trkpt lat="45.56314" lon="6.56364">
        <ele>2174.8000488281</ele>
        <time>2014-01-31T11:15:38.000Z</time>
      </trkpt>
      <trkpt lat="45.56314" lon="6.56364">
        <ele>2174.8000488281</ele>
        <time>2014-01-31T11:15:39.000Z</time>
      </trkpt>
      <trkpt lat="45.56314" lon="6.56364">
        <ele>2174.8000488281</ele>
        <time>2014-01-31T11:15:40.000Z</time>
      </trkpt>
      <trkpt lat="45.56314" lon="6.56364">
        <ele>2174.6000976562</ele>
        <time>2014-01-31T11:15:41.000Z</time>
      </trkpt>
      <trkpt lat="45.56314" lon="6.56364">
        <ele>2174.6000976562</ele>
        <time>2014-01-31T11:15:42.000Z</time>
      </trkpt>
      <trkpt lat="45.56314" lon="6.56364">
        <ele>2174.6000976562</ele>
        <time>2014-01-31T11:15:43.000Z</time>
      </trkpt>
      <trkpt lat="45.56314" lon="6.56364">
        <ele>2174.6000976562</ele>
        <time>2014-01-31T11:15:44.000Z</time>
      </trkpt>
      <trkpt lat="45.56314" lon="6.56364">
        <ele>2174.8000488281</ele>
        <time>2014-01-31T11:15:45.000Z</time>
      </trkpt>
      <trkpt lat="45.56314" lon="6.56364">
        <ele>2174.8000488281</ele>
        <time>2014-01-31T11:15:46.000Z</time>
      </trkpt>
      <trkpt lat="45.56314" lon="6.56364">
        <ele>2174.8000488281</ele>
        <time>2014-01-31T11:15:47.000Z</time>
      </trkpt>
      <trkpt lat="45.56314" lon="6.56364">
        <ele>2174.8000488281</ele>
        <time>2014-01-31T11:15:48.000Z</time>
      </trkpt>
      <trkpt lat="45.56314" lon="6.56364">
        <ele>2174.8000488281</ele>
        <time>2014-01-31T11:15:49.000Z</time>
      </trkpt>
      <trkpt lat="45.56314" lon="6.56364">
        <ele>2174.6000976562</ele>
        <time>2014-01-31T11:15:50.000Z</time>
      </trkpt>
      <trkpt lat="45.56314" lon="6.56364">
        <ele>2174.6000976562</ele>
        <time>2014-01-31T11:15:51.000Z</time>
      </trkpt>
      <trkpt lat="45.56314" lon="6.56364">
        <ele>2174.6000976562</ele>
        <time>2014-01-31T11:15:52.000Z</time>
      </trkpt>
      <trkpt lat="45.56314" lon="6.56364">
        <ele>2174.6000976562</ele>
        <time>2014-01-31T11:15:53.000Z</time>
      </trkpt>
      <trkpt lat="45.56314" lon="6.56364">
        <ele>2174.6000976562</ele>
        <time>2014-01-31T11:15:55.000Z</time>
      </trkpt>
      <trkpt lat="45.56314" lon="6.56364">
        <ele>2174.6000976562</ele>
        <time>2014-01-31T11:15:56.000Z</time>
      </trkpt>
      <trkpt lat="45.56314" lon="6.56364">
        <ele>2174.6000976562</ele>
        <time>2014-01-31T11:15:57.000Z</time>
      </trkpt>
      <trkpt lat="45.56314" lon="6.56364">
        <ele>2174.6000976562</ele>
        <time>2014-01-31T11:15:59.000Z</time>
      </trkpt>
      <trkpt lat="45.56314" lon="6.56364">
        <ele>2174.6000976562</ele>
        <time>2014-01-31T11:16:00.000Z</time>
      </trkpt>
      <trkpt lat="45.56314" lon="6.56364">
        <ele>2174.6000976562</ele>
        <time>2014-01-31T11:16:02.000Z</time>
      </trkpt>
      <trkpt lat="45.56314" lon="6.56364">
        <ele>2174.6000976562</ele>
        <time>2014-01-31T11:16:03.000Z</time>
      </trkpt>
      <trkpt lat="45.56314" lon="6.56364">
        <ele>2174.6000976562</ele>
        <time>2014-01-31T11:16:04.000Z</time>
      </trkpt>
      <trkpt lat="45.56314" lon="6.56364">
        <ele>2174.8000488281</ele>
        <time>2014-01-31T11:16:05.000Z</time>
      </trkpt>
      <trkpt lat="45.56314" lon="6.56364">
        <ele>2174.6000976562</ele>
        <time>2014-01-31T11:16:06.000Z</time>
      </trkpt>
      <trkpt lat="45.56314" lon="6.56364">
        <ele>2174.6000976562</ele>
        <time>2014-01-31T11:16:08.000Z</time>
      </trkpt>
      <trkpt lat="45.56314" lon="6.56364">
        <ele>2174.6000976562</ele>
        <time>2014-01-31T11:16:09.000Z</time>
      </trkpt>
      <trkpt lat="45.56314" lon="6.56364">
        <ele>2174.6000976562</ele>
        <time>2014-01-31T11:16:10.000Z</time>
      </trkpt>
      <trkpt lat="45.56314" lon="6.56364">
        <ele>2174.6000976562</ele>
        <time>2014-01-31T11:16:11.000Z</time>
      </trkpt>
      <trkpt lat="45.56314" lon="6.56364">
        <ele>2174.6000976562</ele>
        <time>2014-01-31T11:16:12.000Z</time>
      </trkpt>
      <trkpt lat="45.56314" lon="6.56364">
        <ele>2174.6000976562</ele>
        <time>2014-01-31T11:16:13.000Z</time>
      </trkpt>
      <trkpt lat="45.56314" lon="6.56364">
        <ele>2174.6000976562</ele>
        <time>2014-01-31T11:16:14.000Z</time>
      </trkpt>
      <trkpt lat="45.56314" lon="6.56364">
        <ele>2174.6000976562</ele>
        <time>2014-01-31T11:16:15.000Z</time>
      </trkpt>
      <trkpt lat="45.56314" lon="6.56364">
        <ele>2174.6000976562</ele>
        <time>2014-01-31T11:16:16.000Z</time>
      </trkpt>
      <trkpt lat="45.56314" lon="6.56364">
        <ele>2174.3999023438</ele>
        <time>2014-01-31T11:16:17.000Z</time>
      </trkpt>
      <trkpt lat="45.56314" lon="6.56364">
        <ele>2174.3999023438</ele>
        <time>2014-01-31T11:16:19.000Z</time>
      </trkpt>
      <trkpt lat="45.56314" lon="6.56364">
        <ele>2174.3999023438</ele>
        <time>2014-01-31T11:16:20.000Z</time>
      </trkpt>
      <trkpt lat="45.56314" lon="6.56364">
        <ele>2174.3999023438</ele>
        <time>2014-01-31T11:16:21.000Z</time>
      </trkpt>
      <trkpt lat="45.56314" lon="6.56364">
        <ele>2174.6000976562</ele>
        <time>2014-01-31T11:16:22.000Z</time>
      </trkpt>
      <trkpt lat="45.56314" lon="6.56364">
        <ele>2174.6000976562</ele>
        <time>2014-01-31T11:16:23.000Z</time>
      </trkpt>
      <trkpt lat="45.56314" lon="6.56364">
        <ele>2174.6000976562</ele>
        <time>2014-01-31T11:16:24.000Z</time>
      </trkpt>
      <trkpt lat="45.56314" lon="6.56364">
        <ele>2174.6000976562</ele>
        <time>2014-01-31T11:16:25.000Z</time>
      </trkpt>
      <trkpt lat="45.56314" lon="6.56364">
        <ele>2174.6000976562</ele>
        <time>2014-01-31T11:16:26.000Z</time>
      </trkpt>
      <trkpt lat="45.56314" lon="6.56364">
        <ele>2174.6000976562</ele>
        <time>2014-01-31T11:16:27.000Z</time>
      </trkpt>
      <trkpt lat="45.56314" lon="6.56364">
        <ele>2174.6000976562</ele>
        <time>2014-01-31T11:16:28.000Z</time>
      </trkpt>
      <trkpt lat="45.56314" lon="6.56364">
        <ele>2174.6000976562</ele>
        <time>2014-01-31T11:16:29.000Z</time>
      </trkpt>
      <trkpt lat="45.56314" lon="6.56364">
        <ele>2174.6000976562</ele>
        <time>2014-01-31T11:16:30.000Z</time>
      </trkpt>
      <trkpt lat="45.56314" lon="6.56364">
        <ele>2174.6000976562</ele>
        <time>2014-01-31T11:16:31.000Z</time>
      </trkpt>
      <trkpt lat="45.56314" lon="6.56364">
        <ele>2174.6000976562</ele>
        <time>2014-01-31T11:16:32.000Z</time>
      </trkpt>
      <trkpt lat="45.56314" lon="6.56364">
        <ele>2174.6000976562</ele>
        <time>2014-01-31T11:16:34.000Z</time>
      </trkpt>
      <trkpt lat="45.56314" lon="6.56364">
        <ele>2174.6000976562</ele>
        <time>2014-01-31T11:16:35.000Z</time>
      </trkpt>
      <trkpt lat="45.56314" lon="6.56364">
        <ele>2174.6000976562</ele>
        <time>2014-01-31T11:16:36.000Z</time>
      </trkpt>
      <trkpt lat="45.56314" lon="6.56364">
        <ele>2174.6000976562</ele>
        <time>2014-01-31T11:16:37.000Z</time>
      </trkpt>
      <trkpt lat="45.56314" lon="6.56364">
        <ele>2174.6000976562</ele>
        <time>2014-01-31T11:16:38.000Z</time>
      </trkpt>
      <trkpt lat="45.56314" lon="6.56364">
        <ele>2174.6000976562</ele>
        <time>2014-01-31T11:16:41.000Z</time>
      </trkpt>
      <trkpt lat="45.56314" lon="6.56364">
        <ele>2174.6000976562</ele>
        <time>2014-01-31T11:16:42.000Z</time>
      </trkpt>
      <trkpt lat="45.56314" lon="6.56364">
        <ele>2174.6000976562</ele>
        <time>2014-01-31T11:16:43.000Z</time>
      </trkpt>
      <trkpt lat="45.56314" lon="6.56364">
        <ele>2174.6000976562</ele>
        <time>2014-01-31T11:16:44.000Z</time>
      </trkpt>
      <trkpt lat="45.56314" lon="6.56364">
        <ele>2174.6000976562</ele>
        <time>2014-01-31T11:16:45.000Z</time>
      </trkpt>
      <trkpt lat="45.56314" lon="6.56364">
        <ele>2174.3999023438</ele>
        <time>2014-01-31T11:16:46.000Z</time>
      </trkpt>
      <trkpt lat="45.56314" lon="6.56364">
        <ele>2174.3999023438</ele>
        <time>2014-01-31T11:16:47.000Z</time>
      </trkpt>
      <trkpt lat="45.56314" lon="6.56364">
        <ele>2174.3999023438</ele>
        <time>2014-01-31T11:16:48.000Z</time>
      </trkpt>
      <trkpt lat="45.56314" lon="6.56364">
        <ele>2174.3999023438</ele>
        <time>2014-01-31T11:16:49.000Z</time>
      </trkpt>
      <trkpt lat="45.56314" lon="6.56364">
        <ele>2174.6000976562</ele>
        <time>2014-01-31T11:16:50.000Z</time>
      </trkpt>
      <trkpt lat="45.56314" lon="6.56364">
        <ele>2174.6000976562</ele>
        <time>2014-01-31T11:16:51.000Z</time>
      </trkpt>
      <trkpt lat="45.56314" lon="6.56364">
        <ele>2174.6000976562</ele>
        <time>2014-01-31T11:16:52.000Z</time>
      </trkpt>
      <trkpt lat="45.56314" lon="6.56364">
        <ele>2174.6000976562</ele>
        <time>2014-01-31T11:16:54.000Z</time>
      </trkpt>
      <trkpt lat="45.56314" lon="6.56364">
        <ele>2174.3999023438</ele>
        <time>2014-01-31T11:16:55.000Z</time>
      </trkpt>
      <trkpt lat="45.56314" lon="6.56364">
        <ele>2174.3999023438</ele>
        <time>2014-01-31T11:16:56.000Z</time>
      </trkpt>
      <trkpt lat="45.56314" lon="6.56364">
        <ele>2174.3999023438</ele>
        <time>2014-01-31T11:16:57.000Z</time>
      </trkpt>
      <trkpt lat="45.56314" lon="6.56364">
        <ele>2174.3999023438</ele>
        <time>2014-01-31T11:16:59.000Z</time>
      </trkpt>
      <trkpt lat="45.56314" lon="6.56364">
        <ele>2174.3999023438</ele>
        <time>2014-01-31T11:17:00.000Z</time>
      </trkpt>
      <trkpt lat="45.56314" lon="6.56364">
        <ele>2174.3999023438</ele>
        <time>2014-01-31T11:17:02.000Z</time>
      </trkpt>
      <trkpt lat="45.56314" lon="6.56364">
        <ele>2174.3999023438</ele>
        <time>2014-01-31T11:17:03.000Z</time>
      </trkpt>
      <trkpt lat="45.56314" lon="6.56364">
        <ele>2174.3999023438</ele>
        <time>2014-01-31T11:17:05.000Z</time>
      </trkpt>
      <trkpt lat="45.56314" lon="6.56364">
        <ele>2174.3999023438</ele>
        <time>2014-01-31T11:17:06.000Z</time>
      </trkpt>
      <trkpt lat="45.56314" lon="6.56364">
        <ele>2174.6000976562</ele>
        <time>2014-01-31T11:17:07.000Z</time>
      </trkpt>
      <trkpt lat="45.56314" lon="6.56364">
        <ele>2174.6000976562</ele>
        <time>2014-01-31T11:17:08.000Z</time>
      </trkpt>
      <trkpt lat="45.56314" lon="6.56364">
        <ele>2174.6000976562</ele>
        <time>2014-01-31T11:17:09.000Z</time>
      </trkpt>
      <trkpt lat="45.56314" lon="6.56364">
        <ele>2174.6000976562</ele>
        <time>2014-01-31T11:17:10.000Z</time>
      </trkpt>
      <trkpt lat="45.56314" lon="6.56364">
        <ele>2174.6000976562</ele>
        <time>2014-01-31T11:17:11.000Z</time>
      </trkpt>
      <trkpt lat="45.56314" lon="6.56364">
        <ele>2174.6000976562</ele>
        <time>2014-01-31T11:17:12.000Z</time>
      </trkpt>
      <trkpt lat="45.56314" lon="6.56364">
        <ele>2174.6000976562</ele>
        <time>2014-01-31T11:17:14.000Z</time>
      </trkpt>
      <trkpt lat="45.56314" lon="6.56364">
        <ele>2174.6000976562</ele>
        <time>2014-01-31T11:17:15.000Z</time>
      </trkpt>
      <trkpt lat="45.56314" lon="6.56364">
        <ele>2174.6000976562</ele>
        <time>2014-01-31T11:17:16.000Z</time>
      </trkpt>
      <trkpt lat="45.56314" lon="6.56364">
        <ele>2174.3999023438</ele>
        <time>2014-01-31T11:17:17.000Z</time>
      </trkpt>
      <trkpt lat="45.56314" lon="6.56364">
        <ele>2174.3999023438</ele>
        <time>2014-01-31T11:17:18.000Z</time>
      </trkpt>
      <trkpt lat="45.56314" lon="6.56364">
        <ele>2174.3999023438</ele>
        <time>2014-01-31T11:17:19.000Z</time>
      </trkpt>
      <trkpt lat="45.56314" lon="6.56364">
        <ele>2174.3999023438</ele>
        <time>2014-01-31T11:17:20.000Z</time>
      </trkpt>
      <trkpt lat="45.56314" lon="6.56364">
        <ele>2174.1999511719</ele>
        <time>2014-01-31T11:17:21.000Z</time>
      </trkpt>
      <trkpt lat="45.56314" lon="6.56364">
        <ele>2174.1999511719</ele>
        <time>2014-01-31T11:17:22.000Z</time>
      </trkpt>
      <trkpt lat="45.56314" lon="6.56364">
        <ele>2174.3999023438</ele>
        <time>2014-01-31T11:17:23.000Z</time>
      </trkpt>
      <trkpt lat="45.56314" lon="6.56364">
        <ele>2174.3999023438</ele>
        <time>2014-01-31T11:17:24.000Z</time>
      </trkpt>
      <trkpt lat="45.56314" lon="6.56364">
        <ele>2174.6000976562</ele>
        <time>2014-01-31T11:17:25.000Z</time>
      </trkpt>
      <trkpt lat="45.56314" lon="6.56364">
        <ele>2174.6000976562</ele>
        <time>2014-01-31T11:17:26.000Z</time>
      </trkpt>
      <trkpt lat="45.56314" lon="6.56364">
        <ele>2174.6000976562</ele>
        <time>2014-01-31T11:17:27.000Z</time>
      </trkpt>
      <trkpt lat="45.56314" lon="6.56364">
        <ele>2174.6000976562</ele>
        <time>2014-01-31T11:17:28.000Z</time>
      </trkpt>
      <trkpt lat="45.56314" lon="6.56364">
        <ele>2174.6000976562</ele>
        <time>2014-01-31T11:17:29.000Z</time>
      </trkpt>
      <trkpt lat="45.56314" lon="6.56364">
        <ele>2174.6000976562</ele>
        <time>2014-01-31T11:17:30.000Z</time>
      </trkpt>
      <trkpt lat="45.56314" lon="6.56364">
        <ele>2174.3999023438</ele>
        <time>2014-01-31T11:17:31.000Z</time>
      </trkpt>
      <trkpt lat="45.56314" lon="6.56364">
        <ele>2174.3999023438</ele>
        <time>2014-01-31T11:17:32.000Z</time>
      </trkpt>
      <trkpt lat="45.56314" lon="6.56364">
        <ele>2174.3999023438</ele>
        <time>2014-01-31T11:17:33.000Z</time>
      </trkpt>
      <trkpt lat="45.56314" lon="6.56364">
        <ele>2174.6000976562</ele>
        <time>2014-01-31T11:17:34.000Z</time>
      </trkpt>
      <trkpt lat="45.56314" lon="6.56364">
        <ele>2174.6000976562</ele>
        <time>2014-01-31T11:17:35.000Z</time>
      </trkpt>
      <trkpt lat="45.56314" lon="6.56364">
        <ele>2174.6000976562</ele>
        <time>2014-01-31T11:17:36.000Z</time>
      </trkpt>
      <trkpt lat="45.56314" lon="6.56364">
        <ele>2174.6000976562</ele>
        <time>2014-01-31T11:17:37.000Z</time>
      </trkpt>
      <trkpt lat="45.56314" lon="6.56364">
        <ele>2174.6000976562</ele>
        <time>2014-01-31T11:17:38.000Z</time>
      </trkpt>
      <trkpt lat="45.56314" lon="6.56364">
        <ele>2174.3999023438</ele>
        <time>2014-01-31T11:17:39.000Z</time>
      </trkpt>
      <trkpt lat="45.56314" lon="6.56364">
        <ele>2174.3999023438</ele>
        <time>2014-01-31T11:17:40.000Z</time>
      </trkpt>
      <trkpt lat="45.56314" lon="6.56364">
        <ele>2174.3999023438</ele>
        <time>2014-01-31T11:17:42.000Z</time>
      </trkpt>
      <trkpt lat="45.56314" lon="6.56364">
        <ele>2174.3999023438</ele>
        <time>2014-01-31T11:17:43.000Z</time>
      </trkpt>
      <trkpt lat="45.56314" lon="6.56364">
        <ele>2174.6000976562</ele>
        <time>2014-01-31T11:17:46.000Z</time>
      </trkpt>
      <trkpt lat="45.56314" lon="6.56364">
        <ele>2174.3999023438</ele>
        <time>2014-01-31T11:17:48.000Z</time>
      </trkpt>
      <trkpt lat="45.56314" lon="6.56364">
        <ele>2174.3999023438</ele>
        <time>2014-01-31T11:17:49.000Z</time>
      </trkpt>
      <trkpt lat="45.56314" lon="6.56364">
        <ele>2174.3999023438</ele>
        <time>2014-01-31T11:17:50.000Z</time>
      </trkpt>
      <trkpt lat="45.56314" lon="6.56364">
        <ele>2174.3999023438</ele>
        <time>2014-01-31T11:17:51.000Z</time>
      </trkpt>
      <trkpt lat="45.56314" lon="6.56364">
        <ele>2174.3999023438</ele>
        <time>2014-01-31T11:17:52.000Z</time>
      </trkpt>
      <trkpt lat="45.56314" lon="6.56364">
        <ele>2174.3999023438</ele>
        <time>2014-01-31T11:17:53.000Z</time>
      </trkpt>
      <trkpt lat="45.56314" lon="6.56364">
        <ele>2174.6000976562</ele>
        <time>2014-01-31T11:17:54.000Z</time>
      </trkpt>
      <trkpt lat="45.56314" lon="6.56364">
        <ele>2174.6000976562</ele>
        <time>2014-01-31T11:17:55.000Z</time>
      </trkpt>
      <trkpt lat="45.56314" lon="6.56364">
        <ele>2174.6000976562</ele>
        <time>2014-01-31T11:17:56.000Z</time>
      </trkpt>
      <trkpt lat="45.56314" lon="6.56364">
        <ele>2174.6000976562</ele>
        <time>2014-01-31T11:17:57.000Z</time>
      </trkpt>
      <trkpt lat="45.56314" lon="6.56364">
        <ele>2174.6000976562</ele>
        <time>2014-01-31T11:17:59.000Z</time>
      </trkpt>
      <trkpt lat="45.56314" lon="6.56364">
        <ele>2174.6000976562</ele>
        <time>2014-01-31T11:18:00.000Z</time>
      </trkpt>
      <trkpt lat="45.56314" lon="6.56364">
        <ele>2174.6000976562</ele>
        <time>2014-01-31T11:18:01.000Z</time>
      </trkpt>
      <trkpt lat="45.56314" lon="6.56364">
        <ele>2174.6000976562</ele>
        <time>2014-01-31T11:18:02.000Z</time>
      </trkpt>
      <trkpt lat="45.56314" lon="6.56364">
        <ele>2174.6000976562</ele>
        <time>2014-01-31T11:18:03.000Z</time>
      </trkpt>
      <trkpt lat="45.56314" lon="6.56364">
        <ele>2174.6000976562</ele>
        <time>2014-01-31T11:18:04.000Z</time>
      </trkpt>
      <trkpt lat="45.56314" lon="6.56364">
        <ele>2174.6000976562</ele>
        <time>2014-01-31T11:18:05.000Z</time>
      </trkpt>
      <trkpt lat="45.56314" lon="6.56364">
        <ele>2174.6000976562</ele>
        <time>2014-01-31T11:18:06.000Z</time>
      </trkpt>
      <trkpt lat="45.56314" lon="6.56364">
        <ele>2174.6000976562</ele>
        <time>2014-01-31T11:18:07.000Z</time>
      </trkpt>
      <trkpt lat="45.56314" lon="6.56364">
        <ele>2174.6000976562</ele>
        <time>2014-01-31T11:18:08.000Z</time>
      </trkpt>
      <trkpt lat="45.56314" lon="6.56364">
        <ele>2174.6000976562</ele>
        <time>2014-01-31T11:18:09.000Z</time>
      </trkpt>
      <trkpt lat="45.56314" lon="6.56364">
        <ele>2174.6000976562</ele>
        <time>2014-01-31T11:18:10.000Z</time>
      </trkpt>
      <trkpt lat="45.56314" lon="6.56364">
        <ele>2174.6000976562</ele>
        <time>2014-01-31T11:18:11.000Z</time>
      </trkpt>
      <trkpt lat="45.56314" lon="6.56364">
        <ele>2174.6000976562</ele>
        <time>2014-01-31T11:18:12.000Z</time>
      </trkpt>
      <trkpt lat="45.56314" lon="6.56364">
        <ele>2174.6000976562</ele>
        <time>2014-01-31T11:18:15.000Z</time>
      </trkpt>
      <trkpt lat="45.56314" lon="6.56364">
        <ele>2174.6000976562</ele>
        <time>2014-01-31T11:18:16.000Z</time>
      </trkpt>
      <trkpt lat="45.56314" lon="6.56364">
        <ele>2174.6000976562</ele>
        <time>2014-01-31T11:18:17.000Z</time>
      </trkpt>
      <trkpt lat="45.56314" lon="6.56364">
        <ele>2174.6000976562</ele>
        <time>2014-01-31T11:18:18.000Z</time>
      </trkpt>
      <trkpt lat="45.56314" lon="6.56364">
        <ele>2174.6000976562</ele>
        <time>2014-01-31T11:18:20.000Z</time>
      </trkpt>
      <trkpt lat="45.56314" lon="6.56364">
        <ele>2174.6000976562</ele>
        <time>2014-01-31T11:18:21.000Z</time>
      </trkpt>
      <trkpt lat="45.56314" lon="6.56364">
        <ele>2174.3999023438</ele>
        <time>2014-01-31T11:18:22.000Z</time>
      </trkpt>
      <trkpt lat="45.56314" lon="6.56364">
        <ele>2174.3999023438</ele>
        <time>2014-01-31T11:18:23.000Z</time>
      </trkpt>
      <trkpt lat="45.56314" lon="6.56364">
        <ele>2174.3999023438</ele>
        <time>2014-01-31T11:18:24.000Z</time>
      </trkpt>
      <trkpt lat="45.56314" lon="6.56364">
        <ele>2174.8000488281</ele>
        <time>2014-01-31T11:18:25.000Z</time>
      </trkpt>
      <trkpt lat="45.56314" lon="6.56364">
        <ele>2174.8000488281</ele>
        <time>2014-01-31T11:18:26.000Z</time>
      </trkpt>
      <trkpt lat="45.56314" lon="6.56364">
        <ele>2175</ele>
        <time>2014-01-31T11:18:27.000Z</time>
      </trkpt>
      <trkpt lat="45.56314" lon="6.56364">
        <ele>2175</ele>
        <time>2014-01-31T11:18:28.000Z</time>
      </trkpt>
      <trkpt lat="45.56314" lon="6.56364">
        <ele>2174.8000488281</ele>
        <time>2014-01-31T11:18:29.000Z</time>
      </trkpt>
      <trkpt lat="45.56314" lon="6.56364">
        <ele>2174.8000488281</ele>
        <time>2014-01-31T11:18:30.000Z</time>
      </trkpt>
      <trkpt lat="45.56314" lon="6.56364">
        <ele>2174.6000976562</ele>
        <time>2014-01-31T11:18:31.000Z</time>
      </trkpt>
      <trkpt lat="45.56314" lon="6.56364">
        <ele>2174.6000976562</ele>
        <time>2014-01-31T11:18:32.000Z</time>
      </trkpt>
      <trkpt lat="45.56314" lon="6.56364">
        <ele>2174.3999023438</ele>
        <time>2014-01-31T11:18:33.000Z</time>
      </trkpt>
      <trkpt lat="45.56314" lon="6.56364">
        <ele>2174.3999023438</ele>
        <time>2014-01-31T11:18:34.000Z</time>
      </trkpt>
      <trkpt lat="45.56314" lon="6.56364">
        <ele>2174.3999023438</ele>
        <time>2014-01-31T11:18:35.000Z</time>
      </trkpt>
      <trkpt lat="45.56314" lon="6.56364">
        <ele>2174.3999023438</ele>
        <time>2014-01-31T11:18:36.000Z</time>
      </trkpt>
      <trkpt lat="45.56314" lon="6.56364">
        <ele>2174.6000976562</ele>
        <time>2014-01-31T11:18:37.000Z</time>
      </trkpt>
      <trkpt lat="45.56314" lon="6.56364">
        <ele>2174.6000976562</ele>
        <time>2014-01-31T11:18:38.000Z</time>
      </trkpt>
      <trkpt lat="45.56314" lon="6.56364">
        <ele>2174.8000488281</ele>
        <time>2014-01-31T11:18:39.000Z</time>
      </trkpt>
      <trkpt lat="45.56314" lon="6.56364">
        <ele>2174.8000488281</ele>
        <time>2014-01-31T11:18:40.000Z</time>
      </trkpt>
      <trkpt lat="45.56314" lon="6.56364">
        <ele>2174.8000488281</ele>
        <time>2014-01-31T11:18:41.000Z</time>
      </trkpt>
      <trkpt lat="45.56314" lon="6.56364">
        <ele>2174.8000488281</ele>
        <time>2014-01-31T11:18:42.000Z</time>
      </trkpt>
      <trkpt lat="45.56314" lon="6.56364">
        <ele>2174.8000488281</ele>
        <time>2014-01-31T11:18:43.000Z</time>
      </trkpt>
      <trkpt lat="45.56314" lon="6.56364">
        <ele>2174.6000976562</ele>
        <time>2014-01-31T11:18:44.000Z</time>
      </trkpt>
      <trkpt lat="45.56314" lon="6.56364">
        <ele>2174.6000976562</ele>
        <time>2014-01-31T11:18:45.000Z</time>
      </trkpt>
      <trkpt lat="45.56314" lon="6.56364">
        <ele>2174.6000976562</ele>
        <time>2014-01-31T11:18:46.000Z</time>
      </trkpt>
      <trkpt lat="45.56314" lon="6.56364">
        <ele>2174.6000976562</ele>
        <time>2014-01-31T11:18:47.000Z</time>
      </trkpt>
      <trkpt lat="45.56314" lon="6.56364">
        <ele>2174.6000976562</ele>
        <time>2014-01-31T11:18:48.000Z</time>
      </trkpt>
      <trkpt lat="45.56314" lon="6.56364">
        <ele>2174.6000976562</ele>
        <time>2014-01-31T11:18:49.000Z</time>
      </trkpt>
      <trkpt lat="45.56314" lon="6.56364">
        <ele>2174.6000976562</ele>
        <time>2014-01-31T11:18:50.000Z</time>
      </trkpt>
      <trkpt lat="45.56314" lon="6.56364">
        <ele>2174.6000976562</ele>
        <time>2014-01-31T11:18:51.000Z</time>
      </trkpt>
      <trkpt lat="45.56314" lon="6.56364">
        <ele>2174.8000488281</ele>
        <time>2014-01-31T11:18:52.000Z</time>
      </trkpt>
      <trkpt lat="45.56314" lon="6.56364">
        <ele>2174.8000488281</ele>
        <time>2014-01-31T11:18:53.000Z</time>
      </trkpt>
      <trkpt lat="45.56314" lon="6.56364">
        <ele>2175</ele>
        <time>2014-01-31T11:18:54.000Z</time>
      </trkpt>
      <trkpt lat="45.56314" lon="6.56364">
        <ele>2175</ele>
        <time>2014-01-31T11:18:55.000Z</time>
      </trkpt>
      <trkpt lat="45.56314" lon="6.56364">
        <ele>2175</ele>
        <time>2014-01-31T11:18:56.000Z</time>
      </trkpt>
      <trkpt lat="45.56314" lon="6.56364">
        <ele>2175</ele>
        <time>2014-01-31T11:18:58.000Z</time>
      </trkpt>
      <trkpt lat="45.56314" lon="6.56364">
        <ele>2175</ele>
        <time>2014-01-31T11:18:59.000Z</time>
      </trkpt>
      <trkpt lat="45.56314" lon="6.56364">
        <ele>2175</ele>
        <time>2014-01-31T11:19:00.000Z</time>
      </trkpt>
      <trkpt lat="45.56314" lon="6.56364">
        <ele>2174.8000488281</ele>
        <time>2014-01-31T11:19:01.000Z</time>
      </trkpt>
      <trkpt lat="45.56314" lon="6.56364">
        <ele>2174.8000488281</ele>
        <time>2014-01-31T11:19:02.000Z</time>
      </trkpt>
      <trkpt lat="45.56314" lon="6.56364">
        <ele>2174.8000488281</ele>
        <time>2014-01-31T11:19:03.000Z</time>
      </trkpt>
      <trkpt lat="45.56314" lon="6.56364">
        <ele>2174.6000976562</ele>
        <time>2014-01-31T11:19:04.000Z</time>
      </trkpt>
      <trkpt lat="45.56314" lon="6.56364">
        <ele>2174.6000976562</ele>
        <time>2014-01-31T11:19:05.000Z</time>
      </trkpt>
      <trkpt lat="45.56314" lon="6.56364">
        <ele>2174.6000976562</ele>
        <time>2014-01-31T11:19:06.000Z</time>
      </trkpt>
      <trkpt lat="45.56314" lon="6.56364">
        <ele>2174.6000976562</ele>
        <time>2014-01-31T11:19:07.000Z</time>
      </trkpt>
      <trkpt lat="45.56314" lon="6.56364">
        <ele>2174.6000976562</ele>
        <time>2014-01-31T11:19:08.000Z</time>
      </trkpt>
      <trkpt lat="45.56314" lon="6.56364">
        <ele>2174.6000976562</ele>
        <time>2014-01-31T11:19:09.000Z</time>
      </trkpt>
      <trkpt lat="45.56314" lon="6.56364">
        <ele>2174.6000976562</ele>
        <time>2014-01-31T11:19:16.000Z</time>
      </trkpt>
      <trkpt lat="45.56314" lon="6.56364">
        <ele>2174.6000976562</ele>
        <time>2014-01-31T11:19:18.000Z</time>
      </trkpt>
      <trkpt lat="45.56314" lon="6.56364">
        <ele>2174.6000976562</ele>
        <time>2014-01-31T11:19:20.000Z</time>
      </trkpt>
      <trkpt lat="45.56314" lon="6.56364">
        <ele>2174.6000976562</ele>
        <time>2014-01-31T11:19:21.000Z</time>
      </trkpt>
      <trkpt lat="45.56314" lon="6.56364">
        <ele>2174.6000976562</ele>
        <time>2014-01-31T11:19:22.000Z</time>
      </trkpt>
      <trkpt lat="45.56314" lon="6.56364">
        <ele>2174.6000976562</ele>
        <time>2014-01-31T11:19:24.000Z</time>
      </trkpt>
      <trkpt lat="45.56314" lon="6.56364">
        <ele>2174.6000976562</ele>
        <time>2014-01-31T11:19:25.000Z</time>
      </trkpt>
      <trkpt lat="45.56314" lon="6.56364">
        <ele>2174.6000976562</ele>
        <time>2014-01-31T11:19:26.000Z</time>
      </trkpt>
      <trkpt lat="45.56314" lon="6.56364">
        <ele>2174.6000976562</ele>
        <time>2014-01-31T11:19:27.000Z</time>
      </trkpt>
      <trkpt lat="45.56314" lon="6.56364">
        <ele>2174.6000976562</ele>
        <time>2014-01-31T11:19:29.000Z</time>
      </trkpt>
      <trkpt lat="45.56314" lon="6.56364">
        <ele>2174.6000976562</ele>
        <time>2014-01-31T11:19:30.000Z</time>
      </trkpt>
      <trkpt lat="45.56314" lon="6.56364">
        <ele>2174.6000976562</ele>
        <time>2014-01-31T11:19:34.000Z</time>
      </trkpt>
      <trkpt lat="45.56314" lon="6.56364">
        <ele>2174.6000976562</ele>
        <time>2014-01-31T11:19:35.000Z</time>
      </trkpt>
      <trkpt lat="45.56314" lon="6.56364">
        <ele>2174.6000976562</ele>
        <time>2014-01-31T11:19:36.000Z</time>
      </trkpt>
      <trkpt lat="45.56314" lon="6.56364">
        <ele>2174.6000976562</ele>
        <time>2014-01-31T11:19:37.000Z</time>
      </trkpt>
      <trkpt lat="45.56314" lon="6.56364">
        <ele>2174.6000976562</ele>
        <time>2014-01-31T11:19:38.000Z</time>
      </trkpt>
      <trkpt lat="45.56314" lon="6.56364">
        <ele>2174.6000976562</ele>
        <time>2014-01-31T11:19:39.000Z</time>
      </trkpt>
      <trkpt lat="45.56314" lon="6.56364">
        <ele>2174.6000976562</ele>
        <time>2014-01-31T11:19:40.000Z</time>
      </trkpt>
      <trkpt lat="45.56314" lon="6.56364">
        <ele>2174.3999023438</ele>
        <time>2014-01-31T11:19:41.000Z</time>
      </trkpt>
      <trkpt lat="45.56314" lon="6.56364">
        <ele>2174.3999023438</ele>
        <time>2014-01-31T11:19:42.000Z</time>
      </trkpt>
      <trkpt lat="45.56314" lon="6.56364">
        <ele>2174.3999023438</ele>
        <time>2014-01-31T11:19:43.000Z</time>
      </trkpt>
      <trkpt lat="45.56314" lon="6.56364">
        <ele>2174.3999023438</ele>
        <time>2014-01-31T11:19:44.000Z</time>
      </trkpt>
      <trkpt lat="45.56314" lon="6.56364">
        <ele>2174.3999023438</ele>
        <time>2014-01-31T11:19:45.000Z</time>
      </trkpt>
      <trkpt lat="45.56314" lon="6.56364">
        <ele>2174.6000976562</ele>
        <time>2014-01-31T11:19:46.000Z</time>
      </trkpt>
      <trkpt lat="45.56314" lon="6.56364">
        <ele>2174.6000976562</ele>
        <time>2014-01-31T11:19:47.000Z</time>
      </trkpt>
      <trkpt lat="45.56314" lon="6.56364">
        <ele>2174.8000488281</ele>
        <time>2014-01-31T11:19:48.000Z</time>
      </trkpt>
      <trkpt lat="45.56314" lon="6.56364">
        <ele>2174.8000488281</ele>
        <time>2014-01-31T11:19:49.000Z</time>
      </trkpt>
      <trkpt lat="45.56314" lon="6.56364">
        <ele>2174.8000488281</ele>
        <time>2014-01-31T11:19:50.000Z</time>
      </trkpt>
      <trkpt lat="45.56314" lon="6.56364">
        <ele>2174.8000488281</ele>
        <time>2014-01-31T11:19:51.000Z</time>
      </trkpt>
      <trkpt lat="45.56314" lon="6.56364">
        <ele>2174.8000488281</ele>
        <time>2014-01-31T11:19:52.000Z</time>
      </trkpt>
      <trkpt lat="45.56314" lon="6.56364">
        <ele>2174.8000488281</ele>
        <time>2014-01-31T11:19:53.000Z</time>
      </trkpt>
      <trkpt lat="45.56314" lon="6.56364">
        <ele>2174.8000488281</ele>
        <time>2014-01-31T11:19:54.000Z</time>
      </trkpt>
      <trkpt lat="45.56314" lon="6.56364">
        <ele>2174.6000976562</ele>
        <time>2014-01-31T11:19:55.000Z</time>
      </trkpt>
      <trkpt lat="45.56314" lon="6.56364">
        <ele>2174.6000976562</ele>
        <time>2014-01-31T11:19:56.000Z</time>
      </trkpt>
      <trkpt lat="45.56314" lon="6.56364">
        <ele>2174.6000976562</ele>
        <time>2014-01-31T11:19:57.000Z</time>
      </trkpt>
      <trkpt lat="45.56314" lon="6.56364">
        <ele>2174.3999023438</ele>
        <time>2014-01-31T11:19:58.000Z</time>
      </trkpt>
      <trkpt lat="45.56314" lon="6.56364">
        <ele>2174.3999023438</ele>
        <time>2014-01-31T11:19:59.000Z</time>
      </trkpt>
      <trkpt lat="45.56314" lon="6.56364">
        <ele>2174.3999023438</ele>
        <time>2014-01-31T11:20:00.000Z</time>
      </trkpt>
      <trkpt lat="45.56314" lon="6.56364">
        <ele>2174.3999023438</ele>
        <time>2014-01-31T11:20:01.000Z</time>
      </trkpt>
      <trkpt lat="45.56314" lon="6.56364">
        <ele>2174.3999023438</ele>
        <time>2014-01-31T11:20:02.000Z</time>
      </trkpt>
      <trkpt lat="45.56314" lon="6.56364">
        <ele>2174.6000976562</ele>
        <time>2014-01-31T11:20:03.000Z</time>
      </trkpt>
      <trkpt lat="45.56314" lon="6.56364">
        <ele>2174.6000976562</ele>
        <time>2014-01-31T11:20:04.000Z</time>
      </trkpt>
      <trkpt lat="45.56314" lon="6.56364">
        <ele>2174.6000976562</ele>
        <time>2014-01-31T11:20:05.000Z</time>
      </trkpt>
      <trkpt lat="45.56314" lon="6.56364">
        <ele>2174.6000976562</ele>
        <time>2014-01-31T11:20:08.000Z</time>
      </trkpt>
      <trkpt lat="45.56314" lon="6.56364">
        <ele>2174.6000976562</ele>
        <time>2014-01-31T11:20:09.000Z</time>
      </trkpt>
      <trkpt lat="45.56314" lon="6.56364">
        <ele>2174.6000976562</ele>
        <time>2014-01-31T11:20:12.000Z</time>
      </trkpt>
      <trkpt lat="45.56314" lon="6.56364">
        <ele>2174.3999023438</ele>
        <time>2014-01-31T11:20:13.000Z</time>
      </trkpt>
      <trkpt lat="45.56314" lon="6.56364">
        <ele>2174.3999023438</ele>
        <time>2014-01-31T11:20:14.000Z</time>
      </trkpt>
      <trkpt lat="45.56314" lon="6.56364">
        <ele>2174.3999023438</ele>
        <time>2014-01-31T11:20:15.000Z</time>
      </trkpt>
      <trkpt lat="45.56314" lon="6.56364">
        <ele>2174.3999023438</ele>
        <time>2014-01-31T11:20:16.000Z</time>
      </trkpt>
      <trkpt lat="45.56314" lon="6.56364">
        <ele>2174.3999023438</ele>
        <time>2014-01-31T11:20:17.000Z</time>
      </trkpt>
      <trkpt lat="45.56314" lon="6.56364">
        <ele>2174.3999023438</ele>
        <time>2014-01-31T11:20:18.000Z</time>
      </trkpt>
      <trkpt lat="45.56314" lon="6.56364">
        <ele>2174.6000976562</ele>
        <time>2014-01-31T11:20:19.000Z</time>
      </trkpt>
      <trkpt lat="45.56314" lon="6.56364">
        <ele>2174.6000976562</ele>
        <time>2014-01-31T11:20:20.000Z</time>
      </trkpt>
      <trkpt lat="45.56314" lon="6.56364">
        <ele>2174.6000976562</ele>
        <time>2014-01-31T11:20:21.000Z</time>
      </trkpt>
      <trkpt lat="45.56314" lon="6.56364">
        <ele>2174.6000976562</ele>
        <time>2014-01-31T11:20:22.000Z</time>
      </trkpt>
      <trkpt lat="45.56314" lon="6.56364">
        <ele>2174.3999023438</ele>
        <time>2014-01-31T11:20:23.000Z</time>
      </trkpt>
      <trkpt lat="45.56314" lon="6.56364">
        <ele>2174.3999023438</ele>
        <time>2014-01-31T11:20:24.000Z</time>
      </trkpt>
      <trkpt lat="45.56314" lon="6.56364">
        <ele>2174.3999023438</ele>
        <time>2014-01-31T11:20:25.000Z</time>
      </trkpt>
      <trkpt lat="45.56314" lon="6.56364">
        <ele>2174.3999023438</ele>
        <time>2014-01-31T11:20:26.000Z</time>
      </trkpt>
      <trkpt lat="45.56314" lon="6.56364">
        <ele>2174.3999023438</ele>
        <time>2014-01-31T11:20:29.000Z</time>
      </trkpt>
      <trkpt lat="45.56314" lon="6.56364">
        <ele>2174.3999023438</ele>
        <time>2014-01-31T11:20:30.000Z</time>
      </trkpt>
      <trkpt lat="45.56314" lon="6.56364">
        <ele>2174.3999023438</ele>
        <time>2014-01-31T11:20:31.000Z</time>
      </trkpt>
      <trkpt lat="45.56314" lon="6.56364">
        <ele>2174.6000976562</ele>
        <time>2014-01-31T11:20:32.000Z</time>
      </trkpt>
      <trkpt lat="45.56314" lon="6.56364">
        <ele>2174.6000976562</ele>
        <time>2014-01-31T11:20:33.000Z</time>
      </trkpt>
      <trkpt lat="45.56314" lon="6.56364">
        <ele>2174.6000976562</ele>
        <time>2014-01-31T11:20:34.000Z</time>
      </trkpt>
      <trkpt lat="45.56314" lon="6.56364">
        <ele>2174.6000976562</ele>
        <time>2014-01-31T11:20:35.000Z</time>
      </trkpt>
      <trkpt lat="45.56314" lon="6.56364">
        <ele>2174.6000976562</ele>
        <time>2014-01-31T11:20:36.000Z</time>
      </trkpt>
      <trkpt lat="45.56314" lon="6.56364">
        <ele>2174.6000976562</ele>
        <time>2014-01-31T11:20:38.000Z</time>
      </trkpt>
      <trkpt lat="45.56314" lon="6.56364">
        <ele>2174.6000976562</ele>
        <time>2014-01-31T11:20:42.000Z</time>
      </trkpt>
      <trkpt lat="45.56314" lon="6.56364">
        <ele>2174.6000976562</ele>
        <time>2014-01-31T11:20:43.000Z</time>
      </trkpt>
      <trkpt lat="45.56314" lon="6.56364">
        <ele>2174.6000976562</ele>
        <time>2014-01-31T11:20:47.000Z</time>
      </trkpt>
      <trkpt lat="45.56314" lon="6.56364">
        <ele>2174.6000976562</ele>
        <time>2014-01-31T11:20:48.000Z</time>
      </trkpt>
      <trkpt lat="45.56314" lon="6.56364">
        <ele>2174.6000976562</ele>
        <time>2014-01-31T11:20:49.000Z</time>
      </trkpt>
      <trkpt lat="45.56314" lon="6.56364">
        <ele>2174.6000976562</ele>
        <time>2014-01-31T11:20:50.000Z</time>
      </trkpt>
      <trkpt lat="45.56314" lon="6.56364">
        <ele>2174.6000976562</ele>
        <time>2014-01-31T11:20:51.000Z</time>
      </trkpt>
      <trkpt lat="45.56314" lon="6.56364">
        <ele>2174.6000976562</ele>
        <time>2014-01-31T11:20:52.000Z</time>
      </trkpt>
      <trkpt lat="45.56314" lon="6.56364">
        <ele>2174.6000976562</ele>
        <time>2014-01-31T11:20:53.000Z</time>
      </trkpt>
      <trkpt lat="45.56314" lon="6.56364">
        <ele>2174.6000976562</ele>
        <time>2014-01-31T11:20:54.000Z</time>
      </trkpt>
      <trkpt lat="45.56314" lon="6.56364">
        <ele>2174.6000976562</ele>
        <time>2014-01-31T11:20:56.000Z</time>
      </trkpt>
      <trkpt lat="45.56314" lon="6.56364">
        <ele>2174.6000976562</ele>
        <time>2014-01-31T11:20:57.000Z</time>
      </trkpt>
      <trkpt lat="45.56314" lon="6.56364">
        <ele>2174.6000976562</ele>
        <time>2014-01-31T11:21:00.000Z</time>
      </trkpt>
      <trkpt lat="45.56314" lon="6.56364">
        <ele>2174.6000976562</ele>
        <time>2014-01-31T11:21:06.000Z</time>
      </trkpt>
      <trkpt lat="45.56314" lon="6.56364">
        <ele>2174.6000976562</ele>
        <time>2014-01-31T11:21:07.000Z</time>
      </trkpt>
      <trkpt lat="45.56314" lon="6.56364">
        <ele>2174.6000976562</ele>
        <time>2014-01-31T11:21:08.000Z</time>
      </trkpt>
      <trkpt lat="45.56314" lon="6.56364">
        <ele>2174.6000976562</ele>
        <time>2014-01-31T11:21:09.000Z</time>
      </trkpt>
      <trkpt lat="45.56314" lon="6.56364">
        <ele>2174.6000976562</ele>
        <time>2014-01-31T11:21:10.000Z</time>
      </trkpt>
      <trkpt lat="45.56314" lon="6.56364">
        <ele>2174.6000976562</ele>
        <time>2014-01-31T11:21:12.000Z</time>
      </trkpt>
      <trkpt lat="45.56314" lon="6.56364">
        <ele>2174.6000976562</ele>
        <time>2014-01-31T11:21:13.000Z</time>
      </trkpt>
      <trkpt lat="45.56314" lon="6.56364">
        <ele>2174.3999023438</ele>
        <time>2014-01-31T11:21:14.000Z</time>
      </trkpt>
      <trkpt lat="45.56314" lon="6.56364">
        <ele>2174.3999023438</ele>
        <time>2014-01-31T11:21:15.000Z</time>
      </trkpt>
      <trkpt lat="45.56314" lon="6.56364">
        <ele>2174.3999023438</ele>
        <time>2014-01-31T11:21:17.000Z</time>
      </trkpt>
      <trkpt lat="45.56314" lon="6.56364">
        <ele>2174.3999023438</ele>
        <time>2014-01-31T11:21:19.000Z</time>
      </trkpt>
      <trkpt lat="45.56314" lon="6.56364">
        <ele>2174.3999023438</ele>
        <time>2014-01-31T11:21:25.000Z</time>
      </trkpt>
      <trkpt lat="45.56314" lon="6.56364">
        <ele>2174.6000976562</ele>
        <time>2014-01-31T11:21:26.000Z</time>
      </trkpt>
      <trkpt lat="45.56314" lon="6.56364">
        <ele>2174.3999023438</ele>
        <time>2014-01-31T11:21:31.000Z</time>
      </trkpt>
      <trkpt lat="45.56314" lon="6.56364">
        <ele>2174.6000976562</ele>
        <time>2014-01-31T11:21:34.000Z</time>
      </trkpt>
      <trkpt lat="45.56314" lon="6.56364">
        <ele>2174.6000976562</ele>
        <time>2014-01-31T11:21:35.000Z</time>
      </trkpt>
      <trkpt lat="45.56314" lon="6.56364">
        <ele>2174.6000976562</ele>
        <time>2014-01-31T11:21:36.000Z</time>
      </trkpt>
      <trkpt lat="45.56314" lon="6.56364">
        <ele>2174.6000976562</ele>
        <time>2014-01-31T11:21:37.000Z</time>
      </trkpt>
      <trkpt lat="45.56314" lon="6.56364">
        <ele>2174.6000976562</ele>
        <time>2014-01-31T11:21:38.000Z</time>
      </trkpt>
      <trkpt lat="45.56314" lon="6.56364">
        <ele>2174.6000976562</ele>
        <time>2014-01-31T11:21:40.000Z</time>
      </trkpt>
      <trkpt lat="45.56314" lon="6.56364">
        <ele>2174.6000976562</ele>
        <time>2014-01-31T11:21:41.000Z</time>
      </trkpt>
      <trkpt lat="45.56314" lon="6.56364">
        <ele>2174.6000976562</ele>
        <time>2014-01-31T11:21:46.000Z</time>
      </trkpt>
      <trkpt lat="45.56314" lon="6.56364">
        <ele>2174.6000976562</ele>
        <time>2014-01-31T11:21:48.000Z</time>
      </trkpt>
      <trkpt lat="45.56314" lon="6.56364">
        <ele>2174.6000976562</ele>
        <time>2014-01-31T11:21:49.000Z</time>
      </trkpt>
      <trkpt lat="45.56314" lon="6.56364">
        <ele>2174.6000976562</ele>
        <time>2014-01-31T11:21:50.000Z</time>
      </trkpt>
      <trkpt lat="45.56314" lon="6.56364">
        <ele>2174.6000976562</ele>
        <time>2014-01-31T11:21:51.000Z</time>
      </trkpt>
      <trkpt lat="45.56314" lon="6.56363">
        <ele>2174.6000976562</ele>
        <time>2014-01-31T11:21:52.000Z</time>
      </trkpt>
      <trkpt lat="45.56314" lon="6.56363">
        <ele>2174.6000976562</ele>
        <time>2014-01-31T11:21:53.000Z</time>
      </trkpt>
      <trkpt lat="45.56314" lon="6.56363">
        <ele>2174.6000976562</ele>
        <time>2014-01-31T11:21:56.000Z</time>
      </trkpt>
      <trkpt lat="45.56314" lon="6.56363">
        <ele>2174.8000488281</ele>
        <time>2014-01-31T11:22:00.000Z</time>
      </trkpt>
      <trkpt lat="45.56314" lon="6.56363">
        <ele>2174.8000488281</ele>
        <time>2014-01-31T11:22:01.000Z</time>
      </trkpt>
      <trkpt lat="45.56314" lon="6.56363">
        <ele>2174.8000488281</ele>
        <time>2014-01-31T11:22:02.000Z</time>
      </trkpt>
      <trkpt lat="45.56314" lon="6.56363">
        <ele>2174.8000488281</ele>
        <time>2014-01-31T11:22:04.000Z</time>
      </trkpt>
      <trkpt lat="45.56314" lon="6.56363">
        <ele>2174.6000976562</ele>
        <time>2014-01-31T11:22:05.000Z</time>
      </trkpt>
      <trkpt lat="45.56314" lon="6.56363">
        <ele>2174.6000976562</ele>
        <time>2014-01-31T11:22:06.000Z</time>
      </trkpt>
      <trkpt lat="45.56314" lon="6.56363">
        <ele>2174.6000976562</ele>
        <time>2014-01-31T11:22:07.000Z</time>
      </trkpt>
      <trkpt lat="45.56314" lon="6.56363">
        <ele>2174.6000976562</ele>
        <time>2014-01-31T11:22:08.000Z</time>
      </trkpt>
      <trkpt lat="45.56314" lon="6.56363">
        <ele>2174.6000976562</ele>
        <time>2014-01-31T11:22:10.000Z</time>
      </trkpt>
      <trkpt lat="45.56314" lon="6.56363">
        <ele>2174.6000976562</ele>
        <time>2014-01-31T11:22:13.000Z</time>
      </trkpt>
      <trkpt lat="45.56314" lon="6.56363">
        <ele>2174.6000976562</ele>
        <time>2014-01-31T11:22:15.000Z</time>
      </trkpt>
      <trkpt lat="45.56314" lon="6.56363">
        <ele>2174.6000976562</ele>
        <time>2014-01-31T11:22:17.000Z</time>
      </trkpt>
      <trkpt lat="45.56314" lon="6.56363">
        <ele>2174.6000976562</ele>
        <time>2014-01-31T11:22:18.000Z</time>
      </trkpt>
      <trkpt lat="45.56314" lon="6.56363">
        <ele>2174.6000976562</ele>
        <time>2014-01-31T11:22:21.000Z</time>
      </trkpt>
      <trkpt lat="45.56314" lon="6.56363">
        <ele>2174.6000976562</ele>
        <time>2014-01-31T11:22:22.000Z</time>
      </trkpt>
      <trkpt lat="45.56314" lon="6.56363">
        <ele>2174.6000976562</ele>
        <time>2014-01-31T11:22:23.000Z</time>
      </trkpt>
      <trkpt lat="45.56314" lon="6.56363">
        <ele>2174.6000976562</ele>
        <time>2014-01-31T11:22:24.000Z</time>
      </trkpt>
      <trkpt lat="45.56314" lon="6.56363">
        <ele>2174.6000976562</ele>
        <time>2014-01-31T11:22:25.000Z</time>
      </trkpt>
      <trkpt lat="45.56314" lon="6.56363">
        <ele>2174.6000976562</ele>
        <time>2014-01-31T11:22:26.000Z</time>
      </trkpt>
      <trkpt lat="45.56314" lon="6.56363">
        <ele>2174.6000976562</ele>
        <time>2014-01-31T11:22:28.000Z</time>
      </trkpt>
      <trkpt lat="45.56314" lon="6.56363">
        <ele>2174.6000976562</ele>
        <time>2014-01-31T11:22:29.000Z</time>
      </trkpt>
      <trkpt lat="45.56314" lon="6.56363">
        <ele>2174.8000488281</ele>
        <time>2014-01-31T11:22:30.000Z</time>
      </trkpt>
      <trkpt lat="45.56314" lon="6.56363">
        <ele>2174.8000488281</ele>
        <time>2014-01-31T11:22:31.000Z</time>
      </trkpt>
      <trkpt lat="45.56314" lon="6.56363">
        <ele>2174.8000488281</ele>
        <time>2014-01-31T11:22:32.000Z</time>
      </trkpt>
      <trkpt lat="45.56314" lon="6.56363">
        <ele>2174.8000488281</ele>
        <time>2014-01-31T11:22:33.000Z</time>
      </trkpt>
      <trkpt lat="45.56314" lon="6.56363">
        <ele>2174.8000488281</ele>
        <time>2014-01-31T11:22:34.000Z</time>
      </trkpt>
      <trkpt lat="45.56314" lon="6.56363">
        <ele>2174.8000488281</ele>
        <time>2014-01-31T11:22:35.000Z</time>
      </trkpt>
      <trkpt lat="45.56314" lon="6.56363">
        <ele>2174.8000488281</ele>
        <time>2014-01-31T11:22:36.000Z</time>
      </trkpt>
      <trkpt lat="45.56314" lon="6.56363">
        <ele>2174.8000488281</ele>
        <time>2014-01-31T11:22:37.000Z</time>
      </trkpt>
      <trkpt lat="45.56314" lon="6.56363">
        <ele>2174.8000488281</ele>
        <time>2014-01-31T11:22:38.000Z</time>
      </trkpt>
      <trkpt lat="45.56314" lon="6.56363">
        <ele>2174.8000488281</ele>
        <time>2014-01-31T11:22:39.000Z</time>
      </trkpt>
      <trkpt lat="45.56314" lon="6.56363">
        <ele>2174.8000488281</ele>
        <time>2014-01-31T11:22:40.000Z</time>
      </trkpt>
      <trkpt lat="45.56314" lon="6.56363">
        <ele>2174.8000488281</ele>
        <time>2014-01-31T11:22:41.000Z</time>
      </trkpt>
      <trkpt lat="45.56314" lon="6.56363">
        <ele>2174.8000488281</ele>
        <time>2014-01-31T11:22:42.000Z</time>
      </trkpt>
      <trkpt lat="45.56314" lon="6.56363">
        <ele>2174.8000488281</ele>
        <time>2014-01-31T11:22:43.000Z</time>
      </trkpt>
      <trkpt lat="45.56314" lon="6.56363">
        <ele>2174.8000488281</ele>
        <time>2014-01-31T11:22:44.000Z</time>
      </trkpt>
      <trkpt lat="45.56314" lon="6.56363">
        <ele>2174.8000488281</ele>
        <time>2014-01-31T11:22:48.000Z</time>
      </trkpt>
      <trkpt lat="45.56314" lon="6.56363">
        <ele>2174.8000488281</ele>
        <time>2014-01-31T11:22:49.000Z</time>
      </trkpt>
      <trkpt lat="45.56314" lon="6.56363">
        <ele>2174.8000488281</ele>
        <time>2014-01-31T11:22:50.000Z</time>
      </trkpt>
      <trkpt lat="45.56314" lon="6.56363">
        <ele>2174.8000488281</ele>
        <time>2014-01-31T11:22:51.000Z</time>
      </trkpt>
      <trkpt lat="45.56314" lon="6.56363">
        <ele>2174.8000488281</ele>
        <time>2014-01-31T11:22:52.000Z</time>
      </trkpt>
      <trkpt lat="45.56314" lon="6.56363">
        <ele>2174.8000488281</ele>
        <time>2014-01-31T11:22:56.000Z</time>
      </trkpt>
      <trkpt lat="45.56314" lon="6.56363">
        <ele>2174.8000488281</ele>
        <time>2014-01-31T11:22:57.000Z</time>
      </trkpt>
      <trkpt lat="45.56314" lon="6.56363">
        <ele>2174.8000488281</ele>
        <time>2014-01-31T11:22:59.000Z</time>
      </trkpt>
      <trkpt lat="45.56314" lon="6.56363">
        <ele>2174.8000488281</ele>
        <time>2014-01-31T11:23:00.000Z</time>
      </trkpt>
      <trkpt lat="45.56314" lon="6.56363">
        <ele>2174.8000488281</ele>
        <time>2014-01-31T11:23:03.000Z</time>
      </trkpt>
      <trkpt lat="45.56314" lon="6.56363">
        <ele>2174.8000488281</ele>
        <time>2014-01-31T11:23:04.000Z</time>
      </trkpt>
      <trkpt lat="45.56314" lon="6.56363">
        <ele>2174.8000488281</ele>
        <time>2014-01-31T11:23:05.000Z</time>
      </trkpt>
      <trkpt lat="45.56314" lon="6.56363">
        <ele>2174.6000976562</ele>
        <time>2014-01-31T11:23:06.000Z</time>
      </trkpt>
      <trkpt lat="45.56314" lon="6.56363">
        <ele>2174.6000976562</ele>
        <time>2014-01-31T11:23:07.000Z</time>
      </trkpt>
      <trkpt lat="45.56314" lon="6.56363">
        <ele>2174.8000488281</ele>
        <time>2014-01-31T11:23:08.000Z</time>
      </trkpt>
      <trkpt lat="45.56314" lon="6.56363">
        <ele>2175</ele>
        <time>2014-01-31T11:23:09.000Z</time>
      </trkpt>
      <trkpt lat="45.56314" lon="6.56363">
        <ele>2175</ele>
        <time>2014-01-31T11:23:10.000Z</time>
      </trkpt>
      <trkpt lat="45.56314" lon="6.56363">
        <ele>2175</ele>
        <time>2014-01-31T11:23:11.000Z</time>
      </trkpt>
      <trkpt lat="45.56314" lon="6.56363">
        <ele>2175</ele>
        <time>2014-01-31T11:23:12.000Z</time>
      </trkpt>
      <trkpt lat="45.56314" lon="6.56363">
        <ele>2175</ele>
        <time>2014-01-31T11:23:14.000Z</time>
      </trkpt>
      <trkpt lat="45.56314" lon="6.56363">
        <ele>2175</ele>
        <time>2014-01-31T11:23:15.000Z</time>
      </trkpt>
      <trkpt lat="45.56314" lon="6.56363">
        <ele>2174.8000488281</ele>
        <time>2014-01-31T11:23:16.000Z</time>
      </trkpt>
      <trkpt lat="45.56314" lon="6.56363">
        <ele>2174.8000488281</ele>
        <time>2014-01-31T11:23:17.000Z</time>
      </trkpt>
      <trkpt lat="45.56314" lon="6.56363">
        <ele>2174.8000488281</ele>
        <time>2014-01-31T11:23:18.000Z</time>
      </trkpt>
      <trkpt lat="45.56314" lon="6.56363">
        <ele>2174.8000488281</ele>
        <time>2014-01-31T11:23:19.000Z</time>
      </trkpt>
      <trkpt lat="45.56314" lon="6.56363">
        <ele>2174.8000488281</ele>
        <time>2014-01-31T11:23:20.000Z</time>
      </trkpt>
      <trkpt lat="45.56314" lon="6.56363">
        <ele>2174.8000488281</ele>
        <time>2014-01-31T11:23:22.000Z</time>
      </trkpt>
      <trkpt lat="45.56314" lon="6.56363">
        <ele>2174.8000488281</ele>
        <time>2014-01-31T11:23:23.000Z</time>
      </trkpt>
      <trkpt lat="45.56314" lon="6.56363">
        <ele>2174.8000488281</ele>
        <time>2014-01-31T11:23:24.000Z</time>
      </trkpt>
      <trkpt lat="45.56314" lon="6.56363">
        <ele>2174.8000488281</ele>
        <time>2014-01-31T11:23:27.000Z</time>
      </trkpt>
      <trkpt lat="45.56314" lon="6.56363">
        <ele>2174.8000488281</ele>
        <time>2014-01-31T11:23:31.000Z</time>
      </trkpt>
      <trkpt lat="45.56314" lon="6.56363">
        <ele>2174.8000488281</ele>
        <time>2014-01-31T11:23:33.000Z</time>
      </trkpt>
      <trkpt lat="45.56314" lon="6.56363">
        <ele>2174.8000488281</ele>
        <time>2014-01-31T11:23:35.000Z</time>
      </trkpt>
      <trkpt lat="45.56314" lon="6.56363">
        <ele>2174.8000488281</ele>
        <time>2014-01-31T11:23:37.000Z</time>
      </trkpt>
      <trkpt lat="45.56314" lon="6.56363">
        <ele>2174.8000488281</ele>
        <time>2014-01-31T11:23:38.000Z</time>
      </trkpt>
      <trkpt lat="45.56314" lon="6.56363">
        <ele>2174.8000488281</ele>
        <time>2014-01-31T11:23:39.000Z</time>
      </trkpt>
      <trkpt lat="45.56314" lon="6.56363">
        <ele>2174.8000488281</ele>
        <time>2014-01-31T11:23:40.000Z</time>
      </trkpt>
      <trkpt lat="45.56314" lon="6.56363">
        <ele>2174.8000488281</ele>
        <time>2014-01-31T11:23:41.000Z</time>
      </trkpt>
      <trkpt lat="45.56314" lon="6.56363">
        <ele>2174.8000488281</ele>
        <time>2014-01-31T11:23:44.000Z</time>
      </trkpt>
      <trkpt lat="45.56314" lon="6.56363">
        <ele>2175</ele>
        <time>2014-01-31T11:23:45.000Z</time>
      </trkpt>
      <trkpt lat="45.56314" lon="6.56363">
        <ele>2175</ele>
        <time>2014-01-31T11:23:46.000Z</time>
      </trkpt>
      <trkpt lat="45.56314" lon="6.56363">
        <ele>2175</ele>
        <time>2014-01-31T11:23:47.000Z</time>
      </trkpt>
      <trkpt lat="45.56314" lon="6.56363">
        <ele>2175</ele>
        <time>2014-01-31T11:23:48.000Z</time>
      </trkpt>
      <trkpt lat="45.56314" lon="6.56363">
        <ele>2175</ele>
        <time>2014-01-31T11:23:49.000Z</time>
      </trkpt>
      <trkpt lat="45.56314" lon="6.56363">
        <ele>2175</ele>
        <time>2014-01-31T11:23:51.000Z</time>
      </trkpt>
      <trkpt lat="45.56314" lon="6.56363">
        <ele>2175</ele>
        <time>2014-01-31T11:23:52.000Z</time>
      </trkpt>
      <trkpt lat="45.56314" lon="6.56363">
        <ele>2175</ele>
        <time>2014-01-31T11:23:53.000Z</time>
      </trkpt>
      <trkpt lat="45.56314" lon="6.56363">
        <ele>2174.8000488281</ele>
        <time>2014-01-31T11:23:54.000Z</time>
      </trkpt>
      <trkpt lat="45.56314" lon="6.56363">
        <ele>2174.8000488281</ele>
        <time>2014-01-31T11:23:55.000Z</time>
      </trkpt>
      <trkpt lat="45.56314" lon="6.56363">
        <ele>2174.8000488281</ele>
        <time>2014-01-31T11:23:57.000Z</time>
      </trkpt>
      <trkpt lat="45.56314" lon="6.56363">
        <ele>2174.8000488281</ele>
        <time>2014-01-31T11:23:58.000Z</time>
      </trkpt>
      <trkpt lat="45.56314" lon="6.56363">
        <ele>2174.8000488281</ele>
        <time>2014-01-31T11:23:59.000Z</time>
      </trkpt>
      <trkpt lat="45.56314" lon="6.56363">
        <ele>2174.8000488281</ele>
        <time>2014-01-31T11:24:00.000Z</time>
      </trkpt>
      <trkpt lat="45.56314" lon="6.56363">
        <ele>2175</ele>
        <time>2014-01-31T11:24:01.000Z</time>
      </trkpt>
      <trkpt lat="45.56314" lon="6.56363">
        <ele>2175</ele>
        <time>2014-01-31T11:24:02.000Z</time>
      </trkpt>
      <trkpt lat="45.56314" lon="6.56363">
        <ele>2175</ele>
        <time>2014-01-31T11:24:04.000Z</time>
      </trkpt>
      <trkpt lat="45.56314" lon="6.56363">
        <ele>2174.8000488281</ele>
        <time>2014-01-31T11:24:05.000Z</time>
      </trkpt>
      <trkpt lat="45.56314" lon="6.56363">
        <ele>2174.8000488281</ele>
        <time>2014-01-31T11:24:07.000Z</time>
      </trkpt>
      <trkpt lat="45.56314" lon="6.56363">
        <ele>2175</ele>
        <time>2014-01-31T11:24:09.000Z</time>
      </trkpt>
      <trkpt lat="45.56314" lon="6.56363">
        <ele>2175</ele>
        <time>2014-01-31T11:24:10.000Z</time>
      </trkpt>
      <trkpt lat="45.56314" lon="6.56363">
        <ele>2175</ele>
        <time>2014-01-31T11:24:13.000Z</time>
      </trkpt>
      <trkpt lat="45.56314" lon="6.56363">
        <ele>2174.8000488281</ele>
        <time>2014-01-31T11:24:14.000Z</time>
      </trkpt>
      <trkpt lat="45.56314" lon="6.56363">
        <ele>2175</ele>
        <time>2014-01-31T11:24:17.000Z</time>
      </trkpt>
      <trkpt lat="45.56314" lon="6.56363">
        <ele>2175</ele>
        <time>2014-01-31T11:24:18.000Z</time>
      </trkpt>
      <trkpt lat="45.56314" lon="6.56363">
        <ele>2175</ele>
        <time>2014-01-31T11:24:19.000Z</time>
      </trkpt>
      <trkpt lat="45.56314" lon="6.56363">
        <ele>2175</ele>
        <time>2014-01-31T11:24:21.000Z</time>
      </trkpt>
      <trkpt lat="45.56314" lon="6.56363">
        <ele>2175</ele>
        <time>2014-01-31T11:24:22.000Z</time>
      </trkpt>
      <trkpt lat="45.56314" lon="6.56363">
        <ele>2174.8000488281</ele>
        <time>2014-01-31T11:24:23.000Z</time>
      </trkpt>
      <trkpt lat="45.56314" lon="6.56363">
        <ele>2174.8000488281</ele>
        <time>2014-01-31T11:24:24.000Z</time>
      </trkpt>
      <trkpt lat="45.56314" lon="6.56363">
        <ele>2174.6000976562</ele>
        <time>2014-01-31T11:24:25.000Z</time>
      </trkpt>
      <trkpt lat="45.56314" lon="6.56363">
        <ele>2174.3999023438</ele>
        <time>2014-01-31T11:24:26.000Z</time>
      </trkpt>
      <trkpt lat="45.56314" lon="6.56363">
        <ele>2174.3999023438</ele>
        <time>2014-01-31T11:24:27.000Z</time>
      </trkpt>
      <trkpt lat="45.56314" lon="6.56363">
        <ele>2174.6000976562</ele>
        <time>2014-01-31T11:24:28.000Z</time>
      </trkpt>
      <trkpt lat="45.56314" lon="6.56363">
        <ele>2174.6000976562</ele>
        <time>2014-01-31T11:24:29.000Z</time>
      </trkpt>
      <trkpt lat="45.56314" lon="6.56363">
        <ele>2174.6000976562</ele>
        <time>2014-01-31T11:24:30.000Z</time>
      </trkpt>
      <trkpt lat="45.56314" lon="6.56363">
        <ele>2174.6000976562</ele>
        <time>2014-01-31T11:24:31.000Z</time>
      </trkpt>
      <trkpt lat="45.56315" lon="6.56363">
        <ele>2174.6000976562</ele>
        <time>2014-01-31T11:24:32.000Z</time>
      </trkpt>
      <trkpt lat="45.56315" lon="6.56363">
        <ele>2174.8000488281</ele>
        <time>2014-01-31T11:24:33.000Z</time>
      </trkpt>
      <trkpt lat="45.56315" lon="6.56363">
        <ele>2174.6000976562</ele>
        <time>2014-01-31T11:24:35.000Z</time>
      </trkpt>
      <trkpt lat="45.56315" lon="6.56363">
        <ele>2174.6000976562</ele>
        <time>2014-01-31T11:24:36.000Z</time>
      </trkpt>
      <trkpt lat="45.56315" lon="6.56363">
        <ele>2174.6000976562</ele>
        <time>2014-01-31T11:24:37.000Z</time>
      </trkpt>
      <trkpt lat="45.56315" lon="6.56363">
        <ele>2174.6000976562</ele>
        <time>2014-01-31T11:24:38.000Z</time>
      </trkpt>
      <trkpt lat="45.56315" lon="6.56363">
        <ele>2174.6000976562</ele>
        <time>2014-01-31T11:24:39.000Z</time>
      </trkpt>
      <trkpt lat="45.56315" lon="6.56363">
        <ele>2174.6000976562</ele>
        <time>2014-01-31T11:24:40.000Z</time>
      </trkpt>
      <trkpt lat="45.56315" lon="6.56363">
        <ele>2174.6000976562</ele>
        <time>2014-01-31T11:24:41.000Z</time>
      </trkpt>
      <trkpt lat="45.56315" lon="6.56363">
        <ele>2174.8000488281</ele>
        <time>2014-01-31T11:24:42.000Z</time>
      </trkpt>
      <trkpt lat="45.56315" lon="6.56363">
        <ele>2174.8000488281</ele>
        <time>2014-01-31T11:24:43.000Z</time>
      </trkpt>
      <trkpt lat="45.56315" lon="6.56363">
        <ele>2174.8000488281</ele>
        <time>2014-01-31T11:24:44.000Z</time>
      </trkpt>
      <trkpt lat="45.56315" lon="6.56363">
        <ele>2174.8000488281</ele>
        <time>2014-01-31T11:24:46.000Z</time>
      </trkpt>
      <trkpt lat="45.56315" lon="6.56363">
        <ele>2174.8000488281</ele>
        <time>2014-01-31T11:24:47.000Z</time>
      </trkpt>
      <trkpt lat="45.56315" lon="6.56363">
        <ele>2174.8000488281</ele>
        <time>2014-01-31T11:24:48.000Z</time>
      </trkpt>
      <trkpt lat="45.56315" lon="6.56363">
        <ele>2174.8000488281</ele>
        <time>2014-01-31T11:24:49.000Z</time>
      </trkpt>
      <trkpt lat="45.56315" lon="6.56363">
        <ele>2174.8000488281</ele>
        <time>2014-01-31T11:24:50.000Z</time>
      </trkpt>
      <trkpt lat="45.56315" lon="6.56363">
        <ele>2174.8000488281</ele>
        <time>2014-01-31T11:24:51.000Z</time>
      </trkpt>
      <trkpt lat="45.56315" lon="6.56363">
        <ele>2174.6000976562</ele>
        <time>2014-01-31T11:24:52.000Z</time>
      </trkpt>
      <trkpt lat="45.56315" lon="6.56363">
        <ele>2174.6000976562</ele>
        <time>2014-01-31T11:24:53.000Z</time>
      </trkpt>
      <trkpt lat="45.56315" lon="6.56363">
        <ele>2174.6000976562</ele>
        <time>2014-01-31T11:24:54.000Z</time>
      </trkpt>
      <trkpt lat="45.56315" lon="6.56363">
        <ele>2174.6000976562</ele>
        <time>2014-01-31T11:24:56.000Z</time>
      </trkpt>
      <trkpt lat="45.56315" lon="6.56363">
        <ele>2174.8000488281</ele>
        <time>2014-01-31T11:24:57.000Z</time>
      </trkpt>
      <trkpt lat="45.56315" lon="6.56363">
        <ele>2174.8000488281</ele>
        <time>2014-01-31T11:24:58.000Z</time>
      </trkpt>
      <trkpt lat="45.56315" lon="6.56363">
        <ele>2174.8000488281</ele>
        <time>2014-01-31T11:24:59.000Z</time>
      </trkpt>
      <trkpt lat="45.56315" lon="6.56363">
        <ele>2174.8000488281</ele>
        <time>2014-01-31T11:25:00.000Z</time>
      </trkpt>
      <trkpt lat="45.56315" lon="6.56363">
        <ele>2174.8000488281</ele>
        <time>2014-01-31T11:25:01.000Z</time>
      </trkpt>
      <trkpt lat="45.56315" lon="6.56363">
        <ele>2174.6000976562</ele>
        <time>2014-01-31T11:25:02.000Z</time>
      </trkpt>
      <trkpt lat="45.56315" lon="6.56363">
        <ele>2174.6000976562</ele>
        <time>2014-01-31T11:25:03.000Z</time>
      </trkpt>
      <trkpt lat="45.56315" lon="6.56363">
        <ele>2174.8000488281</ele>
        <time>2014-01-31T11:25:07.000Z</time>
      </trkpt>
      <trkpt lat="45.56315" lon="6.56363">
        <ele>2174.8000488281</ele>
        <time>2014-01-31T11:25:08.000Z</time>
      </trkpt>
      <trkpt lat="45.56315" lon="6.56363">
        <ele>2174.8000488281</ele>
        <time>2014-01-31T11:25:09.000Z</time>
      </trkpt>
      <trkpt lat="45.56315" lon="6.56363">
        <ele>2174.8000488281</ele>
        <time>2014-01-31T11:25:10.000Z</time>
      </trkpt>
      <trkpt lat="45.56315" lon="6.56363">
        <ele>2174.8000488281</ele>
        <time>2014-01-31T11:25:11.000Z</time>
      </trkpt>
      <trkpt lat="45.56315" lon="6.56363">
        <ele>2174.8000488281</ele>
        <time>2014-01-31T11:25:12.000Z</time>
      </trkpt>
      <trkpt lat="45.56315" lon="6.56363">
        <ele>2175</ele>
        <time>2014-01-31T11:25:13.000Z</time>
      </trkpt>
      <trkpt lat="45.56315" lon="6.56363">
        <ele>2175</ele>
        <time>2014-01-31T11:25:14.000Z</time>
      </trkpt>
      <trkpt lat="45.56315" lon="6.56363">
        <ele>2175</ele>
        <time>2014-01-31T11:25:15.000Z</time>
      </trkpt>
      <trkpt lat="45.56315" lon="6.56363">
        <ele>2175</ele>
        <time>2014-01-31T11:25:16.000Z</time>
      </trkpt>
      <trkpt lat="45.56315" lon="6.56363">
        <ele>2175</ele>
        <time>2014-01-31T11:25:17.000Z</time>
      </trkpt>
      <trkpt lat="45.56315" lon="6.56363">
        <ele>2175</ele>
        <time>2014-01-31T11:25:18.000Z</time>
      </trkpt>
      <trkpt lat="45.56315" lon="6.56363">
        <ele>2174.8000488281</ele>
        <time>2014-01-31T11:25:19.000Z</time>
      </trkpt>
      <trkpt lat="45.56315" lon="6.56363">
        <ele>2174.8000488281</ele>
        <time>2014-01-31T11:25:20.000Z</time>
      </trkpt>
      <trkpt lat="45.56315" lon="6.56363">
        <ele>2174.8000488281</ele>
        <time>2014-01-31T11:25:21.000Z</time>
      </trkpt>
      <trkpt lat="45.56315" lon="6.56363">
        <ele>2175</ele>
        <time>2014-01-31T11:25:22.000Z</time>
      </trkpt>
      <trkpt lat="45.56315" lon="6.56363">
        <ele>2175</ele>
        <time>2014-01-31T11:25:23.000Z</time>
      </trkpt>
      <trkpt lat="45.56315" lon="6.56363">
        <ele>2175</ele>
        <time>2014-01-31T11:25:24.000Z</time>
      </trkpt>
      <trkpt lat="45.56315" lon="6.56363">
        <ele>2175.1999511719</ele>
        <time>2014-01-31T11:25:25.000Z</time>
      </trkpt>
      <trkpt lat="45.56315" lon="6.56363">
        <ele>2175.1999511719</ele>
        <time>2014-01-31T11:25:26.000Z</time>
      </trkpt>
      <trkpt lat="45.56315" lon="6.56363">
        <ele>2175.1999511719</ele>
        <time>2014-01-31T11:25:27.000Z</time>
      </trkpt>
      <trkpt lat="45.56315" lon="6.56363">
        <ele>2175</ele>
        <time>2014-01-31T11:25:28.000Z</time>
      </trkpt>
      <trkpt lat="45.56315" lon="6.56363">
        <ele>2174.6000976562</ele>
        <time>2014-01-31T11:25:29.000Z</time>
      </trkpt>
      <trkpt lat="45.56315" lon="6.56363">
        <ele>2174.6000976562</ele>
        <time>2014-01-31T11:25:30.000Z</time>
      </trkpt>
      <trkpt lat="45.56315" lon="6.56363">
        <ele>2174.3999023438</ele>
        <time>2014-01-31T11:25:31.000Z</time>
      </trkpt>
      <trkpt lat="45.56315" lon="6.56363">
        <ele>2174.3999023438</ele>
        <time>2014-01-31T11:25:32.000Z</time>
      </trkpt>
      <trkpt lat="45.56315" lon="6.56363">
        <ele>2174.6000976562</ele>
        <time>2014-01-31T11:25:33.000Z</time>
      </trkpt>
      <trkpt lat="45.56315" lon="6.56363">
        <ele>2175</ele>
        <time>2014-01-31T11:25:34.000Z</time>
      </trkpt>
      <trkpt lat="45.56315" lon="6.56363">
        <ele>2175.1999511719</ele>
        <time>2014-01-31T11:25:35.000Z</time>
      </trkpt>
      <trkpt lat="45.56315" lon="6.56363">
        <ele>2175.1999511719</ele>
        <time>2014-01-31T11:25:36.000Z</time>
      </trkpt>
      <trkpt lat="45.56315" lon="6.56363">
        <ele>2175.1999511719</ele>
        <time>2014-01-31T11:25:37.000Z</time>
      </trkpt>
      <trkpt lat="45.56315" lon="6.56363">
        <ele>2175</ele>
        <time>2014-01-31T11:25:38.000Z</time>
      </trkpt>
      <trkpt lat="45.56315" lon="6.56363">
        <ele>2175</ele>
        <time>2014-01-31T11:25:39.000Z</time>
      </trkpt>
      <trkpt lat="45.56315" lon="6.56363">
        <ele>2174.8000488281</ele>
        <time>2014-01-31T11:25:40.000Z</time>
      </trkpt>
      <trkpt lat="45.56315" lon="6.56363">
        <ele>2174.8000488281</ele>
        <time>2014-01-31T11:25:41.000Z</time>
      </trkpt>
      <trkpt lat="45.56315" lon="6.56363">
        <ele>2174.8000488281</ele>
        <time>2014-01-31T11:25:42.000Z</time>
      </trkpt>
      <trkpt lat="45.56315" lon="6.56363">
        <ele>2174.8000488281</ele>
        <time>2014-01-31T11:25:43.000Z</time>
      </trkpt>
      <trkpt lat="45.56315" lon="6.56363">
        <ele>2175</ele>
        <time>2014-01-31T11:25:44.000Z</time>
      </trkpt>
      <trkpt lat="45.56315" lon="6.56363">
        <ele>2175</ele>
        <time>2014-01-31T11:25:45.000Z</time>
      </trkpt>
      <trkpt lat="45.56315" lon="6.56363">
        <ele>2175</ele>
        <time>2014-01-31T11:25:46.000Z</time>
      </trkpt>
      <trkpt lat="45.56315" lon="6.56363">
        <ele>2175</ele>
        <time>2014-01-31T11:25:47.000Z</time>
      </trkpt>
      <trkpt lat="45.56315" lon="6.56363">
        <ele>2175</ele>
        <time>2014-01-31T11:25:52.000Z</time>
      </trkpt>
      <trkpt lat="45.56315" lon="6.56363">
        <ele>2175</ele>
        <time>2014-01-31T11:25:53.000Z</time>
      </trkpt>
      <trkpt lat="45.56315" lon="6.56363">
        <ele>2174.8000488281</ele>
        <time>2014-01-31T11:25:54.000Z</time>
      </trkpt>
      <trkpt lat="45.56315" lon="6.56363">
        <ele>2174.8000488281</ele>
        <time>2014-01-31T11:25:55.000Z</time>
      </trkpt>
      <trkpt lat="45.56315" lon="6.56363">
        <ele>2174.8000488281</ele>
        <time>2014-01-31T11:25:56.000Z</time>
      </trkpt>
      <trkpt lat="45.56315" lon="6.56363">
        <ele>2174.8000488281</ele>
        <time>2014-01-31T11:25:57.000Z</time>
      </trkpt>
      <trkpt lat="45.56315" lon="6.56363">
        <ele>2174.8000488281</ele>
        <time>2014-01-31T11:25:58.000Z</time>
      </trkpt>
      <trkpt lat="45.56315" lon="6.56363">
        <ele>2174.8000488281</ele>
        <time>2014-01-31T11:26:01.000Z</time>
      </trkpt>
      <trkpt lat="45.56315" lon="6.56363">
        <ele>2174.8000488281</ele>
        <time>2014-01-31T11:26:02.000Z</time>
      </trkpt>
      <trkpt lat="45.56315" lon="6.56363">
        <ele>2174.8000488281</ele>
        <time>2014-01-31T11:26:03.000Z</time>
      </trkpt>
      <trkpt lat="45.56315" lon="6.56363">
        <ele>2174.8000488281</ele>
        <time>2014-01-31T11:26:04.000Z</time>
      </trkpt>
      <trkpt lat="45.56315" lon="6.56363">
        <ele>2174.8000488281</ele>
        <time>2014-01-31T11:26:07.000Z</time>
      </trkpt>
      <trkpt lat="45.56315" lon="6.56363">
        <ele>2174.8000488281</ele>
        <time>2014-01-31T11:26:11.000Z</time>
      </trkpt>
      <trkpt lat="45.56315" lon="6.56363">
        <ele>2174.8000488281</ele>
        <time>2014-01-31T11:26:12.000Z</time>
      </trkpt>
      <trkpt lat="45.56315" lon="6.56363">
        <ele>2174.8000488281</ele>
        <time>2014-01-31T11:26:13.000Z</time>
      </trkpt>
      <trkpt lat="45.56315" lon="6.56363">
        <ele>2174.8000488281</ele>
        <time>2014-01-31T11:26:14.000Z</time>
      </trkpt>
      <trkpt lat="45.56315" lon="6.56363">
        <ele>2174.8000488281</ele>
        <time>2014-01-31T11:26:15.000Z</time>
      </trkpt>
      <trkpt lat="45.56315" lon="6.56363">
        <ele>2174.8000488281</ele>
        <time>2014-01-31T11:26:17.000Z</time>
      </trkpt>
      <trkpt lat="45.56315" lon="6.56363">
        <ele>2174.8000488281</ele>
        <time>2014-01-31T11:26:18.000Z</time>
      </trkpt>
      <trkpt lat="45.56315" lon="6.56363">
        <ele>2174.8000488281</ele>
        <time>2014-01-31T11:26:19.000Z</time>
      </trkpt>
      <trkpt lat="45.56315" lon="6.56363">
        <ele>2174.6000976562</ele>
        <time>2014-01-31T11:26:20.000Z</time>
      </trkpt>
      <trkpt lat="45.56315" lon="6.56363">
        <ele>2174.6000976562</ele>
        <time>2014-01-31T11:26:21.000Z</time>
      </trkpt>
      <trkpt lat="45.56315" lon="6.56363">
        <ele>2174.6000976562</ele>
        <time>2014-01-31T11:26:22.000Z</time>
      </trkpt>
      <trkpt lat="45.56315" lon="6.56363">
        <ele>2174.6000976562</ele>
        <time>2014-01-31T11:26:23.000Z</time>
      </trkpt>
      <trkpt lat="45.56315" lon="6.56363">
        <ele>2174.8000488281</ele>
        <time>2014-01-31T11:26:24.000Z</time>
      </trkpt>
      <trkpt lat="45.56315" lon="6.56363">
        <ele>2175</ele>
        <time>2014-01-31T11:26:25.000Z</time>
      </trkpt>
      <trkpt lat="45.56315" lon="6.56363">
        <ele>2175.1999511719</ele>
        <time>2014-01-31T11:26:26.000Z</time>
      </trkpt>
      <trkpt lat="45.56315" lon="6.56363">
        <ele>2175.1999511719</ele>
        <time>2014-01-31T11:26:27.000Z</time>
      </trkpt>
      <trkpt lat="45.56315" lon="6.56363">
        <ele>2175</ele>
        <time>2014-01-31T11:26:28.000Z</time>
      </trkpt>
      <trkpt lat="45.56315" lon="6.56363">
        <ele>2175</ele>
        <time>2014-01-31T11:26:29.000Z</time>
      </trkpt>
      <trkpt lat="45.56315" lon="6.56363">
        <ele>2175</ele>
        <time>2014-01-31T11:26:30.000Z</time>
      </trkpt>
      <trkpt lat="45.56315" lon="6.56363">
        <ele>2175</ele>
        <time>2014-01-31T11:26:31.000Z</time>
      </trkpt>
      <trkpt lat="45.56315" lon="6.56363">
        <ele>2174.8000488281</ele>
        <time>2014-01-31T11:26:32.000Z</time>
      </trkpt>
      <trkpt lat="45.56315" lon="6.56363">
        <ele>2174.8000488281</ele>
        <time>2014-01-31T11:26:33.000Z</time>
      </trkpt>
      <trkpt lat="45.56315" lon="6.56363">
        <ele>2174.8000488281</ele>
        <time>2014-01-31T11:26:34.000Z</time>
      </trkpt>
      <trkpt lat="45.56315" lon="6.56363">
        <ele>2174.8000488281</ele>
        <time>2014-01-31T11:26:35.000Z</time>
      </trkpt>
      <trkpt lat="45.56315" lon="6.56363">
        <ele>2174.8000488281</ele>
        <time>2014-01-31T11:26:36.000Z</time>
      </trkpt>
      <trkpt lat="45.56315" lon="6.56363">
        <ele>2174.8000488281</ele>
        <time>2014-01-31T11:26:37.000Z</time>
      </trkpt>
      <trkpt lat="45.56315" lon="6.56363">
        <ele>2174.8000488281</ele>
        <time>2014-01-31T11:26:38.000Z</time>
      </trkpt>
      <trkpt lat="45.56315" lon="6.56363">
        <ele>2175</ele>
        <time>2014-01-31T11:26:39.000Z</time>
      </trkpt>
      <trkpt lat="45.56315" lon="6.56363">
        <ele>2175</ele>
        <time>2014-01-31T11:26:40.000Z</time>
      </trkpt>
      <trkpt lat="45.56315" lon="6.56363">
        <ele>2175</ele>
        <time>2014-01-31T11:26:41.000Z</time>
      </trkpt>
      <trkpt lat="45.56315" lon="6.56363">
        <ele>2175</ele>
        <time>2014-01-31T11:26:42.000Z</time>
      </trkpt>
      <trkpt lat="45.56315" lon="6.56363">
        <ele>2175</ele>
        <time>2014-01-31T11:26:43.000Z</time>
      </trkpt>
      <trkpt lat="45.56315" lon="6.56363">
        <ele>2175</ele>
        <time>2014-01-31T11:26:44.000Z</time>
      </trkpt>
      <trkpt lat="45.56315" lon="6.56363">
        <ele>2175</ele>
        <time>2014-01-31T11:26:45.000Z</time>
      </trkpt>
      <trkpt lat="45.56315" lon="6.56363">
        <ele>2175</ele>
        <time>2014-01-31T11:26:46.000Z</time>
      </trkpt>
      <trkpt lat="45.56315" lon="6.56363">
        <ele>2175</ele>
        <time>2014-01-31T11:26:47.000Z</time>
      </trkpt>
      <trkpt lat="45.56315" lon="6.56363">
        <ele>2174.8000488281</ele>
        <time>2014-01-31T11:26:48.000Z</time>
      </trkpt>
      <trkpt lat="45.56315" lon="6.56363">
        <ele>2174.8000488281</ele>
        <time>2014-01-31T11:26:49.000Z</time>
      </trkpt>
      <trkpt lat="45.56315" lon="6.56363">
        <ele>2174.6000976562</ele>
        <time>2014-01-31T11:26:50.000Z</time>
      </trkpt>
      <trkpt lat="45.56315" lon="6.56363">
        <ele>2174.6000976562</ele>
        <time>2014-01-31T11:26:51.000Z</time>
      </trkpt>
      <trkpt lat="45.56315" lon="6.56363">
        <ele>2174.6000976562</ele>
        <time>2014-01-31T11:26:52.000Z</time>
      </trkpt>
      <trkpt lat="45.56315" lon="6.56363">
        <ele>2174.6000976562</ele>
        <time>2014-01-31T11:26:53.000Z</time>
      </trkpt>
      <trkpt lat="45.56315" lon="6.56363">
        <ele>2174.6000976562</ele>
        <time>2014-01-31T11:26:54.000Z</time>
      </trkpt>
      <trkpt lat="45.56315" lon="6.56363">
        <ele>2174.6000976562</ele>
        <time>2014-01-31T11:26:56.000Z</time>
      </trkpt>
      <trkpt lat="45.56315" lon="6.56363">
        <ele>2174.6000976562</ele>
        <time>2014-01-31T11:26:57.000Z</time>
      </trkpt>
      <trkpt lat="45.56315" lon="6.56363">
        <ele>2174.6000976562</ele>
        <time>2014-01-31T11:26:58.000Z</time>
      </trkpt>
      <trkpt lat="45.56315" lon="6.56363">
        <ele>2174.6000976562</ele>
        <time>2014-01-31T11:26:59.000Z</time>
      </trkpt>
      <trkpt lat="45.56315" lon="6.56363">
        <ele>2174.6000976562</ele>
        <time>2014-01-31T11:27:00.000Z</time>
      </trkpt>
      <trkpt lat="45.56315" lon="6.56363">
        <ele>2174.6000976562</ele>
        <time>2014-01-31T11:27:01.000Z</time>
      </trkpt>
      <trkpt lat="45.56315" lon="6.56363">
        <ele>2174.6000976562</ele>
        <time>2014-01-31T11:27:02.000Z</time>
      </trkpt>
      <trkpt lat="45.56315" lon="6.56363">
        <ele>2174.6000976562</ele>
        <time>2014-01-31T11:27:04.000Z</time>
      </trkpt>
      <trkpt lat="45.56315" lon="6.56363">
        <ele>2174.8000488281</ele>
        <time>2014-01-31T11:27:05.000Z</time>
      </trkpt>
      <trkpt lat="45.56315" lon="6.56363">
        <ele>2174.8000488281</ele>
        <time>2014-01-31T11:27:06.000Z</time>
      </trkpt>
      <trkpt lat="45.56315" lon="6.56363">
        <ele>2174.8000488281</ele>
        <time>2014-01-31T11:27:07.000Z</time>
      </trkpt>
      <trkpt lat="45.56315" lon="6.56363">
        <ele>2174.8000488281</ele>
        <time>2014-01-31T11:27:08.000Z</time>
      </trkpt>
      <trkpt lat="45.56315" lon="6.56363">
        <ele>2174.8000488281</ele>
        <time>2014-01-31T11:27:09.000Z</time>
      </trkpt>
      <trkpt lat="45.56315" lon="6.56363">
        <ele>2174.8000488281</ele>
        <time>2014-01-31T11:27:13.000Z</time>
      </trkpt>
      <trkpt lat="45.56315" lon="6.56363">
        <ele>2174.6000976562</ele>
        <time>2014-01-31T11:27:14.000Z</time>
      </trkpt>
      <trkpt lat="45.56315" lon="6.56363">
        <ele>2174.6000976562</ele>
        <time>2014-01-31T11:27:15.000Z</time>
      </trkpt>
      <trkpt lat="45.56315" lon="6.56363">
        <ele>2174.6000976562</ele>
        <time>2014-01-31T11:27:16.000Z</time>
      </trkpt>
      <trkpt lat="45.56315" lon="6.56363">
        <ele>2174.6000976562</ele>
        <time>2014-01-31T11:27:17.000Z</time>
      </trkpt>
      <trkpt lat="45.56315" lon="6.56363">
        <ele>2174.6000976562</ele>
        <time>2014-01-31T11:27:18.000Z</time>
      </trkpt>
      <trkpt lat="45.56315" lon="6.56363">
        <ele>2174.6000976562</ele>
        <time>2014-01-31T11:27:19.000Z</time>
      </trkpt>
      <trkpt lat="45.56315" lon="6.56363">
        <ele>2174.6000976562</ele>
        <time>2014-01-31T11:27:20.000Z</time>
      </trkpt>
      <trkpt lat="45.56315" lon="6.56363">
        <ele>2174.8000488281</ele>
        <time>2014-01-31T11:27:21.000Z</time>
      </trkpt>
      <trkpt lat="45.56315" lon="6.56363">
        <ele>2174.8000488281</ele>
        <time>2014-01-31T11:27:22.000Z</time>
      </trkpt>
      <trkpt lat="45.56315" lon="6.56363">
        <ele>2174.8000488281</ele>
        <time>2014-01-31T11:27:23.000Z</time>
      </trkpt>
      <trkpt lat="45.56315" lon="6.56363">
        <ele>2174.8000488281</ele>
        <time>2014-01-31T11:27:24.000Z</time>
      </trkpt>
      <trkpt lat="45.56315" lon="6.56363">
        <ele>2174.6000976562</ele>
        <time>2014-01-31T11:27:25.000Z</time>
      </trkpt>
      <trkpt lat="45.56315" lon="6.56363">
        <ele>2174.3999023438</ele>
        <time>2014-01-31T11:27:26.000Z</time>
      </trkpt>
      <trkpt lat="45.56315" lon="6.56363">
        <ele>2174.1999511719</ele>
        <time>2014-01-31T11:27:27.000Z</time>
      </trkpt>
      <trkpt lat="45.56315" lon="6.56363">
        <ele>2174.1999511719</ele>
        <time>2014-01-31T11:27:28.000Z</time>
      </trkpt>
      <trkpt lat="45.56315" lon="6.56363">
        <ele>2174.3999023438</ele>
        <time>2014-01-31T11:27:29.000Z</time>
      </trkpt>
      <trkpt lat="45.56315" lon="6.56363">
        <ele>2174.3999023438</ele>
        <time>2014-01-31T11:27:30.000Z</time>
      </trkpt>
      <trkpt lat="45.56315" lon="6.56363">
        <ele>2174.6000976562</ele>
        <time>2014-01-31T11:27:31.000Z</time>
      </trkpt>
      <trkpt lat="45.56315" lon="6.56363">
        <ele>2174.6000976562</ele>
        <time>2014-01-31T11:27:32.000Z</time>
      </trkpt>
      <trkpt lat="45.56315" lon="6.56363">
        <ele>2174.6000976562</ele>
        <time>2014-01-31T11:27:33.000Z</time>
      </trkpt>
      <trkpt lat="45.56315" lon="6.56363">
        <ele>2174.6000976562</ele>
        <time>2014-01-31T11:27:34.000Z</time>
      </trkpt>
      <trkpt lat="45.56315" lon="6.56363">
        <ele>2174.6000976562</ele>
        <time>2014-01-31T11:27:35.000Z</time>
      </trkpt>
      <trkpt lat="45.56315" lon="6.56363">
        <ele>2174.3999023438</ele>
        <time>2014-01-31T11:27:36.000Z</time>
      </trkpt>
      <trkpt lat="45.56315" lon="6.56363">
        <ele>2174.3999023438</ele>
        <time>2014-01-31T11:27:37.000Z</time>
      </trkpt>
      <trkpt lat="45.56315" lon="6.56363">
        <ele>2174.6000976562</ele>
        <time>2014-01-31T11:27:38.000Z</time>
      </trkpt>
      <trkpt lat="45.56315" lon="6.56363">
        <ele>2174.6000976562</ele>
        <time>2014-01-31T11:27:39.000Z</time>
      </trkpt>
      <trkpt lat="45.56315" lon="6.56363">
        <ele>2174.6000976562</ele>
        <time>2014-01-31T11:27:40.000Z</time>
      </trkpt>
      <trkpt lat="45.56315" lon="6.56363">
        <ele>2174.6000976562</ele>
        <time>2014-01-31T11:27:41.000Z</time>
      </trkpt>
      <trkpt lat="45.56315" lon="6.56363">
        <ele>2174.6000976562</ele>
        <time>2014-01-31T11:27:42.000Z</time>
      </trkpt>
      <trkpt lat="45.56315" lon="6.56363">
        <ele>2174.8000488281</ele>
        <time>2014-01-31T11:27:43.000Z</time>
      </trkpt>
      <trkpt lat="45.56315" lon="6.56363">
        <ele>2175</ele>
        <time>2014-01-31T11:27:44.000Z</time>
      </trkpt>
      <trkpt lat="45.56315" lon="6.56363">
        <ele>2175</ele>
        <time>2014-01-31T11:27:45.000Z</time>
      </trkpt>
      <trkpt lat="45.56315" lon="6.56363">
        <ele>2175.1999511719</ele>
        <time>2014-01-31T11:27:46.000Z</time>
      </trkpt>
      <trkpt lat="45.56315" lon="6.56363">
        <ele>2175.1999511719</ele>
        <time>2014-01-31T11:27:47.000Z</time>
      </trkpt>
      <trkpt lat="45.56315" lon="6.56363">
        <ele>2175.1999511719</ele>
        <time>2014-01-31T11:27:48.000Z</time>
      </trkpt>
      <trkpt lat="45.56315" lon="6.56363">
        <ele>2175</ele>
        <time>2014-01-31T11:27:49.000Z</time>
      </trkpt>
      <trkpt lat="45.56316" lon="6.56363">
        <ele>2175</ele>
        <time>2014-01-31T11:27:50.000Z</time>
      </trkpt>
      <trkpt lat="45.56316" lon="6.56363">
        <ele>2174.8000488281</ele>
        <time>2014-01-31T11:27:51.000Z</time>
      </trkpt>
      <trkpt lat="45.56316" lon="6.56363">
        <ele>2174.8000488281</ele>
        <time>2014-01-31T11:27:52.000Z</time>
      </trkpt>
      <trkpt lat="45.56316" lon="6.56363">
        <ele>2174.8000488281</ele>
        <time>2014-01-31T11:27:53.000Z</time>
      </trkpt>
      <trkpt lat="45.56316" lon="6.56363">
        <ele>2174.8000488281</ele>
        <time>2014-01-31T11:27:54.000Z</time>
      </trkpt>
      <trkpt lat="45.56316" lon="6.56363">
        <ele>2174.8000488281</ele>
        <time>2014-01-31T11:27:55.000Z</time>
      </trkpt>
      <trkpt lat="45.56316" lon="6.56363">
        <ele>2174.8000488281</ele>
        <time>2014-01-31T11:27:56.000Z</time>
      </trkpt>
      <trkpt lat="45.56316" lon="6.56363">
        <ele>2174.8000488281</ele>
        <time>2014-01-31T11:27:57.000Z</time>
      </trkpt>
      <trkpt lat="45.56316" lon="6.56363">
        <ele>2174.8000488281</ele>
        <time>2014-01-31T11:27:58.000Z</time>
      </trkpt>
      <trkpt lat="45.56316" lon="6.56363">
        <ele>2175</ele>
        <time>2014-01-31T11:27:59.000Z</time>
      </trkpt>
      <trkpt lat="45.56316" lon="6.56363">
        <ele>2175.1999511719</ele>
        <time>2014-01-31T11:28:00.000Z</time>
      </trkpt>
      <trkpt lat="45.56316" lon="6.56363">
        <ele>2175.1999511719</ele>
        <time>2014-01-31T11:28:01.000Z</time>
      </trkpt>
      <trkpt lat="45.56316" lon="6.56363">
        <ele>2175.1999511719</ele>
        <time>2014-01-31T11:28:02.000Z</time>
      </trkpt>
      <trkpt lat="45.56316" lon="6.56363">
        <ele>2175.1999511719</ele>
        <time>2014-01-31T11:28:03.000Z</time>
      </trkpt>
      <trkpt lat="45.56316" lon="6.56363">
        <ele>2175</ele>
        <time>2014-01-31T11:28:04.000Z</time>
      </trkpt>
      <trkpt lat="45.56316" lon="6.56363">
        <ele>2175</ele>
        <time>2014-01-31T11:28:05.000Z</time>
      </trkpt>
      <trkpt lat="45.56316" lon="6.56363">
        <ele>2174.8000488281</ele>
        <time>2014-01-31T11:28:06.000Z</time>
      </trkpt>
      <trkpt lat="45.56316" lon="6.56363">
        <ele>2174.8000488281</ele>
        <time>2014-01-31T11:28:07.000Z</time>
      </trkpt>
      <trkpt lat="45.56316" lon="6.56363">
        <ele>2174.8000488281</ele>
        <time>2014-01-31T11:28:08.000Z</time>
      </trkpt>
      <trkpt lat="45.56316" lon="6.56363">
        <ele>2174.8000488281</ele>
        <time>2014-01-31T11:28:09.000Z</time>
      </trkpt>
      <trkpt lat="45.56318" lon="6.56364">
        <ele>2174.8000488281</ele>
        <time>2014-01-31T11:28:11.000Z</time>
      </trkpt>
      <trkpt lat="45.56318" lon="6.56364">
        <ele>2175</ele>
        <time>2014-01-31T11:28:12.000Z</time>
      </trkpt>
      <trkpt lat="45.56319" lon="6.56364">
        <ele>2175</ele>
        <time>2014-01-31T11:28:13.000Z</time>
      </trkpt>
      <trkpt lat="45.5632" lon="6.56364">
        <ele>2175.1999511719</ele>
        <time>2014-01-31T11:28:14.000Z</time>
      </trkpt>
      <trkpt lat="45.5632" lon="6.56364">
        <ele>2175.3999023438</ele>
        <time>2014-01-31T11:28:15.000Z</time>
      </trkpt>
      <trkpt lat="45.5632" lon="6.56364">
        <ele>2175.3999023438</ele>
        <time>2014-01-31T11:28:16.000Z</time>
      </trkpt>
      <trkpt lat="45.5632" lon="6.56364">
        <ele>2175.6000976562</ele>
        <time>2014-01-31T11:28:17.000Z</time>
      </trkpt>
      <trkpt lat="45.5632" lon="6.56364">
        <ele>2175.6000976562</ele>
        <time>2014-01-31T11:28:18.000Z</time>
      </trkpt>
      <trkpt lat="45.5632" lon="6.56364">
        <ele>2175.8000488281</ele>
        <time>2014-01-31T11:28:19.000Z</time>
      </trkpt>
      <trkpt lat="45.5632" lon="6.56364">
        <ele>2175.8000488281</ele>
        <time>2014-01-31T11:28:20.000Z</time>
      </trkpt>
      <trkpt lat="45.5632" lon="6.56364">
        <ele>2175.8000488281</ele>
        <time>2014-01-31T11:28:21.000Z</time>
      </trkpt>
      <trkpt lat="45.5632" lon="6.56364">
        <ele>2175.8000488281</ele>
        <time>2014-01-31T11:28:22.000Z</time>
      </trkpt>
      <trkpt lat="45.5632" lon="6.56364">
        <ele>2175.8000488281</ele>
        <time>2014-01-31T11:28:23.000Z</time>
      </trkpt>
      <trkpt lat="45.5632" lon="6.56364">
        <ele>2175.8000488281</ele>
        <time>2014-01-31T11:28:24.000Z</time>
      </trkpt>
      <trkpt lat="45.5632" lon="6.56364">
        <ele>2175.8000488281</ele>
        <time>2014-01-31T11:28:26.000Z</time>
      </trkpt>
      <trkpt lat="45.5632" lon="6.56364">
        <ele>2175.8000488281</ele>
        <time>2014-01-31T11:28:32.000Z</time>
      </trkpt>
      <trkpt lat="45.5632" lon="6.56364">
        <ele>2175.8000488281</ele>
        <time>2014-01-31T11:28:34.000Z</time>
      </trkpt>
      <trkpt lat="45.5632" lon="6.56364">
        <ele>2175.8000488281</ele>
        <time>2014-01-31T11:28:35.000Z</time>
      </trkpt>
      <trkpt lat="45.5632" lon="6.56364">
        <ele>2175.8000488281</ele>
        <time>2014-01-31T11:28:36.000Z</time>
      </trkpt>
      <trkpt lat="45.5632" lon="6.56364">
        <ele>2175.8000488281</ele>
        <time>2014-01-31T11:28:37.000Z</time>
      </trkpt>
      <trkpt lat="45.5632" lon="6.56364">
        <ele>2175.8000488281</ele>
        <time>2014-01-31T11:28:38.000Z</time>
      </trkpt>
      <trkpt lat="45.5632" lon="6.56364">
        <ele>2175.8000488281</ele>
        <time>2014-01-31T11:28:39.000Z</time>
      </trkpt>
      <trkpt lat="45.5632" lon="6.56364">
        <ele>2175.8000488281</ele>
        <time>2014-01-31T11:28:40.000Z</time>
      </trkpt>
      <trkpt lat="45.5632" lon="6.56364">
        <ele>2175.8000488281</ele>
        <time>2014-01-31T11:28:41.000Z</time>
      </trkpt>
      <trkpt lat="45.5632" lon="6.56364">
        <ele>2175.8000488281</ele>
        <time>2014-01-31T11:28:42.000Z</time>
      </trkpt>
      <trkpt lat="45.5632" lon="6.56364">
        <ele>2175.8000488281</ele>
        <time>2014-01-31T11:28:43.000Z</time>
      </trkpt>
      <trkpt lat="45.5632" lon="6.56364">
        <ele>2175.8000488281</ele>
        <time>2014-01-31T11:28:44.000Z</time>
      </trkpt>
      <trkpt lat="45.5632" lon="6.56364">
        <ele>2175.8000488281</ele>
        <time>2014-01-31T11:28:50.000Z</time>
      </trkpt>
      <trkpt lat="45.5632" lon="6.56364">
        <ele>2175.8000488281</ele>
        <time>2014-01-31T11:28:51.000Z</time>
      </trkpt>
      <trkpt lat="45.5632" lon="6.56364">
        <ele>2175.8000488281</ele>
        <time>2014-01-31T11:28:52.000Z</time>
      </trkpt>
      <trkpt lat="45.56321" lon="6.56364">
        <ele>2175.8000488281</ele>
        <time>2014-01-31T11:28:57.000Z</time>
      </trkpt>
      <trkpt lat="45.56322" lon="6.56365">
        <ele>2175.6000976562</ele>
        <time>2014-01-31T11:28:58.000Z</time>
      </trkpt>
      <trkpt lat="45.56323" lon="6.56365">
        <ele>2175.8000488281</ele>
        <time>2014-01-31T11:28:59.000Z</time>
      </trkpt>
      <trkpt lat="45.56324" lon="6.56366">
        <ele>2175.6000976562</ele>
        <time>2014-01-31T11:29:00.000Z</time>
      </trkpt>
      <trkpt lat="45.56324" lon="6.56366">
        <ele>2175.8000488281</ele>
        <time>2014-01-31T11:29:01.000Z</time>
      </trkpt>
      <trkpt lat="45.56325" lon="6.56366">
        <ele>2175.8000488281</ele>
        <time>2014-01-31T11:29:02.000Z</time>
      </trkpt>
      <trkpt lat="45.56326" lon="6.56367">
        <ele>2176.1999511719</ele>
        <time>2014-01-31T11:29:03.000Z</time>
      </trkpt>
      <trkpt lat="45.56327" lon="6.56367">
        <ele>2176.3999023438</ele>
        <time>2014-01-31T11:29:04.000Z</time>
      </trkpt>
      <trkpt lat="45.56328" lon="6.56368">
        <ele>2176.3999023438</ele>
        <time>2014-01-31T11:29:05.000Z</time>
      </trkpt>
      <trkpt lat="45.56328" lon="6.56368">
        <ele>2176.6000976562</ele>
        <time>2014-01-31T11:29:06.000Z</time>
      </trkpt>
      <trkpt lat="45.56329" lon="6.56369">
        <ele>2176.6000976562</ele>
        <time>2014-01-31T11:29:07.000Z</time>
      </trkpt>
      <trkpt lat="45.5633" lon="6.56369">
        <ele>2176.6000976562</ele>
        <time>2014-01-31T11:29:08.000Z</time>
      </trkpt>
      <trkpt lat="45.5633" lon="6.5637">
        <ele>2176.6000976562</ele>
        <time>2014-01-31T11:29:09.000Z</time>
      </trkpt>
      <trkpt lat="45.56331" lon="6.56371">
        <ele>2176.8000488281</ele>
        <time>2014-01-31T11:29:10.000Z</time>
      </trkpt>
      <trkpt lat="45.56332" lon="6.56371">
        <ele>2176.8000488281</ele>
        <time>2014-01-31T11:29:11.000Z</time>
      </trkpt>
      <trkpt lat="45.56333" lon="6.56372">
        <ele>2177.1999511719</ele>
        <time>2014-01-31T11:29:12.000Z</time>
      </trkpt>
      <trkpt lat="45.56334" lon="6.56372">
        <ele>2177.3999023438</ele>
        <time>2014-01-31T11:29:13.000Z</time>
      </trkpt>
      <trkpt lat="45.56334" lon="6.56373">
        <ele>2178</ele>
        <time>2014-01-31T11:29:14.000Z</time>
      </trkpt>
      <trkpt lat="45.56335" lon="6.56373">
        <ele>2178.1999511719</ele>
        <time>2014-01-31T11:29:15.000Z</time>
      </trkpt>
      <trkpt lat="45.56336" lon="6.56374">
        <ele>2178.3999023438</ele>
        <time>2014-01-31T11:29:16.000Z</time>
      </trkpt>
      <trkpt lat="45.56336" lon="6.56374">
        <ele>2178.6000976562</ele>
        <time>2014-01-31T11:29:17.000Z</time>
      </trkpt>
      <trkpt lat="45.56337" lon="6.56374">
        <ele>2178.6000976562</ele>
        <time>2014-01-31T11:29:18.000Z</time>
      </trkpt>
      <trkpt lat="45.56337" lon="6.56375">
        <ele>2178.8000488281</ele>
        <time>2014-01-31T11:29:19.000Z</time>
      </trkpt>
      <trkpt lat="45.56338" lon="6.56375">
        <ele>2178.8000488281</ele>
        <time>2014-01-31T11:29:20.000Z</time>
      </trkpt>
      <trkpt lat="45.56339" lon="6.56376">
        <ele>2179</ele>
        <time>2014-01-31T11:29:21.000Z</time>
      </trkpt>
      <trkpt lat="45.56339" lon="6.56377">
        <ele>2179</ele>
        <time>2014-01-31T11:29:22.000Z</time>
      </trkpt>
      <trkpt lat="45.5634" lon="6.56376">
        <ele>2179</ele>
        <time>2014-01-31T11:29:23.000Z</time>
      </trkpt>
      <trkpt lat="45.56341" lon="6.56376">
        <ele>2179.1999511719</ele>
        <time>2014-01-31T11:29:24.000Z</time>
      </trkpt>
      <trkpt lat="45.56341" lon="6.56375">
        <ele>2179.1999511719</ele>
        <time>2014-01-31T11:29:25.000Z</time>
      </trkpt>
      <trkpt lat="45.56341" lon="6.56375">
        <ele>2179.3999023438</ele>
        <time>2014-01-31T11:29:26.000Z</time>
      </trkpt>
      <trkpt lat="45.56341" lon="6.56374">
        <ele>2179.6000976562</ele>
        <time>2014-01-31T11:29:27.000Z</time>
      </trkpt>
      <trkpt lat="45.56342" lon="6.56374">
        <ele>2179.6000976562</ele>
        <time>2014-01-31T11:29:28.000Z</time>
      </trkpt>
      <trkpt lat="45.56342" lon="6.56373">
        <ele>2179.6000976562</ele>
        <time>2014-01-31T11:29:29.000Z</time>
      </trkpt>
      <trkpt lat="45.56342" lon="6.56372">
        <ele>2180</ele>
        <time>2014-01-31T11:29:30.000Z</time>
      </trkpt>
      <trkpt lat="45.56342" lon="6.56372">
        <ele>2180</ele>
        <time>2014-01-31T11:29:31.000Z</time>
      </trkpt>
      <trkpt lat="45.56343" lon="6.56371">
        <ele>2180.3999023438</ele>
        <time>2014-01-31T11:29:32.000Z</time>
      </trkpt>
      <trkpt lat="45.56343" lon="6.5637">
        <ele>2180.3999023438</ele>
        <time>2014-01-31T11:29:33.000Z</time>
      </trkpt>
      <trkpt lat="45.56343" lon="6.56369">
        <ele>2180.8000488281</ele>
        <time>2014-01-31T11:29:34.000Z</time>
      </trkpt>
      <trkpt lat="45.56344" lon="6.56369">
        <ele>2180.8000488281</ele>
        <time>2014-01-31T11:29:35.000Z</time>
      </trkpt>
      <trkpt lat="45.56344" lon="6.56368">
        <ele>2181.3999023438</ele>
        <time>2014-01-31T11:29:36.000Z</time>
      </trkpt>
      <trkpt lat="45.56345" lon="6.56367">
        <ele>2181.3999023438</ele>
        <time>2014-01-31T11:29:37.000Z</time>
      </trkpt>
      <trkpt lat="45.56345" lon="6.56367">
        <ele>2181.6000976562</ele>
        <time>2014-01-31T11:29:38.000Z</time>
      </trkpt>
      <trkpt lat="45.56346" lon="6.56367">
        <ele>2182.1999511719</ele>
        <time>2014-01-31T11:29:39.000Z</time>
      </trkpt>
      <trkpt lat="45.56347" lon="6.56367">
        <ele>2182.1999511719</ele>
        <time>2014-01-31T11:29:40.000Z</time>
      </trkpt>
      <trkpt lat="45.56348" lon="6.56367">
        <ele>2182.6000976562</ele>
        <time>2014-01-31T11:29:41.000Z</time>
      </trkpt>
      <trkpt lat="45.56348" lon="6.56367">
        <ele>2182.6000976562</ele>
        <time>2014-01-31T11:29:42.000Z</time>
      </trkpt>
      <trkpt lat="45.56349" lon="6.56367">
        <ele>2182.8000488281</ele>
        <time>2014-01-31T11:29:43.000Z</time>
      </trkpt>
      <trkpt lat="45.56351" lon="6.56367">
        <ele>2183</ele>
        <time>2014-01-31T11:29:44.000Z</time>
      </trkpt>
      <trkpt lat="45.56351" lon="6.56367">
        <ele>2183.3999023438</ele>
        <time>2014-01-31T11:29:45.000Z</time>
      </trkpt>
      <trkpt lat="45.56351" lon="6.56367">
        <ele>2183.3999023438</ele>
        <time>2014-01-31T11:29:46.000Z</time>
      </trkpt>
      <trkpt lat="45.56352" lon="6.56367">
        <ele>2183.8000488281</ele>
        <time>2014-01-31T11:29:47.000Z</time>
      </trkpt>
      <trkpt lat="45.56352" lon="6.56367">
        <ele>2184</ele>
        <time>2014-01-31T11:29:48.000Z</time>
      </trkpt>
      <trkpt lat="45.56352" lon="6.56367">
        <ele>2184.1999511719</ele>
        <time>2014-01-31T11:29:49.000Z</time>
      </trkpt>
      <trkpt lat="45.56352" lon="6.56367">
        <ele>2184.1999511719</ele>
        <time>2014-01-31T11:29:50.000Z</time>
      </trkpt>
      <trkpt lat="45.56352" lon="6.56367">
        <ele>2184.1999511719</ele>
        <time>2014-01-31T11:29:51.000Z</time>
      </trkpt>
      <trkpt lat="45.56352" lon="6.56367">
        <ele>2184.1999511719</ele>
        <time>2014-01-31T11:29:56.000Z</time>
      </trkpt>
      <trkpt lat="45.56352" lon="6.56367">
        <ele>2184.1999511719</ele>
        <time>2014-01-31T11:29:57.000Z</time>
      </trkpt>
      <trkpt lat="45.56354" lon="6.56367">
        <ele>2184</ele>
        <time>2014-01-31T11:29:58.000Z</time>
      </trkpt>
      <trkpt lat="45.56355" lon="6.56367">
        <ele>2184</ele>
        <time>2014-01-31T11:29:59.000Z</time>
      </trkpt>
      <trkpt lat="45.56355" lon="6.56366">
        <ele>2184</ele>
        <time>2014-01-31T11:30:00.000Z</time>
      </trkpt>
      <trkpt lat="45.56357" lon="6.56366">
        <ele>2184</ele>
        <time>2014-01-31T11:30:01.000Z</time>
      </trkpt>
      <trkpt lat="45.56358" lon="6.56367">
        <ele>2184</ele>
        <time>2014-01-31T11:30:02.000Z</time>
      </trkpt>
      <trkpt lat="45.56359" lon="6.56366">
        <ele>2184.1999511719</ele>
        <time>2014-01-31T11:30:03.000Z</time>
      </trkpt>
      <trkpt lat="45.56361" lon="6.56366">
        <ele>2184.1999511719</ele>
        <time>2014-01-31T11:30:04.000Z</time>
      </trkpt>
      <trkpt lat="45.56362" lon="6.56365">
        <ele>2184.3999023438</ele>
        <time>2014-01-31T11:30:05.000Z</time>
      </trkpt>
      <trkpt lat="45.56362" lon="6.56365">
        <ele>2184.3999023438</ele>
        <time>2014-01-31T11:30:06.000Z</time>
      </trkpt>
      <trkpt lat="45.56363" lon="6.56365">
        <ele>2184.3999023438</ele>
        <time>2014-01-31T11:30:07.000Z</time>
      </trkpt>
      <trkpt lat="45.56365" lon="6.56364">
        <ele>2184.6000976562</ele>
        <time>2014-01-31T11:30:08.000Z</time>
      </trkpt>
      <trkpt lat="45.56365" lon="6.56364">
        <ele>2184.6000976562</ele>
        <time>2014-01-31T11:30:09.000Z</time>
      </trkpt>
      <trkpt lat="45.56366" lon="6.56365">
        <ele>2184.6000976562</ele>
        <time>2014-01-31T11:30:10.000Z</time>
      </trkpt>
      <trkpt lat="45.56367" lon="6.56365">
        <ele>2184.6000976562</ele>
        <time>2014-01-31T11:30:12.000Z</time>
      </trkpt>
      <trkpt lat="45.56368" lon="6.56366">
        <ele>2184.6000976562</ele>
        <time>2014-01-31T11:30:13.000Z</time>
      </trkpt>
      <trkpt lat="45.5637" lon="6.56366">
        <ele>2184.8000488281</ele>
        <time>2014-01-31T11:30:14.000Z</time>
      </trkpt>
      <trkpt lat="45.5637" lon="6.56366">
        <ele>2184.8000488281</ele>
        <time>2014-01-31T11:30:15.000Z</time>
      </trkpt>
      <trkpt lat="45.5637" lon="6.56365">
        <ele>2184.8000488281</ele>
        <time>2014-01-31T11:30:16.000Z</time>
      </trkpt>
      <trkpt lat="45.56371" lon="6.56365">
        <ele>2185</ele>
        <time>2014-01-31T11:30:17.000Z</time>
      </trkpt>
      <trkpt lat="45.56372" lon="6.56365">
        <ele>2185</ele>
        <time>2014-01-31T11:30:18.000Z</time>
      </trkpt>
      <trkpt lat="45.56374" lon="6.56364">
        <ele>2185</ele>
        <time>2014-01-31T11:30:19.000Z</time>
      </trkpt>
      <trkpt lat="45.56374" lon="6.56364">
        <ele>2185.1999511719</ele>
        <time>2014-01-31T11:30:20.000Z</time>
      </trkpt>
      <trkpt lat="45.56374" lon="6.56364">
        <ele>2185.3999023438</ele>
        <time>2014-01-31T11:30:21.000Z</time>
      </trkpt>
      <trkpt lat="45.56376" lon="6.56363">
        <ele>2185.6000976562</ele>
        <time>2014-01-31T11:30:22.000Z</time>
      </trkpt>
      <trkpt lat="45.56376" lon="6.56363">
        <ele>2185.8000488281</ele>
        <time>2014-01-31T11:30:23.000Z</time>
      </trkpt>
      <trkpt lat="45.56378" lon="6.56362">
        <ele>2185.8000488281</ele>
        <time>2014-01-31T11:30:24.000Z</time>
      </trkpt>
      <trkpt lat="45.56378" lon="6.56362">
        <ele>2186</ele>
        <time>2014-01-31T11:30:25.000Z</time>
      </trkpt>
      <trkpt lat="45.56379" lon="6.56362">
        <ele>2186.3999023438</ele>
        <time>2014-01-31T11:30:26.000Z</time>
      </trkpt>
      <trkpt lat="45.5638" lon="6.56361">
        <ele>2186.6000976562</ele>
        <time>2014-01-31T11:30:27.000Z</time>
      </trkpt>
      <trkpt lat="45.5638" lon="6.56361">
        <ele>2186.6000976562</ele>
        <time>2014-01-31T11:30:28.000Z</time>
      </trkpt>
      <trkpt lat="45.56381" lon="6.56361">
        <ele>2186.8000488281</ele>
        <time>2014-01-31T11:30:29.000Z</time>
      </trkpt>
      <trkpt lat="45.56381" lon="6.56361">
        <ele>2186.8000488281</ele>
        <time>2014-01-31T11:30:30.000Z</time>
      </trkpt>
      <trkpt lat="45.56382" lon="6.5636">
        <ele>2187.1999511719</ele>
        <time>2014-01-31T11:30:31.000Z</time>
      </trkpt>
      <trkpt lat="45.56383" lon="6.5636">
        <ele>2187.3999023438</ele>
        <time>2014-01-31T11:30:32.000Z</time>
      </trkpt>
      <trkpt lat="45.56383" lon="6.5636">
        <ele>2187.8000488281</ele>
        <time>2014-01-31T11:30:33.000Z</time>
      </trkpt>
      <trkpt lat="45.56385" lon="6.5636">
        <ele>2187.8000488281</ele>
        <time>2014-01-31T11:30:34.000Z</time>
      </trkpt>
      <trkpt lat="45.56385" lon="6.5636">
        <ele>2187.8000488281</ele>
        <time>2014-01-31T11:30:35.000Z</time>
      </trkpt>
      <trkpt lat="45.56386" lon="6.56361">
        <ele>2188</ele>
        <time>2014-01-31T11:30:36.000Z</time>
      </trkpt>
      <trkpt lat="45.56387" lon="6.56361">
        <ele>2188</ele>
        <time>2014-01-31T11:30:37.000Z</time>
      </trkpt>
      <trkpt lat="45.56387" lon="6.56361">
        <ele>2188.3999023438</ele>
        <time>2014-01-31T11:30:38.000Z</time>
      </trkpt>
      <trkpt lat="45.56389" lon="6.5636">
        <ele>2188.8000488281</ele>
        <time>2014-01-31T11:30:39.000Z</time>
      </trkpt>
      <trkpt lat="45.5639" lon="6.56361">
        <ele>2189</ele>
        <time>2014-01-31T11:30:40.000Z</time>
      </trkpt>
      <trkpt lat="45.56391" lon="6.56361">
        <ele>2189.1999511719</ele>
        <time>2014-01-31T11:30:41.000Z</time>
      </trkpt>
      <trkpt lat="45.56391" lon="6.56361">
        <ele>2189.1999511719</ele>
        <time>2014-01-31T11:30:42.000Z</time>
      </trkpt>
      <trkpt lat="45.56391" lon="6.56361">
        <ele>2189.3999023438</ele>
        <time>2014-01-31T11:30:43.000Z</time>
      </trkpt>
      <trkpt lat="45.56393" lon="6.5636">
        <ele>2189.6000976562</ele>
        <time>2014-01-31T11:30:44.000Z</time>
      </trkpt>
      <trkpt lat="45.56393" lon="6.5636">
        <ele>2189.8000488281</ele>
        <time>2014-01-31T11:30:45.000Z</time>
      </trkpt>
      <trkpt lat="45.56394" lon="6.56359">
        <ele>2190</ele>
        <time>2014-01-31T11:30:46.000Z</time>
      </trkpt>
      <trkpt lat="45.56395" lon="6.56359">
        <ele>2190.1999511719</ele>
        <time>2014-01-31T11:30:47.000Z</time>
      </trkpt>
      <trkpt lat="45.56396" lon="6.56358">
        <ele>2190.3999023438</ele>
        <time>2014-01-31T11:30:48.000Z</time>
      </trkpt>
      <trkpt lat="45.56397" lon="6.56358">
        <ele>2190.6000976562</ele>
        <time>2014-01-31T11:30:49.000Z</time>
      </trkpt>
      <trkpt lat="45.56397" lon="6.56358">
        <ele>2190.8000488281</ele>
        <time>2014-01-31T11:30:50.000Z</time>
      </trkpt>
      <trkpt lat="45.56398" lon="6.56358">
        <ele>2191</ele>
        <time>2014-01-31T11:30:51.000Z</time>
      </trkpt>
      <trkpt lat="45.56398" lon="6.56357">
        <ele>2191.3999023438</ele>
        <time>2014-01-31T11:30:52.000Z</time>
      </trkpt>
      <trkpt lat="45.56399" lon="6.56357">
        <ele>2191.3999023438</ele>
        <time>2014-01-31T11:30:53.000Z</time>
      </trkpt>
      <trkpt lat="45.56399" lon="6.56357">
        <ele>2191.6000976562</ele>
        <time>2014-01-31T11:30:54.000Z</time>
      </trkpt>
      <trkpt lat="45.564" lon="6.56356">
        <ele>2191.6000976562</ele>
        <time>2014-01-31T11:30:55.000Z</time>
      </trkpt>
      <trkpt lat="45.564" lon="6.56356">
        <ele>2191.8000488281</ele>
        <time>2014-01-31T11:30:56.000Z</time>
      </trkpt>
      <trkpt lat="45.56402" lon="6.56355">
        <ele>2191.8000488281</ele>
        <time>2014-01-31T11:30:57.000Z</time>
      </trkpt>
      <trkpt lat="45.56402" lon="6.56355">
        <ele>2192</ele>
        <time>2014-01-31T11:30:58.000Z</time>
      </trkpt>
      <trkpt lat="45.56404" lon="6.56355">
        <ele>2192</ele>
        <time>2014-01-31T11:30:59.000Z</time>
      </trkpt>
      <trkpt lat="45.56404" lon="6.56355">
        <ele>2192</ele>
        <time>2014-01-31T11:31:00.000Z</time>
      </trkpt>
      <trkpt lat="45.56404" lon="6.56355">
        <ele>2192.1999511719</ele>
        <time>2014-01-31T11:31:01.000Z</time>
      </trkpt>
      <trkpt lat="45.56406" lon="6.56354">
        <ele>2192.3999023438</ele>
        <time>2014-01-31T11:31:02.000Z</time>
      </trkpt>
      <trkpt lat="45.56406" lon="6.56354">
        <ele>2192.6000976562</ele>
        <time>2014-01-31T11:31:03.000Z</time>
      </trkpt>
      <trkpt lat="45.56407" lon="6.56354">
        <ele>2192.8000488281</ele>
        <time>2014-01-31T11:31:04.000Z</time>
      </trkpt>
      <trkpt lat="45.56407" lon="6.56354">
        <ele>2193.1999511719</ele>
        <time>2014-01-31T11:31:05.000Z</time>
      </trkpt>
      <trkpt lat="45.56408" lon="6.56353">
        <ele>2193.1999511719</ele>
        <time>2014-01-31T11:31:06.000Z</time>
      </trkpt>
      <trkpt lat="45.5641" lon="6.56352">
        <ele>2193.3999023438</ele>
        <time>2014-01-31T11:31:07.000Z</time>
      </trkpt>
      <trkpt lat="45.5641" lon="6.56351">
        <ele>2193.3999023438</ele>
        <time>2014-01-31T11:31:08.000Z</time>
      </trkpt>
      <trkpt lat="45.56411" lon="6.56351">
        <ele>2193.6000976562</ele>
        <time>2014-01-31T11:31:09.000Z</time>
      </trkpt>
      <trkpt lat="45.56412" lon="6.56349">
        <ele>2194</ele>
        <time>2014-01-31T11:31:10.000Z</time>
      </trkpt>
      <trkpt lat="45.56412" lon="6.56349">
        <ele>2194.1999511719</ele>
        <time>2014-01-31T11:31:11.000Z</time>
      </trkpt>
      <trkpt lat="45.56413" lon="6.56348">
        <ele>2194.1999511719</ele>
        <time>2014-01-31T11:31:12.000Z</time>
      </trkpt>
      <trkpt lat="45.56413" lon="6.56348">
        <ele>2194.1999511719</ele>
        <time>2014-01-31T11:31:13.000Z</time>
      </trkpt>
      <trkpt lat="45.56414" lon="6.56348">
        <ele>2194.6000976562</ele>
        <time>2014-01-31T11:31:14.000Z</time>
      </trkpt>
      <trkpt lat="45.56415" lon="6.56348">
        <ele>2194.8000488281</ele>
        <time>2014-01-31T11:31:15.000Z</time>
      </trkpt>
      <trkpt lat="45.56415" lon="6.56347">
        <ele>2195</ele>
        <time>2014-01-31T11:31:16.000Z</time>
      </trkpt>
      <trkpt lat="45.56417" lon="6.56346">
        <ele>2195</ele>
        <time>2014-01-31T11:31:17.000Z</time>
      </trkpt>
      <trkpt lat="45.56417" lon="6.56346">
        <ele>2195</ele>
        <time>2014-01-31T11:31:18.000Z</time>
      </trkpt>
      <trkpt lat="45.56418" lon="6.56345">
        <ele>2195.1999511719</ele>
        <time>2014-01-31T11:31:19.000Z</time>
      </trkpt>
      <trkpt lat="45.56418" lon="6.56345">
        <ele>2195.1999511719</ele>
        <time>2014-01-31T11:31:20.000Z</time>
      </trkpt>
      <trkpt lat="45.56419" lon="6.56345">
        <ele>2195.3999023438</ele>
        <time>2014-01-31T11:31:21.000Z</time>
      </trkpt>
      <trkpt lat="45.5642" lon="6.56344">
        <ele>2195.6000976562</ele>
        <time>2014-01-31T11:31:22.000Z</time>
      </trkpt>
      <trkpt lat="45.5642" lon="6.56345">
        <ele>2195.8000488281</ele>
        <time>2014-01-31T11:31:23.000Z</time>
      </trkpt>
      <trkpt lat="45.56421" lon="6.56344">
        <ele>2195.8000488281</ele>
        <time>2014-01-31T11:31:24.000Z</time>
      </trkpt>
      <trkpt lat="45.56422" lon="6.56344">
        <ele>2196</ele>
        <time>2014-01-31T11:31:25.000Z</time>
      </trkpt>
      <trkpt lat="45.56423" lon="6.56344">
        <ele>2196</ele>
        <time>2014-01-31T11:31:26.000Z</time>
      </trkpt>
      <trkpt lat="45.56424" lon="6.56344">
        <ele>2196.1999511719</ele>
        <time>2014-01-31T11:31:27.000Z</time>
      </trkpt>
      <trkpt lat="45.56424" lon="6.56343">
        <ele>2196.3999023438</ele>
        <time>2014-01-31T11:31:28.000Z</time>
      </trkpt>
      <trkpt lat="45.56425" lon="6.56343">
        <ele>2196.6000976562</ele>
        <time>2014-01-31T11:31:29.000Z</time>
      </trkpt>
      <trkpt lat="45.56425" lon="6.56343">
        <ele>2196.8000488281</ele>
        <time>2014-01-31T11:31:30.000Z</time>
      </trkpt>
      <trkpt lat="45.56426" lon="6.56342">
        <ele>2196.8000488281</ele>
        <time>2014-01-31T11:31:31.000Z</time>
      </trkpt>
      <trkpt lat="45.56427" lon="6.56342">
        <ele>2196.8000488281</ele>
        <time>2014-01-31T11:31:32.000Z</time>
      </trkpt>
      <trkpt lat="45.56427" lon="6.56341">
        <ele>2196.8000488281</ele>
        <time>2014-01-31T11:31:33.000Z</time>
      </trkpt>
      <trkpt lat="45.56428" lon="6.56341">
        <ele>2197.1999511719</ele>
        <time>2014-01-31T11:31:34.000Z</time>
      </trkpt>
      <trkpt lat="45.56429" lon="6.56341">
        <ele>2197.1999511719</ele>
        <time>2014-01-31T11:31:35.000Z</time>
      </trkpt>
      <trkpt lat="45.5643" lon="6.5634">
        <ele>2197.6000976562</ele>
        <time>2014-01-31T11:31:36.000Z</time>
      </trkpt>
      <trkpt lat="45.56431" lon="6.5634">
        <ele>2197.6000976562</ele>
        <time>2014-01-31T11:31:37.000Z</time>
      </trkpt>
      <trkpt lat="45.56432" lon="6.56339">
        <ele>2198.1999511719</ele>
        <time>2014-01-31T11:31:38.000Z</time>
      </trkpt>
      <trkpt lat="45.56432" lon="6.56339">
        <ele>2198.3999023438</ele>
        <time>2014-01-31T11:31:39.000Z</time>
      </trkpt>
      <trkpt lat="45.56433" lon="6.56338">
        <ele>2198.3999023438</ele>
        <time>2014-01-31T11:31:40.000Z</time>
      </trkpt>
      <trkpt lat="45.56434" lon="6.56337">
        <ele>2198.6000976562</ele>
        <time>2014-01-31T11:31:41.000Z</time>
      </trkpt>
      <trkpt lat="45.56435" lon="6.56337">
        <ele>2198.6000976562</ele>
        <time>2014-01-31T11:31:42.000Z</time>
      </trkpt>
      <trkpt lat="45.56435" lon="6.56337">
        <ele>2198.8000488281</ele>
        <time>2014-01-31T11:31:43.000Z</time>
      </trkpt>
      <trkpt lat="45.56436" lon="6.56336">
        <ele>2199</ele>
        <time>2014-01-31T11:31:44.000Z</time>
      </trkpt>
      <trkpt lat="45.56436" lon="6.56336">
        <ele>2199.1999511719</ele>
        <time>2014-01-31T11:31:45.000Z</time>
      </trkpt>
      <trkpt lat="45.56437" lon="6.56336">
        <ele>2199.6000976562</ele>
        <time>2014-01-31T11:31:46.000Z</time>
      </trkpt>
      <trkpt lat="45.56437" lon="6.56335">
        <ele>2199.6000976562</ele>
        <time>2014-01-31T11:31:47.000Z</time>
      </trkpt>
      <trkpt lat="45.56438" lon="6.56335">
        <ele>2200</ele>
        <time>2014-01-31T11:31:48.000Z</time>
      </trkpt>
      <trkpt lat="45.56438" lon="6.56335">
        <ele>2199.8000488281</ele>
        <time>2014-01-31T11:31:49.000Z</time>
      </trkpt>
      <trkpt lat="45.56439" lon="6.56334">
        <ele>2200.1999511719</ele>
        <time>2014-01-31T11:31:50.000Z</time>
      </trkpt>
      <trkpt lat="45.56439" lon="6.56334">
        <ele>2200.1999511719</ele>
        <time>2014-01-31T11:31:51.000Z</time>
      </trkpt>
      <trkpt lat="45.5644" lon="6.56333">
        <ele>2200.3999023438</ele>
        <time>2014-01-31T11:31:52.000Z</time>
      </trkpt>
      <trkpt lat="45.5644" lon="6.56333">
        <ele>2200.6000976562</ele>
        <time>2014-01-31T11:31:53.000Z</time>
      </trkpt>
      <trkpt lat="45.5644" lon="6.56333">
        <ele>2200.6000976562</ele>
        <time>2014-01-31T11:31:54.000Z</time>
      </trkpt>
      <trkpt lat="45.56441" lon="6.56333">
        <ele>2201</ele>
        <time>2014-01-31T11:31:55.000Z</time>
      </trkpt>
      <trkpt lat="45.56441" lon="6.56333">
        <ele>2201.1999511719</ele>
        <time>2014-01-31T11:31:56.000Z</time>
      </trkpt>
      <trkpt lat="45.56441" lon="6.56333">
        <ele>2201.3999023438</ele>
        <time>2014-01-31T11:31:57.000Z</time>
      </trkpt>
      <trkpt lat="45.56441" lon="6.56333">
        <ele>2201.6000976562</ele>
        <time>2014-01-31T11:31:58.000Z</time>
      </trkpt>
      <trkpt lat="45.56441" lon="6.56333">
        <ele>2201.8000488281</ele>
        <time>2014-01-31T11:31:59.000Z</time>
      </trkpt>
      <trkpt lat="45.56441" lon="6.56333">
        <ele>2201.8000488281</ele>
        <time>2014-01-31T11:32:01.000Z</time>
      </trkpt>
      <trkpt lat="45.56441" lon="6.56333">
        <ele>2201.8000488281</ele>
        <time>2014-01-31T11:32:02.000Z</time>
      </trkpt>
      <trkpt lat="45.56441" lon="6.56332">
        <ele>2201.8000488281</ele>
        <time>2014-01-31T11:32:03.000Z</time>
      </trkpt>
      <trkpt lat="45.56442" lon="6.56332">
        <ele>2201.8000488281</ele>
        <time>2014-01-31T11:32:04.000Z</time>
      </trkpt>
      <trkpt lat="45.56442" lon="6.56332">
        <ele>2201.8000488281</ele>
        <time>2014-01-31T11:32:05.000Z</time>
      </trkpt>
      <trkpt lat="45.56443" lon="6.56331">
        <ele>2202</ele>
        <time>2014-01-31T11:32:06.000Z</time>
      </trkpt>
      <trkpt lat="45.56444" lon="6.5633">
        <ele>2202</ele>
        <time>2014-01-31T11:32:07.000Z</time>
      </trkpt>
      <trkpt lat="45.56444" lon="6.5633">
        <ele>2202.1999511719</ele>
        <time>2014-01-31T11:32:08.000Z</time>
      </trkpt>
      <trkpt lat="45.56446" lon="6.56329">
        <ele>2202.3999023438</ele>
        <time>2014-01-31T11:32:09.000Z</time>
      </trkpt>
      <trkpt lat="45.56446" lon="6.56329">
        <ele>2202.6000976562</ele>
        <time>2014-01-31T11:32:10.000Z</time>
      </trkpt>
      <trkpt lat="45.56447" lon="6.56329">
        <ele>2202.8000488281</ele>
        <time>2014-01-31T11:32:11.000Z</time>
      </trkpt>
      <trkpt lat="45.56447" lon="6.56328">
        <ele>2203.3999023438</ele>
        <time>2014-01-31T11:32:12.000Z</time>
      </trkpt>
      <trkpt lat="45.56448" lon="6.56328">
        <ele>2203.6000976562</ele>
        <time>2014-01-31T11:32:13.000Z</time>
      </trkpt>
      <trkpt lat="45.5645" lon="6.56327">
        <ele>2204</ele>
        <time>2014-01-31T11:32:14.000Z</time>
      </trkpt>
      <trkpt lat="45.5645" lon="6.56327">
        <ele>2204.1999511719</ele>
        <time>2014-01-31T11:32:15.000Z</time>
      </trkpt>
      <trkpt lat="45.5645" lon="6.56326">
        <ele>2204.1999511719</ele>
        <time>2014-01-31T11:32:16.000Z</time>
      </trkpt>
      <trkpt lat="45.56451" lon="6.56326">
        <ele>2204.1999511719</ele>
        <time>2014-01-31T11:32:17.000Z</time>
      </trkpt>
      <trkpt lat="45.56452" lon="6.56326">
        <ele>2204.3999023438</ele>
        <time>2014-01-31T11:32:18.000Z</time>
      </trkpt>
      <trkpt lat="45.56452" lon="6.56326">
        <ele>2204.3999023438</ele>
        <time>2014-01-31T11:32:19.000Z</time>
      </trkpt>
      <trkpt lat="45.56453" lon="6.56325">
        <ele>2204.6000976562</ele>
        <time>2014-01-31T11:32:20.000Z</time>
      </trkpt>
      <trkpt lat="45.56455" lon="6.56324">
        <ele>2205</ele>
        <time>2014-01-31T11:32:21.000Z</time>
      </trkpt>
      <trkpt lat="45.56455" lon="6.56324">
        <ele>2205.1999511719</ele>
        <time>2014-01-31T11:32:22.000Z</time>
      </trkpt>
      <trkpt lat="45.56456" lon="6.56324">
        <ele>2205.6000976562</ele>
        <time>2014-01-31T11:32:23.000Z</time>
      </trkpt>
      <trkpt lat="45.56457" lon="6.56324">
        <ele>2205.8000488281</ele>
        <time>2014-01-31T11:32:24.000Z</time>
      </trkpt>
      <trkpt lat="45.56458" lon="6.56324">
        <ele>2205.8000488281</ele>
        <time>2014-01-31T11:32:25.000Z</time>
      </trkpt>
      <trkpt lat="45.56459" lon="6.56324">
        <ele>2206</ele>
        <time>2014-01-31T11:32:26.000Z</time>
      </trkpt>
      <trkpt lat="45.56459" lon="6.56324">
        <ele>2206</ele>
        <time>2014-01-31T11:32:27.000Z</time>
      </trkpt>
      <trkpt lat="45.56461" lon="6.56324">
        <ele>2206.1999511719</ele>
        <time>2014-01-31T11:32:28.000Z</time>
      </trkpt>
      <trkpt lat="45.56461" lon="6.56324">
        <ele>2206.6000976562</ele>
        <time>2014-01-31T11:32:29.000Z</time>
      </trkpt>
      <trkpt lat="45.56463" lon="6.56324">
        <ele>2206.8000488281</ele>
        <time>2014-01-31T11:32:30.000Z</time>
      </trkpt>
      <trkpt lat="45.56464" lon="6.56324">
        <ele>2207</ele>
        <time>2014-01-31T11:32:31.000Z</time>
      </trkpt>
      <trkpt lat="45.56465" lon="6.56324">
        <ele>2207.1999511719</ele>
        <time>2014-01-31T11:32:32.000Z</time>
      </trkpt>
      <trkpt lat="45.56467" lon="6.56324">
        <ele>2207.1999511719</ele>
        <time>2014-01-31T11:32:33.000Z</time>
      </trkpt>
      <trkpt lat="45.56467" lon="6.56323">
        <ele>2207.1999511719</ele>
        <time>2014-01-31T11:32:34.000Z</time>
      </trkpt>
      <trkpt lat="45.56468" lon="6.56323">
        <ele>2207.1999511719</ele>
        <time>2014-01-31T11:32:35.000Z</time>
      </trkpt>
      <trkpt lat="45.5647" lon="6.56323">
        <ele>2207.1999511719</ele>
        <time>2014-01-31T11:32:36.000Z</time>
      </trkpt>
      <trkpt lat="45.56471" lon="6.56323">
        <ele>2207.3999023438</ele>
        <time>2014-01-31T11:32:37.000Z</time>
      </trkpt>
      <trkpt lat="45.56472" lon="6.56323">
        <ele>2207.3999023438</ele>
        <time>2014-01-31T11:32:38.000Z</time>
      </trkpt>
      <trkpt lat="45.56472" lon="6.56323">
        <ele>2207.3999023438</ele>
        <time>2014-01-31T11:32:39.000Z</time>
      </trkpt>
      <trkpt lat="45.56473" lon="6.56323">
        <ele>2207.6000976562</ele>
        <time>2014-01-31T11:32:40.000Z</time>
      </trkpt>
      <trkpt lat="45.56474" lon="6.56323">
        <ele>2207.6000976562</ele>
        <time>2014-01-31T11:32:41.000Z</time>
      </trkpt>
      <trkpt lat="45.56474" lon="6.56323">
        <ele>2207.8000488281</ele>
        <time>2014-01-31T11:32:42.000Z</time>
      </trkpt>
      <trkpt lat="45.56476" lon="6.56322">
        <ele>2207.8000488281</ele>
        <time>2014-01-31T11:32:43.000Z</time>
      </trkpt>
      <trkpt lat="45.56476" lon="6.56322">
        <ele>2208</ele>
        <time>2014-01-31T11:32:44.000Z</time>
      </trkpt>
      <trkpt lat="45.56477" lon="6.56322">
        <ele>2208.1999511719</ele>
        <time>2014-01-31T11:32:45.000Z</time>
      </trkpt>
      <trkpt lat="45.56478" lon="6.56322">
        <ele>2208.3999023438</ele>
        <time>2014-01-31T11:32:46.000Z</time>
      </trkpt>
      <trkpt lat="45.56478" lon="6.56322">
        <ele>2208.3999023438</ele>
        <time>2014-01-31T11:32:47.000Z</time>
      </trkpt>
      <trkpt lat="45.56479" lon="6.56322">
        <ele>2208.3999023438</ele>
        <time>2014-01-31T11:32:48.000Z</time>
      </trkpt>
      <trkpt lat="45.56479" lon="6.56322">
        <ele>2208.6000976562</ele>
        <time>2014-01-31T11:32:49.000Z</time>
      </trkpt>
      <trkpt lat="45.5648" lon="6.56322">
        <ele>2208.6000976562</ele>
        <time>2014-01-31T11:32:50.000Z</time>
      </trkpt>
      <trkpt lat="45.56481" lon="6.56323">
        <ele>2208.6000976562</ele>
        <time>2014-01-31T11:32:51.000Z</time>
      </trkpt>
      <trkpt lat="45.56481" lon="6.56323">
        <ele>2208.6000976562</ele>
        <time>2014-01-31T11:32:52.000Z</time>
      </trkpt>
      <trkpt lat="45.56483" lon="6.56322">
        <ele>2208.6000976562</ele>
        <time>2014-01-31T11:32:53.000Z</time>
      </trkpt>
      <trkpt lat="45.56483" lon="6.56322">
        <ele>2208.6000976562</ele>
        <time>2014-01-31T11:32:54.000Z</time>
      </trkpt>
      <trkpt lat="45.56485" lon="6.56321">
        <ele>2208.8000488281</ele>
        <time>2014-01-31T11:32:55.000Z</time>
      </trkpt>
      <trkpt lat="45.56486" lon="6.56321">
        <ele>2209</ele>
        <time>2014-01-31T11:32:56.000Z</time>
      </trkpt>
      <trkpt lat="45.56486" lon="6.56321">
        <ele>2209.1999511719</ele>
        <time>2014-01-31T11:32:57.000Z</time>
      </trkpt>
      <trkpt lat="45.56487" lon="6.56321">
        <ele>2209.3999023438</ele>
        <time>2014-01-31T11:32:58.000Z</time>
      </trkpt>
      <trkpt lat="45.56487" lon="6.56321">
        <ele>2209.3999023438</ele>
        <time>2014-01-31T11:32:59.000Z</time>
      </trkpt>
      <trkpt lat="45.56489" lon="6.56321">
        <ele>2209.3999023438</ele>
        <time>2014-01-31T11:33:00.000Z</time>
      </trkpt>
      <trkpt lat="45.5649" lon="6.56321">
        <ele>2209.3999023438</ele>
        <time>2014-01-31T11:33:01.000Z</time>
      </trkpt>
      <trkpt lat="45.5649" lon="6.56321">
        <ele>2209.6000976562</ele>
        <time>2014-01-31T11:33:02.000Z</time>
      </trkpt>
      <trkpt lat="45.56492" lon="6.56321">
        <ele>2209.6000976562</ele>
        <time>2014-01-31T11:33:03.000Z</time>
      </trkpt>
      <trkpt lat="45.56492" lon="6.56321">
        <ele>2209.6000976562</ele>
        <time>2014-01-31T11:33:04.000Z</time>
      </trkpt>
      <trkpt lat="45.56493" lon="6.5632">
        <ele>2209.6000976562</ele>
        <time>2014-01-31T11:33:05.000Z</time>
      </trkpt>
      <trkpt lat="45.56494" lon="6.5632">
        <ele>2209.8000488281</ele>
        <time>2014-01-31T11:33:06.000Z</time>
      </trkpt>
      <trkpt lat="45.56494" lon="6.5632">
        <ele>2209.8000488281</ele>
        <time>2014-01-31T11:33:07.000Z</time>
      </trkpt>
      <trkpt lat="45.56496" lon="6.56319">
        <ele>2210</ele>
        <time>2014-01-31T11:33:08.000Z</time>
      </trkpt>
      <trkpt lat="45.56496" lon="6.56319">
        <ele>2210.1999511719</ele>
        <time>2014-01-31T11:33:09.000Z</time>
      </trkpt>
      <trkpt lat="45.56496" lon="6.56319">
        <ele>2210.3999023438</ele>
        <time>2014-01-31T11:33:10.000Z</time>
      </trkpt>
      <trkpt lat="45.56498" lon="6.56318">
        <ele>2210.6000976562</ele>
        <time>2014-01-31T11:33:11.000Z</time>
      </trkpt>
      <trkpt lat="45.56499" lon="6.56318">
        <ele>2210.6000976562</ele>
        <time>2014-01-31T11:33:12.000Z</time>
      </trkpt>
      <trkpt lat="45.565" lon="6.56318">
        <ele>2210.6000976562</ele>
        <time>2014-01-31T11:33:13.000Z</time>
      </trkpt>
      <trkpt lat="45.56501" lon="6.56318">
        <ele>2211</ele>
        <time>2014-01-31T11:33:14.000Z</time>
      </trkpt>
      <trkpt lat="45.56503" lon="6.56318">
        <ele>2211.1999511719</ele>
        <time>2014-01-31T11:33:15.000Z</time>
      </trkpt>
      <trkpt lat="45.56504" lon="6.56317">
        <ele>2211.3999023438</ele>
        <time>2014-01-31T11:33:16.000Z</time>
      </trkpt>
      <trkpt lat="45.56504" lon="6.56317">
        <ele>2211.3999023438</ele>
        <time>2014-01-31T11:33:17.000Z</time>
      </trkpt>
      <trkpt lat="45.56506" lon="6.56317">
        <ele>2211.3999023438</ele>
        <time>2014-01-31T11:33:18.000Z</time>
      </trkpt>
      <trkpt lat="45.56507" lon="6.56317">
        <ele>2211.3999023438</ele>
        <time>2014-01-31T11:33:19.000Z</time>
      </trkpt>
      <trkpt lat="45.56506" lon="6.56317">
        <ele>2211.3999023438</ele>
        <time>2014-01-31T11:33:20.000Z</time>
      </trkpt>
      <trkpt lat="45.56508" lon="6.56317">
        <ele>2211.6000976562</ele>
        <time>2014-01-31T11:33:21.000Z</time>
      </trkpt>
      <trkpt lat="45.56508" lon="6.56317">
        <ele>2211.6000976562</ele>
        <time>2014-01-31T11:33:22.000Z</time>
      </trkpt>
      <trkpt lat="45.56509" lon="6.56317">
        <ele>2211.6000976562</ele>
        <time>2014-01-31T11:33:23.000Z</time>
      </trkpt>
      <trkpt lat="45.56509" lon="6.56317">
        <ele>2211.6000976562</ele>
        <time>2014-01-31T11:33:24.000Z</time>
      </trkpt>
      <trkpt lat="45.5651" lon="6.56317">
        <ele>2211.6000976562</ele>
        <time>2014-01-31T11:33:25.000Z</time>
      </trkpt>
      <trkpt lat="45.56512" lon="6.56318">
        <ele>2211.8000488281</ele>
        <time>2014-01-31T11:33:26.000Z</time>
      </trkpt>
      <trkpt lat="45.56512" lon="6.56317">
        <ele>2212</ele>
        <time>2014-01-31T11:33:27.000Z</time>
      </trkpt>
      <trkpt lat="45.56513" lon="6.56318">
        <ele>2212</ele>
        <time>2014-01-31T11:33:28.000Z</time>
      </trkpt>
      <trkpt lat="45.56513" lon="6.56318">
        <ele>2212</ele>
        <time>2014-01-31T11:33:29.000Z</time>
      </trkpt>
      <trkpt lat="45.56513" lon="6.56318">
        <ele>2212.1999511719</ele>
        <time>2014-01-31T11:33:30.000Z</time>
      </trkpt>
      <trkpt lat="45.56513" lon="6.56318">
        <ele>2212.1999511719</ele>
        <time>2014-01-31T11:33:31.000Z</time>
      </trkpt>
      <trkpt lat="45.56513" lon="6.56318">
        <ele>2212.1999511719</ele>
        <time>2014-01-31T11:33:32.000Z</time>
      </trkpt>
      <trkpt lat="45.56513" lon="6.56318">
        <ele>2212.1999511719</ele>
        <time>2014-01-31T11:33:33.000Z</time>
      </trkpt>
      <trkpt lat="45.56513" lon="6.56318">
        <ele>2212.1999511719</ele>
        <time>2014-01-31T11:33:34.000Z</time>
      </trkpt>
      <trkpt lat="45.56513" lon="6.56318">
        <ele>2212.3999023438</ele>
        <time>2014-01-31T11:33:35.000Z</time>
      </trkpt>
      <trkpt lat="45.56513" lon="6.56318">
        <ele>2212.3999023438</ele>
        <time>2014-01-31T11:33:36.000Z</time>
      </trkpt>
      <trkpt lat="45.56513" lon="6.56318">
        <ele>2212.3999023438</ele>
        <time>2014-01-31T11:33:37.000Z</time>
      </trkpt>
      <trkpt lat="45.56513" lon="6.56318">
        <ele>2212.3999023438</ele>
        <time>2014-01-31T11:33:38.000Z</time>
      </trkpt>
      <trkpt lat="45.56513" lon="6.56318">
        <ele>2212.6000976562</ele>
        <time>2014-01-31T11:33:39.000Z</time>
      </trkpt>
      <trkpt lat="45.56513" lon="6.56318">
        <ele>2212.6000976562</ele>
        <time>2014-01-31T11:33:40.000Z</time>
      </trkpt>
      <trkpt lat="45.56513" lon="6.56318">
        <ele>2212.3999023438</ele>
        <time>2014-01-31T11:33:41.000Z</time>
      </trkpt>
      <trkpt lat="45.56513" lon="6.56318">
        <ele>2212.6000976562</ele>
        <time>2014-01-31T11:33:42.000Z</time>
      </trkpt>
      <trkpt lat="45.56513" lon="6.56318">
        <ele>2212.6000976562</ele>
        <time>2014-01-31T11:33:43.000Z</time>
      </trkpt>
      <trkpt lat="45.56513" lon="6.56318">
        <ele>2212.6000976562</ele>
        <time>2014-01-31T11:33:44.000Z</time>
      </trkpt>
      <trkpt lat="45.56513" lon="6.56318">
        <ele>2212.8000488281</ele>
        <time>2014-01-31T11:33:45.000Z</time>
      </trkpt>
      <trkpt lat="45.56513" lon="6.56318">
        <ele>2212.8000488281</ele>
        <time>2014-01-31T11:33:46.000Z</time>
      </trkpt>
      <trkpt lat="45.56513" lon="6.56318">
        <ele>2212.8000488281</ele>
        <time>2014-01-31T11:33:47.000Z</time>
      </trkpt>
      <trkpt lat="45.56513" lon="6.56318">
        <ele>2212.8000488281</ele>
        <time>2014-01-31T11:33:48.000Z</time>
      </trkpt>
      <trkpt lat="45.56513" lon="6.56318">
        <ele>2212.8000488281</ele>
        <time>2014-01-31T11:33:49.000Z</time>
      </trkpt>
      <trkpt lat="45.56513" lon="6.56318">
        <ele>2212.8000488281</ele>
        <time>2014-01-31T11:33:50.000Z</time>
      </trkpt>
      <trkpt lat="45.56513" lon="6.56318">
        <ele>2212.8000488281</ele>
        <time>2014-01-31T11:33:51.000Z</time>
      </trkpt>
      <trkpt lat="45.56513" lon="6.56318">
        <ele>2212.6000976562</ele>
        <time>2014-01-31T11:33:52.000Z</time>
      </trkpt>
      <trkpt lat="45.56513" lon="6.56318">
        <ele>2212.6000976562</ele>
        <time>2014-01-31T11:33:53.000Z</time>
      </trkpt>
      <trkpt lat="45.56513" lon="6.56318">
        <ele>2212.6000976562</ele>
        <time>2014-01-31T11:33:54.000Z</time>
      </trkpt>
      <trkpt lat="45.56513" lon="6.56318">
        <ele>2212.8000488281</ele>
        <time>2014-01-31T11:33:55.000Z</time>
      </trkpt>
      <trkpt lat="45.56513" lon="6.56318">
        <ele>2212.8000488281</ele>
        <time>2014-01-31T11:33:56.000Z</time>
      </trkpt>
      <trkpt lat="45.56513" lon="6.56318">
        <ele>2213</ele>
        <time>2014-01-31T11:33:57.000Z</time>
      </trkpt>
      <trkpt lat="45.56513" lon="6.56318">
        <ele>2213.1999511719</ele>
        <time>2014-01-31T11:33:58.000Z</time>
      </trkpt>
      <trkpt lat="45.56513" lon="6.56318">
        <ele>2213.1999511719</ele>
        <time>2014-01-31T11:33:59.000Z</time>
      </trkpt>
      <trkpt lat="45.56513" lon="6.56318">
        <ele>2213.1999511719</ele>
        <time>2014-01-31T11:34:00.000Z</time>
      </trkpt>
      <trkpt lat="45.56513" lon="6.56318">
        <ele>2213.1999511719</ele>
        <time>2014-01-31T11:34:01.000Z</time>
      </trkpt>
      <trkpt lat="45.56513" lon="6.56318">
        <ele>2213.1999511719</ele>
        <time>2014-01-31T11:34:02.000Z</time>
      </trkpt>
      <trkpt lat="45.56513" lon="6.56318">
        <ele>2213</ele>
        <time>2014-01-31T11:34:03.000Z</time>
      </trkpt>
      <trkpt lat="45.56515" lon="6.56318">
        <ele>2213</ele>
        <time>2014-01-31T11:34:04.000Z</time>
      </trkpt>
      <trkpt lat="45.56515" lon="6.56318">
        <ele>2212.8000488281</ele>
        <time>2014-01-31T11:34:05.000Z</time>
      </trkpt>
      <trkpt lat="45.56517" lon="6.56318">
        <ele>2212.8000488281</ele>
        <time>2014-01-31T11:34:07.000Z</time>
      </trkpt>
      <trkpt lat="45.56519" lon="6.56318">
        <ele>2213</ele>
        <time>2014-01-31T11:34:08.000Z</time>
      </trkpt>
      <trkpt lat="45.56519" lon="6.56318">
        <ele>2213</ele>
        <time>2014-01-31T11:34:09.000Z</time>
      </trkpt>
      <trkpt lat="45.56521" lon="6.56318">
        <ele>2213</ele>
        <time>2014-01-31T11:34:10.000Z</time>
      </trkpt>
      <trkpt lat="45.56521" lon="6.56318">
        <ele>2213.1999511719</ele>
        <time>2014-01-31T11:34:11.000Z</time>
      </trkpt>
      <trkpt lat="45.56521" lon="6.56318">
        <ele>2213.1999511719</ele>
        <time>2014-01-31T11:34:12.000Z</time>
      </trkpt>
      <trkpt lat="45.56522" lon="6.56319">
        <ele>2213.6000976562</ele>
        <time>2014-01-31T11:34:13.000Z</time>
      </trkpt>
      <trkpt lat="45.56523" lon="6.56319">
        <ele>2213.8000488281</ele>
        <time>2014-01-31T11:34:14.000Z</time>
      </trkpt>
      <trkpt lat="45.56524" lon="6.5632">
        <ele>2214</ele>
        <time>2014-01-31T11:34:15.000Z</time>
      </trkpt>
      <trkpt lat="45.56524" lon="6.5632">
        <ele>2214.1999511719</ele>
        <time>2014-01-31T11:34:16.000Z</time>
      </trkpt>
      <trkpt lat="45.56526" lon="6.56321">
        <ele>2214.1999511719</ele>
        <time>2014-01-31T11:34:17.000Z</time>
      </trkpt>
      <trkpt lat="45.56525" lon="6.56321">
        <ele>2214.1999511719</ele>
        <time>2014-01-31T11:34:18.000Z</time>
      </trkpt>
      <trkpt lat="45.56527" lon="6.56322">
        <ele>2214.3999023438</ele>
        <time>2014-01-31T11:34:19.000Z</time>
      </trkpt>
      <trkpt lat="45.56527" lon="6.56323">
        <ele>2214.3999023438</ele>
        <time>2014-01-31T11:34:20.000Z</time>
      </trkpt>
      <trkpt lat="45.56528" lon="6.56323">
        <ele>2214.6000976562</ele>
        <time>2014-01-31T11:34:21.000Z</time>
      </trkpt>
      <trkpt lat="45.56528" lon="6.56323">
        <ele>2214.6000976562</ele>
        <time>2014-01-31T11:34:22.000Z</time>
      </trkpt>
      <trkpt lat="45.56529" lon="6.56323">
        <ele>2214.6000976562</ele>
        <time>2014-01-31T11:34:23.000Z</time>
      </trkpt>
      <trkpt lat="45.56529" lon="6.56324">
        <ele>2214.8000488281</ele>
        <time>2014-01-31T11:34:24.000Z</time>
      </trkpt>
      <trkpt lat="45.5653" lon="6.56325">
        <ele>2215</ele>
        <time>2014-01-31T11:34:25.000Z</time>
      </trkpt>
      <trkpt lat="45.5653" lon="6.56325">
        <ele>2215.1999511719</ele>
        <time>2014-01-31T11:34:26.000Z</time>
      </trkpt>
      <trkpt lat="45.56531" lon="6.56326">
        <ele>2215.3999023438</ele>
        <time>2014-01-31T11:34:27.000Z</time>
      </trkpt>
      <trkpt lat="45.56532" lon="6.56327">
        <ele>2215.6000976562</ele>
        <time>2014-01-31T11:34:28.000Z</time>
      </trkpt>
      <trkpt lat="45.56532" lon="6.56327">
        <ele>2215.8000488281</ele>
        <time>2014-01-31T11:34:29.000Z</time>
      </trkpt>
      <trkpt lat="45.56534" lon="6.56328">
        <ele>2215.8000488281</ele>
        <time>2014-01-31T11:34:30.000Z</time>
      </trkpt>
      <trkpt lat="45.56534" lon="6.56327">
        <ele>2216.1999511719</ele>
        <time>2014-01-31T11:34:31.000Z</time>
      </trkpt>
      <trkpt lat="45.56535" lon="6.56328">
        <ele>2216.1999511719</ele>
        <time>2014-01-31T11:34:32.000Z</time>
      </trkpt>
      <trkpt lat="45.56535" lon="6.56328">
        <ele>2216.3999023438</ele>
        <time>2014-01-31T11:34:33.000Z</time>
      </trkpt>
      <trkpt lat="45.56536" lon="6.56329">
        <ele>2216.3999023438</ele>
        <time>2014-01-31T11:34:34.000Z</time>
      </trkpt>
      <trkpt lat="45.56536" lon="6.56329">
        <ele>2216.6000976562</ele>
        <time>2014-01-31T11:34:35.000Z</time>
      </trkpt>
      <trkpt lat="45.56538" lon="6.56329">
        <ele>2216.6000976562</ele>
        <time>2014-01-31T11:34:36.000Z</time>
      </trkpt>
      <trkpt lat="45.56538" lon="6.56329">
        <ele>2217</ele>
        <time>2014-01-31T11:34:37.000Z</time>
      </trkpt>
      <trkpt lat="45.56538" lon="6.56329">
        <ele>2217</ele>
        <time>2014-01-31T11:34:38.000Z</time>
      </trkpt>
      <trkpt lat="45.56539" lon="6.5633">
        <ele>2217.3999023438</ele>
        <time>2014-01-31T11:34:39.000Z</time>
      </trkpt>
      <trkpt lat="45.5654" lon="6.56331">
        <ele>2217.3999023438</ele>
        <time>2014-01-31T11:34:40.000Z</time>
      </trkpt>
      <trkpt lat="45.56541" lon="6.56331">
        <ele>2217.8000488281</ele>
        <time>2014-01-31T11:34:41.000Z</time>
      </trkpt>
      <trkpt lat="45.56541" lon="6.56332">
        <ele>2218</ele>
        <time>2014-01-31T11:34:42.000Z</time>
      </trkpt>
      <trkpt lat="45.56542" lon="6.56333">
        <ele>2218.1999511719</ele>
        <time>2014-01-31T11:34:43.000Z</time>
      </trkpt>
      <trkpt lat="45.56542" lon="6.56333">
        <ele>2218.3999023438</ele>
        <time>2014-01-31T11:34:44.000Z</time>
      </trkpt>
      <trkpt lat="45.56543" lon="6.56334">
        <ele>2218.6000976562</ele>
        <time>2014-01-31T11:34:45.000Z</time>
      </trkpt>
      <trkpt lat="45.56543" lon="6.56334">
        <ele>2218.6000976562</ele>
        <time>2014-01-31T11:34:46.000Z</time>
      </trkpt>
      <trkpt lat="45.56544" lon="6.56335">
        <ele>2218.8000488281</ele>
        <time>2014-01-31T11:34:47.000Z</time>
      </trkpt>
      <trkpt lat="45.56544" lon="6.56335">
        <ele>2218.8000488281</ele>
        <time>2014-01-31T11:34:48.000Z</time>
      </trkpt>
      <trkpt lat="45.56545" lon="6.56336">
        <ele>2219</ele>
        <time>2014-01-31T11:34:49.000Z</time>
      </trkpt>
      <trkpt lat="45.56546" lon="6.56337">
        <ele>2219</ele>
        <time>2014-01-31T11:34:50.000Z</time>
      </trkpt>
      <trkpt lat="45.56546" lon="6.56337">
        <ele>2219</ele>
        <time>2014-01-31T11:34:51.000Z</time>
      </trkpt>
      <trkpt lat="45.56548" lon="6.56338">
        <ele>2219</ele>
        <time>2014-01-31T11:34:52.000Z</time>
      </trkpt>
      <trkpt lat="45.56548" lon="6.56338">
        <ele>2219.1999511719</ele>
        <time>2014-01-31T11:34:53.000Z</time>
      </trkpt>
      <trkpt lat="45.56549" lon="6.56339">
        <ele>2219.3999023438</ele>
        <time>2014-01-31T11:34:54.000Z</time>
      </trkpt>
      <trkpt lat="45.56549" lon="6.56339">
        <ele>2219.3999023438</ele>
        <time>2014-01-31T11:34:55.000Z</time>
      </trkpt>
      <trkpt lat="45.5655" lon="6.56341">
        <ele>2219.3999023438</ele>
        <time>2014-01-31T11:34:56.000Z</time>
      </trkpt>
      <trkpt lat="45.56551" lon="6.56342">
        <ele>2219.3999023438</ele>
        <time>2014-01-31T11:34:57.000Z</time>
      </trkpt>
      <trkpt lat="45.56553" lon="6.56343">
        <ele>2219.3999023438</ele>
        <time>2014-01-31T11:35:00.000Z</time>
      </trkpt>
      <trkpt lat="45.56554" lon="6.56344">
        <ele>2219.3999023438</ele>
        <time>2014-01-31T11:35:01.000Z</time>
      </trkpt>
      <trkpt lat="45.56554" lon="6.56344">
        <ele>2219.3999023438</ele>
        <time>2014-01-31T11:35:02.000Z</time>
      </trkpt>
      <trkpt lat="45.56556" lon="6.56345">
        <ele>2219.3999023438</ele>
        <time>2014-01-31T11:35:03.000Z</time>
      </trkpt>
      <trkpt lat="45.56556" lon="6.56345">
        <ele>2219.8000488281</ele>
        <time>2014-01-31T11:35:04.000Z</time>
      </trkpt>
      <trkpt lat="45.56557" lon="6.56346">
        <ele>2219.8000488281</ele>
        <time>2014-01-31T11:35:05.000Z</time>
      </trkpt>
      <trkpt lat="45.56558" lon="6.56347">
        <ele>2220.1999511719</ele>
        <time>2014-01-31T11:35:06.000Z</time>
      </trkpt>
      <trkpt lat="45.5656" lon="6.56347">
        <ele>2220.1999511719</ele>
        <time>2014-01-31T11:35:07.000Z</time>
      </trkpt>
      <trkpt lat="45.5656" lon="6.56348">
        <ele>2220.3999023438</ele>
        <time>2014-01-31T11:35:08.000Z</time>
      </trkpt>
      <trkpt lat="45.5656" lon="6.56348">
        <ele>2220.3999023438</ele>
        <time>2014-01-31T11:35:09.000Z</time>
      </trkpt>
      <trkpt lat="45.56561" lon="6.56349">
        <ele>2220.6000976562</ele>
        <time>2014-01-31T11:35:10.000Z</time>
      </trkpt>
      <trkpt lat="45.56561" lon="6.5635">
        <ele>2220.6000976562</ele>
        <time>2014-01-31T11:35:11.000Z</time>
      </trkpt>
      <trkpt lat="45.56561" lon="6.5635">
        <ele>2220.6000976562</ele>
        <time>2014-01-31T11:35:12.000Z</time>
      </trkpt>
      <trkpt lat="45.56561" lon="6.5635">
        <ele>2220.6000976562</ele>
        <time>2014-01-31T11:35:13.000Z</time>
      </trkpt>
      <trkpt lat="45.56561" lon="6.5635">
        <ele>2220.6000976562</ele>
        <time>2014-01-31T11:35:14.000Z</time>
      </trkpt>
      <trkpt lat="45.56561" lon="6.5635">
        <ele>2220.6000976562</ele>
        <time>2014-01-31T11:35:15.000Z</time>
      </trkpt>
      <trkpt lat="45.56561" lon="6.5635">
        <ele>2220.6000976562</ele>
        <time>2014-01-31T11:35:16.000Z</time>
      </trkpt>
      <trkpt lat="45.56561" lon="6.5635">
        <ele>2220.6000976562</ele>
        <time>2014-01-31T11:35:17.000Z</time>
      </trkpt>
      <trkpt lat="45.56561" lon="6.5635">
        <ele>2220.6000976562</ele>
        <time>2014-01-31T11:35:18.000Z</time>
      </trkpt>
      <trkpt lat="45.56561" lon="6.5635">
        <ele>2220.6000976562</ele>
        <time>2014-01-31T11:35:19.000Z</time>
      </trkpt>
      <trkpt lat="45.56561" lon="6.5635">
        <ele>2220.3999023438</ele>
        <time>2014-01-31T11:35:20.000Z</time>
      </trkpt>
      <trkpt lat="45.56561" lon="6.5635">
        <ele>2220.6000976562</ele>
        <time>2014-01-31T11:35:21.000Z</time>
      </trkpt>
      <trkpt lat="45.56561" lon="6.5635">
        <ele>2220.6000976562</ele>
        <time>2014-01-31T11:35:22.000Z</time>
      </trkpt>
      <trkpt lat="45.56561" lon="6.5635">
        <ele>2220.6000976562</ele>
        <time>2014-01-31T11:35:24.000Z</time>
      </trkpt>
      <trkpt lat="45.56562" lon="6.56351">
        <ele>2220.6000976562</ele>
        <time>2014-01-31T11:35:26.000Z</time>
      </trkpt>
      <trkpt lat="45.56563" lon="6.56351">
        <ele>2220.3999023438</ele>
        <time>2014-01-31T11:35:27.000Z</time>
      </trkpt>
      <trkpt lat="45.56564" lon="6.56352">
        <ele>2220.3999023438</ele>
        <time>2014-01-31T11:35:28.000Z</time>
      </trkpt>
      <trkpt lat="45.56566" lon="6.56353">
        <ele>2220.1999511719</ele>
        <time>2014-01-31T11:35:29.000Z</time>
      </trkpt>
      <trkpt lat="45.56566" lon="6.56353">
        <ele>2220.1999511719</ele>
        <time>2014-01-31T11:35:30.000Z</time>
      </trkpt>
      <trkpt lat="45.56568" lon="6.56354">
        <ele>2220.1999511719</ele>
        <time>2014-01-31T11:35:31.000Z</time>
      </trkpt>
      <trkpt lat="45.56569" lon="6.56355">
        <ele>2220.3999023438</ele>
        <time>2014-01-31T11:35:32.000Z</time>
      </trkpt>
      <trkpt lat="45.56568" lon="6.56355">
        <ele>2220.3999023438</ele>
        <time>2014-01-31T11:35:33.000Z</time>
      </trkpt>
      <trkpt lat="45.5657" lon="6.56356">
        <ele>2220.3999023438</ele>
        <time>2014-01-31T11:35:34.000Z</time>
      </trkpt>
      <trkpt lat="45.5657" lon="6.56356">
        <ele>2220.6000976562</ele>
        <time>2014-01-31T11:35:35.000Z</time>
      </trkpt>
      <trkpt lat="45.56571" lon="6.56358">
        <ele>2220.6000976562</ele>
        <time>2014-01-31T11:35:36.000Z</time>
      </trkpt>
      <trkpt lat="45.56572" lon="6.56359">
        <ele>2220.6000976562</ele>
        <time>2014-01-31T11:35:37.000Z</time>
      </trkpt>
      <trkpt lat="45.56573" lon="6.5636">
        <ele>2220.6000976562</ele>
        <time>2014-01-31T11:35:38.000Z</time>
      </trkpt>
      <trkpt lat="45.56574" lon="6.56361">
        <ele>2220.8000488281</ele>
        <time>2014-01-31T11:35:39.000Z</time>
      </trkpt>
      <trkpt lat="45.56575" lon="6.56362">
        <ele>2220.8000488281</ele>
        <time>2014-01-31T11:35:40.000Z</time>
      </trkpt>
      <trkpt lat="45.56576" lon="6.56363">
        <ele>2220.8000488281</ele>
        <time>2014-01-31T11:35:41.000Z</time>
      </trkpt>
      <trkpt lat="45.56577" lon="6.56364">
        <ele>2220.8000488281</ele>
        <time>2014-01-31T11:35:42.000Z</time>
      </trkpt>
      <trkpt lat="45.56579" lon="6.56365">
        <ele>2221</ele>
        <time>2014-01-31T11:35:44.000Z</time>
      </trkpt>
      <trkpt lat="45.5658" lon="6.56366">
        <ele>2221</ele>
        <time>2014-01-31T11:35:45.000Z</time>
      </trkpt>
      <trkpt lat="45.56579" lon="6.56366">
        <ele>2221</ele>
        <time>2014-01-31T11:35:46.000Z</time>
      </trkpt>
      <trkpt lat="45.56581" lon="6.56368">
        <ele>2221</ele>
        <time>2014-01-31T11:35:47.000Z</time>
      </trkpt>
      <trkpt lat="45.56581" lon="6.56369">
        <ele>2221.1999511719</ele>
        <time>2014-01-31T11:35:48.000Z</time>
      </trkpt>
      <trkpt lat="45.56581" lon="6.5637">
        <ele>2221.3999023438</ele>
        <time>2014-01-31T11:35:49.000Z</time>
      </trkpt>
      <trkpt lat="45.56582" lon="6.56371">
        <ele>2221.6000976562</ele>
        <time>2014-01-31T11:35:50.000Z</time>
      </trkpt>
      <trkpt lat="45.56583" lon="6.56372">
        <ele>2221.6000976562</ele>
        <time>2014-01-31T11:35:51.000Z</time>
      </trkpt>
      <trkpt lat="45.56583" lon="6.56373">
        <ele>2221.6000976562</ele>
        <time>2014-01-31T11:35:52.000Z</time>
      </trkpt>
      <trkpt lat="45.56584" lon="6.56374">
        <ele>2221.8000488281</ele>
        <time>2014-01-31T11:35:53.000Z</time>
      </trkpt>
      <trkpt lat="45.56585" lon="6.56374">
        <ele>2221.8000488281</ele>
        <time>2014-01-31T11:35:54.000Z</time>
      </trkpt>
      <trkpt lat="45.56585" lon="6.56374">
        <ele>2222</ele>
        <time>2014-01-31T11:35:55.000Z</time>
      </trkpt>
      <trkpt lat="45.56586" lon="6.56375">
        <ele>2222</ele>
        <time>2014-01-31T11:35:56.000Z</time>
      </trkpt>
      <trkpt lat="45.56586" lon="6.56375">
        <ele>2222.1999511719</ele>
        <time>2014-01-31T11:35:57.000Z</time>
      </trkpt>
      <trkpt lat="45.56587" lon="6.56376">
        <ele>2222.3999023438</ele>
        <time>2014-01-31T11:35:58.000Z</time>
      </trkpt>
      <trkpt lat="45.56588" lon="6.56378">
        <ele>2222.6000976562</ele>
        <time>2014-01-31T11:35:59.000Z</time>
      </trkpt>
      <trkpt lat="45.56588" lon="6.56378">
        <ele>2222.6000976562</ele>
        <time>2014-01-31T11:36:00.000Z</time>
      </trkpt>
      <trkpt lat="45.5659" lon="6.56381">
        <ele>2222.8000488281</ele>
        <time>2014-01-31T11:36:01.000Z</time>
      </trkpt>
      <trkpt lat="45.56591" lon="6.56382">
        <ele>2222.8000488281</ele>
        <time>2014-01-31T11:36:02.000Z</time>
      </trkpt>
      <trkpt lat="45.56592" lon="6.56383">
        <ele>2223</ele>
        <time>2014-01-31T11:36:03.000Z</time>
      </trkpt>
      <trkpt lat="45.56593" lon="6.56384">
        <ele>2223.1999511719</ele>
        <time>2014-01-31T11:36:04.000Z</time>
      </trkpt>
      <trkpt lat="45.56594" lon="6.56385">
        <ele>2223.1999511719</ele>
        <time>2014-01-31T11:36:05.000Z</time>
      </trkpt>
      <trkpt lat="45.56594" lon="6.56386">
        <ele>2223.3999023438</ele>
        <time>2014-01-31T11:36:06.000Z</time>
      </trkpt>
      <trkpt lat="45.56595" lon="6.56387">
        <ele>2223.3999023438</ele>
        <time>2014-01-31T11:36:07.000Z</time>
      </trkpt>
      <trkpt lat="45.56596" lon="6.56388">
        <ele>2223.6000976562</ele>
        <time>2014-01-31T11:36:08.000Z</time>
      </trkpt>
      <trkpt lat="45.56597" lon="6.56389">
        <ele>2223.8000488281</ele>
        <time>2014-01-31T11:36:09.000Z</time>
      </trkpt>
      <trkpt lat="45.56599" lon="6.5639">
        <ele>2223.6000976562</ele>
        <time>2014-01-31T11:36:10.000Z</time>
      </trkpt>
      <trkpt lat="45.566" lon="6.56391">
        <ele>2223.6000976562</ele>
        <time>2014-01-31T11:36:11.000Z</time>
      </trkpt>
      <trkpt lat="45.56601" lon="6.56392">
        <ele>2223.3999023438</ele>
        <time>2014-01-31T11:36:12.000Z</time>
      </trkpt>
      <trkpt lat="45.56603" lon="6.56393">
        <ele>2223.3999023438</ele>
        <time>2014-01-31T11:36:13.000Z</time>
      </trkpt>
      <trkpt lat="45.56604" lon="6.56394">
        <ele>2223.1999511719</ele>
        <time>2014-01-31T11:36:14.000Z</time>
      </trkpt>
      <trkpt lat="45.56605" lon="6.56396">
        <ele>2223.1999511719</ele>
        <time>2014-01-31T11:36:15.000Z</time>
      </trkpt>
      <trkpt lat="45.56606" lon="6.56398">
        <ele>2223.1999511719</ele>
        <time>2014-01-31T11:36:16.000Z</time>
      </trkpt>
      <trkpt lat="45.56607" lon="6.564">
        <ele>2222.8000488281</ele>
        <time>2014-01-31T11:36:17.000Z</time>
      </trkpt>
      <trkpt lat="45.56608" lon="6.56402">
        <ele>2222.6000976562</ele>
        <time>2014-01-31T11:36:18.000Z</time>
      </trkpt>
      <trkpt lat="45.5661" lon="6.56404">
        <ele>2222.3999023438</ele>
        <time>2014-01-31T11:36:19.000Z</time>
      </trkpt>
      <trkpt lat="45.56611" lon="6.56406">
        <ele>2222.1999511719</ele>
        <time>2014-01-31T11:36:20.000Z</time>
      </trkpt>
      <trkpt lat="45.56612" lon="6.56408">
        <ele>2222.1999511719</ele>
        <time>2014-01-31T11:36:21.000Z</time>
      </trkpt>
      <trkpt lat="45.56614" lon="6.56409">
        <ele>2222</ele>
        <time>2014-01-31T11:36:22.000Z</time>
      </trkpt>
      <trkpt lat="45.56615" lon="6.5641">
        <ele>2221.8000488281</ele>
        <time>2014-01-31T11:36:23.000Z</time>
      </trkpt>
      <trkpt lat="45.56615" lon="6.56411">
        <ele>2221.3999023438</ele>
        <time>2014-01-31T11:36:24.000Z</time>
      </trkpt>
      <trkpt lat="45.56617" lon="6.56412">
        <ele>2221</ele>
        <time>2014-01-31T11:36:25.000Z</time>
      </trkpt>
      <trkpt lat="45.56618" lon="6.56412">
        <ele>2220.8000488281</ele>
        <time>2014-01-31T11:36:26.000Z</time>
      </trkpt>
      <trkpt lat="45.56618" lon="6.56413">
        <ele>2220.6000976562</ele>
        <time>2014-01-31T11:36:27.000Z</time>
      </trkpt>
      <trkpt lat="45.56619" lon="6.56414">
        <ele>2220.3999023438</ele>
        <time>2014-01-31T11:36:28.000Z</time>
      </trkpt>
      <trkpt lat="45.5662" lon="6.56416">
        <ele>2220.1999511719</ele>
        <time>2014-01-31T11:36:29.000Z</time>
      </trkpt>
      <trkpt lat="45.56621" lon="6.56416">
        <ele>2220.1999511719</ele>
        <time>2014-01-31T11:36:30.000Z</time>
      </trkpt>
      <trkpt lat="45.56622" lon="6.56417">
        <ele>2220</ele>
        <time>2014-01-31T11:36:31.000Z</time>
      </trkpt>
      <trkpt lat="45.56623" lon="6.56419">
        <ele>2220</ele>
        <time>2014-01-31T11:36:32.000Z</time>
      </trkpt>
      <trkpt lat="45.56624" lon="6.5642">
        <ele>2220</ele>
        <time>2014-01-31T11:36:33.000Z</time>
      </trkpt>
      <trkpt lat="45.56625" lon="6.56421">
        <ele>2220.1999511719</ele>
        <time>2014-01-31T11:36:34.000Z</time>
      </trkpt>
      <trkpt lat="45.56626" lon="6.56422">
        <ele>2220.1999511719</ele>
        <time>2014-01-31T11:36:35.000Z</time>
      </trkpt>
      <trkpt lat="45.56627" lon="6.56422">
        <ele>2220.1999511719</ele>
        <time>2014-01-31T11:36:36.000Z</time>
      </trkpt>
      <trkpt lat="45.56628" lon="6.56423">
        <ele>2220.1999511719</ele>
        <time>2014-01-31T11:36:37.000Z</time>
      </trkpt>
      <trkpt lat="45.56629" lon="6.56424">
        <ele>2220.3999023438</ele>
        <time>2014-01-31T11:36:38.000Z</time>
      </trkpt>
      <trkpt lat="45.5663" lon="6.56425">
        <ele>2220.3999023438</ele>
        <time>2014-01-31T11:36:39.000Z</time>
      </trkpt>
      <trkpt lat="45.5663" lon="6.56426">
        <ele>2220.6000976562</ele>
        <time>2014-01-31T11:36:40.000Z</time>
      </trkpt>
      <trkpt lat="45.56631" lon="6.56427">
        <ele>2220.6000976562</ele>
        <time>2014-01-31T11:36:41.000Z</time>
      </trkpt>
      <trkpt lat="45.56632" lon="6.56428">
        <ele>2220.8000488281</ele>
        <time>2014-01-31T11:36:42.000Z</time>
      </trkpt>
      <trkpt lat="45.56633" lon="6.56429">
        <ele>2220.8000488281</ele>
        <time>2014-01-31T11:36:43.000Z</time>
      </trkpt>
      <trkpt lat="45.56634" lon="6.5643">
        <ele>2220.8000488281</ele>
        <time>2014-01-31T11:36:44.000Z</time>
      </trkpt>
      <trkpt lat="45.56634" lon="6.5643">
        <ele>2220.8000488281</ele>
        <time>2014-01-31T11:36:45.000Z</time>
      </trkpt>
      <trkpt lat="45.56635" lon="6.56432">
        <ele>2221</ele>
        <time>2014-01-31T11:36:46.000Z</time>
      </trkpt>
      <trkpt lat="45.56635" lon="6.56433">
        <ele>2221</ele>
        <time>2014-01-31T11:36:47.000Z</time>
      </trkpt>
      <trkpt lat="45.56636" lon="6.56434">
        <ele>2221.1999511719</ele>
        <time>2014-01-31T11:36:48.000Z</time>
      </trkpt>
      <trkpt lat="45.56637" lon="6.56435">
        <ele>2221.3999023438</ele>
        <time>2014-01-31T11:36:49.000Z</time>
      </trkpt>
      <trkpt lat="45.56637" lon="6.56435">
        <ele>2221.3999023438</ele>
        <time>2014-01-31T11:36:50.000Z</time>
      </trkpt>
      <trkpt lat="45.56638" lon="6.56436">
        <ele>2221.6000976562</ele>
        <time>2014-01-31T11:36:51.000Z</time>
      </trkpt>
      <trkpt lat="45.56639" lon="6.56437">
        <ele>2221.6000976562</ele>
        <time>2014-01-31T11:36:52.000Z</time>
      </trkpt>
      <trkpt lat="45.56639" lon="6.56438">
        <ele>2221.6000976562</ele>
        <time>2014-01-31T11:36:53.000Z</time>
      </trkpt>
      <trkpt lat="45.5664" lon="6.56439">
        <ele>2221.6000976562</ele>
        <time>2014-01-31T11:36:54.000Z</time>
      </trkpt>
      <trkpt lat="45.56641" lon="6.5644">
        <ele>2221.8000488281</ele>
        <time>2014-01-31T11:36:55.000Z</time>
      </trkpt>
      <trkpt lat="45.56642" lon="6.56441">
        <ele>2221.8000488281</ele>
        <time>2014-01-31T11:36:56.000Z</time>
      </trkpt>
      <trkpt lat="45.56643" lon="6.56442">
        <ele>2221.8000488281</ele>
        <time>2014-01-31T11:36:57.000Z</time>
      </trkpt>
      <trkpt lat="45.56643" lon="6.56443">
        <ele>2222</ele>
        <time>2014-01-31T11:36:58.000Z</time>
      </trkpt>
      <trkpt lat="45.56644" lon="6.56443">
        <ele>2222.1999511719</ele>
        <time>2014-01-31T11:36:59.000Z</time>
      </trkpt>
      <trkpt lat="45.56645" lon="6.56444">
        <ele>2222.1999511719</ele>
        <time>2014-01-31T11:37:00.000Z</time>
      </trkpt>
      <trkpt lat="45.56646" lon="6.56445">
        <ele>2222.3999023438</ele>
        <time>2014-01-31T11:37:01.000Z</time>
      </trkpt>
      <trkpt lat="45.56645" lon="6.56446">
        <ele>2222.3999023438</ele>
        <time>2014-01-31T11:37:02.000Z</time>
      </trkpt>
      <trkpt lat="45.56647" lon="6.56449">
        <ele>2222.6000976562</ele>
        <time>2014-01-31T11:37:04.000Z</time>
      </trkpt>
      <trkpt lat="45.56648" lon="6.5645">
        <ele>2222.6000976562</ele>
        <time>2014-01-31T11:37:05.000Z</time>
      </trkpt>
      <trkpt lat="45.56649" lon="6.56451">
        <ele>2222.6000976562</ele>
        <time>2014-01-31T11:37:06.000Z</time>
      </trkpt>
      <trkpt lat="45.56649" lon="6.56452">
        <ele>2222.6000976562</ele>
        <time>2014-01-31T11:37:07.000Z</time>
      </trkpt>
      <trkpt lat="45.5665" lon="6.56453">
        <ele>2222.6000976562</ele>
        <time>2014-01-31T11:37:08.000Z</time>
      </trkpt>
      <trkpt lat="45.56651" lon="6.56454">
        <ele>2222.6000976562</ele>
        <time>2014-01-31T11:37:09.000Z</time>
      </trkpt>
      <trkpt lat="45.56651" lon="6.56454">
        <ele>2222.8000488281</ele>
        <time>2014-01-31T11:37:10.000Z</time>
      </trkpt>
      <trkpt lat="45.56652" lon="6.56455">
        <ele>2222.8000488281</ele>
        <time>2014-01-31T11:37:11.000Z</time>
      </trkpt>
      <trkpt lat="45.56653" lon="6.56457">
        <ele>2223</ele>
        <time>2014-01-31T11:37:12.000Z</time>
      </trkpt>
      <trkpt lat="45.56653" lon="6.56457">
        <ele>2223</ele>
        <time>2014-01-31T11:37:13.000Z</time>
      </trkpt>
      <trkpt lat="45.56654" lon="6.56458">
        <ele>2223</ele>
        <time>2014-01-31T11:37:14.000Z</time>
      </trkpt>
      <trkpt lat="45.56655" lon="6.56459">
        <ele>2223.1999511719</ele>
        <time>2014-01-31T11:37:15.000Z</time>
      </trkpt>
      <trkpt lat="45.56656" lon="6.56459">
        <ele>2223.1999511719</ele>
        <time>2014-01-31T11:37:16.000Z</time>
      </trkpt>
      <trkpt lat="45.56657" lon="6.56461">
        <ele>2223.1999511719</ele>
        <time>2014-01-31T11:37:17.000Z</time>
      </trkpt>
      <trkpt lat="45.56657" lon="6.56462">
        <ele>2223.1999511719</ele>
        <time>2014-01-31T11:37:18.000Z</time>
      </trkpt>
      <trkpt lat="45.56657" lon="6.56462">
        <ele>2223.1999511719</ele>
        <time>2014-01-31T11:37:19.000Z</time>
      </trkpt>
      <trkpt lat="45.56658" lon="6.56464">
        <ele>2223.3999023438</ele>
        <time>2014-01-31T11:37:20.000Z</time>
      </trkpt>
      <trkpt lat="45.56659" lon="6.56465">
        <ele>2223.3999023438</ele>
        <time>2014-01-31T11:37:21.000Z</time>
      </trkpt>
      <trkpt lat="45.56659" lon="6.56465">
        <ele>2223.3999023438</ele>
        <time>2014-01-31T11:37:22.000Z</time>
      </trkpt>
      <trkpt lat="45.56661" lon="6.56467">
        <ele>2223.6000976562</ele>
        <time>2014-01-31T11:37:23.000Z</time>
      </trkpt>
      <trkpt lat="45.56661" lon="6.56467">
        <ele>2223.6000976562</ele>
        <time>2014-01-31T11:37:24.000Z</time>
      </trkpt>
      <trkpt lat="45.56662" lon="6.56469">
        <ele>2223.8000488281</ele>
        <time>2014-01-31T11:37:25.000Z</time>
      </trkpt>
      <trkpt lat="45.56663" lon="6.5647">
        <ele>2223.8000488281</ele>
        <time>2014-01-31T11:37:26.000Z</time>
      </trkpt>
      <trkpt lat="45.56663" lon="6.5647">
        <ele>2223.8000488281</ele>
        <time>2014-01-31T11:37:27.000Z</time>
      </trkpt>
      <trkpt lat="45.56664" lon="6.56472">
        <ele>2224</ele>
        <time>2014-01-31T11:37:28.000Z</time>
      </trkpt>
      <trkpt lat="45.56666" lon="6.56473">
        <ele>2224</ele>
        <time>2014-01-31T11:37:29.000Z</time>
      </trkpt>
      <trkpt lat="45.56666" lon="6.56473">
        <ele>2224.1999511719</ele>
        <time>2014-01-31T11:37:30.000Z</time>
      </trkpt>
      <trkpt lat="45.56667" lon="6.56474">
        <ele>2224.1999511719</ele>
        <time>2014-01-31T11:37:31.000Z</time>
      </trkpt>
      <trkpt lat="45.56668" lon="6.56475">
        <ele>2224.3999023438</ele>
        <time>2014-01-31T11:37:32.000Z</time>
      </trkpt>
      <trkpt lat="45.56668" lon="6.56475">
        <ele>2224.3999023438</ele>
        <time>2014-01-31T11:37:33.000Z</time>
      </trkpt>
      <trkpt lat="45.56669" lon="6.56476">
        <ele>2224.6000976562</ele>
        <time>2014-01-31T11:37:34.000Z</time>
      </trkpt>
      <trkpt lat="45.56669" lon="6.56476">
        <ele>2224.6000976562</ele>
        <time>2014-01-31T11:37:35.000Z</time>
      </trkpt>
      <trkpt lat="45.5667" lon="6.56478">
        <ele>2224.8000488281</ele>
        <time>2014-01-31T11:37:36.000Z</time>
      </trkpt>
      <trkpt lat="45.56671" lon="6.56479">
        <ele>2225</ele>
        <time>2014-01-31T11:37:37.000Z</time>
      </trkpt>
      <trkpt lat="45.56671" lon="6.56479">
        <ele>2225</ele>
        <time>2014-01-31T11:37:38.000Z</time>
      </trkpt>
      <trkpt lat="45.56673" lon="6.5648">
        <ele>2225.1999511719</ele>
        <time>2014-01-31T11:37:39.000Z</time>
      </trkpt>
      <trkpt lat="45.56673" lon="6.5648">
        <ele>2225.3999023438</ele>
        <time>2014-01-31T11:37:40.000Z</time>
      </trkpt>
      <trkpt lat="45.56673" lon="6.56481">
        <ele>2225.6000976562</ele>
        <time>2014-01-31T11:37:41.000Z</time>
      </trkpt>
      <trkpt lat="45.56673" lon="6.56482">
        <ele>2225.6000976562</ele>
        <time>2014-01-31T11:37:42.000Z</time>
      </trkpt>
      <trkpt lat="45.56674" lon="6.56482">
        <ele>2225.8000488281</ele>
        <time>2014-01-31T11:37:43.000Z</time>
      </trkpt>
      <trkpt lat="45.56675" lon="6.56484">
        <ele>2225.8000488281</ele>
        <time>2014-01-31T11:37:44.000Z</time>
      </trkpt>
      <trkpt lat="45.56675" lon="6.56484">
        <ele>2226</ele>
        <time>2014-01-31T11:37:45.000Z</time>
      </trkpt>
      <trkpt lat="45.56676" lon="6.56485">
        <ele>2226.1999511719</ele>
        <time>2014-01-31T11:37:46.000Z</time>
      </trkpt>
      <trkpt lat="45.56677" lon="6.56487">
        <ele>2226.3999023438</ele>
        <time>2014-01-31T11:37:47.000Z</time>
      </trkpt>
      <trkpt lat="45.56677" lon="6.56487">
        <ele>2226.3999023438</ele>
        <time>2014-01-31T11:37:48.000Z</time>
      </trkpt>
      <trkpt lat="45.56678" lon="6.56489">
        <ele>2226.6000976562</ele>
        <time>2014-01-31T11:37:49.000Z</time>
      </trkpt>
      <trkpt lat="45.56678" lon="6.56489">
        <ele>2226.6000976562</ele>
        <time>2014-01-31T11:37:50.000Z</time>
      </trkpt>
      <trkpt lat="45.56679" lon="6.5649">
        <ele>2226.8000488281</ele>
        <time>2014-01-31T11:37:51.000Z</time>
      </trkpt>
      <trkpt lat="45.5668" lon="6.56491">
        <ele>2227</ele>
        <time>2014-01-31T11:37:52.000Z</time>
      </trkpt>
      <trkpt lat="45.5668" lon="6.56491">
        <ele>2227</ele>
        <time>2014-01-31T11:37:53.000Z</time>
      </trkpt>
      <trkpt lat="45.56681" lon="6.56493">
        <ele>2227.1999511719</ele>
        <time>2014-01-31T11:37:54.000Z</time>
      </trkpt>
      <trkpt lat="45.56682" lon="6.56494">
        <ele>2227.1999511719</ele>
        <time>2014-01-31T11:37:55.000Z</time>
      </trkpt>
      <trkpt lat="45.56682" lon="6.56494">
        <ele>2227.3999023438</ele>
        <time>2014-01-31T11:37:56.000Z</time>
      </trkpt>
      <trkpt lat="45.56683" lon="6.56495">
        <ele>2227.3999023438</ele>
        <time>2014-01-31T11:37:57.000Z</time>
      </trkpt>
      <trkpt lat="45.56683" lon="6.56495">
        <ele>2227.8000488281</ele>
        <time>2014-01-31T11:37:58.000Z</time>
      </trkpt>
      <trkpt lat="45.56684" lon="6.56497">
        <ele>2228</ele>
        <time>2014-01-31T11:37:59.000Z</time>
      </trkpt>
      <trkpt lat="45.56685" lon="6.56498">
        <ele>2228.1999511719</ele>
        <time>2014-01-31T11:38:00.000Z</time>
      </trkpt>
      <trkpt lat="45.56684" lon="6.56498">
        <ele>2228.1999511719</ele>
        <time>2014-01-31T11:38:01.000Z</time>
      </trkpt>
      <trkpt lat="45.56685" lon="6.565">
        <ele>2228.1999511719</ele>
        <time>2014-01-31T11:38:02.000Z</time>
      </trkpt>
      <trkpt lat="45.56685" lon="6.56499">
        <ele>2228.3999023438</ele>
        <time>2014-01-31T11:38:03.000Z</time>
      </trkpt>
      <trkpt lat="45.56685" lon="6.565">
        <ele>2228.6000976562</ele>
        <time>2014-01-31T11:38:04.000Z</time>
      </trkpt>
      <trkpt lat="45.56686" lon="6.56501">
        <ele>2228.6000976562</ele>
        <time>2014-01-31T11:38:05.000Z</time>
      </trkpt>
      <trkpt lat="45.56686" lon="6.56501">
        <ele>2228.8000488281</ele>
        <time>2014-01-31T11:38:06.000Z</time>
      </trkpt>
      <trkpt lat="45.56688" lon="6.56503">
        <ele>2228.8000488281</ele>
        <time>2014-01-31T11:38:07.000Z</time>
      </trkpt>
      <trkpt lat="45.56688" lon="6.56504">
        <ele>2229</ele>
        <time>2014-01-31T11:38:08.000Z</time>
      </trkpt>
      <trkpt lat="45.56689" lon="6.56504">
        <ele>2229</ele>
        <time>2014-01-31T11:38:09.000Z</time>
      </trkpt>
      <trkpt lat="45.56689" lon="6.56505">
        <ele>2229.1999511719</ele>
        <time>2014-01-31T11:38:10.000Z</time>
      </trkpt>
      <trkpt lat="45.5669" lon="6.56505">
        <ele>2229.3999023438</ele>
        <time>2014-01-31T11:38:11.000Z</time>
      </trkpt>
      <trkpt lat="45.56691" lon="6.56506">
        <ele>2229.8000488281</ele>
        <time>2014-01-31T11:38:12.000Z</time>
      </trkpt>
      <trkpt lat="45.56691" lon="6.56507">
        <ele>2229.8000488281</ele>
        <time>2014-01-31T11:38:13.000Z</time>
      </trkpt>
      <trkpt lat="45.56692" lon="6.56507">
        <ele>2230</ele>
        <time>2014-01-31T11:38:14.000Z</time>
      </trkpt>
      <trkpt lat="45.56693" lon="6.56507">
        <ele>2230</ele>
        <time>2014-01-31T11:38:15.000Z</time>
      </trkpt>
      <trkpt lat="45.56693" lon="6.56507">
        <ele>2230</ele>
        <time>2014-01-31T11:38:16.000Z</time>
      </trkpt>
      <trkpt lat="45.56694" lon="6.56508">
        <ele>2230.1999511719</ele>
        <time>2014-01-31T11:38:17.000Z</time>
      </trkpt>
      <trkpt lat="45.56695" lon="6.56508">
        <ele>2230.1999511719</ele>
        <time>2014-01-31T11:38:18.000Z</time>
      </trkpt>
      <trkpt lat="45.56697" lon="6.5651">
        <ele>2230.6000976562</ele>
        <time>2014-01-31T11:38:19.000Z</time>
      </trkpt>
      <trkpt lat="45.56697" lon="6.5651">
        <ele>2230.8000488281</ele>
        <time>2014-01-31T11:38:20.000Z</time>
      </trkpt>
      <trkpt lat="45.56698" lon="6.56511">
        <ele>2230.8000488281</ele>
        <time>2014-01-31T11:38:21.000Z</time>
      </trkpt>
      <trkpt lat="45.56698" lon="6.56511">
        <ele>2231</ele>
        <time>2014-01-31T11:38:22.000Z</time>
      </trkpt>
      <trkpt lat="45.56699" lon="6.56512">
        <ele>2231</ele>
        <time>2014-01-31T11:38:23.000Z</time>
      </trkpt>
      <trkpt lat="45.56699" lon="6.56513">
        <ele>2231</ele>
        <time>2014-01-31T11:38:24.000Z</time>
      </trkpt>
      <trkpt lat="45.567" lon="6.56513">
        <ele>2231</ele>
        <time>2014-01-31T11:38:25.000Z</time>
      </trkpt>
      <trkpt lat="45.56701" lon="6.56515">
        <ele>2231.1999511719</ele>
        <time>2014-01-31T11:38:26.000Z</time>
      </trkpt>
      <trkpt lat="45.56702" lon="6.56515">
        <ele>2231.8000488281</ele>
        <time>2014-01-31T11:38:27.000Z</time>
      </trkpt>
      <trkpt lat="45.56703" lon="6.56516">
        <ele>2232</ele>
        <time>2014-01-31T11:38:28.000Z</time>
      </trkpt>
      <trkpt lat="45.56703" lon="6.56516">
        <ele>2232.1999511719</ele>
        <time>2014-01-31T11:38:29.000Z</time>
      </trkpt>
      <trkpt lat="45.56705" lon="6.56518">
        <ele>2232.1999511719</ele>
        <time>2014-01-31T11:38:30.000Z</time>
      </trkpt>
      <trkpt lat="45.56706" lon="6.56518">
        <ele>2232.1999511719</ele>
        <time>2014-01-31T11:38:31.000Z</time>
      </trkpt>
      <trkpt lat="45.56707" lon="6.56519">
        <ele>2232.3999023438</ele>
        <time>2014-01-31T11:38:32.000Z</time>
      </trkpt>
      <trkpt lat="45.56707" lon="6.5652">
        <ele>2232.3999023438</ele>
        <time>2014-01-31T11:38:33.000Z</time>
      </trkpt>
      <trkpt lat="45.56707" lon="6.56519">
        <ele>2232.3999023438</ele>
        <time>2014-01-31T11:38:34.000Z</time>
      </trkpt>
      <trkpt lat="45.56708" lon="6.56521">
        <ele>2232.8000488281</ele>
        <time>2014-01-31T11:38:35.000Z</time>
      </trkpt>
      <trkpt lat="45.56709" lon="6.56522">
        <ele>2233</ele>
        <time>2014-01-31T11:38:36.000Z</time>
      </trkpt>
      <trkpt lat="45.56709" lon="6.56521">
        <ele>2233</ele>
        <time>2014-01-31T11:38:37.000Z</time>
      </trkpt>
      <trkpt lat="45.56711" lon="6.56523">
        <ele>2233.1999511719</ele>
        <time>2014-01-31T11:38:38.000Z</time>
      </trkpt>
      <trkpt lat="45.56711" lon="6.56524">
        <ele>2233.1999511719</ele>
        <time>2014-01-31T11:38:39.000Z</time>
      </trkpt>
      <trkpt lat="45.56712" lon="6.56526">
        <ele>2233.1999511719</ele>
        <time>2014-01-31T11:38:40.000Z</time>
      </trkpt>
      <trkpt lat="45.56713" lon="6.56526">
        <ele>2233.1999511719</ele>
        <time>2014-01-31T11:38:41.000Z</time>
      </trkpt>
      <trkpt lat="45.56714" lon="6.56526">
        <ele>2233.1999511719</ele>
        <time>2014-01-31T11:38:42.000Z</time>
      </trkpt>
      <trkpt lat="45.56715" lon="6.56528">
        <ele>2233.1999511719</ele>
        <time>2014-01-31T11:38:43.000Z</time>
      </trkpt>
      <trkpt lat="45.56714" lon="6.56527">
        <ele>2233.1999511719</ele>
        <time>2014-01-31T11:38:44.000Z</time>
      </trkpt>
      <trkpt lat="45.56715" lon="6.56528">
        <ele>2233.1999511719</ele>
        <time>2014-01-31T11:38:45.000Z</time>
      </trkpt>
      <trkpt lat="45.56717" lon="6.5653">
        <ele>2233.1999511719</ele>
        <time>2014-01-31T11:38:46.000Z</time>
      </trkpt>
      <trkpt lat="45.56716" lon="6.5653">
        <ele>2233.1999511719</ele>
        <time>2014-01-31T11:38:47.000Z</time>
      </trkpt>
      <trkpt lat="45.56718" lon="6.56532">
        <ele>2233.3999023438</ele>
        <time>2014-01-31T11:38:48.000Z</time>
      </trkpt>
      <trkpt lat="45.56719" lon="6.56534">
        <ele>2233.3999023438</ele>
        <time>2014-01-31T11:38:49.000Z</time>
      </trkpt>
      <trkpt lat="45.56719" lon="6.56535">
        <ele>2233.3999023438</ele>
        <time>2014-01-31T11:38:50.000Z</time>
      </trkpt>
      <trkpt lat="45.56721" lon="6.56536">
        <ele>2233.3999023438</ele>
        <time>2014-01-31T11:38:51.000Z</time>
      </trkpt>
      <trkpt lat="45.56721" lon="6.56537">
        <ele>2233.3999023438</ele>
        <time>2014-01-31T11:38:52.000Z</time>
      </trkpt>
      <trkpt lat="45.56722" lon="6.56538">
        <ele>2233.3999023438</ele>
        <time>2014-01-31T11:38:53.000Z</time>
      </trkpt>
      <trkpt lat="45.56723" lon="6.56539">
        <ele>2233.6000976562</ele>
        <time>2014-01-31T11:38:54.000Z</time>
      </trkpt>
      <trkpt lat="45.56724" lon="6.5654">
        <ele>2233.6000976562</ele>
        <time>2014-01-31T11:38:55.000Z</time>
      </trkpt>
      <trkpt lat="45.56724" lon="6.56541">
        <ele>2233.6000976562</ele>
        <time>2014-01-31T11:38:56.000Z</time>
      </trkpt>
      <trkpt lat="45.56724" lon="6.56541">
        <ele>2233.3999023438</ele>
        <time>2014-01-31T11:38:57.000Z</time>
      </trkpt>
      <trkpt lat="45.56726" lon="6.56542">
        <ele>2233.3999023438</ele>
        <time>2014-01-31T11:38:58.000Z</time>
      </trkpt>
      <trkpt lat="45.56727" lon="6.56543">
        <ele>2233.3999023438</ele>
        <time>2014-01-31T11:38:59.000Z</time>
      </trkpt>
      <trkpt lat="45.56728" lon="6.56544">
        <ele>2233.3999023438</ele>
        <time>2014-01-31T11:39:01.000Z</time>
      </trkpt>
      <trkpt lat="45.56729" lon="6.56544">
        <ele>2233.3999023438</ele>
        <time>2014-01-31T11:39:03.000Z</time>
      </trkpt>
      <trkpt lat="45.56731" lon="6.56545">
        <ele>2233.6000976562</ele>
        <time>2014-01-31T11:39:04.000Z</time>
      </trkpt>
      <trkpt lat="45.5673" lon="6.56545">
        <ele>2233.6000976562</ele>
        <time>2014-01-31T11:39:05.000Z</time>
      </trkpt>
      <trkpt lat="45.56732" lon="6.56546">
        <ele>2233.6000976562</ele>
        <time>2014-01-31T11:39:06.000Z</time>
      </trkpt>
      <trkpt lat="45.56733" lon="6.56547">
        <ele>2233.6000976562</ele>
        <time>2014-01-31T11:39:07.000Z</time>
      </trkpt>
      <trkpt lat="45.56734" lon="6.56547">
        <ele>2233.6000976562</ele>
        <time>2014-01-31T11:39:08.000Z</time>
      </trkpt>
      <trkpt lat="45.56735" lon="6.56548">
        <ele>2233.6000976562</ele>
        <time>2014-01-31T11:39:09.000Z</time>
      </trkpt>
      <trkpt lat="45.56736" lon="6.56549">
        <ele>2233.6000976562</ele>
        <time>2014-01-31T11:39:10.000Z</time>
      </trkpt>
      <trkpt lat="45.56736" lon="6.5655">
        <ele>2233.8000488281</ele>
        <time>2014-01-31T11:39:11.000Z</time>
      </trkpt>
      <trkpt lat="45.56738" lon="6.56551">
        <ele>2233.6000976562</ele>
        <time>2014-01-31T11:39:12.000Z</time>
      </trkpt>
      <trkpt lat="45.56739" lon="6.56552">
        <ele>2233.6000976562</ele>
        <time>2014-01-31T11:39:13.000Z</time>
      </trkpt>
      <trkpt lat="45.5674" lon="6.56552">
        <ele>2233.6000976562</ele>
        <time>2014-01-31T11:39:14.000Z</time>
      </trkpt>
      <trkpt lat="45.56741" lon="6.56553">
        <ele>2233.6000976562</ele>
        <time>2014-01-31T11:39:15.000Z</time>
      </trkpt>
      <trkpt lat="45.56742" lon="6.56553">
        <ele>2233.6000976562</ele>
        <time>2014-01-31T11:39:16.000Z</time>
      </trkpt>
      <trkpt lat="45.56744" lon="6.56554">
        <ele>2233.6000976562</ele>
        <time>2014-01-31T11:39:17.000Z</time>
      </trkpt>
      <trkpt lat="45.56743" lon="6.56554">
        <ele>2233.3999023438</ele>
        <time>2014-01-31T11:39:18.000Z</time>
      </trkpt>
      <trkpt lat="45.56745" lon="6.56555">
        <ele>2233.1999511719</ele>
        <time>2014-01-31T11:39:19.000Z</time>
      </trkpt>
      <trkpt lat="45.56746" lon="6.56556">
        <ele>2233</ele>
        <time>2014-01-31T11:39:20.000Z</time>
      </trkpt>
      <trkpt lat="45.56747" lon="6.56556">
        <ele>2232.8000488281</ele>
        <time>2014-01-31T11:39:21.000Z</time>
      </trkpt>
      <trkpt lat="45.56748" lon="6.56557">
        <ele>2232.8000488281</ele>
        <time>2014-01-31T11:39:22.000Z</time>
      </trkpt>
      <trkpt lat="45.5675" lon="6.56558">
        <ele>2232.8000488281</ele>
        <time>2014-01-31T11:39:23.000Z</time>
      </trkpt>
      <trkpt lat="45.56751" lon="6.56559">
        <ele>2233</ele>
        <time>2014-01-31T11:39:24.000Z</time>
      </trkpt>
      <trkpt lat="45.56752" lon="6.56559">
        <ele>2233</ele>
        <time>2014-01-31T11:39:25.000Z</time>
      </trkpt>
      <trkpt lat="45.56752" lon="6.5656">
        <ele>2233.1999511719</ele>
        <time>2014-01-31T11:39:26.000Z</time>
      </trkpt>
      <trkpt lat="45.56752" lon="6.5656">
        <ele>2233.1999511719</ele>
        <time>2014-01-31T11:39:27.000Z</time>
      </trkpt>
      <trkpt lat="45.56754" lon="6.5656">
        <ele>2233.1999511719</ele>
        <time>2014-01-31T11:39:28.000Z</time>
      </trkpt>
      <trkpt lat="45.56754" lon="6.5656">
        <ele>2233.1999511719</ele>
        <time>2014-01-31T11:39:29.000Z</time>
      </trkpt>
      <trkpt lat="45.56755" lon="6.56561">
        <ele>2233.1999511719</ele>
        <time>2014-01-31T11:39:30.000Z</time>
      </trkpt>
      <trkpt lat="45.56757" lon="6.56562">
        <ele>2233.1999511719</ele>
        <time>2014-01-31T11:39:31.000Z</time>
      </trkpt>
      <trkpt lat="45.56758" lon="6.56562">
        <ele>2233</ele>
        <time>2014-01-31T11:39:32.000Z</time>
      </trkpt>
      <trkpt lat="45.56759" lon="6.56563">
        <ele>2233</ele>
        <time>2014-01-31T11:39:33.000Z</time>
      </trkpt>
      <trkpt lat="45.5676" lon="6.56563">
        <ele>2233</ele>
        <time>2014-01-31T11:39:34.000Z</time>
      </trkpt>
      <trkpt lat="45.5676" lon="6.56563">
        <ele>2233</ele>
        <time>2014-01-31T11:39:35.000Z</time>
      </trkpt>
      <trkpt lat="45.56761" lon="6.56564">
        <ele>2233</ele>
        <time>2014-01-31T11:39:36.000Z</time>
      </trkpt>
      <trkpt lat="45.56761" lon="6.56564">
        <ele>2233</ele>
        <time>2014-01-31T11:39:37.000Z</time>
      </trkpt>
      <trkpt lat="45.56762" lon="6.56564">
        <ele>2233</ele>
        <time>2014-01-31T11:39:38.000Z</time>
      </trkpt>
      <trkpt lat="45.56764" lon="6.56564">
        <ele>2233.1999511719</ele>
        <time>2014-01-31T11:39:39.000Z</time>
      </trkpt>
      <trkpt lat="45.56764" lon="6.56564">
        <ele>2233.1999511719</ele>
        <time>2014-01-31T11:39:40.000Z</time>
      </trkpt>
      <trkpt lat="45.56765" lon="6.56564">
        <ele>2233.1999511719</ele>
        <time>2014-01-31T11:39:41.000Z</time>
      </trkpt>
      <trkpt lat="45.56766" lon="6.56564">
        <ele>2233.1999511719</ele>
        <time>2014-01-31T11:39:42.000Z</time>
      </trkpt>
      <trkpt lat="45.56766" lon="6.56564">
        <ele>2233.1999511719</ele>
        <time>2014-01-31T11:39:43.000Z</time>
      </trkpt>
      <trkpt lat="45.56768" lon="6.56564">
        <ele>2233.1999511719</ele>
        <time>2014-01-31T11:39:44.000Z</time>
      </trkpt>
      <trkpt lat="45.56768" lon="6.56564">
        <ele>2233.1999511719</ele>
        <time>2014-01-31T11:39:45.000Z</time>
      </trkpt>
      <trkpt lat="45.56769" lon="6.56563">
        <ele>2233.3999023438</ele>
        <time>2014-01-31T11:39:46.000Z</time>
      </trkpt>
      <trkpt lat="45.56769" lon="6.56563">
        <ele>2233.3999023438</ele>
        <time>2014-01-31T11:39:47.000Z</time>
      </trkpt>
      <trkpt lat="45.56769" lon="6.56564">
        <ele>2233.6000976562</ele>
        <time>2014-01-31T11:39:48.000Z</time>
      </trkpt>
      <trkpt lat="45.56769" lon="6.56564">
        <ele>2233.8000488281</ele>
        <time>2014-01-31T11:39:49.000Z</time>
      </trkpt>
      <trkpt lat="45.56769" lon="6.56564">
        <ele>2233.8000488281</ele>
        <time>2014-01-31T11:39:50.000Z</time>
      </trkpt>
      <trkpt lat="45.56769" lon="6.56564">
        <ele>2234</ele>
        <time>2014-01-31T11:39:51.000Z</time>
      </trkpt>
      <trkpt lat="45.56769" lon="6.56564">
        <ele>2234</ele>
        <time>2014-01-31T11:39:52.000Z</time>
      </trkpt>
      <trkpt lat="45.56769" lon="6.56564">
        <ele>2234</ele>
        <time>2014-01-31T11:39:53.000Z</time>
      </trkpt>
      <trkpt lat="45.56769" lon="6.56564">
        <ele>2234</ele>
        <time>2014-01-31T11:39:54.000Z</time>
      </trkpt>
      <trkpt lat="45.56769" lon="6.56564">
        <ele>2234</ele>
        <time>2014-01-31T11:39:56.000Z</time>
      </trkpt>
      <trkpt lat="45.56769" lon="6.56564">
        <ele>2234</ele>
        <time>2014-01-31T11:39:57.000Z</time>
      </trkpt>
      <trkpt lat="45.56769" lon="6.56563">
        <ele>2234</ele>
        <time>2014-01-31T11:39:58.000Z</time>
      </trkpt>
      <trkpt lat="45.56769" lon="6.56563">
        <ele>2234.1999511719</ele>
        <time>2014-01-31T11:39:59.000Z</time>
      </trkpt>
      <trkpt lat="45.56769" lon="6.56564">
        <ele>2234.1999511719</ele>
        <time>2014-01-31T11:40:00.000Z</time>
      </trkpt>
      <trkpt lat="45.56769" lon="6.56564">
        <ele>2234.1999511719</ele>
        <time>2014-01-31T11:40:01.000Z</time>
      </trkpt>
      <trkpt lat="45.56769" lon="6.56564">
        <ele>2234.1999511719</ele>
        <time>2014-01-31T11:40:02.000Z</time>
      </trkpt>
      <trkpt lat="45.56769" lon="6.56564">
        <ele>2234</ele>
        <time>2014-01-31T11:40:03.000Z</time>
      </trkpt>
      <trkpt lat="45.56769" lon="6.56564">
        <ele>2234</ele>
        <time>2014-01-31T11:40:04.000Z</time>
      </trkpt>
      <trkpt lat="45.56769" lon="6.56564">
        <ele>2234</ele>
        <time>2014-01-31T11:40:07.000Z</time>
      </trkpt>
      <trkpt lat="45.56769" lon="6.56564">
        <ele>2234</ele>
        <time>2014-01-31T11:40:08.000Z</time>
      </trkpt>
      <trkpt lat="45.56769" lon="6.56564">
        <ele>2234</ele>
        <time>2014-01-31T11:40:11.000Z</time>
      </trkpt>
      <trkpt lat="45.5677" lon="6.56564">
        <ele>2234</ele>
        <time>2014-01-31T11:40:12.000Z</time>
      </trkpt>
      <trkpt lat="45.5677" lon="6.56564">
        <ele>2234</ele>
        <time>2014-01-31T11:40:13.000Z</time>
      </trkpt>
      <trkpt lat="45.5677" lon="6.56564">
        <ele>2234</ele>
        <time>2014-01-31T11:40:15.000Z</time>
      </trkpt>
      <trkpt lat="45.5677" lon="6.56564">
        <ele>2234</ele>
        <time>2014-01-31T11:40:16.000Z</time>
      </trkpt>
      <trkpt lat="45.5677" lon="6.56564">
        <ele>2234</ele>
        <time>2014-01-31T11:40:17.000Z</time>
      </trkpt>
      <trkpt lat="45.5677" lon="6.56564">
        <ele>2234</ele>
        <time>2014-01-31T11:40:18.000Z</time>
      </trkpt>
      <trkpt lat="45.5677" lon="6.56564">
        <ele>2234.1999511719</ele>
        <time>2014-01-31T11:40:19.000Z</time>
      </trkpt>
      <trkpt lat="45.5677" lon="6.56564">
        <ele>2234.1999511719</ele>
        <time>2014-01-31T11:40:20.000Z</time>
      </trkpt>
      <trkpt lat="45.5677" lon="6.56564">
        <ele>2234.1999511719</ele>
        <time>2014-01-31T11:40:21.000Z</time>
      </trkpt>
      <trkpt lat="45.5677" lon="6.56564">
        <ele>2234.1999511719</ele>
        <time>2014-01-31T11:40:22.000Z</time>
      </trkpt>
      <trkpt lat="45.5677" lon="6.56564">
        <ele>2234.3999023438</ele>
        <time>2014-01-31T11:40:23.000Z</time>
      </trkpt>
      <trkpt lat="45.5677" lon="6.56564">
        <ele>2234.1999511719</ele>
        <time>2014-01-31T11:40:25.000Z</time>
      </trkpt>
      <trkpt lat="45.5677" lon="6.56564">
        <ele>2234.1999511719</ele>
        <time>2014-01-31T11:40:26.000Z</time>
      </trkpt>
      <trkpt lat="45.5677" lon="6.56564">
        <ele>2234.1999511719</ele>
        <time>2014-01-31T11:40:27.000Z</time>
      </trkpt>
      <trkpt lat="45.5677" lon="6.56564">
        <ele>2234.1999511719</ele>
        <time>2014-01-31T11:40:28.000Z</time>
      </trkpt>
      <trkpt lat="45.5677" lon="6.56564">
        <ele>2234.1999511719</ele>
        <time>2014-01-31T11:40:29.000Z</time>
      </trkpt>
      <trkpt lat="45.5677" lon="6.56564">
        <ele>2234.1999511719</ele>
        <time>2014-01-31T11:40:30.000Z</time>
      </trkpt>
      <trkpt lat="45.56771" lon="6.56564">
        <ele>2234.1999511719</ele>
        <time>2014-01-31T11:40:32.000Z</time>
      </trkpt>
      <trkpt lat="45.5677" lon="6.56564">
        <ele>2234.1999511719</ele>
        <time>2014-01-31T11:40:36.000Z</time>
      </trkpt>
      <trkpt lat="45.56771" lon="6.56564">
        <ele>2234.1999511719</ele>
        <time>2014-01-31T11:40:40.000Z</time>
      </trkpt>
      <trkpt lat="45.56771" lon="6.56564">
        <ele>2234.1999511719</ele>
        <time>2014-01-31T11:40:41.000Z</time>
      </trkpt>
      <trkpt lat="45.56771" lon="6.56564">
        <ele>2234.1999511719</ele>
        <time>2014-01-31T11:40:42.000Z</time>
      </trkpt>
      <trkpt lat="45.56771" lon="6.56564">
        <ele>2234.1999511719</ele>
        <time>2014-01-31T11:40:43.000Z</time>
      </trkpt>
      <trkpt lat="45.56771" lon="6.56564">
        <ele>2234.1999511719</ele>
        <time>2014-01-31T11:40:45.000Z</time>
      </trkpt>
      <trkpt lat="45.56771" lon="6.56564">
        <ele>2234.1999511719</ele>
        <time>2014-01-31T11:40:47.000Z</time>
      </trkpt>
      <trkpt lat="45.56771" lon="6.56564">
        <ele>2234.1999511719</ele>
        <time>2014-01-31T11:40:48.000Z</time>
      </trkpt>
      <trkpt lat="45.56771" lon="6.56564">
        <ele>2234</ele>
        <time>2014-01-31T11:40:49.000Z</time>
      </trkpt>
      <trkpt lat="45.56771" lon="6.56564">
        <ele>2234</ele>
        <time>2014-01-31T11:40:50.000Z</time>
      </trkpt>
      <trkpt lat="45.56771" lon="6.56564">
        <ele>2234</ele>
        <time>2014-01-31T11:40:51.000Z</time>
      </trkpt>
      <trkpt lat="45.56771" lon="6.56564">
        <ele>2234.1999511719</ele>
        <time>2014-01-31T11:40:53.000Z</time>
      </trkpt>
      <trkpt lat="45.56771" lon="6.56564">
        <ele>2234.1999511719</ele>
        <time>2014-01-31T11:40:54.000Z</time>
      </trkpt>
      <trkpt lat="45.56771" lon="6.56564">
        <ele>2234.1999511719</ele>
        <time>2014-01-31T11:40:55.000Z</time>
      </trkpt>
      <trkpt lat="45.56771" lon="6.56564">
        <ele>2234.1999511719</ele>
        <time>2014-01-31T11:40:56.000Z</time>
      </trkpt>
      <trkpt lat="45.56771" lon="6.56564">
        <ele>2234.1999511719</ele>
        <time>2014-01-31T11:40:57.000Z</time>
      </trkpt>
      <trkpt lat="45.56771" lon="6.56564">
        <ele>2234.1999511719</ele>
        <time>2014-01-31T11:40:58.000Z</time>
      </trkpt>
      <trkpt lat="45.56771" lon="6.56564">
        <ele>2234.1999511719</ele>
        <time>2014-01-31T11:40:59.000Z</time>
      </trkpt>
      <trkpt lat="45.56771" lon="6.56564">
        <ele>2234.1999511719</ele>
        <time>2014-01-31T11:41:00.000Z</time>
      </trkpt>
      <trkpt lat="45.56771" lon="6.56564">
        <ele>2234</ele>
        <time>2014-01-31T11:41:01.000Z</time>
      </trkpt>
      <trkpt lat="45.56771" lon="6.56564">
        <ele>2234</ele>
        <time>2014-01-31T11:41:02.000Z</time>
      </trkpt>
      <trkpt lat="45.56771" lon="6.56564">
        <ele>2234</ele>
        <time>2014-01-31T11:41:03.000Z</time>
      </trkpt>
      <trkpt lat="45.56771" lon="6.56564">
        <ele>2234</ele>
        <time>2014-01-31T11:41:04.000Z</time>
      </trkpt>
      <trkpt lat="45.56771" lon="6.56564">
        <ele>2234</ele>
        <time>2014-01-31T11:41:05.000Z</time>
      </trkpt>
      <trkpt lat="45.56771" lon="6.56564">
        <ele>2234</ele>
        <time>2014-01-31T11:41:06.000Z</time>
      </trkpt>
      <trkpt lat="45.56771" lon="6.56564">
        <ele>2233.8000488281</ele>
        <time>2014-01-31T11:41:07.000Z</time>
      </trkpt>
      <trkpt lat="45.56771" lon="6.56564">
        <ele>2234</ele>
        <time>2014-01-31T11:41:08.000Z</time>
      </trkpt>
      <trkpt lat="45.56771" lon="6.56564">
        <ele>2234</ele>
        <time>2014-01-31T11:41:09.000Z</time>
      </trkpt>
      <trkpt lat="45.56771" lon="6.56564">
        <ele>2234</ele>
        <time>2014-01-31T11:41:10.000Z</time>
      </trkpt>
      <trkpt lat="45.56771" lon="6.56564">
        <ele>2234</ele>
        <time>2014-01-31T11:41:11.000Z</time>
      </trkpt>
      <trkpt lat="45.5677" lon="6.56564">
        <ele>2234</ele>
        <time>2014-01-31T11:41:12.000Z</time>
      </trkpt>
      <trkpt lat="45.5677" lon="6.56564">
        <ele>2234.1999511719</ele>
        <time>2014-01-31T11:41:13.000Z</time>
      </trkpt>
      <trkpt lat="45.5677" lon="6.56564">
        <ele>2234</ele>
        <time>2014-01-31T11:41:15.000Z</time>
      </trkpt>
      <trkpt lat="45.5677" lon="6.56564">
        <ele>2233.8000488281</ele>
        <time>2014-01-31T11:41:16.000Z</time>
      </trkpt>
      <trkpt lat="45.5677" lon="6.56564">
        <ele>2233.8000488281</ele>
        <time>2014-01-31T11:41:17.000Z</time>
      </trkpt>
      <trkpt lat="45.5677" lon="6.56564">
        <ele>2233.6000976562</ele>
        <time>2014-01-31T11:41:18.000Z</time>
      </trkpt>
      <trkpt lat="45.5677" lon="6.56564">
        <ele>2233.6000976562</ele>
        <time>2014-01-31T11:41:19.000Z</time>
      </trkpt>
      <trkpt lat="45.5677" lon="6.56564">
        <ele>2233.6000976562</ele>
        <time>2014-01-31T11:41:20.000Z</time>
      </trkpt>
      <trkpt lat="45.5677" lon="6.56564">
        <ele>2233.3999023438</ele>
        <time>2014-01-31T11:41:21.000Z</time>
      </trkpt>
      <trkpt lat="45.5677" lon="6.56564">
        <ele>2233.3999023438</ele>
        <time>2014-01-31T11:41:22.000Z</time>
      </trkpt>
      <trkpt lat="45.56772" lon="6.56564">
        <ele>2233.3999023438</ele>
        <time>2014-01-31T11:41:23.000Z</time>
      </trkpt>
      <trkpt lat="45.56772" lon="6.56563">
        <ele>2233.1999511719</ele>
        <time>2014-01-31T11:41:24.000Z</time>
      </trkpt>
      <trkpt lat="45.56772" lon="6.56563">
        <ele>2233.1999511719</ele>
        <time>2014-01-31T11:41:25.000Z</time>
      </trkpt>
      <trkpt lat="45.56773" lon="6.56562">
        <ele>2233.1999511719</ele>
        <time>2014-01-31T11:41:26.000Z</time>
      </trkpt>
      <trkpt lat="45.56773" lon="6.56562">
        <ele>2233.3999023438</ele>
        <time>2014-01-31T11:41:27.000Z</time>
      </trkpt>
      <trkpt lat="45.56773" lon="6.56562">
        <ele>2233.6000976562</ele>
        <time>2014-01-31T11:41:28.000Z</time>
      </trkpt>
      <trkpt lat="45.56773" lon="6.56562">
        <ele>2233.8000488281</ele>
        <time>2014-01-31T11:41:29.000Z</time>
      </trkpt>
      <trkpt lat="45.56773" lon="6.56562">
        <ele>2233.8000488281</ele>
        <time>2014-01-31T11:41:30.000Z</time>
      </trkpt>
      <trkpt lat="45.56773" lon="6.56562">
        <ele>2233.8000488281</ele>
        <time>2014-01-31T11:41:31.000Z</time>
      </trkpt>
      <trkpt lat="45.56773" lon="6.56562">
        <ele>2233.8000488281</ele>
        <time>2014-01-31T11:41:32.000Z</time>
      </trkpt>
      <trkpt lat="45.56773" lon="6.56562">
        <ele>2233.8000488281</ele>
        <time>2014-01-31T11:41:35.000Z</time>
      </trkpt>
      <trkpt lat="45.56773" lon="6.56562">
        <ele>2233.8000488281</ele>
        <time>2014-01-31T11:41:36.000Z</time>
      </trkpt>
      <trkpt lat="45.56773" lon="6.56562">
        <ele>2233.8000488281</ele>
        <time>2014-01-31T11:41:37.000Z</time>
      </trkpt>
      <trkpt lat="45.56773" lon="6.56562">
        <ele>2233.8000488281</ele>
        <time>2014-01-31T11:41:38.000Z</time>
      </trkpt>
      <trkpt lat="45.56773" lon="6.56562">
        <ele>2233.8000488281</ele>
        <time>2014-01-31T11:41:39.000Z</time>
      </trkpt>
      <trkpt lat="45.56774" lon="6.56561">
        <ele>2233.8000488281</ele>
        <time>2014-01-31T11:41:40.000Z</time>
      </trkpt>
      <trkpt lat="45.56775" lon="6.5656">
        <ele>2233.8000488281</ele>
        <time>2014-01-31T11:41:41.000Z</time>
      </trkpt>
      <trkpt lat="45.56776" lon="6.56558">
        <ele>2233.8000488281</ele>
        <time>2014-01-31T11:41:42.000Z</time>
      </trkpt>
      <trkpt lat="45.56776" lon="6.56558">
        <ele>2233.8000488281</ele>
        <time>2014-01-31T11:41:43.000Z</time>
      </trkpt>
      <trkpt lat="45.56777" lon="6.56556">
        <ele>2233.8000488281</ele>
        <time>2014-01-31T11:41:44.000Z</time>
      </trkpt>
      <trkpt lat="45.56777" lon="6.56556">
        <ele>2234</ele>
        <time>2014-01-31T11:41:45.000Z</time>
      </trkpt>
      <trkpt lat="45.56778" lon="6.56555">
        <ele>2234</ele>
        <time>2014-01-31T11:41:46.000Z</time>
      </trkpt>
      <trkpt lat="45.56778" lon="6.56555">
        <ele>2234.1999511719</ele>
        <time>2014-01-31T11:41:47.000Z</time>
      </trkpt>
      <trkpt lat="45.56779" lon="6.56554">
        <ele>2234.3999023438</ele>
        <time>2014-01-31T11:41:48.000Z</time>
      </trkpt>
      <trkpt lat="45.5678" lon="6.56553">
        <ele>2234.8000488281</ele>
        <time>2014-01-31T11:41:49.000Z</time>
      </trkpt>
      <trkpt lat="45.5678" lon="6.56553">
        <ele>2234.8000488281</ele>
        <time>2014-01-31T11:41:50.000Z</time>
      </trkpt>
      <trkpt lat="45.56781" lon="6.56552">
        <ele>2235</ele>
        <time>2014-01-31T11:41:51.000Z</time>
      </trkpt>
      <trkpt lat="45.56781" lon="6.56552">
        <ele>2235</ele>
        <time>2014-01-31T11:41:52.000Z</time>
      </trkpt>
      <trkpt lat="45.56782" lon="6.56552">
        <ele>2235</ele>
        <time>2014-01-31T11:41:53.000Z</time>
      </trkpt>
      <trkpt lat="45.56783" lon="6.5655">
        <ele>2235.1999511719</ele>
        <time>2014-01-31T11:41:54.000Z</time>
      </trkpt>
      <trkpt lat="45.56783" lon="6.5655">
        <ele>2235.3999023438</ele>
        <time>2014-01-31T11:41:55.000Z</time>
      </trkpt>
      <trkpt lat="45.56783" lon="6.56549">
        <ele>2235.6000976562</ele>
        <time>2014-01-31T11:41:56.000Z</time>
      </trkpt>
      <trkpt lat="45.56784" lon="6.56548">
        <ele>2235.8000488281</ele>
        <time>2014-01-31T11:41:57.000Z</time>
      </trkpt>
      <trkpt lat="45.56785" lon="6.56547">
        <ele>2236</ele>
        <time>2014-01-31T11:41:58.000Z</time>
      </trkpt>
      <trkpt lat="45.56785" lon="6.56547">
        <ele>2236.1999511719</ele>
        <time>2014-01-31T11:41:59.000Z</time>
      </trkpt>
      <trkpt lat="45.56786" lon="6.56546">
        <ele>2236.1999511719</ele>
        <time>2014-01-31T11:42:00.000Z</time>
      </trkpt>
      <trkpt lat="45.56787" lon="6.56545">
        <ele>2236.3999023438</ele>
        <time>2014-01-31T11:42:01.000Z</time>
      </trkpt>
      <trkpt lat="45.56787" lon="6.56545">
        <ele>2236.6000976562</ele>
        <time>2014-01-31T11:42:02.000Z</time>
      </trkpt>
      <trkpt lat="45.56788" lon="6.56544">
        <ele>2236.8000488281</ele>
        <time>2014-01-31T11:42:03.000Z</time>
      </trkpt>
      <trkpt lat="45.56789" lon="6.56543">
        <ele>2237.1999511719</ele>
        <time>2014-01-31T11:42:04.000Z</time>
      </trkpt>
      <trkpt lat="45.56789" lon="6.56543">
        <ele>2237.1999511719</ele>
        <time>2014-01-31T11:42:05.000Z</time>
      </trkpt>
      <trkpt lat="45.56791" lon="6.56542">
        <ele>2237.3999023438</ele>
        <time>2014-01-31T11:42:06.000Z</time>
      </trkpt>
      <trkpt lat="45.56791" lon="6.56542">
        <ele>2237.6000976562</ele>
        <time>2014-01-31T11:42:07.000Z</time>
      </trkpt>
      <trkpt lat="45.56792" lon="6.56541">
        <ele>2237.8000488281</ele>
        <time>2014-01-31T11:42:08.000Z</time>
      </trkpt>
      <trkpt lat="45.56792" lon="6.56541">
        <ele>2238</ele>
        <time>2014-01-31T11:42:09.000Z</time>
      </trkpt>
      <trkpt lat="45.56793" lon="6.5654">
        <ele>2238.1999511719</ele>
        <time>2014-01-31T11:42:10.000Z</time>
      </trkpt>
      <trkpt lat="45.56793" lon="6.5654">
        <ele>2238.1999511719</ele>
        <time>2014-01-31T11:42:11.000Z</time>
      </trkpt>
      <trkpt lat="45.56794" lon="6.56539">
        <ele>2238.3999023438</ele>
        <time>2014-01-31T11:42:12.000Z</time>
      </trkpt>
      <trkpt lat="45.56795" lon="6.56538">
        <ele>2238.6000976562</ele>
        <time>2014-01-31T11:42:13.000Z</time>
      </trkpt>
      <trkpt lat="45.56795" lon="6.56538">
        <ele>2238.8000488281</ele>
        <time>2014-01-31T11:42:14.000Z</time>
      </trkpt>
      <trkpt lat="45.56795" lon="6.56537">
        <ele>2239</ele>
        <time>2014-01-31T11:42:15.000Z</time>
      </trkpt>
      <trkpt lat="45.56796" lon="6.56537">
        <ele>2239.1999511719</ele>
        <time>2014-01-31T11:42:16.000Z</time>
      </trkpt>
      <trkpt lat="45.56796" lon="6.56537">
        <ele>2239.3999023438</ele>
        <time>2014-01-31T11:42:17.000Z</time>
      </trkpt>
      <trkpt lat="45.56797" lon="6.56536">
        <ele>2239.6000976562</ele>
        <time>2014-01-31T11:42:18.000Z</time>
      </trkpt>
      <trkpt lat="45.56797" lon="6.56535">
        <ele>2239.8000488281</ele>
        <time>2014-01-31T11:42:19.000Z</time>
      </trkpt>
      <trkpt lat="45.56797" lon="6.56535">
        <ele>2240</ele>
        <time>2014-01-31T11:42:20.000Z</time>
      </trkpt>
      <trkpt lat="45.56798" lon="6.56534">
        <ele>2240.1999511719</ele>
        <time>2014-01-31T11:42:21.000Z</time>
      </trkpt>
      <trkpt lat="45.56798" lon="6.56533">
        <ele>2240.3999023438</ele>
        <time>2014-01-31T11:42:22.000Z</time>
      </trkpt>
      <trkpt lat="45.56799" lon="6.56532">
        <ele>2240.3999023438</ele>
        <time>2014-01-31T11:42:23.000Z</time>
      </trkpt>
      <trkpt lat="45.56799" lon="6.56531">
        <ele>2240.6000976562</ele>
        <time>2014-01-31T11:42:24.000Z</time>
      </trkpt>
      <trkpt lat="45.56799" lon="6.56531">
        <ele>2241</ele>
        <time>2014-01-31T11:42:25.000Z</time>
      </trkpt>
      <trkpt lat="45.568" lon="6.5653">
        <ele>2241.1999511719</ele>
        <time>2014-01-31T11:42:26.000Z</time>
      </trkpt>
      <trkpt lat="45.568" lon="6.5653">
        <ele>2241.3999023438</ele>
        <time>2014-01-31T11:42:27.000Z</time>
      </trkpt>
      <trkpt lat="45.568" lon="6.56529">
        <ele>2242</ele>
        <time>2014-01-31T11:42:28.000Z</time>
      </trkpt>
      <trkpt lat="45.56801" lon="6.56528">
        <ele>2242</ele>
        <time>2014-01-31T11:42:29.000Z</time>
      </trkpt>
      <trkpt lat="45.56801" lon="6.56527">
        <ele>2242.3999023438</ele>
        <time>2014-01-31T11:42:30.000Z</time>
      </trkpt>
      <trkpt lat="45.56802" lon="6.56525">
        <ele>2242.8000488281</ele>
        <time>2014-01-31T11:42:32.000Z</time>
      </trkpt>
      <trkpt lat="45.56802" lon="6.56524">
        <ele>2242.6000976562</ele>
        <time>2014-01-31T11:42:33.000Z</time>
      </trkpt>
      <trkpt lat="45.56803" lon="6.56523">
        <ele>2243</ele>
        <time>2014-01-31T11:42:34.000Z</time>
      </trkpt>
      <trkpt lat="45.56803" lon="6.56523">
        <ele>2243</ele>
        <time>2014-01-31T11:42:35.000Z</time>
      </trkpt>
      <trkpt lat="45.56803" lon="6.56522">
        <ele>2243.3999023438</ele>
        <time>2014-01-31T11:42:36.000Z</time>
      </trkpt>
      <trkpt lat="45.56803" lon="6.56521">
        <ele>2243.8000488281</ele>
        <time>2014-01-31T11:42:38.000Z</time>
      </trkpt>
      <trkpt lat="45.56803" lon="6.56521">
        <ele>2243.8000488281</ele>
        <time>2014-01-31T11:42:39.000Z</time>
      </trkpt>
      <trkpt lat="45.56803" lon="6.5652">
        <ele>2244.1999511719</ele>
        <time>2014-01-31T11:42:40.000Z</time>
      </trkpt>
      <trkpt lat="45.56803" lon="6.5652">
        <ele>2244.1999511719</ele>
        <time>2014-01-31T11:42:41.000Z</time>
      </trkpt>
      <trkpt lat="45.56804" lon="6.56517">
        <ele>2244.6000976562</ele>
        <time>2014-01-31T11:42:42.000Z</time>
      </trkpt>
      <trkpt lat="45.56804" lon="6.56516">
        <ele>2244.6000976562</ele>
        <time>2014-01-31T11:42:43.000Z</time>
      </trkpt>
      <trkpt lat="45.56805" lon="6.56515">
        <ele>2245</ele>
        <time>2014-01-31T11:42:44.000Z</time>
      </trkpt>
      <trkpt lat="45.56805" lon="6.56515">
        <ele>2245.1999511719</ele>
        <time>2014-01-31T11:42:45.000Z</time>
      </trkpt>
      <trkpt lat="45.56805" lon="6.56513">
        <ele>2245.3999023438</ele>
        <time>2014-01-31T11:42:46.000Z</time>
      </trkpt>
      <trkpt lat="45.56805" lon="6.56514">
        <ele>2245.6000976562</ele>
        <time>2014-01-31T11:42:47.000Z</time>
      </trkpt>
      <trkpt lat="45.56805" lon="6.56513">
        <ele>2245.8000488281</ele>
        <time>2014-01-31T11:42:48.000Z</time>
      </trkpt>
      <trkpt lat="45.56805" lon="6.56512">
        <ele>2246</ele>
        <time>2014-01-31T11:42:49.000Z</time>
      </trkpt>
      <trkpt lat="45.56805" lon="6.56512">
        <ele>2246.1999511719</ele>
        <time>2014-01-31T11:42:50.000Z</time>
      </trkpt>
      <trkpt lat="45.56806" lon="6.56512">
        <ele>2246.1999511719</ele>
        <time>2014-01-31T11:42:51.000Z</time>
      </trkpt>
      <trkpt lat="45.56806" lon="6.56511">
        <ele>2246.3999023438</ele>
        <time>2014-01-31T11:42:52.000Z</time>
      </trkpt>
      <trkpt lat="45.56806" lon="6.5651">
        <ele>2246.6000976562</ele>
        <time>2014-01-31T11:42:53.000Z</time>
      </trkpt>
      <trkpt lat="45.56806" lon="6.56509">
        <ele>2246.8000488281</ele>
        <time>2014-01-31T11:42:54.000Z</time>
      </trkpt>
      <trkpt lat="45.56806" lon="6.56508">
        <ele>2247.1999511719</ele>
        <time>2014-01-31T11:42:55.000Z</time>
      </trkpt>
      <trkpt lat="45.56806" lon="6.56506">
        <ele>2247.3999023438</ele>
        <time>2014-01-31T11:42:56.000Z</time>
      </trkpt>
      <trkpt lat="45.56806" lon="6.56506">
        <ele>2247.6000976562</ele>
        <time>2014-01-31T11:42:57.000Z</time>
      </trkpt>
      <trkpt lat="45.56806" lon="6.56505">
        <ele>2247.8000488281</ele>
        <time>2014-01-31T11:42:58.000Z</time>
      </trkpt>
      <trkpt lat="45.56806" lon="6.56503">
        <ele>2248</ele>
        <time>2014-01-31T11:42:59.000Z</time>
      </trkpt>
      <trkpt lat="45.56805" lon="6.56503">
        <ele>2248.3999023438</ele>
        <time>2014-01-31T11:43:00.000Z</time>
      </trkpt>
      <trkpt lat="45.56805" lon="6.56501">
        <ele>2248.6000976562</ele>
        <time>2014-01-31T11:43:01.000Z</time>
      </trkpt>
      <trkpt lat="45.56805" lon="6.56501">
        <ele>2249</ele>
        <time>2014-01-31T11:43:02.000Z</time>
      </trkpt>
      <trkpt lat="45.56805" lon="6.565">
        <ele>2249</ele>
        <time>2014-01-31T11:43:03.000Z</time>
      </trkpt>
      <trkpt lat="45.56805" lon="6.56498">
        <ele>2249.3999023438</ele>
        <time>2014-01-31T11:43:04.000Z</time>
      </trkpt>
      <trkpt lat="45.56805" lon="6.56497">
        <ele>2249.3999023438</ele>
        <time>2014-01-31T11:43:05.000Z</time>
      </trkpt>
      <trkpt lat="45.56805" lon="6.56498">
        <ele>2249.8000488281</ele>
        <time>2014-01-31T11:43:06.000Z</time>
      </trkpt>
      <trkpt lat="45.56805" lon="6.56497">
        <ele>2249.8000488281</ele>
        <time>2014-01-31T11:43:07.000Z</time>
      </trkpt>
      <trkpt lat="45.56805" lon="6.56496">
        <ele>2250.1999511719</ele>
        <time>2014-01-31T11:43:08.000Z</time>
      </trkpt>
      <trkpt lat="45.56804" lon="6.56495">
        <ele>2250.1999511719</ele>
        <time>2014-01-31T11:43:09.000Z</time>
      </trkpt>
      <trkpt lat="45.56804" lon="6.56495">
        <ele>2250.6000976562</ele>
        <time>2014-01-31T11:43:10.000Z</time>
      </trkpt>
      <trkpt lat="45.56804" lon="6.56494">
        <ele>2250.6000976562</ele>
        <time>2014-01-31T11:43:11.000Z</time>
      </trkpt>
      <trkpt lat="45.56804" lon="6.56491">
        <ele>2250.8000488281</ele>
        <time>2014-01-31T11:43:12.000Z</time>
      </trkpt>
      <trkpt lat="45.56804" lon="6.56491">
        <ele>2250.8000488281</ele>
        <time>2014-01-31T11:43:13.000Z</time>
      </trkpt>
      <trkpt lat="45.56805" lon="6.5649">
        <ele>2251</ele>
        <time>2014-01-31T11:43:14.000Z</time>
      </trkpt>
      <trkpt lat="45.56805" lon="6.56488">
        <ele>2251</ele>
        <time>2014-01-31T11:43:15.000Z</time>
      </trkpt>
      <trkpt lat="45.56805" lon="6.56488">
        <ele>2251.3999023438</ele>
        <time>2014-01-31T11:43:16.000Z</time>
      </trkpt>
      <trkpt lat="45.56805" lon="6.56487">
        <ele>2251.6000976562</ele>
        <time>2014-01-31T11:43:17.000Z</time>
      </trkpt>
      <trkpt lat="45.56805" lon="6.56486">
        <ele>2251.8000488281</ele>
        <time>2014-01-31T11:43:18.000Z</time>
      </trkpt>
      <trkpt lat="45.56805" lon="6.56486">
        <ele>2252</ele>
        <time>2014-01-31T11:43:19.000Z</time>
      </trkpt>
      <trkpt lat="45.56805" lon="6.56483">
        <ele>2252.1999511719</ele>
        <time>2014-01-31T11:43:20.000Z</time>
      </trkpt>
      <trkpt lat="45.56805" lon="6.56484">
        <ele>2252.6000976562</ele>
        <time>2014-01-31T11:43:21.000Z</time>
      </trkpt>
      <trkpt lat="45.56805" lon="6.56482">
        <ele>2252.6000976562</ele>
        <time>2014-01-31T11:43:22.000Z</time>
      </trkpt>
      <trkpt lat="45.56805" lon="6.56482">
        <ele>2253</ele>
        <time>2014-01-31T11:43:23.000Z</time>
      </trkpt>
      <trkpt lat="45.56806" lon="6.5648">
        <ele>2253</ele>
        <time>2014-01-31T11:43:24.000Z</time>
      </trkpt>
      <trkpt lat="45.56806" lon="6.56479">
        <ele>2253.3999023438</ele>
        <time>2014-01-31T11:43:25.000Z</time>
      </trkpt>
      <trkpt lat="45.56807" lon="6.56478">
        <ele>2253.3999023438</ele>
        <time>2014-01-31T11:43:26.000Z</time>
      </trkpt>
      <trkpt lat="45.56806" lon="6.56478">
        <ele>2253.8000488281</ele>
        <time>2014-01-31T11:43:27.000Z</time>
      </trkpt>
      <trkpt lat="45.56806" lon="6.56478">
        <ele>2253.6000976562</ele>
        <time>2014-01-31T11:43:28.000Z</time>
      </trkpt>
      <trkpt lat="45.56806" lon="6.56478">
        <ele>2254</ele>
        <time>2014-01-31T11:43:29.000Z</time>
      </trkpt>
      <trkpt lat="45.56807" lon="6.56477">
        <ele>2254</ele>
        <time>2014-01-31T11:43:30.000Z</time>
      </trkpt>
      <trkpt lat="45.56807" lon="6.56475">
        <ele>2254.3999023438</ele>
        <time>2014-01-31T11:43:31.000Z</time>
      </trkpt>
      <trkpt lat="45.56807" lon="6.56475">
        <ele>2254.6000976562</ele>
        <time>2014-01-31T11:43:32.000Z</time>
      </trkpt>
      <trkpt lat="45.56807" lon="6.56474">
        <ele>2254.8000488281</ele>
        <time>2014-01-31T11:43:33.000Z</time>
      </trkpt>
      <trkpt lat="45.56807" lon="6.56473">
        <ele>2255</ele>
        <time>2014-01-31T11:43:34.000Z</time>
      </trkpt>
      <trkpt lat="45.56807" lon="6.56472">
        <ele>2255.1999511719</ele>
        <time>2014-01-31T11:43:35.000Z</time>
      </trkpt>
      <trkpt lat="45.56808" lon="6.56471">
        <ele>2255.3999023438</ele>
        <time>2014-01-31T11:43:36.000Z</time>
      </trkpt>
      <trkpt lat="45.56808" lon="6.5647">
        <ele>2255.6000976562</ele>
        <time>2014-01-31T11:43:37.000Z</time>
      </trkpt>
      <trkpt lat="45.56808" lon="6.5647">
        <ele>2255.6000976562</ele>
        <time>2014-01-31T11:43:38.000Z</time>
      </trkpt>
      <trkpt lat="45.56808" lon="6.56468">
        <ele>2255.8000488281</ele>
        <time>2014-01-31T11:43:39.000Z</time>
      </trkpt>
      <trkpt lat="45.56808" lon="6.56468">
        <ele>2256.1999511719</ele>
        <time>2014-01-31T11:43:40.000Z</time>
      </trkpt>
      <trkpt lat="45.56807" lon="6.56468">
        <ele>2256.3999023438</ele>
        <time>2014-01-31T11:43:41.000Z</time>
      </trkpt>
      <trkpt lat="45.56807" lon="6.56467">
        <ele>2256.6000976562</ele>
        <time>2014-01-31T11:43:42.000Z</time>
      </trkpt>
      <trkpt lat="45.56808" lon="6.56466">
        <ele>2256.8000488281</ele>
        <time>2014-01-31T11:43:43.000Z</time>
      </trkpt>
      <trkpt lat="45.56808" lon="6.56466">
        <ele>2256.8000488281</ele>
        <time>2014-01-31T11:43:44.000Z</time>
      </trkpt>
      <trkpt lat="45.56807" lon="6.56465">
        <ele>2257</ele>
        <time>2014-01-31T11:43:45.000Z</time>
      </trkpt>
      <trkpt lat="45.56807" lon="6.56464">
        <ele>2257</ele>
        <time>2014-01-31T11:43:46.000Z</time>
      </trkpt>
      <trkpt lat="45.56808" lon="6.56463">
        <ele>2257.1999511719</ele>
        <time>2014-01-31T11:43:47.000Z</time>
      </trkpt>
      <trkpt lat="45.56808" lon="6.56462">
        <ele>2257.3999023438</ele>
        <time>2014-01-31T11:43:48.000Z</time>
      </trkpt>
      <trkpt lat="45.56808" lon="6.56461">
        <ele>2257.6000976562</ele>
        <time>2014-01-31T11:43:49.000Z</time>
      </trkpt>
      <trkpt lat="45.56808" lon="6.5646">
        <ele>2257.8000488281</ele>
        <time>2014-01-31T11:43:50.000Z</time>
      </trkpt>
      <trkpt lat="45.56808" lon="6.56459">
        <ele>2258</ele>
        <time>2014-01-31T11:43:51.000Z</time>
      </trkpt>
      <trkpt lat="45.56808" lon="6.56458">
        <ele>2258.1999511719</ele>
        <time>2014-01-31T11:43:52.000Z</time>
      </trkpt>
      <trkpt lat="45.56808" lon="6.56458">
        <ele>2258.3999023438</ele>
        <time>2014-01-31T11:43:53.000Z</time>
      </trkpt>
      <trkpt lat="45.56809" lon="6.56456">
        <ele>2258.6000976562</ele>
        <time>2014-01-31T11:43:54.000Z</time>
      </trkpt>
      <trkpt lat="45.56809" lon="6.56457">
        <ele>2258.8000488281</ele>
        <time>2014-01-31T11:43:55.000Z</time>
      </trkpt>
      <trkpt lat="45.56809" lon="6.56456">
        <ele>2258.8000488281</ele>
        <time>2014-01-31T11:43:56.000Z</time>
      </trkpt>
      <trkpt lat="45.56809" lon="6.56456">
        <ele>2259</ele>
        <time>2014-01-31T11:43:57.000Z</time>
      </trkpt>
      <trkpt lat="45.56809" lon="6.56456">
        <ele>2259.1999511719</ele>
        <time>2014-01-31T11:43:58.000Z</time>
      </trkpt>
      <trkpt lat="45.56809" lon="6.56455">
        <ele>2259.3999023438</ele>
        <time>2014-01-31T11:43:59.000Z</time>
      </trkpt>
      <trkpt lat="45.5681" lon="6.56453">
        <ele>2259.6000976562</ele>
        <time>2014-01-31T11:44:00.000Z</time>
      </trkpt>
      <trkpt lat="45.5681" lon="6.56452">
        <ele>2259.8000488281</ele>
        <time>2014-01-31T11:44:01.000Z</time>
      </trkpt>
      <trkpt lat="45.5681" lon="6.56451">
        <ele>2260</ele>
        <time>2014-01-31T11:44:02.000Z</time>
      </trkpt>
      <trkpt lat="45.5681" lon="6.5645">
        <ele>2260.3999023438</ele>
        <time>2014-01-31T11:44:03.000Z</time>
      </trkpt>
      <trkpt lat="45.5681" lon="6.56449">
        <ele>2260.8000488281</ele>
        <time>2014-01-31T11:44:04.000Z</time>
      </trkpt>
      <trkpt lat="45.56811" lon="6.56448">
        <ele>2261</ele>
        <time>2014-01-31T11:44:05.000Z</time>
      </trkpt>
      <trkpt lat="45.56811" lon="6.56447">
        <ele>2261.1999511719</ele>
        <time>2014-01-31T11:44:06.000Z</time>
      </trkpt>
      <trkpt lat="45.56811" lon="6.56446">
        <ele>2261.3999023438</ele>
        <time>2014-01-31T11:44:07.000Z</time>
      </trkpt>
      <trkpt lat="45.56811" lon="6.56446">
        <ele>2261.6000976562</ele>
        <time>2014-01-31T11:44:08.000Z</time>
      </trkpt>
      <trkpt lat="45.56812" lon="6.56444">
        <ele>2261.6000976562</ele>
        <time>2014-01-31T11:44:09.000Z</time>
      </trkpt>
      <trkpt lat="45.56812" lon="6.56444">
        <ele>2262</ele>
        <time>2014-01-31T11:44:10.000Z</time>
      </trkpt>
      <trkpt lat="45.56812" lon="6.56441">
        <ele>2261.8000488281</ele>
        <time>2014-01-31T11:44:11.000Z</time>
      </trkpt>
      <trkpt lat="45.56812" lon="6.56441">
        <ele>2262.1999511719</ele>
        <time>2014-01-31T11:44:12.000Z</time>
      </trkpt>
      <trkpt lat="45.56812" lon="6.5644">
        <ele>2262.1999511719</ele>
        <time>2014-01-31T11:44:13.000Z</time>
      </trkpt>
      <trkpt lat="45.56812" lon="6.5644">
        <ele>2262.6000976562</ele>
        <time>2014-01-31T11:44:14.000Z</time>
      </trkpt>
      <trkpt lat="45.56812" lon="6.5644">
        <ele>2262.3999023438</ele>
        <time>2014-01-31T11:44:15.000Z</time>
      </trkpt>
      <trkpt lat="45.56813" lon="6.56439">
        <ele>2262.8000488281</ele>
        <time>2014-01-31T11:44:16.000Z</time>
      </trkpt>
      <trkpt lat="45.56813" lon="6.56438">
        <ele>2262.6000976562</ele>
        <time>2014-01-31T11:44:17.000Z</time>
      </trkpt>
      <trkpt lat="45.56814" lon="6.56437">
        <ele>2263</ele>
        <time>2014-01-31T11:44:18.000Z</time>
      </trkpt>
      <trkpt lat="45.56814" lon="6.56436">
        <ele>2263</ele>
        <time>2014-01-31T11:44:19.000Z</time>
      </trkpt>
      <trkpt lat="45.56814" lon="6.56435">
        <ele>2263.3999023438</ele>
        <time>2014-01-31T11:44:20.000Z</time>
      </trkpt>
      <trkpt lat="45.56815" lon="6.56435">
        <ele>2263.1999511719</ele>
        <time>2014-01-31T11:44:21.000Z</time>
      </trkpt>
      <trkpt lat="45.56815" lon="6.56434">
        <ele>2263.6000976562</ele>
        <time>2014-01-31T11:44:22.000Z</time>
      </trkpt>
      <trkpt lat="45.56815" lon="6.56434">
        <ele>2263.6000976562</ele>
        <time>2014-01-31T11:44:23.000Z</time>
      </trkpt>
      <trkpt lat="45.56815" lon="6.56433">
        <ele>2264</ele>
        <time>2014-01-31T11:44:24.000Z</time>
      </trkpt>
      <trkpt lat="45.56815" lon="6.56432">
        <ele>2264</ele>
        <time>2014-01-31T11:44:25.000Z</time>
      </trkpt>
      <trkpt lat="45.56815" lon="6.56431">
        <ele>2264.3999023438</ele>
        <time>2014-01-31T11:44:26.000Z</time>
      </trkpt>
      <trkpt lat="45.56815" lon="6.5643">
        <ele>2264.1999511719</ele>
        <time>2014-01-31T11:44:27.000Z</time>
      </trkpt>
      <trkpt lat="45.56816" lon="6.56428">
        <ele>2264.6000976562</ele>
        <time>2014-01-31T11:44:28.000Z</time>
      </trkpt>
      <trkpt lat="45.56816" lon="6.56427">
        <ele>2265</ele>
        <time>2014-01-31T11:44:29.000Z</time>
      </trkpt>
      <trkpt lat="45.56816" lon="6.56427">
        <ele>2264.8000488281</ele>
        <time>2014-01-31T11:44:30.000Z</time>
      </trkpt>
      <trkpt lat="45.56817" lon="6.56426">
        <ele>2265.1999511719</ele>
        <time>2014-01-31T11:44:31.000Z</time>
      </trkpt>
      <trkpt lat="45.56817" lon="6.56425">
        <ele>2265</ele>
        <time>2014-01-31T11:44:32.000Z</time>
      </trkpt>
      <trkpt lat="45.56816" lon="6.56425">
        <ele>2265.6000976562</ele>
        <time>2014-01-31T11:44:33.000Z</time>
      </trkpt>
      <trkpt lat="45.56816" lon="6.56424">
        <ele>2265.6000976562</ele>
        <time>2014-01-31T11:44:34.000Z</time>
      </trkpt>
      <trkpt lat="45.56816" lon="6.56424">
        <ele>2265.8000488281</ele>
        <time>2014-01-31T11:44:35.000Z</time>
      </trkpt>
      <trkpt lat="45.56817" lon="6.56423">
        <ele>2265.8000488281</ele>
        <time>2014-01-31T11:44:36.000Z</time>
      </trkpt>
      <trkpt lat="45.56817" lon="6.56422">
        <ele>2266.1999511719</ele>
        <time>2014-01-31T11:44:37.000Z</time>
      </trkpt>
      <trkpt lat="45.56817" lon="6.56421">
        <ele>2266.1999511719</ele>
        <time>2014-01-31T11:44:38.000Z</time>
      </trkpt>
      <trkpt lat="45.56818" lon="6.5642">
        <ele>2266.8000488281</ele>
        <time>2014-01-31T11:44:39.000Z</time>
      </trkpt>
      <trkpt lat="45.56818" lon="6.56418">
        <ele>2266.8000488281</ele>
        <time>2014-01-31T11:44:40.000Z</time>
      </trkpt>
      <trkpt lat="45.56818" lon="6.56417">
        <ele>2267.1999511719</ele>
        <time>2014-01-31T11:44:41.000Z</time>
      </trkpt>
      <trkpt lat="45.56819" lon="6.56417">
        <ele>2267.3999023438</ele>
        <time>2014-01-31T11:44:42.000Z</time>
      </trkpt>
      <trkpt lat="45.56819" lon="6.56416">
        <ele>2267.8000488281</ele>
        <time>2014-01-31T11:44:43.000Z</time>
      </trkpt>
      <trkpt lat="45.56819" lon="6.56415">
        <ele>2268</ele>
        <time>2014-01-31T11:44:44.000Z</time>
      </trkpt>
      <trkpt lat="45.5682" lon="6.56414">
        <ele>2268.1999511719</ele>
        <time>2014-01-31T11:44:45.000Z</time>
      </trkpt>
      <trkpt lat="45.5682" lon="6.56414">
        <ele>2268.1999511719</ele>
        <time>2014-01-31T11:44:46.000Z</time>
      </trkpt>
      <trkpt lat="45.5682" lon="6.56413">
        <ele>2268.3999023438</ele>
        <time>2014-01-31T11:44:47.000Z</time>
      </trkpt>
      <trkpt lat="45.5682" lon="6.56412">
        <ele>2268.6000976562</ele>
        <time>2014-01-31T11:44:48.000Z</time>
      </trkpt>
      <trkpt lat="45.5682" lon="6.56411">
        <ele>2268.8000488281</ele>
        <time>2014-01-31T11:44:49.000Z</time>
      </trkpt>
      <trkpt lat="45.5682" lon="6.5641">
        <ele>2268.8000488281</ele>
        <time>2014-01-31T11:44:50.000Z</time>
      </trkpt>
      <trkpt lat="45.5682" lon="6.5641">
        <ele>2268.8000488281</ele>
        <time>2014-01-31T11:44:51.000Z</time>
      </trkpt>
      <trkpt lat="45.5682" lon="6.5641">
        <ele>2269.1999511719</ele>
        <time>2014-01-31T11:44:52.000Z</time>
      </trkpt>
      <trkpt lat="45.5682" lon="6.5641">
        <ele>2269.3999023438</ele>
        <time>2014-01-31T11:44:53.000Z</time>
      </trkpt>
      <trkpt lat="45.5682" lon="6.5641">
        <ele>2269.6000976562</ele>
        <time>2014-01-31T11:44:54.000Z</time>
      </trkpt>
      <trkpt lat="45.5682" lon="6.5641">
        <ele>2269.8000488281</ele>
        <time>2014-01-31T11:44:55.000Z</time>
      </trkpt>
      <trkpt lat="45.5682" lon="6.5641">
        <ele>2269.8000488281</ele>
        <time>2014-01-31T11:44:56.000Z</time>
      </trkpt>
      <trkpt lat="45.5682" lon="6.5641">
        <ele>2269.8000488281</ele>
        <time>2014-01-31T11:44:57.000Z</time>
      </trkpt>
      <trkpt lat="45.5682" lon="6.5641">
        <ele>2270</ele>
        <time>2014-01-31T11:44:58.000Z</time>
      </trkpt>
      <trkpt lat="45.5682" lon="6.5641">
        <ele>2270</ele>
        <time>2014-01-31T11:44:59.000Z</time>
      </trkpt>
      <trkpt lat="45.5682" lon="6.5641">
        <ele>2270</ele>
        <time>2014-01-31T11:45:01.000Z</time>
      </trkpt>
      <trkpt lat="45.5682" lon="6.5641">
        <ele>2270</ele>
        <time>2014-01-31T11:45:02.000Z</time>
      </trkpt>
      <trkpt lat="45.5682" lon="6.5641">
        <ele>2270.1999511719</ele>
        <time>2014-01-31T11:45:03.000Z</time>
      </trkpt>
      <trkpt lat="45.5682" lon="6.5641">
        <ele>2270.1999511719</ele>
        <time>2014-01-31T11:45:04.000Z</time>
      </trkpt>
      <trkpt lat="45.5682" lon="6.5641">
        <ele>2270.1999511719</ele>
        <time>2014-01-31T11:45:05.000Z</time>
      </trkpt>
      <trkpt lat="45.5682" lon="6.5641">
        <ele>2270.1999511719</ele>
        <time>2014-01-31T11:45:06.000Z</time>
      </trkpt>
      <trkpt lat="45.5682" lon="6.5641">
        <ele>2270.3999023438</ele>
        <time>2014-01-31T11:45:07.000Z</time>
      </trkpt>
      <trkpt lat="45.5682" lon="6.5641">
        <ele>2270.3999023438</ele>
        <time>2014-01-31T11:45:08.000Z</time>
      </trkpt>
      <trkpt lat="45.56821" lon="6.56408">
        <ele>2270.3999023438</ele>
        <time>2014-01-31T11:45:12.000Z</time>
      </trkpt>
      <trkpt lat="45.56822" lon="6.56407">
        <ele>2270.1999511719</ele>
        <time>2014-01-31T11:45:13.000Z</time>
      </trkpt>
      <trkpt lat="45.56822" lon="6.56406">
        <ele>2270.1999511719</ele>
        <time>2014-01-31T11:45:14.000Z</time>
      </trkpt>
      <trkpt lat="45.56823" lon="6.56404">
        <ele>2270.1999511719</ele>
        <time>2014-01-31T11:45:15.000Z</time>
      </trkpt>
      <trkpt lat="45.56823" lon="6.56403">
        <ele>2270.6000976562</ele>
        <time>2014-01-31T11:45:16.000Z</time>
      </trkpt>
      <trkpt lat="45.56824" lon="6.56402">
        <ele>2270.8000488281</ele>
        <time>2014-01-31T11:45:17.000Z</time>
      </trkpt>
      <trkpt lat="45.56824" lon="6.56401">
        <ele>2271</ele>
        <time>2014-01-31T11:45:18.000Z</time>
      </trkpt>
      <trkpt lat="45.56825" lon="6.564">
        <ele>2271.1999511719</ele>
        <time>2014-01-31T11:45:19.000Z</time>
      </trkpt>
      <trkpt lat="45.56825" lon="6.564">
        <ele>2271.3999023438</ele>
        <time>2014-01-31T11:45:20.000Z</time>
      </trkpt>
      <trkpt lat="45.56825" lon="6.56399">
        <ele>2271.6000976562</ele>
        <time>2014-01-31T11:45:21.000Z</time>
      </trkpt>
      <trkpt lat="45.56826" lon="6.56398">
        <ele>2271.8000488281</ele>
        <time>2014-01-31T11:45:22.000Z</time>
      </trkpt>
      <trkpt lat="45.56827" lon="6.56398">
        <ele>2272</ele>
        <time>2014-01-31T11:45:23.000Z</time>
      </trkpt>
      <trkpt lat="45.56827" lon="6.56397">
        <ele>2272.1999511719</ele>
        <time>2014-01-31T11:45:24.000Z</time>
      </trkpt>
      <trkpt lat="45.56828" lon="6.56396">
        <ele>2272.3999023438</ele>
        <time>2014-01-31T11:45:25.000Z</time>
      </trkpt>
      <trkpt lat="45.56828" lon="6.56396">
        <ele>2272.3999023438</ele>
        <time>2014-01-31T11:45:26.000Z</time>
      </trkpt>
      <trkpt lat="45.56828" lon="6.56395">
        <ele>2272.6000976562</ele>
        <time>2014-01-31T11:45:27.000Z</time>
      </trkpt>
      <trkpt lat="45.56829" lon="6.56395">
        <ele>2272.8000488281</ele>
        <time>2014-01-31T11:45:28.000Z</time>
      </trkpt>
      <trkpt lat="45.56829" lon="6.56394">
        <ele>2273</ele>
        <time>2014-01-31T11:45:29.000Z</time>
      </trkpt>
      <trkpt lat="45.5683" lon="6.56394">
        <ele>2273</ele>
        <time>2014-01-31T11:45:30.000Z</time>
      </trkpt>
      <trkpt lat="45.5683" lon="6.56393">
        <ele>2273.1999511719</ele>
        <time>2014-01-31T11:45:31.000Z</time>
      </trkpt>
      <trkpt lat="45.5683" lon="6.56392">
        <ele>2273.3999023438</ele>
        <time>2014-01-31T11:45:32.000Z</time>
      </trkpt>
      <trkpt lat="45.56831" lon="6.56392">
        <ele>2273.6000976562</ele>
        <time>2014-01-31T11:45:33.000Z</time>
      </trkpt>
      <trkpt lat="45.56831" lon="6.56391">
        <ele>2273.6000976562</ele>
        <time>2014-01-31T11:45:34.000Z</time>
      </trkpt>
      <trkpt lat="45.56832" lon="6.5639">
        <ele>2274</ele>
        <time>2014-01-31T11:45:35.000Z</time>
      </trkpt>
      <trkpt lat="45.56832" lon="6.5639">
        <ele>2274</ele>
        <time>2014-01-31T11:45:36.000Z</time>
      </trkpt>
      <trkpt lat="45.56833" lon="6.56389">
        <ele>2274.3999023438</ele>
        <time>2014-01-31T11:45:37.000Z</time>
      </trkpt>
      <trkpt lat="45.56833" lon="6.56388">
        <ele>2274.3999023438</ele>
        <time>2014-01-31T11:45:38.000Z</time>
      </trkpt>
      <trkpt lat="45.56834" lon="6.56387">
        <ele>2274.6000976562</ele>
        <time>2014-01-31T11:45:39.000Z</time>
      </trkpt>
      <trkpt lat="45.56834" lon="6.56387">
        <ele>2275</ele>
        <time>2014-01-31T11:45:40.000Z</time>
      </trkpt>
      <trkpt lat="45.56835" lon="6.56386">
        <ele>2275</ele>
        <time>2014-01-31T11:45:41.000Z</time>
      </trkpt>
      <trkpt lat="45.56835" lon="6.56385">
        <ele>2275.3999023438</ele>
        <time>2014-01-31T11:45:42.000Z</time>
      </trkpt>
      <trkpt lat="45.56835" lon="6.56385">
        <ele>2275.3999023438</ele>
        <time>2014-01-31T11:45:43.000Z</time>
      </trkpt>
      <trkpt lat="45.56836" lon="6.56384">
        <ele>2275.6000976562</ele>
        <time>2014-01-31T11:45:44.000Z</time>
      </trkpt>
      <trkpt lat="45.56836" lon="6.56384">
        <ele>2275.8000488281</ele>
        <time>2014-01-31T11:45:45.000Z</time>
      </trkpt>
      <trkpt lat="45.56837" lon="6.56383">
        <ele>2276</ele>
        <time>2014-01-31T11:45:46.000Z</time>
      </trkpt>
      <trkpt lat="45.56837" lon="6.56383">
        <ele>2276</ele>
        <time>2014-01-31T11:45:47.000Z</time>
      </trkpt>
      <trkpt lat="45.56838" lon="6.56382">
        <ele>2276</ele>
        <time>2014-01-31T11:45:48.000Z</time>
      </trkpt>
      <trkpt lat="45.56838" lon="6.56382">
        <ele>2276</ele>
        <time>2014-01-31T11:45:49.000Z</time>
      </trkpt>
      <trkpt lat="45.56839" lon="6.56381">
        <ele>2276</ele>
        <time>2014-01-31T11:45:50.000Z</time>
      </trkpt>
      <trkpt lat="45.5684" lon="6.56381">
        <ele>2276</ele>
        <time>2014-01-31T11:45:51.000Z</time>
      </trkpt>
      <trkpt lat="45.56842" lon="6.56379">
        <ele>2276.1999511719</ele>
        <time>2014-01-31T11:45:54.000Z</time>
      </trkpt>
      <trkpt lat="45.56843" lon="6.56379">
        <ele>2276.1999511719</ele>
        <time>2014-01-31T11:45:55.000Z</time>
      </trkpt>
      <trkpt lat="45.56844" lon="6.56379">
        <ele>2276.1999511719</ele>
        <time>2014-01-31T11:45:56.000Z</time>
      </trkpt>
      <trkpt lat="45.56845" lon="6.56378">
        <ele>2276.1999511719</ele>
        <time>2014-01-31T11:45:57.000Z</time>
      </trkpt>
      <trkpt lat="45.56846" lon="6.56378">
        <ele>2276.1999511719</ele>
        <time>2014-01-31T11:45:58.000Z</time>
      </trkpt>
      <trkpt lat="45.56846" lon="6.56377">
        <ele>2276.3999023438</ele>
        <time>2014-01-31T11:45:59.000Z</time>
      </trkpt>
      <trkpt lat="45.56847" lon="6.56377">
        <ele>2276.3999023438</ele>
        <time>2014-01-31T11:46:00.000Z</time>
      </trkpt>
      <trkpt lat="45.56847" lon="6.56377">
        <ele>2276.8000488281</ele>
        <time>2014-01-31T11:46:01.000Z</time>
      </trkpt>
      <trkpt lat="45.56848" lon="6.56376">
        <ele>2276.8000488281</ele>
        <time>2014-01-31T11:46:02.000Z</time>
      </trkpt>
      <trkpt lat="45.56848" lon="6.56376">
        <ele>2277.1999511719</ele>
        <time>2014-01-31T11:46:03.000Z</time>
      </trkpt>
      <trkpt lat="45.56849" lon="6.56375">
        <ele>2277.3999023438</ele>
        <time>2014-01-31T11:46:04.000Z</time>
      </trkpt>
      <trkpt lat="45.5685" lon="6.56374">
        <ele>2277.6000976562</ele>
        <time>2014-01-31T11:46:05.000Z</time>
      </trkpt>
      <trkpt lat="45.5685" lon="6.56374">
        <ele>2277.8000488281</ele>
        <time>2014-01-31T11:46:06.000Z</time>
      </trkpt>
      <trkpt lat="45.56851" lon="6.56374">
        <ele>2277.8000488281</ele>
        <time>2014-01-31T11:46:07.000Z</time>
      </trkpt>
      <trkpt lat="45.56851" lon="6.56374">
        <ele>2277.8000488281</ele>
        <time>2014-01-31T11:46:08.000Z</time>
      </trkpt>
      <trkpt lat="45.56852" lon="6.56373">
        <ele>2277.8000488281</ele>
        <time>2014-01-31T11:46:09.000Z</time>
      </trkpt>
      <trkpt lat="45.56853" lon="6.56373">
        <ele>2277.8000488281</ele>
        <time>2014-01-31T11:46:10.000Z</time>
      </trkpt>
      <trkpt lat="45.56854" lon="6.56373">
        <ele>2277.8000488281</ele>
        <time>2014-01-31T11:46:11.000Z</time>
      </trkpt>
      <trkpt lat="45.56855" lon="6.56372">
        <ele>2278</ele>
        <time>2014-01-31T11:46:12.000Z</time>
      </trkpt>
      <trkpt lat="45.56855" lon="6.56372">
        <ele>2278.1999511719</ele>
        <time>2014-01-31T11:46:13.000Z</time>
      </trkpt>
      <trkpt lat="45.56856" lon="6.56371">
        <ele>2278.3999023438</ele>
        <time>2014-01-31T11:46:14.000Z</time>
      </trkpt>
      <trkpt lat="45.56856" lon="6.5637">
        <ele>2278.6000976562</ele>
        <time>2014-01-31T11:46:15.000Z</time>
      </trkpt>
      <trkpt lat="45.56857" lon="6.5637">
        <ele>2278.8000488281</ele>
        <time>2014-01-31T11:46:16.000Z</time>
      </trkpt>
      <trkpt lat="45.56857" lon="6.5637">
        <ele>2278.8000488281</ele>
        <time>2014-01-31T11:46:17.000Z</time>
      </trkpt>
      <trkpt lat="45.56857" lon="6.5637">
        <ele>2279</ele>
        <time>2014-01-31T11:46:18.000Z</time>
      </trkpt>
      <trkpt lat="45.56857" lon="6.5637">
        <ele>2279</ele>
        <time>2014-01-31T11:46:19.000Z</time>
      </trkpt>
      <trkpt lat="45.56857" lon="6.5637">
        <ele>2279</ele>
        <time>2014-01-31T11:46:20.000Z</time>
      </trkpt>
      <trkpt lat="45.56858" lon="6.56369">
        <ele>2279</ele>
        <time>2014-01-31T11:46:21.000Z</time>
      </trkpt>
      <trkpt lat="45.56859" lon="6.56369">
        <ele>2279</ele>
        <time>2014-01-31T11:46:22.000Z</time>
      </trkpt>
      <trkpt lat="45.5686" lon="6.56369">
        <ele>2279.1999511719</ele>
        <time>2014-01-31T11:46:23.000Z</time>
      </trkpt>
      <trkpt lat="45.5686" lon="6.56369">
        <ele>2279.1999511719</ele>
        <time>2014-01-31T11:46:24.000Z</time>
      </trkpt>
      <trkpt lat="45.56861" lon="6.56369">
        <ele>2279.1999511719</ele>
        <time>2014-01-31T11:46:25.000Z</time>
      </trkpt>
      <trkpt lat="45.56861" lon="6.56369">
        <ele>2279.3999023438</ele>
        <time>2014-01-31T11:46:26.000Z</time>
      </trkpt>
      <trkpt lat="45.56862" lon="6.56369">
        <ele>2279.6000976562</ele>
        <time>2014-01-31T11:46:27.000Z</time>
      </trkpt>
      <trkpt lat="45.56862" lon="6.56369">
        <ele>2280</ele>
        <time>2014-01-31T11:46:28.000Z</time>
      </trkpt>
      <trkpt lat="45.56863" lon="6.56368">
        <ele>2280.1999511719</ele>
        <time>2014-01-31T11:46:29.000Z</time>
      </trkpt>
      <trkpt lat="45.56864" lon="6.56368">
        <ele>2280.1999511719</ele>
        <time>2014-01-31T11:46:30.000Z</time>
      </trkpt>
      <trkpt lat="45.56864" lon="6.56367">
        <ele>2280.1999511719</ele>
        <time>2014-01-31T11:46:31.000Z</time>
      </trkpt>
      <trkpt lat="45.56865" lon="6.56367">
        <ele>2280.1999511719</ele>
        <time>2014-01-31T11:46:32.000Z</time>
      </trkpt>
      <trkpt lat="45.56866" lon="6.56366">
        <ele>2280.1999511719</ele>
        <time>2014-01-31T11:46:33.000Z</time>
      </trkpt>
      <trkpt lat="45.56866" lon="6.56366">
        <ele>2280.1999511719</ele>
        <time>2014-01-31T11:46:34.000Z</time>
      </trkpt>
      <trkpt lat="45.56867" lon="6.56366">
        <ele>2280.3999023438</ele>
        <time>2014-01-31T11:46:35.000Z</time>
      </trkpt>
      <trkpt lat="45.56867" lon="6.56365">
        <ele>2280.6000976562</ele>
        <time>2014-01-31T11:46:36.000Z</time>
      </trkpt>
      <trkpt lat="45.56868" lon="6.56365">
        <ele>2280.6000976562</ele>
        <time>2014-01-31T11:46:37.000Z</time>
      </trkpt>
      <trkpt lat="45.56868" lon="6.56365">
        <ele>2280.6000976562</ele>
        <time>2014-01-31T11:46:38.000Z</time>
      </trkpt>
      <trkpt lat="45.56868" lon="6.56365">
        <ele>2280.6000976562</ele>
        <time>2014-01-31T11:46:39.000Z</time>
      </trkpt>
      <trkpt lat="45.56869" lon="6.56364">
        <ele>2280.6000976562</ele>
        <time>2014-01-31T11:46:40.000Z</time>
      </trkpt>
      <trkpt lat="45.5687" lon="6.56364">
        <ele>2280.6000976562</ele>
        <time>2014-01-31T11:46:41.000Z</time>
      </trkpt>
      <trkpt lat="45.5687" lon="6.56364">
        <ele>2280.8000488281</ele>
        <time>2014-01-31T11:46:42.000Z</time>
      </trkpt>
      <trkpt lat="45.56871" lon="6.56364">
        <ele>2281</ele>
        <time>2014-01-31T11:46:43.000Z</time>
      </trkpt>
      <trkpt lat="45.56872" lon="6.56364">
        <ele>2281.1999511719</ele>
        <time>2014-01-31T11:46:44.000Z</time>
      </trkpt>
      <trkpt lat="45.56872" lon="6.56363">
        <ele>2281.6000976562</ele>
        <time>2014-01-31T11:46:45.000Z</time>
      </trkpt>
      <trkpt lat="45.56873" lon="6.56363">
        <ele>2281.6000976562</ele>
        <time>2014-01-31T11:46:46.000Z</time>
      </trkpt>
      <trkpt lat="45.56874" lon="6.56363">
        <ele>2282</ele>
        <time>2014-01-31T11:46:47.000Z</time>
      </trkpt>
      <trkpt lat="45.56874" lon="6.56363">
        <ele>2282</ele>
        <time>2014-01-31T11:46:48.000Z</time>
      </trkpt>
      <trkpt lat="45.56875" lon="6.56363">
        <ele>2282.1999511719</ele>
        <time>2014-01-31T11:46:49.000Z</time>
      </trkpt>
      <trkpt lat="45.56876" lon="6.56363">
        <ele>2282.1999511719</ele>
        <time>2014-01-31T11:46:50.000Z</time>
      </trkpt>
      <trkpt lat="45.56877" lon="6.56362">
        <ele>2282.1999511719</ele>
        <time>2014-01-31T11:46:51.000Z</time>
      </trkpt>
      <trkpt lat="45.56877" lon="6.56362">
        <ele>2282.1999511719</ele>
        <time>2014-01-31T11:46:52.000Z</time>
      </trkpt>
      <trkpt lat="45.56878" lon="6.56362">
        <ele>2282.1999511719</ele>
        <time>2014-01-31T11:46:53.000Z</time>
      </trkpt>
      <trkpt lat="45.5688" lon="6.56361">
        <ele>2282.3999023438</ele>
        <time>2014-01-31T11:46:55.000Z</time>
      </trkpt>
      <trkpt lat="45.5688" lon="6.56361">
        <ele>2282.1999511719</ele>
        <time>2014-01-31T11:46:56.000Z</time>
      </trkpt>
      <trkpt lat="45.56881" lon="6.5636">
        <ele>2282.3999023438</ele>
        <time>2014-01-31T11:46:57.000Z</time>
      </trkpt>
      <trkpt lat="45.56881" lon="6.5636">
        <ele>2282.3999023438</ele>
        <time>2014-01-31T11:46:58.000Z</time>
      </trkpt>
      <trkpt lat="45.56882" lon="6.5636">
        <ele>2282.6000976562</ele>
        <time>2014-01-31T11:46:59.000Z</time>
      </trkpt>
      <trkpt lat="45.56882" lon="6.56359">
        <ele>2282.6000976562</ele>
        <time>2014-01-31T11:47:00.000Z</time>
      </trkpt>
      <trkpt lat="45.56883" lon="6.56359">
        <ele>2282.8000488281</ele>
        <time>2014-01-31T11:47:01.000Z</time>
      </trkpt>
      <trkpt lat="45.56883" lon="6.56359">
        <ele>2283</ele>
        <time>2014-01-31T11:47:02.000Z</time>
      </trkpt>
      <trkpt lat="45.56884" lon="6.56359">
        <ele>2283.1999511719</ele>
        <time>2014-01-31T11:47:03.000Z</time>
      </trkpt>
      <trkpt lat="45.56884" lon="6.56359">
        <ele>2283.1999511719</ele>
        <time>2014-01-31T11:47:04.000Z</time>
      </trkpt>
      <trkpt lat="45.56885" lon="6.56359">
        <ele>2283.1999511719</ele>
        <time>2014-01-31T11:47:05.000Z</time>
      </trkpt>
      <trkpt lat="45.56886" lon="6.56359">
        <ele>2283.1999511719</ele>
        <time>2014-01-31T11:47:06.000Z</time>
      </trkpt>
      <trkpt lat="45.56886" lon="6.56359">
        <ele>2283.1999511719</ele>
        <time>2014-01-31T11:47:07.000Z</time>
      </trkpt>
      <trkpt lat="45.56887" lon="6.56359">
        <ele>2283.3999023438</ele>
        <time>2014-01-31T11:47:08.000Z</time>
      </trkpt>
      <trkpt lat="45.56887" lon="6.56359">
        <ele>2283.3999023438</ele>
        <time>2014-01-31T11:47:09.000Z</time>
      </trkpt>
      <trkpt lat="45.56888" lon="6.56358">
        <ele>2283.6000976562</ele>
        <time>2014-01-31T11:47:10.000Z</time>
      </trkpt>
      <trkpt lat="45.56889" lon="6.56358">
        <ele>2283.6000976562</ele>
        <time>2014-01-31T11:47:11.000Z</time>
      </trkpt>
      <trkpt lat="45.5689" lon="6.56358">
        <ele>2283.8000488281</ele>
        <time>2014-01-31T11:47:12.000Z</time>
      </trkpt>
      <trkpt lat="45.56891" lon="6.56358">
        <ele>2284</ele>
        <time>2014-01-31T11:47:13.000Z</time>
      </trkpt>
      <trkpt lat="45.56891" lon="6.56358">
        <ele>2284</ele>
        <time>2014-01-31T11:47:14.000Z</time>
      </trkpt>
      <trkpt lat="45.56892" lon="6.56357">
        <ele>2284.1999511719</ele>
        <time>2014-01-31T11:47:15.000Z</time>
      </trkpt>
      <trkpt lat="45.56893" lon="6.56357">
        <ele>2284.1999511719</ele>
        <time>2014-01-31T11:47:16.000Z</time>
      </trkpt>
      <trkpt lat="45.56894" lon="6.56357">
        <ele>2284.1999511719</ele>
        <time>2014-01-31T11:47:18.000Z</time>
      </trkpt>
      <trkpt lat="45.56895" lon="6.56357">
        <ele>2284.1999511719</ele>
        <time>2014-01-31T11:47:19.000Z</time>
      </trkpt>
      <trkpt lat="45.56896" lon="6.56357">
        <ele>2284.3999023438</ele>
        <time>2014-01-31T11:47:20.000Z</time>
      </trkpt>
      <trkpt lat="45.56896" lon="6.56356">
        <ele>2284.6000976562</ele>
        <time>2014-01-31T11:47:21.000Z</time>
      </trkpt>
      <trkpt lat="45.56897" lon="6.56356">
        <ele>2284.8000488281</ele>
        <time>2014-01-31T11:47:22.000Z</time>
      </trkpt>
      <trkpt lat="45.56898" lon="6.56356">
        <ele>2285</ele>
        <time>2014-01-31T11:47:23.000Z</time>
      </trkpt>
      <trkpt lat="45.56898" lon="6.56355">
        <ele>2285.1999511719</ele>
        <time>2014-01-31T11:47:24.000Z</time>
      </trkpt>
      <trkpt lat="45.56899" lon="6.56355">
        <ele>2285.1999511719</ele>
        <time>2014-01-31T11:47:26.000Z</time>
      </trkpt>
      <trkpt lat="45.569" lon="6.56355">
        <ele>2285.1999511719</ele>
        <time>2014-01-31T11:47:27.000Z</time>
      </trkpt>
      <trkpt lat="45.569" lon="6.56354">
        <ele>2285.1999511719</ele>
        <time>2014-01-31T11:47:28.000Z</time>
      </trkpt>
      <trkpt lat="45.56901" lon="6.56353">
        <ele>2285.1999511719</ele>
        <time>2014-01-31T11:47:31.000Z</time>
      </trkpt>
      <trkpt lat="45.56902" lon="6.56352">
        <ele>2285.3999023438</ele>
        <time>2014-01-31T11:47:32.000Z</time>
      </trkpt>
      <trkpt lat="45.56903" lon="6.56351">
        <ele>2285.6000976562</ele>
        <time>2014-01-31T11:47:33.000Z</time>
      </trkpt>
      <trkpt lat="45.56904" lon="6.56351">
        <ele>2285.6000976562</ele>
        <time>2014-01-31T11:47:34.000Z</time>
      </trkpt>
      <trkpt lat="45.56904" lon="6.5635">
        <ele>2285.8000488281</ele>
        <time>2014-01-31T11:47:35.000Z</time>
      </trkpt>
      <trkpt lat="45.56905" lon="6.5635">
        <ele>2286</ele>
        <time>2014-01-31T11:47:36.000Z</time>
      </trkpt>
      <trkpt lat="45.56906" lon="6.5635">
        <ele>2286</ele>
        <time>2014-01-31T11:47:37.000Z</time>
      </trkpt>
      <trkpt lat="45.56906" lon="6.56349">
        <ele>2286.1999511719</ele>
        <time>2014-01-31T11:47:38.000Z</time>
      </trkpt>
      <trkpt lat="45.56907" lon="6.56349">
        <ele>2286.1999511719</ele>
        <time>2014-01-31T11:47:39.000Z</time>
      </trkpt>
      <trkpt lat="45.56908" lon="6.56349">
        <ele>2286.1999511719</ele>
        <time>2014-01-31T11:47:40.000Z</time>
      </trkpt>
      <trkpt lat="45.56908" lon="6.56349">
        <ele>2286.3999023438</ele>
        <time>2014-01-31T11:47:41.000Z</time>
      </trkpt>
      <trkpt lat="45.56909" lon="6.56348">
        <ele>2286.6000976562</ele>
        <time>2014-01-31T11:47:42.000Z</time>
      </trkpt>
      <trkpt lat="45.56909" lon="6.56348">
        <ele>2286.8000488281</ele>
        <time>2014-01-31T11:47:43.000Z</time>
      </trkpt>
      <trkpt lat="45.5691" lon="6.56348">
        <ele>2287</ele>
        <time>2014-01-31T11:47:44.000Z</time>
      </trkpt>
      <trkpt lat="45.5691" lon="6.56348">
        <ele>2287</ele>
        <time>2014-01-31T11:47:45.000Z</time>
      </trkpt>
      <trkpt lat="45.56911" lon="6.56348">
        <ele>2287</ele>
        <time>2014-01-31T11:47:46.000Z</time>
      </trkpt>
      <trkpt lat="45.56912" lon="6.56348">
        <ele>2287</ele>
        <time>2014-01-31T11:47:47.000Z</time>
      </trkpt>
      <trkpt lat="45.56912" lon="6.56348">
        <ele>2287</ele>
        <time>2014-01-31T11:47:48.000Z</time>
      </trkpt>
      <trkpt lat="45.56913" lon="6.56347">
        <ele>2287</ele>
        <time>2014-01-31T11:47:49.000Z</time>
      </trkpt>
      <trkpt lat="45.56913" lon="6.56347">
        <ele>2287.1999511719</ele>
        <time>2014-01-31T11:47:50.000Z</time>
      </trkpt>
      <trkpt lat="45.56914" lon="6.56347">
        <ele>2287.3999023438</ele>
        <time>2014-01-31T11:47:51.000Z</time>
      </trkpt>
      <trkpt lat="45.56914" lon="6.56347">
        <ele>2287.6000976562</ele>
        <time>2014-01-31T11:47:52.000Z</time>
      </trkpt>
      <trkpt lat="45.56915" lon="6.56346">
        <ele>2287.8000488281</ele>
        <time>2014-01-31T11:47:53.000Z</time>
      </trkpt>
      <trkpt lat="45.56915" lon="6.56346">
        <ele>2288</ele>
        <time>2014-01-31T11:47:54.000Z</time>
      </trkpt>
      <trkpt lat="45.56916" lon="6.56346">
        <ele>2288.1999511719</ele>
        <time>2014-01-31T11:47:55.000Z</time>
      </trkpt>
      <trkpt lat="45.56916" lon="6.56346">
        <ele>2288.1999511719</ele>
        <time>2014-01-31T11:47:56.000Z</time>
      </trkpt>
      <trkpt lat="45.56917" lon="6.56346">
        <ele>2288.1999511719</ele>
        <time>2014-01-31T11:47:57.000Z</time>
      </trkpt>
      <trkpt lat="45.56917" lon="6.56346">
        <ele>2288.1999511719</ele>
        <time>2014-01-31T11:47:58.000Z</time>
      </trkpt>
      <trkpt lat="45.56918" lon="6.56345">
        <ele>2288.3999023438</ele>
        <time>2014-01-31T11:47:59.000Z</time>
      </trkpt>
      <trkpt lat="45.56918" lon="6.56345">
        <ele>2288.6000976562</ele>
        <time>2014-01-31T11:48:00.000Z</time>
      </trkpt>
      <trkpt lat="45.56919" lon="6.56344">
        <ele>2288.8000488281</ele>
        <time>2014-01-31T11:48:01.000Z</time>
      </trkpt>
      <trkpt lat="45.56919" lon="6.56344">
        <ele>2289</ele>
        <time>2014-01-31T11:48:02.000Z</time>
      </trkpt>
      <trkpt lat="45.56919" lon="6.56344">
        <ele>2289.1999511719</ele>
        <time>2014-01-31T11:48:03.000Z</time>
      </trkpt>
      <trkpt lat="45.5692" lon="6.56343">
        <ele>2289.3999023438</ele>
        <time>2014-01-31T11:48:04.000Z</time>
      </trkpt>
      <trkpt lat="45.5692" lon="6.56343">
        <ele>2289.3999023438</ele>
        <time>2014-01-31T11:48:05.000Z</time>
      </trkpt>
      <trkpt lat="45.56921" lon="6.56343">
        <ele>2289.3999023438</ele>
        <time>2014-01-31T11:48:06.000Z</time>
      </trkpt>
      <trkpt lat="45.56921" lon="6.56343">
        <ele>2289.6000976562</ele>
        <time>2014-01-31T11:48:07.000Z</time>
      </trkpt>
      <trkpt lat="45.56922" lon="6.56343">
        <ele>2289.6000976562</ele>
        <time>2014-01-31T11:48:08.000Z</time>
      </trkpt>
      <trkpt lat="45.56923" lon="6.56343">
        <ele>2289.8000488281</ele>
        <time>2014-01-31T11:48:09.000Z</time>
      </trkpt>
      <trkpt lat="45.56923" lon="6.56343">
        <ele>2290</ele>
        <time>2014-01-31T11:48:10.000Z</time>
      </trkpt>
      <trkpt lat="45.56924" lon="6.56343">
        <ele>2290</ele>
        <time>2014-01-31T11:48:11.000Z</time>
      </trkpt>
      <trkpt lat="45.56924" lon="6.56343">
        <ele>2290.1999511719</ele>
        <time>2014-01-31T11:48:12.000Z</time>
      </trkpt>
      <trkpt lat="45.56925" lon="6.56343">
        <ele>2290.1999511719</ele>
        <time>2014-01-31T11:48:13.000Z</time>
      </trkpt>
      <trkpt lat="45.56925" lon="6.56342">
        <ele>2290.1999511719</ele>
        <time>2014-01-31T11:48:14.000Z</time>
      </trkpt>
      <trkpt lat="45.56926" lon="6.56342">
        <ele>2290.1999511719</ele>
        <time>2014-01-31T11:48:15.000Z</time>
      </trkpt>
      <trkpt lat="45.56926" lon="6.56342">
        <ele>2290.1999511719</ele>
        <time>2014-01-31T11:48:16.000Z</time>
      </trkpt>
      <trkpt lat="45.56926" lon="6.56342">
        <ele>2290.1999511719</ele>
        <time>2014-01-31T11:48:17.000Z</time>
      </trkpt>
      <trkpt lat="45.56926" lon="6.56342">
        <ele>2290.3999023438</ele>
        <time>2014-01-31T11:48:18.000Z</time>
      </trkpt>
      <trkpt lat="45.56927" lon="6.56342">
        <ele>2290.3999023438</ele>
        <time>2014-01-31T11:48:19.000Z</time>
      </trkpt>
      <trkpt lat="45.56928" lon="6.56342">
        <ele>2290.6000976562</ele>
        <time>2014-01-31T11:48:20.000Z</time>
      </trkpt>
      <trkpt lat="45.56929" lon="6.56342">
        <ele>2290.6000976562</ele>
        <time>2014-01-31T11:48:21.000Z</time>
      </trkpt>
      <trkpt lat="45.5693" lon="6.56342">
        <ele>2290.6000976562</ele>
        <time>2014-01-31T11:48:22.000Z</time>
      </trkpt>
      <trkpt lat="45.56931" lon="6.56341">
        <ele>2290.8000488281</ele>
        <time>2014-01-31T11:48:23.000Z</time>
      </trkpt>
      <trkpt lat="45.56932" lon="6.56341">
        <ele>2290.8000488281</ele>
        <time>2014-01-31T11:48:24.000Z</time>
      </trkpt>
      <trkpt lat="45.56933" lon="6.56341">
        <ele>2291.1999511719</ele>
        <time>2014-01-31T11:48:25.000Z</time>
      </trkpt>
      <trkpt lat="45.56934" lon="6.56341">
        <ele>2291.3999023438</ele>
        <time>2014-01-31T11:48:26.000Z</time>
      </trkpt>
      <trkpt lat="45.56935" lon="6.56341">
        <ele>2291.6000976562</ele>
        <time>2014-01-31T11:48:27.000Z</time>
      </trkpt>
      <trkpt lat="45.56936" lon="6.56341">
        <ele>2292</ele>
        <time>2014-01-31T11:48:28.000Z</time>
      </trkpt>
      <trkpt lat="45.56937" lon="6.56341">
        <ele>2292</ele>
        <time>2014-01-31T11:48:29.000Z</time>
      </trkpt>
      <trkpt lat="45.56938" lon="6.56341">
        <ele>2292</ele>
        <time>2014-01-31T11:48:30.000Z</time>
      </trkpt>
      <trkpt lat="45.56938" lon="6.56341">
        <ele>2292.1999511719</ele>
        <time>2014-01-31T11:48:31.000Z</time>
      </trkpt>
      <trkpt lat="45.56939" lon="6.56341">
        <ele>2292.1999511719</ele>
        <time>2014-01-31T11:48:32.000Z</time>
      </trkpt>
      <trkpt lat="45.56939" lon="6.56341">
        <ele>2292.1999511719</ele>
        <time>2014-01-31T11:48:33.000Z</time>
      </trkpt>
      <trkpt lat="45.5694" lon="6.5634">
        <ele>2292.1999511719</ele>
        <time>2014-01-31T11:48:34.000Z</time>
      </trkpt>
      <trkpt lat="45.56941" lon="6.5634">
        <ele>2292.3999023438</ele>
        <time>2014-01-31T11:48:35.000Z</time>
      </trkpt>
      <trkpt lat="45.56941" lon="6.5634">
        <ele>2292.8000488281</ele>
        <time>2014-01-31T11:48:36.000Z</time>
      </trkpt>
      <trkpt lat="45.56941" lon="6.5634">
        <ele>2292.8000488281</ele>
        <time>2014-01-31T11:48:37.000Z</time>
      </trkpt>
      <trkpt lat="45.56942" lon="6.5634">
        <ele>2293</ele>
        <time>2014-01-31T11:48:38.000Z</time>
      </trkpt>
      <trkpt lat="45.56943" lon="6.56339">
        <ele>2293</ele>
        <time>2014-01-31T11:48:39.000Z</time>
      </trkpt>
      <trkpt lat="45.56944" lon="6.5634">
        <ele>2293.1999511719</ele>
        <time>2014-01-31T11:48:40.000Z</time>
      </trkpt>
      <trkpt lat="45.56944" lon="6.5634">
        <ele>2293.1999511719</ele>
        <time>2014-01-31T11:48:41.000Z</time>
      </trkpt>
      <trkpt lat="45.56945" lon="6.5634">
        <ele>2293.3999023438</ele>
        <time>2014-01-31T11:48:42.000Z</time>
      </trkpt>
      <trkpt lat="45.56945" lon="6.5634">
        <ele>2293.6000976562</ele>
        <time>2014-01-31T11:48:43.000Z</time>
      </trkpt>
      <trkpt lat="45.56946" lon="6.5634">
        <ele>2294</ele>
        <time>2014-01-31T11:48:44.000Z</time>
      </trkpt>
      <trkpt lat="45.56946" lon="6.5634">
        <ele>2294.1999511719</ele>
        <time>2014-01-31T11:48:45.000Z</time>
      </trkpt>
      <trkpt lat="45.56947" lon="6.56341">
        <ele>2294.3999023438</ele>
        <time>2014-01-31T11:48:46.000Z</time>
      </trkpt>
      <trkpt lat="45.56948" lon="6.56341">
        <ele>2294.3999023438</ele>
        <time>2014-01-31T11:48:47.000Z</time>
      </trkpt>
      <trkpt lat="45.56948" lon="6.56341">
        <ele>2294.6000976562</ele>
        <time>2014-01-31T11:48:48.000Z</time>
      </trkpt>
      <trkpt lat="45.56949" lon="6.5634">
        <ele>2294.6000976562</ele>
        <time>2014-01-31T11:48:49.000Z</time>
      </trkpt>
      <trkpt lat="45.56949" lon="6.5634">
        <ele>2294.6000976562</ele>
        <time>2014-01-31T11:48:50.000Z</time>
      </trkpt>
      <trkpt lat="45.5695" lon="6.5634">
        <ele>2294.8000488281</ele>
        <time>2014-01-31T11:48:51.000Z</time>
      </trkpt>
      <trkpt lat="45.56951" lon="6.5634">
        <ele>2295.1999511719</ele>
        <time>2014-01-31T11:48:52.000Z</time>
      </trkpt>
      <trkpt lat="45.56951" lon="6.5634">
        <ele>2295.3999023438</ele>
        <time>2014-01-31T11:48:53.000Z</time>
      </trkpt>
      <trkpt lat="45.56952" lon="6.5634">
        <ele>2295.3999023438</ele>
        <time>2014-01-31T11:48:54.000Z</time>
      </trkpt>
      <trkpt lat="45.56952" lon="6.5634">
        <ele>2295.3999023438</ele>
        <time>2014-01-31T11:48:55.000Z</time>
      </trkpt>
      <trkpt lat="45.56952" lon="6.5634">
        <ele>2295.6000976562</ele>
        <time>2014-01-31T11:48:56.000Z</time>
      </trkpt>
      <trkpt lat="45.56952" lon="6.5634">
        <ele>2295.6000976562</ele>
        <time>2014-01-31T11:48:57.000Z</time>
      </trkpt>
      <trkpt lat="45.56953" lon="6.56341">
        <ele>2295.8000488281</ele>
        <time>2014-01-31T11:48:58.000Z</time>
      </trkpt>
      <trkpt lat="45.56953" lon="6.56341">
        <ele>2296.1999511719</ele>
        <time>2014-01-31T11:48:59.000Z</time>
      </trkpt>
      <trkpt lat="45.56953" lon="6.56341">
        <ele>2296.3999023438</ele>
        <time>2014-01-31T11:49:00.000Z</time>
      </trkpt>
      <trkpt lat="45.56953" lon="6.56341">
        <ele>2296.8000488281</ele>
        <time>2014-01-31T11:49:01.000Z</time>
      </trkpt>
      <trkpt lat="45.56954" lon="6.56341">
        <ele>2296.8000488281</ele>
        <time>2014-01-31T11:49:02.000Z</time>
      </trkpt>
      <trkpt lat="45.56954" lon="6.56341">
        <ele>2297</ele>
        <time>2014-01-31T11:49:03.000Z</time>
      </trkpt>
      <trkpt lat="45.56955" lon="6.56342">
        <ele>2297</ele>
        <time>2014-01-31T11:49:04.000Z</time>
      </trkpt>
      <trkpt lat="45.56956" lon="6.56342">
        <ele>2297</ele>
        <time>2014-01-31T11:49:05.000Z</time>
      </trkpt>
      <trkpt lat="45.56956" lon="6.56342">
        <ele>2297</ele>
        <time>2014-01-31T11:49:06.000Z</time>
      </trkpt>
      <trkpt lat="45.56957" lon="6.56342">
        <ele>2297.1999511719</ele>
        <time>2014-01-31T11:49:07.000Z</time>
      </trkpt>
      <trkpt lat="45.56957" lon="6.56342">
        <ele>2297.3999023438</ele>
        <time>2014-01-31T11:49:08.000Z</time>
      </trkpt>
      <trkpt lat="45.56958" lon="6.56342">
        <ele>2297.8000488281</ele>
        <time>2014-01-31T11:49:09.000Z</time>
      </trkpt>
      <trkpt lat="45.56959" lon="6.56342">
        <ele>2298</ele>
        <time>2014-01-31T11:49:10.000Z</time>
      </trkpt>
      <trkpt lat="45.56959" lon="6.56342">
        <ele>2298</ele>
        <time>2014-01-31T11:49:11.000Z</time>
      </trkpt>
      <trkpt lat="45.56959" lon="6.56342">
        <ele>2298.1999511719</ele>
        <time>2014-01-31T11:49:12.000Z</time>
      </trkpt>
      <trkpt lat="45.56959" lon="6.56342">
        <ele>2298.3999023438</ele>
        <time>2014-01-31T11:49:13.000Z</time>
      </trkpt>
      <trkpt lat="45.56959" lon="6.56342">
        <ele>2298.8000488281</ele>
        <time>2014-01-31T11:49:14.000Z</time>
      </trkpt>
      <trkpt lat="45.56959" lon="6.56342">
        <ele>2298.8000488281</ele>
        <time>2014-01-31T11:49:15.000Z</time>
      </trkpt>
      <trkpt lat="45.56959" lon="6.56342">
        <ele>2299</ele>
        <time>2014-01-31T11:49:16.000Z</time>
      </trkpt>
      <trkpt lat="45.56959" lon="6.56342">
        <ele>2299</ele>
        <time>2014-01-31T11:49:17.000Z</time>
      </trkpt>
      <trkpt lat="45.56959" lon="6.56342">
        <ele>2299</ele>
        <time>2014-01-31T11:49:18.000Z</time>
      </trkpt>
      <trkpt lat="45.5696" lon="6.56342">
        <ele>2299</ele>
        <time>2014-01-31T11:49:19.000Z</time>
      </trkpt>
      <trkpt lat="45.5696" lon="6.56343">
        <ele>2298.8000488281</ele>
        <time>2014-01-31T11:49:20.000Z</time>
      </trkpt>
      <trkpt lat="45.56961" lon="6.56343">
        <ele>2298.8000488281</ele>
        <time>2014-01-31T11:49:21.000Z</time>
      </trkpt>
      <trkpt lat="45.56962" lon="6.56343">
        <ele>2299</ele>
        <time>2014-01-31T11:49:22.000Z</time>
      </trkpt>
      <trkpt lat="45.56963" lon="6.56343">
        <ele>2299.1999511719</ele>
        <time>2014-01-31T11:49:23.000Z</time>
      </trkpt>
      <trkpt lat="45.56963" lon="6.56343">
        <ele>2299.6000976562</ele>
        <time>2014-01-31T11:49:24.000Z</time>
      </trkpt>
      <trkpt lat="45.56964" lon="6.56342">
        <ele>2300</ele>
        <time>2014-01-31T11:49:25.000Z</time>
      </trkpt>
      <trkpt lat="45.56964" lon="6.56342">
        <ele>2300.1999511719</ele>
        <time>2014-01-31T11:49:26.000Z</time>
      </trkpt>
      <trkpt lat="45.56964" lon="6.56342">
        <ele>2300.3999023438</ele>
        <time>2014-01-31T11:49:27.000Z</time>
      </trkpt>
      <trkpt lat="45.56965" lon="6.56342">
        <ele>2300.6000976562</ele>
        <time>2014-01-31T11:49:28.000Z</time>
      </trkpt>
      <trkpt lat="45.56966" lon="6.56343">
        <ele>2300.6000976562</ele>
        <time>2014-01-31T11:49:29.000Z</time>
      </trkpt>
      <trkpt lat="45.56967" lon="6.56343">
        <ele>2300.8000488281</ele>
        <time>2014-01-31T11:49:30.000Z</time>
      </trkpt>
      <trkpt lat="45.56968" lon="6.56343">
        <ele>2300.8000488281</ele>
        <time>2014-01-31T11:49:31.000Z</time>
      </trkpt>
      <trkpt lat="45.56968" lon="6.56343">
        <ele>2300.8000488281</ele>
        <time>2014-01-31T11:49:32.000Z</time>
      </trkpt>
      <trkpt lat="45.56969" lon="6.56343">
        <ele>2301.1999511719</ele>
        <time>2014-01-31T11:49:33.000Z</time>
      </trkpt>
      <trkpt lat="45.5697" lon="6.56343">
        <ele>2301.3999023438</ele>
        <time>2014-01-31T11:49:34.000Z</time>
      </trkpt>
      <trkpt lat="45.5697" lon="6.56343">
        <ele>2301.8000488281</ele>
        <time>2014-01-31T11:49:35.000Z</time>
      </trkpt>
      <trkpt lat="45.56971" lon="6.56343">
        <ele>2302</ele>
        <time>2014-01-31T11:49:36.000Z</time>
      </trkpt>
      <trkpt lat="45.56971" lon="6.56344">
        <ele>2302.1999511719</ele>
        <time>2014-01-31T11:49:37.000Z</time>
      </trkpt>
      <trkpt lat="45.56972" lon="6.56344">
        <ele>2302.3999023438</ele>
        <time>2014-01-31T11:49:38.000Z</time>
      </trkpt>
      <trkpt lat="45.56973" lon="6.56344">
        <ele>2302.3999023438</ele>
        <time>2014-01-31T11:49:39.000Z</time>
      </trkpt>
      <trkpt lat="45.56974" lon="6.56344">
        <ele>2302.6000976562</ele>
        <time>2014-01-31T11:49:40.000Z</time>
      </trkpt>
      <trkpt lat="45.56974" lon="6.56344">
        <ele>2303</ele>
        <time>2014-01-31T11:49:41.000Z</time>
      </trkpt>
      <trkpt lat="45.56975" lon="6.56344">
        <ele>2303.1999511719</ele>
        <time>2014-01-31T11:49:42.000Z</time>
      </trkpt>
      <trkpt lat="45.56975" lon="6.56343">
        <ele>2303.6000976562</ele>
        <time>2014-01-31T11:49:43.000Z</time>
      </trkpt>
      <trkpt lat="45.56976" lon="6.56343">
        <ele>2303.6000976562</ele>
        <time>2014-01-31T11:49:44.000Z</time>
      </trkpt>
      <trkpt lat="45.56976" lon="6.56343">
        <ele>2303.8000488281</ele>
        <time>2014-01-31T11:49:45.000Z</time>
      </trkpt>
      <trkpt lat="45.56976" lon="6.56343">
        <ele>2304</ele>
        <time>2014-01-31T11:49:46.000Z</time>
      </trkpt>
      <trkpt lat="45.56977" lon="6.56343">
        <ele>2304</ele>
        <time>2014-01-31T11:49:47.000Z</time>
      </trkpt>
      <trkpt lat="45.56977" lon="6.56343">
        <ele>2304.1999511719</ele>
        <time>2014-01-31T11:49:48.000Z</time>
      </trkpt>
      <trkpt lat="45.56977" lon="6.56343">
        <ele>2304.3999023438</ele>
        <time>2014-01-31T11:49:49.000Z</time>
      </trkpt>
      <trkpt lat="45.56977" lon="6.56343">
        <ele>2304.3999023438</ele>
        <time>2014-01-31T11:49:50.000Z</time>
      </trkpt>
      <trkpt lat="45.56977" lon="6.56343">
        <ele>2304.3999023438</ele>
        <time>2014-01-31T11:49:51.000Z</time>
      </trkpt>
      <trkpt lat="45.56977" lon="6.56342">
        <ele>2304.3999023438</ele>
        <time>2014-01-31T11:49:52.000Z</time>
      </trkpt>
      <trkpt lat="45.56977" lon="6.56342">
        <ele>2304.3999023438</ele>
        <time>2014-01-31T11:49:53.000Z</time>
      </trkpt>
      <trkpt lat="45.56977" lon="6.56342">
        <ele>2304.3999023438</ele>
        <time>2014-01-31T11:49:54.000Z</time>
      </trkpt>
      <trkpt lat="45.56977" lon="6.56342">
        <ele>2304.3999023438</ele>
        <time>2014-01-31T11:49:55.000Z</time>
      </trkpt>
      <trkpt lat="45.56977" lon="6.56342">
        <ele>2304.3999023438</ele>
        <time>2014-01-31T11:49:56.000Z</time>
      </trkpt>
      <trkpt lat="45.56976" lon="6.56341">
        <ele>2304.6000976562</ele>
        <time>2014-01-31T11:49:57.000Z</time>
      </trkpt>
      <trkpt lat="45.56976" lon="6.56341">
        <ele>2304.6000976562</ele>
        <time>2014-01-31T11:49:58.000Z</time>
      </trkpt>
      <trkpt lat="45.56975" lon="6.56341">
        <ele>2304.8000488281</ele>
        <time>2014-01-31T11:49:59.000Z</time>
      </trkpt>
      <trkpt lat="45.56975" lon="6.5634">
        <ele>2305</ele>
        <time>2014-01-31T11:50:00.000Z</time>
      </trkpt>
      <trkpt lat="45.56974" lon="6.5634">
        <ele>2305</ele>
        <time>2014-01-31T11:50:01.000Z</time>
      </trkpt>
      <trkpt lat="45.56973" lon="6.56339">
        <ele>2305.1999511719</ele>
        <time>2014-01-31T11:50:02.000Z</time>
      </trkpt>
      <trkpt lat="45.56973" lon="6.56338">
        <ele>2305.1999511719</ele>
        <time>2014-01-31T11:50:03.000Z</time>
      </trkpt>
      <trkpt lat="45.56972" lon="6.56337">
        <ele>2305.3999023438</ele>
        <time>2014-01-31T11:50:04.000Z</time>
      </trkpt>
      <trkpt lat="45.56972" lon="6.56337">
        <ele>2305.6000976562</ele>
        <time>2014-01-31T11:50:05.000Z</time>
      </trkpt>
      <trkpt lat="45.56972" lon="6.56337">
        <ele>2306</ele>
        <time>2014-01-31T11:50:06.000Z</time>
      </trkpt>
      <trkpt lat="45.56972" lon="6.56337">
        <ele>2306</ele>
        <time>2014-01-31T11:50:07.000Z</time>
      </trkpt>
      <trkpt lat="45.56971" lon="6.56336">
        <ele>2306.3999023438</ele>
        <time>2014-01-31T11:50:08.000Z</time>
      </trkpt>
      <trkpt lat="45.5697" lon="6.56336">
        <ele>2306.6000976562</ele>
        <time>2014-01-31T11:50:09.000Z</time>
      </trkpt>
      <trkpt lat="45.5697" lon="6.56335">
        <ele>2306.8000488281</ele>
        <time>2014-01-31T11:50:10.000Z</time>
      </trkpt>
      <trkpt lat="45.5697" lon="6.56335">
        <ele>2307</ele>
        <time>2014-01-31T11:50:11.000Z</time>
      </trkpt>
      <trkpt lat="45.56969" lon="6.56334">
        <ele>2307</ele>
        <time>2014-01-31T11:50:12.000Z</time>
      </trkpt>
      <trkpt lat="45.56969" lon="6.56333">
        <ele>2307.1999511719</ele>
        <time>2014-01-31T11:50:13.000Z</time>
      </trkpt>
      <trkpt lat="45.56969" lon="6.56332">
        <ele>2307.1999511719</ele>
        <time>2014-01-31T11:50:14.000Z</time>
      </trkpt>
      <trkpt lat="45.56968" lon="6.56332">
        <ele>2307.6000976562</ele>
        <time>2014-01-31T11:50:15.000Z</time>
      </trkpt>
      <trkpt lat="45.56968" lon="6.56331">
        <ele>2307.6000976562</ele>
        <time>2014-01-31T11:50:16.000Z</time>
      </trkpt>
      <trkpt lat="45.56968" lon="6.56331">
        <ele>2308</ele>
        <time>2014-01-31T11:50:17.000Z</time>
      </trkpt>
      <trkpt lat="45.56968" lon="6.56331">
        <ele>2308.1999511719</ele>
        <time>2014-01-31T11:50:18.000Z</time>
      </trkpt>
      <trkpt lat="45.56968" lon="6.5633">
        <ele>2308.3999023438</ele>
        <time>2014-01-31T11:50:19.000Z</time>
      </trkpt>
      <trkpt lat="45.56968" lon="6.5633">
        <ele>2308.6000976562</ele>
        <time>2014-01-31T11:50:20.000Z</time>
      </trkpt>
      <trkpt lat="45.56968" lon="6.56329">
        <ele>2308.6000976562</ele>
        <time>2014-01-31T11:50:21.000Z</time>
      </trkpt>
      <trkpt lat="45.56968" lon="6.56329">
        <ele>2308.8000488281</ele>
        <time>2014-01-31T11:50:22.000Z</time>
      </trkpt>
      <trkpt lat="45.56967" lon="6.56328">
        <ele>2308.8000488281</ele>
        <time>2014-01-31T11:50:23.000Z</time>
      </trkpt>
      <trkpt lat="45.56967" lon="6.56328">
        <ele>2308.8000488281</ele>
        <time>2014-01-31T11:50:24.000Z</time>
      </trkpt>
      <trkpt lat="45.56967" lon="6.56327">
        <ele>2309.1999511719</ele>
        <time>2014-01-31T11:50:25.000Z</time>
      </trkpt>
      <trkpt lat="45.56966" lon="6.56327">
        <ele>2309.3999023438</ele>
        <time>2014-01-31T11:50:26.000Z</time>
      </trkpt>
      <trkpt lat="45.56966" lon="6.56325">
        <ele>2309.8000488281</ele>
        <time>2014-01-31T11:50:27.000Z</time>
      </trkpt>
      <trkpt lat="45.56966" lon="6.56325">
        <ele>2310</ele>
        <time>2014-01-31T11:50:28.000Z</time>
      </trkpt>
      <trkpt lat="45.56965" lon="6.56324">
        <ele>2310.1999511719</ele>
        <time>2014-01-31T11:50:29.000Z</time>
      </trkpt>
      <trkpt lat="45.56965" lon="6.56323">
        <ele>2310.1999511719</ele>
        <time>2014-01-31T11:50:30.000Z</time>
      </trkpt>
      <trkpt lat="45.56964" lon="6.56322">
        <ele>2310.3999023438</ele>
        <time>2014-01-31T11:50:31.000Z</time>
      </trkpt>
      <trkpt lat="45.56964" lon="6.56321">
        <ele>2310.6000976562</ele>
        <time>2014-01-31T11:50:32.000Z</time>
      </trkpt>
      <trkpt lat="45.56963" lon="6.56321">
        <ele>2310.6000976562</ele>
        <time>2014-01-31T11:50:33.000Z</time>
      </trkpt>
      <trkpt lat="45.56963" lon="6.5632">
        <ele>2310.8000488281</ele>
        <time>2014-01-31T11:50:34.000Z</time>
      </trkpt>
      <trkpt lat="45.56963" lon="6.5632">
        <ele>2310.8000488281</ele>
        <time>2014-01-31T11:50:35.000Z</time>
      </trkpt>
      <trkpt lat="45.56963" lon="6.5632">
        <ele>2311</ele>
        <time>2014-01-31T11:50:36.000Z</time>
      </trkpt>
      <trkpt lat="45.56963" lon="6.5632">
        <ele>2311.3999023438</ele>
        <time>2014-01-31T11:50:37.000Z</time>
      </trkpt>
      <trkpt lat="45.56963" lon="6.5632">
        <ele>2311.6000976562</ele>
        <time>2014-01-31T11:50:38.000Z</time>
      </trkpt>
      <trkpt lat="45.56963" lon="6.5632">
        <ele>2311.6000976562</ele>
        <time>2014-01-31T11:50:39.000Z</time>
      </trkpt>
      <trkpt lat="45.56963" lon="6.5632">
        <ele>2311.6000976562</ele>
        <time>2014-01-31T11:50:40.000Z</time>
      </trkpt>
      <trkpt lat="45.56963" lon="6.5632">
        <ele>2311.8000488281</ele>
        <time>2014-01-31T11:50:41.000Z</time>
      </trkpt>
      <trkpt lat="45.56963" lon="6.5632">
        <ele>2311.8000488281</ele>
        <time>2014-01-31T11:50:42.000Z</time>
      </trkpt>
      <trkpt lat="45.56963" lon="6.5632">
        <ele>2311.8000488281</ele>
        <time>2014-01-31T11:50:43.000Z</time>
      </trkpt>
      <trkpt lat="45.56963" lon="6.5632">
        <ele>2311.8000488281</ele>
        <time>2014-01-31T11:50:44.000Z</time>
      </trkpt>
      <trkpt lat="45.56963" lon="6.5632">
        <ele>2311.8000488281</ele>
        <time>2014-01-31T11:50:45.000Z</time>
      </trkpt>
      <trkpt lat="45.56963" lon="6.5632">
        <ele>2312</ele>
        <time>2014-01-31T11:50:46.000Z</time>
      </trkpt>
      <trkpt lat="45.56963" lon="6.5632">
        <ele>2312.1999511719</ele>
        <time>2014-01-31T11:50:47.000Z</time>
      </trkpt>
      <trkpt lat="45.56963" lon="6.5632">
        <ele>2312.3999023438</ele>
        <time>2014-01-31T11:50:48.000Z</time>
      </trkpt>
      <trkpt lat="45.56963" lon="6.5632">
        <ele>2312.6000976562</ele>
        <time>2014-01-31T11:50:49.000Z</time>
      </trkpt>
      <trkpt lat="45.56963" lon="6.5632">
        <ele>2312.8000488281</ele>
        <time>2014-01-31T11:50:50.000Z</time>
      </trkpt>
      <trkpt lat="45.56963" lon="6.5632">
        <ele>2313</ele>
        <time>2014-01-31T11:50:51.000Z</time>
      </trkpt>
      <trkpt lat="45.56963" lon="6.5632">
        <ele>2313</ele>
        <time>2014-01-31T11:50:52.000Z</time>
      </trkpt>
      <trkpt lat="45.56963" lon="6.5632">
        <ele>2312.8000488281</ele>
        <time>2014-01-31T11:50:53.000Z</time>
      </trkpt>
      <trkpt lat="45.56963" lon="6.5632">
        <ele>2312.6000976562</ele>
        <time>2014-01-31T11:50:54.000Z</time>
      </trkpt>
      <trkpt lat="45.56963" lon="6.5632">
        <ele>2312.3999023438</ele>
        <time>2014-01-31T11:50:55.000Z</time>
      </trkpt>
      <trkpt lat="45.56963" lon="6.5632">
        <ele>2312.1999511719</ele>
        <time>2014-01-31T11:50:56.000Z</time>
      </trkpt>
      <trkpt lat="45.56963" lon="6.5632">
        <ele>2312</ele>
        <time>2014-01-31T11:50:57.000Z</time>
      </trkpt>
      <trkpt lat="45.56963" lon="6.5632">
        <ele>2312</ele>
        <time>2014-01-31T11:50:58.000Z</time>
      </trkpt>
      <trkpt lat="45.56963" lon="6.5632">
        <ele>2312</ele>
        <time>2014-01-31T11:50:59.000Z</time>
      </trkpt>
      <trkpt lat="45.56963" lon="6.5632">
        <ele>2312.1999511719</ele>
        <time>2014-01-31T11:51:00.000Z</time>
      </trkpt>
      <trkpt lat="45.56963" lon="6.5632">
        <ele>2312.1999511719</ele>
        <time>2014-01-31T11:51:01.000Z</time>
      </trkpt>
      <trkpt lat="45.56963" lon="6.5632">
        <ele>2312.1999511719</ele>
        <time>2014-01-31T11:51:02.000Z</time>
      </trkpt>
      <trkpt lat="45.56963" lon="6.5632">
        <ele>2312.3999023438</ele>
        <time>2014-01-31T11:51:03.000Z</time>
      </trkpt>
      <trkpt lat="45.56963" lon="6.5632">
        <ele>2312.3999023438</ele>
        <time>2014-01-31T11:51:04.000Z</time>
      </trkpt>
      <trkpt lat="45.56963" lon="6.5632">
        <ele>2312.6000976562</ele>
        <time>2014-01-31T11:51:05.000Z</time>
      </trkpt>
      <trkpt lat="45.56963" lon="6.5632">
        <ele>2312.8000488281</ele>
        <time>2014-01-31T11:51:06.000Z</time>
      </trkpt>
      <trkpt lat="45.56963" lon="6.5632">
        <ele>2313</ele>
        <time>2014-01-31T11:51:07.000Z</time>
      </trkpt>
      <trkpt lat="45.56963" lon="6.56319">
        <ele>2313.1999511719</ele>
        <time>2014-01-31T11:51:08.000Z</time>
      </trkpt>
      <trkpt lat="45.56964" lon="6.56319">
        <ele>2313.1999511719</ele>
        <time>2014-01-31T11:51:09.000Z</time>
      </trkpt>
      <trkpt lat="45.56964" lon="6.56319">
        <ele>2313.3999023438</ele>
        <time>2014-01-31T11:51:10.000Z</time>
      </trkpt>
      <trkpt lat="45.56965" lon="6.56319">
        <ele>2313.3999023438</ele>
        <time>2014-01-31T11:51:11.000Z</time>
      </trkpt>
      <trkpt lat="45.56965" lon="6.56319">
        <ele>2313.6000976562</ele>
        <time>2014-01-31T11:51:12.000Z</time>
      </trkpt>
      <trkpt lat="45.56965" lon="6.56319">
        <ele>2313.8000488281</ele>
        <time>2014-01-31T11:51:13.000Z</time>
      </trkpt>
      <trkpt lat="45.56965" lon="6.56319">
        <ele>2313.8000488281</ele>
        <time>2014-01-31T11:51:14.000Z</time>
      </trkpt>
      <trkpt lat="45.56965" lon="6.56319">
        <ele>2313.8000488281</ele>
        <time>2014-01-31T11:51:15.000Z</time>
      </trkpt>
      <trkpt lat="45.56965" lon="6.56319">
        <ele>2313.8000488281</ele>
        <time>2014-01-31T11:51:16.000Z</time>
      </trkpt>
      <trkpt lat="45.56965" lon="6.56319">
        <ele>2313.8000488281</ele>
        <time>2014-01-31T11:51:17.000Z</time>
      </trkpt>
      <trkpt lat="45.56965" lon="6.56319">
        <ele>2313.8000488281</ele>
        <time>2014-01-31T11:51:18.000Z</time>
      </trkpt>
      <trkpt lat="45.56965" lon="6.56319">
        <ele>2313.8000488281</ele>
        <time>2014-01-31T11:51:19.000Z</time>
      </trkpt>
      <trkpt lat="45.56965" lon="6.56319">
        <ele>2313.6000976562</ele>
        <time>2014-01-31T11:51:20.000Z</time>
      </trkpt>
      <trkpt lat="45.56965" lon="6.56319">
        <ele>2313.6000976562</ele>
        <time>2014-01-31T11:51:21.000Z</time>
      </trkpt>
      <trkpt lat="45.56965" lon="6.56319">
        <ele>2313.8000488281</ele>
        <time>2014-01-31T11:51:22.000Z</time>
      </trkpt>
      <trkpt lat="45.56965" lon="6.56319">
        <ele>2313.8000488281</ele>
        <time>2014-01-31T11:51:24.000Z</time>
      </trkpt>
      <trkpt lat="45.56965" lon="6.56319">
        <ele>2313.8000488281</ele>
        <time>2014-01-31T11:51:25.000Z</time>
      </trkpt>
      <trkpt lat="45.56965" lon="6.56319">
        <ele>2313.8000488281</ele>
        <time>2014-01-31T11:51:26.000Z</time>
      </trkpt>
      <trkpt lat="45.56965" lon="6.56319">
        <ele>2313.8000488281</ele>
        <time>2014-01-31T11:51:27.000Z</time>
      </trkpt>
      <trkpt lat="45.56965" lon="6.56319">
        <ele>2314</ele>
        <time>2014-01-31T11:51:30.000Z</time>
      </trkpt>
      <trkpt lat="45.56965" lon="6.56319">
        <ele>2314</ele>
        <time>2014-01-31T11:51:31.000Z</time>
      </trkpt>
      <trkpt lat="45.56965" lon="6.56319">
        <ele>2314</ele>
        <time>2014-01-31T11:51:32.000Z</time>
      </trkpt>
      <trkpt lat="45.56965" lon="6.56319">
        <ele>2314.1999511719</ele>
        <time>2014-01-31T11:51:33.000Z</time>
      </trkpt>
      <trkpt lat="45.56965" lon="6.56319">
        <ele>2314.1999511719</ele>
        <time>2014-01-31T11:51:34.000Z</time>
      </trkpt>
      <trkpt lat="45.56965" lon="6.56319">
        <ele>2314.1999511719</ele>
        <time>2014-01-31T11:51:35.000Z</time>
      </trkpt>
      <trkpt lat="45.56965" lon="6.56319">
        <ele>2314.1999511719</ele>
        <time>2014-01-31T11:51:36.000Z</time>
      </trkpt>
      <trkpt lat="45.56965" lon="6.56319">
        <ele>2314.3999023438</ele>
        <time>2014-01-31T11:51:37.000Z</time>
      </trkpt>
      <trkpt lat="45.56965" lon="6.56319">
        <ele>2314.3999023438</ele>
        <time>2014-01-31T11:51:38.000Z</time>
      </trkpt>
      <trkpt lat="45.56965" lon="6.56319">
        <ele>2314.3999023438</ele>
        <time>2014-01-31T11:51:39.000Z</time>
      </trkpt>
      <trkpt lat="45.56965" lon="6.56319">
        <ele>2314.3999023438</ele>
        <time>2014-01-31T11:51:40.000Z</time>
      </trkpt>
      <trkpt lat="45.56965" lon="6.56319">
        <ele>2314.3999023438</ele>
        <time>2014-01-31T11:51:41.000Z</time>
      </trkpt>
      <trkpt lat="45.56965" lon="6.56319">
        <ele>2314.3999023438</ele>
        <time>2014-01-31T11:51:42.000Z</time>
      </trkpt>
      <trkpt lat="45.56965" lon="6.56319">
        <ele>2314.6000976562</ele>
        <time>2014-01-31T11:51:43.000Z</time>
      </trkpt>
      <trkpt lat="45.56965" lon="6.56319">
        <ele>2314.8000488281</ele>
        <time>2014-01-31T11:51:44.000Z</time>
      </trkpt>
      <trkpt lat="45.56965" lon="6.56319">
        <ele>2314.8000488281</ele>
        <time>2014-01-31T11:51:45.000Z</time>
      </trkpt>
      <trkpt lat="45.56965" lon="6.56319">
        <ele>2315</ele>
        <time>2014-01-31T11:51:46.000Z</time>
      </trkpt>
      <trkpt lat="45.56965" lon="6.56319">
        <ele>2314.8000488281</ele>
        <time>2014-01-31T11:51:47.000Z</time>
      </trkpt>
      <trkpt lat="45.56965" lon="6.56319">
        <ele>2314.8000488281</ele>
        <time>2014-01-31T11:51:48.000Z</time>
      </trkpt>
      <trkpt lat="45.56965" lon="6.56319">
        <ele>2314.8000488281</ele>
        <time>2014-01-31T11:51:49.000Z</time>
      </trkpt>
      <trkpt lat="45.56965" lon="6.56319">
        <ele>2314.6000976562</ele>
        <time>2014-01-31T11:51:50.000Z</time>
      </trkpt>
      <trkpt lat="45.56965" lon="6.56319">
        <ele>2314.8000488281</ele>
        <time>2014-01-31T11:51:52.000Z</time>
      </trkpt>
      <trkpt lat="45.56965" lon="6.56319">
        <ele>2314.8000488281</ele>
        <time>2014-01-31T11:51:53.000Z</time>
      </trkpt>
      <trkpt lat="45.56965" lon="6.56319">
        <ele>2314.6000976562</ele>
        <time>2014-01-31T11:51:54.000Z</time>
      </trkpt>
      <trkpt lat="45.56965" lon="6.56319">
        <ele>2314.6000976562</ele>
        <time>2014-01-31T11:51:55.000Z</time>
      </trkpt>
      <trkpt lat="45.56965" lon="6.56319">
        <ele>2314.6000976562</ele>
        <time>2014-01-31T11:51:56.000Z</time>
      </trkpt>
      <trkpt lat="45.56965" lon="6.56319">
        <ele>2314.8000488281</ele>
        <time>2014-01-31T11:51:57.000Z</time>
      </trkpt>
      <trkpt lat="45.56965" lon="6.56319">
        <ele>2315</ele>
        <time>2014-01-31T11:51:58.000Z</time>
      </trkpt>
      <trkpt lat="45.56965" lon="6.56319">
        <ele>2315</ele>
        <time>2014-01-31T11:51:59.000Z</time>
      </trkpt>
      <trkpt lat="45.56965" lon="6.56319">
        <ele>2315</ele>
        <time>2014-01-31T11:52:00.000Z</time>
      </trkpt>
      <trkpt lat="45.56965" lon="6.56319">
        <ele>2315.1999511719</ele>
        <time>2014-01-31T11:52:01.000Z</time>
      </trkpt>
      <trkpt lat="45.56965" lon="6.56319">
        <ele>2315.1999511719</ele>
        <time>2014-01-31T11:52:02.000Z</time>
      </trkpt>
      <trkpt lat="45.56965" lon="6.56319">
        <ele>2315</ele>
        <time>2014-01-31T11:52:03.000Z</time>
      </trkpt>
      <trkpt lat="45.56965" lon="6.56319">
        <ele>2314.8000488281</ele>
        <time>2014-01-31T11:52:04.000Z</time>
      </trkpt>
      <trkpt lat="45.56965" lon="6.56319">
        <ele>2314.8000488281</ele>
        <time>2014-01-31T11:52:05.000Z</time>
      </trkpt>
      <trkpt lat="45.56965" lon="6.56319">
        <ele>2314.6000976562</ele>
        <time>2014-01-31T11:52:06.000Z</time>
      </trkpt>
      <trkpt lat="45.56965" lon="6.56319">
        <ele>2314.6000976562</ele>
        <time>2014-01-31T11:52:07.000Z</time>
      </trkpt>
      <trkpt lat="45.56965" lon="6.56319">
        <ele>2314.6000976562</ele>
        <time>2014-01-31T11:52:08.000Z</time>
      </trkpt>
      <trkpt lat="45.56965" lon="6.56319">
        <ele>2314.6000976562</ele>
        <time>2014-01-31T11:52:09.000Z</time>
      </trkpt>
      <trkpt lat="45.56965" lon="6.56319">
        <ele>2314.6000976562</ele>
        <time>2014-01-31T11:52:10.000Z</time>
      </trkpt>
      <trkpt lat="45.56965" lon="6.56319">
        <ele>2314.6000976562</ele>
        <time>2014-01-31T11:52:11.000Z</time>
      </trkpt>
      <trkpt lat="45.56965" lon="6.56319">
        <ele>2314.6000976562</ele>
        <time>2014-01-31T11:52:12.000Z</time>
      </trkpt>
      <trkpt lat="45.56965" lon="6.56319">
        <ele>2314.6000976562</ele>
        <time>2014-01-31T11:52:13.000Z</time>
      </trkpt>
      <trkpt lat="45.56965" lon="6.56319">
        <ele>2314.6000976562</ele>
        <time>2014-01-31T11:52:14.000Z</time>
      </trkpt>
      <trkpt lat="45.56965" lon="6.56319">
        <ele>2314.6000976562</ele>
        <time>2014-01-31T11:52:15.000Z</time>
      </trkpt>
      <trkpt lat="45.56965" lon="6.56319">
        <ele>2314.6000976562</ele>
        <time>2014-01-31T11:52:16.000Z</time>
      </trkpt>
      <trkpt lat="45.56965" lon="6.56319">
        <ele>2314.6000976562</ele>
        <time>2014-01-31T11:52:17.000Z</time>
      </trkpt>
      <trkpt lat="45.56965" lon="6.56319">
        <ele>2314.8000488281</ele>
        <time>2014-01-31T11:52:18.000Z</time>
      </trkpt>
      <trkpt lat="45.56965" lon="6.56319">
        <ele>2314.8000488281</ele>
        <time>2014-01-31T11:52:19.000Z</time>
      </trkpt>
      <trkpt lat="45.56965" lon="6.56319">
        <ele>2314.8000488281</ele>
        <time>2014-01-31T11:52:20.000Z</time>
      </trkpt>
      <trkpt lat="45.56965" lon="6.56319">
        <ele>2314.8000488281</ele>
        <time>2014-01-31T11:52:21.000Z</time>
      </trkpt>
      <trkpt lat="45.56965" lon="6.56319">
        <ele>2314.8000488281</ele>
        <time>2014-01-31T11:52:23.000Z</time>
      </trkpt>
      <trkpt lat="45.56965" lon="6.56319">
        <ele>2314.8000488281</ele>
        <time>2014-01-31T11:52:24.000Z</time>
      </trkpt>
      <trkpt lat="45.56965" lon="6.56319">
        <ele>2314.6000976562</ele>
        <time>2014-01-31T11:52:25.000Z</time>
      </trkpt>
      <trkpt lat="45.56965" lon="6.56319">
        <ele>2314.3999023438</ele>
        <time>2014-01-31T11:52:26.000Z</time>
      </trkpt>
      <trkpt lat="45.56965" lon="6.56319">
        <ele>2314.1999511719</ele>
        <time>2014-01-31T11:52:27.000Z</time>
      </trkpt>
      <trkpt lat="45.56965" lon="6.56319">
        <ele>2314.1999511719</ele>
        <time>2014-01-31T11:52:28.000Z</time>
      </trkpt>
      <trkpt lat="45.56965" lon="6.56319">
        <ele>2314</ele>
        <time>2014-01-31T11:52:29.000Z</time>
      </trkpt>
      <trkpt lat="45.56965" lon="6.56319">
        <ele>2314</ele>
        <time>2014-01-31T11:52:30.000Z</time>
      </trkpt>
      <trkpt lat="45.56965" lon="6.56319">
        <ele>2314.1999511719</ele>
        <time>2014-01-31T11:52:31.000Z</time>
      </trkpt>
      <trkpt lat="45.56966" lon="6.56319">
        <ele>2314.6000976562</ele>
        <time>2014-01-31T11:52:32.000Z</time>
      </trkpt>
      <trkpt lat="45.56966" lon="6.56319">
        <ele>2314.8000488281</ele>
        <time>2014-01-31T11:52:33.000Z</time>
      </trkpt>
      <trkpt lat="45.56966" lon="6.56319">
        <ele>2315</ele>
        <time>2014-01-31T11:52:34.000Z</time>
      </trkpt>
      <trkpt lat="45.56966" lon="6.56319">
        <ele>2315.1999511719</ele>
        <time>2014-01-31T11:52:35.000Z</time>
      </trkpt>
      <trkpt lat="45.56966" lon="6.56319">
        <ele>2315.3999023438</ele>
        <time>2014-01-31T11:52:36.000Z</time>
      </trkpt>
      <trkpt lat="45.56966" lon="6.56319">
        <ele>2315.3999023438</ele>
        <time>2014-01-31T11:52:37.000Z</time>
      </trkpt>
      <trkpt lat="45.56966" lon="6.56319">
        <ele>2315.1999511719</ele>
        <time>2014-01-31T11:52:38.000Z</time>
      </trkpt>
      <trkpt lat="45.56966" lon="6.56319">
        <ele>2315.1999511719</ele>
        <time>2014-01-31T11:52:39.000Z</time>
      </trkpt>
      <trkpt lat="45.56966" lon="6.56319">
        <ele>2315</ele>
        <time>2014-01-31T11:52:40.000Z</time>
      </trkpt>
      <trkpt lat="45.56966" lon="6.56319">
        <ele>2314.8000488281</ele>
        <time>2014-01-31T11:52:41.000Z</time>
      </trkpt>
      <trkpt lat="45.56966" lon="6.56319">
        <ele>2314.6000976562</ele>
        <time>2014-01-31T11:52:42.000Z</time>
      </trkpt>
      <trkpt lat="45.56966" lon="6.56319">
        <ele>2314.3999023438</ele>
        <time>2014-01-31T11:52:43.000Z</time>
      </trkpt>
      <trkpt lat="45.56966" lon="6.56319">
        <ele>2314.3999023438</ele>
        <time>2014-01-31T11:52:44.000Z</time>
      </trkpt>
      <trkpt lat="45.56966" lon="6.56319">
        <ele>2314.3999023438</ele>
        <time>2014-01-31T11:52:45.000Z</time>
      </trkpt>
      <trkpt lat="45.56966" lon="6.56319">
        <ele>2314.3999023438</ele>
        <time>2014-01-31T11:52:46.000Z</time>
      </trkpt>
      <trkpt lat="45.56966" lon="6.56319">
        <ele>2314.3999023438</ele>
        <time>2014-01-31T11:52:47.000Z</time>
      </trkpt>
      <trkpt lat="45.56966" lon="6.56319">
        <ele>2314.3999023438</ele>
        <time>2014-01-31T11:52:48.000Z</time>
      </trkpt>
      <trkpt lat="45.56966" lon="6.56319">
        <ele>2314.3999023438</ele>
        <time>2014-01-31T11:52:49.000Z</time>
      </trkpt>
      <trkpt lat="45.56966" lon="6.56319">
        <ele>2314.3999023438</ele>
        <time>2014-01-31T11:52:50.000Z</time>
      </trkpt>
      <trkpt lat="45.56966" lon="6.56319">
        <ele>2314.3999023438</ele>
        <time>2014-01-31T11:52:51.000Z</time>
      </trkpt>
      <trkpt lat="45.56966" lon="6.56319">
        <ele>2314.1999511719</ele>
        <time>2014-01-31T11:52:52.000Z</time>
      </trkpt>
      <trkpt lat="45.56966" lon="6.56319">
        <ele>2314.1999511719</ele>
        <time>2014-01-31T11:52:53.000Z</time>
      </trkpt>
      <trkpt lat="45.56966" lon="6.56319">
        <ele>2314.1999511719</ele>
        <time>2014-01-31T11:52:54.000Z</time>
      </trkpt>
      <trkpt lat="45.56966" lon="6.56319">
        <ele>2314.1999511719</ele>
        <time>2014-01-31T11:52:55.000Z</time>
      </trkpt>
      <trkpt lat="45.56966" lon="6.56319">
        <ele>2314.1999511719</ele>
        <time>2014-01-31T11:52:56.000Z</time>
      </trkpt>
      <trkpt lat="45.56966" lon="6.56319">
        <ele>2314.3999023438</ele>
        <time>2014-01-31T11:52:57.000Z</time>
      </trkpt>
      <trkpt lat="45.56966" lon="6.56319">
        <ele>2314.3999023438</ele>
        <time>2014-01-31T11:52:58.000Z</time>
      </trkpt>
      <trkpt lat="45.56966" lon="6.56319">
        <ele>2314.3999023438</ele>
        <time>2014-01-31T11:52:59.000Z</time>
      </trkpt>
      <trkpt lat="45.56966" lon="6.56319">
        <ele>2314.3999023438</ele>
        <time>2014-01-31T11:53:00.000Z</time>
      </trkpt>
      <trkpt lat="45.56966" lon="6.56319">
        <ele>2314.3999023438</ele>
        <time>2014-01-31T11:53:01.000Z</time>
      </trkpt>
      <trkpt lat="45.56966" lon="6.56319">
        <ele>2314.3999023438</ele>
        <time>2014-01-31T11:53:02.000Z</time>
      </trkpt>
      <trkpt lat="45.56966" lon="6.56319">
        <ele>2314.3999023438</ele>
        <time>2014-01-31T11:53:03.000Z</time>
      </trkpt>
      <trkpt lat="45.56966" lon="6.56319">
        <ele>2314.3999023438</ele>
        <time>2014-01-31T11:53:04.000Z</time>
      </trkpt>
      <trkpt lat="45.56966" lon="6.56319">
        <ele>2314.3999023438</ele>
        <time>2014-01-31T11:53:05.000Z</time>
      </trkpt>
      <trkpt lat="45.56966" lon="6.56319">
        <ele>2314.3999023438</ele>
        <time>2014-01-31T11:53:08.000Z</time>
      </trkpt>
      <trkpt lat="45.56966" lon="6.56319">
        <ele>2314.6000976562</ele>
        <time>2014-01-31T11:53:09.000Z</time>
      </trkpt>
      <trkpt lat="45.56966" lon="6.56319">
        <ele>2314.6000976562</ele>
        <time>2014-01-31T11:53:10.000Z</time>
      </trkpt>
      <trkpt lat="45.56966" lon="6.56319">
        <ele>2314.8000488281</ele>
        <time>2014-01-31T11:53:11.000Z</time>
      </trkpt>
      <trkpt lat="45.56966" lon="6.56319">
        <ele>2314.8000488281</ele>
        <time>2014-01-31T11:53:12.000Z</time>
      </trkpt>
      <trkpt lat="45.56966" lon="6.56319">
        <ele>2315</ele>
        <time>2014-01-31T11:53:13.000Z</time>
      </trkpt>
      <trkpt lat="45.56966" lon="6.56319">
        <ele>2315</ele>
        <time>2014-01-31T11:53:14.000Z</time>
      </trkpt>
      <trkpt lat="45.56966" lon="6.56319">
        <ele>2315</ele>
        <time>2014-01-31T11:53:15.000Z</time>
      </trkpt>
      <trkpt lat="45.56966" lon="6.56319">
        <ele>2315</ele>
        <time>2014-01-31T11:53:16.000Z</time>
      </trkpt>
      <trkpt lat="45.56966" lon="6.56319">
        <ele>2315</ele>
        <time>2014-01-31T11:53:17.000Z</time>
      </trkpt>
      <trkpt lat="45.56966" lon="6.56319">
        <ele>2314.8000488281</ele>
        <time>2014-01-31T11:53:18.000Z</time>
      </trkpt>
      <trkpt lat="45.56966" lon="6.56319">
        <ele>2314.6000976562</ele>
        <time>2014-01-31T11:53:19.000Z</time>
      </trkpt>
      <trkpt lat="45.56966" lon="6.56319">
        <ele>2314.6000976562</ele>
        <time>2014-01-31T11:53:20.000Z</time>
      </trkpt>
      <trkpt lat="45.56966" lon="6.56319">
        <ele>2314.3999023438</ele>
        <time>2014-01-31T11:53:21.000Z</time>
      </trkpt>
      <trkpt lat="45.56966" lon="6.56319">
        <ele>2314.3999023438</ele>
        <time>2014-01-31T11:53:22.000Z</time>
      </trkpt>
      <trkpt lat="45.56966" lon="6.56319">
        <ele>2314.3999023438</ele>
        <time>2014-01-31T11:53:23.000Z</time>
      </trkpt>
      <trkpt lat="45.56966" lon="6.56319">
        <ele>2314.3999023438</ele>
        <time>2014-01-31T11:53:24.000Z</time>
      </trkpt>
      <trkpt lat="45.56966" lon="6.56319">
        <ele>2314.6000976562</ele>
        <time>2014-01-31T11:53:25.000Z</time>
      </trkpt>
      <trkpt lat="45.56966" lon="6.56319">
        <ele>2314.8000488281</ele>
        <time>2014-01-31T11:53:26.000Z</time>
      </trkpt>
      <trkpt lat="45.56966" lon="6.56319">
        <ele>2314.8000488281</ele>
        <time>2014-01-31T11:53:27.000Z</time>
      </trkpt>
      <trkpt lat="45.56966" lon="6.56319">
        <ele>2314.8000488281</ele>
        <time>2014-01-31T11:53:28.000Z</time>
      </trkpt>
      <trkpt lat="45.56966" lon="6.56319">
        <ele>2314.8000488281</ele>
        <time>2014-01-31T11:53:29.000Z</time>
      </trkpt>
      <trkpt lat="45.56966" lon="6.56319">
        <ele>2314.8000488281</ele>
        <time>2014-01-31T11:53:30.000Z</time>
      </trkpt>
      <trkpt lat="45.56966" lon="6.56319">
        <ele>2314.8000488281</ele>
        <time>2014-01-31T11:53:31.000Z</time>
      </trkpt>
      <trkpt lat="45.56966" lon="6.56319">
        <ele>2314.6000976562</ele>
        <time>2014-01-31T11:53:32.000Z</time>
      </trkpt>
      <trkpt lat="45.56966" lon="6.56319">
        <ele>2314.6000976562</ele>
        <time>2014-01-31T11:53:33.000Z</time>
      </trkpt>
      <trkpt lat="45.56966" lon="6.56319">
        <ele>2314.3999023438</ele>
        <time>2014-01-31T11:53:34.000Z</time>
      </trkpt>
      <trkpt lat="45.56966" lon="6.56319">
        <ele>2314.3999023438</ele>
        <time>2014-01-31T11:53:35.000Z</time>
      </trkpt>
      <trkpt lat="45.56966" lon="6.56319">
        <ele>2314.6000976562</ele>
        <time>2014-01-31T11:53:36.000Z</time>
      </trkpt>
      <trkpt lat="45.56966" lon="6.56319">
        <ele>2314.6000976562</ele>
        <time>2014-01-31T11:53:37.000Z</time>
      </trkpt>
      <trkpt lat="45.56966" lon="6.56319">
        <ele>2314.6000976562</ele>
        <time>2014-01-31T11:53:38.000Z</time>
      </trkpt>
      <trkpt lat="45.56966" lon="6.56319">
        <ele>2314.6000976562</ele>
        <time>2014-01-31T11:53:39.000Z</time>
      </trkpt>
      <trkpt lat="45.56966" lon="6.56319">
        <ele>2314.6000976562</ele>
        <time>2014-01-31T11:53:40.000Z</time>
      </trkpt>
      <trkpt lat="45.56966" lon="6.56319">
        <ele>2314.6000976562</ele>
        <time>2014-01-31T11:53:41.000Z</time>
      </trkpt>
      <trkpt lat="45.56966" lon="6.56319">
        <ele>2314.6000976562</ele>
        <time>2014-01-31T11:53:42.000Z</time>
      </trkpt>
      <trkpt lat="45.56966" lon="6.56319">
        <ele>2314.6000976562</ele>
        <time>2014-01-31T11:53:43.000Z</time>
      </trkpt>
      <trkpt lat="45.56966" lon="6.56319">
        <ele>2314.6000976562</ele>
        <time>2014-01-31T11:53:44.000Z</time>
      </trkpt>
      <trkpt lat="45.56966" lon="6.56319">
        <ele>2314.6000976562</ele>
        <time>2014-01-31T11:53:45.000Z</time>
      </trkpt>
      <trkpt lat="45.56966" lon="6.56319">
        <ele>2314.8000488281</ele>
        <time>2014-01-31T11:53:46.000Z</time>
      </trkpt>
      <trkpt lat="45.56966" lon="6.56319">
        <ele>2314.8000488281</ele>
        <time>2014-01-31T11:53:47.000Z</time>
      </trkpt>
      <trkpt lat="45.56966" lon="6.56319">
        <ele>2315</ele>
        <time>2014-01-31T11:53:48.000Z</time>
      </trkpt>
      <trkpt lat="45.56966" lon="6.56319">
        <ele>2314.8000488281</ele>
        <time>2014-01-31T11:53:49.000Z</time>
      </trkpt>
      <trkpt lat="45.56966" lon="6.56319">
        <ele>2314.8000488281</ele>
        <time>2014-01-31T11:53:50.000Z</time>
      </trkpt>
      <trkpt lat="45.56966" lon="6.56319">
        <ele>2314.6000976562</ele>
        <time>2014-01-31T11:53:51.000Z</time>
      </trkpt>
      <trkpt lat="45.56966" lon="6.56319">
        <ele>2314.6000976562</ele>
        <time>2014-01-31T11:53:52.000Z</time>
      </trkpt>
      <trkpt lat="45.56966" lon="6.56319">
        <ele>2314.6000976562</ele>
        <time>2014-01-31T11:53:53.000Z</time>
      </trkpt>
      <trkpt lat="45.56966" lon="6.56319">
        <ele>2314.6000976562</ele>
        <time>2014-01-31T11:53:54.000Z</time>
      </trkpt>
      <trkpt lat="45.56966" lon="6.56319">
        <ele>2314.8000488281</ele>
        <time>2014-01-31T11:53:55.000Z</time>
      </trkpt>
      <trkpt lat="45.56966" lon="6.56319">
        <ele>2315</ele>
        <time>2014-01-31T11:53:56.000Z</time>
      </trkpt>
      <trkpt lat="45.56967" lon="6.56319">
        <ele>2315</ele>
        <time>2014-01-31T11:53:57.000Z</time>
      </trkpt>
      <trkpt lat="45.56967" lon="6.56319">
        <ele>2315.1999511719</ele>
        <time>2014-01-31T11:53:58.000Z</time>
      </trkpt>
      <trkpt lat="45.56967" lon="6.56319">
        <ele>2315.3999023438</ele>
        <time>2014-01-31T11:53:59.000Z</time>
      </trkpt>
      <trkpt lat="45.56967" lon="6.56319">
        <ele>2315.6000976562</ele>
        <time>2014-01-31T11:54:00.000Z</time>
      </trkpt>
      <trkpt lat="45.56967" lon="6.56319">
        <ele>2316</ele>
        <time>2014-01-31T11:54:01.000Z</time>
      </trkpt>
      <trkpt lat="45.56967" lon="6.56319">
        <ele>2316.1999511719</ele>
        <time>2014-01-31T11:54:02.000Z</time>
      </trkpt>
      <trkpt lat="45.56967" lon="6.56319">
        <ele>2316.1999511719</ele>
        <time>2014-01-31T11:54:03.000Z</time>
      </trkpt>
      <trkpt lat="45.56967" lon="6.56319">
        <ele>2316.1999511719</ele>
        <time>2014-01-31T11:54:04.000Z</time>
      </trkpt>
      <trkpt lat="45.56968" lon="6.56318">
        <ele>2316</ele>
        <time>2014-01-31T11:54:05.000Z</time>
      </trkpt>
      <trkpt lat="45.5697" lon="6.56318">
        <ele>2316</ele>
        <time>2014-01-31T11:54:06.000Z</time>
      </trkpt>
      <trkpt lat="45.56971" lon="6.56317">
        <ele>2316</ele>
        <time>2014-01-31T11:54:07.000Z</time>
      </trkpt>
      <trkpt lat="45.56972" lon="6.56317">
        <ele>2316</ele>
        <time>2014-01-31T11:54:08.000Z</time>
      </trkpt>
      <trkpt lat="45.56973" lon="6.56316">
        <ele>2315.8000488281</ele>
        <time>2014-01-31T11:54:09.000Z</time>
      </trkpt>
      <trkpt lat="45.56974" lon="6.56316">
        <ele>2315.8000488281</ele>
        <time>2014-01-31T11:54:10.000Z</time>
      </trkpt>
      <trkpt lat="45.56975" lon="6.56315">
        <ele>2315.8000488281</ele>
        <time>2014-01-31T11:54:12.000Z</time>
      </trkpt>
      <trkpt lat="45.56977" lon="6.56315">
        <ele>2315.8000488281</ele>
        <time>2014-01-31T11:54:14.000Z</time>
      </trkpt>
      <trkpt lat="45.56977" lon="6.56315">
        <ele>2315.8000488281</ele>
        <time>2014-01-31T11:54:15.000Z</time>
      </trkpt>
      <trkpt lat="45.56977" lon="6.56315">
        <ele>2315.8000488281</ele>
        <time>2014-01-31T11:54:16.000Z</time>
      </trkpt>
      <trkpt lat="45.56977" lon="6.56315">
        <ele>2315.6000976562</ele>
        <time>2014-01-31T11:54:17.000Z</time>
      </trkpt>
      <trkpt lat="45.56977" lon="6.56315">
        <ele>2315.6000976562</ele>
        <time>2014-01-31T11:54:18.000Z</time>
      </trkpt>
      <trkpt lat="45.56977" lon="6.56315">
        <ele>2315.6000976562</ele>
        <time>2014-01-31T11:54:19.000Z</time>
      </trkpt>
      <trkpt lat="45.56977" lon="6.56315">
        <ele>2315.6000976562</ele>
        <time>2014-01-31T11:54:20.000Z</time>
      </trkpt>
      <trkpt lat="45.56977" lon="6.56315">
        <ele>2315.6000976562</ele>
        <time>2014-01-31T11:54:21.000Z</time>
      </trkpt>
      <trkpt lat="45.56977" lon="6.56315">
        <ele>2315.3999023438</ele>
        <time>2014-01-31T11:54:22.000Z</time>
      </trkpt>
      <trkpt lat="45.56977" lon="6.56315">
        <ele>2315.3999023438</ele>
        <time>2014-01-31T11:54:23.000Z</time>
      </trkpt>
      <trkpt lat="45.56977" lon="6.56315">
        <ele>2315.3999023438</ele>
        <time>2014-01-31T11:54:24.000Z</time>
      </trkpt>
      <trkpt lat="45.56977" lon="6.56315">
        <ele>2315.3999023438</ele>
        <time>2014-01-31T11:54:25.000Z</time>
      </trkpt>
      <trkpt lat="45.56977" lon="6.56315">
        <ele>2315.3999023438</ele>
        <time>2014-01-31T11:54:26.000Z</time>
      </trkpt>
      <trkpt lat="45.56977" lon="6.56315">
        <ele>2315.3999023438</ele>
        <time>2014-01-31T11:54:31.000Z</time>
      </trkpt>
      <trkpt lat="45.56977" lon="6.56315">
        <ele>2315.3999023438</ele>
        <time>2014-01-31T11:54:32.000Z</time>
      </trkpt>
      <trkpt lat="45.56977" lon="6.56315">
        <ele>2315.3999023438</ele>
        <time>2014-01-31T11:54:34.000Z</time>
      </trkpt>
      <trkpt lat="45.56977" lon="6.56315">
        <ele>2315.3999023438</ele>
        <time>2014-01-31T11:54:35.000Z</time>
      </trkpt>
      <trkpt lat="45.56977" lon="6.56315">
        <ele>2315.3999023438</ele>
        <time>2014-01-31T11:54:36.000Z</time>
      </trkpt>
      <trkpt lat="45.56977" lon="6.56315">
        <ele>2315.3999023438</ele>
        <time>2014-01-31T11:54:37.000Z</time>
      </trkpt>
      <trkpt lat="45.56977" lon="6.56315">
        <ele>2315.6000976562</ele>
        <time>2014-01-31T11:54:38.000Z</time>
      </trkpt>
      <trkpt lat="45.56977" lon="6.56315">
        <ele>2315.6000976562</ele>
        <time>2014-01-31T11:54:39.000Z</time>
      </trkpt>
      <trkpt lat="45.56977" lon="6.56315">
        <ele>2315.8000488281</ele>
        <time>2014-01-31T11:54:40.000Z</time>
      </trkpt>
      <trkpt lat="45.56977" lon="6.56315">
        <ele>2315.8000488281</ele>
        <time>2014-01-31T11:54:41.000Z</time>
      </trkpt>
      <trkpt lat="45.56977" lon="6.56315">
        <ele>2315.8000488281</ele>
        <time>2014-01-31T11:54:42.000Z</time>
      </trkpt>
      <trkpt lat="45.56978" lon="6.56316">
        <ele>2315.8000488281</ele>
        <time>2014-01-31T11:54:43.000Z</time>
      </trkpt>
      <trkpt lat="45.56979" lon="6.56317">
        <ele>2315.8000488281</ele>
        <time>2014-01-31T11:54:44.000Z</time>
      </trkpt>
      <trkpt lat="45.5698" lon="6.56319">
        <ele>2315.8000488281</ele>
        <time>2014-01-31T11:54:46.000Z</time>
      </trkpt>
      <trkpt lat="45.56981" lon="6.5632">
        <ele>2315.8000488281</ele>
        <time>2014-01-31T11:54:47.000Z</time>
      </trkpt>
      <trkpt lat="45.56981" lon="6.56321">
        <ele>2316</ele>
        <time>2014-01-31T11:54:48.000Z</time>
      </trkpt>
      <trkpt lat="45.56981" lon="6.56322">
        <ele>2316</ele>
        <time>2014-01-31T11:54:49.000Z</time>
      </trkpt>
      <trkpt lat="45.56981" lon="6.56322">
        <ele>2316.1999511719</ele>
        <time>2014-01-31T11:54:50.000Z</time>
      </trkpt>
      <trkpt lat="45.56982" lon="6.56323">
        <ele>2316.1999511719</ele>
        <time>2014-01-31T11:54:51.000Z</time>
      </trkpt>
      <trkpt lat="45.56982" lon="6.56324">
        <ele>2316.3999023438</ele>
        <time>2014-01-31T11:54:52.000Z</time>
      </trkpt>
      <trkpt lat="45.56982" lon="6.56325">
        <ele>2316.6000976562</ele>
        <time>2014-01-31T11:54:53.000Z</time>
      </trkpt>
      <trkpt lat="45.56982" lon="6.56326">
        <ele>2316.8000488281</ele>
        <time>2014-01-31T11:54:54.000Z</time>
      </trkpt>
      <trkpt lat="45.56981" lon="6.56327">
        <ele>2316.8000488281</ele>
        <time>2014-01-31T11:54:55.000Z</time>
      </trkpt>
      <trkpt lat="45.56981" lon="6.56326">
        <ele>2317</ele>
        <time>2014-01-31T11:54:56.000Z</time>
      </trkpt>
      <trkpt lat="45.56981" lon="6.56326">
        <ele>2317</ele>
        <time>2014-01-31T11:54:57.000Z</time>
      </trkpt>
      <trkpt lat="45.56981" lon="6.56326">
        <ele>2317.1999511719</ele>
        <time>2014-01-31T11:54:58.000Z</time>
      </trkpt>
      <trkpt lat="45.56981" lon="6.56326">
        <ele>2317.1999511719</ele>
        <time>2014-01-31T11:54:59.000Z</time>
      </trkpt>
      <trkpt lat="45.56981" lon="6.56326">
        <ele>2317.1999511719</ele>
        <time>2014-01-31T11:55:00.000Z</time>
      </trkpt>
      <trkpt lat="45.56981" lon="6.56326">
        <ele>2317.3999023438</ele>
        <time>2014-01-31T11:55:01.000Z</time>
      </trkpt>
      <trkpt lat="45.56981" lon="6.56326">
        <ele>2317.3999023438</ele>
        <time>2014-01-31T11:55:02.000Z</time>
      </trkpt>
      <trkpt lat="45.56981" lon="6.56326">
        <ele>2317.3999023438</ele>
        <time>2014-01-31T11:55:03.000Z</time>
      </trkpt>
      <trkpt lat="45.56981" lon="6.56326">
        <ele>2317.3999023438</ele>
        <time>2014-01-31T11:55:04.000Z</time>
      </trkpt>
      <trkpt lat="45.56981" lon="6.56326">
        <ele>2317.3999023438</ele>
        <time>2014-01-31T11:55:05.000Z</time>
      </trkpt>
      <trkpt lat="45.56981" lon="6.56326">
        <ele>2317.3999023438</ele>
        <time>2014-01-31T11:55:06.000Z</time>
      </trkpt>
      <trkpt lat="45.56981" lon="6.56326">
        <ele>2317.3999023438</ele>
        <time>2014-01-31T11:55:07.000Z</time>
      </trkpt>
      <trkpt lat="45.56981" lon="6.56326">
        <ele>2317.6000976562</ele>
        <time>2014-01-31T11:55:08.000Z</time>
      </trkpt>
      <trkpt lat="45.56981" lon="6.56326">
        <ele>2317.6000976562</ele>
        <time>2014-01-31T11:55:09.000Z</time>
      </trkpt>
      <trkpt lat="45.56981" lon="6.56326">
        <ele>2317.6000976562</ele>
        <time>2014-01-31T11:55:10.000Z</time>
      </trkpt>
      <trkpt lat="45.56981" lon="6.56326">
        <ele>2317.6000976562</ele>
        <time>2014-01-31T11:55:11.000Z</time>
      </trkpt>
      <trkpt lat="45.56981" lon="6.56326">
        <ele>2317.6000976562</ele>
        <time>2014-01-31T11:55:12.000Z</time>
      </trkpt>
      <trkpt lat="45.56981" lon="6.56326">
        <ele>2317.3999023438</ele>
        <time>2014-01-31T11:55:13.000Z</time>
      </trkpt>
      <trkpt lat="45.56981" lon="6.56326">
        <ele>2317.3999023438</ele>
        <time>2014-01-31T11:55:14.000Z</time>
      </trkpt>
      <trkpt lat="45.56981" lon="6.56326">
        <ele>2317.3999023438</ele>
        <time>2014-01-31T11:55:15.000Z</time>
      </trkpt>
      <trkpt lat="45.56981" lon="6.56326">
        <ele>2317.3999023438</ele>
        <time>2014-01-31T11:55:16.000Z</time>
      </trkpt>
      <trkpt lat="45.56981" lon="6.56326">
        <ele>2317.3999023438</ele>
        <time>2014-01-31T11:55:17.000Z</time>
      </trkpt>
      <trkpt lat="45.56981" lon="6.56326">
        <ele>2317.1999511719</ele>
        <time>2014-01-31T11:55:19.000Z</time>
      </trkpt>
      <trkpt lat="45.56981" lon="6.56326">
        <ele>2317.1999511719</ele>
        <time>2014-01-31T11:55:20.000Z</time>
      </trkpt>
      <trkpt lat="45.56981" lon="6.56326">
        <ele>2317.1999511719</ele>
        <time>2014-01-31T11:55:22.000Z</time>
      </trkpt>
      <trkpt lat="45.56981" lon="6.56326">
        <ele>2317.1999511719</ele>
        <time>2014-01-31T11:55:23.000Z</time>
      </trkpt>
      <trkpt lat="45.56981" lon="6.56326">
        <ele>2317.1999511719</ele>
        <time>2014-01-31T11:55:24.000Z</time>
      </trkpt>
      <trkpt lat="45.56981" lon="6.56326">
        <ele>2317</ele>
        <time>2014-01-31T11:55:25.000Z</time>
      </trkpt>
      <trkpt lat="45.56981" lon="6.56326">
        <ele>2317</ele>
        <time>2014-01-31T11:55:26.000Z</time>
      </trkpt>
      <trkpt lat="45.56981" lon="6.56326">
        <ele>2317</ele>
        <time>2014-01-31T11:55:27.000Z</time>
      </trkpt>
      <trkpt lat="45.56982" lon="6.56327">
        <ele>2316.8000488281</ele>
        <time>2014-01-31T11:55:28.000Z</time>
      </trkpt>
      <trkpt lat="45.56983" lon="6.56327">
        <ele>2316.8000488281</ele>
        <time>2014-01-31T11:55:29.000Z</time>
      </trkpt>
      <trkpt lat="45.56984" lon="6.56328">
        <ele>2316.8000488281</ele>
        <time>2014-01-31T11:55:30.000Z</time>
      </trkpt>
      <trkpt lat="45.56984" lon="6.56328">
        <ele>2316.8000488281</ele>
        <time>2014-01-31T11:55:31.000Z</time>
      </trkpt>
      <trkpt lat="45.56985" lon="6.56328">
        <ele>2316.8000488281</ele>
        <time>2014-01-31T11:55:32.000Z</time>
      </trkpt>
      <trkpt lat="45.56987" lon="6.56328">
        <ele>2317</ele>
        <time>2014-01-31T11:55:33.000Z</time>
      </trkpt>
      <trkpt lat="45.56988" lon="6.56328">
        <ele>2317.1999511719</ele>
        <time>2014-01-31T11:55:34.000Z</time>
      </trkpt>
      <trkpt lat="45.56989" lon="6.56329">
        <ele>2317.3999023438</ele>
        <time>2014-01-31T11:55:35.000Z</time>
      </trkpt>
      <trkpt lat="45.5699" lon="6.56329">
        <ele>2317.6000976562</ele>
        <time>2014-01-31T11:55:36.000Z</time>
      </trkpt>
      <trkpt lat="45.5699" lon="6.56329">
        <ele>2317.6000976562</ele>
        <time>2014-01-31T11:55:37.000Z</time>
      </trkpt>
      <trkpt lat="45.56991" lon="6.5633">
        <ele>2317.8000488281</ele>
        <time>2014-01-31T11:55:38.000Z</time>
      </trkpt>
      <trkpt lat="45.56992" lon="6.5633">
        <ele>2317.8000488281</ele>
        <time>2014-01-31T11:55:39.000Z</time>
      </trkpt>
      <trkpt lat="45.56992" lon="6.56331">
        <ele>2318</ele>
        <time>2014-01-31T11:55:40.000Z</time>
      </trkpt>
      <trkpt lat="45.56993" lon="6.56331">
        <ele>2318.3999023438</ele>
        <time>2014-01-31T11:55:41.000Z</time>
      </trkpt>
      <trkpt lat="45.56993" lon="6.56332">
        <ele>2318.6000976562</ele>
        <time>2014-01-31T11:55:42.000Z</time>
      </trkpt>
      <trkpt lat="45.56994" lon="6.56332">
        <ele>2318.8000488281</ele>
        <time>2014-01-31T11:55:43.000Z</time>
      </trkpt>
      <trkpt lat="45.56995" lon="6.56332">
        <ele>2318.8000488281</ele>
        <time>2014-01-31T11:55:44.000Z</time>
      </trkpt>
      <trkpt lat="45.56995" lon="6.56333">
        <ele>2319</ele>
        <time>2014-01-31T11:55:45.000Z</time>
      </trkpt>
      <trkpt lat="45.56996" lon="6.56334">
        <ele>2319.1999511719</ele>
        <time>2014-01-31T11:55:46.000Z</time>
      </trkpt>
      <trkpt lat="45.56996" lon="6.56334">
        <ele>2319.3999023438</ele>
        <time>2014-01-31T11:55:47.000Z</time>
      </trkpt>
      <trkpt lat="45.56997" lon="6.56334">
        <ele>2319.3999023438</ele>
        <time>2014-01-31T11:55:48.000Z</time>
      </trkpt>
      <trkpt lat="45.56997" lon="6.56334">
        <ele>2319.8000488281</ele>
        <time>2014-01-31T11:55:49.000Z</time>
      </trkpt>
      <trkpt lat="45.56997" lon="6.56334">
        <ele>2320</ele>
        <time>2014-01-31T11:55:50.000Z</time>
      </trkpt>
      <trkpt lat="45.56998" lon="6.56335">
        <ele>2320.3999023438</ele>
        <time>2014-01-31T11:55:51.000Z</time>
      </trkpt>
      <trkpt lat="45.56998" lon="6.56335">
        <ele>2320.3999023438</ele>
        <time>2014-01-31T11:55:52.000Z</time>
      </trkpt>
      <trkpt lat="45.56999" lon="6.56335">
        <ele>2320.8000488281</ele>
        <time>2014-01-31T11:55:53.000Z</time>
      </trkpt>
      <trkpt lat="45.56999" lon="6.56335">
        <ele>2320.8000488281</ele>
        <time>2014-01-31T11:55:54.000Z</time>
      </trkpt>
      <trkpt lat="45.57" lon="6.56336">
        <ele>2321.1999511719</ele>
        <time>2014-01-31T11:55:55.000Z</time>
      </trkpt>
      <trkpt lat="45.57001" lon="6.56336">
        <ele>2321.1999511719</ele>
        <time>2014-01-31T11:55:56.000Z</time>
      </trkpt>
      <trkpt lat="45.57002" lon="6.56336">
        <ele>2321.3999023438</ele>
        <time>2014-01-31T11:55:57.000Z</time>
      </trkpt>
      <trkpt lat="45.57002" lon="6.56336">
        <ele>2321.3999023438</ele>
        <time>2014-01-31T11:55:58.000Z</time>
      </trkpt>
      <trkpt lat="45.57003" lon="6.56337">
        <ele>2321.8000488281</ele>
        <time>2014-01-31T11:55:59.000Z</time>
      </trkpt>
      <trkpt lat="45.57004" lon="6.56337">
        <ele>2321.6000976562</ele>
        <time>2014-01-31T11:56:00.000Z</time>
      </trkpt>
      <trkpt lat="45.57004" lon="6.56337">
        <ele>2322</ele>
        <time>2014-01-31T11:56:01.000Z</time>
      </trkpt>
      <trkpt lat="45.57005" lon="6.56338">
        <ele>2322</ele>
        <time>2014-01-31T11:56:02.000Z</time>
      </trkpt>
      <trkpt lat="45.57005" lon="6.56338">
        <ele>2322.3999023438</ele>
        <time>2014-01-31T11:56:03.000Z</time>
      </trkpt>
      <trkpt lat="45.57005" lon="6.56338">
        <ele>2322.1999511719</ele>
        <time>2014-01-31T11:56:04.000Z</time>
      </trkpt>
      <trkpt lat="45.57006" lon="6.56338">
        <ele>2322.6000976562</ele>
        <time>2014-01-31T11:56:05.000Z</time>
      </trkpt>
      <trkpt lat="45.57007" lon="6.56338">
        <ele>2323</ele>
        <time>2014-01-31T11:56:06.000Z</time>
      </trkpt>
      <trkpt lat="45.57008" lon="6.56338">
        <ele>2323</ele>
        <time>2014-01-31T11:56:07.000Z</time>
      </trkpt>
      <trkpt lat="45.57009" lon="6.56339">
        <ele>2323.3999023438</ele>
        <time>2014-01-31T11:56:08.000Z</time>
      </trkpt>
      <trkpt lat="45.57009" lon="6.56339">
        <ele>2323.3999023438</ele>
        <time>2014-01-31T11:56:09.000Z</time>
      </trkpt>
      <trkpt lat="45.5701" lon="6.56339">
        <ele>2323.6000976562</ele>
        <time>2014-01-31T11:56:10.000Z</time>
      </trkpt>
      <trkpt lat="45.57011" lon="6.56339">
        <ele>2323.6000976562</ele>
        <time>2014-01-31T11:56:11.000Z</time>
      </trkpt>
      <trkpt lat="45.57012" lon="6.56339">
        <ele>2324</ele>
        <time>2014-01-31T11:56:12.000Z</time>
      </trkpt>
      <trkpt lat="45.57013" lon="6.56339">
        <ele>2324</ele>
        <time>2014-01-31T11:56:13.000Z</time>
      </trkpt>
      <trkpt lat="45.57013" lon="6.56339">
        <ele>2324.3999023438</ele>
        <time>2014-01-31T11:56:14.000Z</time>
      </trkpt>
      <trkpt lat="45.57014" lon="6.56339">
        <ele>2324.3999023438</ele>
        <time>2014-01-31T11:56:15.000Z</time>
      </trkpt>
      <trkpt lat="45.57014" lon="6.56339">
        <ele>2324.8000488281</ele>
        <time>2014-01-31T11:56:16.000Z</time>
      </trkpt>
      <trkpt lat="45.57015" lon="6.56339">
        <ele>2324.8000488281</ele>
        <time>2014-01-31T11:56:17.000Z</time>
      </trkpt>
      <trkpt lat="45.57016" lon="6.5634">
        <ele>2325.1999511719</ele>
        <time>2014-01-31T11:56:18.000Z</time>
      </trkpt>
      <trkpt lat="45.57017" lon="6.5634">
        <ele>2325.6000976562</ele>
        <time>2014-01-31T11:56:20.000Z</time>
      </trkpt>
      <trkpt lat="45.57017" lon="6.5634">
        <ele>2325.8000488281</ele>
        <time>2014-01-31T11:56:21.000Z</time>
      </trkpt>
      <trkpt lat="45.57018" lon="6.5634">
        <ele>2326.1999511719</ele>
        <time>2014-01-31T11:56:22.000Z</time>
      </trkpt>
      <trkpt lat="45.57018" lon="6.56341">
        <ele>2326.1999511719</ele>
        <time>2014-01-31T11:56:23.000Z</time>
      </trkpt>
      <trkpt lat="45.57019" lon="6.56341">
        <ele>2326.6000976562</ele>
        <time>2014-01-31T11:56:24.000Z</time>
      </trkpt>
      <trkpt lat="45.57019" lon="6.56342">
        <ele>2326.6000976562</ele>
        <time>2014-01-31T11:56:25.000Z</time>
      </trkpt>
      <trkpt lat="45.57019" lon="6.56342">
        <ele>2327</ele>
        <time>2014-01-31T11:56:26.000Z</time>
      </trkpt>
      <trkpt lat="45.5702" lon="6.56343">
        <ele>2326.8000488281</ele>
        <time>2014-01-31T11:56:27.000Z</time>
      </trkpt>
      <trkpt lat="45.5702" lon="6.56343">
        <ele>2327.1999511719</ele>
        <time>2014-01-31T11:56:28.000Z</time>
      </trkpt>
      <trkpt lat="45.57021" lon="6.56343">
        <ele>2327.6000976562</ele>
        <time>2014-01-31T11:56:29.000Z</time>
      </trkpt>
      <trkpt lat="45.57021" lon="6.56344">
        <ele>2327.6000976562</ele>
        <time>2014-01-31T11:56:30.000Z</time>
      </trkpt>
      <trkpt lat="45.57022" lon="6.56344">
        <ele>2328</ele>
        <time>2014-01-31T11:56:31.000Z</time>
      </trkpt>
      <trkpt lat="45.57022" lon="6.56344">
        <ele>2328.1999511719</ele>
        <time>2014-01-31T11:56:32.000Z</time>
      </trkpt>
      <trkpt lat="45.57022" lon="6.56344">
        <ele>2328.6000976562</ele>
        <time>2014-01-31T11:56:33.000Z</time>
      </trkpt>
      <trkpt lat="45.57022" lon="6.56344">
        <ele>2328.8000488281</ele>
        <time>2014-01-31T11:56:34.000Z</time>
      </trkpt>
      <trkpt lat="45.57022" lon="6.56344">
        <ele>2329</ele>
        <time>2014-01-31T11:56:35.000Z</time>
      </trkpt>
      <trkpt lat="45.57022" lon="6.56344">
        <ele>2329</ele>
        <time>2014-01-31T11:56:36.000Z</time>
      </trkpt>
      <trkpt lat="45.57022" lon="6.56344">
        <ele>2329</ele>
        <time>2014-01-31T11:56:37.000Z</time>
      </trkpt>
      <trkpt lat="45.57022" lon="6.56344">
        <ele>2329</ele>
        <time>2014-01-31T11:56:38.000Z</time>
      </trkpt>
      <trkpt lat="45.57022" lon="6.56344">
        <ele>2329</ele>
        <time>2014-01-31T11:56:40.000Z</time>
      </trkpt>
      <trkpt lat="45.57022" lon="6.56344">
        <ele>2328.8000488281</ele>
        <time>2014-01-31T11:56:41.000Z</time>
      </trkpt>
      <trkpt lat="45.57023" lon="6.56344">
        <ele>2328.8000488281</ele>
        <time>2014-01-31T11:56:42.000Z</time>
      </trkpt>
      <trkpt lat="45.57024" lon="6.56344">
        <ele>2328.8000488281</ele>
        <time>2014-01-31T11:56:43.000Z</time>
      </trkpt>
      <trkpt lat="45.57024" lon="6.56343">
        <ele>2328.6000976562</ele>
        <time>2014-01-31T11:56:44.000Z</time>
      </trkpt>
      <trkpt lat="45.57024" lon="6.56342">
        <ele>2328.8000488281</ele>
        <time>2014-01-31T11:56:46.000Z</time>
      </trkpt>
      <trkpt lat="45.57024" lon="6.56342">
        <ele>2328.8000488281</ele>
        <time>2014-01-31T11:56:47.000Z</time>
      </trkpt>
      <trkpt lat="45.57024" lon="6.56342">
        <ele>2328.6000976562</ele>
        <time>2014-01-31T11:56:49.000Z</time>
      </trkpt>
      <trkpt lat="45.57024" lon="6.56342">
        <ele>2328.6000976562</ele>
        <time>2014-01-31T11:56:50.000Z</time>
      </trkpt>
      <trkpt lat="45.57024" lon="6.56342">
        <ele>2328.6000976562</ele>
        <time>2014-01-31T11:56:51.000Z</time>
      </trkpt>
      <trkpt lat="45.57024" lon="6.56342">
        <ele>2328.3999023438</ele>
        <time>2014-01-31T11:56:52.000Z</time>
      </trkpt>
      <trkpt lat="45.57024" lon="6.56342">
        <ele>2328.1999511719</ele>
        <time>2014-01-31T11:56:53.000Z</time>
      </trkpt>
      <trkpt lat="45.57024" lon="6.56342">
        <ele>2328.1999511719</ele>
        <time>2014-01-31T11:56:54.000Z</time>
      </trkpt>
      <trkpt lat="45.57024" lon="6.56342">
        <ele>2328</ele>
        <time>2014-01-31T11:56:55.000Z</time>
      </trkpt>
      <trkpt lat="45.57024" lon="6.56342">
        <ele>2328</ele>
        <time>2014-01-31T11:56:56.000Z</time>
      </trkpt>
      <trkpt lat="45.57024" lon="6.56342">
        <ele>2328</ele>
        <time>2014-01-31T11:56:57.000Z</time>
      </trkpt>
      <trkpt lat="45.57024" lon="6.56342">
        <ele>2328</ele>
        <time>2014-01-31T11:57:00.000Z</time>
      </trkpt>
      <trkpt lat="45.57024" lon="6.56342">
        <ele>2328</ele>
        <time>2014-01-31T11:57:02.000Z</time>
      </trkpt>
      <trkpt lat="45.57024" lon="6.56342">
        <ele>2328</ele>
        <time>2014-01-31T11:57:03.000Z</time>
      </trkpt>
      <trkpt lat="45.57024" lon="6.56342">
        <ele>2328</ele>
        <time>2014-01-31T11:57:04.000Z</time>
      </trkpt>
      <trkpt lat="45.57024" lon="6.56342">
        <ele>2328</ele>
        <time>2014-01-31T11:57:05.000Z</time>
      </trkpt>
      <trkpt lat="45.57024" lon="6.56342">
        <ele>2328</ele>
        <time>2014-01-31T11:57:06.000Z</time>
      </trkpt>
      <trkpt lat="45.57024" lon="6.56342">
        <ele>2328</ele>
        <time>2014-01-31T11:57:07.000Z</time>
      </trkpt>
      <trkpt lat="45.57024" lon="6.56342">
        <ele>2328.1999511719</ele>
        <time>2014-01-31T11:57:08.000Z</time>
      </trkpt>
      <trkpt lat="45.57024" lon="6.56342">
        <ele>2328.1999511719</ele>
        <time>2014-01-31T11:57:09.000Z</time>
      </trkpt>
      <trkpt lat="45.57024" lon="6.56342">
        <ele>2328</ele>
        <time>2014-01-31T11:57:10.000Z</time>
      </trkpt>
      <trkpt lat="45.57024" lon="6.56342">
        <ele>2328</ele>
        <time>2014-01-31T11:57:11.000Z</time>
      </trkpt>
      <trkpt lat="45.57024" lon="6.56342">
        <ele>2328</ele>
        <time>2014-01-31T11:57:12.000Z</time>
      </trkpt>
      <trkpt lat="45.57024" lon="6.56342">
        <ele>2328</ele>
        <time>2014-01-31T11:57:13.000Z</time>
      </trkpt>
      <trkpt lat="45.57024" lon="6.56342">
        <ele>2328</ele>
        <time>2014-01-31T11:57:14.000Z</time>
      </trkpt>
      <trkpt lat="45.57024" lon="6.56342">
        <ele>2328</ele>
        <time>2014-01-31T11:57:15.000Z</time>
      </trkpt>
      <trkpt lat="45.57024" lon="6.56342">
        <ele>2328</ele>
        <time>2014-01-31T11:57:16.000Z</time>
      </trkpt>
      <trkpt lat="45.57024" lon="6.56342">
        <ele>2328.1999511719</ele>
        <time>2014-01-31T11:57:17.000Z</time>
      </trkpt>
      <trkpt lat="45.57024" lon="6.56342">
        <ele>2328.1999511719</ele>
        <time>2014-01-31T11:57:18.000Z</time>
      </trkpt>
      <trkpt lat="45.57024" lon="6.56342">
        <ele>2328.3999023438</ele>
        <time>2014-01-31T11:57:19.000Z</time>
      </trkpt>
      <trkpt lat="45.57024" lon="6.56342">
        <ele>2328.3999023438</ele>
        <time>2014-01-31T11:57:20.000Z</time>
      </trkpt>
      <trkpt lat="45.57024" lon="6.56342">
        <ele>2328.3999023438</ele>
        <time>2014-01-31T11:57:21.000Z</time>
      </trkpt>
      <trkpt lat="45.57024" lon="6.56342">
        <ele>2328.3999023438</ele>
        <time>2014-01-31T11:57:22.000Z</time>
      </trkpt>
      <trkpt lat="45.57024" lon="6.56342">
        <ele>2328.1999511719</ele>
        <time>2014-01-31T11:57:23.000Z</time>
      </trkpt>
      <trkpt lat="45.57024" lon="6.56342">
        <ele>2328.1999511719</ele>
        <time>2014-01-31T11:57:24.000Z</time>
      </trkpt>
      <trkpt lat="45.57024" lon="6.56342">
        <ele>2328</ele>
        <time>2014-01-31T11:57:25.000Z</time>
      </trkpt>
      <trkpt lat="45.57024" lon="6.56342">
        <ele>2328</ele>
        <time>2014-01-31T11:57:26.000Z</time>
      </trkpt>
      <trkpt lat="45.57024" lon="6.56342">
        <ele>2328</ele>
        <time>2014-01-31T11:57:27.000Z</time>
      </trkpt>
      <trkpt lat="45.57024" lon="6.56342">
        <ele>2328</ele>
        <time>2014-01-31T11:57:28.000Z</time>
      </trkpt>
      <trkpt lat="45.57024" lon="6.56342">
        <ele>2328</ele>
        <time>2014-01-31T11:57:30.000Z</time>
      </trkpt>
      <trkpt lat="45.57024" lon="6.56342">
        <ele>2328</ele>
        <time>2014-01-31T11:57:31.000Z</time>
      </trkpt>
      <trkpt lat="45.57024" lon="6.56342">
        <ele>2328</ele>
        <time>2014-01-31T11:57:32.000Z</time>
      </trkpt>
      <trkpt lat="45.57024" lon="6.56342">
        <ele>2328</ele>
        <time>2014-01-31T11:57:33.000Z</time>
      </trkpt>
      <trkpt lat="45.57024" lon="6.56342">
        <ele>2328</ele>
        <time>2014-01-31T11:57:34.000Z</time>
      </trkpt>
      <trkpt lat="45.57024" lon="6.56342">
        <ele>2328</ele>
        <time>2014-01-31T11:57:36.000Z</time>
      </trkpt>
      <trkpt lat="45.57024" lon="6.56342">
        <ele>2328</ele>
        <time>2014-01-31T11:57:37.000Z</time>
      </trkpt>
      <trkpt lat="45.57024" lon="6.56342">
        <ele>2328</ele>
        <time>2014-01-31T11:57:38.000Z</time>
      </trkpt>
      <trkpt lat="45.57024" lon="6.56342">
        <ele>2328.1999511719</ele>
        <time>2014-01-31T11:57:39.000Z</time>
      </trkpt>
      <trkpt lat="45.57024" lon="6.56342">
        <ele>2328.1999511719</ele>
        <time>2014-01-31T11:57:40.000Z</time>
      </trkpt>
      <trkpt lat="45.57024" lon="6.56342">
        <ele>2328.1999511719</ele>
        <time>2014-01-31T11:57:41.000Z</time>
      </trkpt>
      <trkpt lat="45.57024" lon="6.56342">
        <ele>2328.1999511719</ele>
        <time>2014-01-31T11:57:42.000Z</time>
      </trkpt>
      <trkpt lat="45.57024" lon="6.56342">
        <ele>2328.1999511719</ele>
        <time>2014-01-31T11:57:43.000Z</time>
      </trkpt>
      <trkpt lat="45.57024" lon="6.56342">
        <ele>2328</ele>
        <time>2014-01-31T11:57:44.000Z</time>
      </trkpt>
      <trkpt lat="45.57024" lon="6.56342">
        <ele>2328</ele>
        <time>2014-01-31T11:57:45.000Z</time>
      </trkpt>
      <trkpt lat="45.57024" lon="6.56342">
        <ele>2327.8000488281</ele>
        <time>2014-01-31T11:57:46.000Z</time>
      </trkpt>
      <trkpt lat="45.57024" lon="6.56342">
        <ele>2327.6000976562</ele>
        <time>2014-01-31T11:57:47.000Z</time>
      </trkpt>
      <trkpt lat="45.57024" lon="6.56342">
        <ele>2327.6000976562</ele>
        <time>2014-01-31T11:57:48.000Z</time>
      </trkpt>
      <trkpt lat="45.57024" lon="6.56342">
        <ele>2327.6000976562</ele>
        <time>2014-01-31T11:57:49.000Z</time>
      </trkpt>
      <trkpt lat="45.57024" lon="6.56342">
        <ele>2327.3999023438</ele>
        <time>2014-01-31T11:57:50.000Z</time>
      </trkpt>
      <trkpt lat="45.57024" lon="6.56342">
        <ele>2327.6000976562</ele>
        <time>2014-01-31T11:57:51.000Z</time>
      </trkpt>
      <trkpt lat="45.57024" lon="6.56342">
        <ele>2327.6000976562</ele>
        <time>2014-01-31T11:57:52.000Z</time>
      </trkpt>
      <trkpt lat="45.57024" lon="6.56342">
        <ele>2327.6000976562</ele>
        <time>2014-01-31T11:57:53.000Z</time>
      </trkpt>
      <trkpt lat="45.57024" lon="6.56342">
        <ele>2327.6000976562</ele>
        <time>2014-01-31T11:57:54.000Z</time>
      </trkpt>
      <trkpt lat="45.57024" lon="6.56342">
        <ele>2327.6000976562</ele>
        <time>2014-01-31T11:57:55.000Z</time>
      </trkpt>
      <trkpt lat="45.57024" lon="6.56342">
        <ele>2327.6000976562</ele>
        <time>2014-01-31T11:57:56.000Z</time>
      </trkpt>
      <trkpt lat="45.57024" lon="6.56342">
        <ele>2327.6000976562</ele>
        <time>2014-01-31T11:57:57.000Z</time>
      </trkpt>
      <trkpt lat="45.57024" lon="6.56342">
        <ele>2327.6000976562</ele>
        <time>2014-01-31T11:57:58.000Z</time>
      </trkpt>
      <trkpt lat="45.57024" lon="6.56342">
        <ele>2327.6000976562</ele>
        <time>2014-01-31T11:57:59.000Z</time>
      </trkpt>
      <trkpt lat="45.57024" lon="6.56342">
        <ele>2327.6000976562</ele>
        <time>2014-01-31T11:58:02.000Z</time>
      </trkpt>
      <trkpt lat="45.57024" lon="6.56342">
        <ele>2327.6000976562</ele>
        <time>2014-01-31T11:58:03.000Z</time>
      </trkpt>
      <trkpt lat="45.57024" lon="6.56342">
        <ele>2327.6000976562</ele>
        <time>2014-01-31T11:58:04.000Z</time>
      </trkpt>
      <trkpt lat="45.57024" lon="6.56342">
        <ele>2327.6000976562</ele>
        <time>2014-01-31T11:58:06.000Z</time>
      </trkpt>
      <trkpt lat="45.57024" lon="6.56342">
        <ele>2327.6000976562</ele>
        <time>2014-01-31T11:58:07.000Z</time>
      </trkpt>
      <trkpt lat="45.57024" lon="6.56342">
        <ele>2327.6000976562</ele>
        <time>2014-01-31T11:58:08.000Z</time>
      </trkpt>
      <trkpt lat="45.57024" lon="6.56342">
        <ele>2327.8000488281</ele>
        <time>2014-01-31T11:58:09.000Z</time>
      </trkpt>
      <trkpt lat="45.57024" lon="6.56342">
        <ele>2327.8000488281</ele>
        <time>2014-01-31T11:58:10.000Z</time>
      </trkpt>
      <trkpt lat="45.57024" lon="6.56342">
        <ele>2327.8000488281</ele>
        <time>2014-01-31T11:58:12.000Z</time>
      </trkpt>
      <trkpt lat="45.57024" lon="6.56342">
        <ele>2327.8000488281</ele>
        <time>2014-01-31T11:58:14.000Z</time>
      </trkpt>
      <trkpt lat="45.57024" lon="6.56342">
        <ele>2327.6000976562</ele>
        <time>2014-01-31T11:58:15.000Z</time>
      </trkpt>
      <trkpt lat="45.57024" lon="6.56342">
        <ele>2327.6000976562</ele>
        <time>2014-01-31T11:58:16.000Z</time>
      </trkpt>
      <trkpt lat="45.57024" lon="6.56342">
        <ele>2327.6000976562</ele>
        <time>2014-01-31T11:58:17.000Z</time>
      </trkpt>
      <trkpt lat="45.57024" lon="6.56342">
        <ele>2327.6000976562</ele>
        <time>2014-01-31T11:58:18.000Z</time>
      </trkpt>
      <trkpt lat="45.57024" lon="6.56342">
        <ele>2327.3999023438</ele>
        <time>2014-01-31T11:58:19.000Z</time>
      </trkpt>
      <trkpt lat="45.57024" lon="6.56342">
        <ele>2327.6000976562</ele>
        <time>2014-01-31T11:58:20.000Z</time>
      </trkpt>
      <trkpt lat="45.57024" lon="6.56342">
        <ele>2327.6000976562</ele>
        <time>2014-01-31T11:58:21.000Z</time>
      </trkpt>
      <trkpt lat="45.57024" lon="6.56342">
        <ele>2327.6000976562</ele>
        <time>2014-01-31T11:58:22.000Z</time>
      </trkpt>
      <trkpt lat="45.57024" lon="6.56342">
        <ele>2327.8000488281</ele>
        <time>2014-01-31T11:58:23.000Z</time>
      </trkpt>
      <trkpt lat="45.57024" lon="6.56342">
        <ele>2328.1999511719</ele>
        <time>2014-01-31T11:58:24.000Z</time>
      </trkpt>
      <trkpt lat="45.57022" lon="6.56337">
        <ele>2328.3999023438</ele>
        <time>2014-01-31T11:58:25.000Z</time>
      </trkpt>
      <trkpt lat="45.57021" lon="6.56337">
        <ele>2328.6000976562</ele>
        <time>2014-01-31T11:58:26.000Z</time>
      </trkpt>
      <trkpt lat="45.57021" lon="6.56336">
        <ele>2328.8000488281</ele>
        <time>2014-01-31T11:58:27.000Z</time>
      </trkpt>
      <trkpt lat="45.5702" lon="6.56336">
        <ele>2328.8000488281</ele>
        <time>2014-01-31T11:58:28.000Z</time>
      </trkpt>
      <trkpt lat="45.57018" lon="6.56335">
        <ele>2329</ele>
        <time>2014-01-31T11:58:29.000Z</time>
      </trkpt>
      <trkpt lat="45.57017" lon="6.56335">
        <ele>2329</ele>
        <time>2014-01-31T11:58:30.000Z</time>
      </trkpt>
      <trkpt lat="45.57016" lon="6.56335">
        <ele>2329</ele>
        <time>2014-01-31T11:58:31.000Z</time>
      </trkpt>
      <trkpt lat="45.57016" lon="6.56335">
        <ele>2329</ele>
        <time>2014-01-31T11:58:32.000Z</time>
      </trkpt>
      <trkpt lat="45.57016" lon="6.56335">
        <ele>2328.8000488281</ele>
        <time>2014-01-31T11:58:33.000Z</time>
      </trkpt>
      <trkpt lat="45.57016" lon="6.56335">
        <ele>2328.6000976562</ele>
        <time>2014-01-31T11:58:34.000Z</time>
      </trkpt>
      <trkpt lat="45.57014" lon="6.56334">
        <ele>2328.3999023438</ele>
        <time>2014-01-31T11:58:35.000Z</time>
      </trkpt>
      <trkpt lat="45.57012" lon="6.56332">
        <ele>2328</ele>
        <time>2014-01-31T11:58:36.000Z</time>
      </trkpt>
      <trkpt lat="45.57009" lon="6.56331">
        <ele>2327.8000488281</ele>
        <time>2014-01-31T11:58:37.000Z</time>
      </trkpt>
      <trkpt lat="45.57007" lon="6.56331">
        <ele>2327.6000976562</ele>
        <time>2014-01-31T11:58:38.000Z</time>
      </trkpt>
      <trkpt lat="45.57007" lon="6.56331">
        <ele>2327.1999511719</ele>
        <time>2014-01-31T11:58:39.000Z</time>
      </trkpt>
      <trkpt lat="45.57007" lon="6.56332">
        <ele>2327</ele>
        <time>2014-01-31T11:58:40.000Z</time>
      </trkpt>
      <trkpt lat="45.57007" lon="6.56332">
        <ele>2326.6000976562</ele>
        <time>2014-01-31T11:58:41.000Z</time>
      </trkpt>
      <trkpt lat="45.57007" lon="6.56332">
        <ele>2326.3999023438</ele>
        <time>2014-01-31T11:58:42.000Z</time>
      </trkpt>
      <trkpt lat="45.57007" lon="6.56332">
        <ele>2326.1999511719</ele>
        <time>2014-01-31T11:58:43.000Z</time>
      </trkpt>
      <trkpt lat="45.57007" lon="6.56332">
        <ele>2326</ele>
        <time>2014-01-31T11:58:44.000Z</time>
      </trkpt>
      <trkpt lat="45.57007" lon="6.56332">
        <ele>2325.6000976562</ele>
        <time>2014-01-31T11:58:45.000Z</time>
      </trkpt>
      <trkpt lat="45.57007" lon="6.56332">
        <ele>2325.3999023438</ele>
        <time>2014-01-31T11:58:46.000Z</time>
      </trkpt>
      <trkpt lat="45.57007" lon="6.56332">
        <ele>2325.3999023438</ele>
        <time>2014-01-31T11:58:47.000Z</time>
      </trkpt>
      <trkpt lat="45.57007" lon="6.56332">
        <ele>2325.3999023438</ele>
        <time>2014-01-31T11:58:48.000Z</time>
      </trkpt>
      <trkpt lat="45.57007" lon="6.56332">
        <ele>2325.1999511719</ele>
        <time>2014-01-31T11:58:49.000Z</time>
      </trkpt>
      <trkpt lat="45.57007" lon="6.56332">
        <ele>2325.1999511719</ele>
        <time>2014-01-31T11:58:50.000Z</time>
      </trkpt>
      <trkpt lat="45.57007" lon="6.56332">
        <ele>2325.1999511719</ele>
        <time>2014-01-31T11:58:51.000Z</time>
      </trkpt>
      <trkpt lat="45.57007" lon="6.56332">
        <ele>2325</ele>
        <time>2014-01-31T11:58:52.000Z</time>
      </trkpt>
      <trkpt lat="45.57007" lon="6.56332">
        <ele>2324.8000488281</ele>
        <time>2014-01-31T11:58:53.000Z</time>
      </trkpt>
      <trkpt lat="45.57007" lon="6.56332">
        <ele>2324.6000976562</ele>
        <time>2014-01-31T11:58:54.000Z</time>
      </trkpt>
      <trkpt lat="45.57007" lon="6.56332">
        <ele>2324.6000976562</ele>
        <time>2014-01-31T11:58:55.000Z</time>
      </trkpt>
      <trkpt lat="45.57007" lon="6.56332">
        <ele>2324.3999023438</ele>
        <time>2014-01-31T11:58:56.000Z</time>
      </trkpt>
      <trkpt lat="45.57007" lon="6.56332">
        <ele>2324.3999023438</ele>
        <time>2014-01-31T11:58:57.000Z</time>
      </trkpt>
      <trkpt lat="45.57007" lon="6.56332">
        <ele>2324.1999511719</ele>
        <time>2014-01-31T11:58:58.000Z</time>
      </trkpt>
      <trkpt lat="45.57007" lon="6.56332">
        <ele>2324</ele>
        <time>2014-01-31T11:58:59.000Z</time>
      </trkpt>
      <trkpt lat="45.57007" lon="6.56332">
        <ele>2324</ele>
        <time>2014-01-31T11:59:00.000Z</time>
      </trkpt>
      <trkpt lat="45.57007" lon="6.56332">
        <ele>2324</ele>
        <time>2014-01-31T11:59:01.000Z</time>
      </trkpt>
      <trkpt lat="45.57007" lon="6.56332">
        <ele>2324</ele>
        <time>2014-01-31T11:59:02.000Z</time>
      </trkpt>
      <trkpt lat="45.57007" lon="6.56332">
        <ele>2324</ele>
        <time>2014-01-31T11:59:03.000Z</time>
      </trkpt>
      <trkpt lat="45.57007" lon="6.56332">
        <ele>2324.1999511719</ele>
        <time>2014-01-31T11:59:04.000Z</time>
      </trkpt>
      <trkpt lat="45.57007" lon="6.56332">
        <ele>2324.1999511719</ele>
        <time>2014-01-31T11:59:05.000Z</time>
      </trkpt>
      <trkpt lat="45.57007" lon="6.56332">
        <ele>2324.1999511719</ele>
        <time>2014-01-31T11:59:06.000Z</time>
      </trkpt>
      <trkpt lat="45.57007" lon="6.56332">
        <ele>2324.1999511719</ele>
        <time>2014-01-31T11:59:07.000Z</time>
      </trkpt>
      <trkpt lat="45.57007" lon="6.56332">
        <ele>2324</ele>
        <time>2014-01-31T11:59:08.000Z</time>
      </trkpt>
      <trkpt lat="45.57007" lon="6.56332">
        <ele>2324</ele>
        <time>2014-01-31T11:59:09.000Z</time>
      </trkpt>
      <trkpt lat="45.57007" lon="6.56332">
        <ele>2324</ele>
        <time>2014-01-31T11:59:10.000Z</time>
      </trkpt>
      <trkpt lat="45.57007" lon="6.56332">
        <ele>2324</ele>
        <time>2014-01-31T11:59:11.000Z</time>
      </trkpt>
      <trkpt lat="45.57007" lon="6.56332">
        <ele>2324</ele>
        <time>2014-01-31T11:59:12.000Z</time>
      </trkpt>
      <trkpt lat="45.57007" lon="6.56332">
        <ele>2324</ele>
        <time>2014-01-31T11:59:13.000Z</time>
      </trkpt>
      <trkpt lat="45.57007" lon="6.56332">
        <ele>2324.1999511719</ele>
        <time>2014-01-31T11:59:14.000Z</time>
      </trkpt>
      <trkpt lat="45.57007" lon="6.56332">
        <ele>2324.3999023438</ele>
        <time>2014-01-31T11:59:15.000Z</time>
      </trkpt>
      <trkpt lat="45.57007" lon="6.56332">
        <ele>2324.3999023438</ele>
        <time>2014-01-31T11:59:16.000Z</time>
      </trkpt>
      <trkpt lat="45.57007" lon="6.56332">
        <ele>2324.3999023438</ele>
        <time>2014-01-31T11:59:17.000Z</time>
      </trkpt>
      <trkpt lat="45.57007" lon="6.56332">
        <ele>2324.1999511719</ele>
        <time>2014-01-31T11:59:18.000Z</time>
      </trkpt>
      <trkpt lat="45.57007" lon="6.56332">
        <ele>2323.8000488281</ele>
        <time>2014-01-31T11:59:19.000Z</time>
      </trkpt>
      <trkpt lat="45.57007" lon="6.56333">
        <ele>2323.6000976562</ele>
        <time>2014-01-31T11:59:20.000Z</time>
      </trkpt>
      <trkpt lat="45.57007" lon="6.56333">
        <ele>2323.6000976562</ele>
        <time>2014-01-31T11:59:21.000Z</time>
      </trkpt>
      <trkpt lat="45.57007" lon="6.56333">
        <ele>2323.3999023438</ele>
        <time>2014-01-31T11:59:22.000Z</time>
      </trkpt>
      <trkpt lat="45.57007" lon="6.56333">
        <ele>2323.3999023438</ele>
        <time>2014-01-31T11:59:23.000Z</time>
      </trkpt>
      <trkpt lat="45.57007" lon="6.56333">
        <ele>2323.6000976562</ele>
        <time>2014-01-31T11:59:24.000Z</time>
      </trkpt>
      <trkpt lat="45.57007" lon="6.56333">
        <ele>2323.6000976562</ele>
        <time>2014-01-31T11:59:25.000Z</time>
      </trkpt>
      <trkpt lat="45.57007" lon="6.56333">
        <ele>2323.8000488281</ele>
        <time>2014-01-31T11:59:26.000Z</time>
      </trkpt>
      <trkpt lat="45.57007" lon="6.56333">
        <ele>2323.8000488281</ele>
        <time>2014-01-31T11:59:27.000Z</time>
      </trkpt>
      <trkpt lat="45.57007" lon="6.56333">
        <ele>2323.8000488281</ele>
        <time>2014-01-31T11:59:28.000Z</time>
      </trkpt>
      <trkpt lat="45.57007" lon="6.56333">
        <ele>2323.8000488281</ele>
        <time>2014-01-31T11:59:29.000Z</time>
      </trkpt>
      <trkpt lat="45.57007" lon="6.56333">
        <ele>2323.8000488281</ele>
        <time>2014-01-31T11:59:30.000Z</time>
      </trkpt>
      <trkpt lat="45.57007" lon="6.56333">
        <ele>2323.8000488281</ele>
        <time>2014-01-31T11:59:31.000Z</time>
      </trkpt>
      <trkpt lat="45.57007" lon="6.56333">
        <ele>2324</ele>
        <time>2014-01-31T11:59:32.000Z</time>
      </trkpt>
      <trkpt lat="45.57007" lon="6.56333">
        <ele>2324</ele>
        <time>2014-01-31T11:59:33.000Z</time>
      </trkpt>
      <trkpt lat="45.57007" lon="6.56333">
        <ele>2324.1999511719</ele>
        <time>2014-01-31T11:59:34.000Z</time>
      </trkpt>
      <trkpt lat="45.57007" lon="6.56333">
        <ele>2324</ele>
        <time>2014-01-31T11:59:35.000Z</time>
      </trkpt>
      <trkpt lat="45.57007" lon="6.56333">
        <ele>2324</ele>
        <time>2014-01-31T11:59:36.000Z</time>
      </trkpt>
      <trkpt lat="45.57007" lon="6.56333">
        <ele>2323.8000488281</ele>
        <time>2014-01-31T11:59:37.000Z</time>
      </trkpt>
      <trkpt lat="45.57007" lon="6.56333">
        <ele>2323.6000976562</ele>
        <time>2014-01-31T11:59:38.000Z</time>
      </trkpt>
      <trkpt lat="45.57007" lon="6.56333">
        <ele>2323.6000976562</ele>
        <time>2014-01-31T11:59:39.000Z</time>
      </trkpt>
      <trkpt lat="45.57007" lon="6.56333">
        <ele>2323.6000976562</ele>
        <time>2014-01-31T11:59:40.000Z</time>
      </trkpt>
      <trkpt lat="45.57007" lon="6.56333">
        <ele>2323.8000488281</ele>
        <time>2014-01-31T11:59:41.000Z</time>
      </trkpt>
      <trkpt lat="45.57007" lon="6.56333">
        <ele>2323.8000488281</ele>
        <time>2014-01-31T11:59:42.000Z</time>
      </trkpt>
      <trkpt lat="45.57007" lon="6.56333">
        <ele>2323.8000488281</ele>
        <time>2014-01-31T11:59:43.000Z</time>
      </trkpt>
      <trkpt lat="45.57007" lon="6.56333">
        <ele>2323.8000488281</ele>
        <time>2014-01-31T11:59:44.000Z</time>
      </trkpt>
      <trkpt lat="45.57007" lon="6.56333">
        <ele>2323.8000488281</ele>
        <time>2014-01-31T11:59:47.000Z</time>
      </trkpt>
      <trkpt lat="45.57007" lon="6.56333">
        <ele>2323.8000488281</ele>
        <time>2014-01-31T11:59:48.000Z</time>
      </trkpt>
      <trkpt lat="45.57007" lon="6.56333">
        <ele>2324</ele>
        <time>2014-01-31T11:59:49.000Z</time>
      </trkpt>
      <trkpt lat="45.57007" lon="6.56333">
        <ele>2324</ele>
        <time>2014-01-31T11:59:50.000Z</time>
      </trkpt>
      <trkpt lat="45.57007" lon="6.56333">
        <ele>2324.1999511719</ele>
        <time>2014-01-31T11:59:51.000Z</time>
      </trkpt>
      <trkpt lat="45.57007" lon="6.56333">
        <ele>2324.1999511719</ele>
        <time>2014-01-31T11:59:52.000Z</time>
      </trkpt>
      <trkpt lat="45.57007" lon="6.56333">
        <ele>2324.1999511719</ele>
        <time>2014-01-31T11:59:53.000Z</time>
      </trkpt>
      <trkpt lat="45.57007" lon="6.56333">
        <ele>2324.1999511719</ele>
        <time>2014-01-31T11:59:54.000Z</time>
      </trkpt>
      <trkpt lat="45.57007" lon="6.56333">
        <ele>2324.1999511719</ele>
        <time>2014-01-31T11:59:55.000Z</time>
      </trkpt>
      <trkpt lat="45.57007" lon="6.56333">
        <ele>2324.1999511719</ele>
        <time>2014-01-31T11:59:56.000Z</time>
      </trkpt>
      <trkpt lat="45.57007" lon="6.56333">
        <ele>2324.1999511719</ele>
        <time>2014-01-31T11:59:59.000Z</time>
      </trkpt>
      <trkpt lat="45.57007" lon="6.56333">
        <ele>2324.1999511719</ele>
        <time>2014-01-31T12:00:00.000Z</time>
      </trkpt>
      <trkpt lat="45.57007" lon="6.56333">
        <ele>2324.1999511719</ele>
        <time>2014-01-31T12:00:01.000Z</time>
      </trkpt>
      <trkpt lat="45.57007" lon="6.56333">
        <ele>2324.1999511719</ele>
        <time>2014-01-31T12:00:02.000Z</time>
      </trkpt>
      <trkpt lat="45.57007" lon="6.56333">
        <ele>2324.1999511719</ele>
        <time>2014-01-31T12:00:05.000Z</time>
      </trkpt>
      <trkpt lat="45.57007" lon="6.56333">
        <ele>2324</ele>
        <time>2014-01-31T12:00:06.000Z</time>
      </trkpt>
      <trkpt lat="45.57007" lon="6.56333">
        <ele>2324</ele>
        <time>2014-01-31T12:00:07.000Z</time>
      </trkpt>
      <trkpt lat="45.57007" lon="6.56333">
        <ele>2324</ele>
        <time>2014-01-31T12:00:08.000Z</time>
      </trkpt>
      <trkpt lat="45.57007" lon="6.56333">
        <ele>2324</ele>
        <time>2014-01-31T12:00:10.000Z</time>
      </trkpt>
      <trkpt lat="45.57007" lon="6.56333">
        <ele>2324.1999511719</ele>
        <time>2014-01-31T12:00:11.000Z</time>
      </trkpt>
      <trkpt lat="45.57007" lon="6.56333">
        <ele>2324.1999511719</ele>
        <time>2014-01-31T12:00:12.000Z</time>
      </trkpt>
      <trkpt lat="45.57007" lon="6.56333">
        <ele>2324.1999511719</ele>
        <time>2014-01-31T12:00:13.000Z</time>
      </trkpt>
      <trkpt lat="45.57007" lon="6.56333">
        <ele>2324.1999511719</ele>
        <time>2014-01-31T12:00:14.000Z</time>
      </trkpt>
      <trkpt lat="45.57007" lon="6.56333">
        <ele>2324.1999511719</ele>
        <time>2014-01-31T12:00:15.000Z</time>
      </trkpt>
      <trkpt lat="45.57007" lon="6.56333">
        <ele>2324.1999511719</ele>
        <time>2014-01-31T12:00:16.000Z</time>
      </trkpt>
      <trkpt lat="45.57007" lon="6.56333">
        <ele>2324.1999511719</ele>
        <time>2014-01-31T12:00:17.000Z</time>
      </trkpt>
      <trkpt lat="45.57007" lon="6.56333">
        <ele>2324.1999511719</ele>
        <time>2014-01-31T12:00:18.000Z</time>
      </trkpt>
      <trkpt lat="45.57007" lon="6.56333">
        <ele>2324</ele>
        <time>2014-01-31T12:00:19.000Z</time>
      </trkpt>
      <trkpt lat="45.57007" lon="6.56333">
        <ele>2324</ele>
        <time>2014-01-31T12:00:21.000Z</time>
      </trkpt>
      <trkpt lat="45.57007" lon="6.56333">
        <ele>2324</ele>
        <time>2014-01-31T12:00:22.000Z</time>
      </trkpt>
      <trkpt lat="45.57007" lon="6.56333">
        <ele>2324</ele>
        <time>2014-01-31T12:00:23.000Z</time>
      </trkpt>
      <trkpt lat="45.57007" lon="6.56333">
        <ele>2324</ele>
        <time>2014-01-31T12:00:24.000Z</time>
      </trkpt>
      <trkpt lat="45.57007" lon="6.56333">
        <ele>2324</ele>
        <time>2014-01-31T12:00:25.000Z</time>
      </trkpt>
      <trkpt lat="45.57007" lon="6.56333">
        <ele>2324</ele>
        <time>2014-01-31T12:00:26.000Z</time>
      </trkpt>
      <trkpt lat="45.57007" lon="6.56333">
        <ele>2324</ele>
        <time>2014-01-31T12:00:27.000Z</time>
      </trkpt>
      <trkpt lat="45.57007" lon="6.56333">
        <ele>2324</ele>
        <time>2014-01-31T12:00:28.000Z</time>
      </trkpt>
      <trkpt lat="45.57007" lon="6.56333">
        <ele>2324</ele>
        <time>2014-01-31T12:00:29.000Z</time>
      </trkpt>
      <trkpt lat="45.57007" lon="6.56333">
        <ele>2324</ele>
        <time>2014-01-31T12:00:30.000Z</time>
      </trkpt>
      <trkpt lat="45.57007" lon="6.56333">
        <ele>2324.1999511719</ele>
        <time>2014-01-31T12:00:31.000Z</time>
      </trkpt>
      <trkpt lat="45.57007" lon="6.56333">
        <ele>2324.1999511719</ele>
        <time>2014-01-31T12:00:32.000Z</time>
      </trkpt>
      <trkpt lat="45.57007" lon="6.56333">
        <ele>2324.1999511719</ele>
        <time>2014-01-31T12:00:33.000Z</time>
      </trkpt>
      <trkpt lat="45.57007" lon="6.56333">
        <ele>2324</ele>
        <time>2014-01-31T12:00:34.000Z</time>
      </trkpt>
      <trkpt lat="45.57007" lon="6.56333">
        <ele>2324</ele>
        <time>2014-01-31T12:00:35.000Z</time>
      </trkpt>
      <trkpt lat="45.57007" lon="6.56333">
        <ele>2324</ele>
        <time>2014-01-31T12:00:36.000Z</time>
      </trkpt>
      <trkpt lat="45.57007" lon="6.56333">
        <ele>2324</ele>
        <time>2014-01-31T12:00:37.000Z</time>
      </trkpt>
      <trkpt lat="45.57007" lon="6.56333">
        <ele>2323.8000488281</ele>
        <time>2014-01-31T12:00:38.000Z</time>
      </trkpt>
      <trkpt lat="45.57007" lon="6.56333">
        <ele>2323.8000488281</ele>
        <time>2014-01-31T12:00:39.000Z</time>
      </trkpt>
      <trkpt lat="45.57008" lon="6.56333">
        <ele>2323.8000488281</ele>
        <time>2014-01-31T12:00:40.000Z</time>
      </trkpt>
      <trkpt lat="45.57008" lon="6.56333">
        <ele>2323.8000488281</ele>
        <time>2014-01-31T12:00:41.000Z</time>
      </trkpt>
      <trkpt lat="45.57008" lon="6.56333">
        <ele>2323.8000488281</ele>
        <time>2014-01-31T12:00:42.000Z</time>
      </trkpt>
      <trkpt lat="45.57008" lon="6.56333">
        <ele>2323.6000976562</ele>
        <time>2014-01-31T12:00:44.000Z</time>
      </trkpt>
      <trkpt lat="45.57008" lon="6.56333">
        <ele>2323.6000976562</ele>
        <time>2014-01-31T12:00:45.000Z</time>
      </trkpt>
      <trkpt lat="45.57008" lon="6.56333">
        <ele>2323.6000976562</ele>
        <time>2014-01-31T12:00:46.000Z</time>
      </trkpt>
      <trkpt lat="45.57008" lon="6.56333">
        <ele>2323.3999023438</ele>
        <time>2014-01-31T12:00:47.000Z</time>
      </trkpt>
      <trkpt lat="45.57008" lon="6.56333">
        <ele>2323.3999023438</ele>
        <time>2014-01-31T12:00:48.000Z</time>
      </trkpt>
      <trkpt lat="45.57008" lon="6.56333">
        <ele>2323.6000976562</ele>
        <time>2014-01-31T12:00:49.000Z</time>
      </trkpt>
      <trkpt lat="45.57008" lon="6.56333">
        <ele>2323.6000976562</ele>
        <time>2014-01-31T12:00:50.000Z</time>
      </trkpt>
      <trkpt lat="45.57008" lon="6.56333">
        <ele>2323.6000976562</ele>
        <time>2014-01-31T12:00:51.000Z</time>
      </trkpt>
      <trkpt lat="45.57008" lon="6.56333">
        <ele>2323.6000976562</ele>
        <time>2014-01-31T12:00:52.000Z</time>
      </trkpt>
      <trkpt lat="45.57008" lon="6.56333">
        <ele>2323.8000488281</ele>
        <time>2014-01-31T12:00:53.000Z</time>
      </trkpt>
      <trkpt lat="45.57008" lon="6.56333">
        <ele>2323.8000488281</ele>
        <time>2014-01-31T12:00:54.000Z</time>
      </trkpt>
      <trkpt lat="45.57008" lon="6.56333">
        <ele>2323.8000488281</ele>
        <time>2014-01-31T12:00:55.000Z</time>
      </trkpt>
      <trkpt lat="45.57008" lon="6.56333">
        <ele>2324</ele>
        <time>2014-01-31T12:00:56.000Z</time>
      </trkpt>
      <trkpt lat="45.57008" lon="6.56333">
        <ele>2324</ele>
        <time>2014-01-31T12:00:57.000Z</time>
      </trkpt>
      <trkpt lat="45.57008" lon="6.56333">
        <ele>2324</ele>
        <time>2014-01-31T12:00:58.000Z</time>
      </trkpt>
      <trkpt lat="45.57008" lon="6.56333">
        <ele>2324</ele>
        <time>2014-01-31T12:00:59.000Z</time>
      </trkpt>
      <trkpt lat="45.57008" lon="6.56333">
        <ele>2324</ele>
        <time>2014-01-31T12:01:00.000Z</time>
      </trkpt>
      <trkpt lat="45.57008" lon="6.56333">
        <ele>2324</ele>
        <time>2014-01-31T12:01:01.000Z</time>
      </trkpt>
      <trkpt lat="45.57008" lon="6.56333">
        <ele>2324</ele>
        <time>2014-01-31T12:01:02.000Z</time>
      </trkpt>
      <trkpt lat="45.57008" lon="6.56333">
        <ele>2324</ele>
        <time>2014-01-31T12:01:03.000Z</time>
      </trkpt>
      <trkpt lat="45.57008" lon="6.56333">
        <ele>2324</ele>
        <time>2014-01-31T12:01:04.000Z</time>
      </trkpt>
      <trkpt lat="45.57008" lon="6.56333">
        <ele>2324.1999511719</ele>
        <time>2014-01-31T12:01:05.000Z</time>
      </trkpt>
      <trkpt lat="45.57008" lon="6.56333">
        <ele>2324.1999511719</ele>
        <time>2014-01-31T12:01:06.000Z</time>
      </trkpt>
      <trkpt lat="45.57008" lon="6.56333">
        <ele>2324.3999023438</ele>
        <time>2014-01-31T12:01:07.000Z</time>
      </trkpt>
      <trkpt lat="45.57008" lon="6.56333">
        <ele>2324.3999023438</ele>
        <time>2014-01-31T12:01:08.000Z</time>
      </trkpt>
      <trkpt lat="45.57008" lon="6.56333">
        <ele>2324.3999023438</ele>
        <time>2014-01-31T12:01:09.000Z</time>
      </trkpt>
      <trkpt lat="45.57008" lon="6.56333">
        <ele>2324.3999023438</ele>
        <time>2014-01-31T12:01:10.000Z</time>
      </trkpt>
      <trkpt lat="45.57008" lon="6.56333">
        <ele>2324.3999023438</ele>
        <time>2014-01-31T12:01:11.000Z</time>
      </trkpt>
      <trkpt lat="45.57008" lon="6.56333">
        <ele>2324.3999023438</ele>
        <time>2014-01-31T12:01:12.000Z</time>
      </trkpt>
      <trkpt lat="45.57008" lon="6.56333">
        <ele>2324.1999511719</ele>
        <time>2014-01-31T12:01:13.000Z</time>
      </trkpt>
      <trkpt lat="45.57008" lon="6.56333">
        <ele>2324.3999023438</ele>
        <time>2014-01-31T12:01:15.000Z</time>
      </trkpt>
      <trkpt lat="45.57008" lon="6.56333">
        <ele>2324.3999023438</ele>
        <time>2014-01-31T12:01:16.000Z</time>
      </trkpt>
      <trkpt lat="45.57008" lon="6.56333">
        <ele>2324.3999023438</ele>
        <time>2014-01-31T12:01:17.000Z</time>
      </trkpt>
      <trkpt lat="45.57008" lon="6.56333">
        <ele>2324.3999023438</ele>
        <time>2014-01-31T12:01:18.000Z</time>
      </trkpt>
      <trkpt lat="45.57008" lon="6.56334">
        <ele>2324.3999023438</ele>
        <time>2014-01-31T12:01:20.000Z</time>
      </trkpt>
      <trkpt lat="45.57008" lon="6.56334">
        <ele>2324.3999023438</ele>
        <time>2014-01-31T12:01:21.000Z</time>
      </trkpt>
      <trkpt lat="45.57008" lon="6.56334">
        <ele>2324.1999511719</ele>
        <time>2014-01-31T12:01:22.000Z</time>
      </trkpt>
      <trkpt lat="45.57008" lon="6.56334">
        <ele>2324.1999511719</ele>
        <time>2014-01-31T12:01:23.000Z</time>
      </trkpt>
      <trkpt lat="45.57008" lon="6.56334">
        <ele>2324</ele>
        <time>2014-01-31T12:01:24.000Z</time>
      </trkpt>
      <trkpt lat="45.57008" lon="6.56334">
        <ele>2324</ele>
        <time>2014-01-31T12:01:25.000Z</time>
      </trkpt>
      <trkpt lat="45.57008" lon="6.56334">
        <ele>2324</ele>
        <time>2014-01-31T12:01:26.000Z</time>
      </trkpt>
      <trkpt lat="45.57008" lon="6.56334">
        <ele>2324</ele>
        <time>2014-01-31T12:01:27.000Z</time>
      </trkpt>
      <trkpt lat="45.57008" lon="6.56334">
        <ele>2323.8000488281</ele>
        <time>2014-01-31T12:01:28.000Z</time>
      </trkpt>
      <trkpt lat="45.57008" lon="6.56334">
        <ele>2324</ele>
        <time>2014-01-31T12:01:29.000Z</time>
      </trkpt>
      <trkpt lat="45.57008" lon="6.56334">
        <ele>2324</ele>
        <time>2014-01-31T12:01:30.000Z</time>
      </trkpt>
      <trkpt lat="45.57008" lon="6.56334">
        <ele>2324</ele>
        <time>2014-01-31T12:01:31.000Z</time>
      </trkpt>
      <trkpt lat="45.57008" lon="6.56334">
        <ele>2324</ele>
        <time>2014-01-31T12:01:32.000Z</time>
      </trkpt>
      <trkpt lat="45.57008" lon="6.56334">
        <ele>2324</ele>
        <time>2014-01-31T12:01:33.000Z</time>
      </trkpt>
      <trkpt lat="45.57008" lon="6.56334">
        <ele>2324</ele>
        <time>2014-01-31T12:01:34.000Z</time>
      </trkpt>
      <trkpt lat="45.57008" lon="6.56334">
        <ele>2324</ele>
        <time>2014-01-31T12:01:35.000Z</time>
      </trkpt>
      <trkpt lat="45.57008" lon="6.56334">
        <ele>2323.8000488281</ele>
        <time>2014-01-31T12:01:36.000Z</time>
      </trkpt>
      <trkpt lat="45.57008" lon="6.56334">
        <ele>2323.8000488281</ele>
        <time>2014-01-31T12:01:37.000Z</time>
      </trkpt>
      <trkpt lat="45.57008" lon="6.56334">
        <ele>2323.6000976562</ele>
        <time>2014-01-31T12:01:38.000Z</time>
      </trkpt>
      <trkpt lat="45.57008" lon="6.56334">
        <ele>2323.6000976562</ele>
        <time>2014-01-31T12:01:39.000Z</time>
      </trkpt>
      <trkpt lat="45.57008" lon="6.56334">
        <ele>2323.6000976562</ele>
        <time>2014-01-31T12:01:40.000Z</time>
      </trkpt>
      <trkpt lat="45.57008" lon="6.56334">
        <ele>2323.8000488281</ele>
        <time>2014-01-31T12:01:41.000Z</time>
      </trkpt>
      <trkpt lat="45.57008" lon="6.56334">
        <ele>2323.8000488281</ele>
        <time>2014-01-31T12:01:42.000Z</time>
      </trkpt>
      <trkpt lat="45.57008" lon="6.56334">
        <ele>2323.8000488281</ele>
        <time>2014-01-31T12:01:43.000Z</time>
      </trkpt>
      <trkpt lat="45.57008" lon="6.56334">
        <ele>2324</ele>
        <time>2014-01-31T12:01:44.000Z</time>
      </trkpt>
      <trkpt lat="45.57008" lon="6.56334">
        <ele>2323.8000488281</ele>
        <time>2014-01-31T12:01:46.000Z</time>
      </trkpt>
      <trkpt lat="45.57008" lon="6.56334">
        <ele>2323.8000488281</ele>
        <time>2014-01-31T12:01:47.000Z</time>
      </trkpt>
      <trkpt lat="45.57008" lon="6.56334">
        <ele>2323.6000976562</ele>
        <time>2014-01-31T12:01:48.000Z</time>
      </trkpt>
      <trkpt lat="45.57008" lon="6.56334">
        <ele>2323.3999023438</ele>
        <time>2014-01-31T12:01:49.000Z</time>
      </trkpt>
      <trkpt lat="45.57008" lon="6.56334">
        <ele>2323.3999023438</ele>
        <time>2014-01-31T12:01:50.000Z</time>
      </trkpt>
      <trkpt lat="45.57008" lon="6.56334">
        <ele>2323.3999023438</ele>
        <time>2014-01-31T12:01:51.000Z</time>
      </trkpt>
      <trkpt lat="45.57008" lon="6.56334">
        <ele>2323.3999023438</ele>
        <time>2014-01-31T12:01:52.000Z</time>
      </trkpt>
      <trkpt lat="45.57008" lon="6.56334">
        <ele>2323.3999023438</ele>
        <time>2014-01-31T12:01:53.000Z</time>
      </trkpt>
      <trkpt lat="45.57008" lon="6.56334">
        <ele>2323.3999023438</ele>
        <time>2014-01-31T12:01:55.000Z</time>
      </trkpt>
      <trkpt lat="45.57008" lon="6.56334">
        <ele>2323.3999023438</ele>
        <time>2014-01-31T12:01:56.000Z</time>
      </trkpt>
      <trkpt lat="45.57008" lon="6.56334">
        <ele>2323.1999511719</ele>
        <time>2014-01-31T12:01:57.000Z</time>
      </trkpt>
      <trkpt lat="45.57008" lon="6.56334">
        <ele>2323.1999511719</ele>
        <time>2014-01-31T12:01:58.000Z</time>
      </trkpt>
      <trkpt lat="45.57008" lon="6.56334">
        <ele>2323.1999511719</ele>
        <time>2014-01-31T12:01:59.000Z</time>
      </trkpt>
      <trkpt lat="45.57008" lon="6.56334">
        <ele>2323.1999511719</ele>
        <time>2014-01-31T12:02:01.000Z</time>
      </trkpt>
      <trkpt lat="45.57008" lon="6.56334">
        <ele>2323.3999023438</ele>
        <time>2014-01-31T12:02:02.000Z</time>
      </trkpt>
      <trkpt lat="45.57008" lon="6.56334">
        <ele>2323.6000976562</ele>
        <time>2014-01-31T12:02:03.000Z</time>
      </trkpt>
      <trkpt lat="45.57008" lon="6.56334">
        <ele>2323.8000488281</ele>
        <time>2014-01-31T12:02:04.000Z</time>
      </trkpt>
      <trkpt lat="45.57008" lon="6.56334">
        <ele>2324</ele>
        <time>2014-01-31T12:02:05.000Z</time>
      </trkpt>
      <trkpt lat="45.57008" lon="6.56334">
        <ele>2324</ele>
        <time>2014-01-31T12:02:06.000Z</time>
      </trkpt>
      <trkpt lat="45.57008" lon="6.56334">
        <ele>2323.8000488281</ele>
        <time>2014-01-31T12:02:07.000Z</time>
      </trkpt>
      <trkpt lat="45.57008" lon="6.56334">
        <ele>2323.8000488281</ele>
        <time>2014-01-31T12:02:08.000Z</time>
      </trkpt>
      <trkpt lat="45.57008" lon="6.56334">
        <ele>2323.8000488281</ele>
        <time>2014-01-31T12:02:09.000Z</time>
      </trkpt>
      <trkpt lat="45.57008" lon="6.56334">
        <ele>2323.6000976562</ele>
        <time>2014-01-31T12:02:10.000Z</time>
      </trkpt>
      <trkpt lat="45.57008" lon="6.56334">
        <ele>2323.6000976562</ele>
        <time>2014-01-31T12:02:11.000Z</time>
      </trkpt>
      <trkpt lat="45.57008" lon="6.56334">
        <ele>2323.3999023438</ele>
        <time>2014-01-31T12:02:12.000Z</time>
      </trkpt>
      <trkpt lat="45.57008" lon="6.56334">
        <ele>2323.3999023438</ele>
        <time>2014-01-31T12:02:13.000Z</time>
      </trkpt>
      <trkpt lat="45.57008" lon="6.56334">
        <ele>2323.3999023438</ele>
        <time>2014-01-31T12:02:14.000Z</time>
      </trkpt>
      <trkpt lat="45.57008" lon="6.56334">
        <ele>2323.3999023438</ele>
        <time>2014-01-31T12:02:15.000Z</time>
      </trkpt>
      <trkpt lat="45.57008" lon="6.56334">
        <ele>2323.6000976562</ele>
        <time>2014-01-31T12:02:16.000Z</time>
      </trkpt>
      <trkpt lat="45.57008" lon="6.56334">
        <ele>2323.6000976562</ele>
        <time>2014-01-31T12:02:17.000Z</time>
      </trkpt>
      <trkpt lat="45.57008" lon="6.56334">
        <ele>2323.6000976562</ele>
        <time>2014-01-31T12:02:18.000Z</time>
      </trkpt>
      <trkpt lat="45.57008" lon="6.56334">
        <ele>2323.8000488281</ele>
        <time>2014-01-31T12:02:19.000Z</time>
      </trkpt>
      <trkpt lat="45.57008" lon="6.56334">
        <ele>2323.8000488281</ele>
        <time>2014-01-31T12:02:20.000Z</time>
      </trkpt>
      <trkpt lat="45.57008" lon="6.56334">
        <ele>2323.6000976562</ele>
        <time>2014-01-31T12:02:21.000Z</time>
      </trkpt>
      <trkpt lat="45.57008" lon="6.56334">
        <ele>2323.6000976562</ele>
        <time>2014-01-31T12:02:22.000Z</time>
      </trkpt>
      <trkpt lat="45.57008" lon="6.56334">
        <ele>2323.6000976562</ele>
        <time>2014-01-31T12:02:23.000Z</time>
      </trkpt>
      <trkpt lat="45.57008" lon="6.56334">
        <ele>2323.6000976562</ele>
        <time>2014-01-31T12:02:24.000Z</time>
      </trkpt>
      <trkpt lat="45.57008" lon="6.56334">
        <ele>2323.6000976562</ele>
        <time>2014-01-31T12:02:25.000Z</time>
      </trkpt>
      <trkpt lat="45.57008" lon="6.56334">
        <ele>2323.6000976562</ele>
        <time>2014-01-31T12:02:26.000Z</time>
      </trkpt>
      <trkpt lat="45.57008" lon="6.56334">
        <ele>2323.6000976562</ele>
        <time>2014-01-31T12:02:27.000Z</time>
      </trkpt>
      <trkpt lat="45.57008" lon="6.56334">
        <ele>2323.6000976562</ele>
        <time>2014-01-31T12:02:28.000Z</time>
      </trkpt>
      <trkpt lat="45.57008" lon="6.56334">
        <ele>2323.6000976562</ele>
        <time>2014-01-31T12:02:29.000Z</time>
      </trkpt>
      <trkpt lat="45.57008" lon="6.56334">
        <ele>2323.6000976562</ele>
        <time>2014-01-31T12:02:30.000Z</time>
      </trkpt>
      <trkpt lat="45.57008" lon="6.56334">
        <ele>2323.6000976562</ele>
        <time>2014-01-31T12:02:31.000Z</time>
      </trkpt>
      <trkpt lat="45.57008" lon="6.56334">
        <ele>2323.6000976562</ele>
        <time>2014-01-31T12:02:32.000Z</time>
      </trkpt>
      <trkpt lat="45.57008" lon="6.56334">
        <ele>2323.6000976562</ele>
        <time>2014-01-31T12:02:33.000Z</time>
      </trkpt>
      <trkpt lat="45.57008" lon="6.56334">
        <ele>2323.6000976562</ele>
        <time>2014-01-31T12:02:35.000Z</time>
      </trkpt>
      <trkpt lat="45.57008" lon="6.56334">
        <ele>2323.8000488281</ele>
        <time>2014-01-31T12:02:36.000Z</time>
      </trkpt>
      <trkpt lat="45.57008" lon="6.56334">
        <ele>2323.8000488281</ele>
        <time>2014-01-31T12:02:37.000Z</time>
      </trkpt>
      <trkpt lat="45.57008" lon="6.56334">
        <ele>2323.8000488281</ele>
        <time>2014-01-31T12:02:38.000Z</time>
      </trkpt>
      <trkpt lat="45.57008" lon="6.56334">
        <ele>2323.8000488281</ele>
        <time>2014-01-31T12:02:39.000Z</time>
      </trkpt>
      <trkpt lat="45.57008" lon="6.56334">
        <ele>2323.8000488281</ele>
        <time>2014-01-31T12:02:40.000Z</time>
      </trkpt>
      <trkpt lat="45.57008" lon="6.56334">
        <ele>2323.8000488281</ele>
        <time>2014-01-31T12:02:41.000Z</time>
      </trkpt>
      <trkpt lat="45.57008" lon="6.56334">
        <ele>2323.8000488281</ele>
        <time>2014-01-31T12:02:42.000Z</time>
      </trkpt>
      <trkpt lat="45.57008" lon="6.56334">
        <ele>2323.6000976562</ele>
        <time>2014-01-31T12:02:43.000Z</time>
      </trkpt>
      <trkpt lat="45.57008" lon="6.56334">
        <ele>2323.6000976562</ele>
        <time>2014-01-31T12:02:44.000Z</time>
      </trkpt>
      <trkpt lat="45.57008" lon="6.56334">
        <ele>2323.3999023438</ele>
        <time>2014-01-31T12:02:45.000Z</time>
      </trkpt>
      <trkpt lat="45.57008" lon="6.56334">
        <ele>2323.3999023438</ele>
        <time>2014-01-31T12:02:46.000Z</time>
      </trkpt>
      <trkpt lat="45.57008" lon="6.56334">
        <ele>2323.3999023438</ele>
        <time>2014-01-31T12:02:47.000Z</time>
      </trkpt>
      <trkpt lat="45.57008" lon="6.56334">
        <ele>2323.3999023438</ele>
        <time>2014-01-31T12:02:50.000Z</time>
      </trkpt>
      <trkpt lat="45.57008" lon="6.56334">
        <ele>2323.3999023438</ele>
        <time>2014-01-31T12:02:51.000Z</time>
      </trkpt>
      <trkpt lat="45.57008" lon="6.56334">
        <ele>2323.6000976562</ele>
        <time>2014-01-31T12:02:52.000Z</time>
      </trkpt>
      <trkpt lat="45.57008" lon="6.56334">
        <ele>2323.6000976562</ele>
        <time>2014-01-31T12:02:53.000Z</time>
      </trkpt>
      <trkpt lat="45.57008" lon="6.56334">
        <ele>2323.6000976562</ele>
        <time>2014-01-31T12:02:54.000Z</time>
      </trkpt>
      <trkpt lat="45.57008" lon="6.56334">
        <ele>2323.6000976562</ele>
        <time>2014-01-31T12:02:56.000Z</time>
      </trkpt>
      <trkpt lat="45.57008" lon="6.56334">
        <ele>2323.6000976562</ele>
        <time>2014-01-31T12:02:57.000Z</time>
      </trkpt>
      <trkpt lat="45.57008" lon="6.56334">
        <ele>2323.6000976562</ele>
        <time>2014-01-31T12:02:58.000Z</time>
      </trkpt>
      <trkpt lat="45.57008" lon="6.56334">
        <ele>2323.3999023438</ele>
        <time>2014-01-31T12:02:59.000Z</time>
      </trkpt>
      <trkpt lat="45.57008" lon="6.56334">
        <ele>2323.3999023438</ele>
        <time>2014-01-31T12:03:00.000Z</time>
      </trkpt>
      <trkpt lat="45.57008" lon="6.56334">
        <ele>2323.3999023438</ele>
        <time>2014-01-31T12:03:01.000Z</time>
      </trkpt>
      <trkpt lat="45.57008" lon="6.56334">
        <ele>2323.3999023438</ele>
        <time>2014-01-31T12:03:02.000Z</time>
      </trkpt>
      <trkpt lat="45.57008" lon="6.56334">
        <ele>2323.1999511719</ele>
        <time>2014-01-31T12:03:03.000Z</time>
      </trkpt>
      <trkpt lat="45.57008" lon="6.56334">
        <ele>2323.3999023438</ele>
        <time>2014-01-31T12:03:05.000Z</time>
      </trkpt>
      <trkpt lat="45.57008" lon="6.56334">
        <ele>2323.3999023438</ele>
        <time>2014-01-31T12:03:06.000Z</time>
      </trkpt>
      <trkpt lat="45.57008" lon="6.56334">
        <ele>2323.6000976562</ele>
        <time>2014-01-31T12:03:07.000Z</time>
      </trkpt>
      <trkpt lat="45.57008" lon="6.56334">
        <ele>2323.6000976562</ele>
        <time>2014-01-31T12:03:08.000Z</time>
      </trkpt>
      <trkpt lat="45.57008" lon="6.56334">
        <ele>2323.6000976562</ele>
        <time>2014-01-31T12:03:09.000Z</time>
      </trkpt>
      <trkpt lat="45.57008" lon="6.56334">
        <ele>2323.8000488281</ele>
        <time>2014-01-31T12:03:10.000Z</time>
      </trkpt>
      <trkpt lat="45.57008" lon="6.56334">
        <ele>2323.8000488281</ele>
        <time>2014-01-31T12:03:11.000Z</time>
      </trkpt>
      <trkpt lat="45.57008" lon="6.56334">
        <ele>2323.6000976562</ele>
        <time>2014-01-31T12:03:12.000Z</time>
      </trkpt>
      <trkpt lat="45.57008" lon="6.56334">
        <ele>2323.6000976562</ele>
        <time>2014-01-31T12:03:13.000Z</time>
      </trkpt>
      <trkpt lat="45.57008" lon="6.56335">
        <ele>2323.6000976562</ele>
        <time>2014-01-31T12:03:14.000Z</time>
      </trkpt>
      <trkpt lat="45.57008" lon="6.56335">
        <ele>2323.6000976562</ele>
        <time>2014-01-31T12:03:15.000Z</time>
      </trkpt>
      <trkpt lat="45.57008" lon="6.56335">
        <ele>2323.6000976562</ele>
        <time>2014-01-31T12:03:16.000Z</time>
      </trkpt>
      <trkpt lat="45.57008" lon="6.56335">
        <ele>2323.8000488281</ele>
        <time>2014-01-31T12:03:17.000Z</time>
      </trkpt>
      <trkpt lat="45.57008" lon="6.56335">
        <ele>2323.8000488281</ele>
        <time>2014-01-31T12:03:18.000Z</time>
      </trkpt>
      <trkpt lat="45.57008" lon="6.56335">
        <ele>2323.8000488281</ele>
        <time>2014-01-31T12:03:19.000Z</time>
      </trkpt>
      <trkpt lat="45.57008" lon="6.56335">
        <ele>2323.8000488281</ele>
        <time>2014-01-31T12:03:20.000Z</time>
      </trkpt>
      <trkpt lat="45.57008" lon="6.56335">
        <ele>2323.8000488281</ele>
        <time>2014-01-31T12:03:21.000Z</time>
      </trkpt>
      <trkpt lat="45.57008" lon="6.56335">
        <ele>2323.8000488281</ele>
        <time>2014-01-31T12:03:22.000Z</time>
      </trkpt>
      <trkpt lat="45.57008" lon="6.56335">
        <ele>2323.8000488281</ele>
        <time>2014-01-31T12:03:23.000Z</time>
      </trkpt>
      <trkpt lat="45.57008" lon="6.56335">
        <ele>2323.8000488281</ele>
        <time>2014-01-31T12:03:25.000Z</time>
      </trkpt>
      <trkpt lat="45.57008" lon="6.56335">
        <ele>2323.8000488281</ele>
        <time>2014-01-31T12:03:27.000Z</time>
      </trkpt>
      <trkpt lat="45.57008" lon="6.56335">
        <ele>2323.8000488281</ele>
        <time>2014-01-31T12:03:28.000Z</time>
      </trkpt>
      <trkpt lat="45.57008" lon="6.56335">
        <ele>2323.8000488281</ele>
        <time>2014-01-31T12:03:29.000Z</time>
      </trkpt>
      <trkpt lat="45.57008" lon="6.56335">
        <ele>2323.8000488281</ele>
        <time>2014-01-31T12:03:30.000Z</time>
      </trkpt>
      <trkpt lat="45.57008" lon="6.56335">
        <ele>2323.8000488281</ele>
        <time>2014-01-31T12:03:31.000Z</time>
      </trkpt>
      <trkpt lat="45.57008" lon="6.56335">
        <ele>2323.8000488281</ele>
        <time>2014-01-31T12:03:32.000Z</time>
      </trkpt>
      <trkpt lat="45.57008" lon="6.56335">
        <ele>2323.8000488281</ele>
        <time>2014-01-31T12:03:33.000Z</time>
      </trkpt>
      <trkpt lat="45.57008" lon="6.56335">
        <ele>2324</ele>
        <time>2014-01-31T12:03:34.000Z</time>
      </trkpt>
      <trkpt lat="45.57008" lon="6.56335">
        <ele>2324.1999511719</ele>
        <time>2014-01-31T12:03:35.000Z</time>
      </trkpt>
      <trkpt lat="45.57008" lon="6.56335">
        <ele>2324.1999511719</ele>
        <time>2014-01-31T12:03:36.000Z</time>
      </trkpt>
      <trkpt lat="45.57008" lon="6.56335">
        <ele>2324.3999023438</ele>
        <time>2014-01-31T12:03:37.000Z</time>
      </trkpt>
      <trkpt lat="45.57008" lon="6.56335">
        <ele>2324.3999023438</ele>
        <time>2014-01-31T12:03:38.000Z</time>
      </trkpt>
      <trkpt lat="45.57008" lon="6.56335">
        <ele>2324.3999023438</ele>
        <time>2014-01-31T12:03:39.000Z</time>
      </trkpt>
      <trkpt lat="45.57008" lon="6.56335">
        <ele>2324.1999511719</ele>
        <time>2014-01-31T12:03:40.000Z</time>
      </trkpt>
      <trkpt lat="45.57008" lon="6.56335">
        <ele>2324</ele>
        <time>2014-01-31T12:03:41.000Z</time>
      </trkpt>
      <trkpt lat="45.57008" lon="6.56335">
        <ele>2323.8000488281</ele>
        <time>2014-01-31T12:03:42.000Z</time>
      </trkpt>
      <trkpt lat="45.57008" lon="6.56335">
        <ele>2323.8000488281</ele>
        <time>2014-01-31T12:03:43.000Z</time>
      </trkpt>
      <trkpt lat="45.57008" lon="6.56335">
        <ele>2323.6000976562</ele>
        <time>2014-01-31T12:03:44.000Z</time>
      </trkpt>
      <trkpt lat="45.57008" lon="6.56335">
        <ele>2323.6000976562</ele>
        <time>2014-01-31T12:03:45.000Z</time>
      </trkpt>
      <trkpt lat="45.57008" lon="6.56335">
        <ele>2323.8000488281</ele>
        <time>2014-01-31T12:03:46.000Z</time>
      </trkpt>
      <trkpt lat="45.57008" lon="6.56335">
        <ele>2323.8000488281</ele>
        <time>2014-01-31T12:03:47.000Z</time>
      </trkpt>
      <trkpt lat="45.57007" lon="6.56334">
        <ele>2323.8000488281</ele>
        <time>2014-01-31T12:03:48.000Z</time>
      </trkpt>
      <trkpt lat="45.57007" lon="6.56334">
        <ele>2323.8000488281</ele>
        <time>2014-01-31T12:03:50.000Z</time>
      </trkpt>
      <trkpt lat="45.57007" lon="6.56334">
        <ele>2323.6000976562</ele>
        <time>2014-01-31T12:03:51.000Z</time>
      </trkpt>
      <trkpt lat="45.57007" lon="6.56334">
        <ele>2323.6000976562</ele>
        <time>2014-01-31T12:03:52.000Z</time>
      </trkpt>
      <trkpt lat="45.57007" lon="6.56334">
        <ele>2323.3999023438</ele>
        <time>2014-01-31T12:03:53.000Z</time>
      </trkpt>
      <trkpt lat="45.57007" lon="6.56334">
        <ele>2323.3999023438</ele>
        <time>2014-01-31T12:03:54.000Z</time>
      </trkpt>
      <trkpt lat="45.57007" lon="6.56334">
        <ele>2323.1999511719</ele>
        <time>2014-01-31T12:03:55.000Z</time>
      </trkpt>
      <trkpt lat="45.57007" lon="6.56334">
        <ele>2323.1999511719</ele>
        <time>2014-01-31T12:03:56.000Z</time>
      </trkpt>
      <trkpt lat="45.57007" lon="6.56334">
        <ele>2323.1999511719</ele>
        <time>2014-01-31T12:03:57.000Z</time>
      </trkpt>
      <trkpt lat="45.57007" lon="6.56334">
        <ele>2323.1999511719</ele>
        <time>2014-01-31T12:03:58.000Z</time>
      </trkpt>
      <trkpt lat="45.57007" lon="6.56334">
        <ele>2323</ele>
        <time>2014-01-31T12:03:59.000Z</time>
      </trkpt>
      <trkpt lat="45.57007" lon="6.56334">
        <ele>2323</ele>
        <time>2014-01-31T12:04:00.000Z</time>
      </trkpt>
      <trkpt lat="45.57007" lon="6.56334">
        <ele>2323</ele>
        <time>2014-01-31T12:04:01.000Z</time>
      </trkpt>
      <trkpt lat="45.57007" lon="6.56334">
        <ele>2323</ele>
        <time>2014-01-31T12:04:02.000Z</time>
      </trkpt>
      <trkpt lat="45.57007" lon="6.56334">
        <ele>2323</ele>
        <time>2014-01-31T12:04:05.000Z</time>
      </trkpt>
      <trkpt lat="45.57007" lon="6.56334">
        <ele>2323</ele>
        <time>2014-01-31T12:04:06.000Z</time>
      </trkpt>
      <trkpt lat="45.57007" lon="6.56334">
        <ele>2323</ele>
        <time>2014-01-31T12:04:09.000Z</time>
      </trkpt>
      <trkpt lat="45.57007" lon="6.56334">
        <ele>2323</ele>
        <time>2014-01-31T12:04:10.000Z</time>
      </trkpt>
      <trkpt lat="45.57007" lon="6.56334">
        <ele>2323</ele>
        <time>2014-01-31T12:04:11.000Z</time>
      </trkpt>
      <trkpt lat="45.57007" lon="6.56334">
        <ele>2323</ele>
        <time>2014-01-31T12:04:12.000Z</time>
      </trkpt>
      <trkpt lat="45.57007" lon="6.56334">
        <ele>2323</ele>
        <time>2014-01-31T12:04:13.000Z</time>
      </trkpt>
      <trkpt lat="45.57007" lon="6.56334">
        <ele>2322.8000488281</ele>
        <time>2014-01-31T12:04:14.000Z</time>
      </trkpt>
      <trkpt lat="45.57007" lon="6.56334">
        <ele>2323</ele>
        <time>2014-01-31T12:04:18.000Z</time>
      </trkpt>
      <trkpt lat="45.57007" lon="6.56334">
        <ele>2323</ele>
        <time>2014-01-31T12:04:21.000Z</time>
      </trkpt>
      <trkpt lat="45.57007" lon="6.56334">
        <ele>2323</ele>
        <time>2014-01-31T12:04:22.000Z</time>
      </trkpt>
      <trkpt lat="45.57007" lon="6.56334">
        <ele>2323</ele>
        <time>2014-01-31T12:04:23.000Z</time>
      </trkpt>
      <trkpt lat="45.57007" lon="6.56334">
        <ele>2323</ele>
        <time>2014-01-31T12:04:24.000Z</time>
      </trkpt>
      <trkpt lat="45.57007" lon="6.56334">
        <ele>2323</ele>
        <time>2014-01-31T12:04:26.000Z</time>
      </trkpt>
      <trkpt lat="45.57007" lon="6.56334">
        <ele>2323</ele>
        <time>2014-01-31T12:04:27.000Z</time>
      </trkpt>
      <trkpt lat="45.57007" lon="6.56334">
        <ele>2323</ele>
        <time>2014-01-31T12:04:28.000Z</time>
      </trkpt>
      <trkpt lat="45.57007" lon="6.56334">
        <ele>2323</ele>
        <time>2014-01-31T12:04:30.000Z</time>
      </trkpt>
      <trkpt lat="45.57007" lon="6.56334">
        <ele>2323</ele>
        <time>2014-01-31T12:04:33.000Z</time>
      </trkpt>
      <trkpt lat="45.57007" lon="6.56334">
        <ele>2322.8000488281</ele>
        <time>2014-01-31T12:04:34.000Z</time>
      </trkpt>
      <trkpt lat="45.57007" lon="6.56334">
        <ele>2322.8000488281</ele>
        <time>2014-01-31T12:04:35.000Z</time>
      </trkpt>
      <trkpt lat="45.57007" lon="6.56334">
        <ele>2322.8000488281</ele>
        <time>2014-01-31T12:04:36.000Z</time>
      </trkpt>
      <trkpt lat="45.57007" lon="6.56334">
        <ele>2322.8000488281</ele>
        <time>2014-01-31T12:04:37.000Z</time>
      </trkpt>
      <trkpt lat="45.57007" lon="6.56334">
        <ele>2322.8000488281</ele>
        <time>2014-01-31T12:04:39.000Z</time>
      </trkpt>
      <trkpt lat="45.57007" lon="6.56334">
        <ele>2322.8000488281</ele>
        <time>2014-01-31T12:04:40.000Z</time>
      </trkpt>
      <trkpt lat="45.57007" lon="6.56334">
        <ele>2323</ele>
        <time>2014-01-31T12:04:41.000Z</time>
      </trkpt>
      <trkpt lat="45.57007" lon="6.56334">
        <ele>2323</ele>
        <time>2014-01-31T12:04:42.000Z</time>
      </trkpt>
      <trkpt lat="45.57007" lon="6.56334">
        <ele>2323</ele>
        <time>2014-01-31T12:04:43.000Z</time>
      </trkpt>
      <trkpt lat="45.57007" lon="6.56334">
        <ele>2323</ele>
        <time>2014-01-31T12:04:44.000Z</time>
      </trkpt>
      <trkpt lat="45.57007" lon="6.56334">
        <ele>2323</ele>
        <time>2014-01-31T12:04:46.000Z</time>
      </trkpt>
      <trkpt lat="45.57007" lon="6.56334">
        <ele>2323</ele>
        <time>2014-01-31T12:04:47.000Z</time>
      </trkpt>
      <trkpt lat="45.57007" lon="6.56334">
        <ele>2323</ele>
        <time>2014-01-31T12:04:48.000Z</time>
      </trkpt>
      <trkpt lat="45.57007" lon="6.56334">
        <ele>2323</ele>
        <time>2014-01-31T12:04:49.000Z</time>
      </trkpt>
      <trkpt lat="45.57007" lon="6.56334">
        <ele>2323</ele>
        <time>2014-01-31T12:04:51.000Z</time>
      </trkpt>
      <trkpt lat="45.57007" lon="6.56334">
        <ele>2323</ele>
        <time>2014-01-31T12:04:57.000Z</time>
      </trkpt>
      <trkpt lat="45.57007" lon="6.56335">
        <ele>2322.8000488281</ele>
        <time>2014-01-31T12:05:00.000Z</time>
      </trkpt>
      <trkpt lat="45.57007" lon="6.56335">
        <ele>2322.8000488281</ele>
        <time>2014-01-31T12:05:01.000Z</time>
      </trkpt>
      <trkpt lat="45.57007" lon="6.56335">
        <ele>2322.8000488281</ele>
        <time>2014-01-31T12:05:02.000Z</time>
      </trkpt>
      <trkpt lat="45.57007" lon="6.56335">
        <ele>2322.8000488281</ele>
        <time>2014-01-31T12:05:03.000Z</time>
      </trkpt>
      <trkpt lat="45.57007" lon="6.56335">
        <ele>2322.8000488281</ele>
        <time>2014-01-31T12:05:04.000Z</time>
      </trkpt>
      <trkpt lat="45.57007" lon="6.56335">
        <ele>2322.8000488281</ele>
        <time>2014-01-31T12:05:05.000Z</time>
      </trkpt>
      <trkpt lat="45.57007" lon="6.56335">
        <ele>2322.8000488281</ele>
        <time>2014-01-31T12:05:06.000Z</time>
      </trkpt>
      <trkpt lat="45.57007" lon="6.56335">
        <ele>2322.8000488281</ele>
        <time>2014-01-31T12:05:07.000Z</time>
      </trkpt>
      <trkpt lat="45.57007" lon="6.56335">
        <ele>2322.8000488281</ele>
        <time>2014-01-31T12:05:08.000Z</time>
      </trkpt>
      <trkpt lat="45.57007" lon="6.56335">
        <ele>2323</ele>
        <time>2014-01-31T12:05:09.000Z</time>
      </trkpt>
      <trkpt lat="45.57007" lon="6.56335">
        <ele>2323</ele>
        <time>2014-01-31T12:05:10.000Z</time>
      </trkpt>
      <trkpt lat="45.57007" lon="6.56335">
        <ele>2323</ele>
        <time>2014-01-31T12:05:14.000Z</time>
      </trkpt>
      <trkpt lat="45.57007" lon="6.56335">
        <ele>2323</ele>
        <time>2014-01-31T12:05:15.000Z</time>
      </trkpt>
      <trkpt lat="45.57007" lon="6.56335">
        <ele>2322.8000488281</ele>
        <time>2014-01-31T12:05:16.000Z</time>
      </trkpt>
      <trkpt lat="45.57007" lon="6.56335">
        <ele>2322.8000488281</ele>
        <time>2014-01-31T12:05:17.000Z</time>
      </trkpt>
      <trkpt lat="45.57007" lon="6.56335">
        <ele>2322.8000488281</ele>
        <time>2014-01-31T12:05:18.000Z</time>
      </trkpt>
      <trkpt lat="45.57007" lon="6.56335">
        <ele>2322.8000488281</ele>
        <time>2014-01-31T12:05:19.000Z</time>
      </trkpt>
      <trkpt lat="45.57007" lon="6.56335">
        <ele>2322.8000488281</ele>
        <time>2014-01-31T12:05:20.000Z</time>
      </trkpt>
      <trkpt lat="45.57007" lon="6.56335">
        <ele>2322.8000488281</ele>
        <time>2014-01-31T12:05:21.000Z</time>
      </trkpt>
      <trkpt lat="45.57007" lon="6.56335">
        <ele>2322.8000488281</ele>
        <time>2014-01-31T12:05:22.000Z</time>
      </trkpt>
      <trkpt lat="45.57007" lon="6.56335">
        <ele>2322.6000976562</ele>
        <time>2014-01-31T12:05:23.000Z</time>
      </trkpt>
      <trkpt lat="45.57007" lon="6.56335">
        <ele>2322.6000976562</ele>
        <time>2014-01-31T12:05:24.000Z</time>
      </trkpt>
      <trkpt lat="45.57007" lon="6.56335">
        <ele>2322.3999023438</ele>
        <time>2014-01-31T12:05:25.000Z</time>
      </trkpt>
      <trkpt lat="45.57007" lon="6.56335">
        <ele>2322.3999023438</ele>
        <time>2014-01-31T12:05:26.000Z</time>
      </trkpt>
      <trkpt lat="45.57007" lon="6.56335">
        <ele>2322.3999023438</ele>
        <time>2014-01-31T12:05:27.000Z</time>
      </trkpt>
      <trkpt lat="45.57007" lon="6.56335">
        <ele>2322.3999023438</ele>
        <time>2014-01-31T12:05:28.000Z</time>
      </trkpt>
      <trkpt lat="45.57007" lon="6.56335">
        <ele>2322.3999023438</ele>
        <time>2014-01-31T12:05:29.000Z</time>
      </trkpt>
      <trkpt lat="45.57007" lon="6.56335">
        <ele>2322.6000976562</ele>
        <time>2014-01-31T12:05:30.000Z</time>
      </trkpt>
      <trkpt lat="45.57007" lon="6.56335">
        <ele>2322.8000488281</ele>
        <time>2014-01-31T12:05:31.000Z</time>
      </trkpt>
      <trkpt lat="45.57007" lon="6.56335">
        <ele>2323</ele>
        <time>2014-01-31T12:05:32.000Z</time>
      </trkpt>
      <trkpt lat="45.57007" lon="6.56335">
        <ele>2323.1999511719</ele>
        <time>2014-01-31T12:05:33.000Z</time>
      </trkpt>
      <trkpt lat="45.57007" lon="6.56335">
        <ele>2323.1999511719</ele>
        <time>2014-01-31T12:05:34.000Z</time>
      </trkpt>
      <trkpt lat="45.57007" lon="6.56335">
        <ele>2323.1999511719</ele>
        <time>2014-01-31T12:05:35.000Z</time>
      </trkpt>
      <trkpt lat="45.57007" lon="6.56335">
        <ele>2323.1999511719</ele>
        <time>2014-01-31T12:05:36.000Z</time>
      </trkpt>
      <trkpt lat="45.57007" lon="6.56335">
        <ele>2323.3999023438</ele>
        <time>2014-01-31T12:05:37.000Z</time>
      </trkpt>
      <trkpt lat="45.57007" lon="6.56335">
        <ele>2323.1999511719</ele>
        <time>2014-01-31T12:05:38.000Z</time>
      </trkpt>
      <trkpt lat="45.57007" lon="6.56335">
        <ele>2323.1999511719</ele>
        <time>2014-01-31T12:05:39.000Z</time>
      </trkpt>
      <trkpt lat="45.57007" lon="6.56335">
        <ele>2323.1999511719</ele>
        <time>2014-01-31T12:05:40.000Z</time>
      </trkpt>
      <trkpt lat="45.57007" lon="6.56335">
        <ele>2323.1999511719</ele>
        <time>2014-01-31T12:05:41.000Z</time>
      </trkpt>
      <trkpt lat="45.57007" lon="6.56335">
        <ele>2323.1999511719</ele>
        <time>2014-01-31T12:05:42.000Z</time>
      </trkpt>
      <trkpt lat="45.57007" lon="6.56335">
        <ele>2323.1999511719</ele>
        <time>2014-01-31T12:05:43.000Z</time>
      </trkpt>
      <trkpt lat="45.57007" lon="6.56335">
        <ele>2323.1999511719</ele>
        <time>2014-01-31T12:05:44.000Z</time>
      </trkpt>
      <trkpt lat="45.57007" lon="6.56335">
        <ele>2323</ele>
        <time>2014-01-31T12:05:45.000Z</time>
      </trkpt>
      <trkpt lat="45.57007" lon="6.56335">
        <ele>2323</ele>
        <time>2014-01-31T12:05:46.000Z</time>
      </trkpt>
      <trkpt lat="45.57007" lon="6.56335">
        <ele>2323</ele>
        <time>2014-01-31T12:05:47.000Z</time>
      </trkpt>
      <trkpt lat="45.57007" lon="6.56335">
        <ele>2323</ele>
        <time>2014-01-31T12:05:48.000Z</time>
      </trkpt>
      <trkpt lat="45.57007" lon="6.56335">
        <ele>2323</ele>
        <time>2014-01-31T12:05:49.000Z</time>
      </trkpt>
      <trkpt lat="45.57007" lon="6.56335">
        <ele>2323</ele>
        <time>2014-01-31T12:05:50.000Z</time>
      </trkpt>
      <trkpt lat="45.57007" lon="6.56335">
        <ele>2323</ele>
        <time>2014-01-31T12:05:51.000Z</time>
      </trkpt>
      <trkpt lat="45.57007" lon="6.56335">
        <ele>2323</ele>
        <time>2014-01-31T12:05:52.000Z</time>
      </trkpt>
      <trkpt lat="45.57007" lon="6.56335">
        <ele>2323.1999511719</ele>
        <time>2014-01-31T12:05:53.000Z</time>
      </trkpt>
      <trkpt lat="45.57007" lon="6.56335">
        <ele>2323.1999511719</ele>
        <time>2014-01-31T12:05:54.000Z</time>
      </trkpt>
      <trkpt lat="45.57007" lon="6.56335">
        <ele>2323.1999511719</ele>
        <time>2014-01-31T12:05:55.000Z</time>
      </trkpt>
      <trkpt lat="45.57007" lon="6.56335">
        <ele>2323.1999511719</ele>
        <time>2014-01-31T12:05:56.000Z</time>
      </trkpt>
      <trkpt lat="45.57007" lon="6.56335">
        <ele>2323.1999511719</ele>
        <time>2014-01-31T12:05:57.000Z</time>
      </trkpt>
      <trkpt lat="45.57008" lon="6.56335">
        <ele>2323.3999023438</ele>
        <time>2014-01-31T12:05:58.000Z</time>
      </trkpt>
      <trkpt lat="45.57008" lon="6.56335">
        <ele>2323.3999023438</ele>
        <time>2014-01-31T12:05:59.000Z</time>
      </trkpt>
      <trkpt lat="45.57008" lon="6.56335">
        <ele>2323.3999023438</ele>
        <time>2014-01-31T12:06:00.000Z</time>
      </trkpt>
      <trkpt lat="45.57008" lon="6.56335">
        <ele>2323.6000976562</ele>
        <time>2014-01-31T12:06:01.000Z</time>
      </trkpt>
      <trkpt lat="45.57008" lon="6.56335">
        <ele>2323.6000976562</ele>
        <time>2014-01-31T12:06:02.000Z</time>
      </trkpt>
      <trkpt lat="45.57008" lon="6.56335">
        <ele>2323.6000976562</ele>
        <time>2014-01-31T12:06:04.000Z</time>
      </trkpt>
      <trkpt lat="45.57008" lon="6.56335">
        <ele>2323.3999023438</ele>
        <time>2014-01-31T12:06:05.000Z</time>
      </trkpt>
      <trkpt lat="45.57008" lon="6.56335">
        <ele>2323.1999511719</ele>
        <time>2014-01-31T12:06:06.000Z</time>
      </trkpt>
      <trkpt lat="45.57008" lon="6.56335">
        <ele>2323.1999511719</ele>
        <time>2014-01-31T12:06:07.000Z</time>
      </trkpt>
      <trkpt lat="45.57008" lon="6.56335">
        <ele>2323</ele>
        <time>2014-01-31T12:06:08.000Z</time>
      </trkpt>
      <trkpt lat="45.57008" lon="6.56335">
        <ele>2323</ele>
        <time>2014-01-31T12:06:09.000Z</time>
      </trkpt>
      <trkpt lat="45.57008" lon="6.56335">
        <ele>2323</ele>
        <time>2014-01-31T12:06:12.000Z</time>
      </trkpt>
      <trkpt lat="45.57008" lon="6.56335">
        <ele>2322.8000488281</ele>
        <time>2014-01-31T12:06:13.000Z</time>
      </trkpt>
      <trkpt lat="45.57008" lon="6.56335">
        <ele>2322.8000488281</ele>
        <time>2014-01-31T12:06:14.000Z</time>
      </trkpt>
      <trkpt lat="45.57008" lon="6.56335">
        <ele>2322.6000976562</ele>
        <time>2014-01-31T12:06:15.000Z</time>
      </trkpt>
      <trkpt lat="45.57008" lon="6.56335">
        <ele>2322.6000976562</ele>
        <time>2014-01-31T12:06:16.000Z</time>
      </trkpt>
      <trkpt lat="45.57008" lon="6.56335">
        <ele>2322.8000488281</ele>
        <time>2014-01-31T12:06:17.000Z</time>
      </trkpt>
      <trkpt lat="45.57008" lon="6.56335">
        <ele>2323</ele>
        <time>2014-01-31T12:06:18.000Z</time>
      </trkpt>
      <trkpt lat="45.57008" lon="6.56335">
        <ele>2323</ele>
        <time>2014-01-31T12:06:19.000Z</time>
      </trkpt>
      <trkpt lat="45.57008" lon="6.56335">
        <ele>2323.1999511719</ele>
        <time>2014-01-31T12:06:20.000Z</time>
      </trkpt>
      <trkpt lat="45.57008" lon="6.56335">
        <ele>2323.1999511719</ele>
        <time>2014-01-31T12:06:21.000Z</time>
      </trkpt>
      <trkpt lat="45.57008" lon="6.56335">
        <ele>2323.1999511719</ele>
        <time>2014-01-31T12:06:22.000Z</time>
      </trkpt>
      <trkpt lat="45.57008" lon="6.56335">
        <ele>2323.1999511719</ele>
        <time>2014-01-31T12:06:23.000Z</time>
      </trkpt>
      <trkpt lat="45.57008" lon="6.56335">
        <ele>2323.1999511719</ele>
        <time>2014-01-31T12:06:24.000Z</time>
      </trkpt>
      <trkpt lat="45.57008" lon="6.56335">
        <ele>2323.1999511719</ele>
        <time>2014-01-31T12:06:27.000Z</time>
      </trkpt>
      <trkpt lat="45.57008" lon="6.56335">
        <ele>2323</ele>
        <time>2014-01-31T12:06:28.000Z</time>
      </trkpt>
      <trkpt lat="45.57008" lon="6.56335">
        <ele>2323</ele>
        <time>2014-01-31T12:06:29.000Z</time>
      </trkpt>
      <trkpt lat="45.57008" lon="6.56335">
        <ele>2323</ele>
        <time>2014-01-31T12:06:30.000Z</time>
      </trkpt>
      <trkpt lat="45.57008" lon="6.56335">
        <ele>2323</ele>
        <time>2014-01-31T12:06:31.000Z</time>
      </trkpt>
      <trkpt lat="45.57008" lon="6.56335">
        <ele>2323.1999511719</ele>
        <time>2014-01-31T12:06:32.000Z</time>
      </trkpt>
      <trkpt lat="45.57008" lon="6.56335">
        <ele>2323.1999511719</ele>
        <time>2014-01-31T12:06:33.000Z</time>
      </trkpt>
      <trkpt lat="45.57008" lon="6.56335">
        <ele>2323.1999511719</ele>
        <time>2014-01-31T12:06:34.000Z</time>
      </trkpt>
      <trkpt lat="45.57008" lon="6.56335">
        <ele>2323.1999511719</ele>
        <time>2014-01-31T12:06:35.000Z</time>
      </trkpt>
      <trkpt lat="45.57008" lon="6.56335">
        <ele>2323.1999511719</ele>
        <time>2014-01-31T12:06:36.000Z</time>
      </trkpt>
      <trkpt lat="45.57008" lon="6.56335">
        <ele>2323.1999511719</ele>
        <time>2014-01-31T12:06:38.000Z</time>
      </trkpt>
      <trkpt lat="45.57008" lon="6.56335">
        <ele>2323.3999023438</ele>
        <time>2014-01-31T12:06:39.000Z</time>
      </trkpt>
      <trkpt lat="45.57008" lon="6.56335">
        <ele>2323.3999023438</ele>
        <time>2014-01-31T12:06:40.000Z</time>
      </trkpt>
      <trkpt lat="45.57008" lon="6.56335">
        <ele>2323.3999023438</ele>
        <time>2014-01-31T12:06:41.000Z</time>
      </trkpt>
      <trkpt lat="45.57008" lon="6.56335">
        <ele>2323.3999023438</ele>
        <time>2014-01-31T12:06:42.000Z</time>
      </trkpt>
      <trkpt lat="45.57008" lon="6.56335">
        <ele>2323.6000976562</ele>
        <time>2014-01-31T12:06:43.000Z</time>
      </trkpt>
      <trkpt lat="45.57008" lon="6.56335">
        <ele>2323.3999023438</ele>
        <time>2014-01-31T12:06:45.000Z</time>
      </trkpt>
      <trkpt lat="45.57008" lon="6.56335">
        <ele>2323.3999023438</ele>
        <time>2014-01-31T12:06:46.000Z</time>
      </trkpt>
      <trkpt lat="45.57008" lon="6.56335">
        <ele>2323.3999023438</ele>
        <time>2014-01-31T12:06:47.000Z</time>
      </trkpt>
      <trkpt lat="45.57008" lon="6.56335">
        <ele>2323.3999023438</ele>
        <time>2014-01-31T12:06:48.000Z</time>
      </trkpt>
      <trkpt lat="45.57008" lon="6.56335">
        <ele>2323.3999023438</ele>
        <time>2014-01-31T12:06:49.000Z</time>
      </trkpt>
      <trkpt lat="45.57008" lon="6.56335">
        <ele>2323.1999511719</ele>
        <time>2014-01-31T12:06:50.000Z</time>
      </trkpt>
      <trkpt lat="45.57008" lon="6.56335">
        <ele>2323.3999023438</ele>
        <time>2014-01-31T12:06:52.000Z</time>
      </trkpt>
      <trkpt lat="45.57008" lon="6.56335">
        <ele>2323.3999023438</ele>
        <time>2014-01-31T12:06:53.000Z</time>
      </trkpt>
      <trkpt lat="45.57008" lon="6.56335">
        <ele>2323.6000976562</ele>
        <time>2014-01-31T12:06:54.000Z</time>
      </trkpt>
      <trkpt lat="45.57008" lon="6.56335">
        <ele>2323.6000976562</ele>
        <time>2014-01-31T12:06:55.000Z</time>
      </trkpt>
      <trkpt lat="45.57008" lon="6.56335">
        <ele>2323.6000976562</ele>
        <time>2014-01-31T12:06:56.000Z</time>
      </trkpt>
      <trkpt lat="45.57008" lon="6.56335">
        <ele>2323.6000976562</ele>
        <time>2014-01-31T12:06:57.000Z</time>
      </trkpt>
      <trkpt lat="45.57008" lon="6.56335">
        <ele>2323.8000488281</ele>
        <time>2014-01-31T12:06:58.000Z</time>
      </trkpt>
      <trkpt lat="45.57008" lon="6.56335">
        <ele>2323.8000488281</ele>
        <time>2014-01-31T12:06:59.000Z</time>
      </trkpt>
      <trkpt lat="45.57008" lon="6.56335">
        <ele>2323.8000488281</ele>
        <time>2014-01-31T12:07:00.000Z</time>
      </trkpt>
      <trkpt lat="45.57008" lon="6.56335">
        <ele>2323.8000488281</ele>
        <time>2014-01-31T12:07:02.000Z</time>
      </trkpt>
      <trkpt lat="45.57008" lon="6.56335">
        <ele>2323.6000976562</ele>
        <time>2014-01-31T12:07:03.000Z</time>
      </trkpt>
      <trkpt lat="45.57008" lon="6.56335">
        <ele>2323.6000976562</ele>
        <time>2014-01-31T12:07:04.000Z</time>
      </trkpt>
      <trkpt lat="45.57008" lon="6.56335">
        <ele>2323.6000976562</ele>
        <time>2014-01-31T12:07:05.000Z</time>
      </trkpt>
      <trkpt lat="45.57008" lon="6.56335">
        <ele>2323.6000976562</ele>
        <time>2014-01-31T12:07:06.000Z</time>
      </trkpt>
      <trkpt lat="45.57008" lon="6.56335">
        <ele>2323.6000976562</ele>
        <time>2014-01-31T12:07:07.000Z</time>
      </trkpt>
      <trkpt lat="45.57008" lon="6.56335">
        <ele>2323.3999023438</ele>
        <time>2014-01-31T12:07:08.000Z</time>
      </trkpt>
      <trkpt lat="45.57008" lon="6.56335">
        <ele>2323.1999511719</ele>
        <time>2014-01-31T12:07:09.000Z</time>
      </trkpt>
      <trkpt lat="45.57008" lon="6.56335">
        <ele>2323.1999511719</ele>
        <time>2014-01-31T12:07:10.000Z</time>
      </trkpt>
      <trkpt lat="45.57008" lon="6.56335">
        <ele>2323.1999511719</ele>
        <time>2014-01-31T12:07:11.000Z</time>
      </trkpt>
      <trkpt lat="45.57008" lon="6.56335">
        <ele>2323.1999511719</ele>
        <time>2014-01-31T12:07:12.000Z</time>
      </trkpt>
      <trkpt lat="45.57008" lon="6.56335">
        <ele>2323.3999023438</ele>
        <time>2014-01-31T12:07:13.000Z</time>
      </trkpt>
      <trkpt lat="45.57008" lon="6.56335">
        <ele>2323.6000976562</ele>
        <time>2014-01-31T12:07:14.000Z</time>
      </trkpt>
      <trkpt lat="45.57008" lon="6.56335">
        <ele>2323.6000976562</ele>
        <time>2014-01-31T12:07:15.000Z</time>
      </trkpt>
      <trkpt lat="45.57008" lon="6.56335">
        <ele>2323.8000488281</ele>
        <time>2014-01-31T12:07:16.000Z</time>
      </trkpt>
      <trkpt lat="45.57008" lon="6.56335">
        <ele>2323.8000488281</ele>
        <time>2014-01-31T12:07:17.000Z</time>
      </trkpt>
      <trkpt lat="45.57007" lon="6.56335">
        <ele>2323.6000976562</ele>
        <time>2014-01-31T12:07:18.000Z</time>
      </trkpt>
      <trkpt lat="45.57007" lon="6.56335">
        <ele>2323.3999023438</ele>
        <time>2014-01-31T12:07:19.000Z</time>
      </trkpt>
      <trkpt lat="45.57007" lon="6.56335">
        <ele>2323.3999023438</ele>
        <time>2014-01-31T12:07:20.000Z</time>
      </trkpt>
      <trkpt lat="45.57007" lon="6.56335">
        <ele>2323.3999023438</ele>
        <time>2014-01-31T12:07:21.000Z</time>
      </trkpt>
      <trkpt lat="45.57007" lon="6.56335">
        <ele>2323.3999023438</ele>
        <time>2014-01-31T12:07:22.000Z</time>
      </trkpt>
      <trkpt lat="45.57007" lon="6.56335">
        <ele>2323.3999023438</ele>
        <time>2014-01-31T12:07:24.000Z</time>
      </trkpt>
      <trkpt lat="45.57007" lon="6.56335">
        <ele>2323.1999511719</ele>
        <time>2014-01-31T12:07:25.000Z</time>
      </trkpt>
      <trkpt lat="45.57007" lon="6.56335">
        <ele>2323.1999511719</ele>
        <time>2014-01-31T12:07:26.000Z</time>
      </trkpt>
      <trkpt lat="45.57007" lon="6.56335">
        <ele>2323.1999511719</ele>
        <time>2014-01-31T12:07:27.000Z</time>
      </trkpt>
      <trkpt lat="45.57007" lon="6.56335">
        <ele>2323.1999511719</ele>
        <time>2014-01-31T12:07:28.000Z</time>
      </trkpt>
      <trkpt lat="45.57007" lon="6.56335">
        <ele>2323</ele>
        <time>2014-01-31T12:07:29.000Z</time>
      </trkpt>
      <trkpt lat="45.57007" lon="6.56335">
        <ele>2323</ele>
        <time>2014-01-31T12:07:30.000Z</time>
      </trkpt>
      <trkpt lat="45.57007" lon="6.56335">
        <ele>2323</ele>
        <time>2014-01-31T12:07:31.000Z</time>
      </trkpt>
      <trkpt lat="45.57007" lon="6.56335">
        <ele>2323</ele>
        <time>2014-01-31T12:07:33.000Z</time>
      </trkpt>
      <trkpt lat="45.57007" lon="6.56335">
        <ele>2323.1999511719</ele>
        <time>2014-01-31T12:07:34.000Z</time>
      </trkpt>
      <trkpt lat="45.57007" lon="6.56335">
        <ele>2323.1999511719</ele>
        <time>2014-01-31T12:07:35.000Z</time>
      </trkpt>
      <trkpt lat="45.57007" lon="6.56335">
        <ele>2323.1999511719</ele>
        <time>2014-01-31T12:07:36.000Z</time>
      </trkpt>
      <trkpt lat="45.57007" lon="6.56335">
        <ele>2323.1999511719</ele>
        <time>2014-01-31T12:07:38.000Z</time>
      </trkpt>
      <trkpt lat="45.57007" lon="6.56335">
        <ele>2323.1999511719</ele>
        <time>2014-01-31T12:07:39.000Z</time>
      </trkpt>
      <trkpt lat="45.57007" lon="6.56335">
        <ele>2323.1999511719</ele>
        <time>2014-01-31T12:07:40.000Z</time>
      </trkpt>
      <trkpt lat="45.57007" lon="6.56335">
        <ele>2323.1999511719</ele>
        <time>2014-01-31T12:07:43.000Z</time>
      </trkpt>
      <trkpt lat="45.57007" lon="6.56335">
        <ele>2323.1999511719</ele>
        <time>2014-01-31T12:07:44.000Z</time>
      </trkpt>
      <trkpt lat="45.57007" lon="6.56335">
        <ele>2323.1999511719</ele>
        <time>2014-01-31T12:07:45.000Z</time>
      </trkpt>
      <trkpt lat="45.57007" lon="6.56335">
        <ele>2323.1999511719</ele>
        <time>2014-01-31T12:07:47.000Z</time>
      </trkpt>
      <trkpt lat="45.57007" lon="6.56335">
        <ele>2323.1999511719</ele>
        <time>2014-01-31T12:07:48.000Z</time>
      </trkpt>
      <trkpt lat="45.57007" lon="6.56335">
        <ele>2323.1999511719</ele>
        <time>2014-01-31T12:07:49.000Z</time>
      </trkpt>
      <trkpt lat="45.57007" lon="6.56335">
        <ele>2323.1999511719</ele>
        <time>2014-01-31T12:07:50.000Z</time>
      </trkpt>
      <trkpt lat="45.57007" lon="6.56335">
        <ele>2323.1999511719</ele>
        <time>2014-01-31T12:07:51.000Z</time>
      </trkpt>
      <trkpt lat="45.57007" lon="6.56335">
        <ele>2323.1999511719</ele>
        <time>2014-01-31T12:07:52.000Z</time>
      </trkpt>
      <trkpt lat="45.57007" lon="6.56335">
        <ele>2323</ele>
        <time>2014-01-31T12:07:53.000Z</time>
      </trkpt>
      <trkpt lat="45.57007" lon="6.56335">
        <ele>2323</ele>
        <time>2014-01-31T12:07:54.000Z</time>
      </trkpt>
      <trkpt lat="45.57007" lon="6.56335">
        <ele>2323</ele>
        <time>2014-01-31T12:07:55.000Z</time>
      </trkpt>
      <trkpt lat="45.57007" lon="6.56335">
        <ele>2323</ele>
        <time>2014-01-31T12:07:56.000Z</time>
      </trkpt>
      <trkpt lat="45.57007" lon="6.56335">
        <ele>2323</ele>
        <time>2014-01-31T12:08:00.000Z</time>
      </trkpt>
      <trkpt lat="45.57007" lon="6.56335">
        <ele>2323</ele>
        <time>2014-01-31T12:08:01.000Z</time>
      </trkpt>
      <trkpt lat="45.57007" lon="6.56335">
        <ele>2323</ele>
        <time>2014-01-31T12:08:05.000Z</time>
      </trkpt>
      <trkpt lat="45.57007" lon="6.56335">
        <ele>2323</ele>
        <time>2014-01-31T12:08:06.000Z</time>
      </trkpt>
      <trkpt lat="45.57007" lon="6.56335">
        <ele>2323</ele>
        <time>2014-01-31T12:08:07.000Z</time>
      </trkpt>
      <trkpt lat="45.57007" lon="6.56335">
        <ele>2323</ele>
        <time>2014-01-31T12:08:08.000Z</time>
      </trkpt>
      <trkpt lat="45.57007" lon="6.56335">
        <ele>2323</ele>
        <time>2014-01-31T12:08:09.000Z</time>
      </trkpt>
      <trkpt lat="45.57007" lon="6.56335">
        <ele>2323</ele>
        <time>2014-01-31T12:08:15.000Z</time>
      </trkpt>
      <trkpt lat="45.57007" lon="6.56335">
        <ele>2323</ele>
        <time>2014-01-31T12:08:16.000Z</time>
      </trkpt>
      <trkpt lat="45.57007" lon="6.56335">
        <ele>2323</ele>
        <time>2014-01-31T12:08:17.000Z</time>
      </trkpt>
      <trkpt lat="45.57007" lon="6.56335">
        <ele>2323</ele>
        <time>2014-01-31T12:08:18.000Z</time>
      </trkpt>
      <trkpt lat="45.57007" lon="6.56335">
        <ele>2323</ele>
        <time>2014-01-31T12:08:19.000Z</time>
      </trkpt>
      <trkpt lat="45.57007" lon="6.56335">
        <ele>2323</ele>
        <time>2014-01-31T12:08:21.000Z</time>
      </trkpt>
      <trkpt lat="45.57007" lon="6.56335">
        <ele>2323</ele>
        <time>2014-01-31T12:08:22.000Z</time>
      </trkpt>
      <trkpt lat="45.57007" lon="6.56335">
        <ele>2323</ele>
        <time>2014-01-31T12:08:23.000Z</time>
      </trkpt>
      <trkpt lat="45.57007" lon="6.56335">
        <ele>2323</ele>
        <time>2014-01-31T12:08:24.000Z</time>
      </trkpt>
      <trkpt lat="45.57007" lon="6.56335">
        <ele>2323</ele>
        <time>2014-01-31T12:08:26.000Z</time>
      </trkpt>
      <trkpt lat="45.57007" lon="6.56335">
        <ele>2323</ele>
        <time>2014-01-31T12:08:27.000Z</time>
      </trkpt>
      <trkpt lat="45.57007" lon="6.56335">
        <ele>2323.1999511719</ele>
        <time>2014-01-31T12:08:28.000Z</time>
      </trkpt>
      <trkpt lat="45.57007" lon="6.56335">
        <ele>2323.1999511719</ele>
        <time>2014-01-31T12:08:29.000Z</time>
      </trkpt>
      <trkpt lat="45.57007" lon="6.56335">
        <ele>2323.1999511719</ele>
        <time>2014-01-31T12:08:30.000Z</time>
      </trkpt>
      <trkpt lat="45.57007" lon="6.56335">
        <ele>2323.3999023438</ele>
        <time>2014-01-31T12:08:31.000Z</time>
      </trkpt>
      <trkpt lat="45.57007" lon="6.56335">
        <ele>2323.3999023438</ele>
        <time>2014-01-31T12:08:32.000Z</time>
      </trkpt>
      <trkpt lat="45.57007" lon="6.56335">
        <ele>2323.3999023438</ele>
        <time>2014-01-31T12:08:33.000Z</time>
      </trkpt>
      <trkpt lat="45.57007" lon="6.56335">
        <ele>2323.3999023438</ele>
        <time>2014-01-31T12:08:34.000Z</time>
      </trkpt>
      <trkpt lat="45.57007" lon="6.56335">
        <ele>2323.3999023438</ele>
        <time>2014-01-31T12:08:35.000Z</time>
      </trkpt>
      <trkpt lat="45.57007" lon="6.56335">
        <ele>2323.6000976562</ele>
        <time>2014-01-31T12:08:36.000Z</time>
      </trkpt>
      <trkpt lat="45.57007" lon="6.56335">
        <ele>2323.6000976562</ele>
        <time>2014-01-31T12:08:37.000Z</time>
      </trkpt>
      <trkpt lat="45.57007" lon="6.56335">
        <ele>2323.3999023438</ele>
        <time>2014-01-31T12:08:39.000Z</time>
      </trkpt>
      <trkpt lat="45.57007" lon="6.56335">
        <ele>2323.1999511719</ele>
        <time>2014-01-31T12:08:40.000Z</time>
      </trkpt>
      <trkpt lat="45.57007" lon="6.56335">
        <ele>2323.1999511719</ele>
        <time>2014-01-31T12:08:41.000Z</time>
      </trkpt>
      <trkpt lat="45.57007" lon="6.56335">
        <ele>2323</ele>
        <time>2014-01-31T12:08:42.000Z</time>
      </trkpt>
      <trkpt lat="45.57007" lon="6.56335">
        <ele>2323</ele>
        <time>2014-01-31T12:08:43.000Z</time>
      </trkpt>
      <trkpt lat="45.57007" lon="6.56335">
        <ele>2323</ele>
        <time>2014-01-31T12:08:44.000Z</time>
      </trkpt>
      <trkpt lat="45.57007" lon="6.56335">
        <ele>2323</ele>
        <time>2014-01-31T12:08:46.000Z</time>
      </trkpt>
      <trkpt lat="45.57007" lon="6.56335">
        <ele>2323</ele>
        <time>2014-01-31T12:08:47.000Z</time>
      </trkpt>
      <trkpt lat="45.57007" lon="6.56335">
        <ele>2323</ele>
        <time>2014-01-31T12:08:48.000Z</time>
      </trkpt>
      <trkpt lat="45.57007" lon="6.56335">
        <ele>2323.1999511719</ele>
        <time>2014-01-31T12:08:49.000Z</time>
      </trkpt>
      <trkpt lat="45.57007" lon="6.56335">
        <ele>2323.1999511719</ele>
        <time>2014-01-31T12:08:50.000Z</time>
      </trkpt>
      <trkpt lat="45.57007" lon="6.56335">
        <ele>2323.1999511719</ele>
        <time>2014-01-31T12:08:51.000Z</time>
      </trkpt>
      <trkpt lat="45.57007" lon="6.56335">
        <ele>2323.1999511719</ele>
        <time>2014-01-31T12:08:52.000Z</time>
      </trkpt>
      <trkpt lat="45.57007" lon="6.56335">
        <ele>2323.1999511719</ele>
        <time>2014-01-31T12:08:53.000Z</time>
      </trkpt>
      <trkpt lat="45.57007" lon="6.56335">
        <ele>2323.3999023438</ele>
        <time>2014-01-31T12:08:54.000Z</time>
      </trkpt>
      <trkpt lat="45.57007" lon="6.56335">
        <ele>2323.3999023438</ele>
        <time>2014-01-31T12:08:55.000Z</time>
      </trkpt>
      <trkpt lat="45.57007" lon="6.56335">
        <ele>2323.3999023438</ele>
        <time>2014-01-31T12:08:56.000Z</time>
      </trkpt>
      <trkpt lat="45.57007" lon="6.56335">
        <ele>2323.3999023438</ele>
        <time>2014-01-31T12:08:59.000Z</time>
      </trkpt>
      <trkpt lat="45.57007" lon="6.56335">
        <ele>2323.3999023438</ele>
        <time>2014-01-31T12:09:00.000Z</time>
      </trkpt>
      <trkpt lat="45.57007" lon="6.56335">
        <ele>2323.1999511719</ele>
        <time>2014-01-31T12:09:01.000Z</time>
      </trkpt>
      <trkpt lat="45.57007" lon="6.56335">
        <ele>2323.1999511719</ele>
        <time>2014-01-31T12:09:02.000Z</time>
      </trkpt>
      <trkpt lat="45.57007" lon="6.56335">
        <ele>2323.1999511719</ele>
        <time>2014-01-31T12:09:03.000Z</time>
      </trkpt>
      <trkpt lat="45.57007" lon="6.56335">
        <ele>2323.1999511719</ele>
        <time>2014-01-31T12:09:04.000Z</time>
      </trkpt>
      <trkpt lat="45.57007" lon="6.56335">
        <ele>2323.1999511719</ele>
        <time>2014-01-31T12:09:05.000Z</time>
      </trkpt>
      <trkpt lat="45.57007" lon="6.56335">
        <ele>2323.1999511719</ele>
        <time>2014-01-31T12:09:06.000Z</time>
      </trkpt>
      <trkpt lat="45.57007" lon="6.56335">
        <ele>2323.1999511719</ele>
        <time>2014-01-31T12:09:07.000Z</time>
      </trkpt>
      <trkpt lat="45.57007" lon="6.56335">
        <ele>2323</ele>
        <time>2014-01-31T12:09:08.000Z</time>
      </trkpt>
      <trkpt lat="45.57007" lon="6.56335">
        <ele>2323</ele>
        <time>2014-01-31T12:09:09.000Z</time>
      </trkpt>
      <trkpt lat="45.57007" lon="6.56335">
        <ele>2323</ele>
        <time>2014-01-31T12:09:10.000Z</time>
      </trkpt>
      <trkpt lat="45.57007" lon="6.56335">
        <ele>2323</ele>
        <time>2014-01-31T12:09:11.000Z</time>
      </trkpt>
      <trkpt lat="45.57007" lon="6.56335">
        <ele>2323</ele>
        <time>2014-01-31T12:09:12.000Z</time>
      </trkpt>
      <trkpt lat="45.57007" lon="6.56335">
        <ele>2323</ele>
        <time>2014-01-31T12:09:14.000Z</time>
      </trkpt>
      <trkpt lat="45.57007" lon="6.56335">
        <ele>2323</ele>
        <time>2014-01-31T12:09:15.000Z</time>
      </trkpt>
      <trkpt lat="45.57007" lon="6.56335">
        <ele>2323</ele>
        <time>2014-01-31T12:09:16.000Z</time>
      </trkpt>
      <trkpt lat="45.57007" lon="6.56335">
        <ele>2323</ele>
        <time>2014-01-31T12:09:18.000Z</time>
      </trkpt>
      <trkpt lat="45.57007" lon="6.56335">
        <ele>2323</ele>
        <time>2014-01-31T12:09:19.000Z</time>
      </trkpt>
      <trkpt lat="45.57007" lon="6.56335">
        <ele>2322.8000488281</ele>
        <time>2014-01-31T12:09:20.000Z</time>
      </trkpt>
      <trkpt lat="45.57007" lon="6.56335">
        <ele>2322.6000976562</ele>
        <time>2014-01-31T12:09:21.000Z</time>
      </trkpt>
      <trkpt lat="45.57007" lon="6.56335">
        <ele>2322.6000976562</ele>
        <time>2014-01-31T12:09:22.000Z</time>
      </trkpt>
      <trkpt lat="45.57007" lon="6.56335">
        <ele>2322.6000976562</ele>
        <time>2014-01-31T12:09:23.000Z</time>
      </trkpt>
      <trkpt lat="45.57007" lon="6.56335">
        <ele>2322.6000976562</ele>
        <time>2014-01-31T12:09:24.000Z</time>
      </trkpt>
      <trkpt lat="45.57007" lon="6.56335">
        <ele>2322.8000488281</ele>
        <time>2014-01-31T12:09:25.000Z</time>
      </trkpt>
      <trkpt lat="45.57007" lon="6.56335">
        <ele>2322.8000488281</ele>
        <time>2014-01-31T12:09:26.000Z</time>
      </trkpt>
      <trkpt lat="45.57007" lon="6.56335">
        <ele>2322.8000488281</ele>
        <time>2014-01-31T12:09:27.000Z</time>
      </trkpt>
      <trkpt lat="45.57007" lon="6.56335">
        <ele>2322.8000488281</ele>
        <time>2014-01-31T12:09:31.000Z</time>
      </trkpt>
      <trkpt lat="45.57007" lon="6.56335">
        <ele>2322.8000488281</ele>
        <time>2014-01-31T12:09:32.000Z</time>
      </trkpt>
      <trkpt lat="45.57007" lon="6.56335">
        <ele>2322.8000488281</ele>
        <time>2014-01-31T12:09:34.000Z</time>
      </trkpt>
      <trkpt lat="45.57007" lon="6.56335">
        <ele>2322.8000488281</ele>
        <time>2014-01-31T12:09:35.000Z</time>
      </trkpt>
      <trkpt lat="45.57007" lon="6.56335">
        <ele>2322.8000488281</ele>
        <time>2014-01-31T12:09:36.000Z</time>
      </trkpt>
      <trkpt lat="45.57007" lon="6.56335">
        <ele>2322.8000488281</ele>
        <time>2014-01-31T12:09:37.000Z</time>
      </trkpt>
      <trkpt lat="45.57007" lon="6.56335">
        <ele>2322.8000488281</ele>
        <time>2014-01-31T12:09:38.000Z</time>
      </trkpt>
      <trkpt lat="45.57007" lon="6.56335">
        <ele>2322.8000488281</ele>
        <time>2014-01-31T12:09:39.000Z</time>
      </trkpt>
      <trkpt lat="45.57007" lon="6.56335">
        <ele>2322.8000488281</ele>
        <time>2014-01-31T12:09:40.000Z</time>
      </trkpt>
      <trkpt lat="45.57007" lon="6.56335">
        <ele>2322.8000488281</ele>
        <time>2014-01-31T12:09:44.000Z</time>
      </trkpt>
      <trkpt lat="45.57007" lon="6.56335">
        <ele>2323</ele>
        <time>2014-01-31T12:09:45.000Z</time>
      </trkpt>
      <trkpt lat="45.57007" lon="6.56335">
        <ele>2323</ele>
        <time>2014-01-31T12:09:46.000Z</time>
      </trkpt>
      <trkpt lat="45.57007" lon="6.56335">
        <ele>2323</ele>
        <time>2014-01-31T12:09:47.000Z</time>
      </trkpt>
      <trkpt lat="45.57007" lon="6.56335">
        <ele>2322.8000488281</ele>
        <time>2014-01-31T12:09:49.000Z</time>
      </trkpt>
      <trkpt lat="45.57007" lon="6.56335">
        <ele>2322.8000488281</ele>
        <time>2014-01-31T12:09:50.000Z</time>
      </trkpt>
      <trkpt lat="45.57007" lon="6.56335">
        <ele>2322.6000976562</ele>
        <time>2014-01-31T12:09:51.000Z</time>
      </trkpt>
      <trkpt lat="45.57007" lon="6.56335">
        <ele>2322.6000976562</ele>
        <time>2014-01-31T12:09:52.000Z</time>
      </trkpt>
      <trkpt lat="45.57007" lon="6.56335">
        <ele>2322.6000976562</ele>
        <time>2014-01-31T12:09:53.000Z</time>
      </trkpt>
      <trkpt lat="45.57007" lon="6.56335">
        <ele>2322.6000976562</ele>
        <time>2014-01-31T12:09:54.000Z</time>
      </trkpt>
      <trkpt lat="45.57007" lon="6.56335">
        <ele>2322.6000976562</ele>
        <time>2014-01-31T12:09:55.000Z</time>
      </trkpt>
      <trkpt lat="45.57007" lon="6.56335">
        <ele>2322.6000976562</ele>
        <time>2014-01-31T12:09:56.000Z</time>
      </trkpt>
      <trkpt lat="45.57007" lon="6.56335">
        <ele>2322.6000976562</ele>
        <time>2014-01-31T12:09:57.000Z</time>
      </trkpt>
      <trkpt lat="45.57007" lon="6.56335">
        <ele>2322.6000976562</ele>
        <time>2014-01-31T12:09:58.000Z</time>
      </trkpt>
      <trkpt lat="45.57007" lon="6.56335">
        <ele>2322.6000976562</ele>
        <time>2014-01-31T12:09:59.000Z</time>
      </trkpt>
      <trkpt lat="45.57007" lon="6.56335">
        <ele>2322.6000976562</ele>
        <time>2014-01-31T12:10:00.000Z</time>
      </trkpt>
      <trkpt lat="45.57007" lon="6.56335">
        <ele>2322.6000976562</ele>
        <time>2014-01-31T12:10:01.000Z</time>
      </trkpt>
      <trkpt lat="45.57007" lon="6.56335">
        <ele>2322.6000976562</ele>
        <time>2014-01-31T12:10:05.000Z</time>
      </trkpt>
      <trkpt lat="45.57007" lon="6.56335">
        <ele>2322.6000976562</ele>
        <time>2014-01-31T12:10:08.000Z</time>
      </trkpt>
      <trkpt lat="45.57007" lon="6.56335">
        <ele>2322.6000976562</ele>
        <time>2014-01-31T12:10:11.000Z</time>
      </trkpt>
      <trkpt lat="45.57007" lon="6.56335">
        <ele>2322.6000976562</ele>
        <time>2014-01-31T12:10:14.000Z</time>
      </trkpt>
      <trkpt lat="45.57007" lon="6.56335">
        <ele>2322.6000976562</ele>
        <time>2014-01-31T12:10:15.000Z</time>
      </trkpt>
      <trkpt lat="45.57007" lon="6.56335">
        <ele>2322.8000488281</ele>
        <time>2014-01-31T12:10:16.000Z</time>
      </trkpt>
      <trkpt lat="45.57007" lon="6.56335">
        <ele>2322.8000488281</ele>
        <time>2014-01-31T12:10:17.000Z</time>
      </trkpt>
      <trkpt lat="45.57007" lon="6.56335">
        <ele>2322.8000488281</ele>
        <time>2014-01-31T12:10:18.000Z</time>
      </trkpt>
      <trkpt lat="45.57007" lon="6.56335">
        <ele>2322.8000488281</ele>
        <time>2014-01-31T12:10:19.000Z</time>
      </trkpt>
      <trkpt lat="45.57007" lon="6.56335">
        <ele>2322.8000488281</ele>
        <time>2014-01-31T12:10:20.000Z</time>
      </trkpt>
      <trkpt lat="45.57007" lon="6.56335">
        <ele>2322.8000488281</ele>
        <time>2014-01-31T12:10:21.000Z</time>
      </trkpt>
      <trkpt lat="45.57007" lon="6.56335">
        <ele>2322.6000976562</ele>
        <time>2014-01-31T12:10:22.000Z</time>
      </trkpt>
      <trkpt lat="45.57007" lon="6.56335">
        <ele>2322.6000976562</ele>
        <time>2014-01-31T12:10:23.000Z</time>
      </trkpt>
      <trkpt lat="45.57007" lon="6.56335">
        <ele>2322.3999023438</ele>
        <time>2014-01-31T12:10:24.000Z</time>
      </trkpt>
      <trkpt lat="45.57007" lon="6.56335">
        <ele>2322.1999511719</ele>
        <time>2014-01-31T12:10:25.000Z</time>
      </trkpt>
      <trkpt lat="45.57007" lon="6.56335">
        <ele>2322.1999511719</ele>
        <time>2014-01-31T12:10:26.000Z</time>
      </trkpt>
      <trkpt lat="45.57007" lon="6.56335">
        <ele>2322.1999511719</ele>
        <time>2014-01-31T12:10:27.000Z</time>
      </trkpt>
      <trkpt lat="45.57007" lon="6.56335">
        <ele>2322.3999023438</ele>
        <time>2014-01-31T12:10:29.000Z</time>
      </trkpt>
      <trkpt lat="45.57007" lon="6.56335">
        <ele>2322.6000976562</ele>
        <time>2014-01-31T12:10:30.000Z</time>
      </trkpt>
      <trkpt lat="45.57007" lon="6.56335">
        <ele>2322.8000488281</ele>
        <time>2014-01-31T12:10:31.000Z</time>
      </trkpt>
      <trkpt lat="45.57007" lon="6.56335">
        <ele>2323</ele>
        <time>2014-01-31T12:10:32.000Z</time>
      </trkpt>
      <trkpt lat="45.57007" lon="6.56335">
        <ele>2323</ele>
        <time>2014-01-31T12:10:33.000Z</time>
      </trkpt>
      <trkpt lat="45.57007" lon="6.56335">
        <ele>2322.8000488281</ele>
        <time>2014-01-31T12:10:34.000Z</time>
      </trkpt>
      <trkpt lat="45.57007" lon="6.56335">
        <ele>2322.6000976562</ele>
        <time>2014-01-31T12:10:35.000Z</time>
      </trkpt>
      <trkpt lat="45.57007" lon="6.56335">
        <ele>2322.6000976562</ele>
        <time>2014-01-31T12:10:36.000Z</time>
      </trkpt>
      <trkpt lat="45.57007" lon="6.56335">
        <ele>2322.6000976562</ele>
        <time>2014-01-31T12:10:37.000Z</time>
      </trkpt>
      <trkpt lat="45.57007" lon="6.56335">
        <ele>2322.6000976562</ele>
        <time>2014-01-31T12:10:38.000Z</time>
      </trkpt>
      <trkpt lat="45.57007" lon="6.56335">
        <ele>2322.6000976562</ele>
        <time>2014-01-31T12:10:40.000Z</time>
      </trkpt>
      <trkpt lat="45.57007" lon="6.56335">
        <ele>2322.6000976562</ele>
        <time>2014-01-31T12:10:42.000Z</time>
      </trkpt>
      <trkpt lat="45.57007" lon="6.56335">
        <ele>2322.6000976562</ele>
        <time>2014-01-31T12:10:43.000Z</time>
      </trkpt>
      <trkpt lat="45.57007" lon="6.56335">
        <ele>2322.6000976562</ele>
        <time>2014-01-31T12:10:44.000Z</time>
      </trkpt>
      <trkpt lat="45.57007" lon="6.56335">
        <ele>2322.6000976562</ele>
        <time>2014-01-31T12:10:45.000Z</time>
      </trkpt>
      <trkpt lat="45.57007" lon="6.56335">
        <ele>2322.6000976562</ele>
        <time>2014-01-31T12:10:46.000Z</time>
      </trkpt>
      <trkpt lat="45.57007" lon="6.56336">
        <ele>2322.6000976562</ele>
        <time>2014-01-31T12:10:47.000Z</time>
      </trkpt>
      <trkpt lat="45.57007" lon="6.56338">
        <ele>2322.3999023438</ele>
        <time>2014-01-31T12:10:48.000Z</time>
      </trkpt>
      <trkpt lat="45.57007" lon="6.5634">
        <ele>2322.1999511719</ele>
        <time>2014-01-31T12:10:49.000Z</time>
      </trkpt>
      <trkpt lat="45.57006" lon="6.56343">
        <ele>2322</ele>
        <time>2014-01-31T12:10:50.000Z</time>
      </trkpt>
      <trkpt lat="45.57005" lon="6.56345">
        <ele>2321.8000488281</ele>
        <time>2014-01-31T12:10:51.000Z</time>
      </trkpt>
      <trkpt lat="45.57001" lon="6.56347">
        <ele>2321.6000976562</ele>
        <time>2014-01-31T12:10:52.000Z</time>
      </trkpt>
      <trkpt lat="45.56998" lon="6.56346">
        <ele>2321</ele>
        <time>2014-01-31T12:10:53.000Z</time>
      </trkpt>
      <trkpt lat="45.56993" lon="6.56346">
        <ele>2320</ele>
        <time>2014-01-31T12:10:54.000Z</time>
      </trkpt>
      <trkpt lat="45.56986" lon="6.56346">
        <ele>2319</ele>
        <time>2014-01-31T12:10:55.000Z</time>
      </trkpt>
      <trkpt lat="45.56978" lon="6.56344">
        <ele>2318.6000976562</ele>
        <time>2014-01-31T12:10:56.000Z</time>
      </trkpt>
      <trkpt lat="45.56971" lon="6.56341">
        <ele>2318</ele>
        <time>2014-01-31T12:10:57.000Z</time>
      </trkpt>
      <trkpt lat="45.56966" lon="6.56336">
        <ele>2317.1999511719</ele>
        <time>2014-01-31T12:10:58.000Z</time>
      </trkpt>
      <trkpt lat="45.56962" lon="6.56331">
        <ele>2315.8000488281</ele>
        <time>2014-01-31T12:10:59.000Z</time>
      </trkpt>
      <trkpt lat="45.56959" lon="6.56328">
        <ele>2314</ele>
        <time>2014-01-31T12:11:00.000Z</time>
      </trkpt>
      <trkpt lat="45.56957" lon="6.56326">
        <ele>2312.1999511719</ele>
        <time>2014-01-31T12:11:01.000Z</time>
      </trkpt>
      <trkpt lat="45.56954" lon="6.56325">
        <ele>2310.6000976562</ele>
        <time>2014-01-31T12:11:02.000Z</time>
      </trkpt>
      <trkpt lat="45.5695" lon="6.56325">
        <ele>2309.3999023438</ele>
        <time>2014-01-31T12:11:03.000Z</time>
      </trkpt>
      <trkpt lat="45.56946" lon="6.56324">
        <ele>2308.6000976562</ele>
        <time>2014-01-31T12:11:04.000Z</time>
      </trkpt>
      <trkpt lat="45.56941" lon="6.56324">
        <ele>2308.1999511719</ele>
        <time>2014-01-31T12:11:05.000Z</time>
      </trkpt>
      <trkpt lat="45.56935" lon="6.56324">
        <ele>2307.6000976562</ele>
        <time>2014-01-31T12:11:06.000Z</time>
      </trkpt>
      <trkpt lat="45.56929" lon="6.56324">
        <ele>2306.8000488281</ele>
        <time>2014-01-31T12:11:07.000Z</time>
      </trkpt>
      <trkpt lat="45.56925" lon="6.56323">
        <ele>2306</ele>
        <time>2014-01-31T12:11:08.000Z</time>
      </trkpt>
      <trkpt lat="45.56921" lon="6.56323">
        <ele>2305.3999023438</ele>
        <time>2014-01-31T12:11:09.000Z</time>
      </trkpt>
      <trkpt lat="45.56919" lon="6.56325">
        <ele>2304.8000488281</ele>
        <time>2014-01-31T12:11:10.000Z</time>
      </trkpt>
      <trkpt lat="45.56918" lon="6.56326">
        <ele>2303.8000488281</ele>
        <time>2014-01-31T12:11:11.000Z</time>
      </trkpt>
      <trkpt lat="45.56918" lon="6.56329">
        <ele>2302.8000488281</ele>
        <time>2014-01-31T12:11:12.000Z</time>
      </trkpt>
      <trkpt lat="45.56918" lon="6.56332">
        <ele>2301.3999023438</ele>
        <time>2014-01-31T12:11:13.000Z</time>
      </trkpt>
      <trkpt lat="45.56917" lon="6.56336">
        <ele>2299.8000488281</ele>
        <time>2014-01-31T12:11:14.000Z</time>
      </trkpt>
      <trkpt lat="45.56916" lon="6.5634">
        <ele>2297.6000976562</ele>
        <time>2014-01-31T12:11:15.000Z</time>
      </trkpt>
      <trkpt lat="45.56915" lon="6.56344">
        <ele>2296</ele>
        <time>2014-01-31T12:11:16.000Z</time>
      </trkpt>
      <trkpt lat="45.56912" lon="6.56348">
        <ele>2294.6000976562</ele>
        <time>2014-01-31T12:11:17.000Z</time>
      </trkpt>
      <trkpt lat="45.56911" lon="6.56353">
        <ele>2293.6000976562</ele>
        <time>2014-01-31T12:11:18.000Z</time>
      </trkpt>
      <trkpt lat="45.56909" lon="6.56358">
        <ele>2292.1999511719</ele>
        <time>2014-01-31T12:11:19.000Z</time>
      </trkpt>
      <trkpt lat="45.56906" lon="6.56361">
        <ele>2289</ele>
        <time>2014-01-31T12:11:20.000Z</time>
      </trkpt>
      <trkpt lat="45.56903" lon="6.56366">
        <ele>2287.1999511719</ele>
        <time>2014-01-31T12:11:21.000Z</time>
      </trkpt>
      <trkpt lat="45.569" lon="6.56371">
        <ele>2285.1999511719</ele>
        <time>2014-01-31T12:11:22.000Z</time>
      </trkpt>
      <trkpt lat="45.56896" lon="6.56376">
        <ele>2283.6000976562</ele>
        <time>2014-01-31T12:11:23.000Z</time>
      </trkpt>
      <trkpt lat="45.56891" lon="6.5638">
        <ele>2281.8000488281</ele>
        <time>2014-01-31T12:11:24.000Z</time>
      </trkpt>
      <trkpt lat="45.56887" lon="6.56386">
        <ele>2280</ele>
        <time>2014-01-31T12:11:25.000Z</time>
      </trkpt>
      <trkpt lat="45.56882" lon="6.56392">
        <ele>2278</ele>
        <time>2014-01-31T12:11:26.000Z</time>
      </trkpt>
      <trkpt lat="45.56877" lon="6.564">
        <ele>2276.3999023438</ele>
        <time>2014-01-31T12:11:27.000Z</time>
      </trkpt>
      <trkpt lat="45.56874" lon="6.56407">
        <ele>2274.8000488281</ele>
        <time>2014-01-31T12:11:28.000Z</time>
      </trkpt>
      <trkpt lat="45.56869" lon="6.56414">
        <ele>2273</ele>
        <time>2014-01-31T12:11:29.000Z</time>
      </trkpt>
      <trkpt lat="45.56866" lon="6.56423">
        <ele>2271</ele>
        <time>2014-01-31T12:11:30.000Z</time>
      </trkpt>
      <trkpt lat="45.56863" lon="6.56431">
        <ele>2269.1999511719</ele>
        <time>2014-01-31T12:11:31.000Z</time>
      </trkpt>
      <trkpt lat="45.56859" lon="6.56438">
        <ele>2267.3999023438</ele>
        <time>2014-01-31T12:11:32.000Z</time>
      </trkpt>
      <trkpt lat="45.56855" lon="6.56444">
        <ele>2266</ele>
        <time>2014-01-31T12:11:33.000Z</time>
      </trkpt>
      <trkpt lat="45.56854" lon="6.56449">
        <ele>2264.3999023438</ele>
        <time>2014-01-31T12:11:34.000Z</time>
      </trkpt>
      <trkpt lat="45.56854" lon="6.56452">
        <ele>2262.8000488281</ele>
        <time>2014-01-31T12:11:35.000Z</time>
      </trkpt>
      <trkpt lat="45.56854" lon="6.56454">
        <ele>2261.1999511719</ele>
        <time>2014-01-31T12:11:36.000Z</time>
      </trkpt>
      <trkpt lat="45.56854" lon="6.56456">
        <ele>2259.6000976562</ele>
        <time>2014-01-31T12:11:37.000Z</time>
      </trkpt>
      <trkpt lat="45.56855" lon="6.56458">
        <ele>2258.3999023438</ele>
        <time>2014-01-31T12:11:38.000Z</time>
      </trkpt>
      <trkpt lat="45.56855" lon="6.56458">
        <ele>2257.6000976562</ele>
        <time>2014-01-31T12:11:39.000Z</time>
      </trkpt>
      <trkpt lat="45.56856" lon="6.56457">
        <ele>2257</ele>
        <time>2014-01-31T12:11:40.000Z</time>
      </trkpt>
      <trkpt lat="45.56857" lon="6.56457">
        <ele>2256.6000976562</ele>
        <time>2014-01-31T12:11:41.000Z</time>
      </trkpt>
      <trkpt lat="45.56858" lon="6.56456">
        <ele>2256.3999023438</ele>
        <time>2014-01-31T12:11:42.000Z</time>
      </trkpt>
      <trkpt lat="45.56858" lon="6.56456">
        <ele>2256</ele>
        <time>2014-01-31T12:11:43.000Z</time>
      </trkpt>
      <trkpt lat="45.56859" lon="6.56457">
        <ele>2256</ele>
        <time>2014-01-31T12:11:44.000Z</time>
      </trkpt>
      <trkpt lat="45.5686" lon="6.56456">
        <ele>2255.8000488281</ele>
        <time>2014-01-31T12:11:45.000Z</time>
      </trkpt>
      <trkpt lat="45.56861" lon="6.56456">
        <ele>2255.8000488281</ele>
        <time>2014-01-31T12:11:46.000Z</time>
      </trkpt>
      <trkpt lat="45.56861" lon="6.56456">
        <ele>2255.8000488281</ele>
        <time>2014-01-31T12:11:47.000Z</time>
      </trkpt>
      <trkpt lat="45.56862" lon="6.56455">
        <ele>2255.8000488281</ele>
        <time>2014-01-31T12:11:48.000Z</time>
      </trkpt>
      <trkpt lat="45.56862" lon="6.56455">
        <ele>2255.8000488281</ele>
        <time>2014-01-31T12:11:49.000Z</time>
      </trkpt>
      <trkpt lat="45.56863" lon="6.56455">
        <ele>2255.8000488281</ele>
        <time>2014-01-31T12:11:50.000Z</time>
      </trkpt>
      <trkpt lat="45.56864" lon="6.56454">
        <ele>2255.8000488281</ele>
        <time>2014-01-31T12:11:51.000Z</time>
      </trkpt>
      <trkpt lat="45.56865" lon="6.5645">
        <ele>2255.8000488281</ele>
        <time>2014-01-31T12:11:53.000Z</time>
      </trkpt>
      <trkpt lat="45.56866" lon="6.5645">
        <ele>2255.8000488281</ele>
        <time>2014-01-31T12:11:54.000Z</time>
      </trkpt>
      <trkpt lat="45.56865" lon="6.5645">
        <ele>2255.8000488281</ele>
        <time>2014-01-31T12:11:55.000Z</time>
      </trkpt>
      <trkpt lat="45.56864" lon="6.5645">
        <ele>2255.8000488281</ele>
        <time>2014-01-31T12:11:56.000Z</time>
      </trkpt>
      <trkpt lat="45.56863" lon="6.5645">
        <ele>2255.8000488281</ele>
        <time>2014-01-31T12:11:57.000Z</time>
      </trkpt>
      <trkpt lat="45.56862" lon="6.5645">
        <ele>2255.6000976562</ele>
        <time>2014-01-31T12:11:58.000Z</time>
      </trkpt>
      <trkpt lat="45.5686" lon="6.56449">
        <ele>2255.6000976562</ele>
        <time>2014-01-31T12:11:59.000Z</time>
      </trkpt>
      <trkpt lat="45.56857" lon="6.5645">
        <ele>2255.3999023438</ele>
        <time>2014-01-31T12:12:00.000Z</time>
      </trkpt>
      <trkpt lat="45.56855" lon="6.5645">
        <ele>2255.3999023438</ele>
        <time>2014-01-31T12:12:01.000Z</time>
      </trkpt>
      <trkpt lat="45.56852" lon="6.56451">
        <ele>2255.3999023438</ele>
        <time>2014-01-31T12:12:02.000Z</time>
      </trkpt>
      <trkpt lat="45.56849" lon="6.56452">
        <ele>2255.1999511719</ele>
        <time>2014-01-31T12:12:03.000Z</time>
      </trkpt>
      <trkpt lat="45.56846" lon="6.56453">
        <ele>2255</ele>
        <time>2014-01-31T12:12:04.000Z</time>
      </trkpt>
      <trkpt lat="45.56842" lon="6.56455">
        <ele>2254.8000488281</ele>
        <time>2014-01-31T12:12:05.000Z</time>
      </trkpt>
      <trkpt lat="45.56838" lon="6.56456">
        <ele>2254.6000976562</ele>
        <time>2014-01-31T12:12:06.000Z</time>
      </trkpt>
      <trkpt lat="45.56833" lon="6.56457">
        <ele>2254</ele>
        <time>2014-01-31T12:12:07.000Z</time>
      </trkpt>
      <trkpt lat="45.56829" lon="6.5646">
        <ele>2253.3999023438</ele>
        <time>2014-01-31T12:12:08.000Z</time>
      </trkpt>
      <trkpt lat="45.56826" lon="6.56463">
        <ele>2253</ele>
        <time>2014-01-31T12:12:09.000Z</time>
      </trkpt>
      <trkpt lat="45.56823" lon="6.56464">
        <ele>2252.3999023438</ele>
        <time>2014-01-31T12:12:10.000Z</time>
      </trkpt>
      <trkpt lat="45.5682" lon="6.56465">
        <ele>2251.8000488281</ele>
        <time>2014-01-31T12:12:11.000Z</time>
      </trkpt>
      <trkpt lat="45.56818" lon="6.56467">
        <ele>2251</ele>
        <time>2014-01-31T12:12:12.000Z</time>
      </trkpt>
      <trkpt lat="45.56816" lon="6.56468">
        <ele>2250.6000976562</ele>
        <time>2014-01-31T12:12:13.000Z</time>
      </trkpt>
      <trkpt lat="45.56815" lon="6.56471">
        <ele>2250.1999511719</ele>
        <time>2014-01-31T12:12:14.000Z</time>
      </trkpt>
      <trkpt lat="45.56814" lon="6.56474">
        <ele>2250</ele>
        <time>2014-01-31T12:12:15.000Z</time>
      </trkpt>
      <trkpt lat="45.56813" lon="6.56476">
        <ele>2249.6000976562</ele>
        <time>2014-01-31T12:12:16.000Z</time>
      </trkpt>
      <trkpt lat="45.56812" lon="6.56479">
        <ele>2249.3999023438</ele>
        <time>2014-01-31T12:12:17.000Z</time>
      </trkpt>
      <trkpt lat="45.56812" lon="6.56484">
        <ele>2249</ele>
        <time>2014-01-31T12:12:18.000Z</time>
      </trkpt>
      <trkpt lat="45.56813" lon="6.56489">
        <ele>2248.1999511719</ele>
        <time>2014-01-31T12:12:19.000Z</time>
      </trkpt>
      <trkpt lat="45.56813" lon="6.56495">
        <ele>2247.1999511719</ele>
        <time>2014-01-31T12:12:20.000Z</time>
      </trkpt>
      <trkpt lat="45.56813" lon="6.565">
        <ele>2245.6000976562</ele>
        <time>2014-01-31T12:12:21.000Z</time>
      </trkpt>
      <trkpt lat="45.56812" lon="6.56506">
        <ele>2244</ele>
        <time>2014-01-31T12:12:22.000Z</time>
      </trkpt>
      <trkpt lat="45.56811" lon="6.56513">
        <ele>2242.6000976562</ele>
        <time>2014-01-31T12:12:23.000Z</time>
      </trkpt>
      <trkpt lat="45.56809" lon="6.56519">
        <ele>2241</ele>
        <time>2014-01-31T12:12:24.000Z</time>
      </trkpt>
      <trkpt lat="45.56807" lon="6.56527">
        <ele>2239.3999023438</ele>
        <time>2014-01-31T12:12:25.000Z</time>
      </trkpt>
      <trkpt lat="45.56805" lon="6.56536">
        <ele>2237.6000976562</ele>
        <time>2014-01-31T12:12:26.000Z</time>
      </trkpt>
      <trkpt lat="45.56803" lon="6.56543">
        <ele>2235.6000976562</ele>
        <time>2014-01-31T12:12:27.000Z</time>
      </trkpt>
      <trkpt lat="45.56803" lon="6.56554">
        <ele>2233.6000976562</ele>
        <time>2014-01-31T12:12:28.000Z</time>
      </trkpt>
      <trkpt lat="45.56803" lon="6.56563">
        <ele>2231.3999023438</ele>
        <time>2014-01-31T12:12:29.000Z</time>
      </trkpt>
      <trkpt lat="45.56802" lon="6.56573">
        <ele>2229.1999511719</ele>
        <time>2014-01-31T12:12:30.000Z</time>
      </trkpt>
      <trkpt lat="45.56803" lon="6.56583">
        <ele>2224.3999023438</ele>
        <time>2014-01-31T12:12:31.000Z</time>
      </trkpt>
      <trkpt lat="45.56803" lon="6.56595">
        <ele>2221.8000488281</ele>
        <time>2014-01-31T12:12:32.000Z</time>
      </trkpt>
      <trkpt lat="45.56802" lon="6.56606">
        <ele>2219.1999511719</ele>
        <time>2014-01-31T12:12:33.000Z</time>
      </trkpt>
      <trkpt lat="45.56803" lon="6.5662">
        <ele>2216.3999023438</ele>
        <time>2014-01-31T12:12:34.000Z</time>
      </trkpt>
      <trkpt lat="45.56803" lon="6.56633">
        <ele>2213.6000976562</ele>
        <time>2014-01-31T12:12:35.000Z</time>
      </trkpt>
      <trkpt lat="45.56803" lon="6.56644">
        <ele>2211</ele>
        <time>2014-01-31T12:12:36.000Z</time>
      </trkpt>
      <trkpt lat="45.56802" lon="6.56654">
        <ele>2208.6000976562</ele>
        <time>2014-01-31T12:12:37.000Z</time>
      </trkpt>
      <trkpt lat="45.568" lon="6.56662">
        <ele>2206.6000976562</ele>
        <time>2014-01-31T12:12:38.000Z</time>
      </trkpt>
      <trkpt lat="45.568" lon="6.56668">
        <ele>2205.1999511719</ele>
        <time>2014-01-31T12:12:39.000Z</time>
      </trkpt>
      <trkpt lat="45.568" lon="6.56674">
        <ele>2203.6000976562</ele>
        <time>2014-01-31T12:12:40.000Z</time>
      </trkpt>
      <trkpt lat="45.568" lon="6.5668">
        <ele>2201.8000488281</ele>
        <time>2014-01-31T12:12:41.000Z</time>
      </trkpt>
      <trkpt lat="45.56801" lon="6.56685">
        <ele>2200.1999511719</ele>
        <time>2014-01-31T12:12:42.000Z</time>
      </trkpt>
      <trkpt lat="45.568" lon="6.56692">
        <ele>2198.8000488281</ele>
        <time>2014-01-31T12:12:43.000Z</time>
      </trkpt>
      <trkpt lat="45.568" lon="6.56699">
        <ele>2197.1999511719</ele>
        <time>2014-01-31T12:12:44.000Z</time>
      </trkpt>
      <trkpt lat="45.56801" lon="6.56707">
        <ele>2195.6000976562</ele>
        <time>2014-01-31T12:12:45.000Z</time>
      </trkpt>
      <trkpt lat="45.56803" lon="6.56715">
        <ele>2194</ele>
        <time>2014-01-31T12:12:46.000Z</time>
      </trkpt>
      <trkpt lat="45.56806" lon="6.56723">
        <ele>2192.1999511719</ele>
        <time>2014-01-31T12:12:47.000Z</time>
      </trkpt>
      <trkpt lat="45.56809" lon="6.56732">
        <ele>2190</ele>
        <time>2014-01-31T12:12:48.000Z</time>
      </trkpt>
      <trkpt lat="45.5681" lon="6.56738">
        <ele>2187.8000488281</ele>
        <time>2014-01-31T12:12:49.000Z</time>
      </trkpt>
      <trkpt lat="45.56812" lon="6.56745">
        <ele>2185.8000488281</ele>
        <time>2014-01-31T12:12:50.000Z</time>
      </trkpt>
      <trkpt lat="45.56814" lon="6.56753">
        <ele>2184.1999511719</ele>
        <time>2014-01-31T12:12:51.000Z</time>
      </trkpt>
      <trkpt lat="45.56817" lon="6.5676">
        <ele>2182.8000488281</ele>
        <time>2014-01-31T12:12:52.000Z</time>
      </trkpt>
      <trkpt lat="45.56819" lon="6.56764">
        <ele>2181.1999511719</ele>
        <time>2014-01-31T12:12:53.000Z</time>
      </trkpt>
      <trkpt lat="45.56821" lon="6.56766">
        <ele>2179.6000976562</ele>
        <time>2014-01-31T12:12:54.000Z</time>
      </trkpt>
      <trkpt lat="45.56824" lon="6.56766">
        <ele>2178</ele>
        <time>2014-01-31T12:12:55.000Z</time>
      </trkpt>
      <trkpt lat="45.56825" lon="6.56766">
        <ele>2176</ele>
        <time>2014-01-31T12:12:56.000Z</time>
      </trkpt>
      <trkpt lat="45.56826" lon="6.56766">
        <ele>2175.3999023438</ele>
        <time>2014-01-31T12:12:57.000Z</time>
      </trkpt>
      <trkpt lat="45.56827" lon="6.56765">
        <ele>2175.1999511719</ele>
        <time>2014-01-31T12:12:58.000Z</time>
      </trkpt>
      <trkpt lat="45.56829" lon="6.56767">
        <ele>2175</ele>
        <time>2014-01-31T12:12:59.000Z</time>
      </trkpt>
      <trkpt lat="45.56829" lon="6.56767">
        <ele>2175</ele>
        <time>2014-01-31T12:13:00.000Z</time>
      </trkpt>
      <trkpt lat="45.56829" lon="6.56767">
        <ele>2175</ele>
        <time>2014-01-31T12:13:01.000Z</time>
      </trkpt>
      <trkpt lat="45.56829" lon="6.56767">
        <ele>2175.1999511719</ele>
        <time>2014-01-31T12:13:02.000Z</time>
      </trkpt>
      <trkpt lat="45.56829" lon="6.56767">
        <ele>2175.1999511719</ele>
        <time>2014-01-31T12:13:03.000Z</time>
      </trkpt>
      <trkpt lat="45.56829" lon="6.56767">
        <ele>2175.1999511719</ele>
        <time>2014-01-31T12:13:04.000Z</time>
      </trkpt>
      <trkpt lat="45.56829" lon="6.56767">
        <ele>2175.1999511719</ele>
        <time>2014-01-31T12:13:05.000Z</time>
      </trkpt>
      <trkpt lat="45.56829" lon="6.56767">
        <ele>2175.1999511719</ele>
        <time>2014-01-31T12:13:06.000Z</time>
      </trkpt>
      <trkpt lat="45.56829" lon="6.56767">
        <ele>2175.1999511719</ele>
        <time>2014-01-31T12:13:07.000Z</time>
      </trkpt>
      <trkpt lat="45.56829" lon="6.56767">
        <ele>2175.1999511719</ele>
        <time>2014-01-31T12:13:08.000Z</time>
      </trkpt>
      <trkpt lat="45.56829" lon="6.56767">
        <ele>2175.1999511719</ele>
        <time>2014-01-31T12:13:09.000Z</time>
      </trkpt>
      <trkpt lat="45.56829" lon="6.56767">
        <ele>2175.1999511719</ele>
        <time>2014-01-31T12:13:10.000Z</time>
      </trkpt>
      <trkpt lat="45.5683" lon="6.56763">
        <ele>2175</ele>
        <time>2014-01-31T12:13:11.000Z</time>
      </trkpt>
      <trkpt lat="45.5683" lon="6.56757">
        <ele>2175</ele>
        <time>2014-01-31T12:13:12.000Z</time>
      </trkpt>
      <trkpt lat="45.56832" lon="6.5675">
        <ele>2174.8000488281</ele>
        <time>2014-01-31T12:13:13.000Z</time>
      </trkpt>
      <trkpt lat="45.56835" lon="6.56747">
        <ele>2174.8000488281</ele>
        <time>2014-01-31T12:13:14.000Z</time>
      </trkpt>
      <trkpt lat="45.56839" lon="6.56747">
        <ele>2174.3999023438</ele>
        <time>2014-01-31T12:13:15.000Z</time>
      </trkpt>
      <trkpt lat="45.5684" lon="6.56749">
        <ele>2173.6000976562</ele>
        <time>2014-01-31T12:13:16.000Z</time>
      </trkpt>
      <trkpt lat="45.5684" lon="6.56753">
        <ele>2172.3999023438</ele>
        <time>2014-01-31T12:13:17.000Z</time>
      </trkpt>
      <trkpt lat="45.56841" lon="6.56758">
        <ele>2171.3999023438</ele>
        <time>2014-01-31T12:13:18.000Z</time>
      </trkpt>
      <trkpt lat="45.56842" lon="6.56761">
        <ele>2170.6000976562</ele>
        <time>2014-01-31T12:13:19.000Z</time>
      </trkpt>
      <trkpt lat="45.56842" lon="6.56764">
        <ele>2168.8000488281</ele>
        <time>2014-01-31T12:13:20.000Z</time>
      </trkpt>
      <trkpt lat="45.56842" lon="6.56767">
        <ele>2168</ele>
        <time>2014-01-31T12:13:21.000Z</time>
      </trkpt>
      <trkpt lat="45.56843" lon="6.56771">
        <ele>2167.3999023438</ele>
        <time>2014-01-31T12:13:22.000Z</time>
      </trkpt>
      <trkpt lat="45.56843" lon="6.56775">
        <ele>2167</ele>
        <time>2014-01-31T12:13:23.000Z</time>
      </trkpt>
      <trkpt lat="45.56844" lon="6.56776">
        <ele>2166.6000976562</ele>
        <time>2014-01-31T12:13:24.000Z</time>
      </trkpt>
      <trkpt lat="45.56844" lon="6.56776">
        <ele>2166.1999511719</ele>
        <time>2014-01-31T12:13:25.000Z</time>
      </trkpt>
      <trkpt lat="45.56844" lon="6.56776">
        <ele>2165.8000488281</ele>
        <time>2014-01-31T12:13:26.000Z</time>
      </trkpt>
      <trkpt lat="45.56844" lon="6.56776">
        <ele>2165.3999023438</ele>
        <time>2014-01-31T12:13:27.000Z</time>
      </trkpt>
      <trkpt lat="45.56844" lon="6.56776">
        <ele>2165.1999511719</ele>
        <time>2014-01-31T12:13:28.000Z</time>
      </trkpt>
      <trkpt lat="45.56844" lon="6.56776">
        <ele>2165.1999511719</ele>
        <time>2014-01-31T12:13:29.000Z</time>
      </trkpt>
      <trkpt lat="45.56844" lon="6.56776">
        <ele>2165</ele>
        <time>2014-01-31T12:13:30.000Z</time>
      </trkpt>
      <trkpt lat="45.56844" lon="6.56776">
        <ele>2164.8000488281</ele>
        <time>2014-01-31T12:13:31.000Z</time>
      </trkpt>
      <trkpt lat="45.56844" lon="6.56776">
        <ele>2164.6000976562</ele>
        <time>2014-01-31T12:13:32.000Z</time>
      </trkpt>
      <trkpt lat="45.56844" lon="6.56776">
        <ele>2164.6000976562</ele>
        <time>2014-01-31T12:13:33.000Z</time>
      </trkpt>
      <trkpt lat="45.56844" lon="6.56776">
        <ele>2164.3999023438</ele>
        <time>2014-01-31T12:13:34.000Z</time>
      </trkpt>
      <trkpt lat="45.56844" lon="6.56776">
        <ele>2164.3999023438</ele>
        <time>2014-01-31T12:13:35.000Z</time>
      </trkpt>
      <trkpt lat="45.56844" lon="6.56776">
        <ele>2164.3999023438</ele>
        <time>2014-01-31T12:13:36.000Z</time>
      </trkpt>
      <trkpt lat="45.56844" lon="6.56776">
        <ele>2164.3999023438</ele>
        <time>2014-01-31T12:13:37.000Z</time>
      </trkpt>
      <trkpt lat="45.56844" lon="6.56776">
        <ele>2164.3999023438</ele>
        <time>2014-01-31T12:13:38.000Z</time>
      </trkpt>
      <trkpt lat="45.56844" lon="6.56776">
        <ele>2164.3999023438</ele>
        <time>2014-01-31T12:13:39.000Z</time>
      </trkpt>
      <trkpt lat="45.56844" lon="6.56776">
        <ele>2164.3999023438</ele>
        <time>2014-01-31T12:13:42.000Z</time>
      </trkpt>
      <trkpt lat="45.56844" lon="6.56776">
        <ele>2164.3999023438</ele>
        <time>2014-01-31T12:13:43.000Z</time>
      </trkpt>
      <trkpt lat="45.56844" lon="6.56776">
        <ele>2164.3999023438</ele>
        <time>2014-01-31T12:13:44.000Z</time>
      </trkpt>
      <trkpt lat="45.56844" lon="6.56776">
        <ele>2164.3999023438</ele>
        <time>2014-01-31T12:13:45.000Z</time>
      </trkpt>
      <trkpt lat="45.56844" lon="6.56776">
        <ele>2164.3999023438</ele>
        <time>2014-01-31T12:13:46.000Z</time>
      </trkpt>
      <trkpt lat="45.56844" lon="6.56776">
        <ele>2164.3999023438</ele>
        <time>2014-01-31T12:13:47.000Z</time>
      </trkpt>
      <trkpt lat="45.56844" lon="6.56776">
        <ele>2164.3999023438</ele>
        <time>2014-01-31T12:13:48.000Z</time>
      </trkpt>
      <trkpt lat="45.56844" lon="6.56776">
        <ele>2164.3999023438</ele>
        <time>2014-01-31T12:13:49.000Z</time>
      </trkpt>
      <trkpt lat="45.56844" lon="6.56776">
        <ele>2164.1999511719</ele>
        <time>2014-01-31T12:13:50.000Z</time>
      </trkpt>
      <trkpt lat="45.56844" lon="6.56776">
        <ele>2164.1999511719</ele>
        <time>2014-01-31T12:13:51.000Z</time>
      </trkpt>
      <trkpt lat="45.56844" lon="6.56776">
        <ele>2164.1999511719</ele>
        <time>2014-01-31T12:13:52.000Z</time>
      </trkpt>
      <trkpt lat="45.56844" lon="6.56776">
        <ele>2164.1999511719</ele>
        <time>2014-01-31T12:13:53.000Z</time>
      </trkpt>
      <trkpt lat="45.56844" lon="6.56776">
        <ele>2164.1999511719</ele>
        <time>2014-01-31T12:13:55.000Z</time>
      </trkpt>
      <trkpt lat="45.56844" lon="6.56776">
        <ele>2164.3999023438</ele>
        <time>2014-01-31T12:13:56.000Z</time>
      </trkpt>
      <trkpt lat="45.56844" lon="6.56776">
        <ele>2164.3999023438</ele>
        <time>2014-01-31T12:13:57.000Z</time>
      </trkpt>
      <trkpt lat="45.56844" lon="6.56776">
        <ele>2164.3999023438</ele>
        <time>2014-01-31T12:13:58.000Z</time>
      </trkpt>
      <trkpt lat="45.56844" lon="6.56776">
        <ele>2164.3999023438</ele>
        <time>2014-01-31T12:14:00.000Z</time>
      </trkpt>
      <trkpt lat="45.56844" lon="6.56776">
        <ele>2164.3999023438</ele>
        <time>2014-01-31T12:14:01.000Z</time>
      </trkpt>
      <trkpt lat="45.56844" lon="6.56776">
        <ele>2164.3999023438</ele>
        <time>2014-01-31T12:14:02.000Z</time>
      </trkpt>
      <trkpt lat="45.56844" lon="6.56776">
        <ele>2164.3999023438</ele>
        <time>2014-01-31T12:14:03.000Z</time>
      </trkpt>
      <trkpt lat="45.56847" lon="6.56776">
        <ele>2164.3999023438</ele>
        <time>2014-01-31T12:14:04.000Z</time>
      </trkpt>
      <trkpt lat="45.56847" lon="6.56776">
        <ele>2164.3999023438</ele>
        <time>2014-01-31T12:14:05.000Z</time>
      </trkpt>
      <trkpt lat="45.56847" lon="6.56776">
        <ele>2164.3999023438</ele>
        <time>2014-01-31T12:14:06.000Z</time>
      </trkpt>
      <trkpt lat="45.56847" lon="6.56776">
        <ele>2164.3999023438</ele>
        <time>2014-01-31T12:14:08.000Z</time>
      </trkpt>
      <trkpt lat="45.56847" lon="6.56776">
        <ele>2164.3999023438</ele>
        <time>2014-01-31T12:14:09.000Z</time>
      </trkpt>
      <trkpt lat="45.56847" lon="6.56776">
        <ele>2164.1999511719</ele>
        <time>2014-01-31T12:14:10.000Z</time>
      </trkpt>
      <trkpt lat="45.56847" lon="6.56776">
        <ele>2164.1999511719</ele>
        <time>2014-01-31T12:14:11.000Z</time>
      </trkpt>
      <trkpt lat="45.56847" lon="6.56776">
        <ele>2164.1999511719</ele>
        <time>2014-01-31T12:14:12.000Z</time>
      </trkpt>
      <trkpt lat="45.56847" lon="6.56776">
        <ele>2164.1999511719</ele>
        <time>2014-01-31T12:14:14.000Z</time>
      </trkpt>
      <trkpt lat="45.56847" lon="6.56776">
        <ele>2164.1999511719</ele>
        <time>2014-01-31T12:14:15.000Z</time>
      </trkpt>
      <trkpt lat="45.56847" lon="6.56776">
        <ele>2164.1999511719</ele>
        <time>2014-01-31T12:14:18.000Z</time>
      </trkpt>
      <trkpt lat="45.56847" lon="6.56776">
        <ele>2164.1999511719</ele>
        <time>2014-01-31T12:14:19.000Z</time>
      </trkpt>
      <trkpt lat="45.56847" lon="6.56776">
        <ele>2164.1999511719</ele>
        <time>2014-01-31T12:14:20.000Z</time>
      </trkpt>
      <trkpt lat="45.56847" lon="6.56779">
        <ele>2164.1999511719</ele>
        <time>2014-01-31T12:14:21.000Z</time>
      </trkpt>
      <trkpt lat="45.56851" lon="6.5678">
        <ele>2164</ele>
        <time>2014-01-31T12:14:22.000Z</time>
      </trkpt>
      <trkpt lat="45.56858" lon="6.56779">
        <ele>2164</ele>
        <time>2014-01-31T12:14:23.000Z</time>
      </trkpt>
      <trkpt lat="45.56869" lon="6.56778">
        <ele>2163.6000976562</ele>
        <time>2014-01-31T12:14:24.000Z</time>
      </trkpt>
      <trkpt lat="45.56877" lon="6.56778">
        <ele>2163.1999511719</ele>
        <time>2014-01-31T12:14:25.000Z</time>
      </trkpt>
      <trkpt lat="45.56882" lon="6.56779">
        <ele>2162.6000976562</ele>
        <time>2014-01-31T12:14:26.000Z</time>
      </trkpt>
      <trkpt lat="45.56885" lon="6.56781">
        <ele>2161.3999023438</ele>
        <time>2014-01-31T12:14:27.000Z</time>
      </trkpt>
      <trkpt lat="45.56889" lon="6.56785">
        <ele>2159.8000488281</ele>
        <time>2014-01-31T12:14:28.000Z</time>
      </trkpt>
      <trkpt lat="45.56892" lon="6.5679">
        <ele>2158.6000976562</ele>
        <time>2014-01-31T12:14:29.000Z</time>
      </trkpt>
      <trkpt lat="45.56895" lon="6.56797">
        <ele>2157.6000976562</ele>
        <time>2014-01-31T12:14:30.000Z</time>
      </trkpt>
      <trkpt lat="45.56897" lon="6.56805">
        <ele>2156.8000488281</ele>
        <time>2014-01-31T12:14:31.000Z</time>
      </trkpt>
      <trkpt lat="45.56898" lon="6.56812">
        <ele>2153.6000976562</ele>
        <time>2014-01-31T12:14:32.000Z</time>
      </trkpt>
      <trkpt lat="45.569" lon="6.5682">
        <ele>2151.6000976562</ele>
        <time>2014-01-31T12:14:33.000Z</time>
      </trkpt>
      <trkpt lat="45.56903" lon="6.56827">
        <ele>2149.8000488281</ele>
        <time>2014-01-31T12:14:34.000Z</time>
      </trkpt>
      <trkpt lat="45.56906" lon="6.56835">
        <ele>2147.8000488281</ele>
        <time>2014-01-31T12:14:35.000Z</time>
      </trkpt>
      <trkpt lat="45.5691" lon="6.56844">
        <ele>2146</ele>
        <time>2014-01-31T12:14:36.000Z</time>
      </trkpt>
      <trkpt lat="45.56915" lon="6.56853">
        <ele>2144</ele>
        <time>2014-01-31T12:14:37.000Z</time>
      </trkpt>
      <trkpt lat="45.56921" lon="6.56861">
        <ele>2141.8000488281</ele>
        <time>2014-01-31T12:14:38.000Z</time>
      </trkpt>
      <trkpt lat="45.56926" lon="6.56869">
        <ele>2139.8000488281</ele>
        <time>2014-01-31T12:14:39.000Z</time>
      </trkpt>
      <trkpt lat="45.5693" lon="6.56876">
        <ele>2138</ele>
        <time>2014-01-31T12:14:40.000Z</time>
      </trkpt>
      <trkpt lat="45.56932" lon="6.56884">
        <ele>2136</ele>
        <time>2014-01-31T12:14:41.000Z</time>
      </trkpt>
      <trkpt lat="45.56933" lon="6.56892">
        <ele>2134.1999511719</ele>
        <time>2014-01-31T12:14:42.000Z</time>
      </trkpt>
      <trkpt lat="45.56935" lon="6.56899">
        <ele>2132.8000488281</ele>
        <time>2014-01-31T12:14:43.000Z</time>
      </trkpt>
      <trkpt lat="45.56937" lon="6.56906">
        <ele>2131.8000488281</ele>
        <time>2014-01-31T12:14:44.000Z</time>
      </trkpt>
      <trkpt lat="45.56938" lon="6.56911">
        <ele>2131</ele>
        <time>2014-01-31T12:14:45.000Z</time>
      </trkpt>
      <trkpt lat="45.56939" lon="6.56916">
        <ele>2130</ele>
        <time>2014-01-31T12:14:46.000Z</time>
      </trkpt>
      <trkpt lat="45.56938" lon="6.5692">
        <ele>2129.1999511719</ele>
        <time>2014-01-31T12:14:47.000Z</time>
      </trkpt>
      <trkpt lat="45.56938" lon="6.56923">
        <ele>2128.6000976562</ele>
        <time>2014-01-31T12:14:48.000Z</time>
      </trkpt>
      <trkpt lat="45.56939" lon="6.56927">
        <ele>2128.1999511719</ele>
        <time>2014-01-31T12:14:49.000Z</time>
      </trkpt>
      <trkpt lat="45.5694" lon="6.5693">
        <ele>2128</ele>
        <time>2014-01-31T12:14:50.000Z</time>
      </trkpt>
      <trkpt lat="45.5694" lon="6.56934">
        <ele>2127.8000488281</ele>
        <time>2014-01-31T12:14:51.000Z</time>
      </trkpt>
      <trkpt lat="45.56941" lon="6.56937">
        <ele>2127.8000488281</ele>
        <time>2014-01-31T12:14:52.000Z</time>
      </trkpt>
      <trkpt lat="45.56941" lon="6.5694">
        <ele>2127.6000976562</ele>
        <time>2014-01-31T12:14:53.000Z</time>
      </trkpt>
      <trkpt lat="45.56941" lon="6.56944">
        <ele>2127.3999023438</ele>
        <time>2014-01-31T12:14:54.000Z</time>
      </trkpt>
      <trkpt lat="45.56941" lon="6.56948">
        <ele>2127.3999023438</ele>
        <time>2014-01-31T12:14:55.000Z</time>
      </trkpt>
      <trkpt lat="45.56941" lon="6.56951">
        <ele>2127</ele>
        <time>2014-01-31T12:14:56.000Z</time>
      </trkpt>
      <trkpt lat="45.56941" lon="6.56955">
        <ele>2126.8000488281</ele>
        <time>2014-01-31T12:14:57.000Z</time>
      </trkpt>
      <trkpt lat="45.56941" lon="6.56959">
        <ele>2126.6000976562</ele>
        <time>2014-01-31T12:14:58.000Z</time>
      </trkpt>
      <trkpt lat="45.56942" lon="6.56962">
        <ele>2126.3999023438</ele>
        <time>2014-01-31T12:14:59.000Z</time>
      </trkpt>
      <trkpt lat="45.56942" lon="6.56965">
        <ele>2126.1999511719</ele>
        <time>2014-01-31T12:15:00.000Z</time>
      </trkpt>
      <trkpt lat="45.56942" lon="6.56967">
        <ele>2126</ele>
        <time>2014-01-31T12:15:01.000Z</time>
      </trkpt>
      <trkpt lat="45.56942" lon="6.5697">
        <ele>2125.6000976562</ele>
        <time>2014-01-31T12:15:02.000Z</time>
      </trkpt>
      <trkpt lat="45.56942" lon="6.56972">
        <ele>2125.3999023438</ele>
        <time>2014-01-31T12:15:03.000Z</time>
      </trkpt>
      <trkpt lat="45.56943" lon="6.56975">
        <ele>2125.3999023438</ele>
        <time>2014-01-31T12:15:04.000Z</time>
      </trkpt>
      <trkpt lat="45.56943" lon="6.56979">
        <ele>2125.1999511719</ele>
        <time>2014-01-31T12:15:05.000Z</time>
      </trkpt>
      <trkpt lat="45.56943" lon="6.56982">
        <ele>2125</ele>
        <time>2014-01-31T12:15:06.000Z</time>
      </trkpt>
      <trkpt lat="45.56944" lon="6.56986">
        <ele>2125</ele>
        <time>2014-01-31T12:15:07.000Z</time>
      </trkpt>
      <trkpt lat="45.56945" lon="6.5699">
        <ele>2124.6000976562</ele>
        <time>2014-01-31T12:15:08.000Z</time>
      </trkpt>
      <trkpt lat="45.56946" lon="6.56994">
        <ele>2124.3999023438</ele>
        <time>2014-01-31T12:15:09.000Z</time>
      </trkpt>
      <trkpt lat="45.56947" lon="6.56998">
        <ele>2124.1999511719</ele>
        <time>2014-01-31T12:15:10.000Z</time>
      </trkpt>
      <trkpt lat="45.56948" lon="6.57004">
        <ele>2124</ele>
        <time>2014-01-31T12:15:11.000Z</time>
      </trkpt>
      <trkpt lat="45.56949" lon="6.57008">
        <ele>2123.8000488281</ele>
        <time>2014-01-31T12:15:12.000Z</time>
      </trkpt>
      <trkpt lat="45.5695" lon="6.57011">
        <ele>2123.3999023438</ele>
        <time>2014-01-31T12:15:13.000Z</time>
      </trkpt>
      <trkpt lat="45.56951" lon="6.57012">
        <ele>2123</ele>
        <time>2014-01-31T12:15:14.000Z</time>
      </trkpt>
      <trkpt lat="45.56951" lon="6.57012">
        <ele>2122.8000488281</ele>
        <time>2014-01-31T12:15:15.000Z</time>
      </trkpt>
      <trkpt lat="45.56951" lon="6.57012">
        <ele>2122.3999023438</ele>
        <time>2014-01-31T12:15:16.000Z</time>
      </trkpt>
      <trkpt lat="45.56951" lon="6.57012">
        <ele>2122</ele>
        <time>2014-01-31T12:15:17.000Z</time>
      </trkpt>
      <trkpt lat="45.56951" lon="6.57012">
        <ele>2121.8000488281</ele>
        <time>2014-01-31T12:15:18.000Z</time>
      </trkpt>
      <trkpt lat="45.56952" lon="6.57012">
        <ele>2121.6000976562</ele>
        <time>2014-01-31T12:15:19.000Z</time>
      </trkpt>
      <trkpt lat="45.56952" lon="6.57012">
        <ele>2121.3999023438</ele>
        <time>2014-01-31T12:15:20.000Z</time>
      </trkpt>
      <trkpt lat="45.56952" lon="6.57012">
        <ele>2121.3999023438</ele>
        <time>2014-01-31T12:15:21.000Z</time>
      </trkpt>
      <trkpt lat="45.56952" lon="6.57012">
        <ele>2121.3999023438</ele>
        <time>2014-01-31T12:15:22.000Z</time>
      </trkpt>
      <trkpt lat="45.56952" lon="6.57012">
        <ele>2121.3999023438</ele>
        <time>2014-01-31T12:15:23.000Z</time>
      </trkpt>
      <trkpt lat="45.56952" lon="6.57012">
        <ele>2121.3999023438</ele>
        <time>2014-01-31T12:15:24.000Z</time>
      </trkpt>
      <trkpt lat="45.56952" lon="6.57012">
        <ele>2121.3999023438</ele>
        <time>2014-01-31T12:15:25.000Z</time>
      </trkpt>
      <trkpt lat="45.56952" lon="6.57012">
        <ele>2121.6000976562</ele>
        <time>2014-01-31T12:15:26.000Z</time>
      </trkpt>
      <trkpt lat="45.56952" lon="6.57012">
        <ele>2121.6000976562</ele>
        <time>2014-01-31T12:15:27.000Z</time>
      </trkpt>
      <trkpt lat="45.56952" lon="6.57012">
        <ele>2121.6000976562</ele>
        <time>2014-01-31T12:15:28.000Z</time>
      </trkpt>
      <trkpt lat="45.56952" lon="6.57012">
        <ele>2121.8000488281</ele>
        <time>2014-01-31T12:15:29.000Z</time>
      </trkpt>
      <trkpt lat="45.56952" lon="6.57012">
        <ele>2121.8000488281</ele>
        <time>2014-01-31T12:15:30.000Z</time>
      </trkpt>
      <trkpt lat="45.56952" lon="6.57012">
        <ele>2121.8000488281</ele>
        <time>2014-01-31T12:15:31.000Z</time>
      </trkpt>
      <trkpt lat="45.56952" lon="6.57012">
        <ele>2121.8000488281</ele>
        <time>2014-01-31T12:15:35.000Z</time>
      </trkpt>
      <trkpt lat="45.56952" lon="6.57012">
        <ele>2121.8000488281</ele>
        <time>2014-01-31T12:15:36.000Z</time>
      </trkpt>
      <trkpt lat="45.56952" lon="6.57012">
        <ele>2121.6000976562</ele>
        <time>2014-01-31T12:15:37.000Z</time>
      </trkpt>
      <trkpt lat="45.56952" lon="6.57012">
        <ele>2121.6000976562</ele>
        <time>2014-01-31T12:15:38.000Z</time>
      </trkpt>
      <trkpt lat="45.56952" lon="6.57012">
        <ele>2121.6000976562</ele>
        <time>2014-01-31T12:15:39.000Z</time>
      </trkpt>
      <trkpt lat="45.56952" lon="6.57012">
        <ele>2121.6000976562</ele>
        <time>2014-01-31T12:15:40.000Z</time>
      </trkpt>
      <trkpt lat="45.56952" lon="6.57012">
        <ele>2121.6000976562</ele>
        <time>2014-01-31T12:15:41.000Z</time>
      </trkpt>
      <trkpt lat="45.56952" lon="6.57012">
        <ele>2121.6000976562</ele>
        <time>2014-01-31T12:15:42.000Z</time>
      </trkpt>
      <trkpt lat="45.56952" lon="6.57012">
        <ele>2121.6000976562</ele>
        <time>2014-01-31T12:15:43.000Z</time>
      </trkpt>
      <trkpt lat="45.56952" lon="6.57012">
        <ele>2121.6000976562</ele>
        <time>2014-01-31T12:15:44.000Z</time>
      </trkpt>
      <trkpt lat="45.56952" lon="6.57012">
        <ele>2121.6000976562</ele>
        <time>2014-01-31T12:15:45.000Z</time>
      </trkpt>
      <trkpt lat="45.56952" lon="6.57012">
        <ele>2121.6000976562</ele>
        <time>2014-01-31T12:15:46.000Z</time>
      </trkpt>
      <trkpt lat="45.56952" lon="6.57012">
        <ele>2121.6000976562</ele>
        <time>2014-01-31T12:15:47.000Z</time>
      </trkpt>
      <trkpt lat="45.56952" lon="6.57012">
        <ele>2121.3999023438</ele>
        <time>2014-01-31T12:15:48.000Z</time>
      </trkpt>
      <trkpt lat="45.56952" lon="6.57012">
        <ele>2121.3999023438</ele>
        <time>2014-01-31T12:15:49.000Z</time>
      </trkpt>
      <trkpt lat="45.56952" lon="6.57012">
        <ele>2121.3999023438</ele>
        <time>2014-01-31T12:15:50.000Z</time>
      </trkpt>
      <trkpt lat="45.56952" lon="6.57012">
        <ele>2121.1999511719</ele>
        <time>2014-01-31T12:15:51.000Z</time>
      </trkpt>
      <trkpt lat="45.56952" lon="6.57012">
        <ele>2121.1999511719</ele>
        <time>2014-01-31T12:15:52.000Z</time>
      </trkpt>
      <trkpt lat="45.56952" lon="6.57015">
        <ele>2121.1999511719</ele>
        <time>2014-01-31T12:15:53.000Z</time>
      </trkpt>
      <trkpt lat="45.56951" lon="6.57019">
        <ele>2121.1999511719</ele>
        <time>2014-01-31T12:15:54.000Z</time>
      </trkpt>
      <trkpt lat="45.56949" lon="6.5702">
        <ele>2121</ele>
        <time>2014-01-31T12:15:55.000Z</time>
      </trkpt>
      <trkpt lat="45.56947" lon="6.57018">
        <ele>2120.6000976562</ele>
        <time>2014-01-31T12:15:56.000Z</time>
      </trkpt>
      <trkpt lat="45.56945" lon="6.57016">
        <ele>2120.3999023438</ele>
        <time>2014-01-31T12:15:57.000Z</time>
      </trkpt>
      <trkpt lat="45.56941" lon="6.57016">
        <ele>2120</ele>
        <time>2014-01-31T12:15:58.000Z</time>
      </trkpt>
      <trkpt lat="45.56939" lon="6.5702">
        <ele>2119.3999023438</ele>
        <time>2014-01-31T12:15:59.000Z</time>
      </trkpt>
      <trkpt lat="45.56937" lon="6.57025">
        <ele>2118.3999023438</ele>
        <time>2014-01-31T12:16:00.000Z</time>
      </trkpt>
      <trkpt lat="45.56934" lon="6.57032">
        <ele>2117.6000976562</ele>
        <time>2014-01-31T12:16:01.000Z</time>
      </trkpt>
      <trkpt lat="45.56933" lon="6.57039">
        <ele>2116.6000976562</ele>
        <time>2014-01-31T12:16:02.000Z</time>
      </trkpt>
      <trkpt lat="45.5693" lon="6.57046">
        <ele>2115.3999023438</ele>
        <time>2014-01-31T12:16:03.000Z</time>
      </trkpt>
      <trkpt lat="45.56927" lon="6.57055">
        <ele>2114</ele>
        <time>2014-01-31T12:16:04.000Z</time>
      </trkpt>
      <trkpt lat="45.56923" lon="6.57066">
        <ele>2112.3999023438</ele>
        <time>2014-01-31T12:16:05.000Z</time>
      </trkpt>
      <trkpt lat="45.5692" lon="6.57078">
        <ele>2110.1999511719</ele>
        <time>2014-01-31T12:16:06.000Z</time>
      </trkpt>
      <trkpt lat="45.56918" lon="6.57089">
        <ele>2107.8000488281</ele>
        <time>2014-01-31T12:16:07.000Z</time>
      </trkpt>
      <trkpt lat="45.56917" lon="6.57097">
        <ele>2102</ele>
        <time>2014-01-31T12:16:08.000Z</time>
      </trkpt>
      <trkpt lat="45.56917" lon="6.57106">
        <ele>2099.1999511719</ele>
        <time>2014-01-31T12:16:09.000Z</time>
      </trkpt>
      <trkpt lat="45.56919" lon="6.57114">
        <ele>2096.6000976562</ele>
        <time>2014-01-31T12:16:10.000Z</time>
      </trkpt>
      <trkpt lat="45.5692" lon="6.57122">
        <ele>2094.8000488281</ele>
        <time>2014-01-31T12:16:11.000Z</time>
      </trkpt>
      <trkpt lat="45.56922" lon="6.57129">
        <ele>2093.1999511719</ele>
        <time>2014-01-31T12:16:12.000Z</time>
      </trkpt>
      <trkpt lat="45.56925" lon="6.57137">
        <ele>2091.8000488281</ele>
        <time>2014-01-31T12:16:13.000Z</time>
      </trkpt>
      <trkpt lat="45.56926" lon="6.57145">
        <ele>2090.3999023438</ele>
        <time>2014-01-31T12:16:14.000Z</time>
      </trkpt>
      <trkpt lat="45.56927" lon="6.57154">
        <ele>2089</ele>
        <time>2014-01-31T12:16:15.000Z</time>
      </trkpt>
      <trkpt lat="45.56927" lon="6.57163">
        <ele>2088</ele>
        <time>2014-01-31T12:16:16.000Z</time>
      </trkpt>
      <trkpt lat="45.56928" lon="6.57171">
        <ele>2087</ele>
        <time>2014-01-31T12:16:17.000Z</time>
      </trkpt>
      <trkpt lat="45.56929" lon="6.5718">
        <ele>2086.1999511719</ele>
        <time>2014-01-31T12:16:18.000Z</time>
      </trkpt>
      <trkpt lat="45.56934" lon="6.57186">
        <ele>2085</ele>
        <time>2014-01-31T12:16:19.000Z</time>
      </trkpt>
      <trkpt lat="45.56938" lon="6.57192">
        <ele>2083.6000976562</ele>
        <time>2014-01-31T12:16:20.000Z</time>
      </trkpt>
      <trkpt lat="45.56942" lon="6.57199">
        <ele>2082.1999511719</ele>
        <time>2014-01-31T12:16:21.000Z</time>
      </trkpt>
      <trkpt lat="45.56947" lon="6.57205">
        <ele>2080.8000488281</ele>
        <time>2014-01-31T12:16:22.000Z</time>
      </trkpt>
      <trkpt lat="45.5695" lon="6.57212">
        <ele>2079.3999023438</ele>
        <time>2014-01-31T12:16:23.000Z</time>
      </trkpt>
      <trkpt lat="45.56953" lon="6.57217">
        <ele>2078</ele>
        <time>2014-01-31T12:16:24.000Z</time>
      </trkpt>
      <trkpt lat="45.56956" lon="6.57224">
        <ele>2076.6000976562</ele>
        <time>2014-01-31T12:16:25.000Z</time>
      </trkpt>
      <trkpt lat="45.5696" lon="6.57226">
        <ele>2075.3999023438</ele>
        <time>2014-01-31T12:16:26.000Z</time>
      </trkpt>
      <trkpt lat="45.56963" lon="6.57227">
        <ele>2073.8000488281</ele>
        <time>2014-01-31T12:16:27.000Z</time>
      </trkpt>
      <trkpt lat="45.56966" lon="6.57227">
        <ele>2072</ele>
        <time>2014-01-31T12:16:28.000Z</time>
      </trkpt>
      <trkpt lat="45.56969" lon="6.57227">
        <ele>2070</ele>
        <time>2014-01-31T12:16:29.000Z</time>
      </trkpt>
      <trkpt lat="45.56972" lon="6.57228">
        <ele>2068.6000976562</ele>
        <time>2014-01-31T12:16:30.000Z</time>
      </trkpt>
      <trkpt lat="45.56975" lon="6.57229">
        <ele>2067.8000488281</ele>
        <time>2014-01-31T12:16:31.000Z</time>
      </trkpt>
      <trkpt lat="45.56976" lon="6.57234">
        <ele>2066.1999511719</ele>
        <time>2014-01-31T12:16:32.000Z</time>
      </trkpt>
      <trkpt lat="45.56977" lon="6.57238">
        <ele>2065.3999023438</ele>
        <time>2014-01-31T12:16:33.000Z</time>
      </trkpt>
      <trkpt lat="45.56978" lon="6.57243">
        <ele>2064.8000488281</ele>
        <time>2014-01-31T12:16:34.000Z</time>
      </trkpt>
      <trkpt lat="45.56979" lon="6.57249">
        <ele>2064</ele>
        <time>2014-01-31T12:16:35.000Z</time>
      </trkpt>
      <trkpt lat="45.56979" lon="6.57255">
        <ele>2062.3999023438</ele>
        <time>2014-01-31T12:16:36.000Z</time>
      </trkpt>
      <trkpt lat="45.56978" lon="6.57261">
        <ele>2060.3999023438</ele>
        <time>2014-01-31T12:16:37.000Z</time>
      </trkpt>
      <trkpt lat="45.56979" lon="6.57265">
        <ele>2058.1999511719</ele>
        <time>2014-01-31T12:16:38.000Z</time>
      </trkpt>
      <trkpt lat="45.56982" lon="6.5727">
        <ele>2055.8000488281</ele>
        <time>2014-01-31T12:16:39.000Z</time>
      </trkpt>
      <trkpt lat="45.56986" lon="6.57276">
        <ele>2053.3999023438</ele>
        <time>2014-01-31T12:16:40.000Z</time>
      </trkpt>
      <trkpt lat="45.56991" lon="6.57282">
        <ele>2051.3999023438</ele>
        <time>2014-01-31T12:16:41.000Z</time>
      </trkpt>
      <trkpt lat="45.56994" lon="6.5729">
        <ele>2049.6000976562</ele>
        <time>2014-01-31T12:16:42.000Z</time>
      </trkpt>
      <trkpt lat="45.56996" lon="6.57296">
        <ele>2047.5999755859</ele>
        <time>2014-01-31T12:16:43.000Z</time>
      </trkpt>
      <trkpt lat="45.56998" lon="6.57301">
        <ele>2045.5999755859</ele>
        <time>2014-01-31T12:16:44.000Z</time>
      </trkpt>
      <trkpt lat="45.56999" lon="6.57306">
        <ele>2043.5999755859</ele>
        <time>2014-01-31T12:16:45.000Z</time>
      </trkpt>
      <trkpt lat="45.57001" lon="6.57313">
        <ele>2041.1999511719</ele>
        <time>2014-01-31T12:16:46.000Z</time>
      </trkpt>
      <trkpt lat="45.57002" lon="6.57319">
        <ele>2038.8000488281</ele>
        <time>2014-01-31T12:16:47.000Z</time>
      </trkpt>
      <trkpt lat="45.57002" lon="6.57324">
        <ele>2036.5999755859</ele>
        <time>2014-01-31T12:16:48.000Z</time>
      </trkpt>
      <trkpt lat="45.56999" lon="6.57329">
        <ele>2035</ele>
        <time>2014-01-31T12:16:49.000Z</time>
      </trkpt>
      <trkpt lat="45.56997" lon="6.57334">
        <ele>2033.8000488281</ele>
        <time>2014-01-31T12:16:50.000Z</time>
      </trkpt>
      <trkpt lat="45.56995" lon="6.57337">
        <ele>2032.5999755859</ele>
        <time>2014-01-31T12:16:51.000Z</time>
      </trkpt>
      <trkpt lat="45.56995" lon="6.5734">
        <ele>2031.4000244141</ele>
        <time>2014-01-31T12:16:52.000Z</time>
      </trkpt>
      <trkpt lat="45.56994" lon="6.57341">
        <ele>2030.1999511719</ele>
        <time>2014-01-31T12:16:53.000Z</time>
      </trkpt>
      <trkpt lat="45.56993" lon="6.57342">
        <ele>2028.5999755859</ele>
        <time>2014-01-31T12:16:54.000Z</time>
      </trkpt>
      <trkpt lat="45.56993" lon="6.57343">
        <ele>2027</ele>
        <time>2014-01-31T12:16:55.000Z</time>
      </trkpt>
      <trkpt lat="45.56993" lon="6.57343">
        <ele>2025</ele>
        <time>2014-01-31T12:16:56.000Z</time>
      </trkpt>
      <trkpt lat="45.56992" lon="6.57344">
        <ele>2024.5999755859</ele>
        <time>2014-01-31T12:16:57.000Z</time>
      </trkpt>
      <trkpt lat="45.56993" lon="6.57347">
        <ele>2024.4000244141</ele>
        <time>2014-01-31T12:16:58.000Z</time>
      </trkpt>
      <trkpt lat="45.56993" lon="6.57351">
        <ele>2024.1999511719</ele>
        <time>2014-01-31T12:16:59.000Z</time>
      </trkpt>
      <trkpt lat="45.56995" lon="6.57357">
        <ele>2023.8000488281</ele>
        <time>2014-01-31T12:17:00.000Z</time>
      </trkpt>
      <trkpt lat="45.56995" lon="6.5736">
        <ele>2023.1999511719</ele>
        <time>2014-01-31T12:17:01.000Z</time>
      </trkpt>
      <trkpt lat="45.56996" lon="6.57361">
        <ele>2022.4000244141</ele>
        <time>2014-01-31T12:17:02.000Z</time>
      </trkpt>
      <trkpt lat="45.56996" lon="6.5736">
        <ele>2021.5999755859</ele>
        <time>2014-01-31T12:17:03.000Z</time>
      </trkpt>
      <trkpt lat="45.56996" lon="6.57359">
        <ele>2021</ele>
        <time>2014-01-31T12:17:04.000Z</time>
      </trkpt>
      <trkpt lat="45.56997" lon="6.57359">
        <ele>2020.5999755859</ele>
        <time>2014-01-31T12:17:05.000Z</time>
      </trkpt>
      <trkpt lat="45.56997" lon="6.57359">
        <ele>2020.4000244141</ele>
        <time>2014-01-31T12:17:06.000Z</time>
      </trkpt>
      <trkpt lat="45.56997" lon="6.57359">
        <ele>2020</ele>
        <time>2014-01-31T12:17:07.000Z</time>
      </trkpt>
      <trkpt lat="45.56997" lon="6.57359">
        <ele>2019.5999755859</ele>
        <time>2014-01-31T12:17:08.000Z</time>
      </trkpt>
      <trkpt lat="45.56997" lon="6.57359">
        <ele>2019.5999755859</ele>
        <time>2014-01-31T12:17:09.000Z</time>
      </trkpt>
      <trkpt lat="45.56997" lon="6.57359">
        <ele>2019.4000244141</ele>
        <time>2014-01-31T12:17:10.000Z</time>
      </trkpt>
      <trkpt lat="45.56997" lon="6.57359">
        <ele>2019.4000244141</ele>
        <time>2014-01-31T12:17:11.000Z</time>
      </trkpt>
      <trkpt lat="45.56997" lon="6.57359">
        <ele>2019.4000244141</ele>
        <time>2014-01-31T12:17:12.000Z</time>
      </trkpt>
      <trkpt lat="45.56997" lon="6.57359">
        <ele>2019.4000244141</ele>
        <time>2014-01-31T12:17:13.000Z</time>
      </trkpt>
      <trkpt lat="45.56997" lon="6.57359">
        <ele>2019.4000244141</ele>
        <time>2014-01-31T12:17:14.000Z</time>
      </trkpt>
      <trkpt lat="45.56997" lon="6.57359">
        <ele>2019.4000244141</ele>
        <time>2014-01-31T12:17:15.000Z</time>
      </trkpt>
      <trkpt lat="45.56997" lon="6.57359">
        <ele>2019.4000244141</ele>
        <time>2014-01-31T12:17:16.000Z</time>
      </trkpt>
      <trkpt lat="45.56997" lon="6.57359">
        <ele>2019.4000244141</ele>
        <time>2014-01-31T12:17:17.000Z</time>
      </trkpt>
      <trkpt lat="45.56997" lon="6.57359">
        <ele>2019.4000244141</ele>
        <time>2014-01-31T12:17:18.000Z</time>
      </trkpt>
      <trkpt lat="45.56997" lon="6.57359">
        <ele>2019.4000244141</ele>
        <time>2014-01-31T12:17:19.000Z</time>
      </trkpt>
      <trkpt lat="45.56997" lon="6.57359">
        <ele>2019.4000244141</ele>
        <time>2014-01-31T12:17:20.000Z</time>
      </trkpt>
      <trkpt lat="45.56997" lon="6.57359">
        <ele>2019.4000244141</ele>
        <time>2014-01-31T12:17:21.000Z</time>
      </trkpt>
      <trkpt lat="45.56997" lon="6.57359">
        <ele>2019.1999511719</ele>
        <time>2014-01-31T12:17:22.000Z</time>
      </trkpt>
      <trkpt lat="45.56997" lon="6.57359">
        <ele>2019.1999511719</ele>
        <time>2014-01-31T12:17:23.000Z</time>
      </trkpt>
      <trkpt lat="45.56997" lon="6.57359">
        <ele>2019.1999511719</ele>
        <time>2014-01-31T12:17:24.000Z</time>
      </trkpt>
      <trkpt lat="45.56997" lon="6.57359">
        <ele>2019.1999511719</ele>
        <time>2014-01-31T12:17:25.000Z</time>
      </trkpt>
      <trkpt lat="45.56997" lon="6.57359">
        <ele>2019.1999511719</ele>
        <time>2014-01-31T12:17:26.000Z</time>
      </trkpt>
      <trkpt lat="45.56997" lon="6.57359">
        <ele>2019</ele>
        <time>2014-01-31T12:17:27.000Z</time>
      </trkpt>
      <trkpt lat="45.56997" lon="6.57359">
        <ele>2019</ele>
        <time>2014-01-31T12:17:28.000Z</time>
      </trkpt>
      <trkpt lat="45.56997" lon="6.57359">
        <ele>2019</ele>
        <time>2014-01-31T12:17:29.000Z</time>
      </trkpt>
      <trkpt lat="45.56997" lon="6.57359">
        <ele>2019</ele>
        <time>2014-01-31T12:17:30.000Z</time>
      </trkpt>
      <trkpt lat="45.56997" lon="6.57359">
        <ele>2019</ele>
        <time>2014-01-31T12:17:31.000Z</time>
      </trkpt>
      <trkpt lat="45.56997" lon="6.57359">
        <ele>2018.8000488281</ele>
        <time>2014-01-31T12:17:32.000Z</time>
      </trkpt>
      <trkpt lat="45.56997" lon="6.57359">
        <ele>2018.8000488281</ele>
        <time>2014-01-31T12:17:33.000Z</time>
      </trkpt>
      <trkpt lat="45.56997" lon="6.57359">
        <ele>2018.8000488281</ele>
        <time>2014-01-31T12:17:34.000Z</time>
      </trkpt>
      <trkpt lat="45.56996" lon="6.57358">
        <ele>2018.8000488281</ele>
        <time>2014-01-31T12:17:35.000Z</time>
      </trkpt>
      <trkpt lat="45.56996" lon="6.57355">
        <ele>2018.8000488281</ele>
        <time>2014-01-31T12:17:37.000Z</time>
      </trkpt>
      <trkpt lat="45.56996" lon="6.57355">
        <ele>2018.8000488281</ele>
        <time>2014-01-31T12:17:38.000Z</time>
      </trkpt>
      <trkpt lat="45.56996" lon="6.57355">
        <ele>2018.8000488281</ele>
        <time>2014-01-31T12:17:40.000Z</time>
      </trkpt>
      <trkpt lat="45.56996" lon="6.57355">
        <ele>2019</ele>
        <time>2014-01-31T12:17:41.000Z</time>
      </trkpt>
      <trkpt lat="45.56996" lon="6.57355">
        <ele>2019</ele>
        <time>2014-01-31T12:17:42.000Z</time>
      </trkpt>
      <trkpt lat="45.56996" lon="6.57355">
        <ele>2019</ele>
        <time>2014-01-31T12:17:43.000Z</time>
      </trkpt>
      <trkpt lat="45.56996" lon="6.57355">
        <ele>2019</ele>
        <time>2014-01-31T12:17:44.000Z</time>
      </trkpt>
      <trkpt lat="45.56996" lon="6.57355">
        <ele>2019</ele>
        <time>2014-01-31T12:17:45.000Z</time>
      </trkpt>
      <trkpt lat="45.56996" lon="6.57355">
        <ele>2018.8000488281</ele>
        <time>2014-01-31T12:17:46.000Z</time>
      </trkpt>
      <trkpt lat="45.56996" lon="6.57355">
        <ele>2018.8000488281</ele>
        <time>2014-01-31T12:17:47.000Z</time>
      </trkpt>
      <trkpt lat="45.56996" lon="6.57355">
        <ele>2018.8000488281</ele>
        <time>2014-01-31T12:17:48.000Z</time>
      </trkpt>
      <trkpt lat="45.56996" lon="6.57355">
        <ele>2018.8000488281</ele>
        <time>2014-01-31T12:17:49.000Z</time>
      </trkpt>
      <trkpt lat="45.56996" lon="6.57355">
        <ele>2018.8000488281</ele>
        <time>2014-01-31T12:17:50.000Z</time>
      </trkpt>
      <trkpt lat="45.56996" lon="6.57355">
        <ele>2018.5999755859</ele>
        <time>2014-01-31T12:17:51.000Z</time>
      </trkpt>
      <trkpt lat="45.56996" lon="6.57355">
        <ele>2018.8000488281</ele>
        <time>2014-01-31T12:17:53.000Z</time>
      </trkpt>
      <trkpt lat="45.56996" lon="6.57355">
        <ele>2018.8000488281</ele>
        <time>2014-01-31T12:17:54.000Z</time>
      </trkpt>
      <trkpt lat="45.56996" lon="6.57355">
        <ele>2018.8000488281</ele>
        <time>2014-01-31T12:17:55.000Z</time>
      </trkpt>
      <trkpt lat="45.56996" lon="6.57355">
        <ele>2018.8000488281</ele>
        <time>2014-01-31T12:17:56.000Z</time>
      </trkpt>
      <trkpt lat="45.56996" lon="6.57355">
        <ele>2018.5999755859</ele>
        <time>2014-01-31T12:17:57.000Z</time>
      </trkpt>
      <trkpt lat="45.56996" lon="6.57355">
        <ele>2018.8000488281</ele>
        <time>2014-01-31T12:17:58.000Z</time>
      </trkpt>
      <trkpt lat="45.56996" lon="6.57355">
        <ele>2018.8000488281</ele>
        <time>2014-01-31T12:17:59.000Z</time>
      </trkpt>
      <trkpt lat="45.56996" lon="6.57355">
        <ele>2018.5999755859</ele>
        <time>2014-01-31T12:18:00.000Z</time>
      </trkpt>
      <trkpt lat="45.56996" lon="6.57355">
        <ele>2018.4000244141</ele>
        <time>2014-01-31T12:18:01.000Z</time>
      </trkpt>
      <trkpt lat="45.56996" lon="6.57355">
        <ele>2018.1999511719</ele>
        <time>2014-01-31T12:18:02.000Z</time>
      </trkpt>
      <trkpt lat="45.56996" lon="6.57355">
        <ele>2018</ele>
        <time>2014-01-31T12:18:03.000Z</time>
      </trkpt>
      <trkpt lat="45.56996" lon="6.57355">
        <ele>2018</ele>
        <time>2014-01-31T12:18:04.000Z</time>
      </trkpt>
      <trkpt lat="45.56996" lon="6.57355">
        <ele>2018</ele>
        <time>2014-01-31T12:18:05.000Z</time>
      </trkpt>
      <trkpt lat="45.56996" lon="6.57355">
        <ele>2018</ele>
        <time>2014-01-31T12:18:06.000Z</time>
      </trkpt>
      <trkpt lat="45.56996" lon="6.57355">
        <ele>2018.4000244141</ele>
        <time>2014-01-31T12:18:07.000Z</time>
      </trkpt>
      <trkpt lat="45.56996" lon="6.57355">
        <ele>2019.1999511719</ele>
        <time>2014-01-31T12:18:08.000Z</time>
      </trkpt>
      <trkpt lat="45.56996" lon="6.57355">
        <ele>2019.4000244141</ele>
        <time>2014-01-31T12:18:09.000Z</time>
      </trkpt>
      <trkpt lat="45.56996" lon="6.57355">
        <ele>2019.4000244141</ele>
        <time>2014-01-31T12:18:10.000Z</time>
      </trkpt>
      <trkpt lat="45.56996" lon="6.57355">
        <ele>2019.1999511719</ele>
        <time>2014-01-31T12:18:12.000Z</time>
      </trkpt>
      <trkpt lat="45.56996" lon="6.57355">
        <ele>2019</ele>
        <time>2014-01-31T12:18:13.000Z</time>
      </trkpt>
      <trkpt lat="45.56996" lon="6.57355">
        <ele>2019</ele>
        <time>2014-01-31T12:18:14.000Z</time>
      </trkpt>
      <trkpt lat="45.56996" lon="6.57355">
        <ele>2018.8000488281</ele>
        <time>2014-01-31T12:18:15.000Z</time>
      </trkpt>
      <trkpt lat="45.56996" lon="6.57355">
        <ele>2018.8000488281</ele>
        <time>2014-01-31T12:18:16.000Z</time>
      </trkpt>
      <trkpt lat="45.56996" lon="6.57355">
        <ele>2018.8000488281</ele>
        <time>2014-01-31T12:18:17.000Z</time>
      </trkpt>
      <trkpt lat="45.56996" lon="6.57355">
        <ele>2018.8000488281</ele>
        <time>2014-01-31T12:18:18.000Z</time>
      </trkpt>
      <trkpt lat="45.56996" lon="6.57355">
        <ele>2018.8000488281</ele>
        <time>2014-01-31T12:18:19.000Z</time>
      </trkpt>
      <trkpt lat="45.56996" lon="6.57355">
        <ele>2018.8000488281</ele>
        <time>2014-01-31T12:18:21.000Z</time>
      </trkpt>
      <trkpt lat="45.56996" lon="6.57355">
        <ele>2018.8000488281</ele>
        <time>2014-01-31T12:18:24.000Z</time>
      </trkpt>
      <trkpt lat="45.56996" lon="6.57355">
        <ele>2018.8000488281</ele>
        <time>2014-01-31T12:18:25.000Z</time>
      </trkpt>
      <trkpt lat="45.56996" lon="6.57355">
        <ele>2018.8000488281</ele>
        <time>2014-01-31T12:18:26.000Z</time>
      </trkpt>
      <trkpt lat="45.56996" lon="6.57355">
        <ele>2018.8000488281</ele>
        <time>2014-01-31T12:18:27.000Z</time>
      </trkpt>
      <trkpt lat="45.56996" lon="6.57355">
        <ele>2018.8000488281</ele>
        <time>2014-01-31T12:18:30.000Z</time>
      </trkpt>
      <trkpt lat="45.56996" lon="6.57355">
        <ele>2018.8000488281</ele>
        <time>2014-01-31T12:18:31.000Z</time>
      </trkpt>
      <trkpt lat="45.56996" lon="6.57355">
        <ele>2019</ele>
        <time>2014-01-31T12:18:32.000Z</time>
      </trkpt>
      <trkpt lat="45.56999" lon="6.57353">
        <ele>2019</ele>
        <time>2014-01-31T12:18:33.000Z</time>
      </trkpt>
      <trkpt lat="45.56999" lon="6.57353">
        <ele>2019</ele>
        <time>2014-01-31T12:18:34.000Z</time>
      </trkpt>
      <trkpt lat="45.56999" lon="6.57353">
        <ele>2019.1999511719</ele>
        <time>2014-01-31T12:18:35.000Z</time>
      </trkpt>
      <trkpt lat="45.56999" lon="6.57353">
        <ele>2019.1999511719</ele>
        <time>2014-01-31T12:18:36.000Z</time>
      </trkpt>
      <trkpt lat="45.56999" lon="6.57353">
        <ele>2019.4000244141</ele>
        <time>2014-01-31T12:18:37.000Z</time>
      </trkpt>
      <trkpt lat="45.57" lon="6.57353">
        <ele>2019.4000244141</ele>
        <time>2014-01-31T12:18:38.000Z</time>
      </trkpt>
      <trkpt lat="45.57" lon="6.57353">
        <ele>2019.4000244141</ele>
        <time>2014-01-31T12:18:39.000Z</time>
      </trkpt>
      <trkpt lat="45.57001" lon="6.57353">
        <ele>2019.4000244141</ele>
        <time>2014-01-31T12:18:40.000Z</time>
      </trkpt>
      <trkpt lat="45.57001" lon="6.57353">
        <ele>2019.4000244141</ele>
        <time>2014-01-31T12:18:41.000Z</time>
      </trkpt>
      <trkpt lat="45.57001" lon="6.57353">
        <ele>2019.4000244141</ele>
        <time>2014-01-31T12:18:42.000Z</time>
      </trkpt>
      <trkpt lat="45.57001" lon="6.57353">
        <ele>2019.4000244141</ele>
        <time>2014-01-31T12:18:43.000Z</time>
      </trkpt>
      <trkpt lat="45.57002" lon="6.57352">
        <ele>2019.4000244141</ele>
        <time>2014-01-31T12:18:46.000Z</time>
      </trkpt>
      <trkpt lat="45.57002" lon="6.57352">
        <ele>2019.1999511719</ele>
        <time>2014-01-31T12:18:47.000Z</time>
      </trkpt>
      <trkpt lat="45.57002" lon="6.57352">
        <ele>2019.1999511719</ele>
        <time>2014-01-31T12:18:48.000Z</time>
      </trkpt>
      <trkpt lat="45.57002" lon="6.57352">
        <ele>2019</ele>
        <time>2014-01-31T12:18:49.000Z</time>
      </trkpt>
      <trkpt lat="45.57002" lon="6.57352">
        <ele>2018.8000488281</ele>
        <time>2014-01-31T12:18:50.000Z</time>
      </trkpt>
      <trkpt lat="45.57002" lon="6.57352">
        <ele>2018.8000488281</ele>
        <time>2014-01-31T12:18:51.000Z</time>
      </trkpt>
      <trkpt lat="45.57002" lon="6.57352">
        <ele>2018.8000488281</ele>
        <time>2014-01-31T12:18:52.000Z</time>
      </trkpt>
      <trkpt lat="45.57002" lon="6.57352">
        <ele>2018.8000488281</ele>
        <time>2014-01-31T12:18:53.000Z</time>
      </trkpt>
      <trkpt lat="45.57002" lon="6.57352">
        <ele>2018.8000488281</ele>
        <time>2014-01-31T12:18:55.000Z</time>
      </trkpt>
      <trkpt lat="45.57002" lon="6.57352">
        <ele>2018.8000488281</ele>
        <time>2014-01-31T12:18:56.000Z</time>
      </trkpt>
      <trkpt lat="45.57002" lon="6.57352">
        <ele>2018.8000488281</ele>
        <time>2014-01-31T12:18:57.000Z</time>
      </trkpt>
      <trkpt lat="45.57002" lon="6.57352">
        <ele>2018.5999755859</ele>
        <time>2014-01-31T12:18:58.000Z</time>
      </trkpt>
      <trkpt lat="45.57002" lon="6.57352">
        <ele>2018.5999755859</ele>
        <time>2014-01-31T12:18:59.000Z</time>
      </trkpt>
      <trkpt lat="45.57002" lon="6.57352">
        <ele>2018.5999755859</ele>
        <time>2014-01-31T12:19:00.000Z</time>
      </trkpt>
      <trkpt lat="45.57002" lon="6.57352">
        <ele>2018.5999755859</ele>
        <time>2014-01-31T12:19:01.000Z</time>
      </trkpt>
      <trkpt lat="45.57002" lon="6.57352">
        <ele>2018.5999755859</ele>
        <time>2014-01-31T12:19:02.000Z</time>
      </trkpt>
      <trkpt lat="45.57002" lon="6.57352">
        <ele>2018.5999755859</ele>
        <time>2014-01-31T12:19:03.000Z</time>
      </trkpt>
      <trkpt lat="45.57002" lon="6.57352">
        <ele>2018.5999755859</ele>
        <time>2014-01-31T12:19:04.000Z</time>
      </trkpt>
      <trkpt lat="45.57002" lon="6.57352">
        <ele>2018.5999755859</ele>
        <time>2014-01-31T12:19:05.000Z</time>
      </trkpt>
      <trkpt lat="45.57002" lon="6.57352">
        <ele>2018.5999755859</ele>
        <time>2014-01-31T12:19:06.000Z</time>
      </trkpt>
      <trkpt lat="45.57002" lon="6.57352">
        <ele>2018.5999755859</ele>
        <time>2014-01-31T12:19:07.000Z</time>
      </trkpt>
      <trkpt lat="45.57002" lon="6.57352">
        <ele>2018.5999755859</ele>
        <time>2014-01-31T12:19:08.000Z</time>
      </trkpt>
      <trkpt lat="45.57002" lon="6.57352">
        <ele>2018.5999755859</ele>
        <time>2014-01-31T12:19:09.000Z</time>
      </trkpt>
      <trkpt lat="45.57002" lon="6.57352">
        <ele>2018.5999755859</ele>
        <time>2014-01-31T12:19:10.000Z</time>
      </trkpt>
      <trkpt lat="45.57002" lon="6.57352">
        <ele>2018.4000244141</ele>
        <time>2014-01-31T12:19:11.000Z</time>
      </trkpt>
      <trkpt lat="45.57002" lon="6.57352">
        <ele>2018.4000244141</ele>
        <time>2014-01-31T12:19:12.000Z</time>
      </trkpt>
      <trkpt lat="45.57002" lon="6.57352">
        <ele>2018.5999755859</ele>
        <time>2014-01-31T12:19:14.000Z</time>
      </trkpt>
      <trkpt lat="45.57002" lon="6.57352">
        <ele>2018.5999755859</ele>
        <time>2014-01-31T12:19:15.000Z</time>
      </trkpt>
      <trkpt lat="45.57002" lon="6.57352">
        <ele>2018.5999755859</ele>
        <time>2014-01-31T12:19:16.000Z</time>
      </trkpt>
      <trkpt lat="45.57002" lon="6.57352">
        <ele>2018.5999755859</ele>
        <time>2014-01-31T12:19:17.000Z</time>
      </trkpt>
      <trkpt lat="45.57002" lon="6.57352">
        <ele>2018.5999755859</ele>
        <time>2014-01-31T12:19:18.000Z</time>
      </trkpt>
      <trkpt lat="45.57002" lon="6.57352">
        <ele>2018.5999755859</ele>
        <time>2014-01-31T12:19:20.000Z</time>
      </trkpt>
      <trkpt lat="45.57002" lon="6.57352">
        <ele>2018.5999755859</ele>
        <time>2014-01-31T12:19:21.000Z</time>
      </trkpt>
      <trkpt lat="45.57002" lon="6.57352">
        <ele>2018.5999755859</ele>
        <time>2014-01-31T12:19:22.000Z</time>
      </trkpt>
      <trkpt lat="45.57002" lon="6.57352">
        <ele>2018.5999755859</ele>
        <time>2014-01-31T12:19:24.000Z</time>
      </trkpt>
      <trkpt lat="45.57003" lon="6.57352">
        <ele>2018.5999755859</ele>
        <time>2014-01-31T12:19:25.000Z</time>
      </trkpt>
      <trkpt lat="45.57003" lon="6.57352">
        <ele>2018.5999755859</ele>
        <time>2014-01-31T12:19:26.000Z</time>
      </trkpt>
      <trkpt lat="45.57003" lon="6.57352">
        <ele>2018.4000244141</ele>
        <time>2014-01-31T12:19:27.000Z</time>
      </trkpt>
      <trkpt lat="45.57003" lon="6.57352">
        <ele>2018.5999755859</ele>
        <time>2014-01-31T12:19:28.000Z</time>
      </trkpt>
      <trkpt lat="45.57003" lon="6.57352">
        <ele>2018.5999755859</ele>
        <time>2014-01-31T12:19:29.000Z</time>
      </trkpt>
      <trkpt lat="45.57003" lon="6.57352">
        <ele>2018.5999755859</ele>
        <time>2014-01-31T12:19:31.000Z</time>
      </trkpt>
      <trkpt lat="45.57003" lon="6.57352">
        <ele>2018.5999755859</ele>
        <time>2014-01-31T12:19:32.000Z</time>
      </trkpt>
      <trkpt lat="45.57003" lon="6.57352">
        <ele>2018.5999755859</ele>
        <time>2014-01-31T12:19:34.000Z</time>
      </trkpt>
      <trkpt lat="45.57003" lon="6.57352">
        <ele>2018.5999755859</ele>
        <time>2014-01-31T12:19:35.000Z</time>
      </trkpt>
      <trkpt lat="45.57003" lon="6.57352">
        <ele>2018.4000244141</ele>
        <time>2014-01-31T12:19:36.000Z</time>
      </trkpt>
      <trkpt lat="45.57003" lon="6.57352">
        <ele>2018.4000244141</ele>
        <time>2014-01-31T12:19:37.000Z</time>
      </trkpt>
      <trkpt lat="45.57003" lon="6.57352">
        <ele>2018.4000244141</ele>
        <time>2014-01-31T12:19:41.000Z</time>
      </trkpt>
      <trkpt lat="45.57003" lon="6.57352">
        <ele>2018.4000244141</ele>
        <time>2014-01-31T12:19:42.000Z</time>
      </trkpt>
      <trkpt lat="45.57003" lon="6.57352">
        <ele>2018.4000244141</ele>
        <time>2014-01-31T12:19:43.000Z</time>
      </trkpt>
      <trkpt lat="45.57003" lon="6.57352">
        <ele>2018.4000244141</ele>
        <time>2014-01-31T12:19:44.000Z</time>
      </trkpt>
      <trkpt lat="45.57003" lon="6.57352">
        <ele>2018.4000244141</ele>
        <time>2014-01-31T12:19:45.000Z</time>
      </trkpt>
      <trkpt lat="45.57003" lon="6.57352">
        <ele>2018.4000244141</ele>
        <time>2014-01-31T12:19:47.000Z</time>
      </trkpt>
      <trkpt lat="45.57003" lon="6.57352">
        <ele>2018.4000244141</ele>
        <time>2014-01-31T12:19:48.000Z</time>
      </trkpt>
      <trkpt lat="45.57003" lon="6.57352">
        <ele>2018.5999755859</ele>
        <time>2014-01-31T12:19:49.000Z</time>
      </trkpt>
      <trkpt lat="45.57003" lon="6.57352">
        <ele>2018.5999755859</ele>
        <time>2014-01-31T12:19:50.000Z</time>
      </trkpt>
      <trkpt lat="45.57003" lon="6.57352">
        <ele>2018.5999755859</ele>
        <time>2014-01-31T12:19:51.000Z</time>
      </trkpt>
      <trkpt lat="45.57003" lon="6.57352">
        <ele>2018.5999755859</ele>
        <time>2014-01-31T12:19:52.000Z</time>
      </trkpt>
      <trkpt lat="45.57003" lon="6.57352">
        <ele>2018.5999755859</ele>
        <time>2014-01-31T12:19:54.000Z</time>
      </trkpt>
      <trkpt lat="45.57003" lon="6.57352">
        <ele>2018.5999755859</ele>
        <time>2014-01-31T12:19:55.000Z</time>
      </trkpt>
      <trkpt lat="45.57003" lon="6.57352">
        <ele>2018.5999755859</ele>
        <time>2014-01-31T12:19:56.000Z</time>
      </trkpt>
      <trkpt lat="45.57003" lon="6.57352">
        <ele>2018.5999755859</ele>
        <time>2014-01-31T12:19:57.000Z</time>
      </trkpt>
      <trkpt lat="45.57003" lon="6.57352">
        <ele>2018.5999755859</ele>
        <time>2014-01-31T12:19:58.000Z</time>
      </trkpt>
      <trkpt lat="45.57003" lon="6.57352">
        <ele>2018.5999755859</ele>
        <time>2014-01-31T12:19:59.000Z</time>
      </trkpt>
      <trkpt lat="45.57003" lon="6.57352">
        <ele>2018.5999755859</ele>
        <time>2014-01-31T12:20:00.000Z</time>
      </trkpt>
      <trkpt lat="45.57003" lon="6.57352">
        <ele>2018.5999755859</ele>
        <time>2014-01-31T12:20:01.000Z</time>
      </trkpt>
      <trkpt lat="45.57003" lon="6.57352">
        <ele>2018.8000488281</ele>
        <time>2014-01-31T12:20:02.000Z</time>
      </trkpt>
      <trkpt lat="45.57003" lon="6.57352">
        <ele>2018.8000488281</ele>
        <time>2014-01-31T12:20:03.000Z</time>
      </trkpt>
      <trkpt lat="45.57003" lon="6.57351">
        <ele>2018.8000488281</ele>
        <time>2014-01-31T12:20:05.000Z</time>
      </trkpt>
      <trkpt lat="45.57003" lon="6.57351">
        <ele>2018.8000488281</ele>
        <time>2014-01-31T12:20:06.000Z</time>
      </trkpt>
      <trkpt lat="45.57003" lon="6.57351">
        <ele>2018.8000488281</ele>
        <time>2014-01-31T12:20:08.000Z</time>
      </trkpt>
      <trkpt lat="45.57003" lon="6.57351">
        <ele>2018.5999755859</ele>
        <time>2014-01-31T12:20:09.000Z</time>
      </trkpt>
      <trkpt lat="45.57003" lon="6.57351">
        <ele>2018.5999755859</ele>
        <time>2014-01-31T12:20:10.000Z</time>
      </trkpt>
      <trkpt lat="45.57003" lon="6.57351">
        <ele>2018.5999755859</ele>
        <time>2014-01-31T12:20:11.000Z</time>
      </trkpt>
      <trkpt lat="45.57003" lon="6.57351">
        <ele>2018.5999755859</ele>
        <time>2014-01-31T12:20:12.000Z</time>
      </trkpt>
      <trkpt lat="45.57003" lon="6.57351">
        <ele>2018.5999755859</ele>
        <time>2014-01-31T12:20:13.000Z</time>
      </trkpt>
      <trkpt lat="45.57003" lon="6.57351">
        <ele>2018.5999755859</ele>
        <time>2014-01-31T12:20:14.000Z</time>
      </trkpt>
      <trkpt lat="45.57003" lon="6.57351">
        <ele>2018.5999755859</ele>
        <time>2014-01-31T12:20:15.000Z</time>
      </trkpt>
      <trkpt lat="45.57003" lon="6.57351">
        <ele>2018.5999755859</ele>
        <time>2014-01-31T12:20:16.000Z</time>
      </trkpt>
      <trkpt lat="45.57003" lon="6.57351">
        <ele>2018.5999755859</ele>
        <time>2014-01-31T12:20:18.000Z</time>
      </trkpt>
      <trkpt lat="45.57003" lon="6.57351">
        <ele>2018.5999755859</ele>
        <time>2014-01-31T12:20:19.000Z</time>
      </trkpt>
      <trkpt lat="45.57003" lon="6.57351">
        <ele>2018.5999755859</ele>
        <time>2014-01-31T12:20:21.000Z</time>
      </trkpt>
      <trkpt lat="45.57003" lon="6.57351">
        <ele>2018.5999755859</ele>
        <time>2014-01-31T12:20:23.000Z</time>
      </trkpt>
      <trkpt lat="45.57003" lon="6.57351">
        <ele>2018.5999755859</ele>
        <time>2014-01-31T12:20:24.000Z</time>
      </trkpt>
      <trkpt lat="45.57003" lon="6.57351">
        <ele>2018.5999755859</ele>
        <time>2014-01-31T12:20:29.000Z</time>
      </trkpt>
      <trkpt lat="45.57003" lon="6.57351">
        <ele>2018.5999755859</ele>
        <time>2014-01-31T12:20:31.000Z</time>
      </trkpt>
      <trkpt lat="45.57003" lon="6.57351">
        <ele>2018.5999755859</ele>
        <time>2014-01-31T12:20:33.000Z</time>
      </trkpt>
      <trkpt lat="45.57003" lon="6.57351">
        <ele>2018.5999755859</ele>
        <time>2014-01-31T12:20:34.000Z</time>
      </trkpt>
      <trkpt lat="45.57003" lon="6.57351">
        <ele>2018.4000244141</ele>
        <time>2014-01-31T12:20:35.000Z</time>
      </trkpt>
      <trkpt lat="45.57003" lon="6.57351">
        <ele>2018.4000244141</ele>
        <time>2014-01-31T12:20:36.000Z</time>
      </trkpt>
      <trkpt lat="45.57003" lon="6.57351">
        <ele>2018.4000244141</ele>
        <time>2014-01-31T12:20:37.000Z</time>
      </trkpt>
      <trkpt lat="45.57003" lon="6.57351">
        <ele>2018.4000244141</ele>
        <time>2014-01-31T12:20:38.000Z</time>
      </trkpt>
      <trkpt lat="45.57003" lon="6.57351">
        <ele>2018.4000244141</ele>
        <time>2014-01-31T12:20:39.000Z</time>
      </trkpt>
      <trkpt lat="45.57003" lon="6.57351">
        <ele>2018.4000244141</ele>
        <time>2014-01-31T12:20:40.000Z</time>
      </trkpt>
      <trkpt lat="45.57003" lon="6.57351">
        <ele>2018.5999755859</ele>
        <time>2014-01-31T12:20:41.000Z</time>
      </trkpt>
      <trkpt lat="45.57003" lon="6.57351">
        <ele>2018.5999755859</ele>
        <time>2014-01-31T12:20:42.000Z</time>
      </trkpt>
      <trkpt lat="45.57003" lon="6.57351">
        <ele>2018.5999755859</ele>
        <time>2014-01-31T12:20:43.000Z</time>
      </trkpt>
      <trkpt lat="45.57003" lon="6.57351">
        <ele>2018.5999755859</ele>
        <time>2014-01-31T12:20:44.000Z</time>
      </trkpt>
      <trkpt lat="45.57003" lon="6.57351">
        <ele>2018.5999755859</ele>
        <time>2014-01-31T12:20:45.000Z</time>
      </trkpt>
      <trkpt lat="45.57003" lon="6.57351">
        <ele>2018.5999755859</ele>
        <time>2014-01-31T12:20:46.000Z</time>
      </trkpt>
      <trkpt lat="45.57003" lon="6.57351">
        <ele>2018.5999755859</ele>
        <time>2014-01-31T12:20:50.000Z</time>
      </trkpt>
      <trkpt lat="45.57003" lon="6.57351">
        <ele>2018.5999755859</ele>
        <time>2014-01-31T12:20:51.000Z</time>
      </trkpt>
      <trkpt lat="45.57003" lon="6.57351">
        <ele>2018.5999755859</ele>
        <time>2014-01-31T12:20:52.000Z</time>
      </trkpt>
      <trkpt lat="45.57003" lon="6.57351">
        <ele>2018.5999755859</ele>
        <time>2014-01-31T12:20:53.000Z</time>
      </trkpt>
      <trkpt lat="45.57003" lon="6.57351">
        <ele>2018.5999755859</ele>
        <time>2014-01-31T12:20:55.000Z</time>
      </trkpt>
      <trkpt lat="45.57003" lon="6.57351">
        <ele>2018.5999755859</ele>
        <time>2014-01-31T12:20:56.000Z</time>
      </trkpt>
      <trkpt lat="45.57003" lon="6.57351">
        <ele>2018.5999755859</ele>
        <time>2014-01-31T12:20:58.000Z</time>
      </trkpt>
      <trkpt lat="45.57003" lon="6.57351">
        <ele>2018.5999755859</ele>
        <time>2014-01-31T12:20:59.000Z</time>
      </trkpt>
      <trkpt lat="45.57003" lon="6.57351">
        <ele>2018.5999755859</ele>
        <time>2014-01-31T12:21:00.000Z</time>
      </trkpt>
      <trkpt lat="45.57003" lon="6.57351">
        <ele>2018.5999755859</ele>
        <time>2014-01-31T12:21:01.000Z</time>
      </trkpt>
      <trkpt lat="45.57003" lon="6.57351">
        <ele>2018.5999755859</ele>
        <time>2014-01-31T12:21:02.000Z</time>
      </trkpt>
      <trkpt lat="45.57003" lon="6.57351">
        <ele>2018.5999755859</ele>
        <time>2014-01-31T12:21:03.000Z</time>
      </trkpt>
      <trkpt lat="45.57003" lon="6.57351">
        <ele>2018.5999755859</ele>
        <time>2014-01-31T12:21:06.000Z</time>
      </trkpt>
      <trkpt lat="45.57003" lon="6.57351">
        <ele>2018.5999755859</ele>
        <time>2014-01-31T12:21:07.000Z</time>
      </trkpt>
      <trkpt lat="45.57003" lon="6.57351">
        <ele>2018.5999755859</ele>
        <time>2014-01-31T12:21:08.000Z</time>
      </trkpt>
      <trkpt lat="45.57003" lon="6.57351">
        <ele>2018.5999755859</ele>
        <time>2014-01-31T12:21:09.000Z</time>
      </trkpt>
      <trkpt lat="45.57003" lon="6.57351">
        <ele>2018.5999755859</ele>
        <time>2014-01-31T12:21:10.000Z</time>
      </trkpt>
      <trkpt lat="45.57003" lon="6.57351">
        <ele>2018.5999755859</ele>
        <time>2014-01-31T12:21:11.000Z</time>
      </trkpt>
      <trkpt lat="45.57003" lon="6.57351">
        <ele>2018.5999755859</ele>
        <time>2014-01-31T12:21:13.000Z</time>
      </trkpt>
      <trkpt lat="45.57003" lon="6.57351">
        <ele>2018.5999755859</ele>
        <time>2014-01-31T12:21:14.000Z</time>
      </trkpt>
      <trkpt lat="45.57003" lon="6.57351">
        <ele>2018.5999755859</ele>
        <time>2014-01-31T12:21:16.000Z</time>
      </trkpt>
      <trkpt lat="45.57003" lon="6.57351">
        <ele>2018.5999755859</ele>
        <time>2014-01-31T12:21:22.000Z</time>
      </trkpt>
      <trkpt lat="45.57003" lon="6.57351">
        <ele>2018.5999755859</ele>
        <time>2014-01-31T12:21:23.000Z</time>
      </trkpt>
      <trkpt lat="45.57003" lon="6.57351">
        <ele>2018.5999755859</ele>
        <time>2014-01-31T12:21:24.000Z</time>
      </trkpt>
      <trkpt lat="45.57003" lon="6.57352">
        <ele>2018.8000488281</ele>
        <time>2014-01-31T12:21:25.000Z</time>
      </trkpt>
      <trkpt lat="45.57003" lon="6.57352">
        <ele>2018.8000488281</ele>
        <time>2014-01-31T12:21:26.000Z</time>
      </trkpt>
      <trkpt lat="45.57003" lon="6.57352">
        <ele>2018.8000488281</ele>
        <time>2014-01-31T12:21:27.000Z</time>
      </trkpt>
      <trkpt lat="45.57003" lon="6.57352">
        <ele>2018.8000488281</ele>
        <time>2014-01-31T12:21:28.000Z</time>
      </trkpt>
      <trkpt lat="45.57003" lon="6.57352">
        <ele>2018.8000488281</ele>
        <time>2014-01-31T12:21:30.000Z</time>
      </trkpt>
      <trkpt lat="45.57003" lon="6.57352">
        <ele>2018.5999755859</ele>
        <time>2014-01-31T12:21:31.000Z</time>
      </trkpt>
      <trkpt lat="45.57003" lon="6.57352">
        <ele>2018.5999755859</ele>
        <time>2014-01-31T12:21:32.000Z</time>
      </trkpt>
      <trkpt lat="45.57003" lon="6.57352">
        <ele>2018.5999755859</ele>
        <time>2014-01-31T12:21:33.000Z</time>
      </trkpt>
      <trkpt lat="45.57003" lon="6.57352">
        <ele>2018.5999755859</ele>
        <time>2014-01-31T12:21:34.000Z</time>
      </trkpt>
      <trkpt lat="45.57003" lon="6.57352">
        <ele>2018.5999755859</ele>
        <time>2014-01-31T12:21:35.000Z</time>
      </trkpt>
      <trkpt lat="45.57003" lon="6.57352">
        <ele>2018.5999755859</ele>
        <time>2014-01-31T12:21:36.000Z</time>
      </trkpt>
      <trkpt lat="45.57003" lon="6.57352">
        <ele>2018.5999755859</ele>
        <time>2014-01-31T12:21:37.000Z</time>
      </trkpt>
      <trkpt lat="45.57003" lon="6.57352">
        <ele>2018.5999755859</ele>
        <time>2014-01-31T12:21:38.000Z</time>
      </trkpt>
      <trkpt lat="45.57003" lon="6.57352">
        <ele>2018.5999755859</ele>
        <time>2014-01-31T12:21:39.000Z</time>
      </trkpt>
      <trkpt lat="45.57003" lon="6.57352">
        <ele>2018.5999755859</ele>
        <time>2014-01-31T12:21:43.000Z</time>
      </trkpt>
      <trkpt lat="45.57003" lon="6.57352">
        <ele>2018.5999755859</ele>
        <time>2014-01-31T12:21:44.000Z</time>
      </trkpt>
      <trkpt lat="45.57003" lon="6.57352">
        <ele>2018.5999755859</ele>
        <time>2014-01-31T12:21:45.000Z</time>
      </trkpt>
      <trkpt lat="45.57003" lon="6.57352">
        <ele>2018.8000488281</ele>
        <time>2014-01-31T12:21:46.000Z</time>
      </trkpt>
      <trkpt lat="45.57003" lon="6.57352">
        <ele>2018.8000488281</ele>
        <time>2014-01-31T12:21:47.000Z</time>
      </trkpt>
      <trkpt lat="45.57003" lon="6.57352">
        <ele>2018.8000488281</ele>
        <time>2014-01-31T12:21:48.000Z</time>
      </trkpt>
      <trkpt lat="45.57003" lon="6.57352">
        <ele>2018.8000488281</ele>
        <time>2014-01-31T12:21:49.000Z</time>
      </trkpt>
      <trkpt lat="45.57003" lon="6.57352">
        <ele>2018.8000488281</ele>
        <time>2014-01-31T12:21:53.000Z</time>
      </trkpt>
      <trkpt lat="45.57003" lon="6.57352">
        <ele>2018.8000488281</ele>
        <time>2014-01-31T12:21:54.000Z</time>
      </trkpt>
      <trkpt lat="45.57003" lon="6.57352">
        <ele>2018.8000488281</ele>
        <time>2014-01-31T12:21:55.000Z</time>
      </trkpt>
      <trkpt lat="45.57003" lon="6.57352">
        <ele>2018.5999755859</ele>
        <time>2014-01-31T12:21:56.000Z</time>
      </trkpt>
      <trkpt lat="45.57003" lon="6.57352">
        <ele>2018.5999755859</ele>
        <time>2014-01-31T12:21:57.000Z</time>
      </trkpt>
      <trkpt lat="45.57003" lon="6.57352">
        <ele>2018.5999755859</ele>
        <time>2014-01-31T12:21:58.000Z</time>
      </trkpt>
      <trkpt lat="45.57003" lon="6.57352">
        <ele>2018.5999755859</ele>
        <time>2014-01-31T12:21:59.000Z</time>
      </trkpt>
      <trkpt lat="45.57003" lon="6.57352">
        <ele>2018.5999755859</ele>
        <time>2014-01-31T12:22:00.000Z</time>
      </trkpt>
      <trkpt lat="45.57003" lon="6.57352">
        <ele>2018.5999755859</ele>
        <time>2014-01-31T12:22:01.000Z</time>
      </trkpt>
      <trkpt lat="45.57003" lon="6.57352">
        <ele>2018.5999755859</ele>
        <time>2014-01-31T12:22:02.000Z</time>
      </trkpt>
      <trkpt lat="45.57003" lon="6.57352">
        <ele>2018.5999755859</ele>
        <time>2014-01-31T12:22:05.000Z</time>
      </trkpt>
      <trkpt lat="45.57003" lon="6.57352">
        <ele>2018.5999755859</ele>
        <time>2014-01-31T12:22:06.000Z</time>
      </trkpt>
      <trkpt lat="45.57003" lon="6.57352">
        <ele>2018.5999755859</ele>
        <time>2014-01-31T12:22:07.000Z</time>
      </trkpt>
      <trkpt lat="45.57003" lon="6.57352">
        <ele>2018.5999755859</ele>
        <time>2014-01-31T12:22:08.000Z</time>
      </trkpt>
      <trkpt lat="45.57003" lon="6.57352">
        <ele>2018.5999755859</ele>
        <time>2014-01-31T12:22:10.000Z</time>
      </trkpt>
      <trkpt lat="45.57003" lon="6.57352">
        <ele>2018.5999755859</ele>
        <time>2014-01-31T12:22:11.000Z</time>
      </trkpt>
      <trkpt lat="45.57003" lon="6.57352">
        <ele>2018.5999755859</ele>
        <time>2014-01-31T12:22:12.000Z</time>
      </trkpt>
      <trkpt lat="45.57003" lon="6.57352">
        <ele>2018.5999755859</ele>
        <time>2014-01-31T12:22:13.000Z</time>
      </trkpt>
      <trkpt lat="45.57003" lon="6.57352">
        <ele>2018.5999755859</ele>
        <time>2014-01-31T12:22:15.000Z</time>
      </trkpt>
      <trkpt lat="45.57003" lon="6.57352">
        <ele>2018.5999755859</ele>
        <time>2014-01-31T12:22:17.000Z</time>
      </trkpt>
      <trkpt lat="45.57003" lon="6.57352">
        <ele>2018.5999755859</ele>
        <time>2014-01-31T12:22:20.000Z</time>
      </trkpt>
      <trkpt lat="45.57003" lon="6.57352">
        <ele>2018.5999755859</ele>
        <time>2014-01-31T12:22:22.000Z</time>
      </trkpt>
      <trkpt lat="45.57003" lon="6.57352">
        <ele>2018.5999755859</ele>
        <time>2014-01-31T12:22:23.000Z</time>
      </trkpt>
      <trkpt lat="45.57003" lon="6.57352">
        <ele>2018.5999755859</ele>
        <time>2014-01-31T12:22:24.000Z</time>
      </trkpt>
      <trkpt lat="45.57003" lon="6.57352">
        <ele>2018.5999755859</ele>
        <time>2014-01-31T12:22:25.000Z</time>
      </trkpt>
      <trkpt lat="45.57003" lon="6.57352">
        <ele>2018.5999755859</ele>
        <time>2014-01-31T12:22:26.000Z</time>
      </trkpt>
      <trkpt lat="45.57003" lon="6.57352">
        <ele>2018.5999755859</ele>
        <time>2014-01-31T12:22:28.000Z</time>
      </trkpt>
      <trkpt lat="45.57003" lon="6.57352">
        <ele>2018.5999755859</ele>
        <time>2014-01-31T12:22:29.000Z</time>
      </trkpt>
      <trkpt lat="45.57003" lon="6.57352">
        <ele>2018.5999755859</ele>
        <time>2014-01-31T12:22:30.000Z</time>
      </trkpt>
      <trkpt lat="45.57003" lon="6.57352">
        <ele>2018.5999755859</ele>
        <time>2014-01-31T12:22:31.000Z</time>
      </trkpt>
      <trkpt lat="45.57003" lon="6.57352">
        <ele>2018.5999755859</ele>
        <time>2014-01-31T12:22:32.000Z</time>
      </trkpt>
      <trkpt lat="45.57003" lon="6.57352">
        <ele>2018.5999755859</ele>
        <time>2014-01-31T12:22:34.000Z</time>
      </trkpt>
      <trkpt lat="45.57003" lon="6.57352">
        <ele>2018.5999755859</ele>
        <time>2014-01-31T12:22:35.000Z</time>
      </trkpt>
      <trkpt lat="45.57003" lon="6.57352">
        <ele>2018.5999755859</ele>
        <time>2014-01-31T12:22:36.000Z</time>
      </trkpt>
      <trkpt lat="45.57003" lon="6.57352">
        <ele>2018.5999755859</ele>
        <time>2014-01-31T12:22:37.000Z</time>
      </trkpt>
      <trkpt lat="45.57003" lon="6.57352">
        <ele>2018.5999755859</ele>
        <time>2014-01-31T12:22:38.000Z</time>
      </trkpt>
      <trkpt lat="45.57003" lon="6.57352">
        <ele>2018.5999755859</ele>
        <time>2014-01-31T12:22:39.000Z</time>
      </trkpt>
      <trkpt lat="45.57003" lon="6.57352">
        <ele>2018.4000244141</ele>
        <time>2014-01-31T12:22:40.000Z</time>
      </trkpt>
      <trkpt lat="45.57003" lon="6.57352">
        <ele>2018.4000244141</ele>
        <time>2014-01-31T12:22:41.000Z</time>
      </trkpt>
      <trkpt lat="45.57003" lon="6.57352">
        <ele>2018.4000244141</ele>
        <time>2014-01-31T12:22:42.000Z</time>
      </trkpt>
      <trkpt lat="45.57003" lon="6.57352">
        <ele>2018.4000244141</ele>
        <time>2014-01-31T12:22:44.000Z</time>
      </trkpt>
      <trkpt lat="45.57003" lon="6.57351">
        <ele>2018.5999755859</ele>
        <time>2014-01-31T12:22:45.000Z</time>
      </trkpt>
      <trkpt lat="45.57003" lon="6.57351">
        <ele>2018.5999755859</ele>
        <time>2014-01-31T12:22:46.000Z</time>
      </trkpt>
      <trkpt lat="45.57003" lon="6.57351">
        <ele>2018.5999755859</ele>
        <time>2014-01-31T12:22:47.000Z</time>
      </trkpt>
      <trkpt lat="45.57003" lon="6.57351">
        <ele>2018.5999755859</ele>
        <time>2014-01-31T12:22:48.000Z</time>
      </trkpt>
      <trkpt lat="45.57003" lon="6.57351">
        <ele>2018.5999755859</ele>
        <time>2014-01-31T12:22:49.000Z</time>
      </trkpt>
      <trkpt lat="45.57003" lon="6.57351">
        <ele>2018.5999755859</ele>
        <time>2014-01-31T12:22:50.000Z</time>
      </trkpt>
      <trkpt lat="45.57003" lon="6.57351">
        <ele>2018.5999755859</ele>
        <time>2014-01-31T12:22:52.000Z</time>
      </trkpt>
      <trkpt lat="45.57003" lon="6.57351">
        <ele>2018.5999755859</ele>
        <time>2014-01-31T12:22:53.000Z</time>
      </trkpt>
      <trkpt lat="45.57003" lon="6.57351">
        <ele>2018.5999755859</ele>
        <time>2014-01-31T12:22:54.000Z</time>
      </trkpt>
      <trkpt lat="45.57003" lon="6.57351">
        <ele>2018.5999755859</ele>
        <time>2014-01-31T12:22:55.000Z</time>
      </trkpt>
      <trkpt lat="45.57003" lon="6.57351">
        <ele>2018.5999755859</ele>
        <time>2014-01-31T12:22:56.000Z</time>
      </trkpt>
      <trkpt lat="45.57003" lon="6.57351">
        <ele>2018.4000244141</ele>
        <time>2014-01-31T12:22:57.000Z</time>
      </trkpt>
      <trkpt lat="45.57003" lon="6.57351">
        <ele>2018.4000244141</ele>
        <time>2014-01-31T12:22:58.000Z</time>
      </trkpt>
      <trkpt lat="45.57003" lon="6.57351">
        <ele>2018.4000244141</ele>
        <time>2014-01-31T12:22:59.000Z</time>
      </trkpt>
      <trkpt lat="45.57003" lon="6.57351">
        <ele>2018.4000244141</ele>
        <time>2014-01-31T12:23:00.000Z</time>
      </trkpt>
      <trkpt lat="45.57003" lon="6.57351">
        <ele>2018.4000244141</ele>
        <time>2014-01-31T12:23:02.000Z</time>
      </trkpt>
      <trkpt lat="45.57003" lon="6.57351">
        <ele>2018.4000244141</ele>
        <time>2014-01-31T12:23:03.000Z</time>
      </trkpt>
      <trkpt lat="45.57003" lon="6.57351">
        <ele>2018.4000244141</ele>
        <time>2014-01-31T12:23:04.000Z</time>
      </trkpt>
      <trkpt lat="45.57003" lon="6.57351">
        <ele>2018.5999755859</ele>
        <time>2014-01-31T12:23:05.000Z</time>
      </trkpt>
      <trkpt lat="45.57003" lon="6.57351">
        <ele>2018.5999755859</ele>
        <time>2014-01-31T12:23:06.000Z</time>
      </trkpt>
      <trkpt lat="45.57003" lon="6.57351">
        <ele>2018.5999755859</ele>
        <time>2014-01-31T12:23:07.000Z</time>
      </trkpt>
      <trkpt lat="45.57003" lon="6.57351">
        <ele>2018.5999755859</ele>
        <time>2014-01-31T12:23:08.000Z</time>
      </trkpt>
      <trkpt lat="45.57003" lon="6.57351">
        <ele>2018.5999755859</ele>
        <time>2014-01-31T12:23:09.000Z</time>
      </trkpt>
      <trkpt lat="45.57003" lon="6.57351">
        <ele>2018.5999755859</ele>
        <time>2014-01-31T12:23:10.000Z</time>
      </trkpt>
      <trkpt lat="45.57003" lon="6.57351">
        <ele>2018.5999755859</ele>
        <time>2014-01-31T12:23:11.000Z</time>
      </trkpt>
      <trkpt lat="45.57003" lon="6.57351">
        <ele>2018.5999755859</ele>
        <time>2014-01-31T12:23:12.000Z</time>
      </trkpt>
      <trkpt lat="45.57003" lon="6.57351">
        <ele>2018.5999755859</ele>
        <time>2014-01-31T12:23:14.000Z</time>
      </trkpt>
      <trkpt lat="45.57003" lon="6.57351">
        <ele>2018.5999755859</ele>
        <time>2014-01-31T12:23:15.000Z</time>
      </trkpt>
      <trkpt lat="45.57003" lon="6.57351">
        <ele>2018.5999755859</ele>
        <time>2014-01-31T12:23:16.000Z</time>
      </trkpt>
      <trkpt lat="45.57003" lon="6.57351">
        <ele>2018.4000244141</ele>
        <time>2014-01-31T12:23:17.000Z</time>
      </trkpt>
      <trkpt lat="45.57003" lon="6.57351">
        <ele>2018.4000244141</ele>
        <time>2014-01-31T12:23:18.000Z</time>
      </trkpt>
      <trkpt lat="45.57003" lon="6.57351">
        <ele>2018.4000244141</ele>
        <time>2014-01-31T12:23:19.000Z</time>
      </trkpt>
      <trkpt lat="45.57003" lon="6.57351">
        <ele>2018.4000244141</ele>
        <time>2014-01-31T12:23:20.000Z</time>
      </trkpt>
      <trkpt lat="45.57003" lon="6.57351">
        <ele>2018.4000244141</ele>
        <time>2014-01-31T12:23:21.000Z</time>
      </trkpt>
      <trkpt lat="45.57003" lon="6.57351">
        <ele>2018.4000244141</ele>
        <time>2014-01-31T12:23:22.000Z</time>
      </trkpt>
      <trkpt lat="45.57003" lon="6.57351">
        <ele>2018.4000244141</ele>
        <time>2014-01-31T12:23:26.000Z</time>
      </trkpt>
      <trkpt lat="45.57003" lon="6.57351">
        <ele>2018.4000244141</ele>
        <time>2014-01-31T12:23:27.000Z</time>
      </trkpt>
      <trkpt lat="45.57003" lon="6.57351">
        <ele>2018.5999755859</ele>
        <time>2014-01-31T12:23:28.000Z</time>
      </trkpt>
      <trkpt lat="45.57003" lon="6.57351">
        <ele>2018.5999755859</ele>
        <time>2014-01-31T12:23:29.000Z</time>
      </trkpt>
      <trkpt lat="45.57003" lon="6.57351">
        <ele>2018.5999755859</ele>
        <time>2014-01-31T12:23:30.000Z</time>
      </trkpt>
      <trkpt lat="45.57003" lon="6.57351">
        <ele>2018.5999755859</ele>
        <time>2014-01-31T12:23:31.000Z</time>
      </trkpt>
      <trkpt lat="45.57003" lon="6.57351">
        <ele>2018.5999755859</ele>
        <time>2014-01-31T12:23:34.000Z</time>
      </trkpt>
      <trkpt lat="45.57003" lon="6.57351">
        <ele>2018.4000244141</ele>
        <time>2014-01-31T12:23:35.000Z</time>
      </trkpt>
      <trkpt lat="45.57003" lon="6.57351">
        <ele>2018.4000244141</ele>
        <time>2014-01-31T12:23:36.000Z</time>
      </trkpt>
      <trkpt lat="45.57003" lon="6.57351">
        <ele>2018.4000244141</ele>
        <time>2014-01-31T12:23:37.000Z</time>
      </trkpt>
      <trkpt lat="45.57003" lon="6.57351">
        <ele>2018.4000244141</ele>
        <time>2014-01-31T12:23:38.000Z</time>
      </trkpt>
      <trkpt lat="45.57003" lon="6.57351">
        <ele>2018.4000244141</ele>
        <time>2014-01-31T12:23:44.000Z</time>
      </trkpt>
      <trkpt lat="45.57003" lon="6.57351">
        <ele>2018.4000244141</ele>
        <time>2014-01-31T12:23:48.000Z</time>
      </trkpt>
      <trkpt lat="45.57003" lon="6.57351">
        <ele>2018.4000244141</ele>
        <time>2014-01-31T12:23:49.000Z</time>
      </trkpt>
      <trkpt lat="45.57003" lon="6.57351">
        <ele>2018.4000244141</ele>
        <time>2014-01-31T12:23:50.000Z</time>
      </trkpt>
      <trkpt lat="45.57003" lon="6.57351">
        <ele>2018.4000244141</ele>
        <time>2014-01-31T12:23:51.000Z</time>
      </trkpt>
      <trkpt lat="45.57003" lon="6.57351">
        <ele>2018.5999755859</ele>
        <time>2014-01-31T12:23:52.000Z</time>
      </trkpt>
      <trkpt lat="45.57003" lon="6.57351">
        <ele>2018.5999755859</ele>
        <time>2014-01-31T12:23:53.000Z</time>
      </trkpt>
      <trkpt lat="45.57003" lon="6.57351">
        <ele>2018.5999755859</ele>
        <time>2014-01-31T12:23:54.000Z</time>
      </trkpt>
      <trkpt lat="45.57003" lon="6.57351">
        <ele>2018.5999755859</ele>
        <time>2014-01-31T12:23:57.000Z</time>
      </trkpt>
      <trkpt lat="45.57003" lon="6.57351">
        <ele>2018.4000244141</ele>
        <time>2014-01-31T12:23:58.000Z</time>
      </trkpt>
      <trkpt lat="45.57003" lon="6.57351">
        <ele>2018.4000244141</ele>
        <time>2014-01-31T12:23:59.000Z</time>
      </trkpt>
      <trkpt lat="45.57003" lon="6.57351">
        <ele>2018.4000244141</ele>
        <time>2014-01-31T12:24:00.000Z</time>
      </trkpt>
      <trkpt lat="45.57003" lon="6.57351">
        <ele>2018.4000244141</ele>
        <time>2014-01-31T12:24:01.000Z</time>
      </trkpt>
      <trkpt lat="45.57003" lon="6.57351">
        <ele>2018.4000244141</ele>
        <time>2014-01-31T12:24:02.000Z</time>
      </trkpt>
      <trkpt lat="45.57003" lon="6.57351">
        <ele>2018.4000244141</ele>
        <time>2014-01-31T12:24:03.000Z</time>
      </trkpt>
      <trkpt lat="45.57003" lon="6.57351">
        <ele>2018.4000244141</ele>
        <time>2014-01-31T12:24:05.000Z</time>
      </trkpt>
      <trkpt lat="45.57003" lon="6.57351">
        <ele>2018.4000244141</ele>
        <time>2014-01-31T12:24:06.000Z</time>
      </trkpt>
      <trkpt lat="45.57003" lon="6.57351">
        <ele>2018.4000244141</ele>
        <time>2014-01-31T12:24:07.000Z</time>
      </trkpt>
      <trkpt lat="45.57003" lon="6.57351">
        <ele>2018.5999755859</ele>
        <time>2014-01-31T12:24:08.000Z</time>
      </trkpt>
      <trkpt lat="45.57003" lon="6.57351">
        <ele>2018.5999755859</ele>
        <time>2014-01-31T12:24:09.000Z</time>
      </trkpt>
      <trkpt lat="45.57003" lon="6.57351">
        <ele>2018.5999755859</ele>
        <time>2014-01-31T12:24:11.000Z</time>
      </trkpt>
      <trkpt lat="45.57003" lon="6.57351">
        <ele>2018.5999755859</ele>
        <time>2014-01-31T12:24:12.000Z</time>
      </trkpt>
      <trkpt lat="45.57003" lon="6.57351">
        <ele>2018.5999755859</ele>
        <time>2014-01-31T12:24:14.000Z</time>
      </trkpt>
      <trkpt lat="45.57003" lon="6.57351">
        <ele>2018.4000244141</ele>
        <time>2014-01-31T12:24:15.000Z</time>
      </trkpt>
      <trkpt lat="45.57003" lon="6.57351">
        <ele>2018.4000244141</ele>
        <time>2014-01-31T12:24:16.000Z</time>
      </trkpt>
      <trkpt lat="45.57003" lon="6.57351">
        <ele>2018.4000244141</ele>
        <time>2014-01-31T12:24:18.000Z</time>
      </trkpt>
      <trkpt lat="45.57003" lon="6.57351">
        <ele>2018.4000244141</ele>
        <time>2014-01-31T12:24:19.000Z</time>
      </trkpt>
      <trkpt lat="45.57003" lon="6.57351">
        <ele>2018.4000244141</ele>
        <time>2014-01-31T12:24:21.000Z</time>
      </trkpt>
      <trkpt lat="45.57003" lon="6.57351">
        <ele>2018.4000244141</ele>
        <time>2014-01-31T12:24:22.000Z</time>
      </trkpt>
      <trkpt lat="45.57003" lon="6.57351">
        <ele>2018.5999755859</ele>
        <time>2014-01-31T12:24:23.000Z</time>
      </trkpt>
      <trkpt lat="45.57003" lon="6.57351">
        <ele>2018.5999755859</ele>
        <time>2014-01-31T12:24:24.000Z</time>
      </trkpt>
      <trkpt lat="45.57003" lon="6.57351">
        <ele>2018.4000244141</ele>
        <time>2014-01-31T12:24:29.000Z</time>
      </trkpt>
      <trkpt lat="45.57003" lon="6.57351">
        <ele>2018.4000244141</ele>
        <time>2014-01-31T12:24:30.000Z</time>
      </trkpt>
      <trkpt lat="45.57003" lon="6.57351">
        <ele>2018.4000244141</ele>
        <time>2014-01-31T12:24:31.000Z</time>
      </trkpt>
      <trkpt lat="45.57003" lon="6.57351">
        <ele>2018.4000244141</ele>
        <time>2014-01-31T12:24:33.000Z</time>
      </trkpt>
      <trkpt lat="45.57003" lon="6.57351">
        <ele>2018.4000244141</ele>
        <time>2014-01-31T12:24:34.000Z</time>
      </trkpt>
      <trkpt lat="45.57003" lon="6.57351">
        <ele>2018.4000244141</ele>
        <time>2014-01-31T12:24:35.000Z</time>
      </trkpt>
      <trkpt lat="45.57004" lon="6.57352">
        <ele>2018.5999755859</ele>
        <time>2014-01-31T12:24:36.000Z</time>
      </trkpt>
      <trkpt lat="45.57004" lon="6.57352">
        <ele>2018.8000488281</ele>
        <time>2014-01-31T12:24:37.000Z</time>
      </trkpt>
      <trkpt lat="45.57004" lon="6.57352">
        <ele>2019</ele>
        <time>2014-01-31T12:24:38.000Z</time>
      </trkpt>
      <trkpt lat="45.57004" lon="6.57352">
        <ele>2019</ele>
        <time>2014-01-31T12:24:39.000Z</time>
      </trkpt>
      <trkpt lat="45.57004" lon="6.57352">
        <ele>2019</ele>
        <time>2014-01-31T12:24:40.000Z</time>
      </trkpt>
      <trkpt lat="45.57004" lon="6.57352">
        <ele>2019</ele>
        <time>2014-01-31T12:24:41.000Z</time>
      </trkpt>
      <trkpt lat="45.57004" lon="6.57352">
        <ele>2019</ele>
        <time>2014-01-31T12:24:42.000Z</time>
      </trkpt>
      <trkpt lat="45.57004" lon="6.57352">
        <ele>2018.8000488281</ele>
        <time>2014-01-31T12:24:43.000Z</time>
      </trkpt>
      <trkpt lat="45.57004" lon="6.57352">
        <ele>2018.8000488281</ele>
        <time>2014-01-31T12:24:44.000Z</time>
      </trkpt>
      <trkpt lat="45.57004" lon="6.57352">
        <ele>2018.8000488281</ele>
        <time>2014-01-31T12:24:45.000Z</time>
      </trkpt>
      <trkpt lat="45.57004" lon="6.57352">
        <ele>2018.8000488281</ele>
        <time>2014-01-31T12:24:46.000Z</time>
      </trkpt>
      <trkpt lat="45.57004" lon="6.57352">
        <ele>2018.8000488281</ele>
        <time>2014-01-31T12:24:47.000Z</time>
      </trkpt>
      <trkpt lat="45.57004" lon="6.57352">
        <ele>2018.8000488281</ele>
        <time>2014-01-31T12:24:48.000Z</time>
      </trkpt>
      <trkpt lat="45.57004" lon="6.57353">
        <ele>2018.8000488281</ele>
        <time>2014-01-31T12:24:51.000Z</time>
      </trkpt>
      <trkpt lat="45.57004" lon="6.57353">
        <ele>2018.8000488281</ele>
        <time>2014-01-31T12:24:52.000Z</time>
      </trkpt>
      <trkpt lat="45.57004" lon="6.57353">
        <ele>2018.8000488281</ele>
        <time>2014-01-31T12:24:53.000Z</time>
      </trkpt>
      <trkpt lat="45.57004" lon="6.57353">
        <ele>2018.5999755859</ele>
        <time>2014-01-31T12:24:54.000Z</time>
      </trkpt>
      <trkpt lat="45.57004" lon="6.57353">
        <ele>2018.5999755859</ele>
        <time>2014-01-31T12:24:55.000Z</time>
      </trkpt>
      <trkpt lat="45.57004" lon="6.57353">
        <ele>2018.5999755859</ele>
        <time>2014-01-31T12:24:56.000Z</time>
      </trkpt>
      <trkpt lat="45.57004" lon="6.57353">
        <ele>2018.4000244141</ele>
        <time>2014-01-31T12:24:57.000Z</time>
      </trkpt>
      <trkpt lat="45.57004" lon="6.57353">
        <ele>2018.5999755859</ele>
        <time>2014-01-31T12:25:00.000Z</time>
      </trkpt>
      <trkpt lat="45.57004" lon="6.57353">
        <ele>2018.5999755859</ele>
        <time>2014-01-31T12:25:01.000Z</time>
      </trkpt>
      <trkpt lat="45.57004" lon="6.57353">
        <ele>2018.5999755859</ele>
        <time>2014-01-31T12:25:02.000Z</time>
      </trkpt>
      <trkpt lat="45.57004" lon="6.57353">
        <ele>2018.5999755859</ele>
        <time>2014-01-31T12:25:03.000Z</time>
      </trkpt>
      <trkpt lat="45.57004" lon="6.57353">
        <ele>2018.8000488281</ele>
        <time>2014-01-31T12:25:04.000Z</time>
      </trkpt>
      <trkpt lat="45.57004" lon="6.57353">
        <ele>2018.8000488281</ele>
        <time>2014-01-31T12:25:05.000Z</time>
      </trkpt>
      <trkpt lat="45.57004" lon="6.57353">
        <ele>2018.8000488281</ele>
        <time>2014-01-31T12:25:06.000Z</time>
      </trkpt>
      <trkpt lat="45.57004" lon="6.57353">
        <ele>2018.8000488281</ele>
        <time>2014-01-31T12:25:07.000Z</time>
      </trkpt>
      <trkpt lat="45.57004" lon="6.57353">
        <ele>2018.8000488281</ele>
        <time>2014-01-31T12:25:08.000Z</time>
      </trkpt>
      <trkpt lat="45.57004" lon="6.57353">
        <ele>2018.8000488281</ele>
        <time>2014-01-31T12:25:09.000Z</time>
      </trkpt>
      <trkpt lat="45.57004" lon="6.57353">
        <ele>2018.8000488281</ele>
        <time>2014-01-31T12:25:11.000Z</time>
      </trkpt>
      <trkpt lat="45.57004" lon="6.57353">
        <ele>2018.8000488281</ele>
        <time>2014-01-31T12:25:12.000Z</time>
      </trkpt>
      <trkpt lat="45.57004" lon="6.57353">
        <ele>2018.8000488281</ele>
        <time>2014-01-31T12:25:16.000Z</time>
      </trkpt>
      <trkpt lat="45.57004" lon="6.57353">
        <ele>2018.8000488281</ele>
        <time>2014-01-31T12:25:17.000Z</time>
      </trkpt>
      <trkpt lat="45.57004" lon="6.57353">
        <ele>2018.5999755859</ele>
        <time>2014-01-31T12:25:18.000Z</time>
      </trkpt>
      <trkpt lat="45.57004" lon="6.57353">
        <ele>2018.5999755859</ele>
        <time>2014-01-31T12:25:20.000Z</time>
      </trkpt>
      <trkpt lat="45.57004" lon="6.57353">
        <ele>2018.5999755859</ele>
        <time>2014-01-31T12:25:21.000Z</time>
      </trkpt>
      <trkpt lat="45.57004" lon="6.57353">
        <ele>2018.5999755859</ele>
        <time>2014-01-31T12:25:23.000Z</time>
      </trkpt>
      <trkpt lat="45.57004" lon="6.57353">
        <ele>2018.5999755859</ele>
        <time>2014-01-31T12:25:24.000Z</time>
      </trkpt>
      <trkpt lat="45.57004" lon="6.57352">
        <ele>2018.5999755859</ele>
        <time>2014-01-31T12:25:28.000Z</time>
      </trkpt>
      <trkpt lat="45.57004" lon="6.57352">
        <ele>2018.5999755859</ele>
        <time>2014-01-31T12:25:29.000Z</time>
      </trkpt>
      <trkpt lat="45.57004" lon="6.57352">
        <ele>2018.4000244141</ele>
        <time>2014-01-31T12:25:30.000Z</time>
      </trkpt>
      <trkpt lat="45.57004" lon="6.57352">
        <ele>2018.4000244141</ele>
        <time>2014-01-31T12:25:31.000Z</time>
      </trkpt>
      <trkpt lat="45.57004" lon="6.57352">
        <ele>2018.4000244141</ele>
        <time>2014-01-31T12:25:32.000Z</time>
      </trkpt>
      <trkpt lat="45.57004" lon="6.57352">
        <ele>2018.1999511719</ele>
        <time>2014-01-31T12:25:33.000Z</time>
      </trkpt>
      <trkpt lat="45.57004" lon="6.57352">
        <ele>2018.1999511719</ele>
        <time>2014-01-31T12:25:34.000Z</time>
      </trkpt>
      <trkpt lat="45.57004" lon="6.57352">
        <ele>2018.1999511719</ele>
        <time>2014-01-31T12:25:35.000Z</time>
      </trkpt>
      <trkpt lat="45.57004" lon="6.57352">
        <ele>2018.1999511719</ele>
        <time>2014-01-31T12:25:36.000Z</time>
      </trkpt>
      <trkpt lat="45.57004" lon="6.57352">
        <ele>2018.1999511719</ele>
        <time>2014-01-31T12:25:37.000Z</time>
      </trkpt>
      <trkpt lat="45.57004" lon="6.57352">
        <ele>2018.1999511719</ele>
        <time>2014-01-31T12:25:38.000Z</time>
      </trkpt>
      <trkpt lat="45.57004" lon="6.57352">
        <ele>2018.1999511719</ele>
        <time>2014-01-31T12:25:39.000Z</time>
      </trkpt>
      <trkpt lat="45.57004" lon="6.57352">
        <ele>2018.1999511719</ele>
        <time>2014-01-31T12:25:41.000Z</time>
      </trkpt>
      <trkpt lat="45.57004" lon="6.57352">
        <ele>2018.1999511719</ele>
        <time>2014-01-31T12:25:42.000Z</time>
      </trkpt>
      <trkpt lat="45.57004" lon="6.57352">
        <ele>2018.1999511719</ele>
        <time>2014-01-31T12:25:43.000Z</time>
      </trkpt>
      <trkpt lat="45.57004" lon="6.57352">
        <ele>2018.4000244141</ele>
        <time>2014-01-31T12:25:44.000Z</time>
      </trkpt>
      <trkpt lat="45.57004" lon="6.57352">
        <ele>2018.4000244141</ele>
        <time>2014-01-31T12:25:45.000Z</time>
      </trkpt>
      <trkpt lat="45.57004" lon="6.57352">
        <ele>2018.4000244141</ele>
        <time>2014-01-31T12:25:46.000Z</time>
      </trkpt>
      <trkpt lat="45.57004" lon="6.57352">
        <ele>2018.4000244141</ele>
        <time>2014-01-31T12:25:47.000Z</time>
      </trkpt>
      <trkpt lat="45.57004" lon="6.57352">
        <ele>2018.4000244141</ele>
        <time>2014-01-31T12:25:48.000Z</time>
      </trkpt>
      <trkpt lat="45.57004" lon="6.57352">
        <ele>2018.1999511719</ele>
        <time>2014-01-31T12:25:49.000Z</time>
      </trkpt>
      <trkpt lat="45.57004" lon="6.57352">
        <ele>2018.1999511719</ele>
        <time>2014-01-31T12:25:50.000Z</time>
      </trkpt>
      <trkpt lat="45.57004" lon="6.57352">
        <ele>2018.1999511719</ele>
        <time>2014-01-31T12:25:51.000Z</time>
      </trkpt>
      <trkpt lat="45.57004" lon="6.57352">
        <ele>2018.1999511719</ele>
        <time>2014-01-31T12:25:52.000Z</time>
      </trkpt>
      <trkpt lat="45.57004" lon="6.57352">
        <ele>2018.1999511719</ele>
        <time>2014-01-31T12:25:54.000Z</time>
      </trkpt>
      <trkpt lat="45.57004" lon="6.57352">
        <ele>2018.1999511719</ele>
        <time>2014-01-31T12:25:55.000Z</time>
      </trkpt>
      <trkpt lat="45.57004" lon="6.57352">
        <ele>2018.1999511719</ele>
        <time>2014-01-31T12:25:56.000Z</time>
      </trkpt>
      <trkpt lat="45.57004" lon="6.57352">
        <ele>2018.1999511719</ele>
        <time>2014-01-31T12:25:57.000Z</time>
      </trkpt>
      <trkpt lat="45.57004" lon="6.57352">
        <ele>2018.1999511719</ele>
        <time>2014-01-31T12:25:58.000Z</time>
      </trkpt>
      <trkpt lat="45.57004" lon="6.57352">
        <ele>2018</ele>
        <time>2014-01-31T12:25:59.000Z</time>
      </trkpt>
      <trkpt lat="45.57004" lon="6.57352">
        <ele>2017.8000488281</ele>
        <time>2014-01-31T12:26:00.000Z</time>
      </trkpt>
      <trkpt lat="45.57004" lon="6.57352">
        <ele>2017.5999755859</ele>
        <time>2014-01-31T12:26:01.000Z</time>
      </trkpt>
      <trkpt lat="45.57004" lon="6.57352">
        <ele>2017.5999755859</ele>
        <time>2014-01-31T12:26:02.000Z</time>
      </trkpt>
      <trkpt lat="45.57004" lon="6.57352">
        <ele>2017.4000244141</ele>
        <time>2014-01-31T12:26:03.000Z</time>
      </trkpt>
      <trkpt lat="45.57004" lon="6.57352">
        <ele>2017.5999755859</ele>
        <time>2014-01-31T12:26:04.000Z</time>
      </trkpt>
      <trkpt lat="45.57004" lon="6.57352">
        <ele>2017.8000488281</ele>
        <time>2014-01-31T12:26:05.000Z</time>
      </trkpt>
      <trkpt lat="45.57004" lon="6.57352">
        <ele>2018</ele>
        <time>2014-01-31T12:26:06.000Z</time>
      </trkpt>
      <trkpt lat="45.57005" lon="6.57352">
        <ele>2018.4000244141</ele>
        <time>2014-01-31T12:26:07.000Z</time>
      </trkpt>
      <trkpt lat="45.57005" lon="6.57352">
        <ele>2018.5999755859</ele>
        <time>2014-01-31T12:26:08.000Z</time>
      </trkpt>
      <trkpt lat="45.57005" lon="6.57352">
        <ele>2018.8000488281</ele>
        <time>2014-01-31T12:26:09.000Z</time>
      </trkpt>
      <trkpt lat="45.57005" lon="6.57352">
        <ele>2018.8000488281</ele>
        <time>2014-01-31T12:26:10.000Z</time>
      </trkpt>
      <trkpt lat="45.57005" lon="6.57352">
        <ele>2018.5999755859</ele>
        <time>2014-01-31T12:26:11.000Z</time>
      </trkpt>
      <trkpt lat="45.57005" lon="6.57352">
        <ele>2018.4000244141</ele>
        <time>2014-01-31T12:26:12.000Z</time>
      </trkpt>
      <trkpt lat="45.57005" lon="6.57352">
        <ele>2018.1999511719</ele>
        <time>2014-01-31T12:26:13.000Z</time>
      </trkpt>
      <trkpt lat="45.57005" lon="6.57352">
        <ele>2018.1999511719</ele>
        <time>2014-01-31T12:26:14.000Z</time>
      </trkpt>
      <trkpt lat="45.57005" lon="6.57352">
        <ele>2018</ele>
        <time>2014-01-31T12:26:15.000Z</time>
      </trkpt>
      <trkpt lat="45.57005" lon="6.57352">
        <ele>2018</ele>
        <time>2014-01-31T12:26:17.000Z</time>
      </trkpt>
      <trkpt lat="45.57005" lon="6.57352">
        <ele>2018</ele>
        <time>2014-01-31T12:26:18.000Z</time>
      </trkpt>
      <trkpt lat="45.57005" lon="6.57352">
        <ele>2018.1999511719</ele>
        <time>2014-01-31T12:26:19.000Z</time>
      </trkpt>
      <trkpt lat="45.57005" lon="6.57352">
        <ele>2018.1999511719</ele>
        <time>2014-01-31T12:26:20.000Z</time>
      </trkpt>
      <trkpt lat="45.57005" lon="6.57352">
        <ele>2018.1999511719</ele>
        <time>2014-01-31T12:26:21.000Z</time>
      </trkpt>
      <trkpt lat="45.57005" lon="6.57352">
        <ele>2018.1999511719</ele>
        <time>2014-01-31T12:26:22.000Z</time>
      </trkpt>
      <trkpt lat="45.57005" lon="6.57352">
        <ele>2018.4000244141</ele>
        <time>2014-01-31T12:26:23.000Z</time>
      </trkpt>
      <trkpt lat="45.57005" lon="6.57352">
        <ele>2018.5999755859</ele>
        <time>2014-01-31T12:26:24.000Z</time>
      </trkpt>
      <trkpt lat="45.57005" lon="6.57352">
        <ele>2018.5999755859</ele>
        <time>2014-01-31T12:26:25.000Z</time>
      </trkpt>
      <trkpt lat="45.57005" lon="6.57352">
        <ele>2018.8000488281</ele>
        <time>2014-01-31T12:26:26.000Z</time>
      </trkpt>
      <trkpt lat="45.57005" lon="6.57352">
        <ele>2018.8000488281</ele>
        <time>2014-01-31T12:26:27.000Z</time>
      </trkpt>
      <trkpt lat="45.57005" lon="6.57352">
        <ele>2018.8000488281</ele>
        <time>2014-01-31T12:26:28.000Z</time>
      </trkpt>
      <trkpt lat="45.57005" lon="6.57352">
        <ele>2018.5999755859</ele>
        <time>2014-01-31T12:26:29.000Z</time>
      </trkpt>
      <trkpt lat="45.57005" lon="6.57352">
        <ele>2018.4000244141</ele>
        <time>2014-01-31T12:26:30.000Z</time>
      </trkpt>
      <trkpt lat="45.57005" lon="6.57352">
        <ele>2018.4000244141</ele>
        <time>2014-01-31T12:26:31.000Z</time>
      </trkpt>
      <trkpt lat="45.57005" lon="6.57352">
        <ele>2018.4000244141</ele>
        <time>2014-01-31T12:26:32.000Z</time>
      </trkpt>
      <trkpt lat="45.57005" lon="6.57352">
        <ele>2018.4000244141</ele>
        <time>2014-01-31T12:26:33.000Z</time>
      </trkpt>
      <trkpt lat="45.57005" lon="6.57352">
        <ele>2018.4000244141</ele>
        <time>2014-01-31T12:26:34.000Z</time>
      </trkpt>
      <trkpt lat="45.57005" lon="6.57352">
        <ele>2018.4000244141</ele>
        <time>2014-01-31T12:26:37.000Z</time>
      </trkpt>
      <trkpt lat="45.57005" lon="6.57352">
        <ele>2018.4000244141</ele>
        <time>2014-01-31T12:26:38.000Z</time>
      </trkpt>
      <trkpt lat="45.57005" lon="6.57352">
        <ele>2018.1999511719</ele>
        <time>2014-01-31T12:26:39.000Z</time>
      </trkpt>
      <trkpt lat="45.57005" lon="6.57352">
        <ele>2018.1999511719</ele>
        <time>2014-01-31T12:26:40.000Z</time>
      </trkpt>
      <trkpt lat="45.57005" lon="6.57352">
        <ele>2018.1999511719</ele>
        <time>2014-01-31T12:26:41.000Z</time>
      </trkpt>
      <trkpt lat="45.57005" lon="6.57352">
        <ele>2018.1999511719</ele>
        <time>2014-01-31T12:26:43.000Z</time>
      </trkpt>
      <trkpt lat="45.57005" lon="6.57352">
        <ele>2018.4000244141</ele>
        <time>2014-01-31T12:26:44.000Z</time>
      </trkpt>
      <trkpt lat="45.57005" lon="6.57352">
        <ele>2018.4000244141</ele>
        <time>2014-01-31T12:26:45.000Z</time>
      </trkpt>
      <trkpt lat="45.57005" lon="6.57352">
        <ele>2018.4000244141</ele>
        <time>2014-01-31T12:26:46.000Z</time>
      </trkpt>
      <trkpt lat="45.57005" lon="6.57352">
        <ele>2018.4000244141</ele>
        <time>2014-01-31T12:26:47.000Z</time>
      </trkpt>
      <trkpt lat="45.57005" lon="6.57352">
        <ele>2018.4000244141</ele>
        <time>2014-01-31T12:26:48.000Z</time>
      </trkpt>
      <trkpt lat="45.57005" lon="6.57352">
        <ele>2018.1999511719</ele>
        <time>2014-01-31T12:26:49.000Z</time>
      </trkpt>
      <trkpt lat="45.57005" lon="6.57352">
        <ele>2018.1999511719</ele>
        <time>2014-01-31T12:26:50.000Z</time>
      </trkpt>
      <trkpt lat="45.57005" lon="6.57352">
        <ele>2018.1999511719</ele>
        <time>2014-01-31T12:26:51.000Z</time>
      </trkpt>
      <trkpt lat="45.57005" lon="6.57352">
        <ele>2018</ele>
        <time>2014-01-31T12:26:52.000Z</time>
      </trkpt>
      <trkpt lat="45.57005" lon="6.57352">
        <ele>2018</ele>
        <time>2014-01-31T12:26:53.000Z</time>
      </trkpt>
      <trkpt lat="45.57005" lon="6.57352">
        <ele>2018</ele>
        <time>2014-01-31T12:26:54.000Z</time>
      </trkpt>
      <trkpt lat="45.57005" lon="6.57352">
        <ele>2018.1999511719</ele>
        <time>2014-01-31T12:26:56.000Z</time>
      </trkpt>
      <trkpt lat="45.57005" lon="6.57352">
        <ele>2018.1999511719</ele>
        <time>2014-01-31T12:26:57.000Z</time>
      </trkpt>
      <trkpt lat="45.57005" lon="6.57352">
        <ele>2018.4000244141</ele>
        <time>2014-01-31T12:26:58.000Z</time>
      </trkpt>
      <trkpt lat="45.57005" lon="6.57352">
        <ele>2018.4000244141</ele>
        <time>2014-01-31T12:26:59.000Z</time>
      </trkpt>
      <trkpt lat="45.57005" lon="6.57352">
        <ele>2018.4000244141</ele>
        <time>2014-01-31T12:27:00.000Z</time>
      </trkpt>
      <trkpt lat="45.57005" lon="6.57352">
        <ele>2018.5999755859</ele>
        <time>2014-01-31T12:27:01.000Z</time>
      </trkpt>
      <trkpt lat="45.57005" lon="6.57352">
        <ele>2018.5999755859</ele>
        <time>2014-01-31T12:27:02.000Z</time>
      </trkpt>
      <trkpt lat="45.57006" lon="6.57351">
        <ele>2018.5999755859</ele>
        <time>2014-01-31T12:27:03.000Z</time>
      </trkpt>
      <trkpt lat="45.57006" lon="6.57351">
        <ele>2018.8000488281</ele>
        <time>2014-01-31T12:27:04.000Z</time>
      </trkpt>
      <trkpt lat="45.57006" lon="6.57351">
        <ele>2018.8000488281</ele>
        <time>2014-01-31T12:27:05.000Z</time>
      </trkpt>
      <trkpt lat="45.57006" lon="6.57351">
        <ele>2019</ele>
        <time>2014-01-31T12:27:06.000Z</time>
      </trkpt>
      <trkpt lat="45.57006" lon="6.57351">
        <ele>2019</ele>
        <time>2014-01-31T12:27:07.000Z</time>
      </trkpt>
      <trkpt lat="45.57006" lon="6.57351">
        <ele>2019</ele>
        <time>2014-01-31T12:27:09.000Z</time>
      </trkpt>
      <trkpt lat="45.57006" lon="6.57351">
        <ele>2018.8000488281</ele>
        <time>2014-01-31T12:27:10.000Z</time>
      </trkpt>
      <trkpt lat="45.57006" lon="6.57351">
        <ele>2018.8000488281</ele>
        <time>2014-01-31T12:27:11.000Z</time>
      </trkpt>
      <trkpt lat="45.57006" lon="6.57351">
        <ele>2018.8000488281</ele>
        <time>2014-01-31T12:27:12.000Z</time>
      </trkpt>
      <trkpt lat="45.57006" lon="6.57351">
        <ele>2018.8000488281</ele>
        <time>2014-01-31T12:27:13.000Z</time>
      </trkpt>
      <trkpt lat="45.57006" lon="6.57351">
        <ele>2018.5999755859</ele>
        <time>2014-01-31T12:27:14.000Z</time>
      </trkpt>
      <trkpt lat="45.57006" lon="6.57351">
        <ele>2018.5999755859</ele>
        <time>2014-01-31T12:27:15.000Z</time>
      </trkpt>
      <trkpt lat="45.57006" lon="6.57351">
        <ele>2018.4000244141</ele>
        <time>2014-01-31T12:27:16.000Z</time>
      </trkpt>
      <trkpt lat="45.57006" lon="6.57351">
        <ele>2018.5999755859</ele>
        <time>2014-01-31T12:27:18.000Z</time>
      </trkpt>
      <trkpt lat="45.57006" lon="6.57351">
        <ele>2018.5999755859</ele>
        <time>2014-01-31T12:27:19.000Z</time>
      </trkpt>
      <trkpt lat="45.57006" lon="6.57351">
        <ele>2018.5999755859</ele>
        <time>2014-01-31T12:27:21.000Z</time>
      </trkpt>
      <trkpt lat="45.57006" lon="6.57351">
        <ele>2018.5999755859</ele>
        <time>2014-01-31T12:27:22.000Z</time>
      </trkpt>
      <trkpt lat="45.57006" lon="6.57351">
        <ele>2018.5999755859</ele>
        <time>2014-01-31T12:27:23.000Z</time>
      </trkpt>
      <trkpt lat="45.57006" lon="6.57351">
        <ele>2018.5999755859</ele>
        <time>2014-01-31T12:27:24.000Z</time>
      </trkpt>
      <trkpt lat="45.57006" lon="6.57351">
        <ele>2018.5999755859</ele>
        <time>2014-01-31T12:27:25.000Z</time>
      </trkpt>
      <trkpt lat="45.57006" lon="6.57351">
        <ele>2018.5999755859</ele>
        <time>2014-01-31T12:27:26.000Z</time>
      </trkpt>
      <trkpt lat="45.57006" lon="6.57351">
        <ele>2018.5999755859</ele>
        <time>2014-01-31T12:27:27.000Z</time>
      </trkpt>
      <trkpt lat="45.57006" lon="6.57351">
        <ele>2018.5999755859</ele>
        <time>2014-01-31T12:27:28.000Z</time>
      </trkpt>
      <trkpt lat="45.57006" lon="6.57351">
        <ele>2018.5999755859</ele>
        <time>2014-01-31T12:27:29.000Z</time>
      </trkpt>
      <trkpt lat="45.57006" lon="6.57351">
        <ele>2018.8000488281</ele>
        <time>2014-01-31T12:27:30.000Z</time>
      </trkpt>
      <trkpt lat="45.57006" lon="6.57351">
        <ele>2018.8000488281</ele>
        <time>2014-01-31T12:27:31.000Z</time>
      </trkpt>
      <trkpt lat="45.57006" lon="6.57351">
        <ele>2018.8000488281</ele>
        <time>2014-01-31T12:27:32.000Z</time>
      </trkpt>
      <trkpt lat="45.57006" lon="6.57351">
        <ele>2019</ele>
        <time>2014-01-31T12:27:33.000Z</time>
      </trkpt>
      <trkpt lat="45.57006" lon="6.57351">
        <ele>2019</ele>
        <time>2014-01-31T12:27:34.000Z</time>
      </trkpt>
      <trkpt lat="45.57006" lon="6.57351">
        <ele>2019</ele>
        <time>2014-01-31T12:27:35.000Z</time>
      </trkpt>
      <trkpt lat="45.57006" lon="6.57351">
        <ele>2019</ele>
        <time>2014-01-31T12:27:36.000Z</time>
      </trkpt>
      <trkpt lat="45.57006" lon="6.57351">
        <ele>2019</ele>
        <time>2014-01-31T12:27:37.000Z</time>
      </trkpt>
      <trkpt lat="45.57006" lon="6.57351">
        <ele>2019</ele>
        <time>2014-01-31T12:27:38.000Z</time>
      </trkpt>
      <trkpt lat="45.57006" lon="6.57351">
        <ele>2019</ele>
        <time>2014-01-31T12:27:39.000Z</time>
      </trkpt>
      <trkpt lat="45.57006" lon="6.57351">
        <ele>2019</ele>
        <time>2014-01-31T12:27:41.000Z</time>
      </trkpt>
      <trkpt lat="45.57006" lon="6.57351">
        <ele>2019</ele>
        <time>2014-01-31T12:27:42.000Z</time>
      </trkpt>
      <trkpt lat="45.57006" lon="6.57351">
        <ele>2019</ele>
        <time>2014-01-31T12:27:43.000Z</time>
      </trkpt>
      <trkpt lat="45.57006" lon="6.57351">
        <ele>2019</ele>
        <time>2014-01-31T12:27:44.000Z</time>
      </trkpt>
      <trkpt lat="45.57006" lon="6.57351">
        <ele>2019</ele>
        <time>2014-01-31T12:27:45.000Z</time>
      </trkpt>
      <trkpt lat="45.57006" lon="6.57351">
        <ele>2018.8000488281</ele>
        <time>2014-01-31T12:27:46.000Z</time>
      </trkpt>
      <trkpt lat="45.57006" lon="6.57351">
        <ele>2018.8000488281</ele>
        <time>2014-01-31T12:27:47.000Z</time>
      </trkpt>
      <trkpt lat="45.57006" lon="6.57351">
        <ele>2018.8000488281</ele>
        <time>2014-01-31T12:27:48.000Z</time>
      </trkpt>
      <trkpt lat="45.57006" lon="6.57351">
        <ele>2018.8000488281</ele>
        <time>2014-01-31T12:27:49.000Z</time>
      </trkpt>
      <trkpt lat="45.57006" lon="6.57351">
        <ele>2018.8000488281</ele>
        <time>2014-01-31T12:27:50.000Z</time>
      </trkpt>
      <trkpt lat="45.57006" lon="6.57351">
        <ele>2018.8000488281</ele>
        <time>2014-01-31T12:27:51.000Z</time>
      </trkpt>
      <trkpt lat="45.57006" lon="6.57351">
        <ele>2018.8000488281</ele>
        <time>2014-01-31T12:27:52.000Z</time>
      </trkpt>
      <trkpt lat="45.57006" lon="6.57351">
        <ele>2018.8000488281</ele>
        <time>2014-01-31T12:27:53.000Z</time>
      </trkpt>
      <trkpt lat="45.57006" lon="6.57351">
        <ele>2018.8000488281</ele>
        <time>2014-01-31T12:27:54.000Z</time>
      </trkpt>
      <trkpt lat="45.57006" lon="6.57351">
        <ele>2018.8000488281</ele>
        <time>2014-01-31T12:27:55.000Z</time>
      </trkpt>
      <trkpt lat="45.57006" lon="6.57351">
        <ele>2018.5999755859</ele>
        <time>2014-01-31T12:27:56.000Z</time>
      </trkpt>
      <trkpt lat="45.57009" lon="6.57347">
        <ele>2018.5999755859</ele>
        <time>2014-01-31T12:27:58.000Z</time>
      </trkpt>
      <trkpt lat="45.5701" lon="6.57346">
        <ele>2018.5999755859</ele>
        <time>2014-01-31T12:27:59.000Z</time>
      </trkpt>
      <trkpt lat="45.57011" lon="6.57346">
        <ele>2018.8000488281</ele>
        <time>2014-01-31T12:28:01.000Z</time>
      </trkpt>
      <trkpt lat="45.57012" lon="6.57346">
        <ele>2018.8000488281</ele>
        <time>2014-01-31T12:28:02.000Z</time>
      </trkpt>
      <trkpt lat="45.57012" lon="6.57346">
        <ele>2019</ele>
        <time>2014-01-31T12:28:03.000Z</time>
      </trkpt>
      <trkpt lat="45.57012" lon="6.57346">
        <ele>2019.1999511719</ele>
        <time>2014-01-31T12:28:04.000Z</time>
      </trkpt>
      <trkpt lat="45.57012" lon="6.57346">
        <ele>2019.1999511719</ele>
        <time>2014-01-31T12:28:05.000Z</time>
      </trkpt>
      <trkpt lat="45.57012" lon="6.57346">
        <ele>2019.4000244141</ele>
        <time>2014-01-31T12:28:06.000Z</time>
      </trkpt>
      <trkpt lat="45.57012" lon="6.57346">
        <ele>2019.4000244141</ele>
        <time>2014-01-31T12:28:07.000Z</time>
      </trkpt>
      <trkpt lat="45.57012" lon="6.57346">
        <ele>2019.5999755859</ele>
        <time>2014-01-31T12:28:08.000Z</time>
      </trkpt>
      <trkpt lat="45.57012" lon="6.57346">
        <ele>2019.5999755859</ele>
        <time>2014-01-31T12:28:09.000Z</time>
      </trkpt>
      <trkpt lat="45.57012" lon="6.57346">
        <ele>2019.8000488281</ele>
        <time>2014-01-31T12:28:10.000Z</time>
      </trkpt>
      <trkpt lat="45.57012" lon="6.57346">
        <ele>2019.8000488281</ele>
        <time>2014-01-31T12:28:11.000Z</time>
      </trkpt>
      <trkpt lat="45.57012" lon="6.57346">
        <ele>2019.8000488281</ele>
        <time>2014-01-31T12:28:12.000Z</time>
      </trkpt>
      <trkpt lat="45.57012" lon="6.57346">
        <ele>2019.8000488281</ele>
        <time>2014-01-31T12:28:13.000Z</time>
      </trkpt>
      <trkpt lat="45.57012" lon="6.57346">
        <ele>2020</ele>
        <time>2014-01-31T12:28:14.000Z</time>
      </trkpt>
      <trkpt lat="45.57012" lon="6.57346">
        <ele>2020</ele>
        <time>2014-01-31T12:28:15.000Z</time>
      </trkpt>
      <trkpt lat="45.57012" lon="6.57346">
        <ele>2020</ele>
        <time>2014-01-31T12:28:16.000Z</time>
      </trkpt>
      <trkpt lat="45.57012" lon="6.57346">
        <ele>2020</ele>
        <time>2014-01-31T12:28:17.000Z</time>
      </trkpt>
      <trkpt lat="45.57012" lon="6.57346">
        <ele>2020</ele>
        <time>2014-01-31T12:28:18.000Z</time>
      </trkpt>
      <trkpt lat="45.57012" lon="6.57346">
        <ele>2020</ele>
        <time>2014-01-31T12:28:19.000Z</time>
      </trkpt>
      <trkpt lat="45.57012" lon="6.57346">
        <ele>2020</ele>
        <time>2014-01-31T12:28:20.000Z</time>
      </trkpt>
      <trkpt lat="45.57012" lon="6.57346">
        <ele>2020</ele>
        <time>2014-01-31T12:28:21.000Z</time>
      </trkpt>
      <trkpt lat="45.57012" lon="6.57346">
        <ele>2020</ele>
        <time>2014-01-31T12:28:22.000Z</time>
      </trkpt>
      <trkpt lat="45.57012" lon="6.57346">
        <ele>2020</ele>
        <time>2014-01-31T12:28:24.000Z</time>
      </trkpt>
      <trkpt lat="45.57012" lon="6.57346">
        <ele>2020</ele>
        <time>2014-01-31T12:28:25.000Z</time>
      </trkpt>
      <trkpt lat="45.57012" lon="6.57346">
        <ele>2020</ele>
        <time>2014-01-31T12:28:26.000Z</time>
      </trkpt>
      <trkpt lat="45.57012" lon="6.57346">
        <ele>2019.8000488281</ele>
        <time>2014-01-31T12:28:27.000Z</time>
      </trkpt>
      <trkpt lat="45.57012" lon="6.57346">
        <ele>2019.8000488281</ele>
        <time>2014-01-31T12:28:28.000Z</time>
      </trkpt>
      <trkpt lat="45.57012" lon="6.57346">
        <ele>2019.8000488281</ele>
        <time>2014-01-31T12:28:29.000Z</time>
      </trkpt>
      <trkpt lat="45.57012" lon="6.57346">
        <ele>2019.8000488281</ele>
        <time>2014-01-31T12:28:30.000Z</time>
      </trkpt>
      <trkpt lat="45.57012" lon="6.57346">
        <ele>2019.8000488281</ele>
        <time>2014-01-31T12:28:31.000Z</time>
      </trkpt>
      <trkpt lat="45.57012" lon="6.57346">
        <ele>2019.8000488281</ele>
        <time>2014-01-31T12:28:32.000Z</time>
      </trkpt>
      <trkpt lat="45.57012" lon="6.57346">
        <ele>2020</ele>
        <time>2014-01-31T12:28:33.000Z</time>
      </trkpt>
      <trkpt lat="45.57012" lon="6.57346">
        <ele>2020</ele>
        <time>2014-01-31T12:28:34.000Z</time>
      </trkpt>
      <trkpt lat="45.57012" lon="6.57346">
        <ele>2020</ele>
        <time>2014-01-31T12:28:35.000Z</time>
      </trkpt>
      <trkpt lat="45.57012" lon="6.57346">
        <ele>2020</ele>
        <time>2014-01-31T12:28:36.000Z</time>
      </trkpt>
      <trkpt lat="45.57012" lon="6.57346">
        <ele>2020</ele>
        <time>2014-01-31T12:28:37.000Z</time>
      </trkpt>
      <trkpt lat="45.57012" lon="6.57346">
        <ele>2020</ele>
        <time>2014-01-31T12:28:38.000Z</time>
      </trkpt>
      <trkpt lat="45.57012" lon="6.57346">
        <ele>2020</ele>
        <time>2014-01-31T12:28:39.000Z</time>
      </trkpt>
      <trkpt lat="45.57012" lon="6.57346">
        <ele>2020</ele>
        <time>2014-01-31T12:28:40.000Z</time>
      </trkpt>
      <trkpt lat="45.57012" lon="6.57346">
        <ele>2020</ele>
        <time>2014-01-31T12:28:41.000Z</time>
      </trkpt>
      <trkpt lat="45.57013" lon="6.57347">
        <ele>2020</ele>
        <time>2014-01-31T12:28:42.000Z</time>
      </trkpt>
      <trkpt lat="45.57013" lon="6.57347">
        <ele>2019.8000488281</ele>
        <time>2014-01-31T12:28:45.000Z</time>
      </trkpt>
      <trkpt lat="45.57013" lon="6.57347">
        <ele>2019.8000488281</ele>
        <time>2014-01-31T12:28:46.000Z</time>
      </trkpt>
      <trkpt lat="45.57013" lon="6.57347">
        <ele>2019.8000488281</ele>
        <time>2014-01-31T12:28:47.000Z</time>
      </trkpt>
      <trkpt lat="45.57013" lon="6.57347">
        <ele>2019.8000488281</ele>
        <time>2014-01-31T12:28:48.000Z</time>
      </trkpt>
      <trkpt lat="45.57013" lon="6.57347">
        <ele>2019.8000488281</ele>
        <time>2014-01-31T12:28:49.000Z</time>
      </trkpt>
      <trkpt lat="45.57013" lon="6.57347">
        <ele>2019.8000488281</ele>
        <time>2014-01-31T12:28:50.000Z</time>
      </trkpt>
      <trkpt lat="45.57013" lon="6.57347">
        <ele>2019.8000488281</ele>
        <time>2014-01-31T12:28:51.000Z</time>
      </trkpt>
      <trkpt lat="45.57013" lon="6.57347">
        <ele>2019.8000488281</ele>
        <time>2014-01-31T12:28:52.000Z</time>
      </trkpt>
      <trkpt lat="45.57013" lon="6.57347">
        <ele>2019.8000488281</ele>
        <time>2014-01-31T12:28:53.000Z</time>
      </trkpt>
      <trkpt lat="45.57013" lon="6.57347">
        <ele>2020</ele>
        <time>2014-01-31T12:28:54.000Z</time>
      </trkpt>
      <trkpt lat="45.57013" lon="6.57347">
        <ele>2020</ele>
        <time>2014-01-31T12:28:55.000Z</time>
      </trkpt>
      <trkpt lat="45.57013" lon="6.57347">
        <ele>2020</ele>
        <time>2014-01-31T12:28:57.000Z</time>
      </trkpt>
      <trkpt lat="45.57013" lon="6.57347">
        <ele>2019.8000488281</ele>
        <time>2014-01-31T12:28:58.000Z</time>
      </trkpt>
      <trkpt lat="45.57013" lon="6.57347">
        <ele>2019.8000488281</ele>
        <time>2014-01-31T12:28:59.000Z</time>
      </trkpt>
      <trkpt lat="45.57013" lon="6.57347">
        <ele>2019.8000488281</ele>
        <time>2014-01-31T12:29:00.000Z</time>
      </trkpt>
      <trkpt lat="45.57013" lon="6.57347">
        <ele>2019.8000488281</ele>
        <time>2014-01-31T12:29:02.000Z</time>
      </trkpt>
      <trkpt lat="45.57013" lon="6.57347">
        <ele>2019.8000488281</ele>
        <time>2014-01-31T12:29:03.000Z</time>
      </trkpt>
      <trkpt lat="45.57013" lon="6.57347">
        <ele>2019.8000488281</ele>
        <time>2014-01-31T12:29:04.000Z</time>
      </trkpt>
      <trkpt lat="45.57013" lon="6.57347">
        <ele>2019.8000488281</ele>
        <time>2014-01-31T12:29:05.000Z</time>
      </trkpt>
      <trkpt lat="45.57013" lon="6.57347">
        <ele>2019.8000488281</ele>
        <time>2014-01-31T12:29:06.000Z</time>
      </trkpt>
      <trkpt lat="45.57013" lon="6.57347">
        <ele>2019.8000488281</ele>
        <time>2014-01-31T12:29:07.000Z</time>
      </trkpt>
      <trkpt lat="45.57013" lon="6.57347">
        <ele>2019.8000488281</ele>
        <time>2014-01-31T12:29:13.000Z</time>
      </trkpt>
      <trkpt lat="45.57013" lon="6.57347">
        <ele>2019.8000488281</ele>
        <time>2014-01-31T12:29:14.000Z</time>
      </trkpt>
      <trkpt lat="45.57013" lon="6.57347">
        <ele>2019.8000488281</ele>
        <time>2014-01-31T12:29:15.000Z</time>
      </trkpt>
      <trkpt lat="45.57013" lon="6.57347">
        <ele>2019.8000488281</ele>
        <time>2014-01-31T12:29:16.000Z</time>
      </trkpt>
      <trkpt lat="45.57013" lon="6.57347">
        <ele>2019.8000488281</ele>
        <time>2014-01-31T12:29:17.000Z</time>
      </trkpt>
      <trkpt lat="45.57013" lon="6.57347">
        <ele>2019.8000488281</ele>
        <time>2014-01-31T12:29:21.000Z</time>
      </trkpt>
      <trkpt lat="45.57013" lon="6.57346">
        <ele>2019.8000488281</ele>
        <time>2014-01-31T12:29:22.000Z</time>
      </trkpt>
      <trkpt lat="45.57013" lon="6.57346">
        <ele>2019.8000488281</ele>
        <time>2014-01-31T12:29:23.000Z</time>
      </trkpt>
      <trkpt lat="45.57013" lon="6.57346">
        <ele>2019.8000488281</ele>
        <time>2014-01-31T12:29:24.000Z</time>
      </trkpt>
      <trkpt lat="45.57013" lon="6.57346">
        <ele>2019.8000488281</ele>
        <time>2014-01-31T12:29:26.000Z</time>
      </trkpt>
      <trkpt lat="45.57013" lon="6.57346">
        <ele>2019.8000488281</ele>
        <time>2014-01-31T12:29:27.000Z</time>
      </trkpt>
      <trkpt lat="45.57013" lon="6.57346">
        <ele>2019.8000488281</ele>
        <time>2014-01-31T12:29:28.000Z</time>
      </trkpt>
      <trkpt lat="45.57013" lon="6.57346">
        <ele>2019.8000488281</ele>
        <time>2014-01-31T12:29:29.000Z</time>
      </trkpt>
      <trkpt lat="45.57013" lon="6.57346">
        <ele>2019.8000488281</ele>
        <time>2014-01-31T12:29:30.000Z</time>
      </trkpt>
      <trkpt lat="45.57013" lon="6.57346">
        <ele>2019.8000488281</ele>
        <time>2014-01-31T12:29:31.000Z</time>
      </trkpt>
      <trkpt lat="45.57013" lon="6.57346">
        <ele>2020</ele>
        <time>2014-01-31T12:29:32.000Z</time>
      </trkpt>
      <trkpt lat="45.57013" lon="6.57346">
        <ele>2020</ele>
        <time>2014-01-31T12:29:33.000Z</time>
      </trkpt>
      <trkpt lat="45.57013" lon="6.57346">
        <ele>2019.8000488281</ele>
        <time>2014-01-31T12:29:35.000Z</time>
      </trkpt>
      <trkpt lat="45.57013" lon="6.57346">
        <ele>2019.8000488281</ele>
        <time>2014-01-31T12:29:36.000Z</time>
      </trkpt>
      <trkpt lat="45.57013" lon="6.57346">
        <ele>2019.8000488281</ele>
        <time>2014-01-31T12:29:37.000Z</time>
      </trkpt>
      <trkpt lat="45.57013" lon="6.57346">
        <ele>2019.8000488281</ele>
        <time>2014-01-31T12:29:38.000Z</time>
      </trkpt>
      <trkpt lat="45.57013" lon="6.57346">
        <ele>2019.8000488281</ele>
        <time>2014-01-31T12:29:39.000Z</time>
      </trkpt>
      <trkpt lat="45.57013" lon="6.57346">
        <ele>2019.5999755859</ele>
        <time>2014-01-31T12:29:40.000Z</time>
      </trkpt>
      <trkpt lat="45.57013" lon="6.57346">
        <ele>2019.5999755859</ele>
        <time>2014-01-31T12:29:41.000Z</time>
      </trkpt>
      <trkpt lat="45.57013" lon="6.57346">
        <ele>2019.5999755859</ele>
        <time>2014-01-31T12:29:42.000Z</time>
      </trkpt>
      <trkpt lat="45.57013" lon="6.57346">
        <ele>2019.5999755859</ele>
        <time>2014-01-31T12:29:43.000Z</time>
      </trkpt>
      <trkpt lat="45.57013" lon="6.57346">
        <ele>2019.5999755859</ele>
        <time>2014-01-31T12:29:44.000Z</time>
      </trkpt>
      <trkpt lat="45.57013" lon="6.57346">
        <ele>2019.5999755859</ele>
        <time>2014-01-31T12:29:45.000Z</time>
      </trkpt>
      <trkpt lat="45.57013" lon="6.57346">
        <ele>2019.4000244141</ele>
        <time>2014-01-31T12:29:46.000Z</time>
      </trkpt>
      <trkpt lat="45.57013" lon="6.57346">
        <ele>2019.4000244141</ele>
        <time>2014-01-31T12:29:47.000Z</time>
      </trkpt>
      <trkpt lat="45.57013" lon="6.57346">
        <ele>2019.5999755859</ele>
        <time>2014-01-31T12:29:49.000Z</time>
      </trkpt>
      <trkpt lat="45.57013" lon="6.57346">
        <ele>2019.5999755859</ele>
        <time>2014-01-31T12:29:50.000Z</time>
      </trkpt>
      <trkpt lat="45.57013" lon="6.57346">
        <ele>2019.8000488281</ele>
        <time>2014-01-31T12:29:51.000Z</time>
      </trkpt>
      <trkpt lat="45.57013" lon="6.57346">
        <ele>2020</ele>
        <time>2014-01-31T12:29:52.000Z</time>
      </trkpt>
      <trkpt lat="45.57013" lon="6.57346">
        <ele>2020</ele>
        <time>2014-01-31T12:29:53.000Z</time>
      </trkpt>
      <trkpt lat="45.57013" lon="6.57346">
        <ele>2020.1999511719</ele>
        <time>2014-01-31T12:29:54.000Z</time>
      </trkpt>
      <trkpt lat="45.57013" lon="6.57346">
        <ele>2020.1999511719</ele>
        <time>2014-01-31T12:29:55.000Z</time>
      </trkpt>
      <trkpt lat="45.57013" lon="6.57346">
        <ele>2020.1999511719</ele>
        <time>2014-01-31T12:29:56.000Z</time>
      </trkpt>
      <trkpt lat="45.57013" lon="6.57346">
        <ele>2020</ele>
        <time>2014-01-31T12:29:57.000Z</time>
      </trkpt>
      <trkpt lat="45.57013" lon="6.57346">
        <ele>2019.8000488281</ele>
        <time>2014-01-31T12:29:58.000Z</time>
      </trkpt>
      <trkpt lat="45.57013" lon="6.57346">
        <ele>2019.8000488281</ele>
        <time>2014-01-31T12:29:59.000Z</time>
      </trkpt>
      <trkpt lat="45.57013" lon="6.57346">
        <ele>2019.5999755859</ele>
        <time>2014-01-31T12:30:00.000Z</time>
      </trkpt>
      <trkpt lat="45.57013" lon="6.57346">
        <ele>2019.5999755859</ele>
        <time>2014-01-31T12:30:01.000Z</time>
      </trkpt>
      <trkpt lat="45.57015" lon="6.57345">
        <ele>2019.5999755859</ele>
        <time>2014-01-31T12:30:02.000Z</time>
      </trkpt>
      <trkpt lat="45.57015" lon="6.57345">
        <ele>2019.5999755859</ele>
        <time>2014-01-31T12:30:03.000Z</time>
      </trkpt>
      <trkpt lat="45.57015" lon="6.57345">
        <ele>2019.5999755859</ele>
        <time>2014-01-31T12:30:04.000Z</time>
      </trkpt>
      <trkpt lat="45.57015" lon="6.57345">
        <ele>2019.4000244141</ele>
        <time>2014-01-31T12:30:05.000Z</time>
      </trkpt>
      <trkpt lat="45.57015" lon="6.57345">
        <ele>2019.4000244141</ele>
        <time>2014-01-31T12:30:06.000Z</time>
      </trkpt>
      <trkpt lat="45.57015" lon="6.57345">
        <ele>2019.1999511719</ele>
        <time>2014-01-31T12:30:07.000Z</time>
      </trkpt>
      <trkpt lat="45.57015" lon="6.57345">
        <ele>2019.1999511719</ele>
        <time>2014-01-31T12:30:08.000Z</time>
      </trkpt>
      <trkpt lat="45.57015" lon="6.57345">
        <ele>2019.4000244141</ele>
        <time>2014-01-31T12:30:09.000Z</time>
      </trkpt>
      <trkpt lat="45.57015" lon="6.57345">
        <ele>2019.8000488281</ele>
        <time>2014-01-31T12:30:10.000Z</time>
      </trkpt>
      <trkpt lat="45.57015" lon="6.57345">
        <ele>2020</ele>
        <time>2014-01-31T12:30:11.000Z</time>
      </trkpt>
      <trkpt lat="45.57015" lon="6.57345">
        <ele>2020</ele>
        <time>2014-01-31T12:30:12.000Z</time>
      </trkpt>
      <trkpt lat="45.57015" lon="6.57345">
        <ele>2020</ele>
        <time>2014-01-31T12:30:14.000Z</time>
      </trkpt>
      <trkpt lat="45.57015" lon="6.57345">
        <ele>2019.8000488281</ele>
        <time>2014-01-31T12:30:15.000Z</time>
      </trkpt>
      <trkpt lat="45.57015" lon="6.57345">
        <ele>2019.8000488281</ele>
        <time>2014-01-31T12:30:16.000Z</time>
      </trkpt>
      <trkpt lat="45.57015" lon="6.57345">
        <ele>2019.5999755859</ele>
        <time>2014-01-31T12:30:17.000Z</time>
      </trkpt>
      <trkpt lat="45.57015" lon="6.57345">
        <ele>2019.5999755859</ele>
        <time>2014-01-31T12:30:18.000Z</time>
      </trkpt>
      <trkpt lat="45.57015" lon="6.57345">
        <ele>2019.5999755859</ele>
        <time>2014-01-31T12:30:19.000Z</time>
      </trkpt>
      <trkpt lat="45.57015" lon="6.57345">
        <ele>2019.5999755859</ele>
        <time>2014-01-31T12:30:22.000Z</time>
      </trkpt>
      <trkpt lat="45.57016" lon="6.57344">
        <ele>2019.8000488281</ele>
        <time>2014-01-31T12:30:23.000Z</time>
      </trkpt>
      <trkpt lat="45.57018" lon="6.57342">
        <ele>2019.8000488281</ele>
        <time>2014-01-31T12:30:24.000Z</time>
      </trkpt>
      <trkpt lat="45.57019" lon="6.57341">
        <ele>2019.8000488281</ele>
        <time>2014-01-31T12:30:25.000Z</time>
      </trkpt>
      <trkpt lat="45.5702" lon="6.5734">
        <ele>2019.8000488281</ele>
        <time>2014-01-31T12:30:26.000Z</time>
      </trkpt>
      <trkpt lat="45.57022" lon="6.57339">
        <ele>2019.8000488281</ele>
        <time>2014-01-31T12:30:27.000Z</time>
      </trkpt>
      <trkpt lat="45.57022" lon="6.57339">
        <ele>2019.8000488281</ele>
        <time>2014-01-31T12:30:28.000Z</time>
      </trkpt>
      <trkpt lat="45.57023" lon="6.57338">
        <ele>2020</ele>
        <time>2014-01-31T12:30:29.000Z</time>
      </trkpt>
      <trkpt lat="45.57024" lon="6.57338">
        <ele>2020.4000244141</ele>
        <time>2014-01-31T12:30:30.000Z</time>
      </trkpt>
      <trkpt lat="45.57025" lon="6.57338">
        <ele>2020.8000488281</ele>
        <time>2014-01-31T12:30:31.000Z</time>
      </trkpt>
      <trkpt lat="45.57026" lon="6.57337">
        <ele>2021</ele>
        <time>2014-01-31T12:30:32.000Z</time>
      </trkpt>
      <trkpt lat="45.57026" lon="6.57337">
        <ele>2021</ele>
        <time>2014-01-31T12:30:33.000Z</time>
      </trkpt>
      <trkpt lat="45.57026" lon="6.57337">
        <ele>2021.4000244141</ele>
        <time>2014-01-31T12:30:34.000Z</time>
      </trkpt>
      <trkpt lat="45.57027" lon="6.57337">
        <ele>2021.4000244141</ele>
        <time>2014-01-31T12:30:35.000Z</time>
      </trkpt>
      <trkpt lat="45.57027" lon="6.57337">
        <ele>2021.4000244141</ele>
        <time>2014-01-31T12:30:36.000Z</time>
      </trkpt>
      <trkpt lat="45.57027" lon="6.57336">
        <ele>2021.5999755859</ele>
        <time>2014-01-31T12:30:37.000Z</time>
      </trkpt>
      <trkpt lat="45.57027" lon="6.57336">
        <ele>2021.5999755859</ele>
        <time>2014-01-31T12:30:38.000Z</time>
      </trkpt>
      <trkpt lat="45.57028" lon="6.57336">
        <ele>2021.8000488281</ele>
        <time>2014-01-31T12:30:39.000Z</time>
      </trkpt>
      <trkpt lat="45.57028" lon="6.57336">
        <ele>2021.5999755859</ele>
        <time>2014-01-31T12:30:40.000Z</time>
      </trkpt>
      <trkpt lat="45.57028" lon="6.57335">
        <ele>2021.5999755859</ele>
        <time>2014-01-31T12:30:41.000Z</time>
      </trkpt>
      <trkpt lat="45.57029" lon="6.57335">
        <ele>2021.8000488281</ele>
        <time>2014-01-31T12:30:42.000Z</time>
      </trkpt>
      <trkpt lat="45.57029" lon="6.57332">
        <ele>2022</ele>
        <time>2014-01-31T12:30:43.000Z</time>
      </trkpt>
      <trkpt lat="45.5703" lon="6.57333">
        <ele>2022</ele>
        <time>2014-01-31T12:30:44.000Z</time>
      </trkpt>
      <trkpt lat="45.5703" lon="6.57332">
        <ele>2022.1999511719</ele>
        <time>2014-01-31T12:30:45.000Z</time>
      </trkpt>
      <trkpt lat="45.57031" lon="6.57331">
        <ele>2022.4000244141</ele>
        <time>2014-01-31T12:30:46.000Z</time>
      </trkpt>
      <trkpt lat="45.57031" lon="6.57331">
        <ele>2022.5999755859</ele>
        <time>2014-01-31T12:30:47.000Z</time>
      </trkpt>
      <trkpt lat="45.57031" lon="6.5733">
        <ele>2022.8000488281</ele>
        <time>2014-01-31T12:30:48.000Z</time>
      </trkpt>
      <trkpt lat="45.57031" lon="6.5733">
        <ele>2023</ele>
        <time>2014-01-31T12:30:49.000Z</time>
      </trkpt>
      <trkpt lat="45.57032" lon="6.57329">
        <ele>2023.5999755859</ele>
        <time>2014-01-31T12:30:50.000Z</time>
      </trkpt>
      <trkpt lat="45.57034" lon="6.57327">
        <ele>2024</ele>
        <time>2014-01-31T12:30:52.000Z</time>
      </trkpt>
      <trkpt lat="45.57035" lon="6.57326">
        <ele>2024</ele>
        <time>2014-01-31T12:30:53.000Z</time>
      </trkpt>
      <trkpt lat="45.57037" lon="6.57325">
        <ele>2024.4000244141</ele>
        <time>2014-01-31T12:30:54.000Z</time>
      </trkpt>
      <trkpt lat="45.57038" lon="6.57324">
        <ele>2024.4000244141</ele>
        <time>2014-01-31T12:30:55.000Z</time>
      </trkpt>
      <trkpt lat="45.57038" lon="6.57324">
        <ele>2024.8000488281</ele>
        <time>2014-01-31T12:30:56.000Z</time>
      </trkpt>
      <trkpt lat="45.57039" lon="6.57323">
        <ele>2025</ele>
        <time>2014-01-31T12:30:57.000Z</time>
      </trkpt>
      <trkpt lat="45.5704" lon="6.57322">
        <ele>2025.4000244141</ele>
        <time>2014-01-31T12:30:58.000Z</time>
      </trkpt>
      <trkpt lat="45.57041" lon="6.57321">
        <ele>2026</ele>
        <time>2014-01-31T12:30:59.000Z</time>
      </trkpt>
      <trkpt lat="45.57042" lon="6.57319">
        <ele>2025.8000488281</ele>
        <time>2014-01-31T12:31:00.000Z</time>
      </trkpt>
      <trkpt lat="45.57042" lon="6.5732">
        <ele>2026.4000244141</ele>
        <time>2014-01-31T12:31:01.000Z</time>
      </trkpt>
      <trkpt lat="45.57043" lon="6.57318">
        <ele>2026.1999511719</ele>
        <time>2014-01-31T12:31:02.000Z</time>
      </trkpt>
      <trkpt lat="45.57043" lon="6.57318">
        <ele>2026.5999755859</ele>
        <time>2014-01-31T12:31:03.000Z</time>
      </trkpt>
      <trkpt lat="45.57043" lon="6.57316">
        <ele>2026.1999511719</ele>
        <time>2014-01-31T12:31:04.000Z</time>
      </trkpt>
      <trkpt lat="45.57043" lon="6.57317">
        <ele>2026.8000488281</ele>
        <time>2014-01-31T12:31:05.000Z</time>
      </trkpt>
      <trkpt lat="45.57043" lon="6.57316">
        <ele>2026.5999755859</ele>
        <time>2014-01-31T12:31:06.000Z</time>
      </trkpt>
      <trkpt lat="45.57043" lon="6.57316">
        <ele>2027</ele>
        <time>2014-01-31T12:31:07.000Z</time>
      </trkpt>
      <trkpt lat="45.57043" lon="6.57316">
        <ele>2026.8000488281</ele>
        <time>2014-01-31T12:31:08.000Z</time>
      </trkpt>
      <trkpt lat="45.57044" lon="6.57315">
        <ele>2027.1999511719</ele>
        <time>2014-01-31T12:31:09.000Z</time>
      </trkpt>
      <trkpt lat="45.57044" lon="6.57315">
        <ele>2027</ele>
        <time>2014-01-31T12:31:10.000Z</time>
      </trkpt>
      <trkpt lat="45.57044" lon="6.57315">
        <ele>2027.5999755859</ele>
        <time>2014-01-31T12:31:11.000Z</time>
      </trkpt>
      <trkpt lat="45.57044" lon="6.57315">
        <ele>2027.4000244141</ele>
        <time>2014-01-31T12:31:12.000Z</time>
      </trkpt>
      <trkpt lat="45.57045" lon="6.57314">
        <ele>2027.8000488281</ele>
        <time>2014-01-31T12:31:13.000Z</time>
      </trkpt>
      <trkpt lat="45.57045" lon="6.57314">
        <ele>2027.8000488281</ele>
        <time>2014-01-31T12:31:14.000Z</time>
      </trkpt>
      <trkpt lat="45.57045" lon="6.57314">
        <ele>2028.4000244141</ele>
        <time>2014-01-31T12:31:15.000Z</time>
      </trkpt>
      <trkpt lat="45.57045" lon="6.57313">
        <ele>2028.8000488281</ele>
        <time>2014-01-31T12:31:17.000Z</time>
      </trkpt>
      <trkpt lat="45.57045" lon="6.57313">
        <ele>2028.8000488281</ele>
        <time>2014-01-31T12:31:18.000Z</time>
      </trkpt>
      <trkpt lat="45.57045" lon="6.57314">
        <ele>2029.4000244141</ele>
        <time>2014-01-31T12:31:19.000Z</time>
      </trkpt>
      <trkpt lat="45.57045" lon="6.57314">
        <ele>2029.4000244141</ele>
        <time>2014-01-31T12:31:20.000Z</time>
      </trkpt>
      <trkpt lat="45.57046" lon="6.57313">
        <ele>2029.5999755859</ele>
        <time>2014-01-31T12:31:21.000Z</time>
      </trkpt>
      <trkpt lat="45.57046" lon="6.57313">
        <ele>2029.8000488281</ele>
        <time>2014-01-31T12:31:22.000Z</time>
      </trkpt>
      <trkpt lat="45.57047" lon="6.57314">
        <ele>2029.8000488281</ele>
        <time>2014-01-31T12:31:23.000Z</time>
      </trkpt>
      <trkpt lat="45.57048" lon="6.57314">
        <ele>2029.8000488281</ele>
        <time>2014-01-31T12:31:24.000Z</time>
      </trkpt>
      <trkpt lat="45.57047" lon="6.57314">
        <ele>2029.8000488281</ele>
        <time>2014-01-31T12:31:25.000Z</time>
      </trkpt>
      <trkpt lat="45.57048" lon="6.57315">
        <ele>2029.8000488281</ele>
        <time>2014-01-31T12:31:26.000Z</time>
      </trkpt>
      <trkpt lat="45.57048" lon="6.57315">
        <ele>2030</ele>
        <time>2014-01-31T12:31:27.000Z</time>
      </trkpt>
      <trkpt lat="45.57049" lon="6.57315">
        <ele>2030.1999511719</ele>
        <time>2014-01-31T12:31:28.000Z</time>
      </trkpt>
      <trkpt lat="45.57049" lon="6.57315">
        <ele>2030.4000244141</ele>
        <time>2014-01-31T12:31:29.000Z</time>
      </trkpt>
      <trkpt lat="45.5705" lon="6.57315">
        <ele>2030.5999755859</ele>
        <time>2014-01-31T12:31:30.000Z</time>
      </trkpt>
      <trkpt lat="45.57051" lon="6.57315">
        <ele>2031.1999511719</ele>
        <time>2014-01-31T12:31:31.000Z</time>
      </trkpt>
      <trkpt lat="45.57051" lon="6.57315">
        <ele>2031.4000244141</ele>
        <time>2014-01-31T12:31:32.000Z</time>
      </trkpt>
      <trkpt lat="45.57052" lon="6.57315">
        <ele>2032</ele>
        <time>2014-01-31T12:31:33.000Z</time>
      </trkpt>
      <trkpt lat="45.57054" lon="6.57316">
        <ele>2032</ele>
        <time>2014-01-31T12:31:34.000Z</time>
      </trkpt>
      <trkpt lat="45.57054" lon="6.57316">
        <ele>2032.4000244141</ele>
        <time>2014-01-31T12:31:35.000Z</time>
      </trkpt>
      <trkpt lat="45.57056" lon="6.57315">
        <ele>2032.1999511719</ele>
        <time>2014-01-31T12:31:36.000Z</time>
      </trkpt>
      <trkpt lat="45.57056" lon="6.57315">
        <ele>2032.4000244141</ele>
        <time>2014-01-31T12:31:37.000Z</time>
      </trkpt>
      <trkpt lat="45.57056" lon="6.57316">
        <ele>2032.1999511719</ele>
        <time>2014-01-31T12:31:38.000Z</time>
      </trkpt>
      <trkpt lat="45.57057" lon="6.57316">
        <ele>2032.1999511719</ele>
        <time>2014-01-31T12:31:39.000Z</time>
      </trkpt>
      <trkpt lat="45.57059" lon="6.57317">
        <ele>2032.1999511719</ele>
        <time>2014-01-31T12:31:40.000Z</time>
      </trkpt>
      <trkpt lat="45.57059" lon="6.57316">
        <ele>2032.1999511719</ele>
        <time>2014-01-31T12:31:41.000Z</time>
      </trkpt>
      <trkpt lat="45.5706" lon="6.57316">
        <ele>2032.4000244141</ele>
        <time>2014-01-31T12:31:42.000Z</time>
      </trkpt>
      <trkpt lat="45.5706" lon="6.57316">
        <ele>2032.5999755859</ele>
        <time>2014-01-31T12:31:43.000Z</time>
      </trkpt>
      <trkpt lat="45.57061" lon="6.57316">
        <ele>2032.8000488281</ele>
        <time>2014-01-31T12:31:44.000Z</time>
      </trkpt>
      <trkpt lat="45.57062" lon="6.57316">
        <ele>2033</ele>
        <time>2014-01-31T12:31:45.000Z</time>
      </trkpt>
      <trkpt lat="45.57062" lon="6.57316">
        <ele>2033.1999511719</ele>
        <time>2014-01-31T12:31:46.000Z</time>
      </trkpt>
      <trkpt lat="45.57063" lon="6.57316">
        <ele>2033.4000244141</ele>
        <time>2014-01-31T12:31:47.000Z</time>
      </trkpt>
      <trkpt lat="45.57064" lon="6.57316">
        <ele>2033.5999755859</ele>
        <time>2014-01-31T12:31:49.000Z</time>
      </trkpt>
      <trkpt lat="45.57065" lon="6.57316">
        <ele>2033.5999755859</ele>
        <time>2014-01-31T12:31:50.000Z</time>
      </trkpt>
      <trkpt lat="45.57066" lon="6.57316">
        <ele>2034</ele>
        <time>2014-01-31T12:31:51.000Z</time>
      </trkpt>
      <trkpt lat="45.57066" lon="6.57316">
        <ele>2034.1999511719</ele>
        <time>2014-01-31T12:31:52.000Z</time>
      </trkpt>
      <trkpt lat="45.57067" lon="6.57316">
        <ele>2034.5999755859</ele>
        <time>2014-01-31T12:31:53.000Z</time>
      </trkpt>
      <trkpt lat="45.57067" lon="6.57315">
        <ele>2035</ele>
        <time>2014-01-31T12:31:54.000Z</time>
      </trkpt>
      <trkpt lat="45.57068" lon="6.57315">
        <ele>2035.5999755859</ele>
        <time>2014-01-31T12:31:55.000Z</time>
      </trkpt>
      <trkpt lat="45.57068" lon="6.57315">
        <ele>2035.5999755859</ele>
        <time>2014-01-31T12:31:56.000Z</time>
      </trkpt>
      <trkpt lat="45.57068" lon="6.57315">
        <ele>2035.8000488281</ele>
        <time>2014-01-31T12:31:57.000Z</time>
      </trkpt>
      <trkpt lat="45.57068" lon="6.57315">
        <ele>2035.5999755859</ele>
        <time>2014-01-31T12:31:58.000Z</time>
      </trkpt>
      <trkpt lat="45.57068" lon="6.57315">
        <ele>2035.5999755859</ele>
        <time>2014-01-31T12:31:59.000Z</time>
      </trkpt>
      <trkpt lat="45.57068" lon="6.57315">
        <ele>2035.5999755859</ele>
        <time>2014-01-31T12:32:00.000Z</time>
      </trkpt>
      <trkpt lat="45.57068" lon="6.57315">
        <ele>2035.4000244141</ele>
        <time>2014-01-31T12:32:01.000Z</time>
      </trkpt>
      <trkpt lat="45.57068" lon="6.57315">
        <ele>2035.4000244141</ele>
        <time>2014-01-31T12:32:02.000Z</time>
      </trkpt>
      <trkpt lat="45.57068" lon="6.57315">
        <ele>2035.4000244141</ele>
        <time>2014-01-31T12:32:03.000Z</time>
      </trkpt>
      <trkpt lat="45.57068" lon="6.57314">
        <ele>2035.5999755859</ele>
        <time>2014-01-31T12:32:04.000Z</time>
      </trkpt>
      <trkpt lat="45.5707" lon="6.57315">
        <ele>2035.5999755859</ele>
        <time>2014-01-31T12:32:05.000Z</time>
      </trkpt>
      <trkpt lat="45.57069" lon="6.57315">
        <ele>2035.5999755859</ele>
        <time>2014-01-31T12:32:06.000Z</time>
      </trkpt>
      <trkpt lat="45.5707" lon="6.57316">
        <ele>2035.5999755859</ele>
        <time>2014-01-31T12:32:07.000Z</time>
      </trkpt>
      <trkpt lat="45.5707" lon="6.57317">
        <ele>2035.5999755859</ele>
        <time>2014-01-31T12:32:08.000Z</time>
      </trkpt>
      <trkpt lat="45.57071" lon="6.57317">
        <ele>2035.5999755859</ele>
        <time>2014-01-31T12:32:09.000Z</time>
      </trkpt>
      <trkpt lat="45.57071" lon="6.57317">
        <ele>2035.5999755859</ele>
        <time>2014-01-31T12:32:10.000Z</time>
      </trkpt>
      <trkpt lat="45.57071" lon="6.57317">
        <ele>2035.8000488281</ele>
        <time>2014-01-31T12:32:11.000Z</time>
      </trkpt>
      <trkpt lat="45.57071" lon="6.57317">
        <ele>2035.8000488281</ele>
        <time>2014-01-31T12:32:12.000Z</time>
      </trkpt>
      <trkpt lat="45.57071" lon="6.57317">
        <ele>2036</ele>
        <time>2014-01-31T12:32:13.000Z</time>
      </trkpt>
      <trkpt lat="45.57071" lon="6.57317">
        <ele>2036</ele>
        <time>2014-01-31T12:32:14.000Z</time>
      </trkpt>
      <trkpt lat="45.57071" lon="6.57317">
        <ele>2036.1999511719</ele>
        <time>2014-01-31T12:32:15.000Z</time>
      </trkpt>
      <trkpt lat="45.57071" lon="6.57317">
        <ele>2036.1999511719</ele>
        <time>2014-01-31T12:32:16.000Z</time>
      </trkpt>
      <trkpt lat="45.57071" lon="6.57317">
        <ele>2036.1999511719</ele>
        <time>2014-01-31T12:32:17.000Z</time>
      </trkpt>
      <trkpt lat="45.57071" lon="6.57317">
        <ele>2036.1999511719</ele>
        <time>2014-01-31T12:32:18.000Z</time>
      </trkpt>
      <trkpt lat="45.57071" lon="6.57317">
        <ele>2036.1999511719</ele>
        <time>2014-01-31T12:32:19.000Z</time>
      </trkpt>
      <trkpt lat="45.57071" lon="6.57317">
        <ele>2036.1999511719</ele>
        <time>2014-01-31T12:32:20.000Z</time>
      </trkpt>
      <trkpt lat="45.57071" lon="6.57317">
        <ele>2036.1999511719</ele>
        <time>2014-01-31T12:32:21.000Z</time>
      </trkpt>
      <trkpt lat="45.57071" lon="6.57317">
        <ele>2036</ele>
        <time>2014-01-31T12:32:22.000Z</time>
      </trkpt>
      <trkpt lat="45.57071" lon="6.57318">
        <ele>2036</ele>
        <time>2014-01-31T12:32:23.000Z</time>
      </trkpt>
      <trkpt lat="45.57071" lon="6.57318">
        <ele>2036</ele>
        <time>2014-01-31T12:32:24.000Z</time>
      </trkpt>
      <trkpt lat="45.57072" lon="6.57319">
        <ele>2036</ele>
        <time>2014-01-31T12:32:25.000Z</time>
      </trkpt>
      <trkpt lat="45.57072" lon="6.57319">
        <ele>2036</ele>
        <time>2014-01-31T12:32:26.000Z</time>
      </trkpt>
      <trkpt lat="45.57072" lon="6.5732">
        <ele>2036.1999511719</ele>
        <time>2014-01-31T12:32:27.000Z</time>
      </trkpt>
      <trkpt lat="45.57072" lon="6.5732">
        <ele>2036.1999511719</ele>
        <time>2014-01-31T12:32:28.000Z</time>
      </trkpt>
      <trkpt lat="45.57073" lon="6.57321">
        <ele>2036.5999755859</ele>
        <time>2014-01-31T12:32:29.000Z</time>
      </trkpt>
      <trkpt lat="45.57073" lon="6.57322">
        <ele>2036.5999755859</ele>
        <time>2014-01-31T12:32:30.000Z</time>
      </trkpt>
      <trkpt lat="45.57073" lon="6.57323">
        <ele>2037</ele>
        <time>2014-01-31T12:32:31.000Z</time>
      </trkpt>
      <trkpt lat="45.57074" lon="6.57324">
        <ele>2037</ele>
        <time>2014-01-31T12:32:32.000Z</time>
      </trkpt>
      <trkpt lat="45.57075" lon="6.57325">
        <ele>2037.4000244141</ele>
        <time>2014-01-31T12:32:33.000Z</time>
      </trkpt>
      <trkpt lat="45.57076" lon="6.57325">
        <ele>2037.5999755859</ele>
        <time>2014-01-31T12:32:34.000Z</time>
      </trkpt>
      <trkpt lat="45.57076" lon="6.57326">
        <ele>2037.8000488281</ele>
        <time>2014-01-31T12:32:35.000Z</time>
      </trkpt>
      <trkpt lat="45.57077" lon="6.57326">
        <ele>2038</ele>
        <time>2014-01-31T12:32:36.000Z</time>
      </trkpt>
      <trkpt lat="45.57077" lon="6.57326">
        <ele>2038.1999511719</ele>
        <time>2014-01-31T12:32:37.000Z</time>
      </trkpt>
      <trkpt lat="45.57077" lon="6.57326">
        <ele>2038.1999511719</ele>
        <time>2014-01-31T12:32:38.000Z</time>
      </trkpt>
      <trkpt lat="45.57077" lon="6.57326">
        <ele>2038.1999511719</ele>
        <time>2014-01-31T12:32:39.000Z</time>
      </trkpt>
      <trkpt lat="45.57077" lon="6.57326">
        <ele>2038</ele>
        <time>2014-01-31T12:32:40.000Z</time>
      </trkpt>
      <trkpt lat="45.57078" lon="6.57327">
        <ele>2037.8000488281</ele>
        <time>2014-01-31T12:32:41.000Z</time>
      </trkpt>
      <trkpt lat="45.57079" lon="6.57327">
        <ele>2037.8000488281</ele>
        <time>2014-01-31T12:32:42.000Z</time>
      </trkpt>
      <trkpt lat="45.57079" lon="6.57326">
        <ele>2037.5999755859</ele>
        <time>2014-01-31T12:32:43.000Z</time>
      </trkpt>
      <trkpt lat="45.5708" lon="6.57326">
        <ele>2037.5999755859</ele>
        <time>2014-01-31T12:32:44.000Z</time>
      </trkpt>
      <trkpt lat="45.57082" lon="6.57325">
        <ele>2037.5999755859</ele>
        <time>2014-01-31T12:32:45.000Z</time>
      </trkpt>
      <trkpt lat="45.57082" lon="6.57325">
        <ele>2037.5999755859</ele>
        <time>2014-01-31T12:32:46.000Z</time>
      </trkpt>
      <trkpt lat="45.57082" lon="6.57324">
        <ele>2037.8000488281</ele>
        <time>2014-01-31T12:32:47.000Z</time>
      </trkpt>
      <trkpt lat="45.57083" lon="6.57324">
        <ele>2037.8000488281</ele>
        <time>2014-01-31T12:32:48.000Z</time>
      </trkpt>
      <trkpt lat="45.57083" lon="6.57324">
        <ele>2038.1999511719</ele>
        <time>2014-01-31T12:32:49.000Z</time>
      </trkpt>
      <trkpt lat="45.57083" lon="6.57324">
        <ele>2038.4000244141</ele>
        <time>2014-01-31T12:32:50.000Z</time>
      </trkpt>
      <trkpt lat="45.57083" lon="6.57324">
        <ele>2038.8000488281</ele>
        <time>2014-01-31T12:32:51.000Z</time>
      </trkpt>
      <trkpt lat="45.57083" lon="6.57324">
        <ele>2039</ele>
        <time>2014-01-31T12:32:52.000Z</time>
      </trkpt>
      <trkpt lat="45.57083" lon="6.57324">
        <ele>2039</ele>
        <time>2014-01-31T12:32:53.000Z</time>
      </trkpt>
      <trkpt lat="45.57083" lon="6.57324">
        <ele>2039</ele>
        <time>2014-01-31T12:32:54.000Z</time>
      </trkpt>
      <trkpt lat="45.57083" lon="6.57324">
        <ele>2039.1999511719</ele>
        <time>2014-01-31T12:32:55.000Z</time>
      </trkpt>
      <trkpt lat="45.57083" lon="6.57324">
        <ele>2039.1999511719</ele>
        <time>2014-01-31T12:32:56.000Z</time>
      </trkpt>
      <trkpt lat="45.57083" lon="6.57324">
        <ele>2039.1999511719</ele>
        <time>2014-01-31T12:32:58.000Z</time>
      </trkpt>
      <trkpt lat="45.57083" lon="6.57324">
        <ele>2039.1999511719</ele>
        <time>2014-01-31T12:33:00.000Z</time>
      </trkpt>
      <trkpt lat="45.57084" lon="6.57323">
        <ele>2039.1999511719</ele>
        <time>2014-01-31T12:33:02.000Z</time>
      </trkpt>
      <trkpt lat="45.57085" lon="6.57323">
        <ele>2039.1999511719</ele>
        <time>2014-01-31T12:33:03.000Z</time>
      </trkpt>
      <trkpt lat="45.57087" lon="6.57323">
        <ele>2039.1999511719</ele>
        <time>2014-01-31T12:33:04.000Z</time>
      </trkpt>
      <trkpt lat="45.57087" lon="6.57323">
        <ele>2039.4000244141</ele>
        <time>2014-01-31T12:33:05.000Z</time>
      </trkpt>
      <trkpt lat="45.57087" lon="6.57322">
        <ele>2039.5999755859</ele>
        <time>2014-01-31T12:33:06.000Z</time>
      </trkpt>
      <trkpt lat="45.57088" lon="6.57322">
        <ele>2039.8000488281</ele>
        <time>2014-01-31T12:33:07.000Z</time>
      </trkpt>
      <trkpt lat="45.57088" lon="6.57322">
        <ele>2040.1999511719</ele>
        <time>2014-01-31T12:33:08.000Z</time>
      </trkpt>
      <trkpt lat="45.57088" lon="6.57322">
        <ele>2040.5999755859</ele>
        <time>2014-01-31T12:33:09.000Z</time>
      </trkpt>
      <trkpt lat="45.57088" lon="6.57322">
        <ele>2040.5999755859</ele>
        <time>2014-01-31T12:33:10.000Z</time>
      </trkpt>
      <trkpt lat="45.57088" lon="6.57322">
        <ele>2040.8000488281</ele>
        <time>2014-01-31T12:33:11.000Z</time>
      </trkpt>
      <trkpt lat="45.57088" lon="6.57322">
        <ele>2040.8000488281</ele>
        <time>2014-01-31T12:33:12.000Z</time>
      </trkpt>
      <trkpt lat="45.57088" lon="6.57322">
        <ele>2040.8000488281</ele>
        <time>2014-01-31T12:33:13.000Z</time>
      </trkpt>
      <trkpt lat="45.57088" lon="6.57322">
        <ele>2040.8000488281</ele>
        <time>2014-01-31T12:33:14.000Z</time>
      </trkpt>
      <trkpt lat="45.57088" lon="6.57322">
        <ele>2040.8000488281</ele>
        <time>2014-01-31T12:33:16.000Z</time>
      </trkpt>
      <trkpt lat="45.57088" lon="6.57322">
        <ele>2040.8000488281</ele>
        <time>2014-01-31T12:33:17.000Z</time>
      </trkpt>
      <trkpt lat="45.57088" lon="6.57322">
        <ele>2040.8000488281</ele>
        <time>2014-01-31T12:33:19.000Z</time>
      </trkpt>
      <trkpt lat="45.57089" lon="6.57322">
        <ele>2040.8000488281</ele>
        <time>2014-01-31T12:33:20.000Z</time>
      </trkpt>
      <trkpt lat="45.57089" lon="6.57322">
        <ele>2040.5999755859</ele>
        <time>2014-01-31T12:33:21.000Z</time>
      </trkpt>
      <trkpt lat="45.5709" lon="6.57322">
        <ele>2040.5999755859</ele>
        <time>2014-01-31T12:33:22.000Z</time>
      </trkpt>
      <trkpt lat="45.5709" lon="6.57322">
        <ele>2041</ele>
        <time>2014-01-31T12:33:23.000Z</time>
      </trkpt>
      <trkpt lat="45.57091" lon="6.57322">
        <ele>2041.1999511719</ele>
        <time>2014-01-31T12:33:24.000Z</time>
      </trkpt>
      <trkpt lat="45.57092" lon="6.57322">
        <ele>2041.4000244141</ele>
        <time>2014-01-31T12:33:25.000Z</time>
      </trkpt>
      <trkpt lat="45.57093" lon="6.57322">
        <ele>2041.5999755859</ele>
        <time>2014-01-31T12:33:26.000Z</time>
      </trkpt>
      <trkpt lat="45.57094" lon="6.57322">
        <ele>2041.5999755859</ele>
        <time>2014-01-31T12:33:27.000Z</time>
      </trkpt>
      <trkpt lat="45.57097" lon="6.57321">
        <ele>2041.5999755859</ele>
        <time>2014-01-31T12:33:30.000Z</time>
      </trkpt>
      <trkpt lat="45.57097" lon="6.57322">
        <ele>2041.4000244141</ele>
        <time>2014-01-31T12:33:31.000Z</time>
      </trkpt>
      <trkpt lat="45.57098" lon="6.57321">
        <ele>2041.4000244141</ele>
        <time>2014-01-31T12:33:32.000Z</time>
      </trkpt>
      <trkpt lat="45.57098" lon="6.57321">
        <ele>2041.4000244141</ele>
        <time>2014-01-31T12:33:33.000Z</time>
      </trkpt>
      <trkpt lat="45.57098" lon="6.5732">
        <ele>2041.4000244141</ele>
        <time>2014-01-31T12:33:34.000Z</time>
      </trkpt>
      <trkpt lat="45.571" lon="6.5732">
        <ele>2041.5999755859</ele>
        <time>2014-01-31T12:33:35.000Z</time>
      </trkpt>
      <trkpt lat="45.571" lon="6.5732">
        <ele>2042</ele>
        <time>2014-01-31T12:33:36.000Z</time>
      </trkpt>
      <trkpt lat="45.57101" lon="6.5732">
        <ele>2042.1999511719</ele>
        <time>2014-01-31T12:33:37.000Z</time>
      </trkpt>
      <trkpt lat="45.57101" lon="6.57319">
        <ele>2042.5999755859</ele>
        <time>2014-01-31T12:33:38.000Z</time>
      </trkpt>
      <trkpt lat="45.57102" lon="6.5732">
        <ele>2042.8000488281</ele>
        <time>2014-01-31T12:33:39.000Z</time>
      </trkpt>
      <trkpt lat="45.57102" lon="6.57319">
        <ele>2042.8000488281</ele>
        <time>2014-01-31T12:33:40.000Z</time>
      </trkpt>
      <trkpt lat="45.57102" lon="6.57319">
        <ele>2042.8000488281</ele>
        <time>2014-01-31T12:33:41.000Z</time>
      </trkpt>
      <trkpt lat="45.57103" lon="6.57319">
        <ele>2043</ele>
        <time>2014-01-31T12:33:42.000Z</time>
      </trkpt>
      <trkpt lat="45.57104" lon="6.57319">
        <ele>2043</ele>
        <time>2014-01-31T12:33:43.000Z</time>
      </trkpt>
      <trkpt lat="45.57106" lon="6.57319">
        <ele>2043.4000244141</ele>
        <time>2014-01-31T12:33:44.000Z</time>
      </trkpt>
      <trkpt lat="45.57106" lon="6.57319">
        <ele>2043.5999755859</ele>
        <time>2014-01-31T12:33:45.000Z</time>
      </trkpt>
      <trkpt lat="45.57107" lon="6.57318">
        <ele>2044.1999511719</ele>
        <time>2014-01-31T12:33:46.000Z</time>
      </trkpt>
      <trkpt lat="45.57107" lon="6.57318">
        <ele>2044.5999755859</ele>
        <time>2014-01-31T12:33:47.000Z</time>
      </trkpt>
      <trkpt lat="45.57108" lon="6.57318">
        <ele>2044.8000488281</ele>
        <time>2014-01-31T12:33:48.000Z</time>
      </trkpt>
      <trkpt lat="45.57108" lon="6.57318">
        <ele>2045</ele>
        <time>2014-01-31T12:33:49.000Z</time>
      </trkpt>
      <trkpt lat="45.57109" lon="6.57319">
        <ele>2045.4000244141</ele>
        <time>2014-01-31T12:33:50.000Z</time>
      </trkpt>
      <trkpt lat="45.57109" lon="6.57319">
        <ele>2045.5999755859</ele>
        <time>2014-01-31T12:33:51.000Z</time>
      </trkpt>
      <trkpt lat="45.57109" lon="6.57319">
        <ele>2045.8000488281</ele>
        <time>2014-01-31T12:33:52.000Z</time>
      </trkpt>
      <trkpt lat="45.57109" lon="6.57319">
        <ele>2046</ele>
        <time>2014-01-31T12:33:53.000Z</time>
      </trkpt>
      <trkpt lat="45.57109" lon="6.57319">
        <ele>2046</ele>
        <time>2014-01-31T12:33:54.000Z</time>
      </trkpt>
      <trkpt lat="45.57109" lon="6.57319">
        <ele>2045.8000488281</ele>
        <time>2014-01-31T12:33:55.000Z</time>
      </trkpt>
      <trkpt lat="45.57109" lon="6.57319">
        <ele>2045.8000488281</ele>
        <time>2014-01-31T12:33:56.000Z</time>
      </trkpt>
      <trkpt lat="45.57109" lon="6.57319">
        <ele>2045.5999755859</ele>
        <time>2014-01-31T12:33:57.000Z</time>
      </trkpt>
      <trkpt lat="45.5711" lon="6.57319">
        <ele>2045.5999755859</ele>
        <time>2014-01-31T12:33:58.000Z</time>
      </trkpt>
      <trkpt lat="45.5711" lon="6.57319">
        <ele>2045.5999755859</ele>
        <time>2014-01-31T12:33:59.000Z</time>
      </trkpt>
      <trkpt lat="45.57111" lon="6.57319">
        <ele>2045.4000244141</ele>
        <time>2014-01-31T12:34:00.000Z</time>
      </trkpt>
      <trkpt lat="45.57112" lon="6.5732">
        <ele>2045.4000244141</ele>
        <time>2014-01-31T12:34:01.000Z</time>
      </trkpt>
      <trkpt lat="45.57112" lon="6.5732">
        <ele>2045.1999511719</ele>
        <time>2014-01-31T12:34:02.000Z</time>
      </trkpt>
      <trkpt lat="45.57113" lon="6.57319">
        <ele>2045.5999755859</ele>
        <time>2014-01-31T12:34:03.000Z</time>
      </trkpt>
      <trkpt lat="45.57113" lon="6.57319">
        <ele>2046</ele>
        <time>2014-01-31T12:34:04.000Z</time>
      </trkpt>
      <trkpt lat="45.57115" lon="6.57319">
        <ele>2046.5999755859</ele>
        <time>2014-01-31T12:34:05.000Z</time>
      </trkpt>
      <trkpt lat="45.57115" lon="6.57319">
        <ele>2046.8000488281</ele>
        <time>2014-01-31T12:34:06.000Z</time>
      </trkpt>
      <trkpt lat="45.57117" lon="6.57319">
        <ele>2047</ele>
        <time>2014-01-31T12:34:07.000Z</time>
      </trkpt>
      <trkpt lat="45.57116" lon="6.57318">
        <ele>2047.1999511719</ele>
        <time>2014-01-31T12:34:08.000Z</time>
      </trkpt>
      <trkpt lat="45.57117" lon="6.57318">
        <ele>2047.4000244141</ele>
        <time>2014-01-31T12:34:09.000Z</time>
      </trkpt>
      <trkpt lat="45.57118" lon="6.57318">
        <ele>2047.5999755859</ele>
        <time>2014-01-31T12:34:10.000Z</time>
      </trkpt>
      <trkpt lat="45.57119" lon="6.57318">
        <ele>2047.8000488281</ele>
        <time>2014-01-31T12:34:11.000Z</time>
      </trkpt>
      <trkpt lat="45.5712" lon="6.57318">
        <ele>2047.8000488281</ele>
        <time>2014-01-31T12:34:12.000Z</time>
      </trkpt>
      <trkpt lat="45.57121" lon="6.57318">
        <ele>2048</ele>
        <time>2014-01-31T12:34:13.000Z</time>
      </trkpt>
      <trkpt lat="45.57122" lon="6.57317">
        <ele>2048</ele>
        <time>2014-01-31T12:34:14.000Z</time>
      </trkpt>
      <trkpt lat="45.57122" lon="6.57317">
        <ele>2048.3999023438</ele>
        <time>2014-01-31T12:34:15.000Z</time>
      </trkpt>
      <trkpt lat="45.57124" lon="6.57317">
        <ele>2048.3999023438</ele>
        <time>2014-01-31T12:34:16.000Z</time>
      </trkpt>
      <trkpt lat="45.57125" lon="6.57318">
        <ele>2048.8000488281</ele>
        <time>2014-01-31T12:34:17.000Z</time>
      </trkpt>
      <trkpt lat="45.57126" lon="6.57318">
        <ele>2048.6000976562</ele>
        <time>2014-01-31T12:34:18.000Z</time>
      </trkpt>
      <trkpt lat="45.57127" lon="6.57319">
        <ele>2049.1999511719</ele>
        <time>2014-01-31T12:34:19.000Z</time>
      </trkpt>
      <trkpt lat="45.57128" lon="6.57319">
        <ele>2049.1999511719</ele>
        <time>2014-01-31T12:34:20.000Z</time>
      </trkpt>
      <trkpt lat="45.57128" lon="6.57319">
        <ele>2049.6000976562</ele>
        <time>2014-01-31T12:34:21.000Z</time>
      </trkpt>
      <trkpt lat="45.57128" lon="6.5732">
        <ele>2050</ele>
        <time>2014-01-31T12:34:23.000Z</time>
      </trkpt>
      <trkpt lat="45.57128" lon="6.5732">
        <ele>2050</ele>
        <time>2014-01-31T12:34:24.000Z</time>
      </trkpt>
      <trkpt lat="45.57128" lon="6.57321">
        <ele>2050.6000976562</ele>
        <time>2014-01-31T12:34:25.000Z</time>
      </trkpt>
      <trkpt lat="45.57129" lon="6.57321">
        <ele>2051</ele>
        <time>2014-01-31T12:34:27.000Z</time>
      </trkpt>
      <trkpt lat="45.5713" lon="6.57321">
        <ele>2050.8000488281</ele>
        <time>2014-01-31T12:34:28.000Z</time>
      </trkpt>
      <trkpt lat="45.57131" lon="6.57321">
        <ele>2051.3999023438</ele>
        <time>2014-01-31T12:34:29.000Z</time>
      </trkpt>
      <trkpt lat="45.57132" lon="6.57321">
        <ele>2051.1999511719</ele>
        <time>2014-01-31T12:34:30.000Z</time>
      </trkpt>
      <trkpt lat="45.57132" lon="6.57321">
        <ele>2051.8000488281</ele>
        <time>2014-01-31T12:34:31.000Z</time>
      </trkpt>
      <trkpt lat="45.57133" lon="6.57322">
        <ele>2051.6000976562</ele>
        <time>2014-01-31T12:34:32.000Z</time>
      </trkpt>
      <trkpt lat="45.57133" lon="6.57323">
        <ele>2052</ele>
        <time>2014-01-31T12:34:33.000Z</time>
      </trkpt>
      <trkpt lat="45.57134" lon="6.57323">
        <ele>2052.3999023438</ele>
        <time>2014-01-31T12:34:34.000Z</time>
      </trkpt>
      <trkpt lat="45.57135" lon="6.57324">
        <ele>2052.3999023438</ele>
        <time>2014-01-31T12:34:35.000Z</time>
      </trkpt>
      <trkpt lat="45.57135" lon="6.57324">
        <ele>2052.8000488281</ele>
        <time>2014-01-31T12:34:36.000Z</time>
      </trkpt>
      <trkpt lat="45.57137" lon="6.57325">
        <ele>2052.8000488281</ele>
        <time>2014-01-31T12:34:37.000Z</time>
      </trkpt>
      <trkpt lat="45.57138" lon="6.57326">
        <ele>2053.1999511719</ele>
        <time>2014-01-31T12:34:38.000Z</time>
      </trkpt>
      <trkpt lat="45.57137" lon="6.57326">
        <ele>2053.1999511719</ele>
        <time>2014-01-31T12:34:39.000Z</time>
      </trkpt>
      <trkpt lat="45.57137" lon="6.57326">
        <ele>2053.6000976562</ele>
        <time>2014-01-31T12:34:40.000Z</time>
      </trkpt>
      <trkpt lat="45.57138" lon="6.57327">
        <ele>2054</ele>
        <time>2014-01-31T12:34:42.000Z</time>
      </trkpt>
      <trkpt lat="45.57139" lon="6.57328">
        <ele>2054.1999511719</ele>
        <time>2014-01-31T12:34:44.000Z</time>
      </trkpt>
      <trkpt lat="45.57139" lon="6.57328">
        <ele>2054.1999511719</ele>
        <time>2014-01-31T12:34:45.000Z</time>
      </trkpt>
      <trkpt lat="45.57139" lon="6.57328">
        <ele>2054.3999023438</ele>
        <time>2014-01-31T12:34:46.000Z</time>
      </trkpt>
      <trkpt lat="45.5714" lon="6.57329">
        <ele>2054.6000976562</ele>
        <time>2014-01-31T12:34:47.000Z</time>
      </trkpt>
      <trkpt lat="45.57141" lon="6.5733">
        <ele>2054.6000976562</ele>
        <time>2014-01-31T12:34:48.000Z</time>
      </trkpt>
      <trkpt lat="45.57141" lon="6.57331">
        <ele>2054.6000976562</ele>
        <time>2014-01-31T12:34:49.000Z</time>
      </trkpt>
      <trkpt lat="45.57142" lon="6.57332">
        <ele>2054.6000976562</ele>
        <time>2014-01-31T12:34:50.000Z</time>
      </trkpt>
      <trkpt lat="45.57142" lon="6.57332">
        <ele>2054.8000488281</ele>
        <time>2014-01-31T12:34:51.000Z</time>
      </trkpt>
      <trkpt lat="45.57143" lon="6.57333">
        <ele>2054.8000488281</ele>
        <time>2014-01-31T12:34:52.000Z</time>
      </trkpt>
      <trkpt lat="45.57143" lon="6.57333">
        <ele>2055.3999023438</ele>
        <time>2014-01-31T12:34:53.000Z</time>
      </trkpt>
      <trkpt lat="45.57144" lon="6.57333">
        <ele>2055.1999511719</ele>
        <time>2014-01-31T12:34:54.000Z</time>
      </trkpt>
      <trkpt lat="45.57144" lon="6.57334">
        <ele>2055.6000976562</ele>
        <time>2014-01-31T12:34:55.000Z</time>
      </trkpt>
      <trkpt lat="45.57144" lon="6.57334">
        <ele>2055.6000976562</ele>
        <time>2014-01-31T12:34:56.000Z</time>
      </trkpt>
      <trkpt lat="45.57144" lon="6.57334">
        <ele>2056</ele>
        <time>2014-01-31T12:34:57.000Z</time>
      </trkpt>
      <trkpt lat="45.57145" lon="6.57335">
        <ele>2056.6000976562</ele>
        <time>2014-01-31T12:34:58.000Z</time>
      </trkpt>
      <trkpt lat="45.57145" lon="6.57335">
        <ele>2056.3999023438</ele>
        <time>2014-01-31T12:34:59.000Z</time>
      </trkpt>
      <trkpt lat="45.57145" lon="6.57335">
        <ele>2056.6000976562</ele>
        <time>2014-01-31T12:35:00.000Z</time>
      </trkpt>
      <trkpt lat="45.57146" lon="6.57336">
        <ele>2056.8000488281</ele>
        <time>2014-01-31T12:35:01.000Z</time>
      </trkpt>
      <trkpt lat="45.57146" lon="6.57337">
        <ele>2056.8000488281</ele>
        <time>2014-01-31T12:35:02.000Z</time>
      </trkpt>
      <trkpt lat="45.57147" lon="6.57338">
        <ele>2057</ele>
        <time>2014-01-31T12:35:03.000Z</time>
      </trkpt>
      <trkpt lat="45.57147" lon="6.57338">
        <ele>2057</ele>
        <time>2014-01-31T12:35:04.000Z</time>
      </trkpt>
      <trkpt lat="45.57148" lon="6.57338">
        <ele>2057</ele>
        <time>2014-01-31T12:35:05.000Z</time>
      </trkpt>
      <trkpt lat="45.57149" lon="6.57339">
        <ele>2057</ele>
        <time>2014-01-31T12:35:06.000Z</time>
      </trkpt>
      <trkpt lat="45.57149" lon="6.57339">
        <ele>2057.1999511719</ele>
        <time>2014-01-31T12:35:07.000Z</time>
      </trkpt>
      <trkpt lat="45.57149" lon="6.5734">
        <ele>2057.1999511719</ele>
        <time>2014-01-31T12:35:08.000Z</time>
      </trkpt>
      <trkpt lat="45.57149" lon="6.5734">
        <ele>2057.3999023438</ele>
        <time>2014-01-31T12:35:09.000Z</time>
      </trkpt>
      <trkpt lat="45.5715" lon="6.57341">
        <ele>2057.3999023438</ele>
        <time>2014-01-31T12:35:10.000Z</time>
      </trkpt>
      <trkpt lat="45.57151" lon="6.57341">
        <ele>2057.6000976562</ele>
        <time>2014-01-31T12:35:11.000Z</time>
      </trkpt>
      <trkpt lat="45.57152" lon="6.57342">
        <ele>2058</ele>
        <time>2014-01-31T12:35:13.000Z</time>
      </trkpt>
      <trkpt lat="45.57153" lon="6.57344">
        <ele>2058</ele>
        <time>2014-01-31T12:35:14.000Z</time>
      </trkpt>
      <trkpt lat="45.57153" lon="6.57344">
        <ele>2058.1999511719</ele>
        <time>2014-01-31T12:35:15.000Z</time>
      </trkpt>
      <trkpt lat="45.57153" lon="6.57345">
        <ele>2058.1999511719</ele>
        <time>2014-01-31T12:35:16.000Z</time>
      </trkpt>
      <trkpt lat="45.57154" lon="6.57346">
        <ele>2058.6000976562</ele>
        <time>2014-01-31T12:35:17.000Z</time>
      </trkpt>
      <trkpt lat="45.57154" lon="6.57346">
        <ele>2058.6000976562</ele>
        <time>2014-01-31T12:35:18.000Z</time>
      </trkpt>
      <trkpt lat="45.57155" lon="6.57347">
        <ele>2059.1999511719</ele>
        <time>2014-01-31T12:35:19.000Z</time>
      </trkpt>
      <trkpt lat="45.57155" lon="6.57347">
        <ele>2059.1999511719</ele>
        <time>2014-01-31T12:35:20.000Z</time>
      </trkpt>
      <trkpt lat="45.57156" lon="6.57348">
        <ele>2059.6000976562</ele>
        <time>2014-01-31T12:35:21.000Z</time>
      </trkpt>
      <trkpt lat="45.57156" lon="6.57348">
        <ele>2059.8000488281</ele>
        <time>2014-01-31T12:35:22.000Z</time>
      </trkpt>
      <trkpt lat="45.57157" lon="6.57349">
        <ele>2059.8000488281</ele>
        <time>2014-01-31T12:35:23.000Z</time>
      </trkpt>
      <trkpt lat="45.57158" lon="6.57349">
        <ele>2059.8000488281</ele>
        <time>2014-01-31T12:35:24.000Z</time>
      </trkpt>
      <trkpt lat="45.57158" lon="6.57349">
        <ele>2060</ele>
        <time>2014-01-31T12:35:25.000Z</time>
      </trkpt>
      <trkpt lat="45.57158" lon="6.57349">
        <ele>2060</ele>
        <time>2014-01-31T12:35:26.000Z</time>
      </trkpt>
      <trkpt lat="45.57158" lon="6.57349">
        <ele>2060.1999511719</ele>
        <time>2014-01-31T12:35:27.000Z</time>
      </trkpt>
      <trkpt lat="45.57158" lon="6.57349">
        <ele>2060.1999511719</ele>
        <time>2014-01-31T12:35:28.000Z</time>
      </trkpt>
      <trkpt lat="45.57158" lon="6.57349">
        <ele>2060.3999023438</ele>
        <time>2014-01-31T12:35:29.000Z</time>
      </trkpt>
      <trkpt lat="45.57158" lon="6.57349">
        <ele>2060.6000976562</ele>
        <time>2014-01-31T12:35:30.000Z</time>
      </trkpt>
      <trkpt lat="45.57158" lon="6.57349">
        <ele>2060.8000488281</ele>
        <time>2014-01-31T12:35:31.000Z</time>
      </trkpt>
      <trkpt lat="45.57158" lon="6.57349">
        <ele>2061</ele>
        <time>2014-01-31T12:35:32.000Z</time>
      </trkpt>
      <trkpt lat="45.57158" lon="6.57349">
        <ele>2061</ele>
        <time>2014-01-31T12:35:33.000Z</time>
      </trkpt>
      <trkpt lat="45.57158" lon="6.57349">
        <ele>2061</ele>
        <time>2014-01-31T12:35:34.000Z</time>
      </trkpt>
      <trkpt lat="45.57158" lon="6.57349">
        <ele>2061</ele>
        <time>2014-01-31T12:35:35.000Z</time>
      </trkpt>
      <trkpt lat="45.57158" lon="6.5735">
        <ele>2061.1999511719</ele>
        <time>2014-01-31T12:35:36.000Z</time>
      </trkpt>
      <trkpt lat="45.57159" lon="6.57351">
        <ele>2061.1999511719</ele>
        <time>2014-01-31T12:35:37.000Z</time>
      </trkpt>
      <trkpt lat="45.57159" lon="6.57351">
        <ele>2061.1999511719</ele>
        <time>2014-01-31T12:35:38.000Z</time>
      </trkpt>
      <trkpt lat="45.57159" lon="6.57354">
        <ele>2061.1999511719</ele>
        <time>2014-01-31T12:35:39.000Z</time>
      </trkpt>
      <trkpt lat="45.57159" lon="6.57353">
        <ele>2061.1999511719</ele>
        <time>2014-01-31T12:35:40.000Z</time>
      </trkpt>
      <trkpt lat="45.57159" lon="6.57354">
        <ele>2061</ele>
        <time>2014-01-31T12:35:41.000Z</time>
      </trkpt>
      <trkpt lat="45.5716" lon="6.57356">
        <ele>2061.3999023438</ele>
        <time>2014-01-31T12:35:42.000Z</time>
      </trkpt>
      <trkpt lat="45.5716" lon="6.57359">
        <ele>2061.3999023438</ele>
        <time>2014-01-31T12:35:43.000Z</time>
      </trkpt>
      <trkpt lat="45.57161" lon="6.5736">
        <ele>2061.8000488281</ele>
        <time>2014-01-31T12:35:44.000Z</time>
      </trkpt>
      <trkpt lat="45.57161" lon="6.57361">
        <ele>2061.8000488281</ele>
        <time>2014-01-31T12:35:45.000Z</time>
      </trkpt>
      <trkpt lat="45.57161" lon="6.57362">
        <ele>2062.1999511719</ele>
        <time>2014-01-31T12:35:46.000Z</time>
      </trkpt>
      <trkpt lat="45.5716" lon="6.57362">
        <ele>2062.3999023438</ele>
        <time>2014-01-31T12:35:47.000Z</time>
      </trkpt>
      <trkpt lat="45.5716" lon="6.57363">
        <ele>2062.6000976562</ele>
        <time>2014-01-31T12:35:48.000Z</time>
      </trkpt>
      <trkpt lat="45.5716" lon="6.57364">
        <ele>2062.6000976562</ele>
        <time>2014-01-31T12:35:49.000Z</time>
      </trkpt>
      <trkpt lat="45.5716" lon="6.57366">
        <ele>2062.6000976562</ele>
        <time>2014-01-31T12:35:50.000Z</time>
      </trkpt>
      <trkpt lat="45.5716" lon="6.57367">
        <ele>2062.8000488281</ele>
        <time>2014-01-31T12:35:51.000Z</time>
      </trkpt>
      <trkpt lat="45.57161" lon="6.57368">
        <ele>2062.8000488281</ele>
        <time>2014-01-31T12:35:52.000Z</time>
      </trkpt>
      <trkpt lat="45.57161" lon="6.5737">
        <ele>2062.8000488281</ele>
        <time>2014-01-31T12:35:53.000Z</time>
      </trkpt>
      <trkpt lat="45.57161" lon="6.57369">
        <ele>2063.1999511719</ele>
        <time>2014-01-31T12:35:54.000Z</time>
      </trkpt>
      <trkpt lat="45.57162" lon="6.57371">
        <ele>2063.3999023438</ele>
        <time>2014-01-31T12:35:55.000Z</time>
      </trkpt>
      <trkpt lat="45.57162" lon="6.57372">
        <ele>2063.8000488281</ele>
        <time>2014-01-31T12:35:56.000Z</time>
      </trkpt>
      <trkpt lat="45.57162" lon="6.57373">
        <ele>2064</ele>
        <time>2014-01-31T12:35:57.000Z</time>
      </trkpt>
      <trkpt lat="45.57162" lon="6.57372">
        <ele>2064.1999511719</ele>
        <time>2014-01-31T12:35:58.000Z</time>
      </trkpt>
      <trkpt lat="45.57163" lon="6.57373">
        <ele>2064.3999023438</ele>
        <time>2014-01-31T12:36:00.000Z</time>
      </trkpt>
      <trkpt lat="45.57163" lon="6.57374">
        <ele>2064.3999023438</ele>
        <time>2014-01-31T12:36:01.000Z</time>
      </trkpt>
      <trkpt lat="45.57164" lon="6.57375">
        <ele>2064.6000976562</ele>
        <time>2014-01-31T12:36:02.000Z</time>
      </trkpt>
      <trkpt lat="45.57165" lon="6.57376">
        <ele>2064.6000976562</ele>
        <time>2014-01-31T12:36:03.000Z</time>
      </trkpt>
      <trkpt lat="45.57165" lon="6.57376">
        <ele>2064.8000488281</ele>
        <time>2014-01-31T12:36:04.000Z</time>
      </trkpt>
      <trkpt lat="45.57166" lon="6.57377">
        <ele>2065</ele>
        <time>2014-01-31T12:36:05.000Z</time>
      </trkpt>
      <trkpt lat="45.57167" lon="6.57378">
        <ele>2065</ele>
        <time>2014-01-31T12:36:06.000Z</time>
      </trkpt>
      <trkpt lat="45.57167" lon="6.57378">
        <ele>2065</ele>
        <time>2014-01-31T12:36:07.000Z</time>
      </trkpt>
      <trkpt lat="45.57168" lon="6.57379">
        <ele>2065.1999511719</ele>
        <time>2014-01-31T12:36:08.000Z</time>
      </trkpt>
      <trkpt lat="45.57169" lon="6.5738">
        <ele>2065.3999023438</ele>
        <time>2014-01-31T12:36:09.000Z</time>
      </trkpt>
      <trkpt lat="45.57169" lon="6.5738">
        <ele>2065.6000976562</ele>
        <time>2014-01-31T12:36:10.000Z</time>
      </trkpt>
      <trkpt lat="45.5717" lon="6.57381">
        <ele>2065.6000976562</ele>
        <time>2014-01-31T12:36:11.000Z</time>
      </trkpt>
      <trkpt lat="45.57171" lon="6.57382">
        <ele>2065.8000488281</ele>
        <time>2014-01-31T12:36:12.000Z</time>
      </trkpt>
      <trkpt lat="45.57172" lon="6.57383">
        <ele>2065.8000488281</ele>
        <time>2014-01-31T12:36:13.000Z</time>
      </trkpt>
      <trkpt lat="45.57173" lon="6.57383">
        <ele>2066</ele>
        <time>2014-01-31T12:36:14.000Z</time>
      </trkpt>
      <trkpt lat="45.57173" lon="6.57384">
        <ele>2066</ele>
        <time>2014-01-31T12:36:15.000Z</time>
      </trkpt>
      <trkpt lat="45.57174" lon="6.57384">
        <ele>2066.3999023438</ele>
        <time>2014-01-31T12:36:16.000Z</time>
      </trkpt>
      <trkpt lat="45.57174" lon="6.57385">
        <ele>2066.3999023438</ele>
        <time>2014-01-31T12:36:17.000Z</time>
      </trkpt>
      <trkpt lat="45.57175" lon="6.57385">
        <ele>2066.6000976562</ele>
        <time>2014-01-31T12:36:18.000Z</time>
      </trkpt>
      <trkpt lat="45.57175" lon="6.57385">
        <ele>2066.6000976562</ele>
        <time>2014-01-31T12:36:19.000Z</time>
      </trkpt>
      <trkpt lat="45.57175" lon="6.57386">
        <ele>2067</ele>
        <time>2014-01-31T12:36:20.000Z</time>
      </trkpt>
      <trkpt lat="45.57176" lon="6.57387">
        <ele>2067</ele>
        <time>2014-01-31T12:36:21.000Z</time>
      </trkpt>
      <trkpt lat="45.57176" lon="6.57387">
        <ele>2067.3999023438</ele>
        <time>2014-01-31T12:36:22.000Z</time>
      </trkpt>
      <trkpt lat="45.57177" lon="6.57388">
        <ele>2067.3999023438</ele>
        <time>2014-01-31T12:36:23.000Z</time>
      </trkpt>
      <trkpt lat="45.57177" lon="6.57389">
        <ele>2067.6000976562</ele>
        <time>2014-01-31T12:36:24.000Z</time>
      </trkpt>
      <trkpt lat="45.57178" lon="6.57389">
        <ele>2067.6000976562</ele>
        <time>2014-01-31T12:36:25.000Z</time>
      </trkpt>
      <trkpt lat="45.57178" lon="6.5739">
        <ele>2068</ele>
        <time>2014-01-31T12:36:26.000Z</time>
      </trkpt>
      <trkpt lat="45.57178" lon="6.57391">
        <ele>2068</ele>
        <time>2014-01-31T12:36:27.000Z</time>
      </trkpt>
      <trkpt lat="45.57179" lon="6.57391">
        <ele>2068.1999511719</ele>
        <time>2014-01-31T12:36:28.000Z</time>
      </trkpt>
      <trkpt lat="45.57179" lon="6.57391">
        <ele>2068.3999023438</ele>
        <time>2014-01-31T12:36:29.000Z</time>
      </trkpt>
      <trkpt lat="45.57179" lon="6.57391">
        <ele>2068.6000976562</ele>
        <time>2014-01-31T12:36:30.000Z</time>
      </trkpt>
      <trkpt lat="45.57179" lon="6.57391">
        <ele>2068.6000976562</ele>
        <time>2014-01-31T12:36:31.000Z</time>
      </trkpt>
      <trkpt lat="45.57179" lon="6.57391">
        <ele>2068.8000488281</ele>
        <time>2014-01-31T12:36:32.000Z</time>
      </trkpt>
      <trkpt lat="45.57179" lon="6.57391">
        <ele>2068.8000488281</ele>
        <time>2014-01-31T12:36:33.000Z</time>
      </trkpt>
      <trkpt lat="45.5718" lon="6.57391">
        <ele>2069</ele>
        <time>2014-01-31T12:36:34.000Z</time>
      </trkpt>
      <trkpt lat="45.5718" lon="6.57392">
        <ele>2069.1999511719</ele>
        <time>2014-01-31T12:36:35.000Z</time>
      </trkpt>
      <trkpt lat="45.57181" lon="6.57393">
        <ele>2069.3999023438</ele>
        <time>2014-01-31T12:36:36.000Z</time>
      </trkpt>
      <trkpt lat="45.57182" lon="6.57393">
        <ele>2069.3999023438</ele>
        <time>2014-01-31T12:36:37.000Z</time>
      </trkpt>
      <trkpt lat="45.57183" lon="6.57393">
        <ele>2069.3999023438</ele>
        <time>2014-01-31T12:36:38.000Z</time>
      </trkpt>
      <trkpt lat="45.57183" lon="6.57394">
        <ele>2069.6000976562</ele>
        <time>2014-01-31T12:36:39.000Z</time>
      </trkpt>
      <trkpt lat="45.57183" lon="6.57396">
        <ele>2069.6000976562</ele>
        <time>2014-01-31T12:36:41.000Z</time>
      </trkpt>
      <trkpt lat="45.57184" lon="6.57397">
        <ele>2069.6000976562</ele>
        <time>2014-01-31T12:36:42.000Z</time>
      </trkpt>
      <trkpt lat="45.57184" lon="6.57397">
        <ele>2069.8000488281</ele>
        <time>2014-01-31T12:36:43.000Z</time>
      </trkpt>
      <trkpt lat="45.57184" lon="6.57398">
        <ele>2069.8000488281</ele>
        <time>2014-01-31T12:36:44.000Z</time>
      </trkpt>
      <trkpt lat="45.57184" lon="6.57398">
        <ele>2070</ele>
        <time>2014-01-31T12:36:45.000Z</time>
      </trkpt>
      <trkpt lat="45.57184" lon="6.57398">
        <ele>2070.3999023438</ele>
        <time>2014-01-31T12:36:46.000Z</time>
      </trkpt>
      <trkpt lat="45.57184" lon="6.57398">
        <ele>2070.6000976562</ele>
        <time>2014-01-31T12:36:47.000Z</time>
      </trkpt>
      <trkpt lat="45.57184" lon="6.57398">
        <ele>2070.8000488281</ele>
        <time>2014-01-31T12:36:48.000Z</time>
      </trkpt>
      <trkpt lat="45.57184" lon="6.57398">
        <ele>2071</ele>
        <time>2014-01-31T12:36:49.000Z</time>
      </trkpt>
      <trkpt lat="45.57184" lon="6.57398">
        <ele>2071</ele>
        <time>2014-01-31T12:36:50.000Z</time>
      </trkpt>
      <trkpt lat="45.57184" lon="6.57398">
        <ele>2071</ele>
        <time>2014-01-31T12:36:51.000Z</time>
      </trkpt>
      <trkpt lat="45.57184" lon="6.57398">
        <ele>2071</ele>
        <time>2014-01-31T12:36:53.000Z</time>
      </trkpt>
      <trkpt lat="45.57185" lon="6.574">
        <ele>2071</ele>
        <time>2014-01-31T12:36:54.000Z</time>
      </trkpt>
      <trkpt lat="45.57185" lon="6.574">
        <ele>2071</ele>
        <time>2014-01-31T12:36:55.000Z</time>
      </trkpt>
      <trkpt lat="45.57186" lon="6.57401">
        <ele>2071</ele>
        <time>2014-01-31T12:36:56.000Z</time>
      </trkpt>
      <trkpt lat="45.57186" lon="6.57401">
        <ele>2071</ele>
        <time>2014-01-31T12:36:57.000Z</time>
      </trkpt>
      <trkpt lat="45.57187" lon="6.57402">
        <ele>2071.1999511719</ele>
        <time>2014-01-31T12:36:58.000Z</time>
      </trkpt>
      <trkpt lat="45.57187" lon="6.57403">
        <ele>2071.3999023438</ele>
        <time>2014-01-31T12:36:59.000Z</time>
      </trkpt>
      <trkpt lat="45.57187" lon="6.57404">
        <ele>2071.3999023438</ele>
        <time>2014-01-31T12:37:00.000Z</time>
      </trkpt>
      <trkpt lat="45.57188" lon="6.57405">
        <ele>2071.3999023438</ele>
        <time>2014-01-31T12:37:01.000Z</time>
      </trkpt>
      <trkpt lat="45.57188" lon="6.57406">
        <ele>2071.6000976562</ele>
        <time>2014-01-31T12:37:02.000Z</time>
      </trkpt>
      <trkpt lat="45.57188" lon="6.57407">
        <ele>2071.8000488281</ele>
        <time>2014-01-31T12:37:03.000Z</time>
      </trkpt>
      <trkpt lat="45.57188" lon="6.57408">
        <ele>2072</ele>
        <time>2014-01-31T12:37:04.000Z</time>
      </trkpt>
      <trkpt lat="45.57188" lon="6.57409">
        <ele>2072.1999511719</ele>
        <time>2014-01-31T12:37:05.000Z</time>
      </trkpt>
      <trkpt lat="45.57188" lon="6.5741">
        <ele>2072.3999023438</ele>
        <time>2014-01-31T12:37:06.000Z</time>
      </trkpt>
      <trkpt lat="45.57188" lon="6.57411">
        <ele>2072.6000976562</ele>
        <time>2014-01-31T12:37:07.000Z</time>
      </trkpt>
      <trkpt lat="45.57188" lon="6.57412">
        <ele>2072.8000488281</ele>
        <time>2014-01-31T12:37:08.000Z</time>
      </trkpt>
      <trkpt lat="45.57189" lon="6.57413">
        <ele>2073</ele>
        <time>2014-01-31T12:37:09.000Z</time>
      </trkpt>
      <trkpt lat="45.57189" lon="6.57414">
        <ele>2073.1999511719</ele>
        <time>2014-01-31T12:37:10.000Z</time>
      </trkpt>
      <trkpt lat="45.5719" lon="6.57415">
        <ele>2073.3999023438</ele>
        <time>2014-01-31T12:37:11.000Z</time>
      </trkpt>
      <trkpt lat="45.5719" lon="6.57417">
        <ele>2073.6000976562</ele>
        <time>2014-01-31T12:37:12.000Z</time>
      </trkpt>
      <trkpt lat="45.57191" lon="6.57418">
        <ele>2073.6000976562</ele>
        <time>2014-01-31T12:37:13.000Z</time>
      </trkpt>
      <trkpt lat="45.57191" lon="6.57419">
        <ele>2073.8000488281</ele>
        <time>2014-01-31T12:37:14.000Z</time>
      </trkpt>
      <trkpt lat="45.5719" lon="6.5742">
        <ele>2073.8000488281</ele>
        <time>2014-01-31T12:37:15.000Z</time>
      </trkpt>
      <trkpt lat="45.5719" lon="6.57421">
        <ele>2074</ele>
        <time>2014-01-31T12:37:16.000Z</time>
      </trkpt>
      <trkpt lat="45.5719" lon="6.57421">
        <ele>2074.1999511719</ele>
        <time>2014-01-31T12:37:17.000Z</time>
      </trkpt>
      <trkpt lat="45.57191" lon="6.57422">
        <ele>2074.1999511719</ele>
        <time>2014-01-31T12:37:18.000Z</time>
      </trkpt>
      <trkpt lat="45.57191" lon="6.57423">
        <ele>2074.3999023438</ele>
        <time>2014-01-31T12:37:19.000Z</time>
      </trkpt>
      <trkpt lat="45.57191" lon="6.57424">
        <ele>2074.3999023438</ele>
        <time>2014-01-31T12:37:20.000Z</time>
      </trkpt>
      <trkpt lat="45.57191" lon="6.57425">
        <ele>2074.6000976562</ele>
        <time>2014-01-31T12:37:21.000Z</time>
      </trkpt>
      <trkpt lat="45.57191" lon="6.57426">
        <ele>2074.8000488281</ele>
        <time>2014-01-31T12:37:22.000Z</time>
      </trkpt>
      <trkpt lat="45.57191" lon="6.57427">
        <ele>2075</ele>
        <time>2014-01-31T12:37:23.000Z</time>
      </trkpt>
      <trkpt lat="45.57191" lon="6.57428">
        <ele>2075.1999511719</ele>
        <time>2014-01-31T12:37:24.000Z</time>
      </trkpt>
      <trkpt lat="45.57191" lon="6.57429">
        <ele>2075.1999511719</ele>
        <time>2014-01-31T12:37:25.000Z</time>
      </trkpt>
      <trkpt lat="45.57192" lon="6.5743">
        <ele>2075.3999023438</ele>
        <time>2014-01-31T12:37:26.000Z</time>
      </trkpt>
      <trkpt lat="45.57192" lon="6.5743">
        <ele>2075.3999023438</ele>
        <time>2014-01-31T12:37:27.000Z</time>
      </trkpt>
      <trkpt lat="45.57192" lon="6.57431">
        <ele>2075.6000976562</ele>
        <time>2014-01-31T12:37:28.000Z</time>
      </trkpt>
      <trkpt lat="45.57192" lon="6.57432">
        <ele>2075.8000488281</ele>
        <time>2014-01-31T12:37:29.000Z</time>
      </trkpt>
      <trkpt lat="45.57193" lon="6.57432">
        <ele>2076</ele>
        <time>2014-01-31T12:37:30.000Z</time>
      </trkpt>
      <trkpt lat="45.57193" lon="6.57433">
        <ele>2076</ele>
        <time>2014-01-31T12:37:31.000Z</time>
      </trkpt>
      <trkpt lat="45.57194" lon="6.57434">
        <ele>2076.1999511719</ele>
        <time>2014-01-31T12:37:32.000Z</time>
      </trkpt>
      <trkpt lat="45.57195" lon="6.57434">
        <ele>2076.3999023438</ele>
        <time>2014-01-31T12:37:33.000Z</time>
      </trkpt>
      <trkpt lat="45.57195" lon="6.57435">
        <ele>2076.6000976562</ele>
        <time>2014-01-31T12:37:34.000Z</time>
      </trkpt>
      <trkpt lat="45.57196" lon="6.57436">
        <ele>2076.8000488281</ele>
        <time>2014-01-31T12:37:35.000Z</time>
      </trkpt>
      <trkpt lat="45.57197" lon="6.57436">
        <ele>2077</ele>
        <time>2014-01-31T12:37:36.000Z</time>
      </trkpt>
      <trkpt lat="45.57198" lon="6.57436">
        <ele>2077.1999511719</ele>
        <time>2014-01-31T12:37:37.000Z</time>
      </trkpt>
      <trkpt lat="45.57199" lon="6.57436">
        <ele>2077.3999023438</ele>
        <time>2014-01-31T12:37:38.000Z</time>
      </trkpt>
      <trkpt lat="45.572" lon="6.57437">
        <ele>2077.6000976562</ele>
        <time>2014-01-31T12:37:39.000Z</time>
      </trkpt>
      <trkpt lat="45.57201" lon="6.57437">
        <ele>2077.8000488281</ele>
        <time>2014-01-31T12:37:40.000Z</time>
      </trkpt>
      <trkpt lat="45.57202" lon="6.57437">
        <ele>2078</ele>
        <time>2014-01-31T12:37:41.000Z</time>
      </trkpt>
      <trkpt lat="45.57202" lon="6.57437">
        <ele>2078.1999511719</ele>
        <time>2014-01-31T12:37:42.000Z</time>
      </trkpt>
      <trkpt lat="45.57202" lon="6.57437">
        <ele>2078.3999023438</ele>
        <time>2014-01-31T12:37:43.000Z</time>
      </trkpt>
      <trkpt lat="45.57203" lon="6.57437">
        <ele>2078.6000976562</ele>
        <time>2014-01-31T12:37:44.000Z</time>
      </trkpt>
      <trkpt lat="45.57203" lon="6.57437">
        <ele>2079</ele>
        <time>2014-01-31T12:37:45.000Z</time>
      </trkpt>
      <trkpt lat="45.57203" lon="6.57437">
        <ele>2079.3999023438</ele>
        <time>2014-01-31T12:37:46.000Z</time>
      </trkpt>
      <trkpt lat="45.57203" lon="6.57437">
        <ele>2079.8000488281</ele>
        <time>2014-01-31T12:37:47.000Z</time>
      </trkpt>
      <trkpt lat="45.57203" lon="6.57437">
        <ele>2080</ele>
        <time>2014-01-31T12:37:48.000Z</time>
      </trkpt>
      <trkpt lat="45.57203" lon="6.57437">
        <ele>2080</ele>
        <time>2014-01-31T12:37:49.000Z</time>
      </trkpt>
      <trkpt lat="45.57203" lon="6.57437">
        <ele>2080</ele>
        <time>2014-01-31T12:37:50.000Z</time>
      </trkpt>
      <trkpt lat="45.57203" lon="6.57437">
        <ele>2080</ele>
        <time>2014-01-31T12:37:53.000Z</time>
      </trkpt>
      <trkpt lat="45.57203" lon="6.57437">
        <ele>2080</ele>
        <time>2014-01-31T12:37:55.000Z</time>
      </trkpt>
      <trkpt lat="45.57203" lon="6.57437">
        <ele>2080</ele>
        <time>2014-01-31T12:37:56.000Z</time>
      </trkpt>
      <trkpt lat="45.57203" lon="6.57437">
        <ele>2080</ele>
        <time>2014-01-31T12:37:57.000Z</time>
      </trkpt>
      <trkpt lat="45.57203" lon="6.57437">
        <ele>2080</ele>
        <time>2014-01-31T12:37:58.000Z</time>
      </trkpt>
      <trkpt lat="45.57203" lon="6.57437">
        <ele>2080</ele>
        <time>2014-01-31T12:37:59.000Z</time>
      </trkpt>
      <trkpt lat="45.57203" lon="6.57437">
        <ele>2080</ele>
        <time>2014-01-31T12:38:00.000Z</time>
      </trkpt>
      <trkpt lat="45.57203" lon="6.57437">
        <ele>2080</ele>
        <time>2014-01-31T12:38:01.000Z</time>
      </trkpt>
      <trkpt lat="45.57203" lon="6.57437">
        <ele>2080</ele>
        <time>2014-01-31T12:38:02.000Z</time>
      </trkpt>
      <trkpt lat="45.57204" lon="6.57437">
        <ele>2080</ele>
        <time>2014-01-31T12:38:03.000Z</time>
      </trkpt>
      <trkpt lat="45.57205" lon="6.57438">
        <ele>2080</ele>
        <time>2014-01-31T12:38:04.000Z</time>
      </trkpt>
      <trkpt lat="45.57205" lon="6.57438">
        <ele>2079.8000488281</ele>
        <time>2014-01-31T12:38:05.000Z</time>
      </trkpt>
      <trkpt lat="45.57206" lon="6.57438">
        <ele>2079.8000488281</ele>
        <time>2014-01-31T12:38:06.000Z</time>
      </trkpt>
      <trkpt lat="45.57207" lon="6.57438">
        <ele>2079.8000488281</ele>
        <time>2014-01-31T12:38:07.000Z</time>
      </trkpt>
      <trkpt lat="45.57208" lon="6.57438">
        <ele>2080</ele>
        <time>2014-01-31T12:38:08.000Z</time>
      </trkpt>
      <trkpt lat="45.57209" lon="6.57439">
        <ele>2080.3999023438</ele>
        <time>2014-01-31T12:38:09.000Z</time>
      </trkpt>
      <trkpt lat="45.5721" lon="6.57439">
        <ele>2080.6000976562</ele>
        <time>2014-01-31T12:38:10.000Z</time>
      </trkpt>
      <trkpt lat="45.57211" lon="6.57439">
        <ele>2080.8000488281</ele>
        <time>2014-01-31T12:38:11.000Z</time>
      </trkpt>
      <trkpt lat="45.57211" lon="6.57439">
        <ele>2081</ele>
        <time>2014-01-31T12:38:12.000Z</time>
      </trkpt>
      <trkpt lat="45.57212" lon="6.5744">
        <ele>2081.1999511719</ele>
        <time>2014-01-31T12:38:13.000Z</time>
      </trkpt>
      <trkpt lat="45.57212" lon="6.5744">
        <ele>2081.1999511719</ele>
        <time>2014-01-31T12:38:14.000Z</time>
      </trkpt>
      <trkpt lat="45.57213" lon="6.57441">
        <ele>2081.6000976562</ele>
        <time>2014-01-31T12:38:15.000Z</time>
      </trkpt>
      <trkpt lat="45.57213" lon="6.57441">
        <ele>2081.6000976562</ele>
        <time>2014-01-31T12:38:16.000Z</time>
      </trkpt>
      <trkpt lat="45.57214" lon="6.57441">
        <ele>2081.8000488281</ele>
        <time>2014-01-31T12:38:17.000Z</time>
      </trkpt>
      <trkpt lat="45.57215" lon="6.57442">
        <ele>2082</ele>
        <time>2014-01-31T12:38:18.000Z</time>
      </trkpt>
      <trkpt lat="45.57215" lon="6.57442">
        <ele>2082.1999511719</ele>
        <time>2014-01-31T12:38:19.000Z</time>
      </trkpt>
      <trkpt lat="45.57216" lon="6.57443">
        <ele>2082.1999511719</ele>
        <time>2014-01-31T12:38:20.000Z</time>
      </trkpt>
      <trkpt lat="45.57217" lon="6.57443">
        <ele>2082.3999023438</ele>
        <time>2014-01-31T12:38:21.000Z</time>
      </trkpt>
      <trkpt lat="45.57218" lon="6.57443">
        <ele>2082.3999023438</ele>
        <time>2014-01-31T12:38:22.000Z</time>
      </trkpt>
      <trkpt lat="45.57218" lon="6.57443">
        <ele>2082.6000976562</ele>
        <time>2014-01-31T12:38:23.000Z</time>
      </trkpt>
      <trkpt lat="45.57219" lon="6.57443">
        <ele>2082.8000488281</ele>
        <time>2014-01-31T12:38:24.000Z</time>
      </trkpt>
      <trkpt lat="45.57219" lon="6.57443">
        <ele>2083</ele>
        <time>2014-01-31T12:38:25.000Z</time>
      </trkpt>
      <trkpt lat="45.5722" lon="6.57443">
        <ele>2083.1999511719</ele>
        <time>2014-01-31T12:38:26.000Z</time>
      </trkpt>
      <trkpt lat="45.57221" lon="6.57444">
        <ele>2083.3999023438</ele>
        <time>2014-01-31T12:38:27.000Z</time>
      </trkpt>
      <trkpt lat="45.57222" lon="6.57444">
        <ele>2083.6000976562</ele>
        <time>2014-01-31T12:38:28.000Z</time>
      </trkpt>
      <trkpt lat="45.57223" lon="6.57443">
        <ele>2083.6000976562</ele>
        <time>2014-01-31T12:38:29.000Z</time>
      </trkpt>
      <trkpt lat="45.57223" lon="6.57443">
        <ele>2083.8000488281</ele>
        <time>2014-01-31T12:38:30.000Z</time>
      </trkpt>
      <trkpt lat="45.57224" lon="6.57443">
        <ele>2084</ele>
        <time>2014-01-31T12:38:31.000Z</time>
      </trkpt>
      <trkpt lat="45.57224" lon="6.57443">
        <ele>2084.1999511719</ele>
        <time>2014-01-31T12:38:32.000Z</time>
      </trkpt>
      <trkpt lat="45.57225" lon="6.57443">
        <ele>2084.1999511719</ele>
        <time>2014-01-31T12:38:33.000Z</time>
      </trkpt>
      <trkpt lat="45.57225" lon="6.57443">
        <ele>2084.3999023438</ele>
        <time>2014-01-31T12:38:34.000Z</time>
      </trkpt>
      <trkpt lat="45.57226" lon="6.57443">
        <ele>2084.8000488281</ele>
        <time>2014-01-31T12:38:35.000Z</time>
      </trkpt>
      <trkpt lat="45.57226" lon="6.57443">
        <ele>2085</ele>
        <time>2014-01-31T12:38:36.000Z</time>
      </trkpt>
      <trkpt lat="45.57227" lon="6.57443">
        <ele>2085.3999023438</ele>
        <time>2014-01-31T12:38:37.000Z</time>
      </trkpt>
      <trkpt lat="45.57228" lon="6.57443">
        <ele>2085.3999023438</ele>
        <time>2014-01-31T12:38:38.000Z</time>
      </trkpt>
      <trkpt lat="45.57228" lon="6.57443">
        <ele>2085.8000488281</ele>
        <time>2014-01-31T12:38:39.000Z</time>
      </trkpt>
      <trkpt lat="45.57229" lon="6.57443">
        <ele>2085.8000488281</ele>
        <time>2014-01-31T12:38:40.000Z</time>
      </trkpt>
      <trkpt lat="45.57229" lon="6.57443">
        <ele>2086.1999511719</ele>
        <time>2014-01-31T12:38:41.000Z</time>
      </trkpt>
      <trkpt lat="45.57231" lon="6.57443">
        <ele>2086.3999023438</ele>
        <time>2014-01-31T12:38:43.000Z</time>
      </trkpt>
      <trkpt lat="45.57231" lon="6.57443">
        <ele>2086.6000976562</ele>
        <time>2014-01-31T12:38:44.000Z</time>
      </trkpt>
      <trkpt lat="45.57232" lon="6.57443">
        <ele>2086.8000488281</ele>
        <time>2014-01-31T12:38:45.000Z</time>
      </trkpt>
      <trkpt lat="45.57232" lon="6.57443">
        <ele>2087</ele>
        <time>2014-01-31T12:38:46.000Z</time>
      </trkpt>
      <trkpt lat="45.57233" lon="6.57442">
        <ele>2087.1999511719</ele>
        <time>2014-01-31T12:38:47.000Z</time>
      </trkpt>
      <trkpt lat="45.57234" lon="6.57442">
        <ele>2087.3999023438</ele>
        <time>2014-01-31T12:38:48.000Z</time>
      </trkpt>
      <trkpt lat="45.57235" lon="6.57442">
        <ele>2087.6000976562</ele>
        <time>2014-01-31T12:38:49.000Z</time>
      </trkpt>
      <trkpt lat="45.57236" lon="6.57442">
        <ele>2087.6000976562</ele>
        <time>2014-01-31T12:38:50.000Z</time>
      </trkpt>
      <trkpt lat="45.57236" lon="6.57442">
        <ele>2087.8000488281</ele>
        <time>2014-01-31T12:38:51.000Z</time>
      </trkpt>
      <trkpt lat="45.57237" lon="6.57442">
        <ele>2087.8000488281</ele>
        <time>2014-01-31T12:38:52.000Z</time>
      </trkpt>
      <trkpt lat="45.57238" lon="6.57442">
        <ele>2088</ele>
        <time>2014-01-31T12:38:53.000Z</time>
      </trkpt>
      <trkpt lat="45.57238" lon="6.57442">
        <ele>2088</ele>
        <time>2014-01-31T12:38:54.000Z</time>
      </trkpt>
      <trkpt lat="45.57238" lon="6.57442">
        <ele>2088</ele>
        <time>2014-01-31T12:38:55.000Z</time>
      </trkpt>
      <trkpt lat="45.57238" lon="6.57442">
        <ele>2088.3999023438</ele>
        <time>2014-01-31T12:38:56.000Z</time>
      </trkpt>
      <trkpt lat="45.57239" lon="6.57442">
        <ele>2088.3999023438</ele>
        <time>2014-01-31T12:38:57.000Z</time>
      </trkpt>
      <trkpt lat="45.5724" lon="6.57442">
        <ele>2088.6000976562</ele>
        <time>2014-01-31T12:38:58.000Z</time>
      </trkpt>
      <trkpt lat="45.57241" lon="6.57442">
        <ele>2089</ele>
        <time>2014-01-31T12:38:59.000Z</time>
      </trkpt>
      <trkpt lat="45.57242" lon="6.57442">
        <ele>2089.1999511719</ele>
        <time>2014-01-31T12:39:00.000Z</time>
      </trkpt>
      <trkpt lat="45.57243" lon="6.57442">
        <ele>2089.6000976562</ele>
        <time>2014-01-31T12:39:01.000Z</time>
      </trkpt>
      <trkpt lat="45.57243" lon="6.57442">
        <ele>2089.8000488281</ele>
        <time>2014-01-31T12:39:02.000Z</time>
      </trkpt>
      <trkpt lat="45.57244" lon="6.57442">
        <ele>2090</ele>
        <time>2014-01-31T12:39:03.000Z</time>
      </trkpt>
      <trkpt lat="45.57245" lon="6.57442">
        <ele>2090.1999511719</ele>
        <time>2014-01-31T12:39:04.000Z</time>
      </trkpt>
      <trkpt lat="45.57246" lon="6.57441">
        <ele>2090.1999511719</ele>
        <time>2014-01-31T12:39:05.000Z</time>
      </trkpt>
      <trkpt lat="45.57246" lon="6.57441">
        <ele>2090.1999511719</ele>
        <time>2014-01-31T12:39:06.000Z</time>
      </trkpt>
      <trkpt lat="45.57247" lon="6.57441">
        <ele>2090.1999511719</ele>
        <time>2014-01-31T12:39:07.000Z</time>
      </trkpt>
      <trkpt lat="45.57247" lon="6.57441">
        <ele>2090.1999511719</ele>
        <time>2014-01-31T12:39:08.000Z</time>
      </trkpt>
      <trkpt lat="45.57248" lon="6.57441">
        <ele>2090.1999511719</ele>
        <time>2014-01-31T12:39:09.000Z</time>
      </trkpt>
      <trkpt lat="45.57249" lon="6.57441">
        <ele>2090.1999511719</ele>
        <time>2014-01-31T12:39:10.000Z</time>
      </trkpt>
      <trkpt lat="45.57251" lon="6.57441">
        <ele>2090.3999023438</ele>
        <time>2014-01-31T12:39:12.000Z</time>
      </trkpt>
      <trkpt lat="45.57251" lon="6.57441">
        <ele>2090.6000976562</ele>
        <time>2014-01-31T12:39:13.000Z</time>
      </trkpt>
      <trkpt lat="45.57252" lon="6.57441">
        <ele>2090.8000488281</ele>
        <time>2014-01-31T12:39:14.000Z</time>
      </trkpt>
      <trkpt lat="45.57252" lon="6.5744">
        <ele>2090.8000488281</ele>
        <time>2014-01-31T12:39:15.000Z</time>
      </trkpt>
      <trkpt lat="45.57253" lon="6.5744">
        <ele>2091.1999511719</ele>
        <time>2014-01-31T12:39:16.000Z</time>
      </trkpt>
      <trkpt lat="45.57254" lon="6.5744">
        <ele>2091.3999023438</ele>
        <time>2014-01-31T12:39:17.000Z</time>
      </trkpt>
      <trkpt lat="45.57254" lon="6.5744">
        <ele>2091.8000488281</ele>
        <time>2014-01-31T12:39:18.000Z</time>
      </trkpt>
      <trkpt lat="45.57255" lon="6.57439">
        <ele>2091.8000488281</ele>
        <time>2014-01-31T12:39:19.000Z</time>
      </trkpt>
      <trkpt lat="45.57255" lon="6.57439">
        <ele>2092.1999511719</ele>
        <time>2014-01-31T12:39:20.000Z</time>
      </trkpt>
      <trkpt lat="45.57256" lon="6.57439">
        <ele>2092.1999511719</ele>
        <time>2014-01-31T12:39:21.000Z</time>
      </trkpt>
      <trkpt lat="45.57256" lon="6.57439">
        <ele>2092.6000976562</ele>
        <time>2014-01-31T12:39:22.000Z</time>
      </trkpt>
      <trkpt lat="45.57256" lon="6.57439">
        <ele>2092.8000488281</ele>
        <time>2014-01-31T12:39:23.000Z</time>
      </trkpt>
      <trkpt lat="45.57256" lon="6.57439">
        <ele>2092.8000488281</ele>
        <time>2014-01-31T12:39:24.000Z</time>
      </trkpt>
      <trkpt lat="45.57256" lon="6.57439">
        <ele>2092.8000488281</ele>
        <time>2014-01-31T12:39:26.000Z</time>
      </trkpt>
      <trkpt lat="45.57256" lon="6.57439">
        <ele>2092.8000488281</ele>
        <time>2014-01-31T12:39:27.000Z</time>
      </trkpt>
      <trkpt lat="45.57256" lon="6.57439">
        <ele>2092.8000488281</ele>
        <time>2014-01-31T12:39:28.000Z</time>
      </trkpt>
      <trkpt lat="45.57256" lon="6.57439">
        <ele>2092.8000488281</ele>
        <time>2014-01-31T12:39:29.000Z</time>
      </trkpt>
      <trkpt lat="45.57256" lon="6.57439">
        <ele>2092.8000488281</ele>
        <time>2014-01-31T12:39:30.000Z</time>
      </trkpt>
      <trkpt lat="45.57256" lon="6.57439">
        <ele>2092.8000488281</ele>
        <time>2014-01-31T12:39:31.000Z</time>
      </trkpt>
      <trkpt lat="45.57256" lon="6.57439">
        <ele>2092.8000488281</ele>
        <time>2014-01-31T12:39:32.000Z</time>
      </trkpt>
      <trkpt lat="45.57256" lon="6.57439">
        <ele>2092.8000488281</ele>
        <time>2014-01-31T12:39:34.000Z</time>
      </trkpt>
      <trkpt lat="45.57256" lon="6.57439">
        <ele>2092.8000488281</ele>
        <time>2014-01-31T12:39:35.000Z</time>
      </trkpt>
      <trkpt lat="45.57256" lon="6.57439">
        <ele>2092.8000488281</ele>
        <time>2014-01-31T12:39:36.000Z</time>
      </trkpt>
      <trkpt lat="45.57256" lon="6.57439">
        <ele>2092.8000488281</ele>
        <time>2014-01-31T12:39:37.000Z</time>
      </trkpt>
      <trkpt lat="45.57256" lon="6.57439">
        <ele>2092.6000976562</ele>
        <time>2014-01-31T12:39:38.000Z</time>
      </trkpt>
      <trkpt lat="45.57256" lon="6.57439">
        <ele>2092.6000976562</ele>
        <time>2014-01-31T12:39:39.000Z</time>
      </trkpt>
      <trkpt lat="45.57257" lon="6.57439">
        <ele>2092.6000976562</ele>
        <time>2014-01-31T12:39:40.000Z</time>
      </trkpt>
      <trkpt lat="45.57258" lon="6.5744">
        <ele>2092.6000976562</ele>
        <time>2014-01-31T12:39:41.000Z</time>
      </trkpt>
      <trkpt lat="45.57259" lon="6.57441">
        <ele>2092.6000976562</ele>
        <time>2014-01-31T12:39:42.000Z</time>
      </trkpt>
      <trkpt lat="45.5726" lon="6.57442">
        <ele>2093</ele>
        <time>2014-01-31T12:39:43.000Z</time>
      </trkpt>
      <trkpt lat="45.57261" lon="6.57442">
        <ele>2093.1999511719</ele>
        <time>2014-01-31T12:39:44.000Z</time>
      </trkpt>
      <trkpt lat="45.57262" lon="6.57443">
        <ele>2093.6000976562</ele>
        <time>2014-01-31T12:39:45.000Z</time>
      </trkpt>
      <trkpt lat="45.57263" lon="6.57443">
        <ele>2093.8000488281</ele>
        <time>2014-01-31T12:39:46.000Z</time>
      </trkpt>
      <trkpt lat="45.57263" lon="6.57443">
        <ele>2094.1999511719</ele>
        <time>2014-01-31T12:39:47.000Z</time>
      </trkpt>
      <trkpt lat="45.57264" lon="6.57444">
        <ele>2094.1999511719</ele>
        <time>2014-01-31T12:39:48.000Z</time>
      </trkpt>
      <trkpt lat="45.57264" lon="6.57445">
        <ele>2094.1999511719</ele>
        <time>2014-01-31T12:39:49.000Z</time>
      </trkpt>
      <trkpt lat="45.57265" lon="6.57445">
        <ele>2094.3999023438</ele>
        <time>2014-01-31T12:39:50.000Z</time>
      </trkpt>
      <trkpt lat="45.57265" lon="6.57446">
        <ele>2094.3999023438</ele>
        <time>2014-01-31T12:39:51.000Z</time>
      </trkpt>
      <trkpt lat="45.57266" lon="6.57447">
        <ele>2094.3999023438</ele>
        <time>2014-01-31T12:39:52.000Z</time>
      </trkpt>
      <trkpt lat="45.57266" lon="6.57447">
        <ele>2094.8000488281</ele>
        <time>2014-01-31T12:39:53.000Z</time>
      </trkpt>
      <trkpt lat="45.57267" lon="6.57447">
        <ele>2094.8000488281</ele>
        <time>2014-01-31T12:39:54.000Z</time>
      </trkpt>
      <trkpt lat="45.57268" lon="6.57447">
        <ele>2095.1999511719</ele>
        <time>2014-01-31T12:39:55.000Z</time>
      </trkpt>
      <trkpt lat="45.57268" lon="6.57448">
        <ele>2095.1999511719</ele>
        <time>2014-01-31T12:39:56.000Z</time>
      </trkpt>
      <trkpt lat="45.57268" lon="6.57448">
        <ele>2095.3999023438</ele>
        <time>2014-01-31T12:39:57.000Z</time>
      </trkpt>
      <trkpt lat="45.57268" lon="6.57448">
        <ele>2095.6000976562</ele>
        <time>2014-01-31T12:39:58.000Z</time>
      </trkpt>
      <trkpt lat="45.57268" lon="6.57448">
        <ele>2096</ele>
        <time>2014-01-31T12:39:59.000Z</time>
      </trkpt>
      <trkpt lat="45.57269" lon="6.57449">
        <ele>2096.1999511719</ele>
        <time>2014-01-31T12:40:00.000Z</time>
      </trkpt>
      <trkpt lat="45.57269" lon="6.57449">
        <ele>2096.3999023438</ele>
        <time>2014-01-31T12:40:01.000Z</time>
      </trkpt>
      <trkpt lat="45.5727" lon="6.5745">
        <ele>2096.3999023438</ele>
        <time>2014-01-31T12:40:02.000Z</time>
      </trkpt>
      <trkpt lat="45.57271" lon="6.5745">
        <ele>2096.6000976562</ele>
        <time>2014-01-31T12:40:03.000Z</time>
      </trkpt>
      <trkpt lat="45.57272" lon="6.57451">
        <ele>2096.6000976562</ele>
        <time>2014-01-31T12:40:04.000Z</time>
      </trkpt>
      <trkpt lat="45.57272" lon="6.5745">
        <ele>2096.6000976562</ele>
        <time>2014-01-31T12:40:05.000Z</time>
      </trkpt>
      <trkpt lat="45.57273" lon="6.57451">
        <ele>2096.8000488281</ele>
        <time>2014-01-31T12:40:06.000Z</time>
      </trkpt>
      <trkpt lat="45.57274" lon="6.57451">
        <ele>2097</ele>
        <time>2014-01-31T12:40:07.000Z</time>
      </trkpt>
      <trkpt lat="45.57274" lon="6.57452">
        <ele>2097.1999511719</ele>
        <time>2014-01-31T12:40:08.000Z</time>
      </trkpt>
      <trkpt lat="45.57275" lon="6.57452">
        <ele>2097.3999023438</ele>
        <time>2014-01-31T12:40:09.000Z</time>
      </trkpt>
      <trkpt lat="45.57275" lon="6.57453">
        <ele>2097.8000488281</ele>
        <time>2014-01-31T12:40:10.000Z</time>
      </trkpt>
      <trkpt lat="45.57276" lon="6.57453">
        <ele>2098.3999023438</ele>
        <time>2014-01-31T12:40:11.000Z</time>
      </trkpt>
      <trkpt lat="45.57277" lon="6.57454">
        <ele>2098.6000976562</ele>
        <time>2014-01-31T12:40:12.000Z</time>
      </trkpt>
      <trkpt lat="45.57277" lon="6.57454">
        <ele>2098.6000976562</ele>
        <time>2014-01-31T12:40:13.000Z</time>
      </trkpt>
      <trkpt lat="45.57278" lon="6.57454">
        <ele>2098.8000488281</ele>
        <time>2014-01-31T12:40:14.000Z</time>
      </trkpt>
      <trkpt lat="45.57278" lon="6.57455">
        <ele>2099</ele>
        <time>2014-01-31T12:40:15.000Z</time>
      </trkpt>
      <trkpt lat="45.57278" lon="6.57455">
        <ele>2099.1999511719</ele>
        <time>2014-01-31T12:40:16.000Z</time>
      </trkpt>
      <trkpt lat="45.57278" lon="6.57455">
        <ele>2099.3999023438</ele>
        <time>2014-01-31T12:40:17.000Z</time>
      </trkpt>
      <trkpt lat="45.57279" lon="6.57456">
        <ele>2099.8000488281</ele>
        <time>2014-01-31T12:40:18.000Z</time>
      </trkpt>
      <trkpt lat="45.57279" lon="6.57456">
        <ele>2099.8000488281</ele>
        <time>2014-01-31T12:40:19.000Z</time>
      </trkpt>
      <trkpt lat="45.57279" lon="6.57456">
        <ele>2100.1999511719</ele>
        <time>2014-01-31T12:40:20.000Z</time>
      </trkpt>
      <trkpt lat="45.5728" lon="6.57457">
        <ele>2100.1999511719</ele>
        <time>2014-01-31T12:40:21.000Z</time>
      </trkpt>
      <trkpt lat="45.5728" lon="6.57457">
        <ele>2100.6000976562</ele>
        <time>2014-01-31T12:40:22.000Z</time>
      </trkpt>
      <trkpt lat="45.57281" lon="6.57457">
        <ele>2100.8000488281</ele>
        <time>2014-01-31T12:40:23.000Z</time>
      </trkpt>
      <trkpt lat="45.57281" lon="6.57456">
        <ele>2101</ele>
        <time>2014-01-31T12:40:24.000Z</time>
      </trkpt>
      <trkpt lat="45.57281" lon="6.57456">
        <ele>2101.1999511719</ele>
        <time>2014-01-31T12:40:25.000Z</time>
      </trkpt>
      <trkpt lat="45.57282" lon="6.57456">
        <ele>2101.6000976562</ele>
        <time>2014-01-31T12:40:26.000Z</time>
      </trkpt>
      <trkpt lat="45.57282" lon="6.57456">
        <ele>2101.8000488281</ele>
        <time>2014-01-31T12:40:27.000Z</time>
      </trkpt>
      <trkpt lat="45.57283" lon="6.57457">
        <ele>2101.8000488281</ele>
        <time>2014-01-31T12:40:28.000Z</time>
      </trkpt>
      <trkpt lat="45.57283" lon="6.57457">
        <ele>2102</ele>
        <time>2014-01-31T12:40:29.000Z</time>
      </trkpt>
      <trkpt lat="45.57283" lon="6.57457">
        <ele>2102.1999511719</ele>
        <time>2014-01-31T12:40:30.000Z</time>
      </trkpt>
      <trkpt lat="45.57283" lon="6.57457">
        <ele>2102.1999511719</ele>
        <time>2014-01-31T12:40:31.000Z</time>
      </trkpt>
      <trkpt lat="45.57284" lon="6.57457">
        <ele>2102.3999023438</ele>
        <time>2014-01-31T12:40:32.000Z</time>
      </trkpt>
      <trkpt lat="45.57284" lon="6.57457">
        <ele>2102.6000976562</ele>
        <time>2014-01-31T12:40:33.000Z</time>
      </trkpt>
      <trkpt lat="45.57285" lon="6.57456">
        <ele>2102.8000488281</ele>
        <time>2014-01-31T12:40:34.000Z</time>
      </trkpt>
      <trkpt lat="45.57285" lon="6.57456">
        <ele>2103.1999511719</ele>
        <time>2014-01-31T12:40:35.000Z</time>
      </trkpt>
      <trkpt lat="45.57286" lon="6.57456">
        <ele>2103.6000976562</ele>
        <time>2014-01-31T12:40:36.000Z</time>
      </trkpt>
      <trkpt lat="45.57286" lon="6.57456">
        <ele>2103.8000488281</ele>
        <time>2014-01-31T12:40:37.000Z</time>
      </trkpt>
      <trkpt lat="45.57287" lon="6.57456">
        <ele>2104.1999511719</ele>
        <time>2014-01-31T12:40:38.000Z</time>
      </trkpt>
      <trkpt lat="45.57287" lon="6.57456">
        <ele>2104.1999511719</ele>
        <time>2014-01-31T12:40:39.000Z</time>
      </trkpt>
      <trkpt lat="45.57287" lon="6.57456">
        <ele>2104.6000976562</ele>
        <time>2014-01-31T12:40:40.000Z</time>
      </trkpt>
      <trkpt lat="45.57288" lon="6.57457">
        <ele>2104.6000976562</ele>
        <time>2014-01-31T12:40:41.000Z</time>
      </trkpt>
      <trkpt lat="45.57288" lon="6.57457">
        <ele>2104.6000976562</ele>
        <time>2014-01-31T12:40:42.000Z</time>
      </trkpt>
      <trkpt lat="45.57288" lon="6.57457">
        <ele>2104.8000488281</ele>
        <time>2014-01-31T12:40:43.000Z</time>
      </trkpt>
      <trkpt lat="45.57288" lon="6.57457">
        <ele>2105</ele>
        <time>2014-01-31T12:40:44.000Z</time>
      </trkpt>
      <trkpt lat="45.57287" lon="6.57458">
        <ele>2105.3999023438</ele>
        <time>2014-01-31T12:40:45.000Z</time>
      </trkpt>
      <trkpt lat="45.57287" lon="6.57458">
        <ele>2105.6000976562</ele>
        <time>2014-01-31T12:40:46.000Z</time>
      </trkpt>
      <trkpt lat="45.57287" lon="6.57458">
        <ele>2105.8000488281</ele>
        <time>2014-01-31T12:40:47.000Z</time>
      </trkpt>
      <trkpt lat="45.57287" lon="6.57459">
        <ele>2105.8000488281</ele>
        <time>2014-01-31T12:40:48.000Z</time>
      </trkpt>
      <trkpt lat="45.57287" lon="6.5746">
        <ele>2105.8000488281</ele>
        <time>2014-01-31T12:40:49.000Z</time>
      </trkpt>
      <trkpt lat="45.57286" lon="6.57462">
        <ele>2105.8000488281</ele>
        <time>2014-01-31T12:40:50.000Z</time>
      </trkpt>
      <trkpt lat="45.57286" lon="6.57463">
        <ele>2105.8000488281</ele>
        <time>2014-01-31T12:40:51.000Z</time>
      </trkpt>
      <trkpt lat="45.57286" lon="6.57464">
        <ele>2105.6000976562</ele>
        <time>2014-01-31T12:40:52.000Z</time>
      </trkpt>
      <trkpt lat="45.57286" lon="6.57466">
        <ele>2105.6000976562</ele>
        <time>2014-01-31T12:40:53.000Z</time>
      </trkpt>
      <trkpt lat="45.57285" lon="6.57467">
        <ele>2105.3999023438</ele>
        <time>2014-01-31T12:40:54.000Z</time>
      </trkpt>
      <trkpt lat="45.57286" lon="6.57468">
        <ele>2105.6000976562</ele>
        <time>2014-01-31T12:40:55.000Z</time>
      </trkpt>
      <trkpt lat="45.57286" lon="6.57469">
        <ele>2105.8000488281</ele>
        <time>2014-01-31T12:40:56.000Z</time>
      </trkpt>
      <trkpt lat="45.57286" lon="6.5747">
        <ele>2106</ele>
        <time>2014-01-31T12:40:57.000Z</time>
      </trkpt>
      <trkpt lat="45.57286" lon="6.57471">
        <ele>2106.1999511719</ele>
        <time>2014-01-31T12:40:58.000Z</time>
      </trkpt>
      <trkpt lat="45.57285" lon="6.57472">
        <ele>2106.3999023438</ele>
        <time>2014-01-31T12:40:59.000Z</time>
      </trkpt>
      <trkpt lat="45.57286" lon="6.57473">
        <ele>2106.6000976562</ele>
        <time>2014-01-31T12:41:00.000Z</time>
      </trkpt>
      <trkpt lat="45.57286" lon="6.57473">
        <ele>2106.8000488281</ele>
        <time>2014-01-31T12:41:01.000Z</time>
      </trkpt>
      <trkpt lat="45.57286" lon="6.57474">
        <ele>2106.8000488281</ele>
        <time>2014-01-31T12:41:02.000Z</time>
      </trkpt>
      <trkpt lat="45.57286" lon="6.57475">
        <ele>2107.1999511719</ele>
        <time>2014-01-31T12:41:03.000Z</time>
      </trkpt>
      <trkpt lat="45.57286" lon="6.57476">
        <ele>2107.1999511719</ele>
        <time>2014-01-31T12:41:04.000Z</time>
      </trkpt>
      <trkpt lat="45.57285" lon="6.57477">
        <ele>2107.6000976562</ele>
        <time>2014-01-31T12:41:05.000Z</time>
      </trkpt>
      <trkpt lat="45.57285" lon="6.57478">
        <ele>2107.6000976562</ele>
        <time>2014-01-31T12:41:06.000Z</time>
      </trkpt>
      <trkpt lat="45.57285" lon="6.57479">
        <ele>2108</ele>
        <time>2014-01-31T12:41:07.000Z</time>
      </trkpt>
      <trkpt lat="45.57285" lon="6.5748">
        <ele>2108</ele>
        <time>2014-01-31T12:41:08.000Z</time>
      </trkpt>
      <trkpt lat="45.57285" lon="6.57481">
        <ele>2108.1999511719</ele>
        <time>2014-01-31T12:41:09.000Z</time>
      </trkpt>
      <trkpt lat="45.57285" lon="6.57482">
        <ele>2108.1999511719</ele>
        <time>2014-01-31T12:41:10.000Z</time>
      </trkpt>
      <trkpt lat="45.57285" lon="6.57483">
        <ele>2108.6000976562</ele>
        <time>2014-01-31T12:41:11.000Z</time>
      </trkpt>
      <trkpt lat="45.57285" lon="6.57484">
        <ele>2108.8000488281</ele>
        <time>2014-01-31T12:41:13.000Z</time>
      </trkpt>
      <trkpt lat="45.57285" lon="6.57485">
        <ele>2108.8000488281</ele>
        <time>2014-01-31T12:41:14.000Z</time>
      </trkpt>
      <trkpt lat="45.57285" lon="6.57486">
        <ele>2109</ele>
        <time>2014-01-31T12:41:15.000Z</time>
      </trkpt>
      <trkpt lat="45.57285" lon="6.57487">
        <ele>2109</ele>
        <time>2014-01-31T12:41:16.000Z</time>
      </trkpt>
      <trkpt lat="45.57285" lon="6.57488">
        <ele>2109.1999511719</ele>
        <time>2014-01-31T12:41:17.000Z</time>
      </trkpt>
      <trkpt lat="45.57285" lon="6.57488">
        <ele>2109</ele>
        <time>2014-01-31T12:41:18.000Z</time>
      </trkpt>
      <trkpt lat="45.57284" lon="6.57489">
        <ele>2109.1999511719</ele>
        <time>2014-01-31T12:41:19.000Z</time>
      </trkpt>
      <trkpt lat="45.57285" lon="6.5749">
        <ele>2109.1999511719</ele>
        <time>2014-01-31T12:41:20.000Z</time>
      </trkpt>
      <trkpt lat="45.57285" lon="6.57492">
        <ele>2109.3999023438</ele>
        <time>2014-01-31T12:41:21.000Z</time>
      </trkpt>
      <trkpt lat="45.57285" lon="6.57493">
        <ele>2109.3999023438</ele>
        <time>2014-01-31T12:41:22.000Z</time>
      </trkpt>
      <trkpt lat="45.57285" lon="6.57494">
        <ele>2109.8000488281</ele>
        <time>2014-01-31T12:41:23.000Z</time>
      </trkpt>
      <trkpt lat="45.57285" lon="6.57494">
        <ele>2110</ele>
        <time>2014-01-31T12:41:24.000Z</time>
      </trkpt>
      <trkpt lat="45.57285" lon="6.57496">
        <ele>2110.1999511719</ele>
        <time>2014-01-31T12:41:25.000Z</time>
      </trkpt>
      <trkpt lat="45.57285" lon="6.57497">
        <ele>2110.3999023438</ele>
        <time>2014-01-31T12:41:26.000Z</time>
      </trkpt>
      <trkpt lat="45.57285" lon="6.57498">
        <ele>2110.6000976562</ele>
        <time>2014-01-31T12:41:27.000Z</time>
      </trkpt>
      <trkpt lat="45.57285" lon="6.57498">
        <ele>2110.8000488281</ele>
        <time>2014-01-31T12:41:28.000Z</time>
      </trkpt>
      <trkpt lat="45.57285" lon="6.57499">
        <ele>2111</ele>
        <time>2014-01-31T12:41:29.000Z</time>
      </trkpt>
      <trkpt lat="45.57285" lon="6.575">
        <ele>2111.1999511719</ele>
        <time>2014-01-31T12:41:30.000Z</time>
      </trkpt>
      <trkpt lat="45.57285" lon="6.57501">
        <ele>2111.3999023438</ele>
        <time>2014-01-31T12:41:31.000Z</time>
      </trkpt>
      <trkpt lat="45.57285" lon="6.57501">
        <ele>2111.3999023438</ele>
        <time>2014-01-31T12:41:32.000Z</time>
      </trkpt>
      <trkpt lat="45.57285" lon="6.57501">
        <ele>2111.6000976562</ele>
        <time>2014-01-31T12:41:33.000Z</time>
      </trkpt>
      <trkpt lat="45.57285" lon="6.57502">
        <ele>2111.8000488281</ele>
        <time>2014-01-31T12:41:34.000Z</time>
      </trkpt>
      <trkpt lat="45.57285" lon="6.57503">
        <ele>2112</ele>
        <time>2014-01-31T12:41:35.000Z</time>
      </trkpt>
      <trkpt lat="45.57285" lon="6.57504">
        <ele>2112.1999511719</ele>
        <time>2014-01-31T12:41:36.000Z</time>
      </trkpt>
      <trkpt lat="45.57285" lon="6.57505">
        <ele>2112.3999023438</ele>
        <time>2014-01-31T12:41:37.000Z</time>
      </trkpt>
      <trkpt lat="45.57285" lon="6.57506">
        <ele>2112.3999023438</ele>
        <time>2014-01-31T12:41:38.000Z</time>
      </trkpt>
      <trkpt lat="45.57285" lon="6.57507">
        <ele>2112.6000976562</ele>
        <time>2014-01-31T12:41:39.000Z</time>
      </trkpt>
      <trkpt lat="45.57284" lon="6.57509">
        <ele>2112.8000488281</ele>
        <time>2014-01-31T12:41:41.000Z</time>
      </trkpt>
      <trkpt lat="45.57284" lon="6.57511">
        <ele>2112.8000488281</ele>
        <time>2014-01-31T12:41:42.000Z</time>
      </trkpt>
      <trkpt lat="45.57284" lon="6.57512">
        <ele>2112.8000488281</ele>
        <time>2014-01-31T12:41:43.000Z</time>
      </trkpt>
      <trkpt lat="45.57284" lon="6.57513">
        <ele>2113</ele>
        <time>2014-01-31T12:41:44.000Z</time>
      </trkpt>
      <trkpt lat="45.57284" lon="6.57514">
        <ele>2113</ele>
        <time>2014-01-31T12:41:45.000Z</time>
      </trkpt>
      <trkpt lat="45.57284" lon="6.57516">
        <ele>2113.1999511719</ele>
        <time>2014-01-31T12:41:46.000Z</time>
      </trkpt>
      <trkpt lat="45.57284" lon="6.57517">
        <ele>2113.3999023438</ele>
        <time>2014-01-31T12:41:47.000Z</time>
      </trkpt>
      <trkpt lat="45.57284" lon="6.57518">
        <ele>2113.6000976562</ele>
        <time>2014-01-31T12:41:48.000Z</time>
      </trkpt>
      <trkpt lat="45.57284" lon="6.57518">
        <ele>2113.6000976562</ele>
        <time>2014-01-31T12:41:49.000Z</time>
      </trkpt>
      <trkpt lat="45.57284" lon="6.5752">
        <ele>2113.6000976562</ele>
        <time>2014-01-31T12:41:50.000Z</time>
      </trkpt>
      <trkpt lat="45.57285" lon="6.5752">
        <ele>2113.8000488281</ele>
        <time>2014-01-31T12:41:51.000Z</time>
      </trkpt>
      <trkpt lat="45.57285" lon="6.57521">
        <ele>2114</ele>
        <time>2014-01-31T12:41:52.000Z</time>
      </trkpt>
      <trkpt lat="45.57285" lon="6.57523">
        <ele>2114.1999511719</ele>
        <time>2014-01-31T12:41:53.000Z</time>
      </trkpt>
      <trkpt lat="45.57285" lon="6.57524">
        <ele>2114.1999511719</ele>
        <time>2014-01-31T12:41:54.000Z</time>
      </trkpt>
      <trkpt lat="45.57285" lon="6.57525">
        <ele>2114.3999023438</ele>
        <time>2014-01-31T12:41:55.000Z</time>
      </trkpt>
      <trkpt lat="45.57284" lon="6.57526">
        <ele>2114.6000976562</ele>
        <time>2014-01-31T12:41:56.000Z</time>
      </trkpt>
      <trkpt lat="45.57285" lon="6.57527">
        <ele>2114.8000488281</ele>
        <time>2014-01-31T12:41:57.000Z</time>
      </trkpt>
      <trkpt lat="45.57285" lon="6.57528">
        <ele>2114.8000488281</ele>
        <time>2014-01-31T12:41:58.000Z</time>
      </trkpt>
      <trkpt lat="45.57284" lon="6.57529">
        <ele>2115.1999511719</ele>
        <time>2014-01-31T12:41:59.000Z</time>
      </trkpt>
      <trkpt lat="45.57285" lon="6.5753">
        <ele>2115</ele>
        <time>2014-01-31T12:42:00.000Z</time>
      </trkpt>
      <trkpt lat="45.57285" lon="6.5753">
        <ele>2115.3999023438</ele>
        <time>2014-01-31T12:42:01.000Z</time>
      </trkpt>
      <trkpt lat="45.57285" lon="6.57532">
        <ele>2115.6000976562</ele>
        <time>2014-01-31T12:42:03.000Z</time>
      </trkpt>
      <trkpt lat="45.57286" lon="6.57533">
        <ele>2115.6000976562</ele>
        <time>2014-01-31T12:42:04.000Z</time>
      </trkpt>
      <trkpt lat="45.57286" lon="6.57534">
        <ele>2115.8000488281</ele>
        <time>2014-01-31T12:42:05.000Z</time>
      </trkpt>
      <trkpt lat="45.57286" lon="6.57535">
        <ele>2116</ele>
        <time>2014-01-31T12:42:06.000Z</time>
      </trkpt>
      <trkpt lat="45.57286" lon="6.57535">
        <ele>2116.1999511719</ele>
        <time>2014-01-31T12:42:07.000Z</time>
      </trkpt>
      <trkpt lat="45.57287" lon="6.57537">
        <ele>2116.1999511719</ele>
        <time>2014-01-31T12:42:08.000Z</time>
      </trkpt>
      <trkpt lat="45.57287" lon="6.57537">
        <ele>2116.1999511719</ele>
        <time>2014-01-31T12:42:09.000Z</time>
      </trkpt>
      <trkpt lat="45.57287" lon="6.57539">
        <ele>2116.3999023438</ele>
        <time>2014-01-31T12:42:10.000Z</time>
      </trkpt>
      <trkpt lat="45.57287" lon="6.57539">
        <ele>2116.3999023438</ele>
        <time>2014-01-31T12:42:11.000Z</time>
      </trkpt>
      <trkpt lat="45.57287" lon="6.5754">
        <ele>2116.3999023438</ele>
        <time>2014-01-31T12:42:12.000Z</time>
      </trkpt>
      <trkpt lat="45.57287" lon="6.57541">
        <ele>2116.6000976562</ele>
        <time>2014-01-31T12:42:13.000Z</time>
      </trkpt>
      <trkpt lat="45.57288" lon="6.57542">
        <ele>2116.6000976562</ele>
        <time>2014-01-31T12:42:14.000Z</time>
      </trkpt>
      <trkpt lat="45.57288" lon="6.57543">
        <ele>2116.8000488281</ele>
        <time>2014-01-31T12:42:15.000Z</time>
      </trkpt>
      <trkpt lat="45.57288" lon="6.57543">
        <ele>2117</ele>
        <time>2014-01-31T12:42:16.000Z</time>
      </trkpt>
      <trkpt lat="45.57289" lon="6.57544">
        <ele>2117</ele>
        <time>2014-01-31T12:42:17.000Z</time>
      </trkpt>
      <trkpt lat="45.57289" lon="6.57545">
        <ele>2117</ele>
        <time>2014-01-31T12:42:18.000Z</time>
      </trkpt>
      <trkpt lat="45.57289" lon="6.57546">
        <ele>2117.1999511719</ele>
        <time>2014-01-31T12:42:19.000Z</time>
      </trkpt>
      <trkpt lat="45.5729" lon="6.57547">
        <ele>2117.1999511719</ele>
        <time>2014-01-31T12:42:20.000Z</time>
      </trkpt>
      <trkpt lat="45.5729" lon="6.57548">
        <ele>2117.3999023438</ele>
        <time>2014-01-31T12:42:21.000Z</time>
      </trkpt>
      <trkpt lat="45.5729" lon="6.57548">
        <ele>2117.6000976562</ele>
        <time>2014-01-31T12:42:22.000Z</time>
      </trkpt>
      <trkpt lat="45.5729" lon="6.57549">
        <ele>2118</ele>
        <time>2014-01-31T12:42:23.000Z</time>
      </trkpt>
      <trkpt lat="45.57291" lon="6.5755">
        <ele>2118</ele>
        <time>2014-01-31T12:42:24.000Z</time>
      </trkpt>
      <trkpt lat="45.57292" lon="6.57551">
        <ele>2118.1999511719</ele>
        <time>2014-01-31T12:42:25.000Z</time>
      </trkpt>
      <trkpt lat="45.57292" lon="6.57551">
        <ele>2118.3999023438</ele>
        <time>2014-01-31T12:42:26.000Z</time>
      </trkpt>
      <trkpt lat="45.57293" lon="6.57551">
        <ele>2118.6000976562</ele>
        <time>2014-01-31T12:42:27.000Z</time>
      </trkpt>
      <trkpt lat="45.57293" lon="6.57552">
        <ele>2118.6000976562</ele>
        <time>2014-01-31T12:42:28.000Z</time>
      </trkpt>
      <trkpt lat="45.57294" lon="6.57553">
        <ele>2118.6000976562</ele>
        <time>2014-01-31T12:42:29.000Z</time>
      </trkpt>
      <trkpt lat="45.57294" lon="6.57554">
        <ele>2118.6000976562</ele>
        <time>2014-01-31T12:42:30.000Z</time>
      </trkpt>
      <trkpt lat="45.57294" lon="6.57555">
        <ele>2118.6000976562</ele>
        <time>2014-01-31T12:42:31.000Z</time>
      </trkpt>
      <trkpt lat="45.57294" lon="6.57556">
        <ele>2118.6000976562</ele>
        <time>2014-01-31T12:42:32.000Z</time>
      </trkpt>
      <trkpt lat="45.57295" lon="6.57557">
        <ele>2118.6000976562</ele>
        <time>2014-01-31T12:42:33.000Z</time>
      </trkpt>
      <trkpt lat="45.57295" lon="6.57558">
        <ele>2118.6000976562</ele>
        <time>2014-01-31T12:42:34.000Z</time>
      </trkpt>
      <trkpt lat="45.57296" lon="6.57559">
        <ele>2118.8000488281</ele>
        <time>2014-01-31T12:42:35.000Z</time>
      </trkpt>
      <trkpt lat="45.57297" lon="6.5756">
        <ele>2119</ele>
        <time>2014-01-31T12:42:36.000Z</time>
      </trkpt>
      <trkpt lat="45.57298" lon="6.57561">
        <ele>2119.1999511719</ele>
        <time>2014-01-31T12:42:37.000Z</time>
      </trkpt>
      <trkpt lat="45.57298" lon="6.57561">
        <ele>2119.3999023438</ele>
        <time>2014-01-31T12:42:38.000Z</time>
      </trkpt>
      <trkpt lat="45.57298" lon="6.57562">
        <ele>2119.3999023438</ele>
        <time>2014-01-31T12:42:39.000Z</time>
      </trkpt>
      <trkpt lat="45.57299" lon="6.57563">
        <ele>2119.3999023438</ele>
        <time>2014-01-31T12:42:40.000Z</time>
      </trkpt>
      <trkpt lat="45.57299" lon="6.57564">
        <ele>2119.6000976562</ele>
        <time>2014-01-31T12:42:41.000Z</time>
      </trkpt>
      <trkpt lat="45.57299" lon="6.57565">
        <ele>2119.6000976562</ele>
        <time>2014-01-31T12:42:42.000Z</time>
      </trkpt>
      <trkpt lat="45.57299" lon="6.57566">
        <ele>2119.6000976562</ele>
        <time>2014-01-31T12:42:43.000Z</time>
      </trkpt>
      <trkpt lat="45.573" lon="6.57567">
        <ele>2119.8000488281</ele>
        <time>2014-01-31T12:42:44.000Z</time>
      </trkpt>
      <trkpt lat="45.573" lon="6.57568">
        <ele>2119.8000488281</ele>
        <time>2014-01-31T12:42:45.000Z</time>
      </trkpt>
      <trkpt lat="45.573" lon="6.5757">
        <ele>2120.1999511719</ele>
        <time>2014-01-31T12:42:46.000Z</time>
      </trkpt>
      <trkpt lat="45.573" lon="6.57571">
        <ele>2120.3999023438</ele>
        <time>2014-01-31T12:42:47.000Z</time>
      </trkpt>
      <trkpt lat="45.573" lon="6.57573">
        <ele>2120.6000976562</ele>
        <time>2014-01-31T12:42:48.000Z</time>
      </trkpt>
      <trkpt lat="45.573" lon="6.57574">
        <ele>2120.8000488281</ele>
        <time>2014-01-31T12:42:49.000Z</time>
      </trkpt>
      <trkpt lat="45.573" lon="6.57575">
        <ele>2121</ele>
        <time>2014-01-31T12:42:50.000Z</time>
      </trkpt>
      <trkpt lat="45.57301" lon="6.57576">
        <ele>2121</ele>
        <time>2014-01-31T12:42:51.000Z</time>
      </trkpt>
      <trkpt lat="45.57301" lon="6.57576">
        <ele>2121.1999511719</ele>
        <time>2014-01-31T12:42:52.000Z</time>
      </trkpt>
      <trkpt lat="45.57302" lon="6.57578">
        <ele>2121.1999511719</ele>
        <time>2014-01-31T12:42:53.000Z</time>
      </trkpt>
      <trkpt lat="45.57303" lon="6.57578">
        <ele>2121.3999023438</ele>
        <time>2014-01-31T12:42:54.000Z</time>
      </trkpt>
      <trkpt lat="45.57304" lon="6.57579">
        <ele>2121.3999023438</ele>
        <time>2014-01-31T12:42:55.000Z</time>
      </trkpt>
      <trkpt lat="45.57305" lon="6.5758">
        <ele>2121.6000976562</ele>
        <time>2014-01-31T12:42:56.000Z</time>
      </trkpt>
      <trkpt lat="45.57305" lon="6.57581">
        <ele>2121.6000976562</ele>
        <time>2014-01-31T12:42:57.000Z</time>
      </trkpt>
      <trkpt lat="45.57306" lon="6.57582">
        <ele>2121.8000488281</ele>
        <time>2014-01-31T12:42:58.000Z</time>
      </trkpt>
      <trkpt lat="45.57306" lon="6.57582">
        <ele>2122</ele>
        <time>2014-01-31T12:42:59.000Z</time>
      </trkpt>
      <trkpt lat="45.57306" lon="6.57583">
        <ele>2122.1999511719</ele>
        <time>2014-01-31T12:43:00.000Z</time>
      </trkpt>
      <trkpt lat="45.57307" lon="6.57583">
        <ele>2122.1999511719</ele>
        <time>2014-01-31T12:43:01.000Z</time>
      </trkpt>
      <trkpt lat="45.57308" lon="6.57583">
        <ele>2122.3999023438</ele>
        <time>2014-01-31T12:43:02.000Z</time>
      </trkpt>
      <trkpt lat="45.57309" lon="6.57584">
        <ele>2122.3999023438</ele>
        <time>2014-01-31T12:43:03.000Z</time>
      </trkpt>
      <trkpt lat="45.5731" lon="6.57585">
        <ele>2122.6000976562</ele>
        <time>2014-01-31T12:43:04.000Z</time>
      </trkpt>
      <trkpt lat="45.57311" lon="6.57586">
        <ele>2122.8000488281</ele>
        <time>2014-01-31T12:43:05.000Z</time>
      </trkpt>
      <trkpt lat="45.57312" lon="6.57586">
        <ele>2123.1999511719</ele>
        <time>2014-01-31T12:43:06.000Z</time>
      </trkpt>
      <trkpt lat="45.57313" lon="6.57587">
        <ele>2123.3999023438</ele>
        <time>2014-01-31T12:43:07.000Z</time>
      </trkpt>
      <trkpt lat="45.57313" lon="6.57587">
        <ele>2123.3999023438</ele>
        <time>2014-01-31T12:43:08.000Z</time>
      </trkpt>
      <trkpt lat="45.57314" lon="6.57588">
        <ele>2123.6000976562</ele>
        <time>2014-01-31T12:43:09.000Z</time>
      </trkpt>
      <trkpt lat="45.57315" lon="6.57588">
        <ele>2123.6000976562</ele>
        <time>2014-01-31T12:43:10.000Z</time>
      </trkpt>
      <trkpt lat="45.57316" lon="6.57589">
        <ele>2123.8000488281</ele>
        <time>2014-01-31T12:43:11.000Z</time>
      </trkpt>
      <trkpt lat="45.57316" lon="6.57589">
        <ele>2123.8000488281</ele>
        <time>2014-01-31T12:43:12.000Z</time>
      </trkpt>
      <trkpt lat="45.57316" lon="6.5759">
        <ele>2124</ele>
        <time>2014-01-31T12:43:13.000Z</time>
      </trkpt>
      <trkpt lat="45.57316" lon="6.57589">
        <ele>2124.3999023438</ele>
        <time>2014-01-31T12:43:14.000Z</time>
      </trkpt>
      <trkpt lat="45.57317" lon="6.57589">
        <ele>2124.6000976562</ele>
        <time>2014-01-31T12:43:15.000Z</time>
      </trkpt>
      <trkpt lat="45.57318" lon="6.5759">
        <ele>2124.8000488281</ele>
        <time>2014-01-31T12:43:16.000Z</time>
      </trkpt>
      <trkpt lat="45.57318" lon="6.5759">
        <ele>2125.1999511719</ele>
        <time>2014-01-31T12:43:17.000Z</time>
      </trkpt>
      <trkpt lat="45.57319" lon="6.5759">
        <ele>2125.3999023438</ele>
        <time>2014-01-31T12:43:18.000Z</time>
      </trkpt>
      <trkpt lat="45.57319" lon="6.5759">
        <ele>2125.3999023438</ele>
        <time>2014-01-31T12:43:19.000Z</time>
      </trkpt>
      <trkpt lat="45.5732" lon="6.57591">
        <ele>2125.6000976562</ele>
        <time>2014-01-31T12:43:20.000Z</time>
      </trkpt>
      <trkpt lat="45.5732" lon="6.5759">
        <ele>2125.6000976562</ele>
        <time>2014-01-31T12:43:21.000Z</time>
      </trkpt>
      <trkpt lat="45.5732" lon="6.5759">
        <ele>2125.6000976562</ele>
        <time>2014-01-31T12:43:22.000Z</time>
      </trkpt>
      <trkpt lat="45.57321" lon="6.5759">
        <ele>2125.6000976562</ele>
        <time>2014-01-31T12:43:23.000Z</time>
      </trkpt>
      <trkpt lat="45.57322" lon="6.5759">
        <ele>2125.8000488281</ele>
        <time>2014-01-31T12:43:24.000Z</time>
      </trkpt>
      <trkpt lat="45.57322" lon="6.5759">
        <ele>2126</ele>
        <time>2014-01-31T12:43:25.000Z</time>
      </trkpt>
      <trkpt lat="45.57323" lon="6.57589">
        <ele>2126</ele>
        <time>2014-01-31T12:43:26.000Z</time>
      </trkpt>
      <trkpt lat="45.57324" lon="6.5759">
        <ele>2126.3999023438</ele>
        <time>2014-01-31T12:43:27.000Z</time>
      </trkpt>
      <trkpt lat="45.57325" lon="6.5759">
        <ele>2126.3999023438</ele>
        <time>2014-01-31T12:43:28.000Z</time>
      </trkpt>
      <trkpt lat="45.57326" lon="6.5759">
        <ele>2126.8000488281</ele>
        <time>2014-01-31T12:43:29.000Z</time>
      </trkpt>
      <trkpt lat="45.57327" lon="6.57589">
        <ele>2127</ele>
        <time>2014-01-31T12:43:30.000Z</time>
      </trkpt>
      <trkpt lat="45.57327" lon="6.57589">
        <ele>2127.3999023438</ele>
        <time>2014-01-31T12:43:31.000Z</time>
      </trkpt>
      <trkpt lat="45.57327" lon="6.57588">
        <ele>2127.6000976562</ele>
        <time>2014-01-31T12:43:32.000Z</time>
      </trkpt>
      <trkpt lat="45.57328" lon="6.57587">
        <ele>2128</ele>
        <time>2014-01-31T12:43:33.000Z</time>
      </trkpt>
      <trkpt lat="45.57328" lon="6.57586">
        <ele>2128.1999511719</ele>
        <time>2014-01-31T12:43:34.000Z</time>
      </trkpt>
      <trkpt lat="45.57329" lon="6.57586">
        <ele>2128.3999023438</ele>
        <time>2014-01-31T12:43:35.000Z</time>
      </trkpt>
      <trkpt lat="45.57329" lon="6.57585">
        <ele>2128.3999023438</ele>
        <time>2014-01-31T12:43:36.000Z</time>
      </trkpt>
      <trkpt lat="45.5733" lon="6.57584">
        <ele>2128.6000976562</ele>
        <time>2014-01-31T12:43:37.000Z</time>
      </trkpt>
      <trkpt lat="45.5733" lon="6.57584">
        <ele>2128.8000488281</ele>
        <time>2014-01-31T12:43:38.000Z</time>
      </trkpt>
      <trkpt lat="45.5733" lon="6.57584">
        <ele>2129</ele>
        <time>2014-01-31T12:43:39.000Z</time>
      </trkpt>
      <trkpt lat="45.5733" lon="6.57584">
        <ele>2129.3999023438</ele>
        <time>2014-01-31T12:43:40.000Z</time>
      </trkpt>
      <trkpt lat="45.5733" lon="6.57583">
        <ele>2129.6000976562</ele>
        <time>2014-01-31T12:43:41.000Z</time>
      </trkpt>
      <trkpt lat="45.57331" lon="6.57582">
        <ele>2130</ele>
        <time>2014-01-31T12:43:42.000Z</time>
      </trkpt>
      <trkpt lat="45.57331" lon="6.57582">
        <ele>2130.1999511719</ele>
        <time>2014-01-31T12:43:43.000Z</time>
      </trkpt>
      <trkpt lat="45.57332" lon="6.57582">
        <ele>2130.3999023438</ele>
        <time>2014-01-31T12:43:44.000Z</time>
      </trkpt>
      <trkpt lat="45.57333" lon="6.57581">
        <ele>2130.6000976562</ele>
        <time>2014-01-31T12:43:45.000Z</time>
      </trkpt>
      <trkpt lat="45.57334" lon="6.57581">
        <ele>2131</ele>
        <time>2014-01-31T12:43:46.000Z</time>
      </trkpt>
      <trkpt lat="45.57335" lon="6.57581">
        <ele>2131.6000976562</ele>
        <time>2014-01-31T12:43:47.000Z</time>
      </trkpt>
      <trkpt lat="45.57335" lon="6.57581">
        <ele>2131.6000976562</ele>
        <time>2014-01-31T12:43:48.000Z</time>
      </trkpt>
      <trkpt lat="45.57336" lon="6.57581">
        <ele>2131.8000488281</ele>
        <time>2014-01-31T12:43:49.000Z</time>
      </trkpt>
      <trkpt lat="45.57337" lon="6.5758">
        <ele>2131.8000488281</ele>
        <time>2014-01-31T12:43:50.000Z</time>
      </trkpt>
      <trkpt lat="45.57337" lon="6.5758">
        <ele>2132</ele>
        <time>2014-01-31T12:43:51.000Z</time>
      </trkpt>
      <trkpt lat="45.57337" lon="6.57581">
        <ele>2132.1999511719</ele>
        <time>2014-01-31T12:43:52.000Z</time>
      </trkpt>
      <trkpt lat="45.57337" lon="6.57581">
        <ele>2132.3999023438</ele>
        <time>2014-01-31T12:43:53.000Z</time>
      </trkpt>
      <trkpt lat="45.57337" lon="6.57581">
        <ele>2132.6000976562</ele>
        <time>2014-01-31T12:43:54.000Z</time>
      </trkpt>
      <trkpt lat="45.57337" lon="6.57581">
        <ele>2132.8000488281</ele>
        <time>2014-01-31T12:43:55.000Z</time>
      </trkpt>
      <trkpt lat="45.57337" lon="6.57581">
        <ele>2133</ele>
        <time>2014-01-31T12:43:56.000Z</time>
      </trkpt>
      <trkpt lat="45.57337" lon="6.57581">
        <ele>2133.1999511719</ele>
        <time>2014-01-31T12:43:57.000Z</time>
      </trkpt>
      <trkpt lat="45.57337" lon="6.57581">
        <ele>2133.1999511719</ele>
        <time>2014-01-31T12:43:58.000Z</time>
      </trkpt>
      <trkpt lat="45.57337" lon="6.57581">
        <ele>2133.1999511719</ele>
        <time>2014-01-31T12:43:59.000Z</time>
      </trkpt>
      <trkpt lat="45.57335" lon="6.57581">
        <ele>2133.1999511719</ele>
        <time>2014-01-31T12:44:00.000Z</time>
      </trkpt>
      <trkpt lat="45.57335" lon="6.57581">
        <ele>2133.3999023438</ele>
        <time>2014-01-31T12:44:01.000Z</time>
      </trkpt>
      <trkpt lat="45.57335" lon="6.5758">
        <ele>2133.3999023438</ele>
        <time>2014-01-31T12:44:02.000Z</time>
      </trkpt>
      <trkpt lat="45.57335" lon="6.5758">
        <ele>2133.3999023438</ele>
        <time>2014-01-31T12:44:03.000Z</time>
      </trkpt>
      <trkpt lat="45.57335" lon="6.5758">
        <ele>2133.3999023438</ele>
        <time>2014-01-31T12:44:04.000Z</time>
      </trkpt>
      <trkpt lat="45.57335" lon="6.5758">
        <ele>2133.1999511719</ele>
        <time>2014-01-31T12:44:05.000Z</time>
      </trkpt>
      <trkpt lat="45.57335" lon="6.5758">
        <ele>2133.1999511719</ele>
        <time>2014-01-31T12:44:06.000Z</time>
      </trkpt>
      <trkpt lat="45.57335" lon="6.5758">
        <ele>2133.1999511719</ele>
        <time>2014-01-31T12:44:07.000Z</time>
      </trkpt>
      <trkpt lat="45.57335" lon="6.5758">
        <ele>2133</ele>
        <time>2014-01-31T12:44:08.000Z</time>
      </trkpt>
      <trkpt lat="45.57335" lon="6.5758">
        <ele>2133</ele>
        <time>2014-01-31T12:44:09.000Z</time>
      </trkpt>
      <trkpt lat="45.57335" lon="6.5758">
        <ele>2132.8000488281</ele>
        <time>2014-01-31T12:44:10.000Z</time>
      </trkpt>
      <trkpt lat="45.57335" lon="6.5758">
        <ele>2132.6000976562</ele>
        <time>2014-01-31T12:44:11.000Z</time>
      </trkpt>
      <trkpt lat="45.57335" lon="6.5758">
        <ele>2132.6000976562</ele>
        <time>2014-01-31T12:44:12.000Z</time>
      </trkpt>
      <trkpt lat="45.57335" lon="6.5758">
        <ele>2132.6000976562</ele>
        <time>2014-01-31T12:44:13.000Z</time>
      </trkpt>
      <trkpt lat="45.57335" lon="6.5758">
        <ele>2132.6000976562</ele>
        <time>2014-01-31T12:44:14.000Z</time>
      </trkpt>
      <trkpt lat="45.57335" lon="6.5758">
        <ele>2132.6000976562</ele>
        <time>2014-01-31T12:44:15.000Z</time>
      </trkpt>
      <trkpt lat="45.57335" lon="6.5758">
        <ele>2132.3999023438</ele>
        <time>2014-01-31T12:44:16.000Z</time>
      </trkpt>
      <trkpt lat="45.57336" lon="6.57581">
        <ele>2132.3999023438</ele>
        <time>2014-01-31T12:44:17.000Z</time>
      </trkpt>
      <trkpt lat="45.57336" lon="6.57581">
        <ele>2132.3999023438</ele>
        <time>2014-01-31T12:44:18.000Z</time>
      </trkpt>
      <trkpt lat="45.57336" lon="6.57581">
        <ele>2132.3999023438</ele>
        <time>2014-01-31T12:44:19.000Z</time>
      </trkpt>
      <trkpt lat="45.57336" lon="6.57581">
        <ele>2132.3999023438</ele>
        <time>2014-01-31T12:44:20.000Z</time>
      </trkpt>
      <trkpt lat="45.57336" lon="6.57581">
        <ele>2132.6000976562</ele>
        <time>2014-01-31T12:44:21.000Z</time>
      </trkpt>
      <trkpt lat="45.57336" lon="6.57581">
        <ele>2132.6000976562</ele>
        <time>2014-01-31T12:44:22.000Z</time>
      </trkpt>
      <trkpt lat="45.57336" lon="6.57581">
        <ele>2132.6000976562</ele>
        <time>2014-01-31T12:44:23.000Z</time>
      </trkpt>
      <trkpt lat="45.57336" lon="6.57581">
        <ele>2132.6000976562</ele>
        <time>2014-01-31T12:44:24.000Z</time>
      </trkpt>
      <trkpt lat="45.57336" lon="6.57581">
        <ele>2132.6000976562</ele>
        <time>2014-01-31T12:44:25.000Z</time>
      </trkpt>
      <trkpt lat="45.57336" lon="6.57581">
        <ele>2132.8000488281</ele>
        <time>2014-01-31T12:44:26.000Z</time>
      </trkpt>
      <trkpt lat="45.57336" lon="6.57581">
        <ele>2132.8000488281</ele>
        <time>2014-01-31T12:44:27.000Z</time>
      </trkpt>
      <trkpt lat="45.57336" lon="6.57581">
        <ele>2132.8000488281</ele>
        <time>2014-01-31T12:44:28.000Z</time>
      </trkpt>
      <trkpt lat="45.57336" lon="6.57581">
        <ele>2132.8000488281</ele>
        <time>2014-01-31T12:44:31.000Z</time>
      </trkpt>
      <trkpt lat="45.57336" lon="6.57581">
        <ele>2132.8000488281</ele>
        <time>2014-01-31T12:44:32.000Z</time>
      </trkpt>
      <trkpt lat="45.57336" lon="6.57581">
        <ele>2132.8000488281</ele>
        <time>2014-01-31T12:44:33.000Z</time>
      </trkpt>
      <trkpt lat="45.57336" lon="6.57581">
        <ele>2132.8000488281</ele>
        <time>2014-01-31T12:44:34.000Z</time>
      </trkpt>
      <trkpt lat="45.57336" lon="6.57581">
        <ele>2132.8000488281</ele>
        <time>2014-01-31T12:44:35.000Z</time>
      </trkpt>
      <trkpt lat="45.57336" lon="6.57581">
        <ele>2132.8000488281</ele>
        <time>2014-01-31T12:44:36.000Z</time>
      </trkpt>
      <trkpt lat="45.57336" lon="6.57581">
        <ele>2132.8000488281</ele>
        <time>2014-01-31T12:44:37.000Z</time>
      </trkpt>
      <trkpt lat="45.57336" lon="6.57581">
        <ele>2133</ele>
        <time>2014-01-31T12:44:38.000Z</time>
      </trkpt>
      <trkpt lat="45.57336" lon="6.57581">
        <ele>2133</ele>
        <time>2014-01-31T12:44:40.000Z</time>
      </trkpt>
      <trkpt lat="45.57336" lon="6.57581">
        <ele>2133</ele>
        <time>2014-01-31T12:44:41.000Z</time>
      </trkpt>
      <trkpt lat="45.57336" lon="6.57581">
        <ele>2133</ele>
        <time>2014-01-31T12:44:42.000Z</time>
      </trkpt>
      <trkpt lat="45.57336" lon="6.57581">
        <ele>2133</ele>
        <time>2014-01-31T12:44:43.000Z</time>
      </trkpt>
      <trkpt lat="45.57336" lon="6.57581">
        <ele>2133</ele>
        <time>2014-01-31T12:44:44.000Z</time>
      </trkpt>
      <trkpt lat="45.57336" lon="6.57581">
        <ele>2133</ele>
        <time>2014-01-31T12:44:45.000Z</time>
      </trkpt>
      <trkpt lat="45.57336" lon="6.57581">
        <ele>2133</ele>
        <time>2014-01-31T12:44:46.000Z</time>
      </trkpt>
      <trkpt lat="45.57336" lon="6.57581">
        <ele>2133</ele>
        <time>2014-01-31T12:44:47.000Z</time>
      </trkpt>
      <trkpt lat="45.57336" lon="6.57581">
        <ele>2133</ele>
        <time>2014-01-31T12:44:48.000Z</time>
      </trkpt>
      <trkpt lat="45.57336" lon="6.57581">
        <ele>2133</ele>
        <time>2014-01-31T12:44:49.000Z</time>
      </trkpt>
      <trkpt lat="45.57336" lon="6.57581">
        <ele>2133</ele>
        <time>2014-01-31T12:44:50.000Z</time>
      </trkpt>
      <trkpt lat="45.57336" lon="6.57581">
        <ele>2133</ele>
        <time>2014-01-31T12:44:51.000Z</time>
      </trkpt>
      <trkpt lat="45.57336" lon="6.57581">
        <ele>2133</ele>
        <time>2014-01-31T12:44:52.000Z</time>
      </trkpt>
      <trkpt lat="45.57336" lon="6.57581">
        <ele>2133</ele>
        <time>2014-01-31T12:44:53.000Z</time>
      </trkpt>
      <trkpt lat="45.57336" lon="6.57581">
        <ele>2133</ele>
        <time>2014-01-31T12:44:54.000Z</time>
      </trkpt>
      <trkpt lat="45.57336" lon="6.5758">
        <ele>2133</ele>
        <time>2014-01-31T12:44:58.000Z</time>
      </trkpt>
      <trkpt lat="45.57336" lon="6.5758">
        <ele>2133</ele>
        <time>2014-01-31T12:44:59.000Z</time>
      </trkpt>
      <trkpt lat="45.57336" lon="6.5758">
        <ele>2133.1999511719</ele>
        <time>2014-01-31T12:45:00.000Z</time>
      </trkpt>
      <trkpt lat="45.57336" lon="6.5758">
        <ele>2133.1999511719</ele>
        <time>2014-01-31T12:45:01.000Z</time>
      </trkpt>
      <trkpt lat="45.57336" lon="6.5758">
        <ele>2133.1999511719</ele>
        <time>2014-01-31T12:45:02.000Z</time>
      </trkpt>
      <trkpt lat="45.57336" lon="6.5758">
        <ele>2133.1999511719</ele>
        <time>2014-01-31T12:45:03.000Z</time>
      </trkpt>
      <trkpt lat="45.57336" lon="6.5758">
        <ele>2133.1999511719</ele>
        <time>2014-01-31T12:45:10.000Z</time>
      </trkpt>
      <trkpt lat="45.57336" lon="6.5758">
        <ele>2133.1999511719</ele>
        <time>2014-01-31T12:45:11.000Z</time>
      </trkpt>
      <trkpt lat="45.57336" lon="6.5758">
        <ele>2133.1999511719</ele>
        <time>2014-01-31T12:45:12.000Z</time>
      </trkpt>
      <trkpt lat="45.57336" lon="6.5758">
        <ele>2133.1999511719</ele>
        <time>2014-01-31T12:45:13.000Z</time>
      </trkpt>
      <trkpt lat="45.57336" lon="6.5758">
        <ele>2133.1999511719</ele>
        <time>2014-01-31T12:45:14.000Z</time>
      </trkpt>
      <trkpt lat="45.57336" lon="6.5758">
        <ele>2133.1999511719</ele>
        <time>2014-01-31T12:45:15.000Z</time>
      </trkpt>
      <trkpt lat="45.57336" lon="6.5758">
        <ele>2133.1999511719</ele>
        <time>2014-01-31T12:45:16.000Z</time>
      </trkpt>
      <trkpt lat="45.57338" lon="6.5758">
        <ele>2133.1999511719</ele>
        <time>2014-01-31T12:45:18.000Z</time>
      </trkpt>
      <trkpt lat="45.57338" lon="6.57579">
        <ele>2133.1999511719</ele>
        <time>2014-01-31T12:45:19.000Z</time>
      </trkpt>
      <trkpt lat="45.57339" lon="6.57579">
        <ele>2133.1999511719</ele>
        <time>2014-01-31T12:45:20.000Z</time>
      </trkpt>
      <trkpt lat="45.5734" lon="6.57579">
        <ele>2133.1999511719</ele>
        <time>2014-01-31T12:45:21.000Z</time>
      </trkpt>
      <trkpt lat="45.57341" lon="6.57578">
        <ele>2133.3999023438</ele>
        <time>2014-01-31T12:45:22.000Z</time>
      </trkpt>
      <trkpt lat="45.57342" lon="6.57578">
        <ele>2133.8000488281</ele>
        <time>2014-01-31T12:45:23.000Z</time>
      </trkpt>
      <trkpt lat="45.57342" lon="6.57578">
        <ele>2134</ele>
        <time>2014-01-31T12:45:24.000Z</time>
      </trkpt>
      <trkpt lat="45.57343" lon="6.57577">
        <ele>2134</ele>
        <time>2014-01-31T12:45:25.000Z</time>
      </trkpt>
      <trkpt lat="45.57344" lon="6.57577">
        <ele>2134.1999511719</ele>
        <time>2014-01-31T12:45:26.000Z</time>
      </trkpt>
      <trkpt lat="45.57344" lon="6.57577">
        <ele>2134.3999023438</ele>
        <time>2014-01-31T12:45:27.000Z</time>
      </trkpt>
      <trkpt lat="45.57345" lon="6.57576">
        <ele>2134.3999023438</ele>
        <time>2014-01-31T12:45:28.000Z</time>
      </trkpt>
      <trkpt lat="45.57346" lon="6.57576">
        <ele>2134.8000488281</ele>
        <time>2014-01-31T12:45:29.000Z</time>
      </trkpt>
      <trkpt lat="45.57346" lon="6.57575">
        <ele>2134.8000488281</ele>
        <time>2014-01-31T12:45:30.000Z</time>
      </trkpt>
      <trkpt lat="45.57348" lon="6.57575">
        <ele>2135</ele>
        <time>2014-01-31T12:45:31.000Z</time>
      </trkpt>
      <trkpt lat="45.57349" lon="6.57574">
        <ele>2135.1999511719</ele>
        <time>2014-01-31T12:45:32.000Z</time>
      </trkpt>
      <trkpt lat="45.57349" lon="6.57574">
        <ele>2135.3999023438</ele>
        <time>2014-01-31T12:45:33.000Z</time>
      </trkpt>
      <trkpt lat="45.5735" lon="6.57574">
        <ele>2135.8000488281</ele>
        <time>2014-01-31T12:45:34.000Z</time>
      </trkpt>
      <trkpt lat="45.5735" lon="6.57574">
        <ele>2136</ele>
        <time>2014-01-31T12:45:35.000Z</time>
      </trkpt>
      <trkpt lat="45.5735" lon="6.57574">
        <ele>2136.1999511719</ele>
        <time>2014-01-31T12:45:36.000Z</time>
      </trkpt>
      <trkpt lat="45.5735" lon="6.57574">
        <ele>2136.3999023438</ele>
        <time>2014-01-31T12:45:37.000Z</time>
      </trkpt>
      <trkpt lat="45.5735" lon="6.57574">
        <ele>2136.6000976562</ele>
        <time>2014-01-31T12:45:38.000Z</time>
      </trkpt>
      <trkpt lat="45.5735" lon="6.57574">
        <ele>2137</ele>
        <time>2014-01-31T12:45:39.000Z</time>
      </trkpt>
      <trkpt lat="45.5735" lon="6.57574">
        <ele>2137</ele>
        <time>2014-01-31T12:45:40.000Z</time>
      </trkpt>
      <trkpt lat="45.5735" lon="6.57574">
        <ele>2137</ele>
        <time>2014-01-31T12:45:41.000Z</time>
      </trkpt>
      <trkpt lat="45.5735" lon="6.57574">
        <ele>2137</ele>
        <time>2014-01-31T12:45:42.000Z</time>
      </trkpt>
      <trkpt lat="45.5735" lon="6.57574">
        <ele>2137</ele>
        <time>2014-01-31T12:45:43.000Z</time>
      </trkpt>
      <trkpt lat="45.5735" lon="6.57574">
        <ele>2137</ele>
        <time>2014-01-31T12:45:44.000Z</time>
      </trkpt>
      <trkpt lat="45.5735" lon="6.57574">
        <ele>2137</ele>
        <time>2014-01-31T12:45:45.000Z</time>
      </trkpt>
      <trkpt lat="45.5735" lon="6.57574">
        <ele>2137</ele>
        <time>2014-01-31T12:45:46.000Z</time>
      </trkpt>
      <trkpt lat="45.5735" lon="6.57574">
        <ele>2137</ele>
        <time>2014-01-31T12:45:47.000Z</time>
      </trkpt>
      <trkpt lat="45.57351" lon="6.57573">
        <ele>2137</ele>
        <time>2014-01-31T12:45:48.000Z</time>
      </trkpt>
      <trkpt lat="45.57352" lon="6.57572">
        <ele>2137</ele>
        <time>2014-01-31T12:45:49.000Z</time>
      </trkpt>
      <trkpt lat="45.57353" lon="6.57572">
        <ele>2137</ele>
        <time>2014-01-31T12:45:50.000Z</time>
      </trkpt>
      <trkpt lat="45.57355" lon="6.57572">
        <ele>2137</ele>
        <time>2014-01-31T12:45:52.000Z</time>
      </trkpt>
      <trkpt lat="45.57356" lon="6.57571">
        <ele>2137</ele>
        <time>2014-01-31T12:45:53.000Z</time>
      </trkpt>
      <trkpt lat="45.57358" lon="6.57572">
        <ele>2137.1999511719</ele>
        <time>2014-01-31T12:45:54.000Z</time>
      </trkpt>
      <trkpt lat="45.57359" lon="6.57571">
        <ele>2137.3999023438</ele>
        <time>2014-01-31T12:45:55.000Z</time>
      </trkpt>
      <trkpt lat="45.5736" lon="6.57571">
        <ele>2137.6000976562</ele>
        <time>2014-01-31T12:45:56.000Z</time>
      </trkpt>
      <trkpt lat="45.57361" lon="6.57571">
        <ele>2137.6000976562</ele>
        <time>2014-01-31T12:45:57.000Z</time>
      </trkpt>
      <trkpt lat="45.57362" lon="6.5757">
        <ele>2137.8000488281</ele>
        <time>2014-01-31T12:45:58.000Z</time>
      </trkpt>
      <trkpt lat="45.57363" lon="6.5757">
        <ele>2137.8000488281</ele>
        <time>2014-01-31T12:45:59.000Z</time>
      </trkpt>
      <trkpt lat="45.57364" lon="6.5757">
        <ele>2138</ele>
        <time>2014-01-31T12:46:00.000Z</time>
      </trkpt>
      <trkpt lat="45.57365" lon="6.57569">
        <ele>2138.1999511719</ele>
        <time>2014-01-31T12:46:01.000Z</time>
      </trkpt>
      <trkpt lat="45.57365" lon="6.57569">
        <ele>2138.3999023438</ele>
        <time>2014-01-31T12:46:02.000Z</time>
      </trkpt>
      <trkpt lat="45.57366" lon="6.57569">
        <ele>2138.6000976562</ele>
        <time>2014-01-31T12:46:03.000Z</time>
      </trkpt>
      <trkpt lat="45.57367" lon="6.57568">
        <ele>2138.8000488281</ele>
        <time>2014-01-31T12:46:04.000Z</time>
      </trkpt>
      <trkpt lat="45.57368" lon="6.57568">
        <ele>2139</ele>
        <time>2014-01-31T12:46:05.000Z</time>
      </trkpt>
      <trkpt lat="45.57369" lon="6.57567">
        <ele>2139.1999511719</ele>
        <time>2014-01-31T12:46:06.000Z</time>
      </trkpt>
      <trkpt lat="45.57369" lon="6.57567">
        <ele>2139.6000976562</ele>
        <time>2014-01-31T12:46:07.000Z</time>
      </trkpt>
      <trkpt lat="45.5737" lon="6.57567">
        <ele>2140</ele>
        <time>2014-01-31T12:46:08.000Z</time>
      </trkpt>
      <trkpt lat="45.5737" lon="6.57567">
        <ele>2140.1999511719</ele>
        <time>2014-01-31T12:46:09.000Z</time>
      </trkpt>
      <trkpt lat="45.57371" lon="6.57566">
        <ele>2140.3999023438</ele>
        <time>2014-01-31T12:46:10.000Z</time>
      </trkpt>
      <trkpt lat="45.57371" lon="6.57566">
        <ele>2140.6000976562</ele>
        <time>2014-01-31T12:46:11.000Z</time>
      </trkpt>
      <trkpt lat="45.57372" lon="6.57565">
        <ele>2141.1999511719</ele>
        <time>2014-01-31T12:46:12.000Z</time>
      </trkpt>
      <trkpt lat="45.57372" lon="6.57565">
        <ele>2141.6000976562</ele>
        <time>2014-01-31T12:46:13.000Z</time>
      </trkpt>
      <trkpt lat="45.57373" lon="6.57564">
        <ele>2141.8000488281</ele>
        <time>2014-01-31T12:46:14.000Z</time>
      </trkpt>
      <trkpt lat="45.57374" lon="6.57564">
        <ele>2142</ele>
        <time>2014-01-31T12:46:15.000Z</time>
      </trkpt>
      <trkpt lat="45.57375" lon="6.57564">
        <ele>2142.1999511719</ele>
        <time>2014-01-31T12:46:16.000Z</time>
      </trkpt>
      <trkpt lat="45.57375" lon="6.57564">
        <ele>2142.3999023438</ele>
        <time>2014-01-31T12:46:17.000Z</time>
      </trkpt>
      <trkpt lat="45.57376" lon="6.57563">
        <ele>2142.6000976562</ele>
        <time>2014-01-31T12:46:18.000Z</time>
      </trkpt>
      <trkpt lat="45.57377" lon="6.57563">
        <ele>2143</ele>
        <time>2014-01-31T12:46:19.000Z</time>
      </trkpt>
      <trkpt lat="45.57377" lon="6.57563">
        <ele>2143.3999023438</ele>
        <time>2014-01-31T12:46:20.000Z</time>
      </trkpt>
      <trkpt lat="45.57378" lon="6.57563">
        <ele>2143.3999023438</ele>
        <time>2014-01-31T12:46:21.000Z</time>
      </trkpt>
      <trkpt lat="45.57379" lon="6.57563">
        <ele>2143.6000976562</ele>
        <time>2014-01-31T12:46:22.000Z</time>
      </trkpt>
      <trkpt lat="45.57379" lon="6.57562">
        <ele>2143.6000976562</ele>
        <time>2014-01-31T12:46:23.000Z</time>
      </trkpt>
      <trkpt lat="45.5738" lon="6.57562">
        <ele>2143.8000488281</ele>
        <time>2014-01-31T12:46:24.000Z</time>
      </trkpt>
      <trkpt lat="45.57381" lon="6.57562">
        <ele>2144.1999511719</ele>
        <time>2014-01-31T12:46:25.000Z</time>
      </trkpt>
      <trkpt lat="45.57382" lon="6.57562">
        <ele>2144.3999023438</ele>
        <time>2014-01-31T12:46:26.000Z</time>
      </trkpt>
      <trkpt lat="45.57382" lon="6.57562">
        <ele>2144.6000976562</ele>
        <time>2014-01-31T12:46:27.000Z</time>
      </trkpt>
      <trkpt lat="45.57383" lon="6.57562">
        <ele>2144.8000488281</ele>
        <time>2014-01-31T12:46:28.000Z</time>
      </trkpt>
      <trkpt lat="45.57384" lon="6.57562">
        <ele>2144.8000488281</ele>
        <time>2014-01-31T12:46:29.000Z</time>
      </trkpt>
      <trkpt lat="45.57385" lon="6.57562">
        <ele>2145</ele>
        <time>2014-01-31T12:46:30.000Z</time>
      </trkpt>
      <trkpt lat="45.57386" lon="6.57562">
        <ele>2145</ele>
        <time>2014-01-31T12:46:31.000Z</time>
      </trkpt>
      <trkpt lat="45.57387" lon="6.57562">
        <ele>2145.3999023438</ele>
        <time>2014-01-31T12:46:32.000Z</time>
      </trkpt>
      <trkpt lat="45.57387" lon="6.57561">
        <ele>2145.6000976562</ele>
        <time>2014-01-31T12:46:33.000Z</time>
      </trkpt>
      <trkpt lat="45.57388" lon="6.57561">
        <ele>2146</ele>
        <time>2014-01-31T12:46:34.000Z</time>
      </trkpt>
      <trkpt lat="45.57388" lon="6.5756">
        <ele>2146.1999511719</ele>
        <time>2014-01-31T12:46:35.000Z</time>
      </trkpt>
      <trkpt lat="45.57389" lon="6.5756">
        <ele>2146.6000976562</ele>
        <time>2014-01-31T12:46:36.000Z</time>
      </trkpt>
      <trkpt lat="45.57389" lon="6.57559">
        <ele>2146.6000976562</ele>
        <time>2014-01-31T12:46:37.000Z</time>
      </trkpt>
      <trkpt lat="45.5739" lon="6.57559">
        <ele>2146.6000976562</ele>
        <time>2014-01-31T12:46:38.000Z</time>
      </trkpt>
      <trkpt lat="45.57391" lon="6.57559">
        <ele>2146.6000976562</ele>
        <time>2014-01-31T12:46:39.000Z</time>
      </trkpt>
      <trkpt lat="45.57392" lon="6.57558">
        <ele>2147</ele>
        <time>2014-01-31T12:46:40.000Z</time>
      </trkpt>
      <trkpt lat="45.57392" lon="6.57558">
        <ele>2147.1999511719</ele>
        <time>2014-01-31T12:46:41.000Z</time>
      </trkpt>
      <trkpt lat="45.57393" lon="6.57558">
        <ele>2147.6000976562</ele>
        <time>2014-01-31T12:46:42.000Z</time>
      </trkpt>
      <trkpt lat="45.57394" lon="6.57558">
        <ele>2148</ele>
        <time>2014-01-31T12:46:43.000Z</time>
      </trkpt>
      <trkpt lat="45.57394" lon="6.57557">
        <ele>2148.1999511719</ele>
        <time>2014-01-31T12:46:44.000Z</time>
      </trkpt>
      <trkpt lat="45.57395" lon="6.57557">
        <ele>2148.1999511719</ele>
        <time>2014-01-31T12:46:45.000Z</time>
      </trkpt>
      <trkpt lat="45.57396" lon="6.57557">
        <ele>2148.3999023438</ele>
        <time>2014-01-31T12:46:46.000Z</time>
      </trkpt>
      <trkpt lat="45.57396" lon="6.57556">
        <ele>2148.3999023438</ele>
        <time>2014-01-31T12:46:47.000Z</time>
      </trkpt>
      <trkpt lat="45.57397" lon="6.57556">
        <ele>2148.8000488281</ele>
        <time>2014-01-31T12:46:48.000Z</time>
      </trkpt>
      <trkpt lat="45.57397" lon="6.57556">
        <ele>2148.8000488281</ele>
        <time>2014-01-31T12:46:49.000Z</time>
      </trkpt>
      <trkpt lat="45.57398" lon="6.57556">
        <ele>2148.8000488281</ele>
        <time>2014-01-31T12:46:50.000Z</time>
      </trkpt>
      <trkpt lat="45.57398" lon="6.57556">
        <ele>2149</ele>
        <time>2014-01-31T12:46:51.000Z</time>
      </trkpt>
      <trkpt lat="45.57399" lon="6.57555">
        <ele>2149</ele>
        <time>2014-01-31T12:46:52.000Z</time>
      </trkpt>
      <trkpt lat="45.574" lon="6.57555">
        <ele>2149.1999511719</ele>
        <time>2014-01-31T12:46:53.000Z</time>
      </trkpt>
      <trkpt lat="45.574" lon="6.57555">
        <ele>2149.6000976562</ele>
        <time>2014-01-31T12:46:54.000Z</time>
      </trkpt>
      <trkpt lat="45.57401" lon="6.57555">
        <ele>2149.8000488281</ele>
        <time>2014-01-31T12:46:55.000Z</time>
      </trkpt>
      <trkpt lat="45.57402" lon="6.57554">
        <ele>2149.8000488281</ele>
        <time>2014-01-31T12:46:56.000Z</time>
      </trkpt>
      <trkpt lat="45.57403" lon="6.57554">
        <ele>2150</ele>
        <time>2014-01-31T12:46:57.000Z</time>
      </trkpt>
      <trkpt lat="45.57403" lon="6.57554">
        <ele>2150.1999511719</ele>
        <time>2014-01-31T12:46:58.000Z</time>
      </trkpt>
      <trkpt lat="45.57404" lon="6.57554">
        <ele>2150.1999511719</ele>
        <time>2014-01-31T12:46:59.000Z</time>
      </trkpt>
      <trkpt lat="45.57405" lon="6.57553">
        <ele>2150.8000488281</ele>
        <time>2014-01-31T12:47:00.000Z</time>
      </trkpt>
      <trkpt lat="45.57405" lon="6.57553">
        <ele>2151</ele>
        <time>2014-01-31T12:47:01.000Z</time>
      </trkpt>
      <trkpt lat="45.57405" lon="6.57552">
        <ele>2151.3999023438</ele>
        <time>2014-01-31T12:47:02.000Z</time>
      </trkpt>
      <trkpt lat="45.57406" lon="6.57551">
        <ele>2151.3999023438</ele>
        <time>2014-01-31T12:47:03.000Z</time>
      </trkpt>
      <trkpt lat="45.57407" lon="6.57551">
        <ele>2151.6000976562</ele>
        <time>2014-01-31T12:47:04.000Z</time>
      </trkpt>
      <trkpt lat="45.57407" lon="6.57551">
        <ele>2151.6000976562</ele>
        <time>2014-01-31T12:47:05.000Z</time>
      </trkpt>
      <trkpt lat="45.57408" lon="6.57551">
        <ele>2151.6000976562</ele>
        <time>2014-01-31T12:47:06.000Z</time>
      </trkpt>
      <trkpt lat="45.57408" lon="6.5755">
        <ele>2151.8000488281</ele>
        <time>2014-01-31T12:47:07.000Z</time>
      </trkpt>
      <trkpt lat="45.57409" lon="6.5755">
        <ele>2152</ele>
        <time>2014-01-31T12:47:08.000Z</time>
      </trkpt>
      <trkpt lat="45.5741" lon="6.5755">
        <ele>2152.3999023438</ele>
        <time>2014-01-31T12:47:09.000Z</time>
      </trkpt>
      <trkpt lat="45.5741" lon="6.5755">
        <ele>2152.6000976562</ele>
        <time>2014-01-31T12:47:10.000Z</time>
      </trkpt>
      <trkpt lat="45.57411" lon="6.5755">
        <ele>2152.6000976562</ele>
        <time>2014-01-31T12:47:11.000Z</time>
      </trkpt>
      <trkpt lat="45.57412" lon="6.57549">
        <ele>2152.8000488281</ele>
        <time>2014-01-31T12:47:12.000Z</time>
      </trkpt>
      <trkpt lat="45.57413" lon="6.57549">
        <ele>2152.8000488281</ele>
        <time>2014-01-31T12:47:13.000Z</time>
      </trkpt>
      <trkpt lat="45.57413" lon="6.57549">
        <ele>2152.8000488281</ele>
        <time>2014-01-31T12:47:14.000Z</time>
      </trkpt>
      <trkpt lat="45.57414" lon="6.57549">
        <ele>2153</ele>
        <time>2014-01-31T12:47:15.000Z</time>
      </trkpt>
      <trkpt lat="45.57415" lon="6.57549">
        <ele>2153.1999511719</ele>
        <time>2014-01-31T12:47:16.000Z</time>
      </trkpt>
      <trkpt lat="45.57415" lon="6.57549">
        <ele>2153.3999023438</ele>
        <time>2014-01-31T12:47:17.000Z</time>
      </trkpt>
      <trkpt lat="45.57416" lon="6.57549">
        <ele>2153.8000488281</ele>
        <time>2014-01-31T12:47:18.000Z</time>
      </trkpt>
      <trkpt lat="45.57417" lon="6.57548">
        <ele>2153.8000488281</ele>
        <time>2014-01-31T12:47:19.000Z</time>
      </trkpt>
      <trkpt lat="45.57417" lon="6.57548">
        <ele>2153.8000488281</ele>
        <time>2014-01-31T12:47:20.000Z</time>
      </trkpt>
      <trkpt lat="45.57418" lon="6.57548">
        <ele>2154</ele>
        <time>2014-01-31T12:47:21.000Z</time>
      </trkpt>
      <trkpt lat="45.57418" lon="6.57548">
        <ele>2154.1999511719</ele>
        <time>2014-01-31T12:47:22.000Z</time>
      </trkpt>
      <trkpt lat="45.57419" lon="6.57548">
        <ele>2154.3999023438</ele>
        <time>2014-01-31T12:47:23.000Z</time>
      </trkpt>
      <trkpt lat="45.5742" lon="6.57548">
        <ele>2154.6000976562</ele>
        <time>2014-01-31T12:47:24.000Z</time>
      </trkpt>
      <trkpt lat="45.57421" lon="6.57548">
        <ele>2154.8000488281</ele>
        <time>2014-01-31T12:47:25.000Z</time>
      </trkpt>
      <trkpt lat="45.57422" lon="6.57548">
        <ele>2154.8000488281</ele>
        <time>2014-01-31T12:47:26.000Z</time>
      </trkpt>
      <trkpt lat="45.57423" lon="6.57548">
        <ele>2154.8000488281</ele>
        <time>2014-01-31T12:47:27.000Z</time>
      </trkpt>
      <trkpt lat="45.57423" lon="6.57548">
        <ele>2155</ele>
        <time>2014-01-31T12:47:28.000Z</time>
      </trkpt>
      <trkpt lat="45.57424" lon="6.57547">
        <ele>2155.3999023438</ele>
        <time>2014-01-31T12:47:29.000Z</time>
      </trkpt>
      <trkpt lat="45.57424" lon="6.57547">
        <ele>2155.8000488281</ele>
        <time>2014-01-31T12:47:30.000Z</time>
      </trkpt>
      <trkpt lat="45.57425" lon="6.57547">
        <ele>2156</ele>
        <time>2014-01-31T12:47:31.000Z</time>
      </trkpt>
      <trkpt lat="45.57426" lon="6.57547">
        <ele>2156.1999511719</ele>
        <time>2014-01-31T12:47:32.000Z</time>
      </trkpt>
      <trkpt lat="45.57427" lon="6.57547">
        <ele>2156.3999023438</ele>
        <time>2014-01-31T12:47:33.000Z</time>
      </trkpt>
      <trkpt lat="45.57428" lon="6.57547">
        <ele>2156.6000976562</ele>
        <time>2014-01-31T12:47:34.000Z</time>
      </trkpt>
      <trkpt lat="45.57429" lon="6.57547">
        <ele>2156.6000976562</ele>
        <time>2014-01-31T12:47:35.000Z</time>
      </trkpt>
      <trkpt lat="45.57429" lon="6.57547">
        <ele>2156.6000976562</ele>
        <time>2014-01-31T12:47:36.000Z</time>
      </trkpt>
      <trkpt lat="45.5743" lon="6.57547">
        <ele>2157</ele>
        <time>2014-01-31T12:47:37.000Z</time>
      </trkpt>
      <trkpt lat="45.5743" lon="6.57547">
        <ele>2157.3999023438</ele>
        <time>2014-01-31T12:47:38.000Z</time>
      </trkpt>
      <trkpt lat="45.5743" lon="6.57547">
        <ele>2157.6000976562</ele>
        <time>2014-01-31T12:47:39.000Z</time>
      </trkpt>
      <trkpt lat="45.5743" lon="6.57547">
        <ele>2157.8000488281</ele>
        <time>2014-01-31T12:47:40.000Z</time>
      </trkpt>
      <trkpt lat="45.5743" lon="6.57547">
        <ele>2158</ele>
        <time>2014-01-31T12:47:41.000Z</time>
      </trkpt>
      <trkpt lat="45.5743" lon="6.57547">
        <ele>2158</ele>
        <time>2014-01-31T12:47:42.000Z</time>
      </trkpt>
      <trkpt lat="45.5743" lon="6.57547">
        <ele>2158</ele>
        <time>2014-01-31T12:47:44.000Z</time>
      </trkpt>
      <trkpt lat="45.5743" lon="6.57547">
        <ele>2158</ele>
        <time>2014-01-31T12:47:45.000Z</time>
      </trkpt>
      <trkpt lat="45.5743" lon="6.57547">
        <ele>2158</ele>
        <time>2014-01-31T12:47:46.000Z</time>
      </trkpt>
      <trkpt lat="45.5743" lon="6.57547">
        <ele>2158</ele>
        <time>2014-01-31T12:47:47.000Z</time>
      </trkpt>
      <trkpt lat="45.5743" lon="6.57547">
        <ele>2157.8000488281</ele>
        <time>2014-01-31T12:47:48.000Z</time>
      </trkpt>
      <trkpt lat="45.5743" lon="6.57547">
        <ele>2157.8000488281</ele>
        <time>2014-01-31T12:47:49.000Z</time>
      </trkpt>
      <trkpt lat="45.57431" lon="6.57547">
        <ele>2157.8000488281</ele>
        <time>2014-01-31T12:47:50.000Z</time>
      </trkpt>
      <trkpt lat="45.57432" lon="6.57547">
        <ele>2157.8000488281</ele>
        <time>2014-01-31T12:47:51.000Z</time>
      </trkpt>
      <trkpt lat="45.57432" lon="6.57547">
        <ele>2158</ele>
        <time>2014-01-31T12:47:52.000Z</time>
      </trkpt>
      <trkpt lat="45.57433" lon="6.57547">
        <ele>2158.1999511719</ele>
        <time>2014-01-31T12:47:53.000Z</time>
      </trkpt>
      <trkpt lat="45.57434" lon="6.57547">
        <ele>2158.3999023438</ele>
        <time>2014-01-31T12:47:54.000Z</time>
      </trkpt>
      <trkpt lat="45.57435" lon="6.57546">
        <ele>2158.6000976562</ele>
        <time>2014-01-31T12:47:55.000Z</time>
      </trkpt>
      <trkpt lat="45.57436" lon="6.57546">
        <ele>2159</ele>
        <time>2014-01-31T12:47:56.000Z</time>
      </trkpt>
      <trkpt lat="45.57437" lon="6.57545">
        <ele>2159.1999511719</ele>
        <time>2014-01-31T12:47:57.000Z</time>
      </trkpt>
      <trkpt lat="45.57438" lon="6.57545">
        <ele>2159.3999023438</ele>
        <time>2014-01-31T12:47:58.000Z</time>
      </trkpt>
      <trkpt lat="45.57439" lon="6.57545">
        <ele>2159.6000976562</ele>
        <time>2014-01-31T12:47:59.000Z</time>
      </trkpt>
      <trkpt lat="45.57439" lon="6.57545">
        <ele>2159.6000976562</ele>
        <time>2014-01-31T12:48:00.000Z</time>
      </trkpt>
      <trkpt lat="45.5744" lon="6.57545">
        <ele>2159.6000976562</ele>
        <time>2014-01-31T12:48:01.000Z</time>
      </trkpt>
      <trkpt lat="45.5744" lon="6.57545">
        <ele>2159.8000488281</ele>
        <time>2014-01-31T12:48:02.000Z</time>
      </trkpt>
      <trkpt lat="45.57441" lon="6.57545">
        <ele>2160</ele>
        <time>2014-01-31T12:48:03.000Z</time>
      </trkpt>
      <trkpt lat="45.57441" lon="6.57545">
        <ele>2160.1999511719</ele>
        <time>2014-01-31T12:48:04.000Z</time>
      </trkpt>
      <trkpt lat="45.57441" lon="6.57545">
        <ele>2160.3999023438</ele>
        <time>2014-01-31T12:48:05.000Z</time>
      </trkpt>
      <trkpt lat="45.57441" lon="6.57545">
        <ele>2160.3999023438</ele>
        <time>2014-01-31T12:48:06.000Z</time>
      </trkpt>
      <trkpt lat="45.57441" lon="6.57545">
        <ele>2160.3999023438</ele>
        <time>2014-01-31T12:48:07.000Z</time>
      </trkpt>
      <trkpt lat="45.57441" lon="6.57545">
        <ele>2160.6000976562</ele>
        <time>2014-01-31T12:48:08.000Z</time>
      </trkpt>
      <trkpt lat="45.57441" lon="6.57545">
        <ele>2160.6000976562</ele>
        <time>2014-01-31T12:48:09.000Z</time>
      </trkpt>
      <trkpt lat="45.57441" lon="6.57545">
        <ele>2160.6000976562</ele>
        <time>2014-01-31T12:48:10.000Z</time>
      </trkpt>
      <trkpt lat="45.57441" lon="6.57545">
        <ele>2160.6000976562</ele>
        <time>2014-01-31T12:48:11.000Z</time>
      </trkpt>
      <trkpt lat="45.57441" lon="6.57545">
        <ele>2160.6000976562</ele>
        <time>2014-01-31T12:48:13.000Z</time>
      </trkpt>
      <trkpt lat="45.57441" lon="6.57545">
        <ele>2160.6000976562</ele>
        <time>2014-01-31T12:48:14.000Z</time>
      </trkpt>
      <trkpt lat="45.57441" lon="6.57545">
        <ele>2160.6000976562</ele>
        <time>2014-01-31T12:48:15.000Z</time>
      </trkpt>
      <trkpt lat="45.57441" lon="6.57545">
        <ele>2160.6000976562</ele>
        <time>2014-01-31T12:48:16.000Z</time>
      </trkpt>
      <trkpt lat="45.57441" lon="6.57545">
        <ele>2160.3999023438</ele>
        <time>2014-01-31T12:48:19.000Z</time>
      </trkpt>
      <trkpt lat="45.57441" lon="6.57545">
        <ele>2160.3999023438</ele>
        <time>2014-01-31T12:48:20.000Z</time>
      </trkpt>
      <trkpt lat="45.57441" lon="6.57545">
        <ele>2160.3999023438</ele>
        <time>2014-01-31T12:48:21.000Z</time>
      </trkpt>
      <trkpt lat="45.57441" lon="6.57545">
        <ele>2160.3999023438</ele>
        <time>2014-01-31T12:48:22.000Z</time>
      </trkpt>
      <trkpt lat="45.57441" lon="6.57545">
        <ele>2160.3999023438</ele>
        <time>2014-01-31T12:48:23.000Z</time>
      </trkpt>
      <trkpt lat="45.57441" lon="6.57545">
        <ele>2160.3999023438</ele>
        <time>2014-01-31T12:48:24.000Z</time>
      </trkpt>
      <trkpt lat="45.57441" lon="6.57545">
        <ele>2160.3999023438</ele>
        <time>2014-01-31T12:48:25.000Z</time>
      </trkpt>
      <trkpt lat="45.57441" lon="6.57545">
        <ele>2160.3999023438</ele>
        <time>2014-01-31T12:48:26.000Z</time>
      </trkpt>
      <trkpt lat="45.57441" lon="6.57545">
        <ele>2160.1999511719</ele>
        <time>2014-01-31T12:48:27.000Z</time>
      </trkpt>
      <trkpt lat="45.57442" lon="6.57544">
        <ele>2160.1999511719</ele>
        <time>2014-01-31T12:48:28.000Z</time>
      </trkpt>
      <trkpt lat="45.57443" lon="6.57544">
        <ele>2160.1999511719</ele>
        <time>2014-01-31T12:48:29.000Z</time>
      </trkpt>
      <trkpt lat="45.57443" lon="6.57544">
        <ele>2160</ele>
        <time>2014-01-31T12:48:30.000Z</time>
      </trkpt>
      <trkpt lat="45.57445" lon="6.57542">
        <ele>2160.1999511719</ele>
        <time>2014-01-31T12:48:32.000Z</time>
      </trkpt>
      <trkpt lat="45.57445" lon="6.57542">
        <ele>2160.6000976562</ele>
        <time>2014-01-31T12:48:33.000Z</time>
      </trkpt>
      <trkpt lat="45.57447" lon="6.57542">
        <ele>2160.6000976562</ele>
        <time>2014-01-31T12:48:34.000Z</time>
      </trkpt>
      <trkpt lat="45.57448" lon="6.57542">
        <ele>2160.8000488281</ele>
        <time>2014-01-31T12:48:35.000Z</time>
      </trkpt>
      <trkpt lat="45.57449" lon="6.57542">
        <ele>2160.8000488281</ele>
        <time>2014-01-31T12:48:36.000Z</time>
      </trkpt>
      <trkpt lat="45.5745" lon="6.57542">
        <ele>2161.1999511719</ele>
        <time>2014-01-31T12:48:37.000Z</time>
      </trkpt>
      <trkpt lat="45.57451" lon="6.57542">
        <ele>2161.3999023438</ele>
        <time>2014-01-31T12:48:38.000Z</time>
      </trkpt>
      <trkpt lat="45.57452" lon="6.57542">
        <ele>2161.3999023438</ele>
        <time>2014-01-31T12:48:39.000Z</time>
      </trkpt>
      <trkpt lat="45.57453" lon="6.57542">
        <ele>2161.6000976562</ele>
        <time>2014-01-31T12:48:40.000Z</time>
      </trkpt>
      <trkpt lat="45.57453" lon="6.57542">
        <ele>2161.6000976562</ele>
        <time>2014-01-31T12:48:41.000Z</time>
      </trkpt>
      <trkpt lat="45.57454" lon="6.57541">
        <ele>2161.8000488281</ele>
        <time>2014-01-31T12:48:42.000Z</time>
      </trkpt>
      <trkpt lat="45.57455" lon="6.5754">
        <ele>2162</ele>
        <time>2014-01-31T12:48:43.000Z</time>
      </trkpt>
      <trkpt lat="45.57456" lon="6.5754">
        <ele>2162.1999511719</ele>
        <time>2014-01-31T12:48:44.000Z</time>
      </trkpt>
      <trkpt lat="45.57457" lon="6.5754">
        <ele>2162.3999023438</ele>
        <time>2014-01-31T12:48:45.000Z</time>
      </trkpt>
      <trkpt lat="45.57458" lon="6.5754">
        <ele>2162.6000976562</ele>
        <time>2014-01-31T12:48:46.000Z</time>
      </trkpt>
      <trkpt lat="45.57459" lon="6.57539">
        <ele>2162.6000976562</ele>
        <time>2014-01-31T12:48:47.000Z</time>
      </trkpt>
      <trkpt lat="45.5746" lon="6.57539">
        <ele>2162.8000488281</ele>
        <time>2014-01-31T12:48:48.000Z</time>
      </trkpt>
      <trkpt lat="45.57461" lon="6.57539">
        <ele>2163</ele>
        <time>2014-01-31T12:48:49.000Z</time>
      </trkpt>
      <trkpt lat="45.57462" lon="6.57538">
        <ele>2163.1999511719</ele>
        <time>2014-01-31T12:48:50.000Z</time>
      </trkpt>
      <trkpt lat="45.57462" lon="6.57538">
        <ele>2163.1999511719</ele>
        <time>2014-01-31T12:48:51.000Z</time>
      </trkpt>
      <trkpt lat="45.57462" lon="6.57537">
        <ele>2163.3999023438</ele>
        <time>2014-01-31T12:48:52.000Z</time>
      </trkpt>
      <trkpt lat="45.57464" lon="6.57537">
        <ele>2163.6000976562</ele>
        <time>2014-01-31T12:48:53.000Z</time>
      </trkpt>
      <trkpt lat="45.57464" lon="6.57537">
        <ele>2163.8000488281</ele>
        <time>2014-01-31T12:48:54.000Z</time>
      </trkpt>
      <trkpt lat="45.57465" lon="6.57536">
        <ele>2163.8000488281</ele>
        <time>2014-01-31T12:48:55.000Z</time>
      </trkpt>
      <trkpt lat="45.57466" lon="6.57536">
        <ele>2164</ele>
        <time>2014-01-31T12:48:56.000Z</time>
      </trkpt>
      <trkpt lat="45.57467" lon="6.57536">
        <ele>2164.1999511719</ele>
        <time>2014-01-31T12:48:57.000Z</time>
      </trkpt>
      <trkpt lat="45.57468" lon="6.57535">
        <ele>2164.1999511719</ele>
        <time>2014-01-31T12:48:58.000Z</time>
      </trkpt>
      <trkpt lat="45.57468" lon="6.57535">
        <ele>2164.3999023438</ele>
        <time>2014-01-31T12:48:59.000Z</time>
      </trkpt>
      <trkpt lat="45.57469" lon="6.57535">
        <ele>2164.3999023438</ele>
        <time>2014-01-31T12:49:00.000Z</time>
      </trkpt>
      <trkpt lat="45.5747" lon="6.57535">
        <ele>2164.6000976562</ele>
        <time>2014-01-31T12:49:01.000Z</time>
      </trkpt>
      <trkpt lat="45.57471" lon="6.57535">
        <ele>2164.6000976562</ele>
        <time>2014-01-31T12:49:02.000Z</time>
      </trkpt>
      <trkpt lat="45.57471" lon="6.57535">
        <ele>2164.8000488281</ele>
        <time>2014-01-31T12:49:03.000Z</time>
      </trkpt>
      <trkpt lat="45.57472" lon="6.57534">
        <ele>2165</ele>
        <time>2014-01-31T12:49:04.000Z</time>
      </trkpt>
      <trkpt lat="45.57473" lon="6.57534">
        <ele>2165.3999023438</ele>
        <time>2014-01-31T12:49:05.000Z</time>
      </trkpt>
      <trkpt lat="45.57473" lon="6.57533">
        <ele>2165.6000976562</ele>
        <time>2014-01-31T12:49:06.000Z</time>
      </trkpt>
      <trkpt lat="45.57475" lon="6.57533">
        <ele>2165.8000488281</ele>
        <time>2014-01-31T12:49:07.000Z</time>
      </trkpt>
      <trkpt lat="45.57476" lon="6.57533">
        <ele>2166</ele>
        <time>2014-01-31T12:49:08.000Z</time>
      </trkpt>
      <trkpt lat="45.57476" lon="6.57533">
        <ele>2166.1999511719</ele>
        <time>2014-01-31T12:49:09.000Z</time>
      </trkpt>
      <trkpt lat="45.57478" lon="6.57533">
        <ele>2166.1999511719</ele>
        <time>2014-01-31T12:49:10.000Z</time>
      </trkpt>
      <trkpt lat="45.57478" lon="6.57532">
        <ele>2166.3999023438</ele>
        <time>2014-01-31T12:49:11.000Z</time>
      </trkpt>
      <trkpt lat="45.57479" lon="6.57532">
        <ele>2166.3999023438</ele>
        <time>2014-01-31T12:49:12.000Z</time>
      </trkpt>
      <trkpt lat="45.57479" lon="6.57531">
        <ele>2166.6000976562</ele>
        <time>2014-01-31T12:49:13.000Z</time>
      </trkpt>
      <trkpt lat="45.5748" lon="6.57531">
        <ele>2166.6000976562</ele>
        <time>2014-01-31T12:49:14.000Z</time>
      </trkpt>
      <trkpt lat="45.57481" lon="6.5753">
        <ele>2166.6000976562</ele>
        <time>2014-01-31T12:49:15.000Z</time>
      </trkpt>
      <trkpt lat="45.57482" lon="6.5753">
        <ele>2166.8000488281</ele>
        <time>2014-01-31T12:49:16.000Z</time>
      </trkpt>
      <trkpt lat="45.57483" lon="6.5753">
        <ele>2167</ele>
        <time>2014-01-31T12:49:17.000Z</time>
      </trkpt>
      <trkpt lat="45.57484" lon="6.5753">
        <ele>2167</ele>
        <time>2014-01-31T12:49:18.000Z</time>
      </trkpt>
      <trkpt lat="45.57485" lon="6.5753">
        <ele>2167.1999511719</ele>
        <time>2014-01-31T12:49:19.000Z</time>
      </trkpt>
      <trkpt lat="45.57486" lon="6.57529">
        <ele>2167.3999023438</ele>
        <time>2014-01-31T12:49:20.000Z</time>
      </trkpt>
      <trkpt lat="45.57488" lon="6.57529">
        <ele>2167.6000976562</ele>
        <time>2014-01-31T12:49:21.000Z</time>
      </trkpt>
      <trkpt lat="45.57489" lon="6.57528">
        <ele>2167.6000976562</ele>
        <time>2014-01-31T12:49:22.000Z</time>
      </trkpt>
      <trkpt lat="45.57489" lon="6.57527">
        <ele>2167.8000488281</ele>
        <time>2014-01-31T12:49:23.000Z</time>
      </trkpt>
      <trkpt lat="45.57491" lon="6.57526">
        <ele>2168</ele>
        <time>2014-01-31T12:49:24.000Z</time>
      </trkpt>
      <trkpt lat="45.57492" lon="6.57525">
        <ele>2168.1999511719</ele>
        <time>2014-01-31T12:49:25.000Z</time>
      </trkpt>
      <trkpt lat="45.57492" lon="6.57525">
        <ele>2168.1999511719</ele>
        <time>2014-01-31T12:49:26.000Z</time>
      </trkpt>
      <trkpt lat="45.57493" lon="6.57524">
        <ele>2168.3999023438</ele>
        <time>2014-01-31T12:49:27.000Z</time>
      </trkpt>
      <trkpt lat="45.57494" lon="6.57524">
        <ele>2168.6000976562</ele>
        <time>2014-01-31T12:49:28.000Z</time>
      </trkpt>
      <trkpt lat="45.57494" lon="6.57524">
        <ele>2168.6000976562</ele>
        <time>2014-01-31T12:49:29.000Z</time>
      </trkpt>
      <trkpt lat="45.57494" lon="6.57524">
        <ele>2168.8000488281</ele>
        <time>2014-01-31T12:49:30.000Z</time>
      </trkpt>
      <trkpt lat="45.57494" lon="6.57524">
        <ele>2168.8000488281</ele>
        <time>2014-01-31T12:49:31.000Z</time>
      </trkpt>
      <trkpt lat="45.57494" lon="6.57524">
        <ele>2169</ele>
        <time>2014-01-31T12:49:32.000Z</time>
      </trkpt>
      <trkpt lat="45.57494" lon="6.57524">
        <ele>2169</ele>
        <time>2014-01-31T12:49:33.000Z</time>
      </trkpt>
      <trkpt lat="45.57494" lon="6.57524">
        <ele>2169</ele>
        <time>2014-01-31T12:49:34.000Z</time>
      </trkpt>
      <trkpt lat="45.57494" lon="6.57524">
        <ele>2169</ele>
        <time>2014-01-31T12:49:35.000Z</time>
      </trkpt>
      <trkpt lat="45.57494" lon="6.57524">
        <ele>2169</ele>
        <time>2014-01-31T12:49:36.000Z</time>
      </trkpt>
      <trkpt lat="45.57494" lon="6.57524">
        <ele>2169</ele>
        <time>2014-01-31T12:49:37.000Z</time>
      </trkpt>
      <trkpt lat="45.57494" lon="6.57524">
        <ele>2169</ele>
        <time>2014-01-31T12:49:38.000Z</time>
      </trkpt>
      <trkpt lat="45.57494" lon="6.57524">
        <ele>2169.1999511719</ele>
        <time>2014-01-31T12:49:39.000Z</time>
      </trkpt>
      <trkpt lat="45.57494" lon="6.57524">
        <ele>2169.1999511719</ele>
        <time>2014-01-31T12:49:40.000Z</time>
      </trkpt>
      <trkpt lat="45.57494" lon="6.57524">
        <ele>2169.1999511719</ele>
        <time>2014-01-31T12:49:41.000Z</time>
      </trkpt>
      <trkpt lat="45.57494" lon="6.57524">
        <ele>2169.1999511719</ele>
        <time>2014-01-31T12:49:42.000Z</time>
      </trkpt>
      <trkpt lat="45.57494" lon="6.57524">
        <ele>2169.1999511719</ele>
        <time>2014-01-31T12:49:43.000Z</time>
      </trkpt>
      <trkpt lat="45.57494" lon="6.57524">
        <ele>2169.1999511719</ele>
        <time>2014-01-31T12:49:44.000Z</time>
      </trkpt>
      <trkpt lat="45.57494" lon="6.57524">
        <ele>2169.1999511719</ele>
        <time>2014-01-31T12:49:47.000Z</time>
      </trkpt>
      <trkpt lat="45.57494" lon="6.57524">
        <ele>2169.1999511719</ele>
        <time>2014-01-31T12:49:48.000Z</time>
      </trkpt>
      <trkpt lat="45.57494" lon="6.57524">
        <ele>2169.1999511719</ele>
        <time>2014-01-31T12:49:50.000Z</time>
      </trkpt>
      <trkpt lat="45.57494" lon="6.57524">
        <ele>2169.1999511719</ele>
        <time>2014-01-31T12:49:51.000Z</time>
      </trkpt>
      <trkpt lat="45.57494" lon="6.57524">
        <ele>2169.1999511719</ele>
        <time>2014-01-31T12:49:52.000Z</time>
      </trkpt>
      <trkpt lat="45.57494" lon="6.57524">
        <ele>2169.1999511719</ele>
        <time>2014-01-31T12:49:55.000Z</time>
      </trkpt>
      <trkpt lat="45.57494" lon="6.57524">
        <ele>2169.1999511719</ele>
        <time>2014-01-31T12:49:59.000Z</time>
      </trkpt>
      <trkpt lat="45.57494" lon="6.57524">
        <ele>2169.1999511719</ele>
        <time>2014-01-31T12:50:00.000Z</time>
      </trkpt>
      <trkpt lat="45.57494" lon="6.57524">
        <ele>2169.1999511719</ele>
        <time>2014-01-31T12:50:01.000Z</time>
      </trkpt>
      <trkpt lat="45.57494" lon="6.57524">
        <ele>2169.1999511719</ele>
        <time>2014-01-31T12:50:05.000Z</time>
      </trkpt>
      <trkpt lat="45.57494" lon="6.57523">
        <ele>2169.1999511719</ele>
        <time>2014-01-31T12:50:06.000Z</time>
      </trkpt>
      <trkpt lat="45.57496" lon="6.57521">
        <ele>2169.1999511719</ele>
        <time>2014-01-31T12:50:08.000Z</time>
      </trkpt>
      <trkpt lat="45.57497" lon="6.5752">
        <ele>2169.1999511719</ele>
        <time>2014-01-31T12:50:09.000Z</time>
      </trkpt>
      <trkpt lat="45.57497" lon="6.57519">
        <ele>2169.3999023438</ele>
        <time>2014-01-31T12:50:10.000Z</time>
      </trkpt>
      <trkpt lat="45.57498" lon="6.57518">
        <ele>2169.3999023438</ele>
        <time>2014-01-31T12:50:11.000Z</time>
      </trkpt>
      <trkpt lat="45.57499" lon="6.57517">
        <ele>2169.8000488281</ele>
        <time>2014-01-31T12:50:12.000Z</time>
      </trkpt>
      <trkpt lat="45.575" lon="6.57515">
        <ele>2169.8000488281</ele>
        <time>2014-01-31T12:50:13.000Z</time>
      </trkpt>
      <trkpt lat="45.57502" lon="6.57512">
        <ele>2169.8000488281</ele>
        <time>2014-01-31T12:50:15.000Z</time>
      </trkpt>
      <trkpt lat="45.57503" lon="6.57511">
        <ele>2170</ele>
        <time>2014-01-31T12:50:16.000Z</time>
      </trkpt>
      <trkpt lat="45.57504" lon="6.5751">
        <ele>2170</ele>
        <time>2014-01-31T12:50:17.000Z</time>
      </trkpt>
      <trkpt lat="45.57504" lon="6.57508">
        <ele>2169.8000488281</ele>
        <time>2014-01-31T12:50:18.000Z</time>
      </trkpt>
      <trkpt lat="45.57506" lon="6.57506">
        <ele>2169.6000976562</ele>
        <time>2014-01-31T12:50:19.000Z</time>
      </trkpt>
      <trkpt lat="45.57507" lon="6.57505">
        <ele>2169.8000488281</ele>
        <time>2014-01-31T12:50:20.000Z</time>
      </trkpt>
      <trkpt lat="45.57508" lon="6.57504">
        <ele>2170</ele>
        <time>2014-01-31T12:50:21.000Z</time>
      </trkpt>
      <trkpt lat="45.57509" lon="6.57503">
        <ele>2170.1999511719</ele>
        <time>2014-01-31T12:50:22.000Z</time>
      </trkpt>
      <trkpt lat="45.5751" lon="6.57501">
        <ele>2170.3999023438</ele>
        <time>2014-01-31T12:50:23.000Z</time>
      </trkpt>
      <trkpt lat="45.57511" lon="6.575">
        <ele>2170.3999023438</ele>
        <time>2014-01-31T12:50:24.000Z</time>
      </trkpt>
      <trkpt lat="45.57512" lon="6.575">
        <ele>2170.6000976562</ele>
        <time>2014-01-31T12:50:25.000Z</time>
      </trkpt>
      <trkpt lat="45.57514" lon="6.57499">
        <ele>2170.8000488281</ele>
        <time>2014-01-31T12:50:26.000Z</time>
      </trkpt>
      <trkpt lat="45.57515" lon="6.57497">
        <ele>2170.8000488281</ele>
        <time>2014-01-31T12:50:27.000Z</time>
      </trkpt>
      <trkpt lat="45.57516" lon="6.57496">
        <ele>2170.8000488281</ele>
        <time>2014-01-31T12:50:28.000Z</time>
      </trkpt>
      <trkpt lat="45.57517" lon="6.57494">
        <ele>2170.8000488281</ele>
        <time>2014-01-31T12:50:29.000Z</time>
      </trkpt>
      <trkpt lat="45.57517" lon="6.57493">
        <ele>2170.8000488281</ele>
        <time>2014-01-31T12:50:30.000Z</time>
      </trkpt>
      <trkpt lat="45.57518" lon="6.57492">
        <ele>2171</ele>
        <time>2014-01-31T12:50:31.000Z</time>
      </trkpt>
      <trkpt lat="45.57519" lon="6.57491">
        <ele>2171</ele>
        <time>2014-01-31T12:50:32.000Z</time>
      </trkpt>
      <trkpt lat="45.5752" lon="6.5749">
        <ele>2171.1999511719</ele>
        <time>2014-01-31T12:50:33.000Z</time>
      </trkpt>
      <trkpt lat="45.57522" lon="6.57489">
        <ele>2171.3999023438</ele>
        <time>2014-01-31T12:50:34.000Z</time>
      </trkpt>
      <trkpt lat="45.57523" lon="6.57488">
        <ele>2171.6000976562</ele>
        <time>2014-01-31T12:50:35.000Z</time>
      </trkpt>
      <trkpt lat="45.57524" lon="6.57486">
        <ele>2171.8000488281</ele>
        <time>2014-01-31T12:50:36.000Z</time>
      </trkpt>
      <trkpt lat="45.57526" lon="6.57486">
        <ele>2171.8000488281</ele>
        <time>2014-01-31T12:50:37.000Z</time>
      </trkpt>
      <trkpt lat="45.57526" lon="6.57485">
        <ele>2171.8000488281</ele>
        <time>2014-01-31T12:50:38.000Z</time>
      </trkpt>
      <trkpt lat="45.57527" lon="6.57484">
        <ele>2171.6000976562</ele>
        <time>2014-01-31T12:50:39.000Z</time>
      </trkpt>
      <trkpt lat="45.57528" lon="6.57484">
        <ele>2171.6000976562</ele>
        <time>2014-01-31T12:50:40.000Z</time>
      </trkpt>
      <trkpt lat="45.57528" lon="6.57483">
        <ele>2171.6000976562</ele>
        <time>2014-01-31T12:50:41.000Z</time>
      </trkpt>
      <trkpt lat="45.57529" lon="6.57482">
        <ele>2171.6000976562</ele>
        <time>2014-01-31T12:50:42.000Z</time>
      </trkpt>
      <trkpt lat="45.57529" lon="6.57482">
        <ele>2171.8000488281</ele>
        <time>2014-01-31T12:50:43.000Z</time>
      </trkpt>
      <trkpt lat="45.5753" lon="6.57481">
        <ele>2172.1999511719</ele>
        <time>2014-01-31T12:50:44.000Z</time>
      </trkpt>
      <trkpt lat="45.5753" lon="6.57481">
        <ele>2172.3999023438</ele>
        <time>2014-01-31T12:50:45.000Z</time>
      </trkpt>
      <trkpt lat="45.5753" lon="6.57481">
        <ele>2172.8000488281</ele>
        <time>2014-01-31T12:50:46.000Z</time>
      </trkpt>
      <trkpt lat="45.5753" lon="6.57481">
        <ele>2173</ele>
        <time>2014-01-31T12:50:47.000Z</time>
      </trkpt>
      <trkpt lat="45.5753" lon="6.57481">
        <ele>2173.1999511719</ele>
        <time>2014-01-31T12:50:48.000Z</time>
      </trkpt>
      <trkpt lat="45.5753" lon="6.57481">
        <ele>2173.3999023438</ele>
        <time>2014-01-31T12:50:49.000Z</time>
      </trkpt>
      <trkpt lat="45.5753" lon="6.57481">
        <ele>2173.3999023438</ele>
        <time>2014-01-31T12:50:50.000Z</time>
      </trkpt>
      <trkpt lat="45.5753" lon="6.57481">
        <ele>2173.3999023438</ele>
        <time>2014-01-31T12:50:51.000Z</time>
      </trkpt>
      <trkpt lat="45.5753" lon="6.57481">
        <ele>2173.3999023438</ele>
        <time>2014-01-31T12:50:53.000Z</time>
      </trkpt>
      <trkpt lat="45.5753" lon="6.57481">
        <ele>2173.3999023438</ele>
        <time>2014-01-31T12:50:54.000Z</time>
      </trkpt>
      <trkpt lat="45.5753" lon="6.57481">
        <ele>2173.1999511719</ele>
        <time>2014-01-31T12:50:55.000Z</time>
      </trkpt>
      <trkpt lat="45.5753" lon="6.57481">
        <ele>2173.1999511719</ele>
        <time>2014-01-31T12:50:56.000Z</time>
      </trkpt>
      <trkpt lat="45.5753" lon="6.57481">
        <ele>2173.1999511719</ele>
        <time>2014-01-31T12:50:57.000Z</time>
      </trkpt>
      <trkpt lat="45.5753" lon="6.57481">
        <ele>2173.1999511719</ele>
        <time>2014-01-31T12:50:58.000Z</time>
      </trkpt>
      <trkpt lat="45.5753" lon="6.57481">
        <ele>2173.1999511719</ele>
        <time>2014-01-31T12:50:59.000Z</time>
      </trkpt>
      <trkpt lat="45.5753" lon="6.57481">
        <ele>2173.1999511719</ele>
        <time>2014-01-31T12:51:00.000Z</time>
      </trkpt>
      <trkpt lat="45.5753" lon="6.57481">
        <ele>2173.1999511719</ele>
        <time>2014-01-31T12:51:04.000Z</time>
      </trkpt>
      <trkpt lat="45.5753" lon="6.57481">
        <ele>2173.1999511719</ele>
        <time>2014-01-31T12:51:05.000Z</time>
      </trkpt>
      <trkpt lat="45.5753" lon="6.57481">
        <ele>2173.1999511719</ele>
        <time>2014-01-31T12:51:06.000Z</time>
      </trkpt>
      <trkpt lat="45.5753" lon="6.57481">
        <ele>2173.1999511719</ele>
        <time>2014-01-31T12:51:07.000Z</time>
      </trkpt>
      <trkpt lat="45.5753" lon="6.57481">
        <ele>2173.1999511719</ele>
        <time>2014-01-31T12:51:10.000Z</time>
      </trkpt>
      <trkpt lat="45.5753" lon="6.57481">
        <ele>2173.1999511719</ele>
        <time>2014-01-31T12:51:15.000Z</time>
      </trkpt>
      <trkpt lat="45.5753" lon="6.57481">
        <ele>2173.1999511719</ele>
        <time>2014-01-31T12:51:16.000Z</time>
      </trkpt>
      <trkpt lat="45.5753" lon="6.57481">
        <ele>2173.1999511719</ele>
        <time>2014-01-31T12:51:17.000Z</time>
      </trkpt>
      <trkpt lat="45.5753" lon="6.57481">
        <ele>2173.1999511719</ele>
        <time>2014-01-31T12:51:18.000Z</time>
      </trkpt>
      <trkpt lat="45.5753" lon="6.57481">
        <ele>2173.1999511719</ele>
        <time>2014-01-31T12:51:19.000Z</time>
      </trkpt>
      <trkpt lat="45.5753" lon="6.57481">
        <ele>2173.1999511719</ele>
        <time>2014-01-31T12:51:20.000Z</time>
      </trkpt>
      <trkpt lat="45.5753" lon="6.57481">
        <ele>2173.1999511719</ele>
        <time>2014-01-31T12:51:21.000Z</time>
      </trkpt>
      <trkpt lat="45.5753" lon="6.57481">
        <ele>2173.1999511719</ele>
        <time>2014-01-31T12:51:22.000Z</time>
      </trkpt>
      <trkpt lat="45.5753" lon="6.57481">
        <ele>2173.1999511719</ele>
        <time>2014-01-31T12:51:23.000Z</time>
      </trkpt>
      <trkpt lat="45.5753" lon="6.57481">
        <ele>2173.1999511719</ele>
        <time>2014-01-31T12:51:24.000Z</time>
      </trkpt>
      <trkpt lat="45.5753" lon="6.57481">
        <ele>2173.1999511719</ele>
        <time>2014-01-31T12:51:25.000Z</time>
      </trkpt>
      <trkpt lat="45.5753" lon="6.57481">
        <ele>2173.1999511719</ele>
        <time>2014-01-31T12:51:26.000Z</time>
      </trkpt>
      <trkpt lat="45.5753" lon="6.57481">
        <ele>2173.1999511719</ele>
        <time>2014-01-31T12:51:27.000Z</time>
      </trkpt>
      <trkpt lat="45.5753" lon="6.57481">
        <ele>2173.1999511719</ele>
        <time>2014-01-31T12:51:28.000Z</time>
      </trkpt>
      <trkpt lat="45.5753" lon="6.57481">
        <ele>2173.1999511719</ele>
        <time>2014-01-31T12:51:29.000Z</time>
      </trkpt>
      <trkpt lat="45.5753" lon="6.57481">
        <ele>2173.1999511719</ele>
        <time>2014-01-31T12:51:30.000Z</time>
      </trkpt>
      <trkpt lat="45.5753" lon="6.57481">
        <ele>2173.1999511719</ele>
        <time>2014-01-31T12:51:33.000Z</time>
      </trkpt>
      <trkpt lat="45.5753" lon="6.57481">
        <ele>2173.1999511719</ele>
        <time>2014-01-31T12:51:34.000Z</time>
      </trkpt>
      <trkpt lat="45.5753" lon="6.57481">
        <ele>2173.1999511719</ele>
        <time>2014-01-31T12:51:35.000Z</time>
      </trkpt>
      <trkpt lat="45.5753" lon="6.57481">
        <ele>2173.1999511719</ele>
        <time>2014-01-31T12:51:36.000Z</time>
      </trkpt>
      <trkpt lat="45.5753" lon="6.57481">
        <ele>2173.1999511719</ele>
        <time>2014-01-31T12:51:37.000Z</time>
      </trkpt>
      <trkpt lat="45.5753" lon="6.57481">
        <ele>2173.1999511719</ele>
        <time>2014-01-31T12:51:38.000Z</time>
      </trkpt>
      <trkpt lat="45.5753" lon="6.57481">
        <ele>2173.1999511719</ele>
        <time>2014-01-31T12:51:39.000Z</time>
      </trkpt>
      <trkpt lat="45.5753" lon="6.57481">
        <ele>2173.1999511719</ele>
        <time>2014-01-31T12:51:40.000Z</time>
      </trkpt>
      <trkpt lat="45.5753" lon="6.57481">
        <ele>2173.1999511719</ele>
        <time>2014-01-31T12:51:41.000Z</time>
      </trkpt>
      <trkpt lat="45.5753" lon="6.57481">
        <ele>2173.1999511719</ele>
        <time>2014-01-31T12:51:42.000Z</time>
      </trkpt>
      <trkpt lat="45.5753" lon="6.57481">
        <ele>2173.1999511719</ele>
        <time>2014-01-31T12:51:44.000Z</time>
      </trkpt>
      <trkpt lat="45.5753" lon="6.57481">
        <ele>2173.1999511719</ele>
        <time>2014-01-31T12:51:45.000Z</time>
      </trkpt>
      <trkpt lat="45.5753" lon="6.57481">
        <ele>2173.1999511719</ele>
        <time>2014-01-31T12:51:46.000Z</time>
      </trkpt>
      <trkpt lat="45.5753" lon="6.57481">
        <ele>2173.1999511719</ele>
        <time>2014-01-31T12:51:47.000Z</time>
      </trkpt>
      <trkpt lat="45.5753" lon="6.57481">
        <ele>2173.1999511719</ele>
        <time>2014-01-31T12:51:48.000Z</time>
      </trkpt>
      <trkpt lat="45.5753" lon="6.57481">
        <ele>2173.1999511719</ele>
        <time>2014-01-31T12:51:49.000Z</time>
      </trkpt>
      <trkpt lat="45.5753" lon="6.57481">
        <ele>2173.1999511719</ele>
        <time>2014-01-31T12:51:50.000Z</time>
      </trkpt>
      <trkpt lat="45.5753" lon="6.57481">
        <ele>2173.1999511719</ele>
        <time>2014-01-31T12:51:51.000Z</time>
      </trkpt>
      <trkpt lat="45.5753" lon="6.57481">
        <ele>2173.1999511719</ele>
        <time>2014-01-31T12:51:52.000Z</time>
      </trkpt>
      <trkpt lat="45.5753" lon="6.57481">
        <ele>2173</ele>
        <time>2014-01-31T12:51:53.000Z</time>
      </trkpt>
      <trkpt lat="45.5753" lon="6.57481">
        <ele>2173</ele>
        <time>2014-01-31T12:51:54.000Z</time>
      </trkpt>
      <trkpt lat="45.57529" lon="6.57481">
        <ele>2173</ele>
        <time>2014-01-31T12:51:55.000Z</time>
      </trkpt>
      <trkpt lat="45.57529" lon="6.57481">
        <ele>2173</ele>
        <time>2014-01-31T12:51:56.000Z</time>
      </trkpt>
      <trkpt lat="45.57529" lon="6.57481">
        <ele>2173</ele>
        <time>2014-01-31T12:51:57.000Z</time>
      </trkpt>
      <trkpt lat="45.57529" lon="6.57481">
        <ele>2173</ele>
        <time>2014-01-31T12:51:58.000Z</time>
      </trkpt>
      <trkpt lat="45.57529" lon="6.57481">
        <ele>2173</ele>
        <time>2014-01-31T12:51:59.000Z</time>
      </trkpt>
      <trkpt lat="45.57529" lon="6.57481">
        <ele>2173</ele>
        <time>2014-01-31T12:52:00.000Z</time>
      </trkpt>
      <trkpt lat="45.57529" lon="6.57481">
        <ele>2173</ele>
        <time>2014-01-31T12:52:01.000Z</time>
      </trkpt>
      <trkpt lat="45.57529" lon="6.57481">
        <ele>2173</ele>
        <time>2014-01-31T12:52:02.000Z</time>
      </trkpt>
      <trkpt lat="45.57529" lon="6.57481">
        <ele>2173</ele>
        <time>2014-01-31T12:52:03.000Z</time>
      </trkpt>
      <trkpt lat="45.57529" lon="6.57481">
        <ele>2173</ele>
        <time>2014-01-31T12:52:04.000Z</time>
      </trkpt>
      <trkpt lat="45.57529" lon="6.57481">
        <ele>2173</ele>
        <time>2014-01-31T12:52:05.000Z</time>
      </trkpt>
      <trkpt lat="45.57529" lon="6.57481">
        <ele>2173</ele>
        <time>2014-01-31T12:52:06.000Z</time>
      </trkpt>
      <trkpt lat="45.57529" lon="6.57481">
        <ele>2173</ele>
        <time>2014-01-31T12:52:07.000Z</time>
      </trkpt>
      <trkpt lat="45.57529" lon="6.57481">
        <ele>2173</ele>
        <time>2014-01-31T12:52:08.000Z</time>
      </trkpt>
      <trkpt lat="45.57529" lon="6.57481">
        <ele>2173</ele>
        <time>2014-01-31T12:52:09.000Z</time>
      </trkpt>
      <trkpt lat="45.57529" lon="6.57481">
        <ele>2173</ele>
        <time>2014-01-31T12:52:10.000Z</time>
      </trkpt>
      <trkpt lat="45.57529" lon="6.57481">
        <ele>2173</ele>
        <time>2014-01-31T12:52:11.000Z</time>
      </trkpt>
      <trkpt lat="45.57529" lon="6.57481">
        <ele>2173</ele>
        <time>2014-01-31T12:52:12.000Z</time>
      </trkpt>
      <trkpt lat="45.57529" lon="6.57481">
        <ele>2173</ele>
        <time>2014-01-31T12:52:13.000Z</time>
      </trkpt>
      <trkpt lat="45.57529" lon="6.57481">
        <ele>2172.8000488281</ele>
        <time>2014-01-31T12:52:14.000Z</time>
      </trkpt>
      <trkpt lat="45.57529" lon="6.57481">
        <ele>2172.8000488281</ele>
        <time>2014-01-31T12:52:15.000Z</time>
      </trkpt>
      <trkpt lat="45.57529" lon="6.57481">
        <ele>2172.8000488281</ele>
        <time>2014-01-31T12:52:16.000Z</time>
      </trkpt>
      <trkpt lat="45.57529" lon="6.57481">
        <ele>2172.6000976562</ele>
        <time>2014-01-31T12:52:17.000Z</time>
      </trkpt>
      <trkpt lat="45.57529" lon="6.57481">
        <ele>2172.8000488281</ele>
        <time>2014-01-31T12:52:18.000Z</time>
      </trkpt>
      <trkpt lat="45.57529" lon="6.57481">
        <ele>2172.8000488281</ele>
        <time>2014-01-31T12:52:19.000Z</time>
      </trkpt>
      <trkpt lat="45.57529" lon="6.57481">
        <ele>2173</ele>
        <time>2014-01-31T12:52:20.000Z</time>
      </trkpt>
      <trkpt lat="45.57529" lon="6.57481">
        <ele>2173</ele>
        <time>2014-01-31T12:52:21.000Z</time>
      </trkpt>
      <trkpt lat="45.57529" lon="6.57481">
        <ele>2173.1999511719</ele>
        <time>2014-01-31T12:52:22.000Z</time>
      </trkpt>
      <trkpt lat="45.57529" lon="6.57481">
        <ele>2173.1999511719</ele>
        <time>2014-01-31T12:52:23.000Z</time>
      </trkpt>
      <trkpt lat="45.57529" lon="6.57481">
        <ele>2173.1999511719</ele>
        <time>2014-01-31T12:52:24.000Z</time>
      </trkpt>
      <trkpt lat="45.57529" lon="6.57481">
        <ele>2173.1999511719</ele>
        <time>2014-01-31T12:52:25.000Z</time>
      </trkpt>
      <trkpt lat="45.57529" lon="6.57481">
        <ele>2173.1999511719</ele>
        <time>2014-01-31T12:52:26.000Z</time>
      </trkpt>
      <trkpt lat="45.57529" lon="6.57481">
        <ele>2173.1999511719</ele>
        <time>2014-01-31T12:52:27.000Z</time>
      </trkpt>
      <trkpt lat="45.57529" lon="6.57481">
        <ele>2173</ele>
        <time>2014-01-31T12:52:28.000Z</time>
      </trkpt>
      <trkpt lat="45.57529" lon="6.57481">
        <ele>2173</ele>
        <time>2014-01-31T12:52:29.000Z</time>
      </trkpt>
      <trkpt lat="45.57529" lon="6.57481">
        <ele>2173</ele>
        <time>2014-01-31T12:52:30.000Z</time>
      </trkpt>
      <trkpt lat="45.57529" lon="6.57481">
        <ele>2173</ele>
        <time>2014-01-31T12:52:31.000Z</time>
      </trkpt>
      <trkpt lat="45.57529" lon="6.57481">
        <ele>2173</ele>
        <time>2014-01-31T12:52:32.000Z</time>
      </trkpt>
      <trkpt lat="45.57529" lon="6.57481">
        <ele>2173</ele>
        <time>2014-01-31T12:52:33.000Z</time>
      </trkpt>
      <trkpt lat="45.57529" lon="6.57481">
        <ele>2173</ele>
        <time>2014-01-31T12:52:34.000Z</time>
      </trkpt>
      <trkpt lat="45.57529" lon="6.57481">
        <ele>2173</ele>
        <time>2014-01-31T12:52:36.000Z</time>
      </trkpt>
      <trkpt lat="45.57529" lon="6.57481">
        <ele>2173</ele>
        <time>2014-01-31T12:52:37.000Z</time>
      </trkpt>
      <trkpt lat="45.57529" lon="6.57481">
        <ele>2173</ele>
        <time>2014-01-31T12:52:41.000Z</time>
      </trkpt>
      <trkpt lat="45.57529" lon="6.57481">
        <ele>2172.8000488281</ele>
        <time>2014-01-31T12:52:42.000Z</time>
      </trkpt>
      <trkpt lat="45.57529" lon="6.57481">
        <ele>2172.8000488281</ele>
        <time>2014-01-31T12:52:43.000Z</time>
      </trkpt>
      <trkpt lat="45.57529" lon="6.57481">
        <ele>2172.8000488281</ele>
        <time>2014-01-31T12:52:44.000Z</time>
      </trkpt>
      <trkpt lat="45.57529" lon="6.57481">
        <ele>2172.8000488281</ele>
        <time>2014-01-31T12:52:46.000Z</time>
      </trkpt>
      <trkpt lat="45.57529" lon="6.57481">
        <ele>2173</ele>
        <time>2014-01-31T12:52:47.000Z</time>
      </trkpt>
      <trkpt lat="45.57529" lon="6.57481">
        <ele>2173</ele>
        <time>2014-01-31T12:52:48.000Z</time>
      </trkpt>
      <trkpt lat="45.57529" lon="6.57481">
        <ele>2173</ele>
        <time>2014-01-31T12:52:49.000Z</time>
      </trkpt>
      <trkpt lat="45.57529" lon="6.57481">
        <ele>2173</ele>
        <time>2014-01-31T12:52:50.000Z</time>
      </trkpt>
      <trkpt lat="45.57529" lon="6.57481">
        <ele>2173</ele>
        <time>2014-01-31T12:52:53.000Z</time>
      </trkpt>
      <trkpt lat="45.57529" lon="6.57481">
        <ele>2173</ele>
        <time>2014-01-31T12:52:54.000Z</time>
      </trkpt>
      <trkpt lat="45.57529" lon="6.57481">
        <ele>2173</ele>
        <time>2014-01-31T12:52:55.000Z</time>
      </trkpt>
      <trkpt lat="45.57529" lon="6.57481">
        <ele>2173</ele>
        <time>2014-01-31T12:52:56.000Z</time>
      </trkpt>
      <trkpt lat="45.57529" lon="6.57481">
        <ele>2173</ele>
        <time>2014-01-31T12:52:57.000Z</time>
      </trkpt>
      <trkpt lat="45.57529" lon="6.57481">
        <ele>2173</ele>
        <time>2014-01-31T12:52:58.000Z</time>
      </trkpt>
      <trkpt lat="45.57529" lon="6.57481">
        <ele>2173</ele>
        <time>2014-01-31T12:52:59.000Z</time>
      </trkpt>
      <trkpt lat="45.57529" lon="6.57481">
        <ele>2173</ele>
        <time>2014-01-31T12:53:00.000Z</time>
      </trkpt>
      <trkpt lat="45.57529" lon="6.57481">
        <ele>2173</ele>
        <time>2014-01-31T12:53:01.000Z</time>
      </trkpt>
      <trkpt lat="45.57529" lon="6.57481">
        <ele>2173</ele>
        <time>2014-01-31T12:53:04.000Z</time>
      </trkpt>
      <trkpt lat="45.57529" lon="6.57481">
        <ele>2173</ele>
        <time>2014-01-31T12:53:05.000Z</time>
      </trkpt>
      <trkpt lat="45.57529" lon="6.57481">
        <ele>2173</ele>
        <time>2014-01-31T12:53:06.000Z</time>
      </trkpt>
      <trkpt lat="45.57529" lon="6.57481">
        <ele>2173</ele>
        <time>2014-01-31T12:53:07.000Z</time>
      </trkpt>
      <trkpt lat="45.57529" lon="6.57481">
        <ele>2173</ele>
        <time>2014-01-31T12:53:08.000Z</time>
      </trkpt>
      <trkpt lat="45.57529" lon="6.57481">
        <ele>2173</ele>
        <time>2014-01-31T12:53:09.000Z</time>
      </trkpt>
      <trkpt lat="45.57529" lon="6.57481">
        <ele>2173</ele>
        <time>2014-01-31T12:53:10.000Z</time>
      </trkpt>
      <trkpt lat="45.57529" lon="6.57481">
        <ele>2173</ele>
        <time>2014-01-31T12:53:11.000Z</time>
      </trkpt>
      <trkpt lat="45.57529" lon="6.57481">
        <ele>2173</ele>
        <time>2014-01-31T12:53:12.000Z</time>
      </trkpt>
      <trkpt lat="45.57529" lon="6.57481">
        <ele>2173</ele>
        <time>2014-01-31T12:53:13.000Z</time>
      </trkpt>
      <trkpt lat="45.57529" lon="6.57481">
        <ele>2173</ele>
        <time>2014-01-31T12:53:14.000Z</time>
      </trkpt>
      <trkpt lat="45.57529" lon="6.57481">
        <ele>2173</ele>
        <time>2014-01-31T12:53:15.000Z</time>
      </trkpt>
      <trkpt lat="45.57529" lon="6.57481">
        <ele>2173</ele>
        <time>2014-01-31T12:53:16.000Z</time>
      </trkpt>
      <trkpt lat="45.57529" lon="6.57481">
        <ele>2173</ele>
        <time>2014-01-31T12:53:17.000Z</time>
      </trkpt>
      <trkpt lat="45.57529" lon="6.57481">
        <ele>2173</ele>
        <time>2014-01-31T12:53:18.000Z</time>
      </trkpt>
      <trkpt lat="45.57529" lon="6.57481">
        <ele>2173</ele>
        <time>2014-01-31T12:53:19.000Z</time>
      </trkpt>
      <trkpt lat="45.57529" lon="6.57481">
        <ele>2173</ele>
        <time>2014-01-31T12:53:24.000Z</time>
      </trkpt>
      <trkpt lat="45.57529" lon="6.57481">
        <ele>2173</ele>
        <time>2014-01-31T12:53:25.000Z</time>
      </trkpt>
      <trkpt lat="45.57529" lon="6.57481">
        <ele>2173</ele>
        <time>2014-01-31T12:53:26.000Z</time>
      </trkpt>
      <trkpt lat="45.57529" lon="6.57481">
        <ele>2172.8000488281</ele>
        <time>2014-01-31T12:53:27.000Z</time>
      </trkpt>
      <trkpt lat="45.57529" lon="6.57481">
        <ele>2172.8000488281</ele>
        <time>2014-01-31T12:53:28.000Z</time>
      </trkpt>
      <trkpt lat="45.57529" lon="6.57481">
        <ele>2172.8000488281</ele>
        <time>2014-01-31T12:53:29.000Z</time>
      </trkpt>
      <trkpt lat="45.57529" lon="6.57481">
        <ele>2172.8000488281</ele>
        <time>2014-01-31T12:53:30.000Z</time>
      </trkpt>
      <trkpt lat="45.57529" lon="6.57481">
        <ele>2172.8000488281</ele>
        <time>2014-01-31T12:53:32.000Z</time>
      </trkpt>
      <trkpt lat="45.57529" lon="6.57481">
        <ele>2172.8000488281</ele>
        <time>2014-01-31T12:53:34.000Z</time>
      </trkpt>
      <trkpt lat="45.57529" lon="6.57481">
        <ele>2172.8000488281</ele>
        <time>2014-01-31T12:53:36.000Z</time>
      </trkpt>
      <trkpt lat="45.57529" lon="6.57481">
        <ele>2173</ele>
        <time>2014-01-31T12:53:37.000Z</time>
      </trkpt>
      <trkpt lat="45.57529" lon="6.57481">
        <ele>2173</ele>
        <time>2014-01-31T12:53:38.000Z</time>
      </trkpt>
      <trkpt lat="45.57529" lon="6.57481">
        <ele>2173</ele>
        <time>2014-01-31T12:53:39.000Z</time>
      </trkpt>
      <trkpt lat="45.57529" lon="6.57481">
        <ele>2173</ele>
        <time>2014-01-31T12:53:41.000Z</time>
      </trkpt>
      <trkpt lat="45.57529" lon="6.57481">
        <ele>2173</ele>
        <time>2014-01-31T12:53:44.000Z</time>
      </trkpt>
      <trkpt lat="45.57529" lon="6.57481">
        <ele>2173</ele>
        <time>2014-01-31T12:53:45.000Z</time>
      </trkpt>
      <trkpt lat="45.57529" lon="6.57481">
        <ele>2173</ele>
        <time>2014-01-31T12:53:46.000Z</time>
      </trkpt>
      <trkpt lat="45.57529" lon="6.57481">
        <ele>2173</ele>
        <time>2014-01-31T12:53:51.000Z</time>
      </trkpt>
      <trkpt lat="45.57529" lon="6.57481">
        <ele>2173</ele>
        <time>2014-01-31T12:53:57.000Z</time>
      </trkpt>
      <trkpt lat="45.57529" lon="6.57481">
        <ele>2173</ele>
        <time>2014-01-31T12:53:58.000Z</time>
      </trkpt>
      <trkpt lat="45.57529" lon="6.57481">
        <ele>2173</ele>
        <time>2014-01-31T12:53:59.000Z</time>
      </trkpt>
      <trkpt lat="45.57529" lon="6.57481">
        <ele>2173</ele>
        <time>2014-01-31T12:54:00.000Z</time>
      </trkpt>
      <trkpt lat="45.57529" lon="6.57481">
        <ele>2173</ele>
        <time>2014-01-31T12:54:01.000Z</time>
      </trkpt>
      <trkpt lat="45.57529" lon="6.57481">
        <ele>2173</ele>
        <time>2014-01-31T12:54:02.000Z</time>
      </trkpt>
      <trkpt lat="45.57529" lon="6.57481">
        <ele>2173</ele>
        <time>2014-01-31T12:54:03.000Z</time>
      </trkpt>
      <trkpt lat="45.57529" lon="6.57481">
        <ele>2173</ele>
        <time>2014-01-31T12:54:04.000Z</time>
      </trkpt>
      <trkpt lat="45.57529" lon="6.57481">
        <ele>2173</ele>
        <time>2014-01-31T12:54:07.000Z</time>
      </trkpt>
      <trkpt lat="45.57529" lon="6.57481">
        <ele>2173</ele>
        <time>2014-01-31T12:54:08.000Z</time>
      </trkpt>
      <trkpt lat="45.57529" lon="6.57481">
        <ele>2173</ele>
        <time>2014-01-31T12:54:09.000Z</time>
      </trkpt>
      <trkpt lat="45.57529" lon="6.57481">
        <ele>2173</ele>
        <time>2014-01-31T12:54:10.000Z</time>
      </trkpt>
      <trkpt lat="45.57529" lon="6.57481">
        <ele>2173</ele>
        <time>2014-01-31T12:54:11.000Z</time>
      </trkpt>
      <trkpt lat="45.57529" lon="6.57481">
        <ele>2173</ele>
        <time>2014-01-31T12:54:12.000Z</time>
      </trkpt>
      <trkpt lat="45.57529" lon="6.57481">
        <ele>2173</ele>
        <time>2014-01-31T12:54:13.000Z</time>
      </trkpt>
      <trkpt lat="45.57529" lon="6.57481">
        <ele>2173</ele>
        <time>2014-01-31T12:54:14.000Z</time>
      </trkpt>
      <trkpt lat="45.57529" lon="6.57481">
        <ele>2173</ele>
        <time>2014-01-31T12:54:16.000Z</time>
      </trkpt>
      <trkpt lat="45.57529" lon="6.57481">
        <ele>2173</ele>
        <time>2014-01-31T12:54:17.000Z</time>
      </trkpt>
      <trkpt lat="45.57529" lon="6.57481">
        <ele>2173</ele>
        <time>2014-01-31T12:54:19.000Z</time>
      </trkpt>
      <trkpt lat="45.57529" lon="6.57481">
        <ele>2173</ele>
        <time>2014-01-31T12:54:20.000Z</time>
      </trkpt>
      <trkpt lat="45.57529" lon="6.57481">
        <ele>2173</ele>
        <time>2014-01-31T12:54:22.000Z</time>
      </trkpt>
      <trkpt lat="45.57529" lon="6.57481">
        <ele>2173</ele>
        <time>2014-01-31T12:54:24.000Z</time>
      </trkpt>
      <trkpt lat="45.57529" lon="6.57481">
        <ele>2173</ele>
        <time>2014-01-31T12:54:25.000Z</time>
      </trkpt>
      <trkpt lat="45.57529" lon="6.57481">
        <ele>2173</ele>
        <time>2014-01-31T12:54:26.000Z</time>
      </trkpt>
      <trkpt lat="45.57529" lon="6.57481">
        <ele>2173</ele>
        <time>2014-01-31T12:54:29.000Z</time>
      </trkpt>
      <trkpt lat="45.57529" lon="6.57481">
        <ele>2173</ele>
        <time>2014-01-31T12:54:30.000Z</time>
      </trkpt>
      <trkpt lat="45.57529" lon="6.57481">
        <ele>2172.8000488281</ele>
        <time>2014-01-31T12:54:31.000Z</time>
      </trkpt>
      <trkpt lat="45.57529" lon="6.57481">
        <ele>2172.8000488281</ele>
        <time>2014-01-31T12:54:32.000Z</time>
      </trkpt>
      <trkpt lat="45.57529" lon="6.57481">
        <ele>2172.6000976562</ele>
        <time>2014-01-31T12:54:33.000Z</time>
      </trkpt>
      <trkpt lat="45.57529" lon="6.57481">
        <ele>2172.6000976562</ele>
        <time>2014-01-31T12:54:34.000Z</time>
      </trkpt>
      <trkpt lat="45.57529" lon="6.57481">
        <ele>2172.8000488281</ele>
        <time>2014-01-31T12:54:35.000Z</time>
      </trkpt>
      <trkpt lat="45.5753" lon="6.5748">
        <ele>2172.8000488281</ele>
        <time>2014-01-31T12:54:36.000Z</time>
      </trkpt>
      <trkpt lat="45.5753" lon="6.5748">
        <ele>2173</ele>
        <time>2014-01-31T12:54:37.000Z</time>
      </trkpt>
      <trkpt lat="45.57531" lon="6.57478">
        <ele>2173.1999511719</ele>
        <time>2014-01-31T12:54:38.000Z</time>
      </trkpt>
      <trkpt lat="45.57533" lon="6.57475">
        <ele>2173</ele>
        <time>2014-01-31T12:54:40.000Z</time>
      </trkpt>
      <trkpt lat="45.57533" lon="6.57474">
        <ele>2173</ele>
        <time>2014-01-31T12:54:41.000Z</time>
      </trkpt>
      <trkpt lat="45.57534" lon="6.57472">
        <ele>2172.8000488281</ele>
        <time>2014-01-31T12:54:42.000Z</time>
      </trkpt>
      <trkpt lat="45.57535" lon="6.5747">
        <ele>2172.8000488281</ele>
        <time>2014-01-31T12:54:43.000Z</time>
      </trkpt>
      <trkpt lat="45.57536" lon="6.57469">
        <ele>2172.6000976562</ele>
        <time>2014-01-31T12:54:44.000Z</time>
      </trkpt>
      <trkpt lat="45.57536" lon="6.57467">
        <ele>2172.6000976562</ele>
        <time>2014-01-31T12:54:45.000Z</time>
      </trkpt>
      <trkpt lat="45.57536" lon="6.57465">
        <ele>2172.6000976562</ele>
        <time>2014-01-31T12:54:46.000Z</time>
      </trkpt>
      <trkpt lat="45.57536" lon="6.57463">
        <ele>2172.8000488281</ele>
        <time>2014-01-31T12:54:47.000Z</time>
      </trkpt>
      <trkpt lat="45.57536" lon="6.57462">
        <ele>2173</ele>
        <time>2014-01-31T12:54:48.000Z</time>
      </trkpt>
      <trkpt lat="45.57536" lon="6.5746">
        <ele>2173.1999511719</ele>
        <time>2014-01-31T12:54:49.000Z</time>
      </trkpt>
      <trkpt lat="45.57537" lon="6.57458">
        <ele>2173.3999023438</ele>
        <time>2014-01-31T12:54:50.000Z</time>
      </trkpt>
      <trkpt lat="45.57537" lon="6.57456">
        <ele>2173.3999023438</ele>
        <time>2014-01-31T12:54:51.000Z</time>
      </trkpt>
      <trkpt lat="45.57537" lon="6.57454">
        <ele>2173.3999023438</ele>
        <time>2014-01-31T12:54:52.000Z</time>
      </trkpt>
      <trkpt lat="45.57537" lon="6.57453">
        <ele>2173.3999023438</ele>
        <time>2014-01-31T12:54:53.000Z</time>
      </trkpt>
      <trkpt lat="45.57537" lon="6.57452">
        <ele>2173.6000976562</ele>
        <time>2014-01-31T12:54:54.000Z</time>
      </trkpt>
      <trkpt lat="45.57537" lon="6.57451">
        <ele>2173.6000976562</ele>
        <time>2014-01-31T12:54:55.000Z</time>
      </trkpt>
      <trkpt lat="45.57537" lon="6.57448">
        <ele>2173.6000976562</ele>
        <time>2014-01-31T12:54:56.000Z</time>
      </trkpt>
      <trkpt lat="45.57537" lon="6.57447">
        <ele>2173.6000976562</ele>
        <time>2014-01-31T12:54:57.000Z</time>
      </trkpt>
      <trkpt lat="45.57537" lon="6.57446">
        <ele>2173.8000488281</ele>
        <time>2014-01-31T12:54:58.000Z</time>
      </trkpt>
      <trkpt lat="45.57537" lon="6.57444">
        <ele>2174</ele>
        <time>2014-01-31T12:54:59.000Z</time>
      </trkpt>
      <trkpt lat="45.57538" lon="6.57442">
        <ele>2174.1999511719</ele>
        <time>2014-01-31T12:55:00.000Z</time>
      </trkpt>
      <trkpt lat="45.57538" lon="6.57442">
        <ele>2174.3999023438</ele>
        <time>2014-01-31T12:55:01.000Z</time>
      </trkpt>
      <trkpt lat="45.57538" lon="6.5744">
        <ele>2174.6000976562</ele>
        <time>2014-01-31T12:55:02.000Z</time>
      </trkpt>
      <trkpt lat="45.57538" lon="6.57438">
        <ele>2174.6000976562</ele>
        <time>2014-01-31T12:55:03.000Z</time>
      </trkpt>
      <trkpt lat="45.57539" lon="6.57436">
        <ele>2174.8000488281</ele>
        <time>2014-01-31T12:55:04.000Z</time>
      </trkpt>
      <trkpt lat="45.57539" lon="6.57434">
        <ele>2175</ele>
        <time>2014-01-31T12:55:05.000Z</time>
      </trkpt>
      <trkpt lat="45.57539" lon="6.57432">
        <ele>2175</ele>
        <time>2014-01-31T12:55:06.000Z</time>
      </trkpt>
      <trkpt lat="45.5754" lon="6.57431">
        <ele>2175</ele>
        <time>2014-01-31T12:55:07.000Z</time>
      </trkpt>
      <trkpt lat="45.57541" lon="6.57428">
        <ele>2175</ele>
        <time>2014-01-31T12:55:09.000Z</time>
      </trkpt>
      <trkpt lat="45.57542" lon="6.57427">
        <ele>2175</ele>
        <time>2014-01-31T12:55:10.000Z</time>
      </trkpt>
      <trkpt lat="45.57542" lon="6.57426">
        <ele>2175.1999511719</ele>
        <time>2014-01-31T12:55:11.000Z</time>
      </trkpt>
      <trkpt lat="45.57542" lon="6.57425">
        <ele>2175.1999511719</ele>
        <time>2014-01-31T12:55:12.000Z</time>
      </trkpt>
      <trkpt lat="45.57543" lon="6.57423">
        <ele>2175.1999511719</ele>
        <time>2014-01-31T12:55:13.000Z</time>
      </trkpt>
      <trkpt lat="45.57543" lon="6.57423">
        <ele>2175.3999023438</ele>
        <time>2014-01-31T12:55:14.000Z</time>
      </trkpt>
      <trkpt lat="45.57543" lon="6.57421">
        <ele>2175.3999023438</ele>
        <time>2014-01-31T12:55:15.000Z</time>
      </trkpt>
      <trkpt lat="45.57544" lon="6.5742">
        <ele>2175.6000976562</ele>
        <time>2014-01-31T12:55:16.000Z</time>
      </trkpt>
      <trkpt lat="45.57544" lon="6.57418">
        <ele>2175.6000976562</ele>
        <time>2014-01-31T12:55:17.000Z</time>
      </trkpt>
      <trkpt lat="45.57545" lon="6.57417">
        <ele>2175.8000488281</ele>
        <time>2014-01-31T12:55:18.000Z</time>
      </trkpt>
      <trkpt lat="45.57545" lon="6.57414">
        <ele>2175.8000488281</ele>
        <time>2014-01-31T12:55:19.000Z</time>
      </trkpt>
      <trkpt lat="45.57546" lon="6.57413">
        <ele>2175.8000488281</ele>
        <time>2014-01-31T12:55:20.000Z</time>
      </trkpt>
      <trkpt lat="45.57546" lon="6.57412">
        <ele>2175.8000488281</ele>
        <time>2014-01-31T12:55:21.000Z</time>
      </trkpt>
      <trkpt lat="45.57546" lon="6.5741">
        <ele>2176</ele>
        <time>2014-01-31T12:55:22.000Z</time>
      </trkpt>
      <trkpt lat="45.57546" lon="6.57409">
        <ele>2176</ele>
        <time>2014-01-31T12:55:23.000Z</time>
      </trkpt>
      <trkpt lat="45.57546" lon="6.57408">
        <ele>2176</ele>
        <time>2014-01-31T12:55:24.000Z</time>
      </trkpt>
      <trkpt lat="45.57546" lon="6.57406">
        <ele>2176</ele>
        <time>2014-01-31T12:55:25.000Z</time>
      </trkpt>
      <trkpt lat="45.57546" lon="6.57405">
        <ele>2176.1999511719</ele>
        <time>2014-01-31T12:55:26.000Z</time>
      </trkpt>
      <trkpt lat="45.57546" lon="6.57404">
        <ele>2176.3999023438</ele>
        <time>2014-01-31T12:55:27.000Z</time>
      </trkpt>
      <trkpt lat="45.57546" lon="6.57402">
        <ele>2176.6000976562</ele>
        <time>2014-01-31T12:55:28.000Z</time>
      </trkpt>
      <trkpt lat="45.57546" lon="6.57401">
        <ele>2176.8000488281</ele>
        <time>2014-01-31T12:55:29.000Z</time>
      </trkpt>
      <trkpt lat="45.57545" lon="6.574">
        <ele>2176.8000488281</ele>
        <time>2014-01-31T12:55:30.000Z</time>
      </trkpt>
      <trkpt lat="45.57545" lon="6.57399">
        <ele>2177</ele>
        <time>2014-01-31T12:55:31.000Z</time>
      </trkpt>
      <trkpt lat="45.57545" lon="6.57398">
        <ele>2177.1999511719</ele>
        <time>2014-01-31T12:55:32.000Z</time>
      </trkpt>
      <trkpt lat="45.57544" lon="6.57398">
        <ele>2177.3999023438</ele>
        <time>2014-01-31T12:55:33.000Z</time>
      </trkpt>
      <trkpt lat="45.57543" lon="6.57396">
        <ele>2177.6000976562</ele>
        <time>2014-01-31T12:55:34.000Z</time>
      </trkpt>
      <trkpt lat="45.57542" lon="6.57395">
        <ele>2177.6000976562</ele>
        <time>2014-01-31T12:55:35.000Z</time>
      </trkpt>
      <trkpt lat="45.57541" lon="6.57393">
        <ele>2177.8000488281</ele>
        <time>2014-01-31T12:55:36.000Z</time>
      </trkpt>
      <trkpt lat="45.5754" lon="6.57392">
        <ele>2178</ele>
        <time>2014-01-31T12:55:37.000Z</time>
      </trkpt>
      <trkpt lat="45.57539" lon="6.57391">
        <ele>2178</ele>
        <time>2014-01-31T12:55:38.000Z</time>
      </trkpt>
      <trkpt lat="45.57538" lon="6.5739">
        <ele>2178.3999023438</ele>
        <time>2014-01-31T12:55:39.000Z</time>
      </trkpt>
      <trkpt lat="45.57538" lon="6.5739">
        <ele>2178.6000976562</ele>
        <time>2014-01-31T12:55:40.000Z</time>
      </trkpt>
      <trkpt lat="45.57538" lon="6.57389">
        <ele>2178.6000976562</ele>
        <time>2014-01-31T12:55:41.000Z</time>
      </trkpt>
      <trkpt lat="45.57537" lon="6.57388">
        <ele>2178.8000488281</ele>
        <time>2014-01-31T12:55:42.000Z</time>
      </trkpt>
      <trkpt lat="45.57537" lon="6.57387">
        <ele>2178.8000488281</ele>
        <time>2014-01-31T12:55:43.000Z</time>
      </trkpt>
      <trkpt lat="45.57537" lon="6.57386">
        <ele>2179</ele>
        <time>2014-01-31T12:55:44.000Z</time>
      </trkpt>
      <trkpt lat="45.57537" lon="6.57385">
        <ele>2179</ele>
        <time>2014-01-31T12:55:45.000Z</time>
      </trkpt>
      <trkpt lat="45.57537" lon="6.57384">
        <ele>2179.1999511719</ele>
        <time>2014-01-31T12:55:46.000Z</time>
      </trkpt>
      <trkpt lat="45.57538" lon="6.57383">
        <ele>2179.3999023438</ele>
        <time>2014-01-31T12:55:47.000Z</time>
      </trkpt>
      <trkpt lat="45.57538" lon="6.57381">
        <ele>2179.8000488281</ele>
        <time>2014-01-31T12:55:48.000Z</time>
      </trkpt>
      <trkpt lat="45.57538" lon="6.57381">
        <ele>2180</ele>
        <time>2014-01-31T12:55:49.000Z</time>
      </trkpt>
      <trkpt lat="45.57538" lon="6.57379">
        <ele>2180.1999511719</ele>
        <time>2014-01-31T12:55:50.000Z</time>
      </trkpt>
      <trkpt lat="45.57539" lon="6.57379">
        <ele>2180.3999023438</ele>
        <time>2014-01-31T12:55:51.000Z</time>
      </trkpt>
      <trkpt lat="45.57539" lon="6.57378">
        <ele>2180.6000976562</ele>
        <time>2014-01-31T12:55:52.000Z</time>
      </trkpt>
      <trkpt lat="45.57539" lon="6.57376">
        <ele>2180.6000976562</ele>
        <time>2014-01-31T12:55:53.000Z</time>
      </trkpt>
      <trkpt lat="45.5754" lon="6.57375">
        <ele>2180.8000488281</ele>
        <time>2014-01-31T12:55:54.000Z</time>
      </trkpt>
      <trkpt lat="45.5754" lon="6.57374">
        <ele>2180.8000488281</ele>
        <time>2014-01-31T12:55:55.000Z</time>
      </trkpt>
      <trkpt lat="45.57541" lon="6.57373">
        <ele>2181</ele>
        <time>2014-01-31T12:55:56.000Z</time>
      </trkpt>
      <trkpt lat="45.57541" lon="6.57371">
        <ele>2181.1999511719</ele>
        <time>2014-01-31T12:55:57.000Z</time>
      </trkpt>
      <trkpt lat="45.57542" lon="6.5737">
        <ele>2181.1999511719</ele>
        <time>2014-01-31T12:55:58.000Z</time>
      </trkpt>
      <trkpt lat="45.57542" lon="6.57369">
        <ele>2181.3999023438</ele>
        <time>2014-01-31T12:55:59.000Z</time>
      </trkpt>
      <trkpt lat="45.57543" lon="6.57368">
        <ele>2181.6000976562</ele>
        <time>2014-01-31T12:56:00.000Z</time>
      </trkpt>
      <trkpt lat="45.57544" lon="6.57366">
        <ele>2181.6000976562</ele>
        <time>2014-01-31T12:56:01.000Z</time>
      </trkpt>
      <trkpt lat="45.57545" lon="6.57365">
        <ele>2181.8000488281</ele>
        <time>2014-01-31T12:56:02.000Z</time>
      </trkpt>
      <trkpt lat="45.57545" lon="6.57365">
        <ele>2181.8000488281</ele>
        <time>2014-01-31T12:56:03.000Z</time>
      </trkpt>
      <trkpt lat="45.57545" lon="6.57363">
        <ele>2182</ele>
        <time>2014-01-31T12:56:04.000Z</time>
      </trkpt>
      <trkpt lat="45.57546" lon="6.57362">
        <ele>2182</ele>
        <time>2014-01-31T12:56:05.000Z</time>
      </trkpt>
      <trkpt lat="45.57547" lon="6.5736">
        <ele>2182</ele>
        <time>2014-01-31T12:56:06.000Z</time>
      </trkpt>
      <trkpt lat="45.57547" lon="6.57358">
        <ele>2182</ele>
        <time>2014-01-31T12:56:07.000Z</time>
      </trkpt>
      <trkpt lat="45.57548" lon="6.57356">
        <ele>2182</ele>
        <time>2014-01-31T12:56:08.000Z</time>
      </trkpt>
      <trkpt lat="45.57548" lon="6.57354">
        <ele>2182</ele>
        <time>2014-01-31T12:56:09.000Z</time>
      </trkpt>
      <trkpt lat="45.57549" lon="6.57352">
        <ele>2181.8000488281</ele>
        <time>2014-01-31T12:56:10.000Z</time>
      </trkpt>
      <trkpt lat="45.57549" lon="6.5735">
        <ele>2181.8000488281</ele>
        <time>2014-01-31T12:56:11.000Z</time>
      </trkpt>
      <trkpt lat="45.57549" lon="6.57348">
        <ele>2181.8000488281</ele>
        <time>2014-01-31T12:56:12.000Z</time>
      </trkpt>
      <trkpt lat="45.57549" lon="6.57345">
        <ele>2181.6000976562</ele>
        <time>2014-01-31T12:56:13.000Z</time>
      </trkpt>
      <trkpt lat="45.5755" lon="6.57343">
        <ele>2181.6000976562</ele>
        <time>2014-01-31T12:56:14.000Z</time>
      </trkpt>
      <trkpt lat="45.5755" lon="6.57342">
        <ele>2181.3999023438</ele>
        <time>2014-01-31T12:56:15.000Z</time>
      </trkpt>
      <trkpt lat="45.57549" lon="6.5734">
        <ele>2181.3999023438</ele>
        <time>2014-01-31T12:56:16.000Z</time>
      </trkpt>
      <trkpt lat="45.57549" lon="6.57338">
        <ele>2181.3999023438</ele>
        <time>2014-01-31T12:56:17.000Z</time>
      </trkpt>
      <trkpt lat="45.57549" lon="6.57336">
        <ele>2181.3999023438</ele>
        <time>2014-01-31T12:56:18.000Z</time>
      </trkpt>
      <trkpt lat="45.57549" lon="6.57333">
        <ele>2181.3999023438</ele>
        <time>2014-01-31T12:56:20.000Z</time>
      </trkpt>
      <trkpt lat="45.57549" lon="6.57332">
        <ele>2181.3999023438</ele>
        <time>2014-01-31T12:56:21.000Z</time>
      </trkpt>
      <trkpt lat="45.57549" lon="6.57329">
        <ele>2181.3999023438</ele>
        <time>2014-01-31T12:56:22.000Z</time>
      </trkpt>
      <trkpt lat="45.57549" lon="6.57328">
        <ele>2181.6000976562</ele>
        <time>2014-01-31T12:56:23.000Z</time>
      </trkpt>
      <trkpt lat="45.57549" lon="6.57327">
        <ele>2181.6000976562</ele>
        <time>2014-01-31T12:56:24.000Z</time>
      </trkpt>
      <trkpt lat="45.57549" lon="6.57325">
        <ele>2181.6000976562</ele>
        <time>2014-01-31T12:56:25.000Z</time>
      </trkpt>
      <trkpt lat="45.57549" lon="6.57323">
        <ele>2181.6000976562</ele>
        <time>2014-01-31T12:56:26.000Z</time>
      </trkpt>
      <trkpt lat="45.57549" lon="6.57323">
        <ele>2181.8000488281</ele>
        <time>2014-01-31T12:56:27.000Z</time>
      </trkpt>
      <trkpt lat="45.57549" lon="6.57321">
        <ele>2181.8000488281</ele>
        <time>2014-01-31T12:56:28.000Z</time>
      </trkpt>
      <trkpt lat="45.57549" lon="6.5732">
        <ele>2181.8000488281</ele>
        <time>2014-01-31T12:56:29.000Z</time>
      </trkpt>
      <trkpt lat="45.5755" lon="6.5732">
        <ele>2181.8000488281</ele>
        <time>2014-01-31T12:56:30.000Z</time>
      </trkpt>
      <trkpt lat="45.5755" lon="6.57319">
        <ele>2181.8000488281</ele>
        <time>2014-01-31T12:56:31.000Z</time>
      </trkpt>
      <trkpt lat="45.5755" lon="6.57318">
        <ele>2181.8000488281</ele>
        <time>2014-01-31T12:56:32.000Z</time>
      </trkpt>
      <trkpt lat="45.5755" lon="6.57317">
        <ele>2181.8000488281</ele>
        <time>2014-01-31T12:56:33.000Z</time>
      </trkpt>
      <trkpt lat="45.5755" lon="6.57315">
        <ele>2182</ele>
        <time>2014-01-31T12:56:34.000Z</time>
      </trkpt>
      <trkpt lat="45.5755" lon="6.57315">
        <ele>2182.1999511719</ele>
        <time>2014-01-31T12:56:35.000Z</time>
      </trkpt>
      <trkpt lat="45.5755" lon="6.57314">
        <ele>2182.6000976562</ele>
        <time>2014-01-31T12:56:36.000Z</time>
      </trkpt>
      <trkpt lat="45.5755" lon="6.57312">
        <ele>2182.8000488281</ele>
        <time>2014-01-31T12:56:37.000Z</time>
      </trkpt>
      <trkpt lat="45.5755" lon="6.57311">
        <ele>2182.8000488281</ele>
        <time>2014-01-31T12:56:38.000Z</time>
      </trkpt>
      <trkpt lat="45.5755" lon="6.57309">
        <ele>2183</ele>
        <time>2014-01-31T12:56:39.000Z</time>
      </trkpt>
      <trkpt lat="45.5755" lon="6.57308">
        <ele>2183.1999511719</ele>
        <time>2014-01-31T12:56:40.000Z</time>
      </trkpt>
      <trkpt lat="45.5755" lon="6.57307">
        <ele>2183.1999511719</ele>
        <time>2014-01-31T12:56:41.000Z</time>
      </trkpt>
      <trkpt lat="45.5755" lon="6.57305">
        <ele>2183.3999023438</ele>
        <time>2014-01-31T12:56:42.000Z</time>
      </trkpt>
      <trkpt lat="45.5755" lon="6.57304">
        <ele>2183.3999023438</ele>
        <time>2014-01-31T12:56:43.000Z</time>
      </trkpt>
      <trkpt lat="45.5755" lon="6.57304">
        <ele>2183.6000976562</ele>
        <time>2014-01-31T12:56:44.000Z</time>
      </trkpt>
      <trkpt lat="45.5755" lon="6.57302">
        <ele>2183.8000488281</ele>
        <time>2014-01-31T12:56:45.000Z</time>
      </trkpt>
      <trkpt lat="45.5755" lon="6.57301">
        <ele>2183.8000488281</ele>
        <time>2014-01-31T12:56:46.000Z</time>
      </trkpt>
      <trkpt lat="45.5755" lon="6.573">
        <ele>2184</ele>
        <time>2014-01-31T12:56:47.000Z</time>
      </trkpt>
      <trkpt lat="45.57549" lon="6.57298">
        <ele>2184</ele>
        <time>2014-01-31T12:56:48.000Z</time>
      </trkpt>
      <trkpt lat="45.57549" lon="6.57298">
        <ele>2184.1999511719</ele>
        <time>2014-01-31T12:56:49.000Z</time>
      </trkpt>
      <trkpt lat="45.57549" lon="6.57297">
        <ele>2184.3999023438</ele>
        <time>2014-01-31T12:56:50.000Z</time>
      </trkpt>
      <trkpt lat="45.57549" lon="6.57295">
        <ele>2184.6000976562</ele>
        <time>2014-01-31T12:56:51.000Z</time>
      </trkpt>
      <trkpt lat="45.57549" lon="6.57294">
        <ele>2184.8000488281</ele>
        <time>2014-01-31T12:56:52.000Z</time>
      </trkpt>
      <trkpt lat="45.57548" lon="6.57292">
        <ele>2184.8000488281</ele>
        <time>2014-01-31T12:56:53.000Z</time>
      </trkpt>
      <trkpt lat="45.57548" lon="6.5729">
        <ele>2185</ele>
        <time>2014-01-31T12:56:54.000Z</time>
      </trkpt>
      <trkpt lat="45.57548" lon="6.5729">
        <ele>2185</ele>
        <time>2014-01-31T12:56:55.000Z</time>
      </trkpt>
      <trkpt lat="45.57548" lon="6.57287">
        <ele>2185.1999511719</ele>
        <time>2014-01-31T12:56:56.000Z</time>
      </trkpt>
      <trkpt lat="45.57548" lon="6.57287">
        <ele>2185.3999023438</ele>
        <time>2014-01-31T12:56:57.000Z</time>
      </trkpt>
      <trkpt lat="45.57547" lon="6.57286">
        <ele>2185.3999023438</ele>
        <time>2014-01-31T12:56:58.000Z</time>
      </trkpt>
      <trkpt lat="45.57547" lon="6.57285">
        <ele>2185.8000488281</ele>
        <time>2014-01-31T12:56:59.000Z</time>
      </trkpt>
      <trkpt lat="45.57547" lon="6.57284">
        <ele>2186.1999511719</ele>
        <time>2014-01-31T12:57:00.000Z</time>
      </trkpt>
      <trkpt lat="45.57547" lon="6.57283">
        <ele>2186.3999023438</ele>
        <time>2014-01-31T12:57:01.000Z</time>
      </trkpt>
      <trkpt lat="45.57547" lon="6.57282">
        <ele>2186.6000976562</ele>
        <time>2014-01-31T12:57:02.000Z</time>
      </trkpt>
      <trkpt lat="45.57547" lon="6.57281">
        <ele>2186.6000976562</ele>
        <time>2014-01-31T12:57:03.000Z</time>
      </trkpt>
      <trkpt lat="45.57547" lon="6.5728">
        <ele>2186.8000488281</ele>
        <time>2014-01-31T12:57:04.000Z</time>
      </trkpt>
      <trkpt lat="45.57547" lon="6.57279">
        <ele>2187.1999511719</ele>
        <time>2014-01-31T12:57:05.000Z</time>
      </trkpt>
      <trkpt lat="45.57547" lon="6.57278">
        <ele>2187.3999023438</ele>
        <time>2014-01-31T12:57:06.000Z</time>
      </trkpt>
      <trkpt lat="45.57547" lon="6.57277">
        <ele>2187.6000976562</ele>
        <time>2014-01-31T12:57:07.000Z</time>
      </trkpt>
      <trkpt lat="45.57546" lon="6.57276">
        <ele>2187.8000488281</ele>
        <time>2014-01-31T12:57:08.000Z</time>
      </trkpt>
      <trkpt lat="45.57546" lon="6.57274">
        <ele>2187.8000488281</ele>
        <time>2014-01-31T12:57:09.000Z</time>
      </trkpt>
      <trkpt lat="45.57546" lon="6.57274">
        <ele>2187.8000488281</ele>
        <time>2014-01-31T12:57:10.000Z</time>
      </trkpt>
      <trkpt lat="45.57545" lon="6.57271">
        <ele>2188</ele>
        <time>2014-01-31T12:57:11.000Z</time>
      </trkpt>
      <trkpt lat="45.57544" lon="6.5727">
        <ele>2188.1999511719</ele>
        <time>2014-01-31T12:57:12.000Z</time>
      </trkpt>
      <trkpt lat="45.57544" lon="6.57269">
        <ele>2188.1999511719</ele>
        <time>2014-01-31T12:57:13.000Z</time>
      </trkpt>
      <trkpt lat="45.57544" lon="6.57268">
        <ele>2188.3999023438</ele>
        <time>2014-01-31T12:57:14.000Z</time>
      </trkpt>
      <trkpt lat="45.57544" lon="6.57267">
        <ele>2188.3999023438</ele>
        <time>2014-01-31T12:57:15.000Z</time>
      </trkpt>
      <trkpt lat="45.57544" lon="6.57266">
        <ele>2188.6000976562</ele>
        <time>2014-01-31T12:57:16.000Z</time>
      </trkpt>
      <trkpt lat="45.57544" lon="6.57264">
        <ele>2188.8000488281</ele>
        <time>2014-01-31T12:57:17.000Z</time>
      </trkpt>
      <trkpt lat="45.57544" lon="6.57264">
        <ele>2188.8000488281</ele>
        <time>2014-01-31T12:57:18.000Z</time>
      </trkpt>
      <trkpt lat="45.57544" lon="6.57263">
        <ele>2189</ele>
        <time>2014-01-31T12:57:19.000Z</time>
      </trkpt>
      <trkpt lat="45.57543" lon="6.57262">
        <ele>2189</ele>
        <time>2014-01-31T12:57:20.000Z</time>
      </trkpt>
      <trkpt lat="45.57543" lon="6.57261">
        <ele>2189.1999511719</ele>
        <time>2014-01-31T12:57:21.000Z</time>
      </trkpt>
      <trkpt lat="45.57543" lon="6.57259">
        <ele>2189.3999023438</ele>
        <time>2014-01-31T12:57:22.000Z</time>
      </trkpt>
      <trkpt lat="45.57543" lon="6.57258">
        <ele>2189.6000976562</ele>
        <time>2014-01-31T12:57:23.000Z</time>
      </trkpt>
      <trkpt lat="45.57543" lon="6.57257">
        <ele>2189.8000488281</ele>
        <time>2014-01-31T12:57:24.000Z</time>
      </trkpt>
      <trkpt lat="45.57542" lon="6.57256">
        <ele>2189.8000488281</ele>
        <time>2014-01-31T12:57:25.000Z</time>
      </trkpt>
      <trkpt lat="45.57542" lon="6.57255">
        <ele>2190</ele>
        <time>2014-01-31T12:57:26.000Z</time>
      </trkpt>
      <trkpt lat="45.57542" lon="6.57253">
        <ele>2190</ele>
        <time>2014-01-31T12:57:27.000Z</time>
      </trkpt>
      <trkpt lat="45.57541" lon="6.57252">
        <ele>2190.1999511719</ele>
        <time>2014-01-31T12:57:28.000Z</time>
      </trkpt>
      <trkpt lat="45.57541" lon="6.5725">
        <ele>2190.3999023438</ele>
        <time>2014-01-31T12:57:29.000Z</time>
      </trkpt>
      <trkpt lat="45.5754" lon="6.5725">
        <ele>2190.6000976562</ele>
        <time>2014-01-31T12:57:30.000Z</time>
      </trkpt>
      <trkpt lat="45.5754" lon="6.57249">
        <ele>2190.6000976562</ele>
        <time>2014-01-31T12:57:31.000Z</time>
      </trkpt>
      <trkpt lat="45.57539" lon="6.57248">
        <ele>2190.8000488281</ele>
        <time>2014-01-31T12:57:32.000Z</time>
      </trkpt>
      <trkpt lat="45.57539" lon="6.57248">
        <ele>2190.8000488281</ele>
        <time>2014-01-31T12:57:33.000Z</time>
      </trkpt>
      <trkpt lat="45.57538" lon="6.57246">
        <ele>2191</ele>
        <time>2014-01-31T12:57:34.000Z</time>
      </trkpt>
      <trkpt lat="45.57538" lon="6.57246">
        <ele>2191.3999023438</ele>
        <time>2014-01-31T12:57:35.000Z</time>
      </trkpt>
      <trkpt lat="45.57538" lon="6.57244">
        <ele>2191.6000976562</ele>
        <time>2014-01-31T12:57:36.000Z</time>
      </trkpt>
      <trkpt lat="45.57538" lon="6.57244">
        <ele>2191.8000488281</ele>
        <time>2014-01-31T12:57:37.000Z</time>
      </trkpt>
      <trkpt lat="45.57538" lon="6.57243">
        <ele>2191.8000488281</ele>
        <time>2014-01-31T12:57:38.000Z</time>
      </trkpt>
      <trkpt lat="45.57537" lon="6.57241">
        <ele>2192</ele>
        <time>2014-01-31T12:57:39.000Z</time>
      </trkpt>
      <trkpt lat="45.57537" lon="6.5724">
        <ele>2192.1999511719</ele>
        <time>2014-01-31T12:57:40.000Z</time>
      </trkpt>
      <trkpt lat="45.57536" lon="6.57239">
        <ele>2192.3999023438</ele>
        <time>2014-01-31T12:57:41.000Z</time>
      </trkpt>
      <trkpt lat="45.57536" lon="6.57238">
        <ele>2192.6000976562</ele>
        <time>2014-01-31T12:57:42.000Z</time>
      </trkpt>
      <trkpt lat="45.57536" lon="6.57238">
        <ele>2193</ele>
        <time>2014-01-31T12:57:43.000Z</time>
      </trkpt>
      <trkpt lat="45.57535" lon="6.57236">
        <ele>2193</ele>
        <time>2014-01-31T12:57:44.000Z</time>
      </trkpt>
      <trkpt lat="45.57535" lon="6.57236">
        <ele>2193.1999511719</ele>
        <time>2014-01-31T12:57:45.000Z</time>
      </trkpt>
      <trkpt lat="45.57535" lon="6.57235">
        <ele>2193.1999511719</ele>
        <time>2014-01-31T12:57:46.000Z</time>
      </trkpt>
      <trkpt lat="45.57535" lon="6.57234">
        <ele>2193.3999023438</ele>
        <time>2014-01-31T12:57:47.000Z</time>
      </trkpt>
      <trkpt lat="45.57535" lon="6.57233">
        <ele>2193.8000488281</ele>
        <time>2014-01-31T12:57:48.000Z</time>
      </trkpt>
      <trkpt lat="45.57534" lon="6.57231">
        <ele>2193.8000488281</ele>
        <time>2014-01-31T12:57:49.000Z</time>
      </trkpt>
      <trkpt lat="45.57534" lon="6.57229">
        <ele>2193.8000488281</ele>
        <time>2014-01-31T12:57:50.000Z</time>
      </trkpt>
      <trkpt lat="45.57533" lon="6.57228">
        <ele>2193.8000488281</ele>
        <time>2014-01-31T12:57:51.000Z</time>
      </trkpt>
      <trkpt lat="45.57533" lon="6.57227">
        <ele>2193.8000488281</ele>
        <time>2014-01-31T12:57:52.000Z</time>
      </trkpt>
      <trkpt lat="45.57533" lon="6.57225">
        <ele>2193.8000488281</ele>
        <time>2014-01-31T12:57:53.000Z</time>
      </trkpt>
      <trkpt lat="45.57533" lon="6.57225">
        <ele>2194</ele>
        <time>2014-01-31T12:57:54.000Z</time>
      </trkpt>
      <trkpt lat="45.57533" lon="6.57223">
        <ele>2194</ele>
        <time>2014-01-31T12:57:55.000Z</time>
      </trkpt>
      <trkpt lat="45.57533" lon="6.57221">
        <ele>2194</ele>
        <time>2014-01-31T12:57:56.000Z</time>
      </trkpt>
      <trkpt lat="45.57533" lon="6.5722">
        <ele>2194</ele>
        <time>2014-01-31T12:57:57.000Z</time>
      </trkpt>
      <trkpt lat="45.57533" lon="6.57219">
        <ele>2194.1999511719</ele>
        <time>2014-01-31T12:57:58.000Z</time>
      </trkpt>
      <trkpt lat="45.57533" lon="6.57218">
        <ele>2194.1999511719</ele>
        <time>2014-01-31T12:57:59.000Z</time>
      </trkpt>
      <trkpt lat="45.57533" lon="6.57217">
        <ele>2194.3999023438</ele>
        <time>2014-01-31T12:58:00.000Z</time>
      </trkpt>
      <trkpt lat="45.57532" lon="6.57215">
        <ele>2194.3999023438</ele>
        <time>2014-01-31T12:58:01.000Z</time>
      </trkpt>
      <trkpt lat="45.57531" lon="6.57215">
        <ele>2194.3999023438</ele>
        <time>2014-01-31T12:58:02.000Z</time>
      </trkpt>
      <trkpt lat="45.57531" lon="6.57213">
        <ele>2194.6000976562</ele>
        <time>2014-01-31T12:58:03.000Z</time>
      </trkpt>
      <trkpt lat="45.57531" lon="6.57212">
        <ele>2194.6000976562</ele>
        <time>2014-01-31T12:58:04.000Z</time>
      </trkpt>
      <trkpt lat="45.57532" lon="6.57211">
        <ele>2194.8000488281</ele>
        <time>2014-01-31T12:58:05.000Z</time>
      </trkpt>
      <trkpt lat="45.57532" lon="6.57209">
        <ele>2195</ele>
        <time>2014-01-31T12:58:06.000Z</time>
      </trkpt>
      <trkpt lat="45.57532" lon="6.57208">
        <ele>2195</ele>
        <time>2014-01-31T12:58:07.000Z</time>
      </trkpt>
      <trkpt lat="45.57532" lon="6.57206">
        <ele>2195</ele>
        <time>2014-01-31T12:58:08.000Z</time>
      </trkpt>
      <trkpt lat="45.57533" lon="6.57204">
        <ele>2195</ele>
        <time>2014-01-31T12:58:09.000Z</time>
      </trkpt>
      <trkpt lat="45.57533" lon="6.57204">
        <ele>2195.1999511719</ele>
        <time>2014-01-31T12:58:10.000Z</time>
      </trkpt>
      <trkpt lat="45.57532" lon="6.57202">
        <ele>2195.1999511719</ele>
        <time>2014-01-31T12:58:11.000Z</time>
      </trkpt>
      <trkpt lat="45.57533" lon="6.57201">
        <ele>2195.1999511719</ele>
        <time>2014-01-31T12:58:12.000Z</time>
      </trkpt>
      <trkpt lat="45.57533" lon="6.57201">
        <ele>2195.1999511719</ele>
        <time>2014-01-31T12:58:13.000Z</time>
      </trkpt>
      <trkpt lat="45.57533" lon="6.57199">
        <ele>2195.1999511719</ele>
        <time>2014-01-31T12:58:14.000Z</time>
      </trkpt>
      <trkpt lat="45.57533" lon="6.57199">
        <ele>2195.1999511719</ele>
        <time>2014-01-31T12:58:15.000Z</time>
      </trkpt>
      <trkpt lat="45.57533" lon="6.57197">
        <ele>2195.1999511719</ele>
        <time>2014-01-31T12:58:16.000Z</time>
      </trkpt>
      <trkpt lat="45.57533" lon="6.57195">
        <ele>2195.1999511719</ele>
        <time>2014-01-31T12:58:17.000Z</time>
      </trkpt>
      <trkpt lat="45.57533" lon="6.57194">
        <ele>2195.3999023438</ele>
        <time>2014-01-31T12:58:18.000Z</time>
      </trkpt>
      <trkpt lat="45.57533" lon="6.57193">
        <ele>2195.6000976562</ele>
        <time>2014-01-31T12:58:19.000Z</time>
      </trkpt>
      <trkpt lat="45.57533" lon="6.57191">
        <ele>2195.8000488281</ele>
        <time>2014-01-31T12:58:20.000Z</time>
      </trkpt>
      <trkpt lat="45.57533" lon="6.57191">
        <ele>2195.8000488281</ele>
        <time>2014-01-31T12:58:21.000Z</time>
      </trkpt>
      <trkpt lat="45.57533" lon="6.57191">
        <ele>2196</ele>
        <time>2014-01-31T12:58:22.000Z</time>
      </trkpt>
      <trkpt lat="45.57533" lon="6.57191">
        <ele>2196</ele>
        <time>2014-01-31T12:58:23.000Z</time>
      </trkpt>
      <trkpt lat="45.57533" lon="6.57191">
        <ele>2196</ele>
        <time>2014-01-31T12:58:24.000Z</time>
      </trkpt>
      <trkpt lat="45.57533" lon="6.57191">
        <ele>2196</ele>
        <time>2014-01-31T12:58:25.000Z</time>
      </trkpt>
      <trkpt lat="45.57533" lon="6.57191">
        <ele>2196</ele>
        <time>2014-01-31T12:58:27.000Z</time>
      </trkpt>
      <trkpt lat="45.57533" lon="6.57191">
        <ele>2196</ele>
        <time>2014-01-31T12:58:28.000Z</time>
      </trkpt>
      <trkpt lat="45.57533" lon="6.57191">
        <ele>2196</ele>
        <time>2014-01-31T12:58:30.000Z</time>
      </trkpt>
      <trkpt lat="45.57534" lon="6.57189">
        <ele>2196</ele>
        <time>2014-01-31T12:58:31.000Z</time>
      </trkpt>
      <trkpt lat="45.57534" lon="6.57188">
        <ele>2196</ele>
        <time>2014-01-31T12:58:32.000Z</time>
      </trkpt>
      <trkpt lat="45.57534" lon="6.57186">
        <ele>2196</ele>
        <time>2014-01-31T12:58:33.000Z</time>
      </trkpt>
      <trkpt lat="45.57535" lon="6.57184">
        <ele>2196</ele>
        <time>2014-01-31T12:58:34.000Z</time>
      </trkpt>
      <trkpt lat="45.57534" lon="6.57183">
        <ele>2196</ele>
        <time>2014-01-31T12:58:35.000Z</time>
      </trkpt>
      <trkpt lat="45.57534" lon="6.57181">
        <ele>2196.1999511719</ele>
        <time>2014-01-31T12:58:36.000Z</time>
      </trkpt>
      <trkpt lat="45.57535" lon="6.57179">
        <ele>2196.1999511719</ele>
        <time>2014-01-31T12:58:38.000Z</time>
      </trkpt>
      <trkpt lat="45.57535" lon="6.57177">
        <ele>2196.1999511719</ele>
        <time>2014-01-31T12:58:39.000Z</time>
      </trkpt>
      <trkpt lat="45.57535" lon="6.57174">
        <ele>2196.1999511719</ele>
        <time>2014-01-31T12:58:40.000Z</time>
      </trkpt>
      <trkpt lat="45.57535" lon="6.57173">
        <ele>2196.3999023438</ele>
        <time>2014-01-31T12:58:41.000Z</time>
      </trkpt>
      <trkpt lat="45.57535" lon="6.57171">
        <ele>2196.3999023438</ele>
        <time>2014-01-31T12:58:42.000Z</time>
      </trkpt>
      <trkpt lat="45.57535" lon="6.57169">
        <ele>2196.3999023438</ele>
        <time>2014-01-31T12:58:43.000Z</time>
      </trkpt>
      <trkpt lat="45.57535" lon="6.57168">
        <ele>2196.3999023438</ele>
        <time>2014-01-31T12:58:44.000Z</time>
      </trkpt>
      <trkpt lat="45.57536" lon="6.57167">
        <ele>2196.3999023438</ele>
        <time>2014-01-31T12:58:45.000Z</time>
      </trkpt>
      <trkpt lat="45.57536" lon="6.57165">
        <ele>2196.3999023438</ele>
        <time>2014-01-31T12:58:46.000Z</time>
      </trkpt>
      <trkpt lat="45.57536" lon="6.57163">
        <ele>2196.3999023438</ele>
        <time>2014-01-31T12:58:48.000Z</time>
      </trkpt>
      <trkpt lat="45.57537" lon="6.57162">
        <ele>2196.3999023438</ele>
        <time>2014-01-31T12:58:49.000Z</time>
      </trkpt>
      <trkpt lat="45.57537" lon="6.57161">
        <ele>2196.6000976562</ele>
        <time>2014-01-31T12:58:50.000Z</time>
      </trkpt>
      <trkpt lat="45.57537" lon="6.57159">
        <ele>2196.6000976562</ele>
        <time>2014-01-31T12:58:51.000Z</time>
      </trkpt>
      <trkpt lat="45.57537" lon="6.57159">
        <ele>2196.8000488281</ele>
        <time>2014-01-31T12:58:52.000Z</time>
      </trkpt>
      <trkpt lat="45.57538" lon="6.57157">
        <ele>2196.8000488281</ele>
        <time>2014-01-31T12:58:53.000Z</time>
      </trkpt>
      <trkpt lat="45.57538" lon="6.57155">
        <ele>2197</ele>
        <time>2014-01-31T12:58:54.000Z</time>
      </trkpt>
      <trkpt lat="45.57538" lon="6.57155">
        <ele>2197</ele>
        <time>2014-01-31T12:58:55.000Z</time>
      </trkpt>
      <trkpt lat="45.57538" lon="6.57153">
        <ele>2197.1999511719</ele>
        <time>2014-01-31T12:58:56.000Z</time>
      </trkpt>
      <trkpt lat="45.57538" lon="6.57151">
        <ele>2197.1999511719</ele>
        <time>2014-01-31T12:58:57.000Z</time>
      </trkpt>
      <trkpt lat="45.57538" lon="6.57151">
        <ele>2197.3999023438</ele>
        <time>2014-01-31T12:58:58.000Z</time>
      </trkpt>
      <trkpt lat="45.57539" lon="6.57149">
        <ele>2197.6000976562</ele>
        <time>2014-01-31T12:58:59.000Z</time>
      </trkpt>
      <trkpt lat="45.57539" lon="6.57148">
        <ele>2197.8000488281</ele>
        <time>2014-01-31T12:59:00.000Z</time>
      </trkpt>
      <trkpt lat="45.57539" lon="6.57148">
        <ele>2198</ele>
        <time>2014-01-31T12:59:01.000Z</time>
      </trkpt>
      <trkpt lat="45.5754" lon="6.57146">
        <ele>2198.1999511719</ele>
        <time>2014-01-31T12:59:02.000Z</time>
      </trkpt>
      <trkpt lat="45.5754" lon="6.57145">
        <ele>2198.3999023438</ele>
        <time>2014-01-31T12:59:03.000Z</time>
      </trkpt>
      <trkpt lat="45.57541" lon="6.57144">
        <ele>2198.3999023438</ele>
        <time>2014-01-31T12:59:04.000Z</time>
      </trkpt>
      <trkpt lat="45.57541" lon="6.57143">
        <ele>2198.6000976562</ele>
        <time>2014-01-31T12:59:05.000Z</time>
      </trkpt>
      <trkpt lat="45.57542" lon="6.57142">
        <ele>2198.6000976562</ele>
        <time>2014-01-31T12:59:06.000Z</time>
      </trkpt>
      <trkpt lat="45.57542" lon="6.57141">
        <ele>2198.8000488281</ele>
        <time>2014-01-31T12:59:07.000Z</time>
      </trkpt>
      <trkpt lat="45.57542" lon="6.5714">
        <ele>2198.8000488281</ele>
        <time>2014-01-31T12:59:08.000Z</time>
      </trkpt>
      <trkpt lat="45.57543" lon="6.5714">
        <ele>2199</ele>
        <time>2014-01-31T12:59:09.000Z</time>
      </trkpt>
      <trkpt lat="45.57543" lon="6.57139">
        <ele>2199.1999511719</ele>
        <time>2014-01-31T12:59:10.000Z</time>
      </trkpt>
      <trkpt lat="45.57543" lon="6.57139">
        <ele>2199.3999023438</ele>
        <time>2014-01-31T12:59:11.000Z</time>
      </trkpt>
      <trkpt lat="45.57543" lon="6.57138">
        <ele>2199.6000976562</ele>
        <time>2014-01-31T12:59:12.000Z</time>
      </trkpt>
      <trkpt lat="45.57543" lon="6.57138">
        <ele>2199.8000488281</ele>
        <time>2014-01-31T12:59:13.000Z</time>
      </trkpt>
      <trkpt lat="45.57543" lon="6.57138">
        <ele>2200</ele>
        <time>2014-01-31T12:59:14.000Z</time>
      </trkpt>
      <trkpt lat="45.57544" lon="6.57137">
        <ele>2200.1999511719</ele>
        <time>2014-01-31T12:59:15.000Z</time>
      </trkpt>
      <trkpt lat="45.57544" lon="6.57136">
        <ele>2200.3999023438</ele>
        <time>2014-01-31T12:59:16.000Z</time>
      </trkpt>
      <trkpt lat="45.57545" lon="6.57134">
        <ele>2200.3999023438</ele>
        <time>2014-01-31T12:59:17.000Z</time>
      </trkpt>
      <trkpt lat="45.57545" lon="6.57133">
        <ele>2200.6000976562</ele>
        <time>2014-01-31T12:59:18.000Z</time>
      </trkpt>
      <trkpt lat="45.57546" lon="6.57131">
        <ele>2200.8000488281</ele>
        <time>2014-01-31T12:59:19.000Z</time>
      </trkpt>
      <trkpt lat="45.57546" lon="6.57131">
        <ele>2201</ele>
        <time>2014-01-31T12:59:20.000Z</time>
      </trkpt>
      <trkpt lat="45.57546" lon="6.57129">
        <ele>2201.1999511719</ele>
        <time>2014-01-31T12:59:21.000Z</time>
      </trkpt>
      <trkpt lat="45.57546" lon="6.57129">
        <ele>2201.3999023438</ele>
        <time>2014-01-31T12:59:22.000Z</time>
      </trkpt>
      <trkpt lat="45.57546" lon="6.57128">
        <ele>2201.8000488281</ele>
        <time>2014-01-31T12:59:23.000Z</time>
      </trkpt>
      <trkpt lat="45.57546" lon="6.57126">
        <ele>2202</ele>
        <time>2014-01-31T12:59:24.000Z</time>
      </trkpt>
      <trkpt lat="45.57546" lon="6.57126">
        <ele>2202.1999511719</ele>
        <time>2014-01-31T12:59:25.000Z</time>
      </trkpt>
      <trkpt lat="45.57547" lon="6.57124">
        <ele>2202.1999511719</ele>
        <time>2014-01-31T12:59:26.000Z</time>
      </trkpt>
      <trkpt lat="45.57547" lon="6.57123">
        <ele>2202.3999023438</ele>
        <time>2014-01-31T12:59:27.000Z</time>
      </trkpt>
      <trkpt lat="45.57548" lon="6.57122">
        <ele>2202.6000976562</ele>
        <time>2014-01-31T12:59:28.000Z</time>
      </trkpt>
      <trkpt lat="45.57548" lon="6.57122">
        <ele>2202.8000488281</ele>
        <time>2014-01-31T12:59:29.000Z</time>
      </trkpt>
      <trkpt lat="45.57548" lon="6.57121">
        <ele>2203</ele>
        <time>2014-01-31T12:59:30.000Z</time>
      </trkpt>
      <trkpt lat="45.57549" lon="6.5712">
        <ele>2203.1999511719</ele>
        <time>2014-01-31T12:59:31.000Z</time>
      </trkpt>
      <trkpt lat="45.57549" lon="6.57119">
        <ele>2203.6000976562</ele>
        <time>2014-01-31T12:59:33.000Z</time>
      </trkpt>
      <trkpt lat="45.57549" lon="6.57118">
        <ele>2203.8000488281</ele>
        <time>2014-01-31T12:59:34.000Z</time>
      </trkpt>
      <trkpt lat="45.57549" lon="6.57117">
        <ele>2204</ele>
        <time>2014-01-31T12:59:35.000Z</time>
      </trkpt>
      <trkpt lat="45.57549" lon="6.57116">
        <ele>2204.1999511719</ele>
        <time>2014-01-31T12:59:36.000Z</time>
      </trkpt>
      <trkpt lat="45.57549" lon="6.57115">
        <ele>2204.1999511719</ele>
        <time>2014-01-31T12:59:37.000Z</time>
      </trkpt>
      <trkpt lat="45.5755" lon="6.57114">
        <ele>2204.3999023438</ele>
        <time>2014-01-31T12:59:38.000Z</time>
      </trkpt>
      <trkpt lat="45.5755" lon="6.57113">
        <ele>2204.6000976562</ele>
        <time>2014-01-31T12:59:39.000Z</time>
      </trkpt>
      <trkpt lat="45.5755" lon="6.57112">
        <ele>2204.8000488281</ele>
        <time>2014-01-31T12:59:40.000Z</time>
      </trkpt>
      <trkpt lat="45.5755" lon="6.57111">
        <ele>2205</ele>
        <time>2014-01-31T12:59:41.000Z</time>
      </trkpt>
      <trkpt lat="45.57551" lon="6.5711">
        <ele>2205.1999511719</ele>
        <time>2014-01-31T12:59:42.000Z</time>
      </trkpt>
      <trkpt lat="45.57551" lon="6.57109">
        <ele>2205.3999023438</ele>
        <time>2014-01-31T12:59:43.000Z</time>
      </trkpt>
      <trkpt lat="45.57551" lon="6.57108">
        <ele>2205.3999023438</ele>
        <time>2014-01-31T12:59:44.000Z</time>
      </trkpt>
      <trkpt lat="45.57552" lon="6.57108">
        <ele>2205.6000976562</ele>
        <time>2014-01-31T12:59:45.000Z</time>
      </trkpt>
      <trkpt lat="45.57552" lon="6.57107">
        <ele>2205.6000976562</ele>
        <time>2014-01-31T12:59:46.000Z</time>
      </trkpt>
      <trkpt lat="45.57552" lon="6.57106">
        <ele>2205.8000488281</ele>
        <time>2014-01-31T12:59:47.000Z</time>
      </trkpt>
      <trkpt lat="45.57552" lon="6.57104">
        <ele>2206</ele>
        <time>2014-01-31T12:59:48.000Z</time>
      </trkpt>
      <trkpt lat="45.57552" lon="6.57103">
        <ele>2206.6000976562</ele>
        <time>2014-01-31T12:59:49.000Z</time>
      </trkpt>
      <trkpt lat="45.57553" lon="6.57102">
        <ele>2206.8000488281</ele>
        <time>2014-01-31T12:59:50.000Z</time>
      </trkpt>
      <trkpt lat="45.57553" lon="6.57102">
        <ele>2207.1999511719</ele>
        <time>2014-01-31T12:59:51.000Z</time>
      </trkpt>
      <trkpt lat="45.57553" lon="6.57102">
        <ele>2207.6000976562</ele>
        <time>2014-01-31T12:59:52.000Z</time>
      </trkpt>
      <trkpt lat="45.57553" lon="6.57102">
        <ele>2208</ele>
        <time>2014-01-31T12:59:53.000Z</time>
      </trkpt>
      <trkpt lat="45.57554" lon="6.57101">
        <ele>2208.1999511719</ele>
        <time>2014-01-31T12:59:54.000Z</time>
      </trkpt>
      <trkpt lat="45.57554" lon="6.57101">
        <ele>2208.1999511719</ele>
        <time>2014-01-31T12:59:55.000Z</time>
      </trkpt>
      <trkpt lat="45.57554" lon="6.571">
        <ele>2208.3999023438</ele>
        <time>2014-01-31T12:59:56.000Z</time>
      </trkpt>
      <trkpt lat="45.57554" lon="6.571">
        <ele>2208.3999023438</ele>
        <time>2014-01-31T12:59:57.000Z</time>
      </trkpt>
      <trkpt lat="45.57555" lon="6.57098">
        <ele>2208.3999023438</ele>
        <time>2014-01-31T12:59:58.000Z</time>
      </trkpt>
      <trkpt lat="45.57555" lon="6.57098">
        <ele>2208.3999023438</ele>
        <time>2014-01-31T12:59:59.000Z</time>
      </trkpt>
      <trkpt lat="45.57555" lon="6.57097">
        <ele>2208.6000976562</ele>
        <time>2014-01-31T13:00:00.000Z</time>
      </trkpt>
      <trkpt lat="45.57555" lon="6.57097">
        <ele>2208.8000488281</ele>
        <time>2014-01-31T13:00:01.000Z</time>
      </trkpt>
      <trkpt lat="45.57555" lon="6.57096">
        <ele>2209</ele>
        <time>2014-01-31T13:00:02.000Z</time>
      </trkpt>
      <trkpt lat="45.57556" lon="6.57095">
        <ele>2209.1999511719</ele>
        <time>2014-01-31T13:00:03.000Z</time>
      </trkpt>
      <trkpt lat="45.57556" lon="6.57095">
        <ele>2209.3999023438</ele>
        <time>2014-01-31T13:00:04.000Z</time>
      </trkpt>
      <trkpt lat="45.57556" lon="6.57094">
        <ele>2209.6000976562</ele>
        <time>2014-01-31T13:00:05.000Z</time>
      </trkpt>
      <trkpt lat="45.57557" lon="6.57093">
        <ele>2209.8000488281</ele>
        <time>2014-01-31T13:00:06.000Z</time>
      </trkpt>
      <trkpt lat="45.57557" lon="6.57093">
        <ele>2210.1999511719</ele>
        <time>2014-01-31T13:00:07.000Z</time>
      </trkpt>
      <trkpt lat="45.57558" lon="6.57092">
        <ele>2210.1999511719</ele>
        <time>2014-01-31T13:00:08.000Z</time>
      </trkpt>
      <trkpt lat="45.57558" lon="6.57092">
        <ele>2210.3999023438</ele>
        <time>2014-01-31T13:00:09.000Z</time>
      </trkpt>
      <trkpt lat="45.57559" lon="6.57091">
        <ele>2210.8000488281</ele>
        <time>2014-01-31T13:00:11.000Z</time>
      </trkpt>
      <trkpt lat="45.57559" lon="6.57091">
        <ele>2211</ele>
        <time>2014-01-31T13:00:12.000Z</time>
      </trkpt>
      <trkpt lat="45.5756" lon="6.5709">
        <ele>2211.3999023438</ele>
        <time>2014-01-31T13:00:13.000Z</time>
      </trkpt>
      <trkpt lat="45.5756" lon="6.57089">
        <ele>2211.6000976562</ele>
        <time>2014-01-31T13:00:14.000Z</time>
      </trkpt>
      <trkpt lat="45.5756" lon="6.57089">
        <ele>2211.8000488281</ele>
        <time>2014-01-31T13:00:15.000Z</time>
      </trkpt>
      <trkpt lat="45.57561" lon="6.57088">
        <ele>2212</ele>
        <time>2014-01-31T13:00:16.000Z</time>
      </trkpt>
      <trkpt lat="45.57561" lon="6.57087">
        <ele>2212.1999511719</ele>
        <time>2014-01-31T13:00:17.000Z</time>
      </trkpt>
      <trkpt lat="45.57562" lon="6.57085">
        <ele>2212.3999023438</ele>
        <time>2014-01-31T13:00:18.000Z</time>
      </trkpt>
      <trkpt lat="45.57562" lon="6.57085">
        <ele>2212.6000976562</ele>
        <time>2014-01-31T13:00:19.000Z</time>
      </trkpt>
      <trkpt lat="45.57563" lon="6.57084">
        <ele>2212.8000488281</ele>
        <time>2014-01-31T13:00:20.000Z</time>
      </trkpt>
      <trkpt lat="45.57563" lon="6.57084">
        <ele>2213</ele>
        <time>2014-01-31T13:00:21.000Z</time>
      </trkpt>
      <trkpt lat="45.57564" lon="6.57083">
        <ele>2213</ele>
        <time>2014-01-31T13:00:22.000Z</time>
      </trkpt>
      <trkpt lat="45.57564" lon="6.57083">
        <ele>2213.1999511719</ele>
        <time>2014-01-31T13:00:23.000Z</time>
      </trkpt>
      <trkpt lat="45.57565" lon="6.57082">
        <ele>2213.3999023438</ele>
        <time>2014-01-31T13:00:24.000Z</time>
      </trkpt>
      <trkpt lat="45.57565" lon="6.57082">
        <ele>2213.6000976562</ele>
        <time>2014-01-31T13:00:25.000Z</time>
      </trkpt>
      <trkpt lat="45.57566" lon="6.57081">
        <ele>2213.8000488281</ele>
        <time>2014-01-31T13:00:26.000Z</time>
      </trkpt>
      <trkpt lat="45.57566" lon="6.5708">
        <ele>2214</ele>
        <time>2014-01-31T13:00:27.000Z</time>
      </trkpt>
      <trkpt lat="45.57566" lon="6.5708">
        <ele>2214.1999511719</ele>
        <time>2014-01-31T13:00:28.000Z</time>
      </trkpt>
      <trkpt lat="45.57566" lon="6.57079">
        <ele>2214.3999023438</ele>
        <time>2014-01-31T13:00:29.000Z</time>
      </trkpt>
      <trkpt lat="45.57566" lon="6.57079">
        <ele>2214.3999023438</ele>
        <time>2014-01-31T13:00:30.000Z</time>
      </trkpt>
      <trkpt lat="45.57566" lon="6.57079">
        <ele>2214.8000488281</ele>
        <time>2014-01-31T13:00:31.000Z</time>
      </trkpt>
      <trkpt lat="45.57566" lon="6.57079">
        <ele>2214.8000488281</ele>
        <time>2014-01-31T13:00:32.000Z</time>
      </trkpt>
      <trkpt lat="45.57566" lon="6.57079">
        <ele>2215</ele>
        <time>2014-01-31T13:00:33.000Z</time>
      </trkpt>
      <trkpt lat="45.57566" lon="6.5708">
        <ele>2215.1999511719</ele>
        <time>2014-01-31T13:00:34.000Z</time>
      </trkpt>
      <trkpt lat="45.57566" lon="6.5708">
        <ele>2215.3999023438</ele>
        <time>2014-01-31T13:00:35.000Z</time>
      </trkpt>
      <trkpt lat="45.57566" lon="6.57081">
        <ele>2215.8000488281</ele>
        <time>2014-01-31T13:00:36.000Z</time>
      </trkpt>
      <trkpt lat="45.57566" lon="6.57082">
        <ele>2216</ele>
        <time>2014-01-31T13:00:37.000Z</time>
      </trkpt>
      <trkpt lat="45.57566" lon="6.57082">
        <ele>2216.1999511719</ele>
        <time>2014-01-31T13:00:38.000Z</time>
      </trkpt>
      <trkpt lat="45.57568" lon="6.57085">
        <ele>2216</ele>
        <time>2014-01-31T13:00:41.000Z</time>
      </trkpt>
      <trkpt lat="45.57568" lon="6.57085">
        <ele>2215.8000488281</ele>
        <time>2014-01-31T13:00:42.000Z</time>
      </trkpt>
      <trkpt lat="45.57569" lon="6.57085">
        <ele>2215.8000488281</ele>
        <time>2014-01-31T13:00:43.000Z</time>
      </trkpt>
      <trkpt lat="45.57569" lon="6.57087">
        <ele>2216</ele>
        <time>2014-01-31T13:00:44.000Z</time>
      </trkpt>
      <trkpt lat="45.5757" lon="6.57087">
        <ele>2216</ele>
        <time>2014-01-31T13:00:45.000Z</time>
      </trkpt>
      <trkpt lat="45.57571" lon="6.57087">
        <ele>2216.1999511719</ele>
        <time>2014-01-31T13:00:46.000Z</time>
      </trkpt>
      <trkpt lat="45.57571" lon="6.57088">
        <ele>2216.1999511719</ele>
        <time>2014-01-31T13:00:47.000Z</time>
      </trkpt>
      <trkpt lat="45.57571" lon="6.57088">
        <ele>2216.3999023438</ele>
        <time>2014-01-31T13:00:48.000Z</time>
      </trkpt>
      <trkpt lat="45.57572" lon="6.5709">
        <ele>2216.6000976562</ele>
        <time>2014-01-31T13:00:49.000Z</time>
      </trkpt>
      <trkpt lat="45.57572" lon="6.5709">
        <ele>2216.8000488281</ele>
        <time>2014-01-31T13:00:50.000Z</time>
      </trkpt>
      <trkpt lat="45.57573" lon="6.57091">
        <ele>2217</ele>
        <time>2014-01-31T13:00:51.000Z</time>
      </trkpt>
      <trkpt lat="45.57573" lon="6.57092">
        <ele>2217.1999511719</ele>
        <time>2014-01-31T13:00:52.000Z</time>
      </trkpt>
      <trkpt lat="45.57574" lon="6.57093">
        <ele>2217.6000976562</ele>
        <time>2014-01-31T13:00:53.000Z</time>
      </trkpt>
      <trkpt lat="45.57574" lon="6.57093">
        <ele>2217.8000488281</ele>
        <time>2014-01-31T13:00:54.000Z</time>
      </trkpt>
      <trkpt lat="45.57574" lon="6.57094">
        <ele>2218</ele>
        <time>2014-01-31T13:00:55.000Z</time>
      </trkpt>
      <trkpt lat="45.57575" lon="6.57096">
        <ele>2218.1999511719</ele>
        <time>2014-01-31T13:00:56.000Z</time>
      </trkpt>
      <trkpt lat="45.57576" lon="6.57096">
        <ele>2218.1999511719</ele>
        <time>2014-01-31T13:00:57.000Z</time>
      </trkpt>
      <trkpt lat="45.57576" lon="6.57097">
        <ele>2218.3999023438</ele>
        <time>2014-01-31T13:00:58.000Z</time>
      </trkpt>
      <trkpt lat="45.57576" lon="6.57098">
        <ele>2218.3999023438</ele>
        <time>2014-01-31T13:00:59.000Z</time>
      </trkpt>
      <trkpt lat="45.57577" lon="6.57099">
        <ele>2218.6000976562</ele>
        <time>2014-01-31T13:01:00.000Z</time>
      </trkpt>
      <trkpt lat="45.57577" lon="6.57099">
        <ele>2218.6000976562</ele>
        <time>2014-01-31T13:01:01.000Z</time>
      </trkpt>
      <trkpt lat="45.57578" lon="6.571">
        <ele>2219</ele>
        <time>2014-01-31T13:01:02.000Z</time>
      </trkpt>
      <trkpt lat="45.57578" lon="6.571">
        <ele>2219.1999511719</ele>
        <time>2014-01-31T13:01:03.000Z</time>
      </trkpt>
      <trkpt lat="45.57578" lon="6.57101">
        <ele>2219.3999023438</ele>
        <time>2014-01-31T13:01:04.000Z</time>
      </trkpt>
      <trkpt lat="45.57579" lon="6.57101">
        <ele>2219.6000976562</ele>
        <time>2014-01-31T13:01:05.000Z</time>
      </trkpt>
      <trkpt lat="45.57579" lon="6.57101">
        <ele>2219.8000488281</ele>
        <time>2014-01-31T13:01:06.000Z</time>
      </trkpt>
      <trkpt lat="45.57579" lon="6.57101">
        <ele>2220</ele>
        <time>2014-01-31T13:01:07.000Z</time>
      </trkpt>
      <trkpt lat="45.57579" lon="6.57101">
        <ele>2220.1999511719</ele>
        <time>2014-01-31T13:01:08.000Z</time>
      </trkpt>
      <trkpt lat="45.57579" lon="6.57101">
        <ele>2220.3999023438</ele>
        <time>2014-01-31T13:01:09.000Z</time>
      </trkpt>
      <trkpt lat="45.57579" lon="6.57101">
        <ele>2220.3999023438</ele>
        <time>2014-01-31T13:01:10.000Z</time>
      </trkpt>
      <trkpt lat="45.57579" lon="6.57101">
        <ele>2220.6000976562</ele>
        <time>2014-01-31T13:01:11.000Z</time>
      </trkpt>
      <trkpt lat="45.57579" lon="6.571">
        <ele>2220.3999023438</ele>
        <time>2014-01-31T13:01:12.000Z</time>
      </trkpt>
      <trkpt lat="45.57579" lon="6.57099">
        <ele>2220.3999023438</ele>
        <time>2014-01-31T13:01:13.000Z</time>
      </trkpt>
      <trkpt lat="45.57578" lon="6.57097">
        <ele>2220.3999023438</ele>
        <time>2014-01-31T13:01:14.000Z</time>
      </trkpt>
      <trkpt lat="45.57578" lon="6.57096">
        <ele>2220.3999023438</ele>
        <time>2014-01-31T13:01:15.000Z</time>
      </trkpt>
      <trkpt lat="45.57578" lon="6.57094">
        <ele>2220.3999023438</ele>
        <time>2014-01-31T13:01:16.000Z</time>
      </trkpt>
      <trkpt lat="45.57578" lon="6.57094">
        <ele>2220.3999023438</ele>
        <time>2014-01-31T13:01:17.000Z</time>
      </trkpt>
      <trkpt lat="45.57578" lon="6.57093">
        <ele>2220.8000488281</ele>
        <time>2014-01-31T13:01:18.000Z</time>
      </trkpt>
      <trkpt lat="45.57579" lon="6.57092">
        <ele>2221</ele>
        <time>2014-01-31T13:01:19.000Z</time>
      </trkpt>
      <trkpt lat="45.57579" lon="6.57091">
        <ele>2221.1999511719</ele>
        <time>2014-01-31T13:01:20.000Z</time>
      </trkpt>
      <trkpt lat="45.5758" lon="6.5709">
        <ele>2221.1999511719</ele>
        <time>2014-01-31T13:01:21.000Z</time>
      </trkpt>
      <trkpt lat="45.57579" lon="6.5709">
        <ele>2221.1999511719</ele>
        <time>2014-01-31T13:01:22.000Z</time>
      </trkpt>
      <trkpt lat="45.57579" lon="6.57089">
        <ele>2221.3999023438</ele>
        <time>2014-01-31T13:01:23.000Z</time>
      </trkpt>
      <trkpt lat="45.57579" lon="6.57088">
        <ele>2221.3999023438</ele>
        <time>2014-01-31T13:01:24.000Z</time>
      </trkpt>
      <trkpt lat="45.57579" lon="6.57088">
        <ele>2221.6000976562</ele>
        <time>2014-01-31T13:01:25.000Z</time>
      </trkpt>
      <trkpt lat="45.57579" lon="6.57088">
        <ele>2222.1999511719</ele>
        <time>2014-01-31T13:01:26.000Z</time>
      </trkpt>
      <trkpt lat="45.57579" lon="6.57087">
        <ele>2222.3999023438</ele>
        <time>2014-01-31T13:01:27.000Z</time>
      </trkpt>
      <trkpt lat="45.5758" lon="6.57085">
        <ele>2222.6000976562</ele>
        <time>2014-01-31T13:01:28.000Z</time>
      </trkpt>
      <trkpt lat="45.57581" lon="6.57085">
        <ele>2222.8000488281</ele>
        <time>2014-01-31T13:01:29.000Z</time>
      </trkpt>
      <trkpt lat="45.57582" lon="6.57083">
        <ele>2223</ele>
        <time>2014-01-31T13:01:30.000Z</time>
      </trkpt>
      <trkpt lat="45.57582" lon="6.57083">
        <ele>2223.1999511719</ele>
        <time>2014-01-31T13:01:31.000Z</time>
      </trkpt>
      <trkpt lat="45.57582" lon="6.57083">
        <ele>2223.1999511719</ele>
        <time>2014-01-31T13:01:32.000Z</time>
      </trkpt>
      <trkpt lat="45.57582" lon="6.57082">
        <ele>2223.3999023438</ele>
        <time>2014-01-31T13:01:33.000Z</time>
      </trkpt>
      <trkpt lat="45.57582" lon="6.57082">
        <ele>2223.6000976562</ele>
        <time>2014-01-31T13:01:34.000Z</time>
      </trkpt>
      <trkpt lat="45.57583" lon="6.5708">
        <ele>2223.8000488281</ele>
        <time>2014-01-31T13:01:35.000Z</time>
      </trkpt>
      <trkpt lat="45.57583" lon="6.5708">
        <ele>2224</ele>
        <time>2014-01-31T13:01:36.000Z</time>
      </trkpt>
      <trkpt lat="45.57584" lon="6.57078">
        <ele>2224.3999023438</ele>
        <time>2014-01-31T13:01:37.000Z</time>
      </trkpt>
      <trkpt lat="45.57584" lon="6.57078">
        <ele>2224.6000976562</ele>
        <time>2014-01-31T13:01:38.000Z</time>
      </trkpt>
      <trkpt lat="45.57584" lon="6.57076">
        <ele>2224.8000488281</ele>
        <time>2014-01-31T13:01:39.000Z</time>
      </trkpt>
      <trkpt lat="45.57584" lon="6.57076">
        <ele>2225.1999511719</ele>
        <time>2014-01-31T13:01:40.000Z</time>
      </trkpt>
      <trkpt lat="45.57585" lon="6.57075">
        <ele>2225.3999023438</ele>
        <time>2014-01-31T13:01:41.000Z</time>
      </trkpt>
      <trkpt lat="45.57585" lon="6.57075">
        <ele>2225.6000976562</ele>
        <time>2014-01-31T13:01:42.000Z</time>
      </trkpt>
      <trkpt lat="45.57585" lon="6.57075">
        <ele>2225.8000488281</ele>
        <time>2014-01-31T13:01:43.000Z</time>
      </trkpt>
      <trkpt lat="45.57585" lon="6.57074">
        <ele>2225.8000488281</ele>
        <time>2014-01-31T13:01:44.000Z</time>
      </trkpt>
      <trkpt lat="45.57585" lon="6.57073">
        <ele>2226</ele>
        <time>2014-01-31T13:01:45.000Z</time>
      </trkpt>
      <trkpt lat="45.57586" lon="6.57073">
        <ele>2226.1999511719</ele>
        <time>2014-01-31T13:01:46.000Z</time>
      </trkpt>
      <trkpt lat="45.57586" lon="6.57072">
        <ele>2226.1999511719</ele>
        <time>2014-01-31T13:01:47.000Z</time>
      </trkpt>
      <trkpt lat="45.57587" lon="6.57071">
        <ele>2226.3999023438</ele>
        <time>2014-01-31T13:01:48.000Z</time>
      </trkpt>
      <trkpt lat="45.57588" lon="6.57071">
        <ele>2226.3999023438</ele>
        <time>2014-01-31T13:01:49.000Z</time>
      </trkpt>
      <trkpt lat="45.57588" lon="6.57071">
        <ele>2226.8000488281</ele>
        <time>2014-01-31T13:01:50.000Z</time>
      </trkpt>
      <trkpt lat="45.57588" lon="6.57071">
        <ele>2227</ele>
        <time>2014-01-31T13:01:51.000Z</time>
      </trkpt>
      <trkpt lat="45.57588" lon="6.57071">
        <ele>2227.1999511719</ele>
        <time>2014-01-31T13:01:52.000Z</time>
      </trkpt>
      <trkpt lat="45.57588" lon="6.57072">
        <ele>2227.3999023438</ele>
        <time>2014-01-31T13:01:53.000Z</time>
      </trkpt>
      <trkpt lat="45.57588" lon="6.57072">
        <ele>2227.6000976562</ele>
        <time>2014-01-31T13:01:54.000Z</time>
      </trkpt>
      <trkpt lat="45.57588" lon="6.57072">
        <ele>2227.6000976562</ele>
        <time>2014-01-31T13:01:55.000Z</time>
      </trkpt>
      <trkpt lat="45.57588" lon="6.57073">
        <ele>2227.8000488281</ele>
        <time>2014-01-31T13:01:56.000Z</time>
      </trkpt>
      <trkpt lat="45.57589" lon="6.57073">
        <ele>2227.8000488281</ele>
        <time>2014-01-31T13:01:57.000Z</time>
      </trkpt>
      <trkpt lat="45.57589" lon="6.57074">
        <ele>2227.8000488281</ele>
        <time>2014-01-31T13:01:58.000Z</time>
      </trkpt>
      <trkpt lat="45.57589" lon="6.57074">
        <ele>2228</ele>
        <time>2014-01-31T13:01:59.000Z</time>
      </trkpt>
      <trkpt lat="45.57589" lon="6.57075">
        <ele>2227.8000488281</ele>
        <time>2014-01-31T13:02:00.000Z</time>
      </trkpt>
      <trkpt lat="45.5759" lon="6.57077">
        <ele>2228</ele>
        <time>2014-01-31T13:02:01.000Z</time>
      </trkpt>
      <trkpt lat="45.57591" lon="6.57079">
        <ele>2228</ele>
        <time>2014-01-31T13:02:03.000Z</time>
      </trkpt>
      <trkpt lat="45.57591" lon="6.57079">
        <ele>2228.1999511719</ele>
        <time>2014-01-31T13:02:04.000Z</time>
      </trkpt>
      <trkpt lat="45.57592" lon="6.5708">
        <ele>2228.3999023438</ele>
        <time>2014-01-31T13:02:05.000Z</time>
      </trkpt>
      <trkpt lat="45.57592" lon="6.5708">
        <ele>2228.6000976562</ele>
        <time>2014-01-31T13:02:06.000Z</time>
      </trkpt>
      <trkpt lat="45.57592" lon="6.5708">
        <ele>2228.8000488281</ele>
        <time>2014-01-31T13:02:07.000Z</time>
      </trkpt>
      <trkpt lat="45.57593" lon="6.5708">
        <ele>2229</ele>
        <time>2014-01-31T13:02:08.000Z</time>
      </trkpt>
      <trkpt lat="45.57593" lon="6.57081">
        <ele>2229.1999511719</ele>
        <time>2014-01-31T13:02:09.000Z</time>
      </trkpt>
      <trkpt lat="45.57595" lon="6.57082">
        <ele>2229.1999511719</ele>
        <time>2014-01-31T13:02:10.000Z</time>
      </trkpt>
      <trkpt lat="45.57595" lon="6.57082">
        <ele>2229.3999023438</ele>
        <time>2014-01-31T13:02:11.000Z</time>
      </trkpt>
      <trkpt lat="45.57596" lon="6.57083">
        <ele>2229.6000976562</ele>
        <time>2014-01-31T13:02:12.000Z</time>
      </trkpt>
      <trkpt lat="45.57596" lon="6.57083">
        <ele>2229.6000976562</ele>
        <time>2014-01-31T13:02:13.000Z</time>
      </trkpt>
      <trkpt lat="45.57597" lon="6.57083">
        <ele>2230</ele>
        <time>2014-01-31T13:02:14.000Z</time>
      </trkpt>
      <trkpt lat="45.57598" lon="6.57084">
        <ele>2230.3999023438</ele>
        <time>2014-01-31T13:02:15.000Z</time>
      </trkpt>
      <trkpt lat="45.57598" lon="6.57084">
        <ele>2230.6000976562</ele>
        <time>2014-01-31T13:02:16.000Z</time>
      </trkpt>
      <trkpt lat="45.576" lon="6.57085">
        <ele>2230.8000488281</ele>
        <time>2014-01-31T13:02:17.000Z</time>
      </trkpt>
      <trkpt lat="45.576" lon="6.57085">
        <ele>2231</ele>
        <time>2014-01-31T13:02:18.000Z</time>
      </trkpt>
      <trkpt lat="45.57601" lon="6.57085">
        <ele>2231.1999511719</ele>
        <time>2014-01-31T13:02:19.000Z</time>
      </trkpt>
      <trkpt lat="45.57602" lon="6.57085">
        <ele>2231.3999023438</ele>
        <time>2014-01-31T13:02:20.000Z</time>
      </trkpt>
      <trkpt lat="45.57603" lon="6.57085">
        <ele>2231.3999023438</ele>
        <time>2014-01-31T13:02:21.000Z</time>
      </trkpt>
      <trkpt lat="45.57603" lon="6.57086">
        <ele>2231.3999023438</ele>
        <time>2014-01-31T13:02:22.000Z</time>
      </trkpt>
      <trkpt lat="45.57604" lon="6.57086">
        <ele>2231.6000976562</ele>
        <time>2014-01-31T13:02:23.000Z</time>
      </trkpt>
      <trkpt lat="45.57605" lon="6.57086">
        <ele>2231.8000488281</ele>
        <time>2014-01-31T13:02:24.000Z</time>
      </trkpt>
      <trkpt lat="45.57606" lon="6.57086">
        <ele>2231.8000488281</ele>
        <time>2014-01-31T13:02:25.000Z</time>
      </trkpt>
      <trkpt lat="45.57606" lon="6.57085">
        <ele>2232</ele>
        <time>2014-01-31T13:02:26.000Z</time>
      </trkpt>
      <trkpt lat="45.57607" lon="6.57085">
        <ele>2232.1999511719</ele>
        <time>2014-01-31T13:02:27.000Z</time>
      </trkpt>
      <trkpt lat="45.57607" lon="6.57084">
        <ele>2232.3999023438</ele>
        <time>2014-01-31T13:02:28.000Z</time>
      </trkpt>
      <trkpt lat="45.57607" lon="6.57083">
        <ele>2232.6000976562</ele>
        <time>2014-01-31T13:02:29.000Z</time>
      </trkpt>
      <trkpt lat="45.57607" lon="6.57082">
        <ele>2232.8000488281</ele>
        <time>2014-01-31T13:02:30.000Z</time>
      </trkpt>
      <trkpt lat="45.57606" lon="6.57081">
        <ele>2232.8000488281</ele>
        <time>2014-01-31T13:02:31.000Z</time>
      </trkpt>
      <trkpt lat="45.57606" lon="6.5708">
        <ele>2233</ele>
        <time>2014-01-31T13:02:32.000Z</time>
      </trkpt>
      <trkpt lat="45.57606" lon="6.5708">
        <ele>2233.1999511719</ele>
        <time>2014-01-31T13:02:33.000Z</time>
      </trkpt>
      <trkpt lat="45.57606" lon="6.5708">
        <ele>2233.3999023438</ele>
        <time>2014-01-31T13:02:34.000Z</time>
      </trkpt>
      <trkpt lat="45.57606" lon="6.57079">
        <ele>2233.6000976562</ele>
        <time>2014-01-31T13:02:35.000Z</time>
      </trkpt>
      <trkpt lat="45.57606" lon="6.57078">
        <ele>2233.8000488281</ele>
        <time>2014-01-31T13:02:36.000Z</time>
      </trkpt>
      <trkpt lat="45.57607" lon="6.57076">
        <ele>2234</ele>
        <time>2014-01-31T13:02:37.000Z</time>
      </trkpt>
      <trkpt lat="45.57607" lon="6.57075">
        <ele>2234.1999511719</ele>
        <time>2014-01-31T13:02:38.000Z</time>
      </trkpt>
      <trkpt lat="45.57607" lon="6.57073">
        <ele>2234.1999511719</ele>
        <time>2014-01-31T13:02:39.000Z</time>
      </trkpt>
      <trkpt lat="45.57607" lon="6.57073">
        <ele>2234.3999023438</ele>
        <time>2014-01-31T13:02:40.000Z</time>
      </trkpt>
      <trkpt lat="45.57607" lon="6.57072">
        <ele>2234.8000488281</ele>
        <time>2014-01-31T13:02:41.000Z</time>
      </trkpt>
      <trkpt lat="45.57607" lon="6.57072">
        <ele>2235</ele>
        <time>2014-01-31T13:02:42.000Z</time>
      </trkpt>
      <trkpt lat="45.57607" lon="6.57071">
        <ele>2235.1999511719</ele>
        <time>2014-01-31T13:02:43.000Z</time>
      </trkpt>
      <trkpt lat="45.57608" lon="6.5707">
        <ele>2235.6000976562</ele>
        <time>2014-01-31T13:02:44.000Z</time>
      </trkpt>
      <trkpt lat="45.57607" lon="6.57069">
        <ele>2235.8000488281</ele>
        <time>2014-01-31T13:02:45.000Z</time>
      </trkpt>
      <trkpt lat="45.57608" lon="6.57068">
        <ele>2236.1999511719</ele>
        <time>2014-01-31T13:02:46.000Z</time>
      </trkpt>
      <trkpt lat="45.57608" lon="6.57067">
        <ele>2236.3999023438</ele>
        <time>2014-01-31T13:02:47.000Z</time>
      </trkpt>
      <trkpt lat="45.57608" lon="6.57065">
        <ele>2236.6000976562</ele>
        <time>2014-01-31T13:02:48.000Z</time>
      </trkpt>
      <trkpt lat="45.57608" lon="6.57065">
        <ele>2236.6000976562</ele>
        <time>2014-01-31T13:02:49.000Z</time>
      </trkpt>
      <trkpt lat="45.57608" lon="6.57063">
        <ele>2236.8000488281</ele>
        <time>2014-01-31T13:02:50.000Z</time>
      </trkpt>
      <trkpt lat="45.57608" lon="6.57062">
        <ele>2236.8000488281</ele>
        <time>2014-01-31T13:02:51.000Z</time>
      </trkpt>
      <trkpt lat="45.57608" lon="6.57061">
        <ele>2236.8000488281</ele>
        <time>2014-01-31T13:02:52.000Z</time>
      </trkpt>
      <trkpt lat="45.57608" lon="6.5706">
        <ele>2237</ele>
        <time>2014-01-31T13:02:53.000Z</time>
      </trkpt>
      <trkpt lat="45.57608" lon="6.5706">
        <ele>2237.1999511719</ele>
        <time>2014-01-31T13:02:54.000Z</time>
      </trkpt>
      <trkpt lat="45.57608" lon="6.5706">
        <ele>2237.3999023438</ele>
        <time>2014-01-31T13:02:55.000Z</time>
      </trkpt>
      <trkpt lat="45.57608" lon="6.57059">
        <ele>2237.6000976562</ele>
        <time>2014-01-31T13:02:56.000Z</time>
      </trkpt>
      <trkpt lat="45.57608" lon="6.57059">
        <ele>2238</ele>
        <time>2014-01-31T13:02:57.000Z</time>
      </trkpt>
      <trkpt lat="45.57609" lon="6.57058">
        <ele>2238.1999511719</ele>
        <time>2014-01-31T13:02:58.000Z</time>
      </trkpt>
      <trkpt lat="45.57609" lon="6.57056">
        <ele>2238.3999023438</ele>
        <time>2014-01-31T13:02:59.000Z</time>
      </trkpt>
      <trkpt lat="45.57609" lon="6.57054">
        <ele>2238.6000976562</ele>
        <time>2014-01-31T13:03:00.000Z</time>
      </trkpt>
      <trkpt lat="45.5761" lon="6.57054">
        <ele>2238.8000488281</ele>
        <time>2014-01-31T13:03:01.000Z</time>
      </trkpt>
      <trkpt lat="45.5761" lon="6.57052">
        <ele>2239</ele>
        <time>2014-01-31T13:03:02.000Z</time>
      </trkpt>
      <trkpt lat="45.5761" lon="6.57052">
        <ele>2239.1999511719</ele>
        <time>2014-01-31T13:03:03.000Z</time>
      </trkpt>
      <trkpt lat="45.57611" lon="6.57051">
        <ele>2239.1999511719</ele>
        <time>2014-01-31T13:03:04.000Z</time>
      </trkpt>
      <trkpt lat="45.57611" lon="6.57051">
        <ele>2239.6000976562</ele>
        <time>2014-01-31T13:03:05.000Z</time>
      </trkpt>
      <trkpt lat="45.57611" lon="6.5705">
        <ele>2239.6000976562</ele>
        <time>2014-01-31T13:03:06.000Z</time>
      </trkpt>
      <trkpt lat="45.57612" lon="6.57049">
        <ele>2239.8000488281</ele>
        <time>2014-01-31T13:03:07.000Z</time>
      </trkpt>
      <trkpt lat="45.57612" lon="6.57049">
        <ele>2239.8000488281</ele>
        <time>2014-01-31T13:03:08.000Z</time>
      </trkpt>
      <trkpt lat="45.57612" lon="6.57048">
        <ele>2240</ele>
        <time>2014-01-31T13:03:09.000Z</time>
      </trkpt>
      <trkpt lat="45.57612" lon="6.57047">
        <ele>2240.3999023438</ele>
        <time>2014-01-31T13:03:10.000Z</time>
      </trkpt>
      <trkpt lat="45.57612" lon="6.57046">
        <ele>2240.6000976562</ele>
        <time>2014-01-31T13:03:11.000Z</time>
      </trkpt>
      <trkpt lat="45.57612" lon="6.57045">
        <ele>2241</ele>
        <time>2014-01-31T13:03:12.000Z</time>
      </trkpt>
      <trkpt lat="45.57612" lon="6.57045">
        <ele>2241.1999511719</ele>
        <time>2014-01-31T13:03:13.000Z</time>
      </trkpt>
      <trkpt lat="45.57612" lon="6.57045">
        <ele>2241.3999023438</ele>
        <time>2014-01-31T13:03:14.000Z</time>
      </trkpt>
      <trkpt lat="45.57612" lon="6.57045">
        <ele>2241.6000976562</ele>
        <time>2014-01-31T13:03:15.000Z</time>
      </trkpt>
      <trkpt lat="45.57612" lon="6.57045">
        <ele>2241.6000976562</ele>
        <time>2014-01-31T13:03:16.000Z</time>
      </trkpt>
      <trkpt lat="45.57612" lon="6.57045">
        <ele>2241.8000488281</ele>
        <time>2014-01-31T13:03:17.000Z</time>
      </trkpt>
      <trkpt lat="45.57612" lon="6.57045">
        <ele>2241.8000488281</ele>
        <time>2014-01-31T13:03:18.000Z</time>
      </trkpt>
      <trkpt lat="45.57612" lon="6.57045">
        <ele>2241.8000488281</ele>
        <time>2014-01-31T13:03:19.000Z</time>
      </trkpt>
      <trkpt lat="45.57612" lon="6.57045">
        <ele>2241.8000488281</ele>
        <time>2014-01-31T13:03:20.000Z</time>
      </trkpt>
      <trkpt lat="45.57612" lon="6.57045">
        <ele>2241.8000488281</ele>
        <time>2014-01-31T13:03:21.000Z</time>
      </trkpt>
      <trkpt lat="45.57612" lon="6.57045">
        <ele>2241.8000488281</ele>
        <time>2014-01-31T13:03:22.000Z</time>
      </trkpt>
      <trkpt lat="45.57612" lon="6.57045">
        <ele>2241.8000488281</ele>
        <time>2014-01-31T13:03:23.000Z</time>
      </trkpt>
      <trkpt lat="45.57612" lon="6.57045">
        <ele>2241.8000488281</ele>
        <time>2014-01-31T13:03:25.000Z</time>
      </trkpt>
      <trkpt lat="45.57612" lon="6.57045">
        <ele>2241.8000488281</ele>
        <time>2014-01-31T13:03:26.000Z</time>
      </trkpt>
      <trkpt lat="45.57612" lon="6.57045">
        <ele>2241.8000488281</ele>
        <time>2014-01-31T13:03:27.000Z</time>
      </trkpt>
      <trkpt lat="45.57612" lon="6.57045">
        <ele>2241.8000488281</ele>
        <time>2014-01-31T13:03:28.000Z</time>
      </trkpt>
      <trkpt lat="45.57612" lon="6.57045">
        <ele>2241.8000488281</ele>
        <time>2014-01-31T13:03:29.000Z</time>
      </trkpt>
      <trkpt lat="45.57612" lon="6.57045">
        <ele>2241.8000488281</ele>
        <time>2014-01-31T13:03:33.000Z</time>
      </trkpt>
      <trkpt lat="45.57613" lon="6.57044">
        <ele>2241.8000488281</ele>
        <time>2014-01-31T13:03:34.000Z</time>
      </trkpt>
      <trkpt lat="45.57613" lon="6.57042">
        <ele>2242</ele>
        <time>2014-01-31T13:03:35.000Z</time>
      </trkpt>
      <trkpt lat="45.57614" lon="6.57042">
        <ele>2242</ele>
        <time>2014-01-31T13:03:36.000Z</time>
      </trkpt>
      <trkpt lat="45.57615" lon="6.57041">
        <ele>2242.1999511719</ele>
        <time>2014-01-31T13:03:37.000Z</time>
      </trkpt>
      <trkpt lat="45.57615" lon="6.57039">
        <ele>2242.3999023438</ele>
        <time>2014-01-31T13:03:38.000Z</time>
      </trkpt>
      <trkpt lat="45.57615" lon="6.57039">
        <ele>2242.6000976562</ele>
        <time>2014-01-31T13:03:39.000Z</time>
      </trkpt>
      <trkpt lat="45.57616" lon="6.57037">
        <ele>2242.8000488281</ele>
        <time>2014-01-31T13:03:40.000Z</time>
      </trkpt>
      <trkpt lat="45.57616" lon="6.57037">
        <ele>2243</ele>
        <time>2014-01-31T13:03:41.000Z</time>
      </trkpt>
      <trkpt lat="45.57617" lon="6.57036">
        <ele>2243.1999511719</ele>
        <time>2014-01-31T13:03:42.000Z</time>
      </trkpt>
      <trkpt lat="45.57617" lon="6.57035">
        <ele>2243.6000976562</ele>
        <time>2014-01-31T13:03:43.000Z</time>
      </trkpt>
      <trkpt lat="45.57617" lon="6.57034">
        <ele>2243.8000488281</ele>
        <time>2014-01-31T13:03:44.000Z</time>
      </trkpt>
      <trkpt lat="45.57618" lon="6.57032">
        <ele>2243.8000488281</ele>
        <time>2014-01-31T13:03:45.000Z</time>
      </trkpt>
      <trkpt lat="45.57618" lon="6.57032">
        <ele>2244</ele>
        <time>2014-01-31T13:03:46.000Z</time>
      </trkpt>
      <trkpt lat="45.57619" lon="6.57031">
        <ele>2244</ele>
        <time>2014-01-31T13:03:47.000Z</time>
      </trkpt>
      <trkpt lat="45.57619" lon="6.5703">
        <ele>2244.1999511719</ele>
        <time>2014-01-31T13:03:48.000Z</time>
      </trkpt>
      <trkpt lat="45.57619" lon="6.5703">
        <ele>2244.3999023438</ele>
        <time>2014-01-31T13:03:49.000Z</time>
      </trkpt>
      <trkpt lat="45.5762" lon="6.57029">
        <ele>2245</ele>
        <time>2014-01-31T13:03:50.000Z</time>
      </trkpt>
      <trkpt lat="45.5762" lon="6.57029">
        <ele>2245.3999023438</ele>
        <time>2014-01-31T13:03:51.000Z</time>
      </trkpt>
      <trkpt lat="45.57621" lon="6.57027">
        <ele>2245.6000976562</ele>
        <time>2014-01-31T13:03:52.000Z</time>
      </trkpt>
      <trkpt lat="45.57621" lon="6.57026">
        <ele>2245.8000488281</ele>
        <time>2014-01-31T13:03:53.000Z</time>
      </trkpt>
      <trkpt lat="45.57622" lon="6.57024">
        <ele>2246</ele>
        <time>2014-01-31T13:03:54.000Z</time>
      </trkpt>
      <trkpt lat="45.57621" lon="6.57023">
        <ele>2246</ele>
        <time>2014-01-31T13:03:55.000Z</time>
      </trkpt>
      <trkpt lat="45.57622" lon="6.57022">
        <ele>2246.1999511719</ele>
        <time>2014-01-31T13:03:56.000Z</time>
      </trkpt>
      <trkpt lat="45.57622" lon="6.57022">
        <ele>2246.3999023438</ele>
        <time>2014-01-31T13:03:57.000Z</time>
      </trkpt>
      <trkpt lat="45.57622" lon="6.57021">
        <ele>2246.6000976562</ele>
        <time>2014-01-31T13:03:58.000Z</time>
      </trkpt>
      <trkpt lat="45.57623" lon="6.57019">
        <ele>2246.8000488281</ele>
        <time>2014-01-31T13:03:59.000Z</time>
      </trkpt>
      <trkpt lat="45.57623" lon="6.57019">
        <ele>2247</ele>
        <time>2014-01-31T13:04:00.000Z</time>
      </trkpt>
      <trkpt lat="45.57624" lon="6.57017">
        <ele>2247.1999511719</ele>
        <time>2014-01-31T13:04:01.000Z</time>
      </trkpt>
      <trkpt lat="45.57624" lon="6.57017">
        <ele>2247.3999023438</ele>
        <time>2014-01-31T13:04:02.000Z</time>
      </trkpt>
      <trkpt lat="45.57624" lon="6.57016">
        <ele>2247.6000976562</ele>
        <time>2014-01-31T13:04:03.000Z</time>
      </trkpt>
      <trkpt lat="45.57625" lon="6.57015">
        <ele>2247.8000488281</ele>
        <time>2014-01-31T13:04:04.000Z</time>
      </trkpt>
      <trkpt lat="45.57625" lon="6.57014">
        <ele>2247.8000488281</ele>
        <time>2014-01-31T13:04:05.000Z</time>
      </trkpt>
      <trkpt lat="45.57625" lon="6.57012">
        <ele>2248</ele>
        <time>2014-01-31T13:04:06.000Z</time>
      </trkpt>
      <trkpt lat="45.57625" lon="6.57012">
        <ele>2248.1999511719</ele>
        <time>2014-01-31T13:04:07.000Z</time>
      </trkpt>
      <trkpt lat="45.57625" lon="6.57011">
        <ele>2248.3999023438</ele>
        <time>2014-01-31T13:04:08.000Z</time>
      </trkpt>
      <trkpt lat="45.57625" lon="6.57011">
        <ele>2248.6000976562</ele>
        <time>2014-01-31T13:04:09.000Z</time>
      </trkpt>
      <trkpt lat="45.57625" lon="6.57011">
        <ele>2249</ele>
        <time>2014-01-31T13:04:10.000Z</time>
      </trkpt>
      <trkpt lat="45.57626" lon="6.57009">
        <ele>2249.1999511719</ele>
        <time>2014-01-31T13:04:11.000Z</time>
      </trkpt>
      <trkpt lat="45.57626" lon="6.57009">
        <ele>2249.3999023438</ele>
        <time>2014-01-31T13:04:12.000Z</time>
      </trkpt>
      <trkpt lat="45.57626" lon="6.57009">
        <ele>2249.3999023438</ele>
        <time>2014-01-31T13:04:13.000Z</time>
      </trkpt>
      <trkpt lat="45.57626" lon="6.57009">
        <ele>2249.8000488281</ele>
        <time>2014-01-31T13:04:14.000Z</time>
      </trkpt>
      <trkpt lat="45.57626" lon="6.57009">
        <ele>2249.8000488281</ele>
        <time>2014-01-31T13:04:15.000Z</time>
      </trkpt>
      <trkpt lat="45.57626" lon="6.57009">
        <ele>2250</ele>
        <time>2014-01-31T13:04:16.000Z</time>
      </trkpt>
      <trkpt lat="45.57626" lon="6.57009">
        <ele>2250.1999511719</ele>
        <time>2014-01-31T13:04:17.000Z</time>
      </trkpt>
      <trkpt lat="45.57626" lon="6.57009">
        <ele>2250.3999023438</ele>
        <time>2014-01-31T13:04:18.000Z</time>
      </trkpt>
      <trkpt lat="45.57626" lon="6.57009">
        <ele>2250.3999023438</ele>
        <time>2014-01-31T13:04:19.000Z</time>
      </trkpt>
      <trkpt lat="45.57626" lon="6.5701">
        <ele>2250.3999023438</ele>
        <time>2014-01-31T13:04:20.000Z</time>
      </trkpt>
      <trkpt lat="45.57626" lon="6.5701">
        <ele>2250.8000488281</ele>
        <time>2014-01-31T13:04:21.000Z</time>
      </trkpt>
      <trkpt lat="45.57627" lon="6.57011">
        <ele>2250.6000976562</ele>
        <time>2014-01-31T13:04:22.000Z</time>
      </trkpt>
      <trkpt lat="45.57628" lon="6.57012">
        <ele>2250.6000976562</ele>
        <time>2014-01-31T13:04:23.000Z</time>
      </trkpt>
      <trkpt lat="45.57628" lon="6.57012">
        <ele>2250.6000976562</ele>
        <time>2014-01-31T13:04:24.000Z</time>
      </trkpt>
      <trkpt lat="45.57629" lon="6.57014">
        <ele>2250.8000488281</ele>
        <time>2014-01-31T13:04:25.000Z</time>
      </trkpt>
      <trkpt lat="45.5763" lon="6.57014">
        <ele>2251</ele>
        <time>2014-01-31T13:04:26.000Z</time>
      </trkpt>
      <trkpt lat="45.57631" lon="6.57015">
        <ele>2251.1999511719</ele>
        <time>2014-01-31T13:04:27.000Z</time>
      </trkpt>
      <trkpt lat="45.57632" lon="6.57016">
        <ele>2251.1999511719</ele>
        <time>2014-01-31T13:04:28.000Z</time>
      </trkpt>
      <trkpt lat="45.57632" lon="6.57016">
        <ele>2251.3999023438</ele>
        <time>2014-01-31T13:04:29.000Z</time>
      </trkpt>
      <trkpt lat="45.57633" lon="6.57017">
        <ele>2251.3999023438</ele>
        <time>2014-01-31T13:04:30.000Z</time>
      </trkpt>
      <trkpt lat="45.57634" lon="6.57017">
        <ele>2251.6000976562</ele>
        <time>2014-01-31T13:04:31.000Z</time>
      </trkpt>
      <trkpt lat="45.57634" lon="6.57017">
        <ele>2252</ele>
        <time>2014-01-31T13:04:32.000Z</time>
      </trkpt>
      <trkpt lat="45.57636" lon="6.57017">
        <ele>2252.1999511719</ele>
        <time>2014-01-31T13:04:33.000Z</time>
      </trkpt>
      <trkpt lat="45.57636" lon="6.57017">
        <ele>2252.3999023438</ele>
        <time>2014-01-31T13:04:34.000Z</time>
      </trkpt>
      <trkpt lat="45.57637" lon="6.57017">
        <ele>2252.6000976562</ele>
        <time>2014-01-31T13:04:35.000Z</time>
      </trkpt>
      <trkpt lat="45.57639" lon="6.57018">
        <ele>2252.8000488281</ele>
        <time>2014-01-31T13:04:36.000Z</time>
      </trkpt>
      <trkpt lat="45.57639" lon="6.57019">
        <ele>2253</ele>
        <time>2014-01-31T13:04:37.000Z</time>
      </trkpt>
      <trkpt lat="45.5764" lon="6.5702">
        <ele>2253.1999511719</ele>
        <time>2014-01-31T13:04:38.000Z</time>
      </trkpt>
      <trkpt lat="45.5764" lon="6.5702">
        <ele>2253.6000976562</ele>
        <time>2014-01-31T13:04:39.000Z</time>
      </trkpt>
      <trkpt lat="45.57641" lon="6.5702">
        <ele>2253.8000488281</ele>
        <time>2014-01-31T13:04:40.000Z</time>
      </trkpt>
      <trkpt lat="45.57641" lon="6.5702">
        <ele>2254</ele>
        <time>2014-01-31T13:04:41.000Z</time>
      </trkpt>
      <trkpt lat="45.57642" lon="6.5702">
        <ele>2254.1999511719</ele>
        <time>2014-01-31T13:04:42.000Z</time>
      </trkpt>
      <trkpt lat="45.57642" lon="6.5702">
        <ele>2254.6000976562</ele>
        <time>2014-01-31T13:04:43.000Z</time>
      </trkpt>
      <trkpt lat="45.57642" lon="6.57019">
        <ele>2254.8000488281</ele>
        <time>2014-01-31T13:04:44.000Z</time>
      </trkpt>
      <trkpt lat="45.57641" lon="6.57018">
        <ele>2255</ele>
        <time>2014-01-31T13:04:45.000Z</time>
      </trkpt>
      <trkpt lat="45.57641" lon="6.57018">
        <ele>2255.1999511719</ele>
        <time>2014-01-31T13:04:46.000Z</time>
      </trkpt>
      <trkpt lat="45.57641" lon="6.57015">
        <ele>2255.3999023438</ele>
        <time>2014-01-31T13:04:47.000Z</time>
      </trkpt>
      <trkpt lat="45.57641" lon="6.57015">
        <ele>2255.3999023438</ele>
        <time>2014-01-31T13:04:48.000Z</time>
      </trkpt>
      <trkpt lat="45.57641" lon="6.57013">
        <ele>2255.3999023438</ele>
        <time>2014-01-31T13:04:49.000Z</time>
      </trkpt>
      <trkpt lat="45.57641" lon="6.57012">
        <ele>2255.3999023438</ele>
        <time>2014-01-31T13:04:50.000Z</time>
      </trkpt>
      <trkpt lat="45.57641" lon="6.57011">
        <ele>2255.3999023438</ele>
        <time>2014-01-31T13:04:51.000Z</time>
      </trkpt>
      <trkpt lat="45.57641" lon="6.57011">
        <ele>2255.6000976562</ele>
        <time>2014-01-31T13:04:52.000Z</time>
      </trkpt>
      <trkpt lat="45.57641" lon="6.5701">
        <ele>2255.8000488281</ele>
        <time>2014-01-31T13:04:53.000Z</time>
      </trkpt>
      <trkpt lat="45.57641" lon="6.57008">
        <ele>2256</ele>
        <time>2014-01-31T13:04:54.000Z</time>
      </trkpt>
      <trkpt lat="45.57641" lon="6.57007">
        <ele>2256.3999023438</ele>
        <time>2014-01-31T13:04:55.000Z</time>
      </trkpt>
      <trkpt lat="45.57641" lon="6.57007">
        <ele>2256.6000976562</ele>
        <time>2014-01-31T13:04:56.000Z</time>
      </trkpt>
      <trkpt lat="45.57641" lon="6.57005">
        <ele>2256.6000976562</ele>
        <time>2014-01-31T13:04:57.000Z</time>
      </trkpt>
      <trkpt lat="45.57641" lon="6.57005">
        <ele>2256.8000488281</ele>
        <time>2014-01-31T13:04:58.000Z</time>
      </trkpt>
      <trkpt lat="45.57641" lon="6.57004">
        <ele>2257</ele>
        <time>2014-01-31T13:04:59.000Z</time>
      </trkpt>
      <trkpt lat="45.57642" lon="6.57002">
        <ele>2257.1999511719</ele>
        <time>2014-01-31T13:05:00.000Z</time>
      </trkpt>
      <trkpt lat="45.57642" lon="6.57002">
        <ele>2257.3999023438</ele>
        <time>2014-01-31T13:05:01.000Z</time>
      </trkpt>
      <trkpt lat="45.57643" lon="6.57">
        <ele>2257.6000976562</ele>
        <time>2014-01-31T13:05:02.000Z</time>
      </trkpt>
      <trkpt lat="45.57643" lon="6.57">
        <ele>2257.8000488281</ele>
        <time>2014-01-31T13:05:03.000Z</time>
      </trkpt>
      <trkpt lat="45.57643" lon="6.57">
        <ele>2258</ele>
        <time>2014-01-31T13:05:04.000Z</time>
      </trkpt>
      <trkpt lat="45.57643" lon="6.56998">
        <ele>2258.1999511719</ele>
        <time>2014-01-31T13:05:05.000Z</time>
      </trkpt>
      <trkpt lat="45.57644" lon="6.56998">
        <ele>2258.3999023438</ele>
        <time>2014-01-31T13:05:06.000Z</time>
      </trkpt>
      <trkpt lat="45.57644" lon="6.56996">
        <ele>2258.3999023438</ele>
        <time>2014-01-31T13:05:07.000Z</time>
      </trkpt>
      <trkpt lat="45.57644" lon="6.56996">
        <ele>2258.6000976562</ele>
        <time>2014-01-31T13:05:08.000Z</time>
      </trkpt>
      <trkpt lat="45.57643" lon="6.56995">
        <ele>2258.8000488281</ele>
        <time>2014-01-31T13:05:09.000Z</time>
      </trkpt>
      <trkpt lat="45.57644" lon="6.56994">
        <ele>2258.8000488281</ele>
        <time>2014-01-31T13:05:10.000Z</time>
      </trkpt>
      <trkpt lat="45.57644" lon="6.56993">
        <ele>2259.1999511719</ele>
        <time>2014-01-31T13:05:11.000Z</time>
      </trkpt>
      <trkpt lat="45.57644" lon="6.56992">
        <ele>2259.3999023438</ele>
        <time>2014-01-31T13:05:12.000Z</time>
      </trkpt>
      <trkpt lat="45.57644" lon="6.56992">
        <ele>2259.6000976562</ele>
        <time>2014-01-31T13:05:13.000Z</time>
      </trkpt>
      <trkpt lat="45.57644" lon="6.56991">
        <ele>2259.8000488281</ele>
        <time>2014-01-31T13:05:14.000Z</time>
      </trkpt>
      <trkpt lat="45.57644" lon="6.56991">
        <ele>2259.8000488281</ele>
        <time>2014-01-31T13:05:15.000Z</time>
      </trkpt>
      <trkpt lat="45.57643" lon="6.5699">
        <ele>2260</ele>
        <time>2014-01-31T13:05:16.000Z</time>
      </trkpt>
      <trkpt lat="45.57643" lon="6.5699">
        <ele>2260.1999511719</ele>
        <time>2014-01-31T13:05:17.000Z</time>
      </trkpt>
      <trkpt lat="45.57643" lon="6.5699">
        <ele>2260.3999023438</ele>
        <time>2014-01-31T13:05:18.000Z</time>
      </trkpt>
      <trkpt lat="45.57643" lon="6.5699">
        <ele>2260.3999023438</ele>
        <time>2014-01-31T13:05:19.000Z</time>
      </trkpt>
      <trkpt lat="45.57643" lon="6.5699">
        <ele>2260.6000976562</ele>
        <time>2014-01-31T13:05:20.000Z</time>
      </trkpt>
      <trkpt lat="45.57643" lon="6.5699">
        <ele>2261</ele>
        <time>2014-01-31T13:05:21.000Z</time>
      </trkpt>
      <trkpt lat="45.57643" lon="6.5699">
        <ele>2261.1999511719</ele>
        <time>2014-01-31T13:05:22.000Z</time>
      </trkpt>
      <trkpt lat="45.57643" lon="6.5699">
        <ele>2261.3999023438</ele>
        <time>2014-01-31T13:05:23.000Z</time>
      </trkpt>
      <trkpt lat="45.57643" lon="6.5699">
        <ele>2261.6000976562</ele>
        <time>2014-01-31T13:05:24.000Z</time>
      </trkpt>
      <trkpt lat="45.57644" lon="6.5699">
        <ele>2261.6000976562</ele>
        <time>2014-01-31T13:05:25.000Z</time>
      </trkpt>
      <trkpt lat="45.57644" lon="6.56991">
        <ele>2261.8000488281</ele>
        <time>2014-01-31T13:05:26.000Z</time>
      </trkpt>
      <trkpt lat="45.57644" lon="6.56991">
        <ele>2261.8000488281</ele>
        <time>2014-01-31T13:05:27.000Z</time>
      </trkpt>
      <trkpt lat="45.57644" lon="6.56991">
        <ele>2261.8000488281</ele>
        <time>2014-01-31T13:05:29.000Z</time>
      </trkpt>
      <trkpt lat="45.57645" lon="6.56991">
        <ele>2262</ele>
        <time>2014-01-31T13:05:30.000Z</time>
      </trkpt>
      <trkpt lat="45.57645" lon="6.56992">
        <ele>2262.1999511719</ele>
        <time>2014-01-31T13:05:31.000Z</time>
      </trkpt>
      <trkpt lat="45.57646" lon="6.56993">
        <ele>2262.3999023438</ele>
        <time>2014-01-31T13:05:32.000Z</time>
      </trkpt>
      <trkpt lat="45.57647" lon="6.56993">
        <ele>2262.6000976562</ele>
        <time>2014-01-31T13:05:33.000Z</time>
      </trkpt>
      <trkpt lat="45.57648" lon="6.56994">
        <ele>2262.8000488281</ele>
        <time>2014-01-31T13:05:34.000Z</time>
      </trkpt>
      <trkpt lat="45.57648" lon="6.56994">
        <ele>2263</ele>
        <time>2014-01-31T13:05:35.000Z</time>
      </trkpt>
      <trkpt lat="45.57649" lon="6.56995">
        <ele>2263.1999511719</ele>
        <time>2014-01-31T13:05:36.000Z</time>
      </trkpt>
      <trkpt lat="45.5765" lon="6.56994">
        <ele>2263.3999023438</ele>
        <time>2014-01-31T13:05:37.000Z</time>
      </trkpt>
      <trkpt lat="45.5765" lon="6.56995">
        <ele>2263.6000976562</ele>
        <time>2014-01-31T13:05:38.000Z</time>
      </trkpt>
      <trkpt lat="45.57652" lon="6.56996">
        <ele>2263.8000488281</ele>
        <time>2014-01-31T13:05:39.000Z</time>
      </trkpt>
      <trkpt lat="45.57652" lon="6.56996">
        <ele>2264.1999511719</ele>
        <time>2014-01-31T13:05:40.000Z</time>
      </trkpt>
      <trkpt lat="45.57653" lon="6.56997">
        <ele>2264.3999023438</ele>
        <time>2014-01-31T13:05:41.000Z</time>
      </trkpt>
      <trkpt lat="45.57654" lon="6.56997">
        <ele>2264.6000976562</ele>
        <time>2014-01-31T13:05:42.000Z</time>
      </trkpt>
      <trkpt lat="45.57655" lon="6.56997">
        <ele>2264.8000488281</ele>
        <time>2014-01-31T13:05:43.000Z</time>
      </trkpt>
      <trkpt lat="45.57655" lon="6.56998">
        <ele>2265</ele>
        <time>2014-01-31T13:05:44.000Z</time>
      </trkpt>
      <trkpt lat="45.57656" lon="6.56998">
        <ele>2265</ele>
        <time>2014-01-31T13:05:45.000Z</time>
      </trkpt>
      <trkpt lat="45.57657" lon="6.56999">
        <ele>2265.1999511719</ele>
        <time>2014-01-31T13:05:46.000Z</time>
      </trkpt>
      <trkpt lat="45.57658" lon="6.57">
        <ele>2265.3999023438</ele>
        <time>2014-01-31T13:05:47.000Z</time>
      </trkpt>
      <trkpt lat="45.5766" lon="6.57001">
        <ele>2265.6000976562</ele>
        <time>2014-01-31T13:05:48.000Z</time>
      </trkpt>
      <trkpt lat="45.5766" lon="6.57001">
        <ele>2265.8000488281</ele>
        <time>2014-01-31T13:05:49.000Z</time>
      </trkpt>
      <trkpt lat="45.57661" lon="6.57001">
        <ele>2266.1999511719</ele>
        <time>2014-01-31T13:05:50.000Z</time>
      </trkpt>
      <trkpt lat="45.57662" lon="6.57001">
        <ele>2266.6000976562</ele>
        <time>2014-01-31T13:05:51.000Z</time>
      </trkpt>
      <trkpt lat="45.57663" lon="6.57002">
        <ele>2266.8000488281</ele>
        <time>2014-01-31T13:05:52.000Z</time>
      </trkpt>
      <trkpt lat="45.57663" lon="6.57002">
        <ele>2267</ele>
        <time>2014-01-31T13:05:53.000Z</time>
      </trkpt>
      <trkpt lat="45.57664" lon="6.57003">
        <ele>2267</ele>
        <time>2014-01-31T13:05:54.000Z</time>
      </trkpt>
      <trkpt lat="45.57664" lon="6.57003">
        <ele>2267.1999511719</ele>
        <time>2014-01-31T13:05:55.000Z</time>
      </trkpt>
      <trkpt lat="45.57665" lon="6.57004">
        <ele>2267.3999023438</ele>
        <time>2014-01-31T13:05:56.000Z</time>
      </trkpt>
      <trkpt lat="45.57665" lon="6.57004">
        <ele>2267.6000976562</ele>
        <time>2014-01-31T13:05:57.000Z</time>
      </trkpt>
      <trkpt lat="45.57665" lon="6.57004">
        <ele>2267.8000488281</ele>
        <time>2014-01-31T13:05:58.000Z</time>
      </trkpt>
      <trkpt lat="45.57665" lon="6.57004">
        <ele>2268</ele>
        <time>2014-01-31T13:05:59.000Z</time>
      </trkpt>
      <trkpt lat="45.57665" lon="6.57004">
        <ele>2268.1999511719</ele>
        <time>2014-01-31T13:06:00.000Z</time>
      </trkpt>
      <trkpt lat="45.57665" lon="6.57003">
        <ele>2268.1999511719</ele>
        <time>2014-01-31T13:06:01.000Z</time>
      </trkpt>
      <trkpt lat="45.57665" lon="6.57003">
        <ele>2268.1999511719</ele>
        <time>2014-01-31T13:06:02.000Z</time>
      </trkpt>
      <trkpt lat="45.57664" lon="6.57002">
        <ele>2268.1999511719</ele>
        <time>2014-01-31T13:06:03.000Z</time>
      </trkpt>
      <trkpt lat="45.57663" lon="6.57">
        <ele>2268.1999511719</ele>
        <time>2014-01-31T13:06:04.000Z</time>
      </trkpt>
      <trkpt lat="45.57663" lon="6.56998">
        <ele>2268.1999511719</ele>
        <time>2014-01-31T13:06:05.000Z</time>
      </trkpt>
      <trkpt lat="45.57663" lon="6.56998">
        <ele>2268</ele>
        <time>2014-01-31T13:06:06.000Z</time>
      </trkpt>
      <trkpt lat="45.57663" lon="6.56996">
        <ele>2268.1999511719</ele>
        <time>2014-01-31T13:06:07.000Z</time>
      </trkpt>
      <trkpt lat="45.57663" lon="6.56996">
        <ele>2268.3999023438</ele>
        <time>2014-01-31T13:06:08.000Z</time>
      </trkpt>
      <trkpt lat="45.57663" lon="6.56995">
        <ele>2268.8000488281</ele>
        <time>2014-01-31T13:06:09.000Z</time>
      </trkpt>
      <trkpt lat="45.57663" lon="6.56994">
        <ele>2269</ele>
        <time>2014-01-31T13:06:10.000Z</time>
      </trkpt>
      <trkpt lat="45.57663" lon="6.56993">
        <ele>2269.1999511719</ele>
        <time>2014-01-31T13:06:11.000Z</time>
      </trkpt>
      <trkpt lat="45.57663" lon="6.56992">
        <ele>2269.3999023438</ele>
        <time>2014-01-31T13:06:12.000Z</time>
      </trkpt>
      <trkpt lat="45.57662" lon="6.56991">
        <ele>2269.6000976562</ele>
        <time>2014-01-31T13:06:13.000Z</time>
      </trkpt>
      <trkpt lat="45.57662" lon="6.5699">
        <ele>2269.8000488281</ele>
        <time>2014-01-31T13:06:14.000Z</time>
      </trkpt>
      <trkpt lat="45.57662" lon="6.56989">
        <ele>2270</ele>
        <time>2014-01-31T13:06:15.000Z</time>
      </trkpt>
      <trkpt lat="45.57661" lon="6.56987">
        <ele>2270</ele>
        <time>2014-01-31T13:06:16.000Z</time>
      </trkpt>
      <trkpt lat="45.57661" lon="6.56986">
        <ele>2270.1999511719</ele>
        <time>2014-01-31T13:06:17.000Z</time>
      </trkpt>
      <trkpt lat="45.57661" lon="6.56985">
        <ele>2270.6000976562</ele>
        <time>2014-01-31T13:06:18.000Z</time>
      </trkpt>
      <trkpt lat="45.57661" lon="6.56983">
        <ele>2270.8000488281</ele>
        <time>2014-01-31T13:06:19.000Z</time>
      </trkpt>
      <trkpt lat="45.57661" lon="6.56983">
        <ele>2271</ele>
        <time>2014-01-31T13:06:20.000Z</time>
      </trkpt>
      <trkpt lat="45.57661" lon="6.56983">
        <ele>2271</ele>
        <time>2014-01-31T13:06:21.000Z</time>
      </trkpt>
      <trkpt lat="45.57661" lon="6.56982">
        <ele>2271</ele>
        <time>2014-01-31T13:06:22.000Z</time>
      </trkpt>
      <trkpt lat="45.57661" lon="6.56981">
        <ele>2271</ele>
        <time>2014-01-31T13:06:23.000Z</time>
      </trkpt>
      <trkpt lat="45.57661" lon="6.5698">
        <ele>2271.1999511719</ele>
        <time>2014-01-31T13:06:24.000Z</time>
      </trkpt>
      <trkpt lat="45.57661" lon="6.56979">
        <ele>2271.1999511719</ele>
        <time>2014-01-31T13:06:25.000Z</time>
      </trkpt>
      <trkpt lat="45.57661" lon="6.56978">
        <ele>2271.3999023438</ele>
        <time>2014-01-31T13:06:26.000Z</time>
      </trkpt>
      <trkpt lat="45.57661" lon="6.56978">
        <ele>2271.6000976562</ele>
        <time>2014-01-31T13:06:27.000Z</time>
      </trkpt>
      <trkpt lat="45.57661" lon="6.56978">
        <ele>2271.8000488281</ele>
        <time>2014-01-31T13:06:28.000Z</time>
      </trkpt>
      <trkpt lat="45.57661" lon="6.56977">
        <ele>2272</ele>
        <time>2014-01-31T13:06:29.000Z</time>
      </trkpt>
      <trkpt lat="45.57661" lon="6.56977">
        <ele>2272.1999511719</ele>
        <time>2014-01-31T13:06:30.000Z</time>
      </trkpt>
      <trkpt lat="45.57661" lon="6.56977">
        <ele>2272.3999023438</ele>
        <time>2014-01-31T13:06:31.000Z</time>
      </trkpt>
      <trkpt lat="45.57661" lon="6.56977">
        <ele>2272.6000976562</ele>
        <time>2014-01-31T13:06:32.000Z</time>
      </trkpt>
      <trkpt lat="45.57661" lon="6.56977">
        <ele>2272.6000976562</ele>
        <time>2014-01-31T13:06:33.000Z</time>
      </trkpt>
      <trkpt lat="45.57661" lon="6.56977">
        <ele>2272.8000488281</ele>
        <time>2014-01-31T13:06:34.000Z</time>
      </trkpt>
      <trkpt lat="45.57661" lon="6.56977">
        <ele>2273</ele>
        <time>2014-01-31T13:06:35.000Z</time>
      </trkpt>
      <trkpt lat="45.57662" lon="6.56978">
        <ele>2273.1999511719</ele>
        <time>2014-01-31T13:06:36.000Z</time>
      </trkpt>
      <trkpt lat="45.57662" lon="6.56979">
        <ele>2273.1999511719</ele>
        <time>2014-01-31T13:06:37.000Z</time>
      </trkpt>
      <trkpt lat="45.57663" lon="6.56979">
        <ele>2273.3999023438</ele>
        <time>2014-01-31T13:06:38.000Z</time>
      </trkpt>
      <trkpt lat="45.57663" lon="6.5698">
        <ele>2273.6000976562</ele>
        <time>2014-01-31T13:06:39.000Z</time>
      </trkpt>
      <trkpt lat="45.57664" lon="6.5698">
        <ele>2273.6000976562</ele>
        <time>2014-01-31T13:06:40.000Z</time>
      </trkpt>
      <trkpt lat="45.57664" lon="6.56981">
        <ele>2273.6000976562</ele>
        <time>2014-01-31T13:06:41.000Z</time>
      </trkpt>
      <trkpt lat="45.57665" lon="6.56981">
        <ele>2273.8000488281</ele>
        <time>2014-01-31T13:06:42.000Z</time>
      </trkpt>
      <trkpt lat="45.57666" lon="6.56982">
        <ele>2273.8000488281</ele>
        <time>2014-01-31T13:06:43.000Z</time>
      </trkpt>
      <trkpt lat="45.57667" lon="6.56982">
        <ele>2273.8000488281</ele>
        <time>2014-01-31T13:06:44.000Z</time>
      </trkpt>
      <trkpt lat="45.57668" lon="6.56983">
        <ele>2274</ele>
        <time>2014-01-31T13:06:45.000Z</time>
      </trkpt>
      <trkpt lat="45.57669" lon="6.56983">
        <ele>2274.3999023438</ele>
        <time>2014-01-31T13:06:46.000Z</time>
      </trkpt>
      <trkpt lat="45.57671" lon="6.56984">
        <ele>2274.8000488281</ele>
        <time>2014-01-31T13:06:47.000Z</time>
      </trkpt>
      <trkpt lat="45.57672" lon="6.56984">
        <ele>2275</ele>
        <time>2014-01-31T13:06:48.000Z</time>
      </trkpt>
      <trkpt lat="45.57673" lon="6.56985">
        <ele>2275.1999511719</ele>
        <time>2014-01-31T13:06:49.000Z</time>
      </trkpt>
      <trkpt lat="45.57673" lon="6.56984">
        <ele>2275.3999023438</ele>
        <time>2014-01-31T13:06:50.000Z</time>
      </trkpt>
      <trkpt lat="45.57674" lon="6.56984">
        <ele>2275.6000976562</ele>
        <time>2014-01-31T13:06:51.000Z</time>
      </trkpt>
      <trkpt lat="45.57675" lon="6.56984">
        <ele>2275.8000488281</ele>
        <time>2014-01-31T13:06:52.000Z</time>
      </trkpt>
      <trkpt lat="45.57675" lon="6.56984">
        <ele>2276</ele>
        <time>2014-01-31T13:06:53.000Z</time>
      </trkpt>
      <trkpt lat="45.57676" lon="6.56983">
        <ele>2276.1999511719</ele>
        <time>2014-01-31T13:06:54.000Z</time>
      </trkpt>
      <trkpt lat="45.57677" lon="6.56983">
        <ele>2276.3999023438</ele>
        <time>2014-01-31T13:06:55.000Z</time>
      </trkpt>
      <trkpt lat="45.57677" lon="6.56983">
        <ele>2276.8000488281</ele>
        <time>2014-01-31T13:06:56.000Z</time>
      </trkpt>
      <trkpt lat="45.57677" lon="6.56983">
        <ele>2276.8000488281</ele>
        <time>2014-01-31T13:06:57.000Z</time>
      </trkpt>
      <trkpt lat="45.57677" lon="6.56982">
        <ele>2277</ele>
        <time>2014-01-31T13:06:58.000Z</time>
      </trkpt>
      <trkpt lat="45.57676" lon="6.5698">
        <ele>2277</ele>
        <time>2014-01-31T13:07:00.000Z</time>
      </trkpt>
      <trkpt lat="45.57676" lon="6.56978">
        <ele>2277</ele>
        <time>2014-01-31T13:07:01.000Z</time>
      </trkpt>
      <trkpt lat="45.57676" lon="6.56978">
        <ele>2277</ele>
        <time>2014-01-31T13:07:02.000Z</time>
      </trkpt>
      <trkpt lat="45.57675" lon="6.56977">
        <ele>2277</ele>
        <time>2014-01-31T13:07:03.000Z</time>
      </trkpt>
      <trkpt lat="45.57675" lon="6.56976">
        <ele>2277.1999511719</ele>
        <time>2014-01-31T13:07:04.000Z</time>
      </trkpt>
      <trkpt lat="45.57675" lon="6.56975">
        <ele>2277.6000976562</ele>
        <time>2014-01-31T13:07:05.000Z</time>
      </trkpt>
      <trkpt lat="45.57675" lon="6.56974">
        <ele>2277.8000488281</ele>
        <time>2014-01-31T13:07:06.000Z</time>
      </trkpt>
      <trkpt lat="45.57674" lon="6.56974">
        <ele>2278</ele>
        <time>2014-01-31T13:07:07.000Z</time>
      </trkpt>
      <trkpt lat="45.57674" lon="6.56972">
        <ele>2278.1999511719</ele>
        <time>2014-01-31T13:07:08.000Z</time>
      </trkpt>
      <trkpt lat="45.57674" lon="6.56972">
        <ele>2278.3999023438</ele>
        <time>2014-01-31T13:07:09.000Z</time>
      </trkpt>
      <trkpt lat="45.57674" lon="6.56971">
        <ele>2278.6000976562</ele>
        <time>2014-01-31T13:07:10.000Z</time>
      </trkpt>
      <trkpt lat="45.57673" lon="6.5697">
        <ele>2278.8000488281</ele>
        <time>2014-01-31T13:07:11.000Z</time>
      </trkpt>
      <trkpt lat="45.57673" lon="6.56969">
        <ele>2279</ele>
        <time>2014-01-31T13:07:12.000Z</time>
      </trkpt>
      <trkpt lat="45.57673" lon="6.56968">
        <ele>2279.1999511719</ele>
        <time>2014-01-31T13:07:13.000Z</time>
      </trkpt>
      <trkpt lat="45.57673" lon="6.56967">
        <ele>2279.3999023438</ele>
        <time>2014-01-31T13:07:14.000Z</time>
      </trkpt>
      <trkpt lat="45.57673" lon="6.56966">
        <ele>2279.6000976562</ele>
        <time>2014-01-31T13:07:15.000Z</time>
      </trkpt>
      <trkpt lat="45.57673" lon="6.56966">
        <ele>2279.8000488281</ele>
        <time>2014-01-31T13:07:16.000Z</time>
      </trkpt>
      <trkpt lat="45.57673" lon="6.56965">
        <ele>2280</ele>
        <time>2014-01-31T13:07:17.000Z</time>
      </trkpt>
      <trkpt lat="45.57673" lon="6.56965">
        <ele>2280.1999511719</ele>
        <time>2014-01-31T13:07:18.000Z</time>
      </trkpt>
      <trkpt lat="45.57673" lon="6.56965">
        <ele>2280.3999023438</ele>
        <time>2014-01-31T13:07:19.000Z</time>
      </trkpt>
      <trkpt lat="45.57673" lon="6.56964">
        <ele>2280.3999023438</ele>
        <time>2014-01-31T13:07:20.000Z</time>
      </trkpt>
      <trkpt lat="45.57673" lon="6.56964">
        <ele>2280.6000976562</ele>
        <time>2014-01-31T13:07:21.000Z</time>
      </trkpt>
      <trkpt lat="45.57673" lon="6.56963">
        <ele>2280.6000976562</ele>
        <time>2014-01-31T13:07:22.000Z</time>
      </trkpt>
      <trkpt lat="45.57673" lon="6.56962">
        <ele>2280.6000976562</ele>
        <time>2014-01-31T13:07:23.000Z</time>
      </trkpt>
      <trkpt lat="45.57673" lon="6.56961">
        <ele>2280.8000488281</ele>
        <time>2014-01-31T13:07:24.000Z</time>
      </trkpt>
      <trkpt lat="45.57673" lon="6.5696">
        <ele>2281</ele>
        <time>2014-01-31T13:07:25.000Z</time>
      </trkpt>
      <trkpt lat="45.57674" lon="6.56958">
        <ele>2281.3999023438</ele>
        <time>2014-01-31T13:07:26.000Z</time>
      </trkpt>
      <trkpt lat="45.57673" lon="6.56958">
        <ele>2281.8000488281</ele>
        <time>2014-01-31T13:07:27.000Z</time>
      </trkpt>
      <trkpt lat="45.57674" lon="6.56955">
        <ele>2281.8000488281</ele>
        <time>2014-01-31T13:07:28.000Z</time>
      </trkpt>
      <trkpt lat="45.57673" lon="6.56955">
        <ele>2282.1999511719</ele>
        <time>2014-01-31T13:07:29.000Z</time>
      </trkpt>
      <trkpt lat="45.57674" lon="6.56954">
        <ele>2282.1999511719</ele>
        <time>2014-01-31T13:07:30.000Z</time>
      </trkpt>
      <trkpt lat="45.57673" lon="6.56954">
        <ele>2282.3999023438</ele>
        <time>2014-01-31T13:07:31.000Z</time>
      </trkpt>
      <trkpt lat="45.57673" lon="6.56953">
        <ele>2282.3999023438</ele>
        <time>2014-01-31T13:07:32.000Z</time>
      </trkpt>
      <trkpt lat="45.57673" lon="6.56952">
        <ele>2282.6000976562</ele>
        <time>2014-01-31T13:07:33.000Z</time>
      </trkpt>
      <trkpt lat="45.57673" lon="6.56952">
        <ele>2282.6000976562</ele>
        <time>2014-01-31T13:07:34.000Z</time>
      </trkpt>
      <trkpt lat="45.57673" lon="6.56951">
        <ele>2282.8000488281</ele>
        <time>2014-01-31T13:07:35.000Z</time>
      </trkpt>
      <trkpt lat="45.57674" lon="6.5695">
        <ele>2283</ele>
        <time>2014-01-31T13:07:36.000Z</time>
      </trkpt>
      <trkpt lat="45.57674" lon="6.56949">
        <ele>2283.1999511719</ele>
        <time>2014-01-31T13:07:37.000Z</time>
      </trkpt>
      <trkpt lat="45.57674" lon="6.56948">
        <ele>2283.3999023438</ele>
        <time>2014-01-31T13:07:38.000Z</time>
      </trkpt>
      <trkpt lat="45.57674" lon="6.56946">
        <ele>2283.6000976562</ele>
        <time>2014-01-31T13:07:39.000Z</time>
      </trkpt>
      <trkpt lat="45.57674" lon="6.56945">
        <ele>2283.8000488281</ele>
        <time>2014-01-31T13:07:40.000Z</time>
      </trkpt>
      <trkpt lat="45.57674" lon="6.56944">
        <ele>2284</ele>
        <time>2014-01-31T13:07:41.000Z</time>
      </trkpt>
      <trkpt lat="45.57674" lon="6.56943">
        <ele>2284.1999511719</ele>
        <time>2014-01-31T13:07:42.000Z</time>
      </trkpt>
      <trkpt lat="45.57675" lon="6.56942">
        <ele>2284.3999023438</ele>
        <time>2014-01-31T13:07:43.000Z</time>
      </trkpt>
      <trkpt lat="45.57675" lon="6.56942">
        <ele>2284.3999023438</ele>
        <time>2014-01-31T13:07:44.000Z</time>
      </trkpt>
      <trkpt lat="45.57675" lon="6.56942">
        <ele>2284.6000976562</ele>
        <time>2014-01-31T13:07:45.000Z</time>
      </trkpt>
      <trkpt lat="45.57675" lon="6.56942">
        <ele>2284.8000488281</ele>
        <time>2014-01-31T13:07:46.000Z</time>
      </trkpt>
      <trkpt lat="45.57675" lon="6.56942">
        <ele>2285</ele>
        <time>2014-01-31T13:07:47.000Z</time>
      </trkpt>
      <trkpt lat="45.57675" lon="6.56942">
        <ele>2285</ele>
        <time>2014-01-31T13:07:48.000Z</time>
      </trkpt>
      <trkpt lat="45.57675" lon="6.56942">
        <ele>2285.1999511719</ele>
        <time>2014-01-31T13:07:49.000Z</time>
      </trkpt>
      <trkpt lat="45.57675" lon="6.56942">
        <ele>2285.3999023438</ele>
        <time>2014-01-31T13:07:50.000Z</time>
      </trkpt>
      <trkpt lat="45.57675" lon="6.56942">
        <ele>2285.6000976562</ele>
        <time>2014-01-31T13:07:51.000Z</time>
      </trkpt>
      <trkpt lat="45.57675" lon="6.56942">
        <ele>2285.8000488281</ele>
        <time>2014-01-31T13:07:52.000Z</time>
      </trkpt>
      <trkpt lat="45.57675" lon="6.56942">
        <ele>2285.8000488281</ele>
        <time>2014-01-31T13:07:53.000Z</time>
      </trkpt>
      <trkpt lat="45.57675" lon="6.56942">
        <ele>2286</ele>
        <time>2014-01-31T13:07:54.000Z</time>
      </trkpt>
      <trkpt lat="45.57675" lon="6.56942">
        <ele>2286</ele>
        <time>2014-01-31T13:07:55.000Z</time>
      </trkpt>
      <trkpt lat="45.57675" lon="6.56942">
        <ele>2285.8000488281</ele>
        <time>2014-01-31T13:07:56.000Z</time>
      </trkpt>
      <trkpt lat="45.57675" lon="6.56942">
        <ele>2285.8000488281</ele>
        <time>2014-01-31T13:07:57.000Z</time>
      </trkpt>
      <trkpt lat="45.57675" lon="6.56942">
        <ele>2285.8000488281</ele>
        <time>2014-01-31T13:07:58.000Z</time>
      </trkpt>
      <trkpt lat="45.57675" lon="6.56942">
        <ele>2285.8000488281</ele>
        <time>2014-01-31T13:07:59.000Z</time>
      </trkpt>
      <trkpt lat="45.57675" lon="6.56942">
        <ele>2285.8000488281</ele>
        <time>2014-01-31T13:08:00.000Z</time>
      </trkpt>
      <trkpt lat="45.57675" lon="6.56942">
        <ele>2285.8000488281</ele>
        <time>2014-01-31T13:08:01.000Z</time>
      </trkpt>
      <trkpt lat="45.57675" lon="6.56942">
        <ele>2285.8000488281</ele>
        <time>2014-01-31T13:08:02.000Z</time>
      </trkpt>
      <trkpt lat="45.57675" lon="6.56942">
        <ele>2285.8000488281</ele>
        <time>2014-01-31T13:08:05.000Z</time>
      </trkpt>
      <trkpt lat="45.57675" lon="6.56942">
        <ele>2285.8000488281</ele>
        <time>2014-01-31T13:08:06.000Z</time>
      </trkpt>
      <trkpt lat="45.57675" lon="6.56942">
        <ele>2285.8000488281</ele>
        <time>2014-01-31T13:08:07.000Z</time>
      </trkpt>
      <trkpt lat="45.57675" lon="6.56942">
        <ele>2285.8000488281</ele>
        <time>2014-01-31T13:08:08.000Z</time>
      </trkpt>
      <trkpt lat="45.57675" lon="6.56942">
        <ele>2286</ele>
        <time>2014-01-31T13:08:09.000Z</time>
      </trkpt>
      <trkpt lat="45.57675" lon="6.56942">
        <ele>2286.3999023438</ele>
        <time>2014-01-31T13:08:10.000Z</time>
      </trkpt>
      <trkpt lat="45.57675" lon="6.56942">
        <ele>2286.3999023438</ele>
        <time>2014-01-31T13:08:11.000Z</time>
      </trkpt>
      <trkpt lat="45.57675" lon="6.56942">
        <ele>2286.3999023438</ele>
        <time>2014-01-31T13:08:12.000Z</time>
      </trkpt>
      <trkpt lat="45.57675" lon="6.56942">
        <ele>2286.3999023438</ele>
        <time>2014-01-31T13:08:13.000Z</time>
      </trkpt>
      <trkpt lat="45.57675" lon="6.56942">
        <ele>2286.3999023438</ele>
        <time>2014-01-31T13:08:14.000Z</time>
      </trkpt>
      <trkpt lat="45.57675" lon="6.56942">
        <ele>2286.3999023438</ele>
        <time>2014-01-31T13:08:15.000Z</time>
      </trkpt>
      <trkpt lat="45.57675" lon="6.56942">
        <ele>2286.3999023438</ele>
        <time>2014-01-31T13:08:16.000Z</time>
      </trkpt>
      <trkpt lat="45.57675" lon="6.56942">
        <ele>2286.3999023438</ele>
        <time>2014-01-31T13:08:17.000Z</time>
      </trkpt>
      <trkpt lat="45.57675" lon="6.56942">
        <ele>2286.3999023438</ele>
        <time>2014-01-31T13:08:18.000Z</time>
      </trkpt>
      <trkpt lat="45.57675" lon="6.56942">
        <ele>2286.6000976562</ele>
        <time>2014-01-31T13:08:19.000Z</time>
      </trkpt>
      <trkpt lat="45.57675" lon="6.56942">
        <ele>2286.6000976562</ele>
        <time>2014-01-31T13:08:20.000Z</time>
      </trkpt>
      <trkpt lat="45.57675" lon="6.56942">
        <ele>2286.6000976562</ele>
        <time>2014-01-31T13:08:21.000Z</time>
      </trkpt>
      <trkpt lat="45.57675" lon="6.56942">
        <ele>2286.6000976562</ele>
        <time>2014-01-31T13:08:22.000Z</time>
      </trkpt>
      <trkpt lat="45.57675" lon="6.56942">
        <ele>2286.6000976562</ele>
        <time>2014-01-31T13:08:23.000Z</time>
      </trkpt>
      <trkpt lat="45.57675" lon="6.56941">
        <ele>2286.6000976562</ele>
        <time>2014-01-31T13:08:27.000Z</time>
      </trkpt>
      <trkpt lat="45.57675" lon="6.56941">
        <ele>2286.6000976562</ele>
        <time>2014-01-31T13:08:28.000Z</time>
      </trkpt>
      <trkpt lat="45.57675" lon="6.56941">
        <ele>2286.6000976562</ele>
        <time>2014-01-31T13:08:29.000Z</time>
      </trkpt>
      <trkpt lat="45.57675" lon="6.56941">
        <ele>2286.6000976562</ele>
        <time>2014-01-31T13:08:31.000Z</time>
      </trkpt>
      <trkpt lat="45.57675" lon="6.56941">
        <ele>2286.3999023438</ele>
        <time>2014-01-31T13:08:32.000Z</time>
      </trkpt>
      <trkpt lat="45.57675" lon="6.56941">
        <ele>2286.3999023438</ele>
        <time>2014-01-31T13:08:33.000Z</time>
      </trkpt>
      <trkpt lat="45.57675" lon="6.56941">
        <ele>2286.6000976562</ele>
        <time>2014-01-31T13:08:35.000Z</time>
      </trkpt>
      <trkpt lat="45.57675" lon="6.56941">
        <ele>2286.6000976562</ele>
        <time>2014-01-31T13:08:36.000Z</time>
      </trkpt>
      <trkpt lat="45.57675" lon="6.56941">
        <ele>2286.6000976562</ele>
        <time>2014-01-31T13:08:37.000Z</time>
      </trkpt>
      <trkpt lat="45.57675" lon="6.56941">
        <ele>2286.8000488281</ele>
        <time>2014-01-31T13:08:38.000Z</time>
      </trkpt>
      <trkpt lat="45.57675" lon="6.56941">
        <ele>2286.8000488281</ele>
        <time>2014-01-31T13:08:39.000Z</time>
      </trkpt>
      <trkpt lat="45.57675" lon="6.56941">
        <ele>2286.8000488281</ele>
        <time>2014-01-31T13:08:40.000Z</time>
      </trkpt>
      <trkpt lat="45.57675" lon="6.56941">
        <ele>2286.6000976562</ele>
        <time>2014-01-31T13:08:41.000Z</time>
      </trkpt>
      <trkpt lat="45.57675" lon="6.56941">
        <ele>2286.6000976562</ele>
        <time>2014-01-31T13:08:42.000Z</time>
      </trkpt>
      <trkpt lat="45.57676" lon="6.56942">
        <ele>2286.6000976562</ele>
        <time>2014-01-31T13:08:43.000Z</time>
      </trkpt>
      <trkpt lat="45.57677" lon="6.56942">
        <ele>2286.6000976562</ele>
        <time>2014-01-31T13:08:44.000Z</time>
      </trkpt>
      <trkpt lat="45.57678" lon="6.56943">
        <ele>2286.6000976562</ele>
        <time>2014-01-31T13:08:45.000Z</time>
      </trkpt>
      <trkpt lat="45.57679" lon="6.56944">
        <ele>2286.8000488281</ele>
        <time>2014-01-31T13:08:46.000Z</time>
      </trkpt>
      <trkpt lat="45.57681" lon="6.56944">
        <ele>2287.1999511719</ele>
        <time>2014-01-31T13:08:47.000Z</time>
      </trkpt>
      <trkpt lat="45.57682" lon="6.56945">
        <ele>2287.3999023438</ele>
        <time>2014-01-31T13:08:48.000Z</time>
      </trkpt>
      <trkpt lat="45.57683" lon="6.56945">
        <ele>2287.3999023438</ele>
        <time>2014-01-31T13:08:49.000Z</time>
      </trkpt>
      <trkpt lat="45.57684" lon="6.56945">
        <ele>2287.6000976562</ele>
        <time>2014-01-31T13:08:50.000Z</time>
      </trkpt>
      <trkpt lat="45.57686" lon="6.56946">
        <ele>2287.8000488281</ele>
        <time>2014-01-31T13:08:51.000Z</time>
      </trkpt>
      <trkpt lat="45.57687" lon="6.56946">
        <ele>2288</ele>
        <time>2014-01-31T13:08:52.000Z</time>
      </trkpt>
      <trkpt lat="45.57688" lon="6.56947">
        <ele>2288.1999511719</ele>
        <time>2014-01-31T13:08:53.000Z</time>
      </trkpt>
      <trkpt lat="45.57689" lon="6.56947">
        <ele>2288.1999511719</ele>
        <time>2014-01-31T13:08:54.000Z</time>
      </trkpt>
      <trkpt lat="45.5769" lon="6.56948">
        <ele>2288.3999023438</ele>
        <time>2014-01-31T13:08:55.000Z</time>
      </trkpt>
      <trkpt lat="45.5769" lon="6.56948">
        <ele>2288.6000976562</ele>
        <time>2014-01-31T13:08:56.000Z</time>
      </trkpt>
      <trkpt lat="45.57691" lon="6.56949">
        <ele>2289</ele>
        <time>2014-01-31T13:08:57.000Z</time>
      </trkpt>
      <trkpt lat="45.57693" lon="6.5695">
        <ele>2289.1999511719</ele>
        <time>2014-01-31T13:08:58.000Z</time>
      </trkpt>
      <trkpt lat="45.57694" lon="6.5695">
        <ele>2289.3999023438</ele>
        <time>2014-01-31T13:08:59.000Z</time>
      </trkpt>
      <trkpt lat="45.57695" lon="6.56951">
        <ele>2289.6000976562</ele>
        <time>2014-01-31T13:09:00.000Z</time>
      </trkpt>
      <trkpt lat="45.57695" lon="6.56951">
        <ele>2289.8000488281</ele>
        <time>2014-01-31T13:09:01.000Z</time>
      </trkpt>
      <trkpt lat="45.57696" lon="6.56951">
        <ele>2290.1999511719</ele>
        <time>2014-01-31T13:09:02.000Z</time>
      </trkpt>
      <trkpt lat="45.57696" lon="6.56951">
        <ele>2290.8000488281</ele>
        <time>2014-01-31T13:09:03.000Z</time>
      </trkpt>
      <trkpt lat="45.57697" lon="6.56951">
        <ele>2291</ele>
        <time>2014-01-31T13:09:04.000Z</time>
      </trkpt>
      <trkpt lat="45.57698" lon="6.56951">
        <ele>2291.1999511719</ele>
        <time>2014-01-31T13:09:05.000Z</time>
      </trkpt>
      <trkpt lat="45.57698" lon="6.56951">
        <ele>2291.1999511719</ele>
        <time>2014-01-31T13:09:06.000Z</time>
      </trkpt>
      <trkpt lat="45.57699" lon="6.56951">
        <ele>2291.3999023438</ele>
        <time>2014-01-31T13:09:07.000Z</time>
      </trkpt>
      <trkpt lat="45.57699" lon="6.56951">
        <ele>2291.6000976562</ele>
        <time>2014-01-31T13:09:08.000Z</time>
      </trkpt>
      <trkpt lat="45.577" lon="6.56951">
        <ele>2291.8000488281</ele>
        <time>2014-01-31T13:09:09.000Z</time>
      </trkpt>
      <trkpt lat="45.57701" lon="6.56952">
        <ele>2292</ele>
        <time>2014-01-31T13:09:10.000Z</time>
      </trkpt>
      <trkpt lat="45.57702" lon="6.56952">
        <ele>2292.1999511719</ele>
        <time>2014-01-31T13:09:11.000Z</time>
      </trkpt>
      <trkpt lat="45.57703" lon="6.56952">
        <ele>2292.1999511719</ele>
        <time>2014-01-31T13:09:12.000Z</time>
      </trkpt>
      <trkpt lat="45.57704" lon="6.56952">
        <ele>2292.1999511719</ele>
        <time>2014-01-31T13:09:13.000Z</time>
      </trkpt>
      <trkpt lat="45.57705" lon="6.56952">
        <ele>2292.3999023438</ele>
        <time>2014-01-31T13:09:14.000Z</time>
      </trkpt>
      <trkpt lat="45.57705" lon="6.56953">
        <ele>2292.6000976562</ele>
        <time>2014-01-31T13:09:15.000Z</time>
      </trkpt>
      <trkpt lat="45.57706" lon="6.56953">
        <ele>2292.8000488281</ele>
        <time>2014-01-31T13:09:16.000Z</time>
      </trkpt>
      <trkpt lat="45.57707" lon="6.56954">
        <ele>2293.1999511719</ele>
        <time>2014-01-31T13:09:17.000Z</time>
      </trkpt>
      <trkpt lat="45.57708" lon="6.56955">
        <ele>2293.1999511719</ele>
        <time>2014-01-31T13:09:18.000Z</time>
      </trkpt>
      <trkpt lat="45.57709" lon="6.56955">
        <ele>2293.6000976562</ele>
        <time>2014-01-31T13:09:19.000Z</time>
      </trkpt>
      <trkpt lat="45.57709" lon="6.56955">
        <ele>2293.8000488281</ele>
        <time>2014-01-31T13:09:20.000Z</time>
      </trkpt>
      <trkpt lat="45.57709" lon="6.56955">
        <ele>2294.1999511719</ele>
        <time>2014-01-31T13:09:21.000Z</time>
      </trkpt>
      <trkpt lat="45.57709" lon="6.56955">
        <ele>2294.3999023438</ele>
        <time>2014-01-31T13:09:22.000Z</time>
      </trkpt>
      <trkpt lat="45.57709" lon="6.56954">
        <ele>2294.6000976562</ele>
        <time>2014-01-31T13:09:23.000Z</time>
      </trkpt>
      <trkpt lat="45.57709" lon="6.56954">
        <ele>2294.6000976562</ele>
        <time>2014-01-31T13:09:24.000Z</time>
      </trkpt>
      <trkpt lat="45.57708" lon="6.56953">
        <ele>2295</ele>
        <time>2014-01-31T13:09:25.000Z</time>
      </trkpt>
      <trkpt lat="45.57708" lon="6.56953">
        <ele>2295</ele>
        <time>2014-01-31T13:09:26.000Z</time>
      </trkpt>
      <trkpt lat="45.57708" lon="6.56951">
        <ele>2295.1999511719</ele>
        <time>2014-01-31T13:09:27.000Z</time>
      </trkpt>
      <trkpt lat="45.57707" lon="6.5695">
        <ele>2295.1999511719</ele>
        <time>2014-01-31T13:09:28.000Z</time>
      </trkpt>
      <trkpt lat="45.57707" lon="6.56948">
        <ele>2295.3999023438</ele>
        <time>2014-01-31T13:09:29.000Z</time>
      </trkpt>
      <trkpt lat="45.57707" lon="6.56947">
        <ele>2295.3999023438</ele>
        <time>2014-01-31T13:09:30.000Z</time>
      </trkpt>
      <trkpt lat="45.57707" lon="6.56945">
        <ele>2295.3999023438</ele>
        <time>2014-01-31T13:09:31.000Z</time>
      </trkpt>
      <trkpt lat="45.57707" lon="6.56945">
        <ele>2295.6000976562</ele>
        <time>2014-01-31T13:09:32.000Z</time>
      </trkpt>
      <trkpt lat="45.57707" lon="6.56945">
        <ele>2295.8000488281</ele>
        <time>2014-01-31T13:09:33.000Z</time>
      </trkpt>
      <trkpt lat="45.57707" lon="6.56944">
        <ele>2296</ele>
        <time>2014-01-31T13:09:34.000Z</time>
      </trkpt>
      <trkpt lat="45.57707" lon="6.56944">
        <ele>2296.1999511719</ele>
        <time>2014-01-31T13:09:35.000Z</time>
      </trkpt>
      <trkpt lat="45.57707" lon="6.56944">
        <ele>2296.6000976562</ele>
        <time>2014-01-31T13:09:36.000Z</time>
      </trkpt>
      <trkpt lat="45.57707" lon="6.56944">
        <ele>2296.6000976562</ele>
        <time>2014-01-31T13:09:37.000Z</time>
      </trkpt>
      <trkpt lat="45.57707" lon="6.56944">
        <ele>2296.6000976562</ele>
        <time>2014-01-31T13:09:38.000Z</time>
      </trkpt>
      <trkpt lat="45.57707" lon="6.56943">
        <ele>2296.6000976562</ele>
        <time>2014-01-31T13:09:39.000Z</time>
      </trkpt>
      <trkpt lat="45.57706" lon="6.56941">
        <ele>2296.8000488281</ele>
        <time>2014-01-31T13:09:40.000Z</time>
      </trkpt>
      <trkpt lat="45.57706" lon="6.56941">
        <ele>2296.8000488281</ele>
        <time>2014-01-31T13:09:41.000Z</time>
      </trkpt>
      <trkpt lat="45.57706" lon="6.5694">
        <ele>2296.8000488281</ele>
        <time>2014-01-31T13:09:42.000Z</time>
      </trkpt>
      <trkpt lat="45.57706" lon="6.56938">
        <ele>2296.8000488281</ele>
        <time>2014-01-31T13:09:43.000Z</time>
      </trkpt>
      <trkpt lat="45.57706" lon="6.56938">
        <ele>2296.8000488281</ele>
        <time>2014-01-31T13:09:44.000Z</time>
      </trkpt>
      <trkpt lat="45.57706" lon="6.56935">
        <ele>2297</ele>
        <time>2014-01-31T13:09:45.000Z</time>
      </trkpt>
      <trkpt lat="45.57706" lon="6.56935">
        <ele>2297</ele>
        <time>2014-01-31T13:09:46.000Z</time>
      </trkpt>
      <trkpt lat="45.57706" lon="6.56933">
        <ele>2297.1999511719</ele>
        <time>2014-01-31T13:09:47.000Z</time>
      </trkpt>
      <trkpt lat="45.57706" lon="6.56933">
        <ele>2297.3999023438</ele>
        <time>2014-01-31T13:09:48.000Z</time>
      </trkpt>
      <trkpt lat="45.57706" lon="6.56932">
        <ele>2297.6000976562</ele>
        <time>2014-01-31T13:09:49.000Z</time>
      </trkpt>
      <trkpt lat="45.57706" lon="6.5693">
        <ele>2297.8000488281</ele>
        <time>2014-01-31T13:09:50.000Z</time>
      </trkpt>
      <trkpt lat="45.57706" lon="6.5693">
        <ele>2298</ele>
        <time>2014-01-31T13:09:51.000Z</time>
      </trkpt>
      <trkpt lat="45.57706" lon="6.56928">
        <ele>2298</ele>
        <time>2014-01-31T13:09:52.000Z</time>
      </trkpt>
      <trkpt lat="45.57706" lon="6.56928">
        <ele>2298.3999023438</ele>
        <time>2014-01-31T13:09:53.000Z</time>
      </trkpt>
      <trkpt lat="45.57706" lon="6.56928">
        <ele>2298.6000976562</ele>
        <time>2014-01-31T13:09:54.000Z</time>
      </trkpt>
      <trkpt lat="45.57706" lon="6.56926">
        <ele>2298.8000488281</ele>
        <time>2014-01-31T13:09:55.000Z</time>
      </trkpt>
      <trkpt lat="45.57707" lon="6.56925">
        <ele>2299</ele>
        <time>2014-01-31T13:09:56.000Z</time>
      </trkpt>
      <trkpt lat="45.57707" lon="6.56924">
        <ele>2299</ele>
        <time>2014-01-31T13:09:57.000Z</time>
      </trkpt>
      <trkpt lat="45.57707" lon="6.56923">
        <ele>2299.1999511719</ele>
        <time>2014-01-31T13:09:58.000Z</time>
      </trkpt>
      <trkpt lat="45.57707" lon="6.56922">
        <ele>2299.1999511719</ele>
        <time>2014-01-31T13:09:59.000Z</time>
      </trkpt>
      <trkpt lat="45.57707" lon="6.56922">
        <ele>2299.3999023438</ele>
        <time>2014-01-31T13:10:00.000Z</time>
      </trkpt>
      <trkpt lat="45.57707" lon="6.56921">
        <ele>2299.6000976562</ele>
        <time>2014-01-31T13:10:01.000Z</time>
      </trkpt>
      <trkpt lat="45.57707" lon="6.56921">
        <ele>2300</ele>
        <time>2014-01-31T13:10:02.000Z</time>
      </trkpt>
      <trkpt lat="45.57707" lon="6.5692">
        <ele>2300.1999511719</ele>
        <time>2014-01-31T13:10:03.000Z</time>
      </trkpt>
      <trkpt lat="45.57707" lon="6.56918">
        <ele>2300.3999023438</ele>
        <time>2014-01-31T13:10:04.000Z</time>
      </trkpt>
      <trkpt lat="45.57707" lon="6.56918">
        <ele>2300.6000976562</ele>
        <time>2014-01-31T13:10:05.000Z</time>
      </trkpt>
      <trkpt lat="45.57707" lon="6.56917">
        <ele>2300.8000488281</ele>
        <time>2014-01-31T13:10:06.000Z</time>
      </trkpt>
      <trkpt lat="45.57707" lon="6.56917">
        <ele>2301</ele>
        <time>2014-01-31T13:10:07.000Z</time>
      </trkpt>
      <trkpt lat="45.57707" lon="6.56916">
        <ele>2301.1999511719</ele>
        <time>2014-01-31T13:10:08.000Z</time>
      </trkpt>
      <trkpt lat="45.57707" lon="6.56915">
        <ele>2301.1999511719</ele>
        <time>2014-01-31T13:10:09.000Z</time>
      </trkpt>
      <trkpt lat="45.57707" lon="6.56914">
        <ele>2301.3999023438</ele>
        <time>2014-01-31T13:10:10.000Z</time>
      </trkpt>
      <trkpt lat="45.57707" lon="6.56912">
        <ele>2301.6000976562</ele>
        <time>2014-01-31T13:10:11.000Z</time>
      </trkpt>
      <trkpt lat="45.57707" lon="6.56912">
        <ele>2301.8000488281</ele>
        <time>2014-01-31T13:10:12.000Z</time>
      </trkpt>
      <trkpt lat="45.57707" lon="6.56911">
        <ele>2302.1999511719</ele>
        <time>2014-01-31T13:10:13.000Z</time>
      </trkpt>
      <trkpt lat="45.57707" lon="6.5691">
        <ele>2302.3999023438</ele>
        <time>2014-01-31T13:10:14.000Z</time>
      </trkpt>
      <trkpt lat="45.57707" lon="6.56909">
        <ele>2302.8000488281</ele>
        <time>2014-01-31T13:10:15.000Z</time>
      </trkpt>
      <trkpt lat="45.57707" lon="6.56908">
        <ele>2303</ele>
        <time>2014-01-31T13:10:16.000Z</time>
      </trkpt>
      <trkpt lat="45.57707" lon="6.56907">
        <ele>2303</ele>
        <time>2014-01-31T13:10:17.000Z</time>
      </trkpt>
      <trkpt lat="45.57707" lon="6.56906">
        <ele>2303.1999511719</ele>
        <time>2014-01-31T13:10:18.000Z</time>
      </trkpt>
      <trkpt lat="45.57707" lon="6.56905">
        <ele>2303.1999511719</ele>
        <time>2014-01-31T13:10:19.000Z</time>
      </trkpt>
      <trkpt lat="45.57707" lon="6.56905">
        <ele>2303.1999511719</ele>
        <time>2014-01-31T13:10:20.000Z</time>
      </trkpt>
      <trkpt lat="45.57707" lon="6.56904">
        <ele>2303.3999023438</ele>
        <time>2014-01-31T13:10:21.000Z</time>
      </trkpt>
      <trkpt lat="45.57707" lon="6.56903">
        <ele>2303.6000976562</ele>
        <time>2014-01-31T13:10:22.000Z</time>
      </trkpt>
      <trkpt lat="45.57708" lon="6.56902">
        <ele>2303.8000488281</ele>
        <time>2014-01-31T13:10:23.000Z</time>
      </trkpt>
      <trkpt lat="45.57708" lon="6.56901">
        <ele>2304.1999511719</ele>
        <time>2014-01-31T13:10:24.000Z</time>
      </trkpt>
      <trkpt lat="45.57708" lon="6.56899">
        <ele>2304.3999023438</ele>
        <time>2014-01-31T13:10:25.000Z</time>
      </trkpt>
      <trkpt lat="45.57708" lon="6.56899">
        <ele>2304.6000976562</ele>
        <time>2014-01-31T13:10:26.000Z</time>
      </trkpt>
      <trkpt lat="45.57709" lon="6.56896">
        <ele>2304.8000488281</ele>
        <time>2014-01-31T13:10:27.000Z</time>
      </trkpt>
      <trkpt lat="45.57709" lon="6.56896">
        <ele>2305</ele>
        <time>2014-01-31T13:10:28.000Z</time>
      </trkpt>
      <trkpt lat="45.57709" lon="6.56895">
        <ele>2305</ele>
        <time>2014-01-31T13:10:29.000Z</time>
      </trkpt>
      <trkpt lat="45.57709" lon="6.56895">
        <ele>2305.1999511719</ele>
        <time>2014-01-31T13:10:30.000Z</time>
      </trkpt>
      <trkpt lat="45.57709" lon="6.56895">
        <ele>2305.1999511719</ele>
        <time>2014-01-31T13:10:31.000Z</time>
      </trkpt>
      <trkpt lat="45.5771" lon="6.56893">
        <ele>2305.3999023438</ele>
        <time>2014-01-31T13:10:32.000Z</time>
      </trkpt>
      <trkpt lat="45.5771" lon="6.56893">
        <ele>2305.6000976562</ele>
        <time>2014-01-31T13:10:33.000Z</time>
      </trkpt>
      <trkpt lat="45.5771" lon="6.56891">
        <ele>2305.8000488281</ele>
        <time>2014-01-31T13:10:34.000Z</time>
      </trkpt>
      <trkpt lat="45.5771" lon="6.56891">
        <ele>2306</ele>
        <time>2014-01-31T13:10:35.000Z</time>
      </trkpt>
      <trkpt lat="45.57711" lon="6.5689">
        <ele>2306.3999023438</ele>
        <time>2014-01-31T13:10:36.000Z</time>
      </trkpt>
      <trkpt lat="45.57711" lon="6.56889">
        <ele>2306.6000976562</ele>
        <time>2014-01-31T13:10:37.000Z</time>
      </trkpt>
      <trkpt lat="45.57711" lon="6.56888">
        <ele>2306.8000488281</ele>
        <time>2014-01-31T13:10:38.000Z</time>
      </trkpt>
      <trkpt lat="45.57711" lon="6.56887">
        <ele>2307.1999511719</ele>
        <time>2014-01-31T13:10:39.000Z</time>
      </trkpt>
      <trkpt lat="45.57711" lon="6.56886">
        <ele>2307.3999023438</ele>
        <time>2014-01-31T13:10:40.000Z</time>
      </trkpt>
      <trkpt lat="45.57712" lon="6.56886">
        <ele>2307.3999023438</ele>
        <time>2014-01-31T13:10:41.000Z</time>
      </trkpt>
      <trkpt lat="45.57712" lon="6.56885">
        <ele>2307.6000976562</ele>
        <time>2014-01-31T13:10:42.000Z</time>
      </trkpt>
      <trkpt lat="45.57712" lon="6.56885">
        <ele>2307.8000488281</ele>
        <time>2014-01-31T13:10:43.000Z</time>
      </trkpt>
      <trkpt lat="45.57713" lon="6.56884">
        <ele>2308</ele>
        <time>2014-01-31T13:10:44.000Z</time>
      </trkpt>
      <trkpt lat="45.57713" lon="6.56883">
        <ele>2308.3999023438</ele>
        <time>2014-01-31T13:10:45.000Z</time>
      </trkpt>
      <trkpt lat="45.57714" lon="6.56883">
        <ele>2308.6000976562</ele>
        <time>2014-01-31T13:10:46.000Z</time>
      </trkpt>
      <trkpt lat="45.57714" lon="6.56881">
        <ele>2308.6000976562</ele>
        <time>2014-01-31T13:10:47.000Z</time>
      </trkpt>
      <trkpt lat="45.57715" lon="6.56881">
        <ele>2308.8000488281</ele>
        <time>2014-01-31T13:10:48.000Z</time>
      </trkpt>
      <trkpt lat="45.57716" lon="6.5688">
        <ele>2309</ele>
        <time>2014-01-31T13:10:49.000Z</time>
      </trkpt>
      <trkpt lat="45.57716" lon="6.5688">
        <ele>2309.1999511719</ele>
        <time>2014-01-31T13:10:50.000Z</time>
      </trkpt>
      <trkpt lat="45.57717" lon="6.56879">
        <ele>2309.3999023438</ele>
        <time>2014-01-31T13:10:51.000Z</time>
      </trkpt>
      <trkpt lat="45.57717" lon="6.56879">
        <ele>2309.6000976562</ele>
        <time>2014-01-31T13:10:52.000Z</time>
      </trkpt>
      <trkpt lat="45.57718" lon="6.56878">
        <ele>2309.8000488281</ele>
        <time>2014-01-31T13:10:53.000Z</time>
      </trkpt>
      <trkpt lat="45.57718" lon="6.56878">
        <ele>2309.8000488281</ele>
        <time>2014-01-31T13:10:54.000Z</time>
      </trkpt>
      <trkpt lat="45.57718" lon="6.56878">
        <ele>2310</ele>
        <time>2014-01-31T13:10:55.000Z</time>
      </trkpt>
      <trkpt lat="45.57719" lon="6.56877">
        <ele>2310.1999511719</ele>
        <time>2014-01-31T13:10:56.000Z</time>
      </trkpt>
      <trkpt lat="45.57719" lon="6.56876">
        <ele>2310.1999511719</ele>
        <time>2014-01-31T13:10:57.000Z</time>
      </trkpt>
      <trkpt lat="45.5772" lon="6.56875">
        <ele>2310.6000976562</ele>
        <time>2014-01-31T13:10:58.000Z</time>
      </trkpt>
      <trkpt lat="45.5772" lon="6.56875">
        <ele>2310.8000488281</ele>
        <time>2014-01-31T13:10:59.000Z</time>
      </trkpt>
      <trkpt lat="45.5772" lon="6.56875">
        <ele>2311.1999511719</ele>
        <time>2014-01-31T13:11:00.000Z</time>
      </trkpt>
      <trkpt lat="45.57721" lon="6.56874">
        <ele>2311.3999023438</ele>
        <time>2014-01-31T13:11:02.000Z</time>
      </trkpt>
      <trkpt lat="45.57721" lon="6.56874">
        <ele>2311.8000488281</ele>
        <time>2014-01-31T13:11:03.000Z</time>
      </trkpt>
      <trkpt lat="45.57722" lon="6.56874">
        <ele>2312</ele>
        <time>2014-01-31T13:11:04.000Z</time>
      </trkpt>
      <trkpt lat="45.57722" lon="6.56874">
        <ele>2312.3999023438</ele>
        <time>2014-01-31T13:11:05.000Z</time>
      </trkpt>
      <trkpt lat="45.57722" lon="6.56874">
        <ele>2312.6000976562</ele>
        <time>2014-01-31T13:11:06.000Z</time>
      </trkpt>
      <trkpt lat="45.57722" lon="6.56874">
        <ele>2313</ele>
        <time>2014-01-31T13:11:07.000Z</time>
      </trkpt>
      <trkpt lat="45.57722" lon="6.56874">
        <ele>2313</ele>
        <time>2014-01-31T13:11:08.000Z</time>
      </trkpt>
      <trkpt lat="45.57722" lon="6.56874">
        <ele>2313</ele>
        <time>2014-01-31T13:11:09.000Z</time>
      </trkpt>
      <trkpt lat="45.57722" lon="6.56874">
        <ele>2313</ele>
        <time>2014-01-31T13:11:10.000Z</time>
      </trkpt>
      <trkpt lat="45.57722" lon="6.56874">
        <ele>2313</ele>
        <time>2014-01-31T13:11:11.000Z</time>
      </trkpt>
      <trkpt lat="45.57722" lon="6.56874">
        <ele>2313</ele>
        <time>2014-01-31T13:11:12.000Z</time>
      </trkpt>
      <trkpt lat="45.57723" lon="6.56875">
        <ele>2313</ele>
        <time>2014-01-31T13:11:13.000Z</time>
      </trkpt>
      <trkpt lat="45.57723" lon="6.56876">
        <ele>2313</ele>
        <time>2014-01-31T13:11:14.000Z</time>
      </trkpt>
      <trkpt lat="45.57723" lon="6.56876">
        <ele>2313</ele>
        <time>2014-01-31T13:11:15.000Z</time>
      </trkpt>
      <trkpt lat="45.57723" lon="6.56877">
        <ele>2313.1999511719</ele>
        <time>2014-01-31T13:11:16.000Z</time>
      </trkpt>
      <trkpt lat="45.57724" lon="6.56878">
        <ele>2313.3999023438</ele>
        <time>2014-01-31T13:11:17.000Z</time>
      </trkpt>
      <trkpt lat="45.57724" lon="6.56878">
        <ele>2313.6000976562</ele>
        <time>2014-01-31T13:11:18.000Z</time>
      </trkpt>
      <trkpt lat="45.57724" lon="6.56879">
        <ele>2313.8000488281</ele>
        <time>2014-01-31T13:11:19.000Z</time>
      </trkpt>
      <trkpt lat="45.57724" lon="6.56881">
        <ele>2314</ele>
        <time>2014-01-31T13:11:20.000Z</time>
      </trkpt>
      <trkpt lat="45.57724" lon="6.56881">
        <ele>2314.1999511719</ele>
        <time>2014-01-31T13:11:21.000Z</time>
      </trkpt>
      <trkpt lat="45.57725" lon="6.56882">
        <ele>2314.3999023438</ele>
        <time>2014-01-31T13:11:22.000Z</time>
      </trkpt>
      <trkpt lat="45.57725" lon="6.56882">
        <ele>2314.6000976562</ele>
        <time>2014-01-31T13:11:23.000Z</time>
      </trkpt>
      <trkpt lat="45.57725" lon="6.56882">
        <ele>2314.8000488281</ele>
        <time>2014-01-31T13:11:24.000Z</time>
      </trkpt>
      <trkpt lat="45.57726" lon="6.56883">
        <ele>2314.8000488281</ele>
        <time>2014-01-31T13:11:25.000Z</time>
      </trkpt>
      <trkpt lat="45.57726" lon="6.56883">
        <ele>2315.1999511719</ele>
        <time>2014-01-31T13:11:26.000Z</time>
      </trkpt>
      <trkpt lat="45.57726" lon="6.56883">
        <ele>2315.6000976562</ele>
        <time>2014-01-31T13:11:27.000Z</time>
      </trkpt>
      <trkpt lat="45.57726" lon="6.56883">
        <ele>2315.8000488281</ele>
        <time>2014-01-31T13:11:28.000Z</time>
      </trkpt>
      <trkpt lat="45.57726" lon="6.56883">
        <ele>2315.8000488281</ele>
        <time>2014-01-31T13:11:29.000Z</time>
      </trkpt>
      <trkpt lat="45.57727" lon="6.56883">
        <ele>2316</ele>
        <time>2014-01-31T13:11:30.000Z</time>
      </trkpt>
      <trkpt lat="45.57727" lon="6.56883">
        <ele>2316.1999511719</ele>
        <time>2014-01-31T13:11:31.000Z</time>
      </trkpt>
      <trkpt lat="45.57727" lon="6.56882">
        <ele>2316.1999511719</ele>
        <time>2014-01-31T13:11:32.000Z</time>
      </trkpt>
      <trkpt lat="45.57727" lon="6.56881">
        <ele>2316.3999023438</ele>
        <time>2014-01-31T13:11:33.000Z</time>
      </trkpt>
      <trkpt lat="45.57727" lon="6.5688">
        <ele>2316.3999023438</ele>
        <time>2014-01-31T13:11:34.000Z</time>
      </trkpt>
      <trkpt lat="45.57728" lon="6.56879">
        <ele>2316.3999023438</ele>
        <time>2014-01-31T13:11:35.000Z</time>
      </trkpt>
      <trkpt lat="45.57728" lon="6.56878">
        <ele>2316.6000976562</ele>
        <time>2014-01-31T13:11:36.000Z</time>
      </trkpt>
      <trkpt lat="45.57728" lon="6.56878">
        <ele>2316.8000488281</ele>
        <time>2014-01-31T13:11:37.000Z</time>
      </trkpt>
      <trkpt lat="45.57729" lon="6.56876">
        <ele>2317</ele>
        <time>2014-01-31T13:11:38.000Z</time>
      </trkpt>
      <trkpt lat="45.57729" lon="6.56876">
        <ele>2317</ele>
        <time>2014-01-31T13:11:39.000Z</time>
      </trkpt>
      <trkpt lat="45.57729" lon="6.56875">
        <ele>2317.1999511719</ele>
        <time>2014-01-31T13:11:40.000Z</time>
      </trkpt>
      <trkpt lat="45.57729" lon="6.56875">
        <ele>2317.1999511719</ele>
        <time>2014-01-31T13:11:41.000Z</time>
      </trkpt>
      <trkpt lat="45.57729" lon="6.56875">
        <ele>2317.3999023438</ele>
        <time>2014-01-31T13:11:42.000Z</time>
      </trkpt>
      <trkpt lat="45.57729" lon="6.56875">
        <ele>2317.6000976562</ele>
        <time>2014-01-31T13:11:43.000Z</time>
      </trkpt>
      <trkpt lat="45.57729" lon="6.56874">
        <ele>2317.8000488281</ele>
        <time>2014-01-31T13:11:44.000Z</time>
      </trkpt>
      <trkpt lat="45.57729" lon="6.56873">
        <ele>2318</ele>
        <time>2014-01-31T13:11:45.000Z</time>
      </trkpt>
      <trkpt lat="45.57729" lon="6.56873">
        <ele>2318.1999511719</ele>
        <time>2014-01-31T13:11:46.000Z</time>
      </trkpt>
      <trkpt lat="45.5773" lon="6.56872">
        <ele>2318.3999023438</ele>
        <time>2014-01-31T13:11:47.000Z</time>
      </trkpt>
      <trkpt lat="45.5773" lon="6.56871">
        <ele>2318.6000976562</ele>
        <time>2014-01-31T13:11:48.000Z</time>
      </trkpt>
      <trkpt lat="45.57731" lon="6.56871">
        <ele>2318.8000488281</ele>
        <time>2014-01-31T13:11:49.000Z</time>
      </trkpt>
      <trkpt lat="45.57731" lon="6.5687">
        <ele>2318.8000488281</ele>
        <time>2014-01-31T13:11:50.000Z</time>
      </trkpt>
      <trkpt lat="45.57731" lon="6.5687">
        <ele>2318.8000488281</ele>
        <time>2014-01-31T13:11:51.000Z</time>
      </trkpt>
      <trkpt lat="45.57731" lon="6.5687">
        <ele>2319</ele>
        <time>2014-01-31T13:11:52.000Z</time>
      </trkpt>
      <trkpt lat="45.57731" lon="6.56871">
        <ele>2319.1999511719</ele>
        <time>2014-01-31T13:11:53.000Z</time>
      </trkpt>
      <trkpt lat="45.57731" lon="6.56871">
        <ele>2319.6000976562</ele>
        <time>2014-01-31T13:11:54.000Z</time>
      </trkpt>
      <trkpt lat="45.57731" lon="6.56871">
        <ele>2319.8000488281</ele>
        <time>2014-01-31T13:11:55.000Z</time>
      </trkpt>
      <trkpt lat="45.57732" lon="6.56872">
        <ele>2320</ele>
        <time>2014-01-31T13:11:56.000Z</time>
      </trkpt>
      <trkpt lat="45.57732" lon="6.56872">
        <ele>2320.1999511719</ele>
        <time>2014-01-31T13:11:57.000Z</time>
      </trkpt>
      <trkpt lat="45.57733" lon="6.56873">
        <ele>2320.3999023438</ele>
        <time>2014-01-31T13:11:58.000Z</time>
      </trkpt>
      <trkpt lat="45.57733" lon="6.56874">
        <ele>2320.6000976562</ele>
        <time>2014-01-31T13:11:59.000Z</time>
      </trkpt>
      <trkpt lat="45.57733" lon="6.56876">
        <ele>2320.6000976562</ele>
        <time>2014-01-31T13:12:00.000Z</time>
      </trkpt>
      <trkpt lat="45.57733" lon="6.56876">
        <ele>2320.8000488281</ele>
        <time>2014-01-31T13:12:01.000Z</time>
      </trkpt>
      <trkpt lat="45.57734" lon="6.56877">
        <ele>2320.8000488281</ele>
        <time>2014-01-31T13:12:02.000Z</time>
      </trkpt>
      <trkpt lat="45.57735" lon="6.56877">
        <ele>2320.8000488281</ele>
        <time>2014-01-31T13:12:03.000Z</time>
      </trkpt>
      <trkpt lat="45.57735" lon="6.56878">
        <ele>2320.8000488281</ele>
        <time>2014-01-31T13:12:04.000Z</time>
      </trkpt>
      <trkpt lat="45.57735" lon="6.5688">
        <ele>2321</ele>
        <time>2014-01-31T13:12:05.000Z</time>
      </trkpt>
      <trkpt lat="45.57735" lon="6.56881">
        <ele>2321.1999511719</ele>
        <time>2014-01-31T13:12:06.000Z</time>
      </trkpt>
      <trkpt lat="45.57736" lon="6.56883">
        <ele>2321.3999023438</ele>
        <time>2014-01-31T13:12:07.000Z</time>
      </trkpt>
      <trkpt lat="45.57736" lon="6.56883">
        <ele>2321.1999511719</ele>
        <time>2014-01-31T13:12:08.000Z</time>
      </trkpt>
      <trkpt lat="45.57737" lon="6.56885">
        <ele>2321.6000976562</ele>
        <time>2014-01-31T13:12:09.000Z</time>
      </trkpt>
      <trkpt lat="45.57737" lon="6.56886">
        <ele>2321.6000976562</ele>
        <time>2014-01-31T13:12:10.000Z</time>
      </trkpt>
      <trkpt lat="45.57738" lon="6.56887">
        <ele>2321.8000488281</ele>
        <time>2014-01-31T13:12:11.000Z</time>
      </trkpt>
      <trkpt lat="45.57738" lon="6.56886">
        <ele>2321.8000488281</ele>
        <time>2014-01-31T13:12:12.000Z</time>
      </trkpt>
      <trkpt lat="45.57738" lon="6.56887">
        <ele>2322</ele>
        <time>2014-01-31T13:12:13.000Z</time>
      </trkpt>
      <trkpt lat="45.57739" lon="6.56888">
        <ele>2322.1999511719</ele>
        <time>2014-01-31T13:12:14.000Z</time>
      </trkpt>
      <trkpt lat="45.57739" lon="6.56888">
        <ele>2322.6000976562</ele>
        <time>2014-01-31T13:12:15.000Z</time>
      </trkpt>
      <trkpt lat="45.5774" lon="6.5689">
        <ele>2322.8000488281</ele>
        <time>2014-01-31T13:12:16.000Z</time>
      </trkpt>
      <trkpt lat="45.5774" lon="6.56891">
        <ele>2322.8000488281</ele>
        <time>2014-01-31T13:12:17.000Z</time>
      </trkpt>
      <trkpt lat="45.57741" lon="6.56892">
        <ele>2323.1999511719</ele>
        <time>2014-01-31T13:12:18.000Z</time>
      </trkpt>
      <trkpt lat="45.57741" lon="6.56893">
        <ele>2323.3999023438</ele>
        <time>2014-01-31T13:12:19.000Z</time>
      </trkpt>
      <trkpt lat="45.57742" lon="6.56894">
        <ele>2323.3999023438</ele>
        <time>2014-01-31T13:12:20.000Z</time>
      </trkpt>
      <trkpt lat="45.57742" lon="6.56893">
        <ele>2323.6000976562</ele>
        <time>2014-01-31T13:12:21.000Z</time>
      </trkpt>
      <trkpt lat="45.57742" lon="6.56894">
        <ele>2323.8000488281</ele>
        <time>2014-01-31T13:12:22.000Z</time>
      </trkpt>
      <trkpt lat="45.57742" lon="6.56896">
        <ele>2323.8000488281</ele>
        <time>2014-01-31T13:12:23.000Z</time>
      </trkpt>
      <trkpt lat="45.57742" lon="6.56896">
        <ele>2324</ele>
        <time>2014-01-31T13:12:24.000Z</time>
      </trkpt>
      <trkpt lat="45.57742" lon="6.56898">
        <ele>2324</ele>
        <time>2014-01-31T13:12:25.000Z</time>
      </trkpt>
      <trkpt lat="45.57743" lon="6.56899">
        <ele>2324.1999511719</ele>
        <time>2014-01-31T13:12:26.000Z</time>
      </trkpt>
      <trkpt lat="45.57743" lon="6.569">
        <ele>2324.1999511719</ele>
        <time>2014-01-31T13:12:27.000Z</time>
      </trkpt>
      <trkpt lat="45.57743" lon="6.569">
        <ele>2324.3999023438</ele>
        <time>2014-01-31T13:12:28.000Z</time>
      </trkpt>
      <trkpt lat="45.57744" lon="6.56901">
        <ele>2324.3999023438</ele>
        <time>2014-01-31T13:12:29.000Z</time>
      </trkpt>
      <trkpt lat="45.57744" lon="6.56901">
        <ele>2324.6000976562</ele>
        <time>2014-01-31T13:12:30.000Z</time>
      </trkpt>
      <trkpt lat="45.57744" lon="6.56901">
        <ele>2324.8000488281</ele>
        <time>2014-01-31T13:12:31.000Z</time>
      </trkpt>
      <trkpt lat="45.57744" lon="6.56903">
        <ele>2325</ele>
        <time>2014-01-31T13:12:32.000Z</time>
      </trkpt>
      <trkpt lat="45.57744" lon="6.56903">
        <ele>2325.1999511719</ele>
        <time>2014-01-31T13:12:33.000Z</time>
      </trkpt>
      <trkpt lat="45.57745" lon="6.56904">
        <ele>2325.3999023438</ele>
        <time>2014-01-31T13:12:34.000Z</time>
      </trkpt>
      <trkpt lat="45.57746" lon="6.56905">
        <ele>2325.6000976562</ele>
        <time>2014-01-31T13:12:35.000Z</time>
      </trkpt>
      <trkpt lat="45.57747" lon="6.56906">
        <ele>2325.8000488281</ele>
        <time>2014-01-31T13:12:36.000Z</time>
      </trkpt>
      <trkpt lat="45.57747" lon="6.56907">
        <ele>2326</ele>
        <time>2014-01-31T13:12:37.000Z</time>
      </trkpt>
      <trkpt lat="45.57748" lon="6.56908">
        <ele>2326.1999511719</ele>
        <time>2014-01-31T13:12:38.000Z</time>
      </trkpt>
      <trkpt lat="45.57748" lon="6.56908">
        <ele>2326.3999023438</ele>
        <time>2014-01-31T13:12:39.000Z</time>
      </trkpt>
      <trkpt lat="45.57748" lon="6.56908">
        <ele>2326.6000976562</ele>
        <time>2014-01-31T13:12:40.000Z</time>
      </trkpt>
      <trkpt lat="45.57749" lon="6.56909">
        <ele>2326.8000488281</ele>
        <time>2014-01-31T13:12:41.000Z</time>
      </trkpt>
      <trkpt lat="45.5775" lon="6.56909">
        <ele>2326.8000488281</ele>
        <time>2014-01-31T13:12:42.000Z</time>
      </trkpt>
      <trkpt lat="45.5775" lon="6.56909">
        <ele>2327</ele>
        <time>2014-01-31T13:12:43.000Z</time>
      </trkpt>
      <trkpt lat="45.5775" lon="6.56909">
        <ele>2327.1999511719</ele>
        <time>2014-01-31T13:12:44.000Z</time>
      </trkpt>
      <trkpt lat="45.5775" lon="6.56909">
        <ele>2327.3999023438</ele>
        <time>2014-01-31T13:12:45.000Z</time>
      </trkpt>
      <trkpt lat="45.5775" lon="6.56909">
        <ele>2327.3999023438</ele>
        <time>2014-01-31T13:12:46.000Z</time>
      </trkpt>
      <trkpt lat="45.5775" lon="6.56909">
        <ele>2327.3999023438</ele>
        <time>2014-01-31T13:12:47.000Z</time>
      </trkpt>
      <trkpt lat="45.5775" lon="6.56908">
        <ele>2327.6000976562</ele>
        <time>2014-01-31T13:12:48.000Z</time>
      </trkpt>
      <trkpt lat="45.5775" lon="6.56908">
        <ele>2327.6000976562</ele>
        <time>2014-01-31T13:12:49.000Z</time>
      </trkpt>
      <trkpt lat="45.57749" lon="6.56907">
        <ele>2327.6000976562</ele>
        <time>2014-01-31T13:12:50.000Z</time>
      </trkpt>
      <trkpt lat="45.5775" lon="6.56906">
        <ele>2327.6000976562</ele>
        <time>2014-01-31T13:12:51.000Z</time>
      </trkpt>
      <trkpt lat="45.57749" lon="6.56906">
        <ele>2327.8000488281</ele>
        <time>2014-01-31T13:12:52.000Z</time>
      </trkpt>
      <trkpt lat="45.5775" lon="6.56904">
        <ele>2328</ele>
        <time>2014-01-31T13:12:53.000Z</time>
      </trkpt>
      <trkpt lat="45.57749" lon="6.56904">
        <ele>2328.3999023438</ele>
        <time>2014-01-31T13:12:54.000Z</time>
      </trkpt>
      <trkpt lat="45.57749" lon="6.56904">
        <ele>2328.6000976562</ele>
        <time>2014-01-31T13:12:55.000Z</time>
      </trkpt>
      <trkpt lat="45.5775" lon="6.56903">
        <ele>2328.8000488281</ele>
        <time>2014-01-31T13:12:56.000Z</time>
      </trkpt>
      <trkpt lat="45.5775" lon="6.56902">
        <ele>2329</ele>
        <time>2014-01-31T13:12:57.000Z</time>
      </trkpt>
      <trkpt lat="45.5775" lon="6.56902">
        <ele>2329.1999511719</ele>
        <time>2014-01-31T13:12:58.000Z</time>
      </trkpt>
      <trkpt lat="45.5775" lon="6.56901">
        <ele>2329.1999511719</ele>
        <time>2014-01-31T13:12:59.000Z</time>
      </trkpt>
      <trkpt lat="45.5775" lon="6.56899">
        <ele>2329.3999023438</ele>
        <time>2014-01-31T13:13:00.000Z</time>
      </trkpt>
      <trkpt lat="45.5775" lon="6.56899">
        <ele>2329.3999023438</ele>
        <time>2014-01-31T13:13:01.000Z</time>
      </trkpt>
      <trkpt lat="45.5775" lon="6.56897">
        <ele>2329.8000488281</ele>
        <time>2014-01-31T13:13:02.000Z</time>
      </trkpt>
      <trkpt lat="45.5775" lon="6.56897">
        <ele>2330.1999511719</ele>
        <time>2014-01-31T13:13:03.000Z</time>
      </trkpt>
      <trkpt lat="45.5775" lon="6.56896">
        <ele>2330.1999511719</ele>
        <time>2014-01-31T13:13:04.000Z</time>
      </trkpt>
      <trkpt lat="45.5775" lon="6.56895">
        <ele>2330.6000976562</ele>
        <time>2014-01-31T13:13:05.000Z</time>
      </trkpt>
      <trkpt lat="45.57751" lon="6.56894">
        <ele>2330.6000976562</ele>
        <time>2014-01-31T13:13:06.000Z</time>
      </trkpt>
      <trkpt lat="45.57751" lon="6.56893">
        <ele>2330.8000488281</ele>
        <time>2014-01-31T13:13:07.000Z</time>
      </trkpt>
      <trkpt lat="45.57751" lon="6.56892">
        <ele>2330.8000488281</ele>
        <time>2014-01-31T13:13:08.000Z</time>
      </trkpt>
      <trkpt lat="45.57751" lon="6.56891">
        <ele>2331</ele>
        <time>2014-01-31T13:13:09.000Z</time>
      </trkpt>
      <trkpt lat="45.57751" lon="6.5689">
        <ele>2331</ele>
        <time>2014-01-31T13:13:10.000Z</time>
      </trkpt>
      <trkpt lat="45.57751" lon="6.56889">
        <ele>2331</ele>
        <time>2014-01-31T13:13:11.000Z</time>
      </trkpt>
      <trkpt lat="45.57751" lon="6.56888">
        <ele>2331.1999511719</ele>
        <time>2014-01-31T13:13:12.000Z</time>
      </trkpt>
      <trkpt lat="45.57751" lon="6.56888">
        <ele>2331.1999511719</ele>
        <time>2014-01-31T13:13:13.000Z</time>
      </trkpt>
      <trkpt lat="45.57751" lon="6.56887">
        <ele>2331.3999023438</ele>
        <time>2014-01-31T13:13:14.000Z</time>
      </trkpt>
      <trkpt lat="45.57751" lon="6.56886">
        <ele>2331.3999023438</ele>
        <time>2014-01-31T13:13:15.000Z</time>
      </trkpt>
      <trkpt lat="45.57752" lon="6.56884">
        <ele>2331.6000976562</ele>
        <time>2014-01-31T13:13:16.000Z</time>
      </trkpt>
      <trkpt lat="45.57751" lon="6.56884">
        <ele>2331.8000488281</ele>
        <time>2014-01-31T13:13:17.000Z</time>
      </trkpt>
      <trkpt lat="45.57751" lon="6.56884">
        <ele>2332</ele>
        <time>2014-01-31T13:13:18.000Z</time>
      </trkpt>
      <trkpt lat="45.57752" lon="6.56883">
        <ele>2332.1999511719</ele>
        <time>2014-01-31T13:13:19.000Z</time>
      </trkpt>
      <trkpt lat="45.57752" lon="6.56882">
        <ele>2332.1999511719</ele>
        <time>2014-01-31T13:13:20.000Z</time>
      </trkpt>
      <trkpt lat="45.57752" lon="6.56881">
        <ele>2332.3999023438</ele>
        <time>2014-01-31T13:13:21.000Z</time>
      </trkpt>
      <trkpt lat="45.57753" lon="6.5688">
        <ele>2332.3999023438</ele>
        <time>2014-01-31T13:13:22.000Z</time>
      </trkpt>
      <trkpt lat="45.57753" lon="6.56878">
        <ele>2332.6000976562</ele>
        <time>2014-01-31T13:13:23.000Z</time>
      </trkpt>
      <trkpt lat="45.57753" lon="6.56878">
        <ele>2332.6000976562</ele>
        <time>2014-01-31T13:13:24.000Z</time>
      </trkpt>
      <trkpt lat="45.57754" lon="6.56876">
        <ele>2333</ele>
        <time>2014-01-31T13:13:25.000Z</time>
      </trkpt>
      <trkpt lat="45.57754" lon="6.56876">
        <ele>2333</ele>
        <time>2014-01-31T13:13:26.000Z</time>
      </trkpt>
      <trkpt lat="45.57754" lon="6.56875">
        <ele>2333.3999023438</ele>
        <time>2014-01-31T13:13:27.000Z</time>
      </trkpt>
      <trkpt lat="45.57755" lon="6.56874">
        <ele>2333.6000976562</ele>
        <time>2014-01-31T13:13:28.000Z</time>
      </trkpt>
      <trkpt lat="45.57755" lon="6.56874">
        <ele>2333.8000488281</ele>
        <time>2014-01-31T13:13:29.000Z</time>
      </trkpt>
      <trkpt lat="45.57756" lon="6.56872">
        <ele>2334.1999511719</ele>
        <time>2014-01-31T13:13:30.000Z</time>
      </trkpt>
      <trkpt lat="45.57756" lon="6.56872">
        <ele>2334.1999511719</ele>
        <time>2014-01-31T13:13:31.000Z</time>
      </trkpt>
      <trkpt lat="45.57756" lon="6.5687">
        <ele>2334.6000976562</ele>
        <time>2014-01-31T13:13:32.000Z</time>
      </trkpt>
      <trkpt lat="45.57756" lon="6.5687">
        <ele>2334.8000488281</ele>
        <time>2014-01-31T13:13:33.000Z</time>
      </trkpt>
      <trkpt lat="45.57757" lon="6.56868">
        <ele>2334.8000488281</ele>
        <time>2014-01-31T13:13:34.000Z</time>
      </trkpt>
      <trkpt lat="45.57757" lon="6.56868">
        <ele>2335</ele>
        <time>2014-01-31T13:13:35.000Z</time>
      </trkpt>
      <trkpt lat="45.57757" lon="6.56867">
        <ele>2335.1999511719</ele>
        <time>2014-01-31T13:13:36.000Z</time>
      </trkpt>
      <trkpt lat="45.57757" lon="6.56867">
        <ele>2335.3999023438</ele>
        <time>2014-01-31T13:13:37.000Z</time>
      </trkpt>
      <trkpt lat="45.57757" lon="6.56866">
        <ele>2335.3999023438</ele>
        <time>2014-01-31T13:13:38.000Z</time>
      </trkpt>
      <trkpt lat="45.57758" lon="6.56864">
        <ele>2335.6000976562</ele>
        <time>2014-01-31T13:13:39.000Z</time>
      </trkpt>
      <trkpt lat="45.57758" lon="6.56864">
        <ele>2335.8000488281</ele>
        <time>2014-01-31T13:13:40.000Z</time>
      </trkpt>
      <trkpt lat="45.57758" lon="6.56864">
        <ele>2336</ele>
        <time>2014-01-31T13:13:41.000Z</time>
      </trkpt>
      <trkpt lat="45.57759" lon="6.56863">
        <ele>2336.1999511719</ele>
        <time>2014-01-31T13:13:42.000Z</time>
      </trkpt>
      <trkpt lat="45.57759" lon="6.56862">
        <ele>2336.3999023438</ele>
        <time>2014-01-31T13:13:43.000Z</time>
      </trkpt>
      <trkpt lat="45.57759" lon="6.56862">
        <ele>2336.6000976562</ele>
        <time>2014-01-31T13:13:44.000Z</time>
      </trkpt>
      <trkpt lat="45.57759" lon="6.56862">
        <ele>2336.6000976562</ele>
        <time>2014-01-31T13:13:45.000Z</time>
      </trkpt>
      <trkpt lat="45.57759" lon="6.56861">
        <ele>2336.8000488281</ele>
        <time>2014-01-31T13:13:46.000Z</time>
      </trkpt>
      <trkpt lat="45.57759" lon="6.5686">
        <ele>2336.8000488281</ele>
        <time>2014-01-31T13:13:47.000Z</time>
      </trkpt>
      <trkpt lat="45.57759" lon="6.56858">
        <ele>2336.8000488281</ele>
        <time>2014-01-31T13:13:48.000Z</time>
      </trkpt>
      <trkpt lat="45.57759" lon="6.56858">
        <ele>2337</ele>
        <time>2014-01-31T13:13:49.000Z</time>
      </trkpt>
      <trkpt lat="45.5776" lon="6.56856">
        <ele>2337</ele>
        <time>2014-01-31T13:13:50.000Z</time>
      </trkpt>
      <trkpt lat="45.5776" lon="6.56856">
        <ele>2337.3999023438</ele>
        <time>2014-01-31T13:13:51.000Z</time>
      </trkpt>
      <trkpt lat="45.57761" lon="6.56855">
        <ele>2337.6000976562</ele>
        <time>2014-01-31T13:13:52.000Z</time>
      </trkpt>
      <trkpt lat="45.57761" lon="6.56855">
        <ele>2337.8000488281</ele>
        <time>2014-01-31T13:13:53.000Z</time>
      </trkpt>
      <trkpt lat="45.57761" lon="6.56854">
        <ele>2338</ele>
        <time>2014-01-31T13:13:54.000Z</time>
      </trkpt>
      <trkpt lat="45.57762" lon="6.56854">
        <ele>2338.3999023438</ele>
        <time>2014-01-31T13:13:55.000Z</time>
      </trkpt>
      <trkpt lat="45.57762" lon="6.56853">
        <ele>2338.6000976562</ele>
        <time>2014-01-31T13:13:56.000Z</time>
      </trkpt>
      <trkpt lat="45.57762" lon="6.56852">
        <ele>2338.8000488281</ele>
        <time>2014-01-31T13:13:57.000Z</time>
      </trkpt>
      <trkpt lat="45.57763" lon="6.56851">
        <ele>2339</ele>
        <time>2014-01-31T13:13:58.000Z</time>
      </trkpt>
      <trkpt lat="45.57764" lon="6.5685">
        <ele>2339.3999023438</ele>
        <time>2014-01-31T13:13:59.000Z</time>
      </trkpt>
      <trkpt lat="45.57764" lon="6.5685">
        <ele>2339.6000976562</ele>
        <time>2014-01-31T13:14:00.000Z</time>
      </trkpt>
      <trkpt lat="45.57764" lon="6.56848">
        <ele>2339.8000488281</ele>
        <time>2014-01-31T13:14:01.000Z</time>
      </trkpt>
      <trkpt lat="45.57765" lon="6.56848">
        <ele>2339.8000488281</ele>
        <time>2014-01-31T13:14:02.000Z</time>
      </trkpt>
      <trkpt lat="45.57765" lon="6.56847">
        <ele>2340</ele>
        <time>2014-01-31T13:14:03.000Z</time>
      </trkpt>
      <trkpt lat="45.57765" lon="6.56847">
        <ele>2340</ele>
        <time>2014-01-31T13:14:04.000Z</time>
      </trkpt>
      <trkpt lat="45.57765" lon="6.56847">
        <ele>2340.1999511719</ele>
        <time>2014-01-31T13:14:05.000Z</time>
      </trkpt>
      <trkpt lat="45.57766" lon="6.56847">
        <ele>2340.3999023438</ele>
        <time>2014-01-31T13:14:06.000Z</time>
      </trkpt>
      <trkpt lat="45.57766" lon="6.56847">
        <ele>2340.8000488281</ele>
        <time>2014-01-31T13:14:07.000Z</time>
      </trkpt>
      <trkpt lat="45.57766" lon="6.56846">
        <ele>2341.1999511719</ele>
        <time>2014-01-31T13:14:08.000Z</time>
      </trkpt>
      <trkpt lat="45.57766" lon="6.56846">
        <ele>2341.6000976562</ele>
        <time>2014-01-31T13:14:09.000Z</time>
      </trkpt>
      <trkpt lat="45.57766" lon="6.56846">
        <ele>2342</ele>
        <time>2014-01-31T13:14:10.000Z</time>
      </trkpt>
      <trkpt lat="45.57766" lon="6.56846">
        <ele>2342.3999023438</ele>
        <time>2014-01-31T13:14:11.000Z</time>
      </trkpt>
      <trkpt lat="45.57766" lon="6.56846">
        <ele>2342.3999023438</ele>
        <time>2014-01-31T13:14:12.000Z</time>
      </trkpt>
      <trkpt lat="45.57767" lon="6.56847">
        <ele>2342.3999023438</ele>
        <time>2014-01-31T13:14:13.000Z</time>
      </trkpt>
      <trkpt lat="45.57767" lon="6.56847">
        <ele>2342.3999023438</ele>
        <time>2014-01-31T13:14:14.000Z</time>
      </trkpt>
      <trkpt lat="45.57768" lon="6.56848">
        <ele>2342.3999023438</ele>
        <time>2014-01-31T13:14:15.000Z</time>
      </trkpt>
      <trkpt lat="45.57768" lon="6.56848">
        <ele>2342.3999023438</ele>
        <time>2014-01-31T13:14:16.000Z</time>
      </trkpt>
      <trkpt lat="45.57768" lon="6.56849">
        <ele>2342.8000488281</ele>
        <time>2014-01-31T13:14:17.000Z</time>
      </trkpt>
      <trkpt lat="45.57768" lon="6.56849">
        <ele>2343.1999511719</ele>
        <time>2014-01-31T13:14:18.000Z</time>
      </trkpt>
      <trkpt lat="45.57768" lon="6.56849">
        <ele>2343.3999023438</ele>
        <time>2014-01-31T13:14:19.000Z</time>
      </trkpt>
      <trkpt lat="45.57768" lon="6.56849">
        <ele>2343.3999023438</ele>
        <time>2014-01-31T13:14:20.000Z</time>
      </trkpt>
      <trkpt lat="45.57768" lon="6.56849">
        <ele>2343.3999023438</ele>
        <time>2014-01-31T13:14:21.000Z</time>
      </trkpt>
      <trkpt lat="45.57768" lon="6.56849">
        <ele>2343.3999023438</ele>
        <time>2014-01-31T13:14:23.000Z</time>
      </trkpt>
      <trkpt lat="45.57768" lon="6.56849">
        <ele>2343.3999023438</ele>
        <time>2014-01-31T13:14:24.000Z</time>
      </trkpt>
      <trkpt lat="45.57768" lon="6.56849">
        <ele>2343.3999023438</ele>
        <time>2014-01-31T13:14:25.000Z</time>
      </trkpt>
      <trkpt lat="45.57768" lon="6.56849">
        <ele>2343.3999023438</ele>
        <time>2014-01-31T13:14:27.000Z</time>
      </trkpt>
      <trkpt lat="45.57768" lon="6.56849">
        <ele>2343.6000976562</ele>
        <time>2014-01-31T13:14:28.000Z</time>
      </trkpt>
      <trkpt lat="45.57768" lon="6.56849">
        <ele>2343.6000976562</ele>
        <time>2014-01-31T13:14:29.000Z</time>
      </trkpt>
      <trkpt lat="45.57768" lon="6.56849">
        <ele>2343.6000976562</ele>
        <time>2014-01-31T13:14:30.000Z</time>
      </trkpt>
      <trkpt lat="45.57768" lon="6.56849">
        <ele>2343.6000976562</ele>
        <time>2014-01-31T13:14:31.000Z</time>
      </trkpt>
      <trkpt lat="45.57768" lon="6.56849">
        <ele>2343.6000976562</ele>
        <time>2014-01-31T13:14:33.000Z</time>
      </trkpt>
      <trkpt lat="45.57768" lon="6.56849">
        <ele>2343.6000976562</ele>
        <time>2014-01-31T13:14:34.000Z</time>
      </trkpt>
      <trkpt lat="45.57768" lon="6.56849">
        <ele>2343.6000976562</ele>
        <time>2014-01-31T13:14:35.000Z</time>
      </trkpt>
      <trkpt lat="45.57768" lon="6.56849">
        <ele>2343.6000976562</ele>
        <time>2014-01-31T13:14:36.000Z</time>
      </trkpt>
      <trkpt lat="45.57768" lon="6.56849">
        <ele>2343.6000976562</ele>
        <time>2014-01-31T13:14:37.000Z</time>
      </trkpt>
      <trkpt lat="45.57769" lon="6.5685">
        <ele>2343.6000976562</ele>
        <time>2014-01-31T13:14:38.000Z</time>
      </trkpt>
      <trkpt lat="45.57769" lon="6.56852">
        <ele>2343.3999023438</ele>
        <time>2014-01-31T13:14:39.000Z</time>
      </trkpt>
      <trkpt lat="45.57769" lon="6.56852">
        <ele>2343.3999023438</ele>
        <time>2014-01-31T13:14:40.000Z</time>
      </trkpt>
      <trkpt lat="45.5777" lon="6.56854">
        <ele>2343.3999023438</ele>
        <time>2014-01-31T13:14:41.000Z</time>
      </trkpt>
      <trkpt lat="45.5777" lon="6.56853">
        <ele>2343.6000976562</ele>
        <time>2014-01-31T13:14:42.000Z</time>
      </trkpt>
      <trkpt lat="45.5777" lon="6.56854">
        <ele>2343.6000976562</ele>
        <time>2014-01-31T13:14:43.000Z</time>
      </trkpt>
      <trkpt lat="45.57771" lon="6.56856">
        <ele>2343.6000976562</ele>
        <time>2014-01-31T13:14:44.000Z</time>
      </trkpt>
      <trkpt lat="45.57771" lon="6.56856">
        <ele>2343.8000488281</ele>
        <time>2014-01-31T13:14:45.000Z</time>
      </trkpt>
      <trkpt lat="45.57771" lon="6.56858">
        <ele>2343.8000488281</ele>
        <time>2014-01-31T13:14:46.000Z</time>
      </trkpt>
      <trkpt lat="45.57771" lon="6.56858">
        <ele>2343.8000488281</ele>
        <time>2014-01-31T13:14:47.000Z</time>
      </trkpt>
      <trkpt lat="45.57771" lon="6.5686">
        <ele>2344.1999511719</ele>
        <time>2014-01-31T13:14:48.000Z</time>
      </trkpt>
      <trkpt lat="45.57772" lon="6.56862">
        <ele>2344.3999023438</ele>
        <time>2014-01-31T13:14:49.000Z</time>
      </trkpt>
      <trkpt lat="45.57772" lon="6.56862">
        <ele>2344.8000488281</ele>
        <time>2014-01-31T13:14:50.000Z</time>
      </trkpt>
      <trkpt lat="45.57772" lon="6.56864">
        <ele>2345</ele>
        <time>2014-01-31T13:14:51.000Z</time>
      </trkpt>
      <trkpt lat="45.57772" lon="6.56865">
        <ele>2345.1999511719</ele>
        <time>2014-01-31T13:14:52.000Z</time>
      </trkpt>
      <trkpt lat="45.57772" lon="6.56865">
        <ele>2345.3999023438</ele>
        <time>2014-01-31T13:14:53.000Z</time>
      </trkpt>
      <trkpt lat="45.57772" lon="6.56868">
        <ele>2345.3999023438</ele>
        <time>2014-01-31T13:14:54.000Z</time>
      </trkpt>
      <trkpt lat="45.57772" lon="6.56867">
        <ele>2345.3999023438</ele>
        <time>2014-01-31T13:14:55.000Z</time>
      </trkpt>
      <trkpt lat="45.57772" lon="6.5687">
        <ele>2345.1999511719</ele>
        <time>2014-01-31T13:14:56.000Z</time>
      </trkpt>
      <trkpt lat="45.57772" lon="6.56871">
        <ele>2345.1999511719</ele>
        <time>2014-01-31T13:14:57.000Z</time>
      </trkpt>
      <trkpt lat="45.57772" lon="6.56871">
        <ele>2345</ele>
        <time>2014-01-31T13:14:58.000Z</time>
      </trkpt>
      <trkpt lat="45.57772" lon="6.56874">
        <ele>2345</ele>
        <time>2014-01-31T13:14:59.000Z</time>
      </trkpt>
      <trkpt lat="45.57772" lon="6.56875">
        <ele>2345</ele>
        <time>2014-01-31T13:15:00.000Z</time>
      </trkpt>
      <trkpt lat="45.57772" lon="6.56876">
        <ele>2345.1999511719</ele>
        <time>2014-01-31T13:15:01.000Z</time>
      </trkpt>
      <trkpt lat="45.57772" lon="6.56878">
        <ele>2345.1999511719</ele>
        <time>2014-01-31T13:15:02.000Z</time>
      </trkpt>
      <trkpt lat="45.57772" lon="6.56879">
        <ele>2345.3999023438</ele>
        <time>2014-01-31T13:15:03.000Z</time>
      </trkpt>
      <trkpt lat="45.57772" lon="6.5688">
        <ele>2345.6000976562</ele>
        <time>2014-01-31T13:15:04.000Z</time>
      </trkpt>
      <trkpt lat="45.57772" lon="6.56882">
        <ele>2345.6000976562</ele>
        <time>2014-01-31T13:15:05.000Z</time>
      </trkpt>
      <trkpt lat="45.57773" lon="6.56883">
        <ele>2345.6000976562</ele>
        <time>2014-01-31T13:15:06.000Z</time>
      </trkpt>
      <trkpt lat="45.57772" lon="6.56885">
        <ele>2345.6000976562</ele>
        <time>2014-01-31T13:15:07.000Z</time>
      </trkpt>
      <trkpt lat="45.57772" lon="6.56886">
        <ele>2345.6000976562</ele>
        <time>2014-01-31T13:15:08.000Z</time>
      </trkpt>
      <trkpt lat="45.57772" lon="6.56888">
        <ele>2345.8000488281</ele>
        <time>2014-01-31T13:15:09.000Z</time>
      </trkpt>
      <trkpt lat="45.57773" lon="6.56889">
        <ele>2345.8000488281</ele>
        <time>2014-01-31T13:15:10.000Z</time>
      </trkpt>
      <trkpt lat="45.57773" lon="6.5689">
        <ele>2345.8000488281</ele>
        <time>2014-01-31T13:15:11.000Z</time>
      </trkpt>
      <trkpt lat="45.57773" lon="6.56892">
        <ele>2346</ele>
        <time>2014-01-31T13:15:12.000Z</time>
      </trkpt>
      <trkpt lat="45.57773" lon="6.56893">
        <ele>2346</ele>
        <time>2014-01-31T13:15:13.000Z</time>
      </trkpt>
      <trkpt lat="45.57772" lon="6.56895">
        <ele>2346.1999511719</ele>
        <time>2014-01-31T13:15:14.000Z</time>
      </trkpt>
      <trkpt lat="45.57773" lon="6.56896">
        <ele>2346.1999511719</ele>
        <time>2014-01-31T13:15:15.000Z</time>
      </trkpt>
      <trkpt lat="45.57773" lon="6.56897">
        <ele>2346.3999023438</ele>
        <time>2014-01-31T13:15:16.000Z</time>
      </trkpt>
      <trkpt lat="45.57773" lon="6.56899">
        <ele>2346.3999023438</ele>
        <time>2014-01-31T13:15:17.000Z</time>
      </trkpt>
      <trkpt lat="45.57773" lon="6.569">
        <ele>2346.6000976562</ele>
        <time>2014-01-31T13:15:18.000Z</time>
      </trkpt>
      <trkpt lat="45.57773" lon="6.56901">
        <ele>2346.6000976562</ele>
        <time>2014-01-31T13:15:19.000Z</time>
      </trkpt>
      <trkpt lat="45.57773" lon="6.56903">
        <ele>2346.8000488281</ele>
        <time>2014-01-31T13:15:20.000Z</time>
      </trkpt>
      <trkpt lat="45.57774" lon="6.56905">
        <ele>2346.8000488281</ele>
        <time>2014-01-31T13:15:21.000Z</time>
      </trkpt>
      <trkpt lat="45.57774" lon="6.56906">
        <ele>2347</ele>
        <time>2014-01-31T13:15:22.000Z</time>
      </trkpt>
      <trkpt lat="45.57774" lon="6.56908">
        <ele>2347.1999511719</ele>
        <time>2014-01-31T13:15:23.000Z</time>
      </trkpt>
      <trkpt lat="45.57775" lon="6.56911">
        <ele>2347.1999511719</ele>
        <time>2014-01-31T13:15:24.000Z</time>
      </trkpt>
      <trkpt lat="45.57776" lon="6.56912">
        <ele>2347.1999511719</ele>
        <time>2014-01-31T13:15:25.000Z</time>
      </trkpt>
      <trkpt lat="45.57776" lon="6.56914">
        <ele>2347.1999511719</ele>
        <time>2014-01-31T13:15:26.000Z</time>
      </trkpt>
      <trkpt lat="45.57776" lon="6.56916">
        <ele>2347</ele>
        <time>2014-01-31T13:15:27.000Z</time>
      </trkpt>
      <trkpt lat="45.57776" lon="6.56918">
        <ele>2347</ele>
        <time>2014-01-31T13:15:28.000Z</time>
      </trkpt>
      <trkpt lat="45.57776" lon="6.56918">
        <ele>2347</ele>
        <time>2014-01-31T13:15:29.000Z</time>
      </trkpt>
      <trkpt lat="45.57776" lon="6.5692">
        <ele>2347</ele>
        <time>2014-01-31T13:15:30.000Z</time>
      </trkpt>
      <trkpt lat="45.57776" lon="6.56922">
        <ele>2347</ele>
        <time>2014-01-31T13:15:31.000Z</time>
      </trkpt>
      <trkpt lat="45.57776" lon="6.56923">
        <ele>2347</ele>
        <time>2014-01-31T13:15:32.000Z</time>
      </trkpt>
      <trkpt lat="45.57777" lon="6.56925">
        <ele>2347.1999511719</ele>
        <time>2014-01-31T13:15:33.000Z</time>
      </trkpt>
      <trkpt lat="45.57778" lon="6.56926">
        <ele>2347.1999511719</ele>
        <time>2014-01-31T13:15:34.000Z</time>
      </trkpt>
      <trkpt lat="45.57778" lon="6.56928">
        <ele>2347.1999511719</ele>
        <time>2014-01-31T13:15:35.000Z</time>
      </trkpt>
      <trkpt lat="45.57778" lon="6.56929">
        <ele>2347.1999511719</ele>
        <time>2014-01-31T13:15:36.000Z</time>
      </trkpt>
      <trkpt lat="45.57778" lon="6.56931">
        <ele>2347.3999023438</ele>
        <time>2014-01-31T13:15:37.000Z</time>
      </trkpt>
      <trkpt lat="45.57778" lon="6.56931">
        <ele>2347.3999023438</ele>
        <time>2014-01-31T13:15:38.000Z</time>
      </trkpt>
      <trkpt lat="45.57777" lon="6.56933">
        <ele>2347.3999023438</ele>
        <time>2014-01-31T13:15:40.000Z</time>
      </trkpt>
      <trkpt lat="45.57777" lon="6.56933">
        <ele>2347.3999023438</ele>
        <time>2014-01-31T13:15:41.000Z</time>
      </trkpt>
      <trkpt lat="45.57777" lon="6.56934">
        <ele>2347.3999023438</ele>
        <time>2014-01-31T13:15:42.000Z</time>
      </trkpt>
      <trkpt lat="45.57777" lon="6.56934">
        <ele>2347.3999023438</ele>
        <time>2014-01-31T13:15:43.000Z</time>
      </trkpt>
      <trkpt lat="45.57777" lon="6.56934">
        <ele>2347.6000976562</ele>
        <time>2014-01-31T13:15:44.000Z</time>
      </trkpt>
      <trkpt lat="45.57777" lon="6.56934">
        <ele>2347.6000976562</ele>
        <time>2014-01-31T13:15:45.000Z</time>
      </trkpt>
      <trkpt lat="45.57777" lon="6.56934">
        <ele>2347.6000976562</ele>
        <time>2014-01-31T13:15:46.000Z</time>
      </trkpt>
      <trkpt lat="45.57777" lon="6.56934">
        <ele>2347.6000976562</ele>
        <time>2014-01-31T13:15:47.000Z</time>
      </trkpt>
      <trkpt lat="45.57777" lon="6.56934">
        <ele>2347.6000976562</ele>
        <time>2014-01-31T13:15:48.000Z</time>
      </trkpt>
      <trkpt lat="45.57777" lon="6.56934">
        <ele>2347.8000488281</ele>
        <time>2014-01-31T13:15:49.000Z</time>
      </trkpt>
      <trkpt lat="45.57777" lon="6.56934">
        <ele>2347.8000488281</ele>
        <time>2014-01-31T13:15:50.000Z</time>
      </trkpt>
      <trkpt lat="45.57777" lon="6.56934">
        <ele>2348</ele>
        <time>2014-01-31T13:15:51.000Z</time>
      </trkpt>
      <trkpt lat="45.57777" lon="6.56934">
        <ele>2348.1999511719</ele>
        <time>2014-01-31T13:15:52.000Z</time>
      </trkpt>
      <trkpt lat="45.57777" lon="6.56934">
        <ele>2348.1999511719</ele>
        <time>2014-01-31T13:15:53.000Z</time>
      </trkpt>
      <trkpt lat="45.57777" lon="6.56934">
        <ele>2348.6000976562</ele>
        <time>2014-01-31T13:15:54.000Z</time>
      </trkpt>
      <trkpt lat="45.57777" lon="6.56934">
        <ele>2348.6000976562</ele>
        <time>2014-01-31T13:15:55.000Z</time>
      </trkpt>
      <trkpt lat="45.57777" lon="6.56934">
        <ele>2349</ele>
        <time>2014-01-31T13:15:56.000Z</time>
      </trkpt>
      <trkpt lat="45.57777" lon="6.56934">
        <ele>2348.8000488281</ele>
        <time>2014-01-31T13:15:57.000Z</time>
      </trkpt>
      <trkpt lat="45.57777" lon="6.56934">
        <ele>2349.1999511719</ele>
        <time>2014-01-31T13:15:58.000Z</time>
      </trkpt>
      <trkpt lat="45.57777" lon="6.56934">
        <ele>2349.3999023438</ele>
        <time>2014-01-31T13:15:59.000Z</time>
      </trkpt>
      <trkpt lat="45.57777" lon="6.56934">
        <ele>2349.8000488281</ele>
        <time>2014-01-31T13:16:00.000Z</time>
      </trkpt>
      <trkpt lat="45.57777" lon="6.56934">
        <ele>2350</ele>
        <time>2014-01-31T13:16:01.000Z</time>
      </trkpt>
      <trkpt lat="45.57777" lon="6.56934">
        <ele>2350.1999511719</ele>
        <time>2014-01-31T13:16:02.000Z</time>
      </trkpt>
      <trkpt lat="45.57777" lon="6.56934">
        <ele>2350.3999023438</ele>
        <time>2014-01-31T13:16:03.000Z</time>
      </trkpt>
      <trkpt lat="45.57777" lon="6.56934">
        <ele>2350.3999023438</ele>
        <time>2014-01-31T13:16:04.000Z</time>
      </trkpt>
      <trkpt lat="45.57777" lon="6.56934">
        <ele>2350.3999023438</ele>
        <time>2014-01-31T13:16:05.000Z</time>
      </trkpt>
      <trkpt lat="45.57777" lon="6.56934">
        <ele>2350.3999023438</ele>
        <time>2014-01-31T13:16:06.000Z</time>
      </trkpt>
      <trkpt lat="45.57777" lon="6.56934">
        <ele>2350.1999511719</ele>
        <time>2014-01-31T13:16:07.000Z</time>
      </trkpt>
      <trkpt lat="45.57777" lon="6.56934">
        <ele>2350</ele>
        <time>2014-01-31T13:16:08.000Z</time>
      </trkpt>
      <trkpt lat="45.57777" lon="6.56934">
        <ele>2350</ele>
        <time>2014-01-31T13:16:09.000Z</time>
      </trkpt>
      <trkpt lat="45.57777" lon="6.56934">
        <ele>2349.8000488281</ele>
        <time>2014-01-31T13:16:10.000Z</time>
      </trkpt>
      <trkpt lat="45.57777" lon="6.56934">
        <ele>2349.8000488281</ele>
        <time>2014-01-31T13:16:11.000Z</time>
      </trkpt>
      <trkpt lat="45.57777" lon="6.56934">
        <ele>2349.8000488281</ele>
        <time>2014-01-31T13:16:12.000Z</time>
      </trkpt>
      <trkpt lat="45.57777" lon="6.56934">
        <ele>2350</ele>
        <time>2014-01-31T13:16:14.000Z</time>
      </trkpt>
      <trkpt lat="45.57777" lon="6.56934">
        <ele>2350.1999511719</ele>
        <time>2014-01-31T13:16:15.000Z</time>
      </trkpt>
      <trkpt lat="45.57777" lon="6.56934">
        <ele>2350.3999023438</ele>
        <time>2014-01-31T13:16:16.000Z</time>
      </trkpt>
      <trkpt lat="45.57777" lon="6.56934">
        <ele>2350.6000976562</ele>
        <time>2014-01-31T13:16:17.000Z</time>
      </trkpt>
      <trkpt lat="45.57777" lon="6.56934">
        <ele>2350.6000976562</ele>
        <time>2014-01-31T13:16:18.000Z</time>
      </trkpt>
      <trkpt lat="45.57777" lon="6.56934">
        <ele>2350.6000976562</ele>
        <time>2014-01-31T13:16:19.000Z</time>
      </trkpt>
      <trkpt lat="45.57777" lon="6.56934">
        <ele>2350.6000976562</ele>
        <time>2014-01-31T13:16:20.000Z</time>
      </trkpt>
      <trkpt lat="45.57777" lon="6.56934">
        <ele>2350.6000976562</ele>
        <time>2014-01-31T13:16:21.000Z</time>
      </trkpt>
      <trkpt lat="45.57777" lon="6.56934">
        <ele>2350.3999023438</ele>
        <time>2014-01-31T13:16:22.000Z</time>
      </trkpt>
      <trkpt lat="45.57777" lon="6.56934">
        <ele>2350.3999023438</ele>
        <time>2014-01-31T13:16:23.000Z</time>
      </trkpt>
      <trkpt lat="45.57777" lon="6.56934">
        <ele>2350.1999511719</ele>
        <time>2014-01-31T13:16:24.000Z</time>
      </trkpt>
      <trkpt lat="45.57777" lon="6.56934">
        <ele>2350.1999511719</ele>
        <time>2014-01-31T13:16:25.000Z</time>
      </trkpt>
      <trkpt lat="45.57777" lon="6.56934">
        <ele>2350.3999023438</ele>
        <time>2014-01-31T13:16:26.000Z</time>
      </trkpt>
      <trkpt lat="45.57777" lon="6.56934">
        <ele>2350.3999023438</ele>
        <time>2014-01-31T13:16:27.000Z</time>
      </trkpt>
      <trkpt lat="45.57777" lon="6.56934">
        <ele>2350.3999023438</ele>
        <time>2014-01-31T13:16:28.000Z</time>
      </trkpt>
      <trkpt lat="45.57777" lon="6.56934">
        <ele>2350.3999023438</ele>
        <time>2014-01-31T13:16:29.000Z</time>
      </trkpt>
      <trkpt lat="45.57777" lon="6.56934">
        <ele>2350.3999023438</ele>
        <time>2014-01-31T13:16:30.000Z</time>
      </trkpt>
      <trkpt lat="45.57777" lon="6.56934">
        <ele>2350.6000976562</ele>
        <time>2014-01-31T13:16:31.000Z</time>
      </trkpt>
      <trkpt lat="45.57777" lon="6.56934">
        <ele>2350.6000976562</ele>
        <time>2014-01-31T13:16:32.000Z</time>
      </trkpt>
      <trkpt lat="45.57777" lon="6.56934">
        <ele>2350.6000976562</ele>
        <time>2014-01-31T13:16:33.000Z</time>
      </trkpt>
      <trkpt lat="45.57777" lon="6.56934">
        <ele>2350.8000488281</ele>
        <time>2014-01-31T13:16:34.000Z</time>
      </trkpt>
      <trkpt lat="45.57777" lon="6.56934">
        <ele>2350.8000488281</ele>
        <time>2014-01-31T13:16:35.000Z</time>
      </trkpt>
      <trkpt lat="45.57777" lon="6.56934">
        <ele>2350.8000488281</ele>
        <time>2014-01-31T13:16:36.000Z</time>
      </trkpt>
      <trkpt lat="45.57777" lon="6.56934">
        <ele>2350.6000976562</ele>
        <time>2014-01-31T13:16:38.000Z</time>
      </trkpt>
      <trkpt lat="45.57777" lon="6.56934">
        <ele>2350.6000976562</ele>
        <time>2014-01-31T13:16:39.000Z</time>
      </trkpt>
      <trkpt lat="45.57777" lon="6.56934">
        <ele>2350.3999023438</ele>
        <time>2014-01-31T13:16:40.000Z</time>
      </trkpt>
      <trkpt lat="45.57777" lon="6.56934">
        <ele>2350.3999023438</ele>
        <time>2014-01-31T13:16:41.000Z</time>
      </trkpt>
      <trkpt lat="45.57777" lon="6.56934">
        <ele>2350.3999023438</ele>
        <time>2014-01-31T13:16:42.000Z</time>
      </trkpt>
      <trkpt lat="45.57777" lon="6.56934">
        <ele>2350.3999023438</ele>
        <time>2014-01-31T13:16:43.000Z</time>
      </trkpt>
      <trkpt lat="45.57777" lon="6.56934">
        <ele>2350.1999511719</ele>
        <time>2014-01-31T13:16:45.000Z</time>
      </trkpt>
      <trkpt lat="45.57777" lon="6.56934">
        <ele>2350.1999511719</ele>
        <time>2014-01-31T13:16:46.000Z</time>
      </trkpt>
      <trkpt lat="45.57777" lon="6.56934">
        <ele>2350.1999511719</ele>
        <time>2014-01-31T13:16:47.000Z</time>
      </trkpt>
      <trkpt lat="45.57777" lon="6.56934">
        <ele>2350.1999511719</ele>
        <time>2014-01-31T13:16:48.000Z</time>
      </trkpt>
      <trkpt lat="45.57777" lon="6.56934">
        <ele>2350.1999511719</ele>
        <time>2014-01-31T13:16:49.000Z</time>
      </trkpt>
      <trkpt lat="45.57777" lon="6.56934">
        <ele>2350.1999511719</ele>
        <time>2014-01-31T13:16:50.000Z</time>
      </trkpt>
      <trkpt lat="45.57777" lon="6.56934">
        <ele>2350.1999511719</ele>
        <time>2014-01-31T13:16:51.000Z</time>
      </trkpt>
      <trkpt lat="45.57777" lon="6.56934">
        <ele>2350.1999511719</ele>
        <time>2014-01-31T13:16:52.000Z</time>
      </trkpt>
      <trkpt lat="45.57777" lon="6.56934">
        <ele>2350.1999511719</ele>
        <time>2014-01-31T13:16:53.000Z</time>
      </trkpt>
      <trkpt lat="45.57777" lon="6.56934">
        <ele>2350.1999511719</ele>
        <time>2014-01-31T13:16:54.000Z</time>
      </trkpt>
      <trkpt lat="45.57777" lon="6.56934">
        <ele>2350.1999511719</ele>
        <time>2014-01-31T13:16:55.000Z</time>
      </trkpt>
      <trkpt lat="45.57777" lon="6.56934">
        <ele>2350.1999511719</ele>
        <time>2014-01-31T13:16:56.000Z</time>
      </trkpt>
      <trkpt lat="45.57777" lon="6.56934">
        <ele>2350.1999511719</ele>
        <time>2014-01-31T13:16:57.000Z</time>
      </trkpt>
      <trkpt lat="45.57777" lon="6.56934">
        <ele>2350.1999511719</ele>
        <time>2014-01-31T13:16:58.000Z</time>
      </trkpt>
      <trkpt lat="45.57777" lon="6.56934">
        <ele>2350.1999511719</ele>
        <time>2014-01-31T13:17:00.000Z</time>
      </trkpt>
      <trkpt lat="45.57777" lon="6.56934">
        <ele>2350.1999511719</ele>
        <time>2014-01-31T13:17:01.000Z</time>
      </trkpt>
      <trkpt lat="45.57777" lon="6.56934">
        <ele>2350.1999511719</ele>
        <time>2014-01-31T13:17:02.000Z</time>
      </trkpt>
      <trkpt lat="45.57777" lon="6.56934">
        <ele>2350.1999511719</ele>
        <time>2014-01-31T13:17:03.000Z</time>
      </trkpt>
      <trkpt lat="45.57777" lon="6.56934">
        <ele>2350</ele>
        <time>2014-01-31T13:17:04.000Z</time>
      </trkpt>
      <trkpt lat="45.57777" lon="6.56934">
        <ele>2350</ele>
        <time>2014-01-31T13:17:05.000Z</time>
      </trkpt>
      <trkpt lat="45.57777" lon="6.56934">
        <ele>2350</ele>
        <time>2014-01-31T13:17:06.000Z</time>
      </trkpt>
      <trkpt lat="45.57777" lon="6.56934">
        <ele>2350</ele>
        <time>2014-01-31T13:17:07.000Z</time>
      </trkpt>
      <trkpt lat="45.57777" lon="6.56934">
        <ele>2350</ele>
        <time>2014-01-31T13:17:08.000Z</time>
      </trkpt>
      <trkpt lat="45.57777" lon="6.56934">
        <ele>2350</ele>
        <time>2014-01-31T13:17:09.000Z</time>
      </trkpt>
      <trkpt lat="45.57777" lon="6.56934">
        <ele>2350</ele>
        <time>2014-01-31T13:17:10.000Z</time>
      </trkpt>
      <trkpt lat="45.57777" lon="6.56934">
        <ele>2350</ele>
        <time>2014-01-31T13:17:11.000Z</time>
      </trkpt>
      <trkpt lat="45.57777" lon="6.56934">
        <ele>2349.8000488281</ele>
        <time>2014-01-31T13:17:12.000Z</time>
      </trkpt>
      <trkpt lat="45.57777" lon="6.56934">
        <ele>2349.8000488281</ele>
        <time>2014-01-31T13:17:13.000Z</time>
      </trkpt>
      <trkpt lat="45.57777" lon="6.56934">
        <ele>2349.8000488281</ele>
        <time>2014-01-31T13:17:14.000Z</time>
      </trkpt>
      <trkpt lat="45.57777" lon="6.56934">
        <ele>2350</ele>
        <time>2014-01-31T13:17:15.000Z</time>
      </trkpt>
      <trkpt lat="45.57777" lon="6.56934">
        <ele>2350</ele>
        <time>2014-01-31T13:17:16.000Z</time>
      </trkpt>
      <trkpt lat="45.57777" lon="6.56934">
        <ele>2350</ele>
        <time>2014-01-31T13:17:17.000Z</time>
      </trkpt>
      <trkpt lat="45.57777" lon="6.56934">
        <ele>2350.1999511719</ele>
        <time>2014-01-31T13:17:18.000Z</time>
      </trkpt>
      <trkpt lat="45.57777" lon="6.56934">
        <ele>2350.1999511719</ele>
        <time>2014-01-31T13:17:19.000Z</time>
      </trkpt>
      <trkpt lat="45.57777" lon="6.56934">
        <ele>2350.1999511719</ele>
        <time>2014-01-31T13:17:20.000Z</time>
      </trkpt>
      <trkpt lat="45.57777" lon="6.56934">
        <ele>2350.1999511719</ele>
        <time>2014-01-31T13:17:22.000Z</time>
      </trkpt>
      <trkpt lat="45.57777" lon="6.56934">
        <ele>2350</ele>
        <time>2014-01-31T13:17:23.000Z</time>
      </trkpt>
      <trkpt lat="45.57777" lon="6.56934">
        <ele>2350</ele>
        <time>2014-01-31T13:17:24.000Z</time>
      </trkpt>
      <trkpt lat="45.57777" lon="6.56934">
        <ele>2350</ele>
        <time>2014-01-31T13:17:25.000Z</time>
      </trkpt>
      <trkpt lat="45.57777" lon="6.56934">
        <ele>2350</ele>
        <time>2014-01-31T13:17:26.000Z</time>
      </trkpt>
      <trkpt lat="45.57777" lon="6.56934">
        <ele>2350</ele>
        <time>2014-01-31T13:17:27.000Z</time>
      </trkpt>
      <trkpt lat="45.57777" lon="6.56934">
        <ele>2350</ele>
        <time>2014-01-31T13:17:28.000Z</time>
      </trkpt>
      <trkpt lat="45.57777" lon="6.56934">
        <ele>2350</ele>
        <time>2014-01-31T13:17:29.000Z</time>
      </trkpt>
      <trkpt lat="45.57777" lon="6.56934">
        <ele>2350</ele>
        <time>2014-01-31T13:17:33.000Z</time>
      </trkpt>
      <trkpt lat="45.57777" lon="6.56934">
        <ele>2350</ele>
        <time>2014-01-31T13:17:34.000Z</time>
      </trkpt>
      <trkpt lat="45.57777" lon="6.56934">
        <ele>2350</ele>
        <time>2014-01-31T13:17:36.000Z</time>
      </trkpt>
      <trkpt lat="45.57777" lon="6.56934">
        <ele>2350</ele>
        <time>2014-01-31T13:17:37.000Z</time>
      </trkpt>
      <trkpt lat="45.57777" lon="6.56934">
        <ele>2350</ele>
        <time>2014-01-31T13:17:38.000Z</time>
      </trkpt>
      <trkpt lat="45.57778" lon="6.56933">
        <ele>2350</ele>
        <time>2014-01-31T13:17:39.000Z</time>
      </trkpt>
      <trkpt lat="45.57778" lon="6.56933">
        <ele>2350.1999511719</ele>
        <time>2014-01-31T13:17:40.000Z</time>
      </trkpt>
      <trkpt lat="45.57778" lon="6.56933">
        <ele>2350.1999511719</ele>
        <time>2014-01-31T13:17:41.000Z</time>
      </trkpt>
      <trkpt lat="45.57778" lon="6.56933">
        <ele>2350.1999511719</ele>
        <time>2014-01-31T13:17:42.000Z</time>
      </trkpt>
      <trkpt lat="45.57778" lon="6.56933">
        <ele>2350.3999023438</ele>
        <time>2014-01-31T13:17:43.000Z</time>
      </trkpt>
      <trkpt lat="45.57778" lon="6.56933">
        <ele>2350.3999023438</ele>
        <time>2014-01-31T13:17:44.000Z</time>
      </trkpt>
      <trkpt lat="45.57778" lon="6.56933">
        <ele>2350.1999511719</ele>
        <time>2014-01-31T13:17:46.000Z</time>
      </trkpt>
      <trkpt lat="45.57778" lon="6.56933">
        <ele>2350.1999511719</ele>
        <time>2014-01-31T13:17:47.000Z</time>
      </trkpt>
      <trkpt lat="45.57778" lon="6.56933">
        <ele>2350.1999511719</ele>
        <time>2014-01-31T13:17:48.000Z</time>
      </trkpt>
      <trkpt lat="45.57778" lon="6.56933">
        <ele>2350.1999511719</ele>
        <time>2014-01-31T13:17:49.000Z</time>
      </trkpt>
      <trkpt lat="45.57778" lon="6.56933">
        <ele>2350.1999511719</ele>
        <time>2014-01-31T13:17:50.000Z</time>
      </trkpt>
      <trkpt lat="45.57778" lon="6.56933">
        <ele>2350.1999511719</ele>
        <time>2014-01-31T13:17:51.000Z</time>
      </trkpt>
      <trkpt lat="45.57778" lon="6.56933">
        <ele>2350.3999023438</ele>
        <time>2014-01-31T13:17:52.000Z</time>
      </trkpt>
      <trkpt lat="45.57778" lon="6.56933">
        <ele>2350.3999023438</ele>
        <time>2014-01-31T13:17:53.000Z</time>
      </trkpt>
      <trkpt lat="45.57778" lon="6.56933">
        <ele>2350.3999023438</ele>
        <time>2014-01-31T13:17:55.000Z</time>
      </trkpt>
      <trkpt lat="45.57778" lon="6.56933">
        <ele>2350.3999023438</ele>
        <time>2014-01-31T13:17:56.000Z</time>
      </trkpt>
      <trkpt lat="45.57778" lon="6.56933">
        <ele>2350.3999023438</ele>
        <time>2014-01-31T13:17:57.000Z</time>
      </trkpt>
      <trkpt lat="45.57778" lon="6.56933">
        <ele>2350.3999023438</ele>
        <time>2014-01-31T13:17:58.000Z</time>
      </trkpt>
      <trkpt lat="45.57778" lon="6.56933">
        <ele>2350.3999023438</ele>
        <time>2014-01-31T13:17:59.000Z</time>
      </trkpt>
      <trkpt lat="45.57778" lon="6.56933">
        <ele>2350.1999511719</ele>
        <time>2014-01-31T13:18:00.000Z</time>
      </trkpt>
      <trkpt lat="45.57778" lon="6.56933">
        <ele>2350.1999511719</ele>
        <time>2014-01-31T13:18:01.000Z</time>
      </trkpt>
      <trkpt lat="45.57778" lon="6.56933">
        <ele>2350.1999511719</ele>
        <time>2014-01-31T13:18:02.000Z</time>
      </trkpt>
      <trkpt lat="45.57778" lon="6.56933">
        <ele>2350.1999511719</ele>
        <time>2014-01-31T13:18:03.000Z</time>
      </trkpt>
      <trkpt lat="45.57778" lon="6.56933">
        <ele>2350.1999511719</ele>
        <time>2014-01-31T13:18:10.000Z</time>
      </trkpt>
      <trkpt lat="45.57778" lon="6.56933">
        <ele>2350.1999511719</ele>
        <time>2014-01-31T13:18:11.000Z</time>
      </trkpt>
      <trkpt lat="45.57778" lon="6.56933">
        <ele>2350.1999511719</ele>
        <time>2014-01-31T13:18:12.000Z</time>
      </trkpt>
      <trkpt lat="45.57778" lon="6.56933">
        <ele>2350.1999511719</ele>
        <time>2014-01-31T13:18:16.000Z</time>
      </trkpt>
      <trkpt lat="45.57778" lon="6.56933">
        <ele>2350.1999511719</ele>
        <time>2014-01-31T13:18:17.000Z</time>
      </trkpt>
      <trkpt lat="45.57778" lon="6.56933">
        <ele>2350</ele>
        <time>2014-01-31T13:18:18.000Z</time>
      </trkpt>
      <trkpt lat="45.57778" lon="6.56933">
        <ele>2350</ele>
        <time>2014-01-31T13:18:19.000Z</time>
      </trkpt>
      <trkpt lat="45.57778" lon="6.56933">
        <ele>2350</ele>
        <time>2014-01-31T13:18:20.000Z</time>
      </trkpt>
      <trkpt lat="45.57778" lon="6.56933">
        <ele>2349.8000488281</ele>
        <time>2014-01-31T13:18:21.000Z</time>
      </trkpt>
      <trkpt lat="45.57778" lon="6.56933">
        <ele>2349.8000488281</ele>
        <time>2014-01-31T13:18:22.000Z</time>
      </trkpt>
      <trkpt lat="45.57778" lon="6.56933">
        <ele>2349.8000488281</ele>
        <time>2014-01-31T13:18:23.000Z</time>
      </trkpt>
      <trkpt lat="45.57778" lon="6.56933">
        <ele>2349.8000488281</ele>
        <time>2014-01-31T13:18:24.000Z</time>
      </trkpt>
      <trkpt lat="45.57778" lon="6.56933">
        <ele>2349.8000488281</ele>
        <time>2014-01-31T13:18:25.000Z</time>
      </trkpt>
      <trkpt lat="45.57778" lon="6.56933">
        <ele>2349.8000488281</ele>
        <time>2014-01-31T13:18:26.000Z</time>
      </trkpt>
      <trkpt lat="45.57778" lon="6.56933">
        <ele>2349.8000488281</ele>
        <time>2014-01-31T13:18:27.000Z</time>
      </trkpt>
      <trkpt lat="45.57778" lon="6.56933">
        <ele>2349.8000488281</ele>
        <time>2014-01-31T13:18:28.000Z</time>
      </trkpt>
      <trkpt lat="45.57778" lon="6.56933">
        <ele>2350</ele>
        <time>2014-01-31T13:18:29.000Z</time>
      </trkpt>
      <trkpt lat="45.57778" lon="6.56933">
        <ele>2350</ele>
        <time>2014-01-31T13:18:30.000Z</time>
      </trkpt>
      <trkpt lat="45.57778" lon="6.56933">
        <ele>2350</ele>
        <time>2014-01-31T13:18:31.000Z</time>
      </trkpt>
      <trkpt lat="45.57778" lon="6.56933">
        <ele>2350</ele>
        <time>2014-01-31T13:18:33.000Z</time>
      </trkpt>
      <trkpt lat="45.57778" lon="6.56933">
        <ele>2349.8000488281</ele>
        <time>2014-01-31T13:18:34.000Z</time>
      </trkpt>
      <trkpt lat="45.57778" lon="6.56933">
        <ele>2349.8000488281</ele>
        <time>2014-01-31T13:18:35.000Z</time>
      </trkpt>
      <trkpt lat="45.57778" lon="6.56933">
        <ele>2349.8000488281</ele>
        <time>2014-01-31T13:18:36.000Z</time>
      </trkpt>
      <trkpt lat="45.57778" lon="6.56933">
        <ele>2349.8000488281</ele>
        <time>2014-01-31T13:18:37.000Z</time>
      </trkpt>
      <trkpt lat="45.57778" lon="6.56933">
        <ele>2349.8000488281</ele>
        <time>2014-01-31T13:18:38.000Z</time>
      </trkpt>
      <trkpt lat="45.57778" lon="6.56933">
        <ele>2349.8000488281</ele>
        <time>2014-01-31T13:18:39.000Z</time>
      </trkpt>
      <trkpt lat="45.57778" lon="6.56933">
        <ele>2350</ele>
        <time>2014-01-31T13:18:40.000Z</time>
      </trkpt>
      <trkpt lat="45.57778" lon="6.56933">
        <ele>2350</ele>
        <time>2014-01-31T13:18:41.000Z</time>
      </trkpt>
      <trkpt lat="45.57778" lon="6.56933">
        <ele>2350</ele>
        <time>2014-01-31T13:18:42.000Z</time>
      </trkpt>
      <trkpt lat="45.57778" lon="6.56933">
        <ele>2350</ele>
        <time>2014-01-31T13:18:43.000Z</time>
      </trkpt>
      <trkpt lat="45.57778" lon="6.56933">
        <ele>2350</ele>
        <time>2014-01-31T13:18:44.000Z</time>
      </trkpt>
      <trkpt lat="45.57778" lon="6.56933">
        <ele>2349.8000488281</ele>
        <time>2014-01-31T13:18:45.000Z</time>
      </trkpt>
      <trkpt lat="45.57778" lon="6.56933">
        <ele>2349.8000488281</ele>
        <time>2014-01-31T13:18:46.000Z</time>
      </trkpt>
      <trkpt lat="45.57778" lon="6.56933">
        <ele>2349.8000488281</ele>
        <time>2014-01-31T13:18:47.000Z</time>
      </trkpt>
      <trkpt lat="45.57778" lon="6.56933">
        <ele>2349.8000488281</ele>
        <time>2014-01-31T13:18:48.000Z</time>
      </trkpt>
      <trkpt lat="45.57778" lon="6.56933">
        <ele>2349.6000976562</ele>
        <time>2014-01-31T13:18:49.000Z</time>
      </trkpt>
      <trkpt lat="45.57778" lon="6.56933">
        <ele>2349.6000976562</ele>
        <time>2014-01-31T13:18:50.000Z</time>
      </trkpt>
      <trkpt lat="45.57778" lon="6.56933">
        <ele>2349.6000976562</ele>
        <time>2014-01-31T13:18:52.000Z</time>
      </trkpt>
      <trkpt lat="45.57778" lon="6.56933">
        <ele>2349.6000976562</ele>
        <time>2014-01-31T13:18:53.000Z</time>
      </trkpt>
      <trkpt lat="45.57778" lon="6.56933">
        <ele>2349.6000976562</ele>
        <time>2014-01-31T13:18:54.000Z</time>
      </trkpt>
      <trkpt lat="45.57778" lon="6.56933">
        <ele>2349.8000488281</ele>
        <time>2014-01-31T13:18:55.000Z</time>
      </trkpt>
      <trkpt lat="45.57778" lon="6.56933">
        <ele>2349.8000488281</ele>
        <time>2014-01-31T13:18:56.000Z</time>
      </trkpt>
      <trkpt lat="45.57778" lon="6.56933">
        <ele>2349.6000976562</ele>
        <time>2014-01-31T13:18:57.000Z</time>
      </trkpt>
      <trkpt lat="45.57778" lon="6.56933">
        <ele>2349.6000976562</ele>
        <time>2014-01-31T13:18:58.000Z</time>
      </trkpt>
      <trkpt lat="45.57778" lon="6.56933">
        <ele>2349.6000976562</ele>
        <time>2014-01-31T13:18:59.000Z</time>
      </trkpt>
      <trkpt lat="45.57778" lon="6.56933">
        <ele>2349.3999023438</ele>
        <time>2014-01-31T13:19:00.000Z</time>
      </trkpt>
      <trkpt lat="45.57778" lon="6.56933">
        <ele>2349.6000976562</ele>
        <time>2014-01-31T13:19:01.000Z</time>
      </trkpt>
      <trkpt lat="45.57778" lon="6.56933">
        <ele>2349.8000488281</ele>
        <time>2014-01-31T13:19:02.000Z</time>
      </trkpt>
      <trkpt lat="45.57778" lon="6.56933">
        <ele>2350</ele>
        <time>2014-01-31T13:19:03.000Z</time>
      </trkpt>
      <trkpt lat="45.57778" lon="6.56933">
        <ele>2350.1999511719</ele>
        <time>2014-01-31T13:19:04.000Z</time>
      </trkpt>
      <trkpt lat="45.57778" lon="6.56933">
        <ele>2350.1999511719</ele>
        <time>2014-01-31T13:19:05.000Z</time>
      </trkpt>
      <trkpt lat="45.57778" lon="6.56934">
        <ele>2350.1999511719</ele>
        <time>2014-01-31T13:19:06.000Z</time>
      </trkpt>
      <trkpt lat="45.57778" lon="6.56934">
        <ele>2350.1999511719</ele>
        <time>2014-01-31T13:19:07.000Z</time>
      </trkpt>
      <trkpt lat="45.57778" lon="6.56934">
        <ele>2350.3999023438</ele>
        <time>2014-01-31T13:19:08.000Z</time>
      </trkpt>
      <trkpt lat="45.57778" lon="6.56934">
        <ele>2350.3999023438</ele>
        <time>2014-01-31T13:19:09.000Z</time>
      </trkpt>
      <trkpt lat="45.57778" lon="6.56934">
        <ele>2350.3999023438</ele>
        <time>2014-01-31T13:19:10.000Z</time>
      </trkpt>
      <trkpt lat="45.57778" lon="6.56934">
        <ele>2350.3999023438</ele>
        <time>2014-01-31T13:19:11.000Z</time>
      </trkpt>
      <trkpt lat="45.57778" lon="6.56934">
        <ele>2350.3999023438</ele>
        <time>2014-01-31T13:19:12.000Z</time>
      </trkpt>
      <trkpt lat="45.57778" lon="6.56934">
        <ele>2350.3999023438</ele>
        <time>2014-01-31T13:19:13.000Z</time>
      </trkpt>
      <trkpt lat="45.57778" lon="6.56934">
        <ele>2350.3999023438</ele>
        <time>2014-01-31T13:19:14.000Z</time>
      </trkpt>
      <trkpt lat="45.57778" lon="6.56934">
        <ele>2350.3999023438</ele>
        <time>2014-01-31T13:19:15.000Z</time>
      </trkpt>
      <trkpt lat="45.57778" lon="6.56934">
        <ele>2350.3999023438</ele>
        <time>2014-01-31T13:19:16.000Z</time>
      </trkpt>
      <trkpt lat="45.57778" lon="6.56934">
        <ele>2350.1999511719</ele>
        <time>2014-01-31T13:19:17.000Z</time>
      </trkpt>
      <trkpt lat="45.57778" lon="6.56934">
        <ele>2350.1999511719</ele>
        <time>2014-01-31T13:19:18.000Z</time>
      </trkpt>
      <trkpt lat="45.57778" lon="6.56934">
        <ele>2350.1999511719</ele>
        <time>2014-01-31T13:19:19.000Z</time>
      </trkpt>
      <trkpt lat="45.57778" lon="6.56934">
        <ele>2350.1999511719</ele>
        <time>2014-01-31T13:19:20.000Z</time>
      </trkpt>
      <trkpt lat="45.57778" lon="6.56934">
        <ele>2350.1999511719</ele>
        <time>2014-01-31T13:19:21.000Z</time>
      </trkpt>
      <trkpt lat="45.57778" lon="6.56934">
        <ele>2350</ele>
        <time>2014-01-31T13:19:22.000Z</time>
      </trkpt>
      <trkpt lat="45.57778" lon="6.56934">
        <ele>2350</ele>
        <time>2014-01-31T13:19:23.000Z</time>
      </trkpt>
      <trkpt lat="45.57778" lon="6.56934">
        <ele>2350</ele>
        <time>2014-01-31T13:19:24.000Z</time>
      </trkpt>
      <trkpt lat="45.57778" lon="6.56934">
        <ele>2350</ele>
        <time>2014-01-31T13:19:25.000Z</time>
      </trkpt>
      <trkpt lat="45.57778" lon="6.56934">
        <ele>2350</ele>
        <time>2014-01-31T13:19:28.000Z</time>
      </trkpt>
      <trkpt lat="45.57778" lon="6.56934">
        <ele>2350.1999511719</ele>
        <time>2014-01-31T13:19:31.000Z</time>
      </trkpt>
      <trkpt lat="45.57778" lon="6.56934">
        <ele>2350.1999511719</ele>
        <time>2014-01-31T13:19:32.000Z</time>
      </trkpt>
      <trkpt lat="45.57778" lon="6.56934">
        <ele>2350.1999511719</ele>
        <time>2014-01-31T13:19:33.000Z</time>
      </trkpt>
      <trkpt lat="45.57778" lon="6.56934">
        <ele>2350.3999023438</ele>
        <time>2014-01-31T13:19:34.000Z</time>
      </trkpt>
      <trkpt lat="45.57778" lon="6.56934">
        <ele>2350.3999023438</ele>
        <time>2014-01-31T13:19:35.000Z</time>
      </trkpt>
      <trkpt lat="45.57778" lon="6.56934">
        <ele>2350.3999023438</ele>
        <time>2014-01-31T13:19:36.000Z</time>
      </trkpt>
      <trkpt lat="45.57778" lon="6.56934">
        <ele>2350.3999023438</ele>
        <time>2014-01-31T13:19:37.000Z</time>
      </trkpt>
      <trkpt lat="45.57778" lon="6.56934">
        <ele>2350.3999023438</ele>
        <time>2014-01-31T13:19:38.000Z</time>
      </trkpt>
      <trkpt lat="45.57778" lon="6.56934">
        <ele>2350.3999023438</ele>
        <time>2014-01-31T13:19:39.000Z</time>
      </trkpt>
      <trkpt lat="45.57778" lon="6.56934">
        <ele>2350.3999023438</ele>
        <time>2014-01-31T13:19:40.000Z</time>
      </trkpt>
      <trkpt lat="45.57778" lon="6.56934">
        <ele>2350.3999023438</ele>
        <time>2014-01-31T13:19:41.000Z</time>
      </trkpt>
      <trkpt lat="45.57778" lon="6.56934">
        <ele>2350.3999023438</ele>
        <time>2014-01-31T13:19:43.000Z</time>
      </trkpt>
      <trkpt lat="45.57778" lon="6.56934">
        <ele>2350.3999023438</ele>
        <time>2014-01-31T13:19:44.000Z</time>
      </trkpt>
      <trkpt lat="45.57778" lon="6.56934">
        <ele>2350.3999023438</ele>
        <time>2014-01-31T13:19:45.000Z</time>
      </trkpt>
      <trkpt lat="45.57779" lon="6.56934">
        <ele>2350.3999023438</ele>
        <time>2014-01-31T13:19:46.000Z</time>
      </trkpt>
      <trkpt lat="45.57779" lon="6.56934">
        <ele>2350.3999023438</ele>
        <time>2014-01-31T13:19:47.000Z</time>
      </trkpt>
      <trkpt lat="45.57779" lon="6.56934">
        <ele>2350.3999023438</ele>
        <time>2014-01-31T13:19:48.000Z</time>
      </trkpt>
      <trkpt lat="45.57779" lon="6.56934">
        <ele>2350.3999023438</ele>
        <time>2014-01-31T13:19:49.000Z</time>
      </trkpt>
      <trkpt lat="45.57779" lon="6.56934">
        <ele>2350.3999023438</ele>
        <time>2014-01-31T13:19:50.000Z</time>
      </trkpt>
      <trkpt lat="45.57779" lon="6.56934">
        <ele>2350.3999023438</ele>
        <time>2014-01-31T13:19:51.000Z</time>
      </trkpt>
      <trkpt lat="45.57779" lon="6.56934">
        <ele>2350.3999023438</ele>
        <time>2014-01-31T13:19:52.000Z</time>
      </trkpt>
      <trkpt lat="45.57779" lon="6.56934">
        <ele>2350.3999023438</ele>
        <time>2014-01-31T13:19:53.000Z</time>
      </trkpt>
      <trkpt lat="45.57779" lon="6.56934">
        <ele>2350.1999511719</ele>
        <time>2014-01-31T13:19:54.000Z</time>
      </trkpt>
      <trkpt lat="45.57779" lon="6.56934">
        <ele>2350</ele>
        <time>2014-01-31T13:19:55.000Z</time>
      </trkpt>
      <trkpt lat="45.57779" lon="6.56934">
        <ele>2350</ele>
        <time>2014-01-31T13:19:56.000Z</time>
      </trkpt>
      <trkpt lat="45.57779" lon="6.56934">
        <ele>2350</ele>
        <time>2014-01-31T13:19:57.000Z</time>
      </trkpt>
      <trkpt lat="45.57779" lon="6.56934">
        <ele>2350</ele>
        <time>2014-01-31T13:19:58.000Z</time>
      </trkpt>
      <trkpt lat="45.57779" lon="6.56934">
        <ele>2350.1999511719</ele>
        <time>2014-01-31T13:19:59.000Z</time>
      </trkpt>
      <trkpt lat="45.57779" lon="6.56934">
        <ele>2350.3999023438</ele>
        <time>2014-01-31T13:20:00.000Z</time>
      </trkpt>
      <trkpt lat="45.57779" lon="6.56934">
        <ele>2350.3999023438</ele>
        <time>2014-01-31T13:20:01.000Z</time>
      </trkpt>
      <trkpt lat="45.57779" lon="6.56934">
        <ele>2350.3999023438</ele>
        <time>2014-01-31T13:20:02.000Z</time>
      </trkpt>
      <trkpt lat="45.57779" lon="6.56934">
        <ele>2350.3999023438</ele>
        <time>2014-01-31T13:20:03.000Z</time>
      </trkpt>
      <trkpt lat="45.57779" lon="6.56934">
        <ele>2350.1999511719</ele>
        <time>2014-01-31T13:20:04.000Z</time>
      </trkpt>
      <trkpt lat="45.57779" lon="6.56934">
        <ele>2350.1999511719</ele>
        <time>2014-01-31T13:20:05.000Z</time>
      </trkpt>
      <trkpt lat="45.57779" lon="6.56934">
        <ele>2350.1999511719</ele>
        <time>2014-01-31T13:20:06.000Z</time>
      </trkpt>
      <trkpt lat="45.57779" lon="6.56934">
        <ele>2350</ele>
        <time>2014-01-31T13:20:07.000Z</time>
      </trkpt>
      <trkpt lat="45.57779" lon="6.56934">
        <ele>2350</ele>
        <time>2014-01-31T13:20:08.000Z</time>
      </trkpt>
      <trkpt lat="45.57779" lon="6.56934">
        <ele>2350</ele>
        <time>2014-01-31T13:20:09.000Z</time>
      </trkpt>
      <trkpt lat="45.57779" lon="6.56934">
        <ele>2350</ele>
        <time>2014-01-31T13:20:10.000Z</time>
      </trkpt>
      <trkpt lat="45.57779" lon="6.56934">
        <ele>2350</ele>
        <time>2014-01-31T13:20:11.000Z</time>
      </trkpt>
      <trkpt lat="45.57779" lon="6.56934">
        <ele>2350</ele>
        <time>2014-01-31T13:20:12.000Z</time>
      </trkpt>
      <trkpt lat="45.57779" lon="6.56934">
        <ele>2350</ele>
        <time>2014-01-31T13:20:13.000Z</time>
      </trkpt>
      <trkpt lat="45.57779" lon="6.56934">
        <ele>2350</ele>
        <time>2014-01-31T13:20:14.000Z</time>
      </trkpt>
      <trkpt lat="45.57779" lon="6.56934">
        <ele>2350.1999511719</ele>
        <time>2014-01-31T13:20:15.000Z</time>
      </trkpt>
      <trkpt lat="45.57779" lon="6.56934">
        <ele>2350.3999023438</ele>
        <time>2014-01-31T13:20:16.000Z</time>
      </trkpt>
      <trkpt lat="45.57779" lon="6.56934">
        <ele>2350.3999023438</ele>
        <time>2014-01-31T13:20:17.000Z</time>
      </trkpt>
      <trkpt lat="45.57779" lon="6.56934">
        <ele>2350.6000976562</ele>
        <time>2014-01-31T13:20:18.000Z</time>
      </trkpt>
      <trkpt lat="45.57779" lon="6.56934">
        <ele>2350.3999023438</ele>
        <time>2014-01-31T13:20:19.000Z</time>
      </trkpt>
      <trkpt lat="45.57779" lon="6.56934">
        <ele>2350.3999023438</ele>
        <time>2014-01-31T13:20:20.000Z</time>
      </trkpt>
      <trkpt lat="45.57779" lon="6.56934">
        <ele>2350.1999511719</ele>
        <time>2014-01-31T13:20:21.000Z</time>
      </trkpt>
      <trkpt lat="45.57779" lon="6.56934">
        <ele>2350.1999511719</ele>
        <time>2014-01-31T13:20:22.000Z</time>
      </trkpt>
      <trkpt lat="45.57779" lon="6.56934">
        <ele>2350.1999511719</ele>
        <time>2014-01-31T13:20:23.000Z</time>
      </trkpt>
      <trkpt lat="45.57779" lon="6.56935">
        <ele>2350.1999511719</ele>
        <time>2014-01-31T13:20:24.000Z</time>
      </trkpt>
      <trkpt lat="45.57779" lon="6.56935">
        <ele>2350.1999511719</ele>
        <time>2014-01-31T13:20:25.000Z</time>
      </trkpt>
      <trkpt lat="45.57779" lon="6.56935">
        <ele>2350.1999511719</ele>
        <time>2014-01-31T13:20:26.000Z</time>
      </trkpt>
      <trkpt lat="45.57779" lon="6.56935">
        <ele>2350.1999511719</ele>
        <time>2014-01-31T13:20:27.000Z</time>
      </trkpt>
      <trkpt lat="45.57779" lon="6.56935">
        <ele>2350.1999511719</ele>
        <time>2014-01-31T13:20:29.000Z</time>
      </trkpt>
      <trkpt lat="45.57779" lon="6.56935">
        <ele>2350.1999511719</ele>
        <time>2014-01-31T13:20:30.000Z</time>
      </trkpt>
      <trkpt lat="45.57779" lon="6.56935">
        <ele>2350</ele>
        <time>2014-01-31T13:20:31.000Z</time>
      </trkpt>
      <trkpt lat="45.57779" lon="6.56935">
        <ele>2350</ele>
        <time>2014-01-31T13:20:32.000Z</time>
      </trkpt>
      <trkpt lat="45.57779" lon="6.56935">
        <ele>2350</ele>
        <time>2014-01-31T13:20:33.000Z</time>
      </trkpt>
      <trkpt lat="45.57779" lon="6.56935">
        <ele>2350</ele>
        <time>2014-01-31T13:20:34.000Z</time>
      </trkpt>
      <trkpt lat="45.57779" lon="6.56935">
        <ele>2350</ele>
        <time>2014-01-31T13:20:36.000Z</time>
      </trkpt>
      <trkpt lat="45.57779" lon="6.56935">
        <ele>2350</ele>
        <time>2014-01-31T13:20:37.000Z</time>
      </trkpt>
      <trkpt lat="45.57779" lon="6.56935">
        <ele>2350</ele>
        <time>2014-01-31T13:20:38.000Z</time>
      </trkpt>
      <trkpt lat="45.57779" lon="6.56935">
        <ele>2350.1999511719</ele>
        <time>2014-01-31T13:20:39.000Z</time>
      </trkpt>
      <trkpt lat="45.57779" lon="6.56935">
        <ele>2350.1999511719</ele>
        <time>2014-01-31T13:20:40.000Z</time>
      </trkpt>
      <trkpt lat="45.57779" lon="6.56935">
        <ele>2350</ele>
        <time>2014-01-31T13:20:41.000Z</time>
      </trkpt>
      <trkpt lat="45.57779" lon="6.56935">
        <ele>2350</ele>
        <time>2014-01-31T13:20:42.000Z</time>
      </trkpt>
      <trkpt lat="45.57779" lon="6.56935">
        <ele>2350</ele>
        <time>2014-01-31T13:20:44.000Z</time>
      </trkpt>
      <trkpt lat="45.57779" lon="6.56935">
        <ele>2350.1999511719</ele>
        <time>2014-01-31T13:20:45.000Z</time>
      </trkpt>
      <trkpt lat="45.57779" lon="6.56935">
        <ele>2350.3999023438</ele>
        <time>2014-01-31T13:20:46.000Z</time>
      </trkpt>
      <trkpt lat="45.57779" lon="6.56935">
        <ele>2350.3999023438</ele>
        <time>2014-01-31T13:20:47.000Z</time>
      </trkpt>
      <trkpt lat="45.57779" lon="6.56935">
        <ele>2350.3999023438</ele>
        <time>2014-01-31T13:20:48.000Z</time>
      </trkpt>
      <trkpt lat="45.57779" lon="6.56935">
        <ele>2350.6000976562</ele>
        <time>2014-01-31T13:20:49.000Z</time>
      </trkpt>
      <trkpt lat="45.57779" lon="6.56935">
        <ele>2350.3999023438</ele>
        <time>2014-01-31T13:20:50.000Z</time>
      </trkpt>
      <trkpt lat="45.57779" lon="6.56935">
        <ele>2350.3999023438</ele>
        <time>2014-01-31T13:20:51.000Z</time>
      </trkpt>
      <trkpt lat="45.57779" lon="6.56935">
        <ele>2350.3999023438</ele>
        <time>2014-01-31T13:20:52.000Z</time>
      </trkpt>
      <trkpt lat="45.57779" lon="6.56935">
        <ele>2350.3999023438</ele>
        <time>2014-01-31T13:20:54.000Z</time>
      </trkpt>
      <trkpt lat="45.57779" lon="6.56935">
        <ele>2350.3999023438</ele>
        <time>2014-01-31T13:20:55.000Z</time>
      </trkpt>
      <trkpt lat="45.57779" lon="6.56935">
        <ele>2350.3999023438</ele>
        <time>2014-01-31T13:20:56.000Z</time>
      </trkpt>
      <trkpt lat="45.57779" lon="6.56935">
        <ele>2350.3999023438</ele>
        <time>2014-01-31T13:20:57.000Z</time>
      </trkpt>
      <trkpt lat="45.57779" lon="6.56935">
        <ele>2350.3999023438</ele>
        <time>2014-01-31T13:20:58.000Z</time>
      </trkpt>
      <trkpt lat="45.57779" lon="6.56935">
        <ele>2350.3999023438</ele>
        <time>2014-01-31T13:20:59.000Z</time>
      </trkpt>
      <trkpt lat="45.57779" lon="6.56935">
        <ele>2350.3999023438</ele>
        <time>2014-01-31T13:21:00.000Z</time>
      </trkpt>
      <trkpt lat="45.57779" lon="6.56935">
        <ele>2350.1999511719</ele>
        <time>2014-01-31T13:21:01.000Z</time>
      </trkpt>
      <trkpt lat="45.57779" lon="6.56935">
        <ele>2350.1999511719</ele>
        <time>2014-01-31T13:21:02.000Z</time>
      </trkpt>
      <trkpt lat="45.57779" lon="6.56935">
        <ele>2350.1999511719</ele>
        <time>2014-01-31T13:21:03.000Z</time>
      </trkpt>
      <trkpt lat="45.57779" lon="6.56935">
        <ele>2350.1999511719</ele>
        <time>2014-01-31T13:21:04.000Z</time>
      </trkpt>
      <trkpt lat="45.57779" lon="6.56935">
        <ele>2350.1999511719</ele>
        <time>2014-01-31T13:21:05.000Z</time>
      </trkpt>
      <trkpt lat="45.57779" lon="6.56935">
        <ele>2350.1999511719</ele>
        <time>2014-01-31T13:21:06.000Z</time>
      </trkpt>
      <trkpt lat="45.57779" lon="6.56935">
        <ele>2350.3999023438</ele>
        <time>2014-01-31T13:21:07.000Z</time>
      </trkpt>
      <trkpt lat="45.57779" lon="6.56935">
        <ele>2350.3999023438</ele>
        <time>2014-01-31T13:21:08.000Z</time>
      </trkpt>
      <trkpt lat="45.57779" lon="6.56935">
        <ele>2350.6000976562</ele>
        <time>2014-01-31T13:21:09.000Z</time>
      </trkpt>
      <trkpt lat="45.57779" lon="6.56935">
        <ele>2350.6000976562</ele>
        <time>2014-01-31T13:21:10.000Z</time>
      </trkpt>
      <trkpt lat="45.57779" lon="6.56935">
        <ele>2350.6000976562</ele>
        <time>2014-01-31T13:21:11.000Z</time>
      </trkpt>
      <trkpt lat="45.57779" lon="6.56935">
        <ele>2350.6000976562</ele>
        <time>2014-01-31T13:21:13.000Z</time>
      </trkpt>
      <trkpt lat="45.57779" lon="6.56935">
        <ele>2350.6000976562</ele>
        <time>2014-01-31T13:21:14.000Z</time>
      </trkpt>
      <trkpt lat="45.57779" lon="6.56935">
        <ele>2350.6000976562</ele>
        <time>2014-01-31T13:21:15.000Z</time>
      </trkpt>
      <trkpt lat="45.57779" lon="6.56935">
        <ele>2350.6000976562</ele>
        <time>2014-01-31T13:21:16.000Z</time>
      </trkpt>
      <trkpt lat="45.57779" lon="6.56935">
        <ele>2350.6000976562</ele>
        <time>2014-01-31T13:21:17.000Z</time>
      </trkpt>
      <trkpt lat="45.57779" lon="6.56935">
        <ele>2350.6000976562</ele>
        <time>2014-01-31T13:21:18.000Z</time>
      </trkpt>
      <trkpt lat="45.57779" lon="6.56935">
        <ele>2350.6000976562</ele>
        <time>2014-01-31T13:21:19.000Z</time>
      </trkpt>
      <trkpt lat="45.57779" lon="6.56935">
        <ele>2350.3999023438</ele>
        <time>2014-01-31T13:21:20.000Z</time>
      </trkpt>
      <trkpt lat="45.57779" lon="6.56935">
        <ele>2350.3999023438</ele>
        <time>2014-01-31T13:21:21.000Z</time>
      </trkpt>
      <trkpt lat="45.57779" lon="6.56935">
        <ele>2350.3999023438</ele>
        <time>2014-01-31T13:21:26.000Z</time>
      </trkpt>
      <trkpt lat="45.57779" lon="6.56935">
        <ele>2350.3999023438</ele>
        <time>2014-01-31T13:21:27.000Z</time>
      </trkpt>
      <trkpt lat="45.57779" lon="6.56935">
        <ele>2350.3999023438</ele>
        <time>2014-01-31T13:21:28.000Z</time>
      </trkpt>
      <trkpt lat="45.57779" lon="6.56935">
        <ele>2350.3999023438</ele>
        <time>2014-01-31T13:21:29.000Z</time>
      </trkpt>
      <trkpt lat="45.57779" lon="6.56935">
        <ele>2350.6000976562</ele>
        <time>2014-01-31T13:21:30.000Z</time>
      </trkpt>
      <trkpt lat="45.57779" lon="6.56935">
        <ele>2350.6000976562</ele>
        <time>2014-01-31T13:21:31.000Z</time>
      </trkpt>
      <trkpt lat="45.57779" lon="6.56935">
        <ele>2350.6000976562</ele>
        <time>2014-01-31T13:21:32.000Z</time>
      </trkpt>
      <trkpt lat="45.57779" lon="6.56935">
        <ele>2350.6000976562</ele>
        <time>2014-01-31T13:21:33.000Z</time>
      </trkpt>
      <trkpt lat="45.57779" lon="6.56935">
        <ele>2350.6000976562</ele>
        <time>2014-01-31T13:21:34.000Z</time>
      </trkpt>
      <trkpt lat="45.57779" lon="6.56935">
        <ele>2350.3999023438</ele>
        <time>2014-01-31T13:21:35.000Z</time>
      </trkpt>
      <trkpt lat="45.57779" lon="6.56935">
        <ele>2350.3999023438</ele>
        <time>2014-01-31T13:21:36.000Z</time>
      </trkpt>
      <trkpt lat="45.57779" lon="6.56935">
        <ele>2350.3999023438</ele>
        <time>2014-01-31T13:21:37.000Z</time>
      </trkpt>
      <trkpt lat="45.57779" lon="6.56935">
        <ele>2350.3999023438</ele>
        <time>2014-01-31T13:21:38.000Z</time>
      </trkpt>
      <trkpt lat="45.57779" lon="6.56935">
        <ele>2350.3999023438</ele>
        <time>2014-01-31T13:21:40.000Z</time>
      </trkpt>
      <trkpt lat="45.57779" lon="6.56935">
        <ele>2350.3999023438</ele>
        <time>2014-01-31T13:21:41.000Z</time>
      </trkpt>
      <trkpt lat="45.57779" lon="6.56935">
        <ele>2350.1999511719</ele>
        <time>2014-01-31T13:21:43.000Z</time>
      </trkpt>
      <trkpt lat="45.57779" lon="6.56936">
        <ele>2350.1999511719</ele>
        <time>2014-01-31T13:21:44.000Z</time>
      </trkpt>
      <trkpt lat="45.57779" lon="6.56936">
        <ele>2350.1999511719</ele>
        <time>2014-01-31T13:21:45.000Z</time>
      </trkpt>
      <trkpt lat="45.5778" lon="6.56936">
        <ele>2350.1999511719</ele>
        <time>2014-01-31T13:21:46.000Z</time>
      </trkpt>
      <trkpt lat="45.5778" lon="6.56936">
        <ele>2350.1999511719</ele>
        <time>2014-01-31T13:21:47.000Z</time>
      </trkpt>
      <trkpt lat="45.5778" lon="6.56936">
        <ele>2350.3999023438</ele>
        <time>2014-01-31T13:21:48.000Z</time>
      </trkpt>
      <trkpt lat="45.5778" lon="6.56936">
        <ele>2350.8000488281</ele>
        <time>2014-01-31T13:21:49.000Z</time>
      </trkpt>
      <trkpt lat="45.5778" lon="6.56936">
        <ele>2351</ele>
        <time>2014-01-31T13:21:50.000Z</time>
      </trkpt>
      <trkpt lat="45.5778" lon="6.56936">
        <ele>2351.1999511719</ele>
        <time>2014-01-31T13:21:51.000Z</time>
      </trkpt>
      <trkpt lat="45.5778" lon="6.56936">
        <ele>2351.1999511719</ele>
        <time>2014-01-31T13:21:52.000Z</time>
      </trkpt>
      <trkpt lat="45.57781" lon="6.56937">
        <ele>2351.1999511719</ele>
        <time>2014-01-31T13:21:53.000Z</time>
      </trkpt>
      <trkpt lat="45.57781" lon="6.56938">
        <ele>2351.1999511719</ele>
        <time>2014-01-31T13:21:54.000Z</time>
      </trkpt>
      <trkpt lat="45.57781" lon="6.56938">
        <ele>2351.3999023438</ele>
        <time>2014-01-31T13:21:55.000Z</time>
      </trkpt>
      <trkpt lat="45.57781" lon="6.56938">
        <ele>2351.6000976562</ele>
        <time>2014-01-31T13:21:56.000Z</time>
      </trkpt>
      <trkpt lat="45.57781" lon="6.56938">
        <ele>2351.8000488281</ele>
        <time>2014-01-31T13:21:57.000Z</time>
      </trkpt>
      <trkpt lat="45.57781" lon="6.56938">
        <ele>2351.8000488281</ele>
        <time>2014-01-31T13:21:58.000Z</time>
      </trkpt>
      <trkpt lat="45.57781" lon="6.56938">
        <ele>2351.8000488281</ele>
        <time>2014-01-31T13:21:59.000Z</time>
      </trkpt>
      <trkpt lat="45.57781" lon="6.56938">
        <ele>2352</ele>
        <time>2014-01-31T13:22:00.000Z</time>
      </trkpt>
      <trkpt lat="45.57781" lon="6.56938">
        <ele>2352.1999511719</ele>
        <time>2014-01-31T13:22:01.000Z</time>
      </trkpt>
      <trkpt lat="45.57781" lon="6.56938">
        <ele>2352.1999511719</ele>
        <time>2014-01-31T13:22:02.000Z</time>
      </trkpt>
      <trkpt lat="45.57781" lon="6.56938">
        <ele>2352.1999511719</ele>
        <time>2014-01-31T13:22:03.000Z</time>
      </trkpt>
      <trkpt lat="45.57781" lon="6.56938">
        <ele>2352.1999511719</ele>
        <time>2014-01-31T13:22:04.000Z</time>
      </trkpt>
      <trkpt lat="45.57781" lon="6.56938">
        <ele>2352.1999511719</ele>
        <time>2014-01-31T13:22:05.000Z</time>
      </trkpt>
      <trkpt lat="45.57781" lon="6.56938">
        <ele>2352.1999511719</ele>
        <time>2014-01-31T13:22:07.000Z</time>
      </trkpt>
      <trkpt lat="45.57781" lon="6.56938">
        <ele>2352.1999511719</ele>
        <time>2014-01-31T13:22:08.000Z</time>
      </trkpt>
      <trkpt lat="45.57781" lon="6.56938">
        <ele>2352.6000976562</ele>
        <time>2014-01-31T13:22:09.000Z</time>
      </trkpt>
      <trkpt lat="45.57781" lon="6.56938">
        <ele>2352.6000976562</ele>
        <time>2014-01-31T13:22:10.000Z</time>
      </trkpt>
      <trkpt lat="45.57781" lon="6.56938">
        <ele>2352.8000488281</ele>
        <time>2014-01-31T13:22:11.000Z</time>
      </trkpt>
      <trkpt lat="45.57781" lon="6.56938">
        <ele>2353.1999511719</ele>
        <time>2014-01-31T13:22:12.000Z</time>
      </trkpt>
      <trkpt lat="45.57781" lon="6.56938">
        <ele>2353.8000488281</ele>
        <time>2014-01-31T13:22:13.000Z</time>
      </trkpt>
      <trkpt lat="45.57781" lon="6.56938">
        <ele>2354</ele>
        <time>2014-01-31T13:22:14.000Z</time>
      </trkpt>
      <trkpt lat="45.57781" lon="6.56938">
        <ele>2353.8000488281</ele>
        <time>2014-01-31T13:22:15.000Z</time>
      </trkpt>
      <trkpt lat="45.57781" lon="6.56938">
        <ele>2354.1999511719</ele>
        <time>2014-01-31T13:22:17.000Z</time>
      </trkpt>
      <trkpt lat="45.57781" lon="6.56938">
        <ele>2354.6000976562</ele>
        <time>2014-01-31T13:22:18.000Z</time>
      </trkpt>
      <trkpt lat="45.57781" lon="6.56938">
        <ele>2354.3999023438</ele>
        <time>2014-01-31T13:22:19.000Z</time>
      </trkpt>
      <trkpt lat="45.57781" lon="6.56938">
        <ele>2354.1999511719</ele>
        <time>2014-01-31T13:22:20.000Z</time>
      </trkpt>
      <trkpt lat="45.57781" lon="6.56938">
        <ele>2354.3999023438</ele>
        <time>2014-01-31T13:22:21.000Z</time>
      </trkpt>
      <trkpt lat="45.57781" lon="6.56938">
        <ele>2354.8000488281</ele>
        <time>2014-01-31T13:22:22.000Z</time>
      </trkpt>
      <trkpt lat="45.57781" lon="6.56938">
        <ele>2355.1999511719</ele>
        <time>2014-01-31T13:22:23.000Z</time>
      </trkpt>
      <trkpt lat="45.57781" lon="6.56938">
        <ele>2354.8000488281</ele>
        <time>2014-01-31T13:22:24.000Z</time>
      </trkpt>
      <trkpt lat="45.57781" lon="6.56938">
        <ele>2354.3999023438</ele>
        <time>2014-01-31T13:22:25.000Z</time>
      </trkpt>
      <trkpt lat="45.57781" lon="6.56938">
        <ele>2354.3999023438</ele>
        <time>2014-01-31T13:22:27.000Z</time>
      </trkpt>
      <trkpt lat="45.57781" lon="6.56938">
        <ele>2354.3999023438</ele>
        <time>2014-01-31T13:22:28.000Z</time>
      </trkpt>
      <trkpt lat="45.57781" lon="6.56938">
        <ele>2354.3999023438</ele>
        <time>2014-01-31T13:22:29.000Z</time>
      </trkpt>
      <trkpt lat="45.57781" lon="6.56938">
        <ele>2354.3999023438</ele>
        <time>2014-01-31T13:22:30.000Z</time>
      </trkpt>
      <trkpt lat="45.57781" lon="6.56938">
        <ele>2354.8000488281</ele>
        <time>2014-01-31T13:22:31.000Z</time>
      </trkpt>
      <trkpt lat="45.57781" lon="6.56938">
        <ele>2355.1999511719</ele>
        <time>2014-01-31T13:22:32.000Z</time>
      </trkpt>
      <trkpt lat="45.57781" lon="6.56938">
        <ele>2355.6000976562</ele>
        <time>2014-01-31T13:22:33.000Z</time>
      </trkpt>
      <trkpt lat="45.57781" lon="6.56939">
        <ele>2356.1999511719</ele>
        <time>2014-01-31T13:22:34.000Z</time>
      </trkpt>
      <trkpt lat="45.57781" lon="6.56939">
        <ele>2356.3999023438</ele>
        <time>2014-01-31T13:22:35.000Z</time>
      </trkpt>
      <trkpt lat="45.57781" lon="6.56939">
        <ele>2356.6000976562</ele>
        <time>2014-01-31T13:22:36.000Z</time>
      </trkpt>
      <trkpt lat="45.57781" lon="6.56939">
        <ele>2356.6000976562</ele>
        <time>2014-01-31T13:22:37.000Z</time>
      </trkpt>
      <trkpt lat="45.57781" lon="6.56939">
        <ele>2356.6000976562</ele>
        <time>2014-01-31T13:22:38.000Z</time>
      </trkpt>
      <trkpt lat="45.57781" lon="6.56939">
        <ele>2356.1999511719</ele>
        <time>2014-01-31T13:22:40.000Z</time>
      </trkpt>
      <trkpt lat="45.57781" lon="6.56939">
        <ele>2356.1999511719</ele>
        <time>2014-01-31T13:22:41.000Z</time>
      </trkpt>
      <trkpt lat="45.57782" lon="6.56939">
        <ele>2356</ele>
        <time>2014-01-31T13:22:42.000Z</time>
      </trkpt>
      <trkpt lat="45.57782" lon="6.56939">
        <ele>2355.8000488281</ele>
        <time>2014-01-31T13:22:43.000Z</time>
      </trkpt>
      <trkpt lat="45.57782" lon="6.56939">
        <ele>2355.8000488281</ele>
        <time>2014-01-31T13:22:44.000Z</time>
      </trkpt>
      <trkpt lat="45.57782" lon="6.56939">
        <ele>2355.6000976562</ele>
        <time>2014-01-31T13:22:45.000Z</time>
      </trkpt>
      <trkpt lat="45.57782" lon="6.56939">
        <ele>2355.6000976562</ele>
        <time>2014-01-31T13:22:46.000Z</time>
      </trkpt>
      <trkpt lat="45.57782" lon="6.56939">
        <ele>2355.1999511719</ele>
        <time>2014-01-31T13:22:47.000Z</time>
      </trkpt>
      <trkpt lat="45.57782" lon="6.56941">
        <ele>2355.3999023438</ele>
        <time>2014-01-31T13:22:48.000Z</time>
      </trkpt>
      <trkpt lat="45.57782" lon="6.56941">
        <ele>2355.6000976562</ele>
        <time>2014-01-31T13:22:49.000Z</time>
      </trkpt>
      <trkpt lat="45.57782" lon="6.56941">
        <ele>2356</ele>
        <time>2014-01-31T13:22:50.000Z</time>
      </trkpt>
      <trkpt lat="45.57782" lon="6.56941">
        <ele>2356.1999511719</ele>
        <time>2014-01-31T13:22:51.000Z</time>
      </trkpt>
      <trkpt lat="45.57782" lon="6.56941">
        <ele>2356.1999511719</ele>
        <time>2014-01-31T13:22:52.000Z</time>
      </trkpt>
      <trkpt lat="45.57783" lon="6.56943">
        <ele>2356.1999511719</ele>
        <time>2014-01-31T13:22:53.000Z</time>
      </trkpt>
      <trkpt lat="45.57784" lon="6.56944">
        <ele>2356.1999511719</ele>
        <time>2014-01-31T13:22:54.000Z</time>
      </trkpt>
      <trkpt lat="45.57784" lon="6.56944">
        <ele>2356.3999023438</ele>
        <time>2014-01-31T13:22:55.000Z</time>
      </trkpt>
      <trkpt lat="45.57784" lon="6.56944">
        <ele>2356.3999023438</ele>
        <time>2014-01-31T13:22:57.000Z</time>
      </trkpt>
      <trkpt lat="45.57784" lon="6.56944">
        <ele>2356.1999511719</ele>
        <time>2014-01-31T13:22:58.000Z</time>
      </trkpt>
      <trkpt lat="45.57784" lon="6.56944">
        <ele>2356.1999511719</ele>
        <time>2014-01-31T13:22:59.000Z</time>
      </trkpt>
      <trkpt lat="45.57784" lon="6.56944">
        <ele>2356.3999023438</ele>
        <time>2014-01-31T13:23:00.000Z</time>
      </trkpt>
      <trkpt lat="45.57784" lon="6.56944">
        <ele>2356.3999023438</ele>
        <time>2014-01-31T13:23:01.000Z</time>
      </trkpt>
      <trkpt lat="45.57784" lon="6.56944">
        <ele>2356.3999023438</ele>
        <time>2014-01-31T13:23:02.000Z</time>
      </trkpt>
      <trkpt lat="45.57784" lon="6.56944">
        <ele>2356.3999023438</ele>
        <time>2014-01-31T13:23:03.000Z</time>
      </trkpt>
      <trkpt lat="45.57784" lon="6.56944">
        <ele>2356.3999023438</ele>
        <time>2014-01-31T13:23:04.000Z</time>
      </trkpt>
      <trkpt lat="45.57784" lon="6.56944">
        <ele>2356.6000976562</ele>
        <time>2014-01-31T13:23:05.000Z</time>
      </trkpt>
      <trkpt lat="45.57784" lon="6.56944">
        <ele>2356.6000976562</ele>
        <time>2014-01-31T13:23:06.000Z</time>
      </trkpt>
      <trkpt lat="45.57784" lon="6.56944">
        <ele>2356.6000976562</ele>
        <time>2014-01-31T13:23:07.000Z</time>
      </trkpt>
      <trkpt lat="45.57784" lon="6.56944">
        <ele>2356.3999023438</ele>
        <time>2014-01-31T13:23:09.000Z</time>
      </trkpt>
      <trkpt lat="45.57784" lon="6.56944">
        <ele>2356.3999023438</ele>
        <time>2014-01-31T13:23:10.000Z</time>
      </trkpt>
      <trkpt lat="45.57784" lon="6.56944">
        <ele>2356.3999023438</ele>
        <time>2014-01-31T13:23:11.000Z</time>
      </trkpt>
      <trkpt lat="45.57784" lon="6.56944">
        <ele>2356.6000976562</ele>
        <time>2014-01-31T13:23:12.000Z</time>
      </trkpt>
      <trkpt lat="45.57784" lon="6.56944">
        <ele>2356.6000976562</ele>
        <time>2014-01-31T13:23:13.000Z</time>
      </trkpt>
      <trkpt lat="45.57784" lon="6.56944">
        <ele>2356.8000488281</ele>
        <time>2014-01-31T13:23:14.000Z</time>
      </trkpt>
      <trkpt lat="45.57784" lon="6.56944">
        <ele>2356.8000488281</ele>
        <time>2014-01-31T13:23:15.000Z</time>
      </trkpt>
      <trkpt lat="45.57784" lon="6.56944">
        <ele>2356.8000488281</ele>
        <time>2014-01-31T13:23:16.000Z</time>
      </trkpt>
      <trkpt lat="45.57784" lon="6.56944">
        <ele>2356.8000488281</ele>
        <time>2014-01-31T13:23:17.000Z</time>
      </trkpt>
      <trkpt lat="45.57784" lon="6.56944">
        <ele>2356.6000976562</ele>
        <time>2014-01-31T13:23:18.000Z</time>
      </trkpt>
      <trkpt lat="45.57784" lon="6.56944">
        <ele>2356.3999023438</ele>
        <time>2014-01-31T13:23:19.000Z</time>
      </trkpt>
      <trkpt lat="45.57784" lon="6.56944">
        <ele>2356.1999511719</ele>
        <time>2014-01-31T13:23:20.000Z</time>
      </trkpt>
      <trkpt lat="45.57784" lon="6.56944">
        <ele>2356.1999511719</ele>
        <time>2014-01-31T13:23:21.000Z</time>
      </trkpt>
      <trkpt lat="45.57784" lon="6.56944">
        <ele>2356.1999511719</ele>
        <time>2014-01-31T13:23:22.000Z</time>
      </trkpt>
      <trkpt lat="45.57784" lon="6.56944">
        <ele>2356.1999511719</ele>
        <time>2014-01-31T13:23:23.000Z</time>
      </trkpt>
      <trkpt lat="45.57784" lon="6.56944">
        <ele>2356.1999511719</ele>
        <time>2014-01-31T13:23:24.000Z</time>
      </trkpt>
      <trkpt lat="45.57784" lon="6.56944">
        <ele>2356.1999511719</ele>
        <time>2014-01-31T13:23:25.000Z</time>
      </trkpt>
      <trkpt lat="45.57784" lon="6.56944">
        <ele>2356.1999511719</ele>
        <time>2014-01-31T13:23:26.000Z</time>
      </trkpt>
      <trkpt lat="45.57784" lon="6.56944">
        <ele>2356</ele>
        <time>2014-01-31T13:23:27.000Z</time>
      </trkpt>
      <trkpt lat="45.57784" lon="6.56944">
        <ele>2355.8000488281</ele>
        <time>2014-01-31T13:23:28.000Z</time>
      </trkpt>
      <trkpt lat="45.57784" lon="6.56944">
        <ele>2355.8000488281</ele>
        <time>2014-01-31T13:23:29.000Z</time>
      </trkpt>
      <trkpt lat="45.57784" lon="6.56944">
        <ele>2355.8000488281</ele>
        <time>2014-01-31T13:23:30.000Z</time>
      </trkpt>
      <trkpt lat="45.57784" lon="6.56944">
        <ele>2356</ele>
        <time>2014-01-31T13:23:31.000Z</time>
      </trkpt>
      <trkpt lat="45.57784" lon="6.56944">
        <ele>2356.1999511719</ele>
        <time>2014-01-31T13:23:32.000Z</time>
      </trkpt>
      <trkpt lat="45.57784" lon="6.56944">
        <ele>2356.6000976562</ele>
        <time>2014-01-31T13:23:33.000Z</time>
      </trkpt>
      <trkpt lat="45.57784" lon="6.56944">
        <ele>2356.8000488281</ele>
        <time>2014-01-31T13:23:34.000Z</time>
      </trkpt>
      <trkpt lat="45.57784" lon="6.56944">
        <ele>2356.8000488281</ele>
        <time>2014-01-31T13:23:35.000Z</time>
      </trkpt>
      <trkpt lat="45.57784" lon="6.56944">
        <ele>2356.8000488281</ele>
        <time>2014-01-31T13:23:36.000Z</time>
      </trkpt>
      <trkpt lat="45.57784" lon="6.56944">
        <ele>2356.8000488281</ele>
        <time>2014-01-31T13:23:38.000Z</time>
      </trkpt>
      <trkpt lat="45.57784" lon="6.56944">
        <ele>2356.6000976562</ele>
        <time>2014-01-31T13:23:39.000Z</time>
      </trkpt>
      <trkpt lat="45.57784" lon="6.56944">
        <ele>2356.6000976562</ele>
        <time>2014-01-31T13:23:40.000Z</time>
      </trkpt>
      <trkpt lat="45.57784" lon="6.56944">
        <ele>2356.3999023438</ele>
        <time>2014-01-31T13:23:41.000Z</time>
      </trkpt>
      <trkpt lat="45.57784" lon="6.56944">
        <ele>2356.6000976562</ele>
        <time>2014-01-31T13:23:42.000Z</time>
      </trkpt>
      <trkpt lat="45.57784" lon="6.56944">
        <ele>2356.8000488281</ele>
        <time>2014-01-31T13:23:43.000Z</time>
      </trkpt>
      <trkpt lat="45.57784" lon="6.56944">
        <ele>2357</ele>
        <time>2014-01-31T13:23:44.000Z</time>
      </trkpt>
      <trkpt lat="45.57784" lon="6.56944">
        <ele>2357</ele>
        <time>2014-01-31T13:23:45.000Z</time>
      </trkpt>
      <trkpt lat="45.57784" lon="6.56944">
        <ele>2357</ele>
        <time>2014-01-31T13:23:46.000Z</time>
      </trkpt>
      <trkpt lat="45.57784" lon="6.56944">
        <ele>2357</ele>
        <time>2014-01-31T13:23:47.000Z</time>
      </trkpt>
      <trkpt lat="45.57784" lon="6.56944">
        <ele>2356.8000488281</ele>
        <time>2014-01-31T13:23:48.000Z</time>
      </trkpt>
      <trkpt lat="45.57784" lon="6.56944">
        <ele>2356.6000976562</ele>
        <time>2014-01-31T13:23:49.000Z</time>
      </trkpt>
      <trkpt lat="45.57784" lon="6.56944">
        <ele>2356.6000976562</ele>
        <time>2014-01-31T13:23:50.000Z</time>
      </trkpt>
      <trkpt lat="45.57784" lon="6.56944">
        <ele>2356.6000976562</ele>
        <time>2014-01-31T13:23:51.000Z</time>
      </trkpt>
      <trkpt lat="45.57784" lon="6.56944">
        <ele>2356.8000488281</ele>
        <time>2014-01-31T13:23:52.000Z</time>
      </trkpt>
      <trkpt lat="45.57784" lon="6.56944">
        <ele>2356.8000488281</ele>
        <time>2014-01-31T13:23:53.000Z</time>
      </trkpt>
      <trkpt lat="45.57784" lon="6.56944">
        <ele>2356.8000488281</ele>
        <time>2014-01-31T13:23:54.000Z</time>
      </trkpt>
      <trkpt lat="45.57784" lon="6.56944">
        <ele>2356.8000488281</ele>
        <time>2014-01-31T13:23:55.000Z</time>
      </trkpt>
      <trkpt lat="45.57784" lon="6.56944">
        <ele>2356.8000488281</ele>
        <time>2014-01-31T13:23:56.000Z</time>
      </trkpt>
      <trkpt lat="45.57784" lon="6.56944">
        <ele>2356.8000488281</ele>
        <time>2014-01-31T13:23:57.000Z</time>
      </trkpt>
      <trkpt lat="45.57784" lon="6.56944">
        <ele>2356.8000488281</ele>
        <time>2014-01-31T13:23:59.000Z</time>
      </trkpt>
      <trkpt lat="45.57784" lon="6.56944">
        <ele>2356.8000488281</ele>
        <time>2014-01-31T13:24:00.000Z</time>
      </trkpt>
      <trkpt lat="45.57784" lon="6.56944">
        <ele>2356.6000976562</ele>
        <time>2014-01-31T13:24:01.000Z</time>
      </trkpt>
      <trkpt lat="45.57784" lon="6.56944">
        <ele>2356.6000976562</ele>
        <time>2014-01-31T13:24:02.000Z</time>
      </trkpt>
      <trkpt lat="45.57784" lon="6.56944">
        <ele>2356.6000976562</ele>
        <time>2014-01-31T13:24:03.000Z</time>
      </trkpt>
      <trkpt lat="45.57784" lon="6.56944">
        <ele>2356.3999023438</ele>
        <time>2014-01-31T13:24:04.000Z</time>
      </trkpt>
      <trkpt lat="45.57784" lon="6.56944">
        <ele>2356.3999023438</ele>
        <time>2014-01-31T13:24:05.000Z</time>
      </trkpt>
      <trkpt lat="45.57784" lon="6.56944">
        <ele>2356.1999511719</ele>
        <time>2014-01-31T13:24:06.000Z</time>
      </trkpt>
      <trkpt lat="45.57784" lon="6.56944">
        <ele>2356.1999511719</ele>
        <time>2014-01-31T13:24:07.000Z</time>
      </trkpt>
      <trkpt lat="45.57784" lon="6.56944">
        <ele>2356.3999023438</ele>
        <time>2014-01-31T13:24:08.000Z</time>
      </trkpt>
      <trkpt lat="45.57784" lon="6.56944">
        <ele>2356.6000976562</ele>
        <time>2014-01-31T13:24:09.000Z</time>
      </trkpt>
      <trkpt lat="45.57784" lon="6.56944">
        <ele>2356.8000488281</ele>
        <time>2014-01-31T13:24:10.000Z</time>
      </trkpt>
      <trkpt lat="45.57784" lon="6.56944">
        <ele>2356.8000488281</ele>
        <time>2014-01-31T13:24:11.000Z</time>
      </trkpt>
      <trkpt lat="45.57784" lon="6.56944">
        <ele>2356.8000488281</ele>
        <time>2014-01-31T13:24:12.000Z</time>
      </trkpt>
      <trkpt lat="45.57784" lon="6.56944">
        <ele>2356.6000976562</ele>
        <time>2014-01-31T13:24:13.000Z</time>
      </trkpt>
      <trkpt lat="45.57784" lon="6.56944">
        <ele>2356.6000976562</ele>
        <time>2014-01-31T13:24:14.000Z</time>
      </trkpt>
      <trkpt lat="45.57784" lon="6.56945">
        <ele>2356.6000976562</ele>
        <time>2014-01-31T13:24:15.000Z</time>
      </trkpt>
      <trkpt lat="45.57784" lon="6.56946">
        <ele>2356.6000976562</ele>
        <time>2014-01-31T13:24:16.000Z</time>
      </trkpt>
      <trkpt lat="45.57784" lon="6.56947">
        <ele>2356.6000976562</ele>
        <time>2014-01-31T13:24:17.000Z</time>
      </trkpt>
      <trkpt lat="45.57785" lon="6.56948">
        <ele>2356.8000488281</ele>
        <time>2014-01-31T13:24:18.000Z</time>
      </trkpt>
      <trkpt lat="45.57785" lon="6.56949">
        <ele>2356.8000488281</ele>
        <time>2014-01-31T13:24:19.000Z</time>
      </trkpt>
      <trkpt lat="45.57785" lon="6.56951">
        <ele>2356.8000488281</ele>
        <time>2014-01-31T13:24:20.000Z</time>
      </trkpt>
      <trkpt lat="45.57786" lon="6.56952">
        <ele>2356.8000488281</ele>
        <time>2014-01-31T13:24:21.000Z</time>
      </trkpt>
      <trkpt lat="45.57786" lon="6.56953">
        <ele>2356.8000488281</ele>
        <time>2014-01-31T13:24:22.000Z</time>
      </trkpt>
      <trkpt lat="45.57787" lon="6.56955">
        <ele>2356.6000976562</ele>
        <time>2014-01-31T13:24:23.000Z</time>
      </trkpt>
      <trkpt lat="45.57788" lon="6.56956">
        <ele>2356.6000976562</ele>
        <time>2014-01-31T13:24:24.000Z</time>
      </trkpt>
      <trkpt lat="45.57788" lon="6.56957">
        <ele>2356.6000976562</ele>
        <time>2014-01-31T13:24:25.000Z</time>
      </trkpt>
      <trkpt lat="45.57788" lon="6.5696">
        <ele>2356.6000976562</ele>
        <time>2014-01-31T13:24:26.000Z</time>
      </trkpt>
      <trkpt lat="45.57789" lon="6.56962">
        <ele>2356.3999023438</ele>
        <time>2014-01-31T13:24:27.000Z</time>
      </trkpt>
      <trkpt lat="45.57789" lon="6.56962">
        <ele>2356.3999023438</ele>
        <time>2014-01-31T13:24:28.000Z</time>
      </trkpt>
      <trkpt lat="45.57789" lon="6.56963">
        <ele>2356.1999511719</ele>
        <time>2014-01-31T13:24:29.000Z</time>
      </trkpt>
      <trkpt lat="45.57788" lon="6.56963">
        <ele>2356.1999511719</ele>
        <time>2014-01-31T13:24:30.000Z</time>
      </trkpt>
      <trkpt lat="45.57788" lon="6.56963">
        <ele>2356</ele>
        <time>2014-01-31T13:24:31.000Z</time>
      </trkpt>
      <trkpt lat="45.57788" lon="6.56963">
        <ele>2355.8000488281</ele>
        <time>2014-01-31T13:24:32.000Z</time>
      </trkpt>
      <trkpt lat="45.57788" lon="6.56963">
        <ele>2355.6000976562</ele>
        <time>2014-01-31T13:24:33.000Z</time>
      </trkpt>
      <trkpt lat="45.57788" lon="6.56963">
        <ele>2355.3999023438</ele>
        <time>2014-01-31T13:24:34.000Z</time>
      </trkpt>
      <trkpt lat="45.57788" lon="6.56963">
        <ele>2355.1999511719</ele>
        <time>2014-01-31T13:24:35.000Z</time>
      </trkpt>
      <trkpt lat="45.57788" lon="6.56963">
        <ele>2355</ele>
        <time>2014-01-31T13:24:36.000Z</time>
      </trkpt>
      <trkpt lat="45.57788" lon="6.56963">
        <ele>2354.8000488281</ele>
        <time>2014-01-31T13:24:37.000Z</time>
      </trkpt>
      <trkpt lat="45.57788" lon="6.56963">
        <ele>2354.8000488281</ele>
        <time>2014-01-31T13:24:38.000Z</time>
      </trkpt>
      <trkpt lat="45.57788" lon="6.56963">
        <ele>2354.8000488281</ele>
        <time>2014-01-31T13:24:39.000Z</time>
      </trkpt>
      <trkpt lat="45.57788" lon="6.56963">
        <ele>2355</ele>
        <time>2014-01-31T13:24:40.000Z</time>
      </trkpt>
      <trkpt lat="45.57788" lon="6.56963">
        <ele>2355</ele>
        <time>2014-01-31T13:24:41.000Z</time>
      </trkpt>
      <trkpt lat="45.57788" lon="6.56963">
        <ele>2355</ele>
        <time>2014-01-31T13:24:42.000Z</time>
      </trkpt>
      <trkpt lat="45.57788" lon="6.56963">
        <ele>2355</ele>
        <time>2014-01-31T13:24:43.000Z</time>
      </trkpt>
      <trkpt lat="45.57788" lon="6.56963">
        <ele>2354.8000488281</ele>
        <time>2014-01-31T13:24:44.000Z</time>
      </trkpt>
      <trkpt lat="45.57788" lon="6.56963">
        <ele>2354.8000488281</ele>
        <time>2014-01-31T13:24:45.000Z</time>
      </trkpt>
      <trkpt lat="45.57788" lon="6.56963">
        <ele>2354.8000488281</ele>
        <time>2014-01-31T13:24:46.000Z</time>
      </trkpt>
      <trkpt lat="45.57788" lon="6.56963">
        <ele>2354.6000976562</ele>
        <time>2014-01-31T13:24:47.000Z</time>
      </trkpt>
      <trkpt lat="45.57788" lon="6.56963">
        <ele>2354.6000976562</ele>
        <time>2014-01-31T13:24:48.000Z</time>
      </trkpt>
      <trkpt lat="45.57788" lon="6.56963">
        <ele>2354.6000976562</ele>
        <time>2014-01-31T13:24:49.000Z</time>
      </trkpt>
      <trkpt lat="45.57788" lon="6.56963">
        <ele>2354.6000976562</ele>
        <time>2014-01-31T13:24:50.000Z</time>
      </trkpt>
      <trkpt lat="45.57788" lon="6.56963">
        <ele>2354.8000488281</ele>
        <time>2014-01-31T13:24:51.000Z</time>
      </trkpt>
      <trkpt lat="45.57788" lon="6.56963">
        <ele>2355</ele>
        <time>2014-01-31T13:24:52.000Z</time>
      </trkpt>
      <trkpt lat="45.57788" lon="6.56963">
        <ele>2355.1999511719</ele>
        <time>2014-01-31T13:24:53.000Z</time>
      </trkpt>
      <trkpt lat="45.57788" lon="6.56963">
        <ele>2355.3999023438</ele>
        <time>2014-01-31T13:24:54.000Z</time>
      </trkpt>
      <trkpt lat="45.57788" lon="6.56963">
        <ele>2355.3999023438</ele>
        <time>2014-01-31T13:24:55.000Z</time>
      </trkpt>
      <trkpt lat="45.57788" lon="6.56963">
        <ele>2355.3999023438</ele>
        <time>2014-01-31T13:24:56.000Z</time>
      </trkpt>
      <trkpt lat="45.57788" lon="6.56963">
        <ele>2355.3999023438</ele>
        <time>2014-01-31T13:24:57.000Z</time>
      </trkpt>
      <trkpt lat="45.57788" lon="6.56963">
        <ele>2355.1999511719</ele>
        <time>2014-01-31T13:24:58.000Z</time>
      </trkpt>
      <trkpt lat="45.57788" lon="6.56965">
        <ele>2355</ele>
        <time>2014-01-31T13:24:59.000Z</time>
      </trkpt>
      <trkpt lat="45.57788" lon="6.56965">
        <ele>2355</ele>
        <time>2014-01-31T13:25:00.000Z</time>
      </trkpt>
      <trkpt lat="45.57789" lon="6.56966">
        <ele>2354.8000488281</ele>
        <time>2014-01-31T13:25:01.000Z</time>
      </trkpt>
      <trkpt lat="45.57789" lon="6.56966">
        <ele>2354.8000488281</ele>
        <time>2014-01-31T13:25:02.000Z</time>
      </trkpt>
      <trkpt lat="45.57789" lon="6.56968">
        <ele>2354.6000976562</ele>
        <time>2014-01-31T13:25:03.000Z</time>
      </trkpt>
      <trkpt lat="45.5779" lon="6.56971">
        <ele>2354.6000976562</ele>
        <time>2014-01-31T13:25:04.000Z</time>
      </trkpt>
      <trkpt lat="45.57791" lon="6.56974">
        <ele>2354.3999023438</ele>
        <time>2014-01-31T13:25:05.000Z</time>
      </trkpt>
      <trkpt lat="45.57792" lon="6.56977">
        <ele>2354.3999023438</ele>
        <time>2014-01-31T13:25:06.000Z</time>
      </trkpt>
      <trkpt lat="45.57792" lon="6.56978">
        <ele>2354.1999511719</ele>
        <time>2014-01-31T13:25:07.000Z</time>
      </trkpt>
      <trkpt lat="45.57792" lon="6.56978">
        <ele>2354.1999511719</ele>
        <time>2014-01-31T13:25:08.000Z</time>
      </trkpt>
      <trkpt lat="45.57792" lon="6.56979">
        <ele>2354</ele>
        <time>2014-01-31T13:25:09.000Z</time>
      </trkpt>
      <trkpt lat="45.57792" lon="6.56979">
        <ele>2354</ele>
        <time>2014-01-31T13:25:10.000Z</time>
      </trkpt>
      <trkpt lat="45.57792" lon="6.56979">
        <ele>2353.6000976562</ele>
        <time>2014-01-31T13:25:11.000Z</time>
      </trkpt>
      <trkpt lat="45.57791" lon="6.56979">
        <ele>2353.3999023438</ele>
        <time>2014-01-31T13:25:12.000Z</time>
      </trkpt>
      <trkpt lat="45.57791" lon="6.56979">
        <ele>2353.3999023438</ele>
        <time>2014-01-31T13:25:13.000Z</time>
      </trkpt>
      <trkpt lat="45.57791" lon="6.56981">
        <ele>2353.1999511719</ele>
        <time>2014-01-31T13:25:14.000Z</time>
      </trkpt>
      <trkpt lat="45.57791" lon="6.56981">
        <ele>2353</ele>
        <time>2014-01-31T13:25:15.000Z</time>
      </trkpt>
      <trkpt lat="45.57791" lon="6.56981">
        <ele>2352.8000488281</ele>
        <time>2014-01-31T13:25:16.000Z</time>
      </trkpt>
      <trkpt lat="45.57791" lon="6.56981">
        <ele>2352.8000488281</ele>
        <time>2014-01-31T13:25:17.000Z</time>
      </trkpt>
      <trkpt lat="45.57791" lon="6.56981">
        <ele>2353</ele>
        <time>2014-01-31T13:25:18.000Z</time>
      </trkpt>
      <trkpt lat="45.57791" lon="6.56981">
        <ele>2353.3999023438</ele>
        <time>2014-01-31T13:25:19.000Z</time>
      </trkpt>
      <trkpt lat="45.57792" lon="6.56983">
        <ele>2353.6000976562</ele>
        <time>2014-01-31T13:25:20.000Z</time>
      </trkpt>
      <trkpt lat="45.57792" lon="6.56983">
        <ele>2353.8000488281</ele>
        <time>2014-01-31T13:25:21.000Z</time>
      </trkpt>
      <trkpt lat="45.57792" lon="6.56984">
        <ele>2354.1999511719</ele>
        <time>2014-01-31T13:25:22.000Z</time>
      </trkpt>
      <trkpt lat="45.57793" lon="6.56984">
        <ele>2354.3999023438</ele>
        <time>2014-01-31T13:25:23.000Z</time>
      </trkpt>
      <trkpt lat="45.57793" lon="6.56985">
        <ele>2354.3999023438</ele>
        <time>2014-01-31T13:25:24.000Z</time>
      </trkpt>
      <trkpt lat="45.57794" lon="6.56986">
        <ele>2354.3999023438</ele>
        <time>2014-01-31T13:25:25.000Z</time>
      </trkpt>
      <trkpt lat="45.57794" lon="6.56987">
        <ele>2354.3999023438</ele>
        <time>2014-01-31T13:25:26.000Z</time>
      </trkpt>
      <trkpt lat="45.57795" lon="6.56987">
        <ele>2354.3999023438</ele>
        <time>2014-01-31T13:25:27.000Z</time>
      </trkpt>
      <trkpt lat="45.57795" lon="6.56988">
        <ele>2354.3999023438</ele>
        <time>2014-01-31T13:25:28.000Z</time>
      </trkpt>
      <trkpt lat="45.57795" lon="6.5699">
        <ele>2354.3999023438</ele>
        <time>2014-01-31T13:25:29.000Z</time>
      </trkpt>
      <trkpt lat="45.57795" lon="6.5699">
        <ele>2354.6000976562</ele>
        <time>2014-01-31T13:25:30.000Z</time>
      </trkpt>
      <trkpt lat="45.57795" lon="6.56992">
        <ele>2354.8000488281</ele>
        <time>2014-01-31T13:25:31.000Z</time>
      </trkpt>
      <trkpt lat="45.57795" lon="6.56992">
        <ele>2355</ele>
        <time>2014-01-31T13:25:32.000Z</time>
      </trkpt>
      <trkpt lat="45.57796" lon="6.56994">
        <ele>2355</ele>
        <time>2014-01-31T13:25:33.000Z</time>
      </trkpt>
      <trkpt lat="45.57796" lon="6.56995">
        <ele>2355.1999511719</ele>
        <time>2014-01-31T13:25:34.000Z</time>
      </trkpt>
      <trkpt lat="45.57796" lon="6.56996">
        <ele>2355</ele>
        <time>2014-01-31T13:25:35.000Z</time>
      </trkpt>
      <trkpt lat="45.57796" lon="6.56997">
        <ele>2355.1999511719</ele>
        <time>2014-01-31T13:25:36.000Z</time>
      </trkpt>
      <trkpt lat="45.57796" lon="6.56998">
        <ele>2355.1999511719</ele>
        <time>2014-01-31T13:25:37.000Z</time>
      </trkpt>
      <trkpt lat="45.57796" lon="6.56999">
        <ele>2355.3999023438</ele>
        <time>2014-01-31T13:25:38.000Z</time>
      </trkpt>
      <trkpt lat="45.57796" lon="6.56999">
        <ele>2355.3999023438</ele>
        <time>2014-01-31T13:25:39.000Z</time>
      </trkpt>
      <trkpt lat="45.57796" lon="6.56999">
        <ele>2355.3999023438</ele>
        <time>2014-01-31T13:25:40.000Z</time>
      </trkpt>
      <trkpt lat="45.57796" lon="6.56999">
        <ele>2355.6000976562</ele>
        <time>2014-01-31T13:25:41.000Z</time>
      </trkpt>
      <trkpt lat="45.57796" lon="6.56999">
        <ele>2355.8000488281</ele>
        <time>2014-01-31T13:25:42.000Z</time>
      </trkpt>
      <trkpt lat="45.57796" lon="6.57">
        <ele>2356</ele>
        <time>2014-01-31T13:25:43.000Z</time>
      </trkpt>
      <trkpt lat="45.57796" lon="6.57001">
        <ele>2356</ele>
        <time>2014-01-31T13:25:44.000Z</time>
      </trkpt>
      <trkpt lat="45.57795" lon="6.57002">
        <ele>2356.1999511719</ele>
        <time>2014-01-31T13:25:45.000Z</time>
      </trkpt>
      <trkpt lat="45.57795" lon="6.57004">
        <ele>2356.1999511719</ele>
        <time>2014-01-31T13:25:46.000Z</time>
      </trkpt>
      <trkpt lat="45.57795" lon="6.57005">
        <ele>2356.1999511719</ele>
        <time>2014-01-31T13:25:47.000Z</time>
      </trkpt>
      <trkpt lat="45.57794" lon="6.57007">
        <ele>2356.3999023438</ele>
        <time>2014-01-31T13:25:48.000Z</time>
      </trkpt>
      <trkpt lat="45.57794" lon="6.57008">
        <ele>2356.3999023438</ele>
        <time>2014-01-31T13:25:49.000Z</time>
      </trkpt>
      <trkpt lat="45.57794" lon="6.5701">
        <ele>2356.6000976562</ele>
        <time>2014-01-31T13:25:50.000Z</time>
      </trkpt>
      <trkpt lat="45.57793" lon="6.5701">
        <ele>2356.6000976562</ele>
        <time>2014-01-31T13:25:51.000Z</time>
      </trkpt>
      <trkpt lat="45.57793" lon="6.57013">
        <ele>2356.8000488281</ele>
        <time>2014-01-31T13:25:52.000Z</time>
      </trkpt>
      <trkpt lat="45.57793" lon="6.57013">
        <ele>2356.8000488281</ele>
        <time>2014-01-31T13:25:53.000Z</time>
      </trkpt>
      <trkpt lat="45.57792" lon="6.57014">
        <ele>2357</ele>
        <time>2014-01-31T13:25:54.000Z</time>
      </trkpt>
      <trkpt lat="45.57792" lon="6.57016">
        <ele>2357</ele>
        <time>2014-01-31T13:25:55.000Z</time>
      </trkpt>
      <trkpt lat="45.57792" lon="6.57017">
        <ele>2357.1999511719</ele>
        <time>2014-01-31T13:25:56.000Z</time>
      </trkpt>
      <trkpt lat="45.57792" lon="6.57019">
        <ele>2357.3999023438</ele>
        <time>2014-01-31T13:25:57.000Z</time>
      </trkpt>
      <trkpt lat="45.57792" lon="6.57019">
        <ele>2357.6000976562</ele>
        <time>2014-01-31T13:25:58.000Z</time>
      </trkpt>
      <trkpt lat="45.57791" lon="6.57021">
        <ele>2357.6000976562</ele>
        <time>2014-01-31T13:25:59.000Z</time>
      </trkpt>
      <trkpt lat="45.57791" lon="6.57023">
        <ele>2357.8000488281</ele>
        <time>2014-01-31T13:26:00.000Z</time>
      </trkpt>
      <trkpt lat="45.57791" lon="6.57025">
        <ele>2358</ele>
        <time>2014-01-31T13:26:01.000Z</time>
      </trkpt>
      <trkpt lat="45.57791" lon="6.57027">
        <ele>2358.1999511719</ele>
        <time>2014-01-31T13:26:02.000Z</time>
      </trkpt>
      <trkpt lat="45.57791" lon="6.57028">
        <ele>2358</ele>
        <time>2014-01-31T13:26:03.000Z</time>
      </trkpt>
      <trkpt lat="45.57791" lon="6.57028">
        <ele>2358.1999511719</ele>
        <time>2014-01-31T13:26:04.000Z</time>
      </trkpt>
      <trkpt lat="45.57791" lon="6.5703">
        <ele>2358.1999511719</ele>
        <time>2014-01-31T13:26:05.000Z</time>
      </trkpt>
      <trkpt lat="45.57791" lon="6.5703">
        <ele>2358.3999023438</ele>
        <time>2014-01-31T13:26:06.000Z</time>
      </trkpt>
      <trkpt lat="45.57791" lon="6.57032">
        <ele>2358.6000976562</ele>
        <time>2014-01-31T13:26:07.000Z</time>
      </trkpt>
      <trkpt lat="45.57791" lon="6.57032">
        <ele>2358.8000488281</ele>
        <time>2014-01-31T13:26:08.000Z</time>
      </trkpt>
      <trkpt lat="45.57791" lon="6.57035">
        <ele>2359</ele>
        <time>2014-01-31T13:26:09.000Z</time>
      </trkpt>
      <trkpt lat="45.57791" lon="6.57036">
        <ele>2359</ele>
        <time>2014-01-31T13:26:10.000Z</time>
      </trkpt>
      <trkpt lat="45.57791" lon="6.57037">
        <ele>2359.1999511719</ele>
        <time>2014-01-31T13:26:11.000Z</time>
      </trkpt>
      <trkpt lat="45.57791" lon="6.57038">
        <ele>2359.1999511719</ele>
        <time>2014-01-31T13:26:12.000Z</time>
      </trkpt>
      <trkpt lat="45.57791" lon="6.5704">
        <ele>2359.1999511719</ele>
        <time>2014-01-31T13:26:13.000Z</time>
      </trkpt>
      <trkpt lat="45.57791" lon="6.5704">
        <ele>2359.1999511719</ele>
        <time>2014-01-31T13:26:14.000Z</time>
      </trkpt>
      <trkpt lat="45.57791" lon="6.57041">
        <ele>2359</ele>
        <time>2014-01-31T13:26:15.000Z</time>
      </trkpt>
      <trkpt lat="45.57791" lon="6.57041">
        <ele>2358.8000488281</ele>
        <time>2014-01-31T13:26:16.000Z</time>
      </trkpt>
      <trkpt lat="45.57791" lon="6.57041">
        <ele>2358.6000976562</ele>
        <time>2014-01-31T13:26:17.000Z</time>
      </trkpt>
      <trkpt lat="45.57791" lon="6.57041">
        <ele>2358.3999023438</ele>
        <time>2014-01-31T13:26:18.000Z</time>
      </trkpt>
      <trkpt lat="45.57791" lon="6.57042">
        <ele>2358.3999023438</ele>
        <time>2014-01-31T13:26:19.000Z</time>
      </trkpt>
      <trkpt lat="45.57792" lon="6.57042">
        <ele>2358.3999023438</ele>
        <time>2014-01-31T13:26:20.000Z</time>
      </trkpt>
      <trkpt lat="45.57792" lon="6.57042">
        <ele>2358.3999023438</ele>
        <time>2014-01-31T13:26:21.000Z</time>
      </trkpt>
      <trkpt lat="45.57792" lon="6.57042">
        <ele>2358.1999511719</ele>
        <time>2014-01-31T13:26:22.000Z</time>
      </trkpt>
      <trkpt lat="45.57792" lon="6.57042">
        <ele>2358.1999511719</ele>
        <time>2014-01-31T13:26:23.000Z</time>
      </trkpt>
      <trkpt lat="45.57792" lon="6.57042">
        <ele>2358</ele>
        <time>2014-01-31T13:26:24.000Z</time>
      </trkpt>
      <trkpt lat="45.57792" lon="6.57042">
        <ele>2357.8000488281</ele>
        <time>2014-01-31T13:26:25.000Z</time>
      </trkpt>
      <trkpt lat="45.57792" lon="6.57042">
        <ele>2357.8000488281</ele>
        <time>2014-01-31T13:26:26.000Z</time>
      </trkpt>
      <trkpt lat="45.57792" lon="6.57043">
        <ele>2357.6000976562</ele>
        <time>2014-01-31T13:26:27.000Z</time>
      </trkpt>
      <trkpt lat="45.57791" lon="6.57044">
        <ele>2357.1999511719</ele>
        <time>2014-01-31T13:26:28.000Z</time>
      </trkpt>
      <trkpt lat="45.57791" lon="6.57045">
        <ele>2357</ele>
        <time>2014-01-31T13:26:29.000Z</time>
      </trkpt>
      <trkpt lat="45.57791" lon="6.57046">
        <ele>2357</ele>
        <time>2014-01-31T13:26:30.000Z</time>
      </trkpt>
      <trkpt lat="45.57791" lon="6.57046">
        <ele>2356.8000488281</ele>
        <time>2014-01-31T13:26:31.000Z</time>
      </trkpt>
      <trkpt lat="45.57791" lon="6.57047">
        <ele>2356.8000488281</ele>
        <time>2014-01-31T13:26:32.000Z</time>
      </trkpt>
      <trkpt lat="45.57791" lon="6.57047">
        <ele>2356.8000488281</ele>
        <time>2014-01-31T13:26:33.000Z</time>
      </trkpt>
      <trkpt lat="45.57791" lon="6.57048">
        <ele>2356.6000976562</ele>
        <time>2014-01-31T13:26:34.000Z</time>
      </trkpt>
      <trkpt lat="45.57791" lon="6.57048">
        <ele>2356.6000976562</ele>
        <time>2014-01-31T13:26:35.000Z</time>
      </trkpt>
      <trkpt lat="45.57791" lon="6.57048">
        <ele>2356.6000976562</ele>
        <time>2014-01-31T13:26:36.000Z</time>
      </trkpt>
      <trkpt lat="45.57791" lon="6.57048">
        <ele>2356.6000976562</ele>
        <time>2014-01-31T13:26:37.000Z</time>
      </trkpt>
      <trkpt lat="45.57791" lon="6.57048">
        <ele>2356.6000976562</ele>
        <time>2014-01-31T13:26:38.000Z</time>
      </trkpt>
      <trkpt lat="45.57791" lon="6.57048">
        <ele>2356.3999023438</ele>
        <time>2014-01-31T13:26:39.000Z</time>
      </trkpt>
      <trkpt lat="45.57791" lon="6.57048">
        <ele>2356.6000976562</ele>
        <time>2014-01-31T13:26:40.000Z</time>
      </trkpt>
      <trkpt lat="45.57791" lon="6.57048">
        <ele>2356.6000976562</ele>
        <time>2014-01-31T13:26:41.000Z</time>
      </trkpt>
      <trkpt lat="45.57791" lon="6.57048">
        <ele>2356.6000976562</ele>
        <time>2014-01-31T13:26:43.000Z</time>
      </trkpt>
      <trkpt lat="45.57791" lon="6.57048">
        <ele>2356.6000976562</ele>
        <time>2014-01-31T13:26:44.000Z</time>
      </trkpt>
      <trkpt lat="45.57791" lon="6.57048">
        <ele>2356.6000976562</ele>
        <time>2014-01-31T13:26:45.000Z</time>
      </trkpt>
      <trkpt lat="45.57791" lon="6.57048">
        <ele>2356.6000976562</ele>
        <time>2014-01-31T13:26:46.000Z</time>
      </trkpt>
      <trkpt lat="45.57791" lon="6.57048">
        <ele>2356.3999023438</ele>
        <time>2014-01-31T13:26:47.000Z</time>
      </trkpt>
      <trkpt lat="45.57791" lon="6.57048">
        <ele>2356.3999023438</ele>
        <time>2014-01-31T13:26:48.000Z</time>
      </trkpt>
      <trkpt lat="45.57791" lon="6.57048">
        <ele>2356.1999511719</ele>
        <time>2014-01-31T13:26:49.000Z</time>
      </trkpt>
      <trkpt lat="45.57791" lon="6.57048">
        <ele>2356.1999511719</ele>
        <time>2014-01-31T13:26:50.000Z</time>
      </trkpt>
      <trkpt lat="45.57791" lon="6.57048">
        <ele>2356.3999023438</ele>
        <time>2014-01-31T13:26:51.000Z</time>
      </trkpt>
      <trkpt lat="45.57791" lon="6.57048">
        <ele>2356.1999511719</ele>
        <time>2014-01-31T13:26:52.000Z</time>
      </trkpt>
      <trkpt lat="45.57791" lon="6.57048">
        <ele>2355.8000488281</ele>
        <time>2014-01-31T13:26:53.000Z</time>
      </trkpt>
      <trkpt lat="45.57791" lon="6.57048">
        <ele>2355.8000488281</ele>
        <time>2014-01-31T13:26:54.000Z</time>
      </trkpt>
      <trkpt lat="45.57791" lon="6.57048">
        <ele>2356.1999511719</ele>
        <time>2014-01-31T13:26:55.000Z</time>
      </trkpt>
      <trkpt lat="45.57791" lon="6.57048">
        <ele>2356.3999023438</ele>
        <time>2014-01-31T13:26:56.000Z</time>
      </trkpt>
      <trkpt lat="45.57791" lon="6.57048">
        <ele>2356.3999023438</ele>
        <time>2014-01-31T13:26:57.000Z</time>
      </trkpt>
      <trkpt lat="45.57791" lon="6.57048">
        <ele>2356.1999511719</ele>
        <time>2014-01-31T13:26:58.000Z</time>
      </trkpt>
      <trkpt lat="45.57791" lon="6.57048">
        <ele>2356.1999511719</ele>
        <time>2014-01-31T13:26:59.000Z</time>
      </trkpt>
      <trkpt lat="45.57791" lon="6.57048">
        <ele>2356</ele>
        <time>2014-01-31T13:27:00.000Z</time>
      </trkpt>
      <trkpt lat="45.57791" lon="6.57048">
        <ele>2356.1999511719</ele>
        <time>2014-01-31T13:27:01.000Z</time>
      </trkpt>
      <trkpt lat="45.57791" lon="6.57048">
        <ele>2356.1999511719</ele>
        <time>2014-01-31T13:27:02.000Z</time>
      </trkpt>
      <trkpt lat="45.57791" lon="6.57048">
        <ele>2356.1999511719</ele>
        <time>2014-01-31T13:27:03.000Z</time>
      </trkpt>
      <trkpt lat="45.57791" lon="6.57048">
        <ele>2356.3999023438</ele>
        <time>2014-01-31T13:27:04.000Z</time>
      </trkpt>
      <trkpt lat="45.57791" lon="6.57048">
        <ele>2356.6000976562</ele>
        <time>2014-01-31T13:27:05.000Z</time>
      </trkpt>
      <trkpt lat="45.57791" lon="6.57048">
        <ele>2356.6000976562</ele>
        <time>2014-01-31T13:27:06.000Z</time>
      </trkpt>
      <trkpt lat="45.57791" lon="6.57048">
        <ele>2356.6000976562</ele>
        <time>2014-01-31T13:27:07.000Z</time>
      </trkpt>
      <trkpt lat="45.57791" lon="6.57048">
        <ele>2356.6000976562</ele>
        <time>2014-01-31T13:27:09.000Z</time>
      </trkpt>
      <trkpt lat="45.57791" lon="6.57048">
        <ele>2356.6000976562</ele>
        <time>2014-01-31T13:27:10.000Z</time>
      </trkpt>
      <trkpt lat="45.57791" lon="6.57048">
        <ele>2356.3999023438</ele>
        <time>2014-01-31T13:27:11.000Z</time>
      </trkpt>
      <trkpt lat="45.57791" lon="6.57048">
        <ele>2356.3999023438</ele>
        <time>2014-01-31T13:27:12.000Z</time>
      </trkpt>
      <trkpt lat="45.57791" lon="6.57048">
        <ele>2356.1999511719</ele>
        <time>2014-01-31T13:27:13.000Z</time>
      </trkpt>
      <trkpt lat="45.57791" lon="6.57048">
        <ele>2356</ele>
        <time>2014-01-31T13:27:14.000Z</time>
      </trkpt>
      <trkpt lat="45.57791" lon="6.57048">
        <ele>2356.1999511719</ele>
        <time>2014-01-31T13:27:15.000Z</time>
      </trkpt>
      <trkpt lat="45.57791" lon="6.57048">
        <ele>2356.6000976562</ele>
        <time>2014-01-31T13:27:16.000Z</time>
      </trkpt>
      <trkpt lat="45.57791" lon="6.57048">
        <ele>2357</ele>
        <time>2014-01-31T13:27:17.000Z</time>
      </trkpt>
      <trkpt lat="45.57791" lon="6.57048">
        <ele>2356.8000488281</ele>
        <time>2014-01-31T13:27:18.000Z</time>
      </trkpt>
      <trkpt lat="45.57791" lon="6.57049">
        <ele>2356.6000976562</ele>
        <time>2014-01-31T13:27:19.000Z</time>
      </trkpt>
      <trkpt lat="45.57791" lon="6.57049">
        <ele>2356.6000976562</ele>
        <time>2014-01-31T13:27:20.000Z</time>
      </trkpt>
      <trkpt lat="45.57791" lon="6.57049">
        <ele>2356.6000976562</ele>
        <time>2014-01-31T13:27:22.000Z</time>
      </trkpt>
      <trkpt lat="45.57791" lon="6.57049">
        <ele>2356.6000976562</ele>
        <time>2014-01-31T13:27:24.000Z</time>
      </trkpt>
      <trkpt lat="45.57791" lon="6.57049">
        <ele>2356.6000976562</ele>
        <time>2014-01-31T13:27:26.000Z</time>
      </trkpt>
      <trkpt lat="45.57791" lon="6.57049">
        <ele>2357.1999511719</ele>
        <time>2014-01-31T13:27:27.000Z</time>
      </trkpt>
      <trkpt lat="45.57791" lon="6.57049">
        <ele>2357.3999023438</ele>
        <time>2014-01-31T13:27:28.000Z</time>
      </trkpt>
      <trkpt lat="45.57792" lon="6.5705">
        <ele>2357.6000976562</ele>
        <time>2014-01-31T13:27:29.000Z</time>
      </trkpt>
      <trkpt lat="45.57792" lon="6.5705">
        <ele>2357.8000488281</ele>
        <time>2014-01-31T13:27:31.000Z</time>
      </trkpt>
      <trkpt lat="45.57793" lon="6.57051">
        <ele>2357.8000488281</ele>
        <time>2014-01-31T13:27:32.000Z</time>
      </trkpt>
      <trkpt lat="45.57793" lon="6.57051">
        <ele>2358</ele>
        <time>2014-01-31T13:27:33.000Z</time>
      </trkpt>
      <trkpt lat="45.57794" lon="6.57051">
        <ele>2358</ele>
        <time>2014-01-31T13:27:35.000Z</time>
      </trkpt>
      <trkpt lat="45.57794" lon="6.57051">
        <ele>2358.1999511719</ele>
        <time>2014-01-31T13:27:36.000Z</time>
      </trkpt>
      <trkpt lat="45.57794" lon="6.57051">
        <ele>2358.8000488281</ele>
        <time>2014-01-31T13:27:37.000Z</time>
      </trkpt>
      <trkpt lat="45.57794" lon="6.57051">
        <ele>2359.1999511719</ele>
        <time>2014-01-31T13:27:38.000Z</time>
      </trkpt>
      <trkpt lat="45.57794" lon="6.57051">
        <ele>2359.6000976562</ele>
        <time>2014-01-31T13:27:39.000Z</time>
      </trkpt>
      <trkpt lat="45.57794" lon="6.57051">
        <ele>2360</ele>
        <time>2014-01-31T13:27:40.000Z</time>
      </trkpt>
      <trkpt lat="45.57794" lon="6.57051">
        <ele>2360</ele>
        <time>2014-01-31T13:27:41.000Z</time>
      </trkpt>
      <trkpt lat="45.57794" lon="6.57051">
        <ele>2360.1999511719</ele>
        <time>2014-01-31T13:27:42.000Z</time>
      </trkpt>
      <trkpt lat="45.57794" lon="6.57051">
        <ele>2360.1999511719</ele>
        <time>2014-01-31T13:27:43.000Z</time>
      </trkpt>
      <trkpt lat="45.57794" lon="6.57051">
        <ele>2360</ele>
        <time>2014-01-31T13:27:44.000Z</time>
      </trkpt>
      <trkpt lat="45.57794" lon="6.57051">
        <ele>2359.8000488281</ele>
        <time>2014-01-31T13:27:45.000Z</time>
      </trkpt>
      <trkpt lat="45.57794" lon="6.57051">
        <ele>2359.8000488281</ele>
        <time>2014-01-31T13:27:46.000Z</time>
      </trkpt>
      <trkpt lat="45.57794" lon="6.57051">
        <ele>2359.8000488281</ele>
        <time>2014-01-31T13:27:47.000Z</time>
      </trkpt>
      <trkpt lat="45.57794" lon="6.57051">
        <ele>2360</ele>
        <time>2014-01-31T13:27:48.000Z</time>
      </trkpt>
      <trkpt lat="45.57794" lon="6.57051">
        <ele>2360.3999023438</ele>
        <time>2014-01-31T13:27:49.000Z</time>
      </trkpt>
      <trkpt lat="45.57794" lon="6.57051">
        <ele>2360.3999023438</ele>
        <time>2014-01-31T13:27:50.000Z</time>
      </trkpt>
      <trkpt lat="45.57794" lon="6.57051">
        <ele>2360.6000976562</ele>
        <time>2014-01-31T13:27:51.000Z</time>
      </trkpt>
      <trkpt lat="45.57794" lon="6.57051">
        <ele>2360.1999511719</ele>
        <time>2014-01-31T13:27:52.000Z</time>
      </trkpt>
      <trkpt lat="45.57794" lon="6.57051">
        <ele>2360.1999511719</ele>
        <time>2014-01-31T13:27:53.000Z</time>
      </trkpt>
      <trkpt lat="45.57794" lon="6.57051">
        <ele>2360.1999511719</ele>
        <time>2014-01-31T13:27:54.000Z</time>
      </trkpt>
      <trkpt lat="45.57794" lon="6.57051">
        <ele>2360</ele>
        <time>2014-01-31T13:27:55.000Z</time>
      </trkpt>
      <trkpt lat="45.57794" lon="6.57051">
        <ele>2360</ele>
        <time>2014-01-31T13:27:56.000Z</time>
      </trkpt>
      <trkpt lat="45.57794" lon="6.57051">
        <ele>2359.8000488281</ele>
        <time>2014-01-31T13:27:57.000Z</time>
      </trkpt>
      <trkpt lat="45.57794" lon="6.57051">
        <ele>2359.6000976562</ele>
        <time>2014-01-31T13:27:58.000Z</time>
      </trkpt>
      <trkpt lat="45.57794" lon="6.57051">
        <ele>2359.6000976562</ele>
        <time>2014-01-31T13:27:59.000Z</time>
      </trkpt>
      <trkpt lat="45.57794" lon="6.57051">
        <ele>2359.6000976562</ele>
        <time>2014-01-31T13:28:00.000Z</time>
      </trkpt>
      <trkpt lat="45.57794" lon="6.57051">
        <ele>2359.8000488281</ele>
        <time>2014-01-31T13:28:01.000Z</time>
      </trkpt>
      <trkpt lat="45.57794" lon="6.57051">
        <ele>2360.1999511719</ele>
        <time>2014-01-31T13:28:02.000Z</time>
      </trkpt>
      <trkpt lat="45.57794" lon="6.57051">
        <ele>2360.8000488281</ele>
        <time>2014-01-31T13:28:03.000Z</time>
      </trkpt>
      <trkpt lat="45.57795" lon="6.57052">
        <ele>2361</ele>
        <time>2014-01-31T13:28:04.000Z</time>
      </trkpt>
      <trkpt lat="45.57795" lon="6.57052">
        <ele>2361.1999511719</ele>
        <time>2014-01-31T13:28:05.000Z</time>
      </trkpt>
      <trkpt lat="45.57795" lon="6.57052">
        <ele>2361.1999511719</ele>
        <time>2014-01-31T13:28:06.000Z</time>
      </trkpt>
      <trkpt lat="45.57795" lon="6.57052">
        <ele>2361.3999023438</ele>
        <time>2014-01-31T13:28:07.000Z</time>
      </trkpt>
      <trkpt lat="45.57795" lon="6.57052">
        <ele>2361.6000976562</ele>
        <time>2014-01-31T13:28:08.000Z</time>
      </trkpt>
      <trkpt lat="45.57795" lon="6.57052">
        <ele>2361.6000976562</ele>
        <time>2014-01-31T13:28:09.000Z</time>
      </trkpt>
      <trkpt lat="45.57795" lon="6.57053">
        <ele>2361.6000976562</ele>
        <time>2014-01-31T13:28:10.000Z</time>
      </trkpt>
      <trkpt lat="45.57795" lon="6.57054">
        <ele>2361.3999023438</ele>
        <time>2014-01-31T13:28:11.000Z</time>
      </trkpt>
      <trkpt lat="45.57795" lon="6.57054">
        <ele>2361.6000976562</ele>
        <time>2014-01-31T13:28:12.000Z</time>
      </trkpt>
      <trkpt lat="45.57795" lon="6.57054">
        <ele>2362</ele>
        <time>2014-01-31T13:28:13.000Z</time>
      </trkpt>
      <trkpt lat="45.57795" lon="6.57055">
        <ele>2362.1999511719</ele>
        <time>2014-01-31T13:28:14.000Z</time>
      </trkpt>
      <trkpt lat="45.57795" lon="6.57055">
        <ele>2362.1999511719</ele>
        <time>2014-01-31T13:28:15.000Z</time>
      </trkpt>
      <trkpt lat="45.57795" lon="6.57055">
        <ele>2362.1999511719</ele>
        <time>2014-01-31T13:28:16.000Z</time>
      </trkpt>
      <trkpt lat="45.57795" lon="6.57055">
        <ele>2362.3999023438</ele>
        <time>2014-01-31T13:28:17.000Z</time>
      </trkpt>
      <trkpt lat="45.57795" lon="6.57055">
        <ele>2362.8000488281</ele>
        <time>2014-01-31T13:28:18.000Z</time>
      </trkpt>
      <trkpt lat="45.57796" lon="6.57055">
        <ele>2362.6000976562</ele>
        <time>2014-01-31T13:28:19.000Z</time>
      </trkpt>
      <trkpt lat="45.57796" lon="6.57055">
        <ele>2362.3999023438</ele>
        <time>2014-01-31T13:28:20.000Z</time>
      </trkpt>
      <trkpt lat="45.57796" lon="6.57055">
        <ele>2362.3999023438</ele>
        <time>2014-01-31T13:28:21.000Z</time>
      </trkpt>
      <trkpt lat="45.57796" lon="6.57055">
        <ele>2362.8000488281</ele>
        <time>2014-01-31T13:28:22.000Z</time>
      </trkpt>
      <trkpt lat="45.57796" lon="6.57055">
        <ele>2363</ele>
        <time>2014-01-31T13:28:23.000Z</time>
      </trkpt>
      <trkpt lat="45.57796" lon="6.57055">
        <ele>2363</ele>
        <time>2014-01-31T13:28:24.000Z</time>
      </trkpt>
      <trkpt lat="45.57796" lon="6.57056">
        <ele>2362.8000488281</ele>
        <time>2014-01-31T13:28:25.000Z</time>
      </trkpt>
      <trkpt lat="45.57796" lon="6.57056">
        <ele>2362.8000488281</ele>
        <time>2014-01-31T13:28:26.000Z</time>
      </trkpt>
      <trkpt lat="45.57796" lon="6.57056">
        <ele>2363</ele>
        <time>2014-01-31T13:28:27.000Z</time>
      </trkpt>
      <trkpt lat="45.57796" lon="6.57056">
        <ele>2363.3999023438</ele>
        <time>2014-01-31T13:28:28.000Z</time>
      </trkpt>
      <trkpt lat="45.57796" lon="6.57056">
        <ele>2363.6000976562</ele>
        <time>2014-01-31T13:28:29.000Z</time>
      </trkpt>
      <trkpt lat="45.57796" lon="6.57056">
        <ele>2363.6000976562</ele>
        <time>2014-01-31T13:28:30.000Z</time>
      </trkpt>
      <trkpt lat="45.57796" lon="6.57056">
        <ele>2363.3999023438</ele>
        <time>2014-01-31T13:28:31.000Z</time>
      </trkpt>
      <trkpt lat="45.57796" lon="6.57056">
        <ele>2363.3999023438</ele>
        <time>2014-01-31T13:28:32.000Z</time>
      </trkpt>
      <trkpt lat="45.57796" lon="6.57056">
        <ele>2363.3999023438</ele>
        <time>2014-01-31T13:28:33.000Z</time>
      </trkpt>
      <trkpt lat="45.57796" lon="6.57056">
        <ele>2363.1999511719</ele>
        <time>2014-01-31T13:28:34.000Z</time>
      </trkpt>
      <trkpt lat="45.57796" lon="6.57056">
        <ele>2363</ele>
        <time>2014-01-31T13:28:35.000Z</time>
      </trkpt>
      <trkpt lat="45.57796" lon="6.57056">
        <ele>2362.8000488281</ele>
        <time>2014-01-31T13:28:36.000Z</time>
      </trkpt>
      <trkpt lat="45.57796" lon="6.57056">
        <ele>2362.8000488281</ele>
        <time>2014-01-31T13:28:37.000Z</time>
      </trkpt>
      <trkpt lat="45.57796" lon="6.57056">
        <ele>2362.8000488281</ele>
        <time>2014-01-31T13:28:38.000Z</time>
      </trkpt>
      <trkpt lat="45.57796" lon="6.57056">
        <ele>2362.8000488281</ele>
        <time>2014-01-31T13:28:39.000Z</time>
      </trkpt>
      <trkpt lat="45.57796" lon="6.57056">
        <ele>2363</ele>
        <time>2014-01-31T13:28:40.000Z</time>
      </trkpt>
      <trkpt lat="45.57796" lon="6.57056">
        <ele>2363.1999511719</ele>
        <time>2014-01-31T13:28:41.000Z</time>
      </trkpt>
      <trkpt lat="45.57796" lon="6.57056">
        <ele>2363.3999023438</ele>
        <time>2014-01-31T13:28:42.000Z</time>
      </trkpt>
      <trkpt lat="45.57796" lon="6.57056">
        <ele>2363.3999023438</ele>
        <time>2014-01-31T13:28:43.000Z</time>
      </trkpt>
      <trkpt lat="45.57796" lon="6.57056">
        <ele>2363.3999023438</ele>
        <time>2014-01-31T13:28:44.000Z</time>
      </trkpt>
      <trkpt lat="45.57796" lon="6.57056">
        <ele>2363</ele>
        <time>2014-01-31T13:28:45.000Z</time>
      </trkpt>
      <trkpt lat="45.57796" lon="6.57056">
        <ele>2362.6000976562</ele>
        <time>2014-01-31T13:28:46.000Z</time>
      </trkpt>
      <trkpt lat="45.57797" lon="6.57056">
        <ele>2362.1999511719</ele>
        <time>2014-01-31T13:28:47.000Z</time>
      </trkpt>
      <trkpt lat="45.57797" lon="6.57056">
        <ele>2362</ele>
        <time>2014-01-31T13:28:48.000Z</time>
      </trkpt>
      <trkpt lat="45.57797" lon="6.57056">
        <ele>2361.8000488281</ele>
        <time>2014-01-31T13:28:49.000Z</time>
      </trkpt>
      <trkpt lat="45.57797" lon="6.57056">
        <ele>2362.1999511719</ele>
        <time>2014-01-31T13:28:50.000Z</time>
      </trkpt>
      <trkpt lat="45.57797" lon="6.57056">
        <ele>2362.6000976562</ele>
        <time>2014-01-31T13:28:51.000Z</time>
      </trkpt>
      <trkpt lat="45.57797" lon="6.57056">
        <ele>2363</ele>
        <time>2014-01-31T13:28:52.000Z</time>
      </trkpt>
      <trkpt lat="45.57797" lon="6.57056">
        <ele>2363.1999511719</ele>
        <time>2014-01-31T13:28:53.000Z</time>
      </trkpt>
      <trkpt lat="45.57797" lon="6.57056">
        <ele>2363.3999023438</ele>
        <time>2014-01-31T13:28:54.000Z</time>
      </trkpt>
      <trkpt lat="45.57797" lon="6.57056">
        <ele>2363.1999511719</ele>
        <time>2014-01-31T13:28:55.000Z</time>
      </trkpt>
      <trkpt lat="45.57797" lon="6.57056">
        <ele>2363.1999511719</ele>
        <time>2014-01-31T13:28:56.000Z</time>
      </trkpt>
      <trkpt lat="45.57797" lon="6.57056">
        <ele>2363</ele>
        <time>2014-01-31T13:28:57.000Z</time>
      </trkpt>
      <trkpt lat="45.57797" lon="6.57056">
        <ele>2363</ele>
        <time>2014-01-31T13:28:58.000Z</time>
      </trkpt>
      <trkpt lat="45.57797" lon="6.57056">
        <ele>2363</ele>
        <time>2014-01-31T13:28:59.000Z</time>
      </trkpt>
      <trkpt lat="45.57797" lon="6.57056">
        <ele>2363</ele>
        <time>2014-01-31T13:29:00.000Z</time>
      </trkpt>
      <trkpt lat="45.57797" lon="6.57056">
        <ele>2363</ele>
        <time>2014-01-31T13:29:01.000Z</time>
      </trkpt>
      <trkpt lat="45.57797" lon="6.57056">
        <ele>2363</ele>
        <time>2014-01-31T13:29:02.000Z</time>
      </trkpt>
      <trkpt lat="45.57797" lon="6.57056">
        <ele>2363.1999511719</ele>
        <time>2014-01-31T13:29:03.000Z</time>
      </trkpt>
      <trkpt lat="45.57797" lon="6.57056">
        <ele>2363.1999511719</ele>
        <time>2014-01-31T13:29:05.000Z</time>
      </trkpt>
      <trkpt lat="45.57797" lon="6.57056">
        <ele>2363</ele>
        <time>2014-01-31T13:29:06.000Z</time>
      </trkpt>
      <trkpt lat="45.57797" lon="6.57056">
        <ele>2363</ele>
        <time>2014-01-31T13:29:07.000Z</time>
      </trkpt>
      <trkpt lat="45.57798" lon="6.57058">
        <ele>2362.8000488281</ele>
        <time>2014-01-31T13:29:08.000Z</time>
      </trkpt>
      <trkpt lat="45.57798" lon="6.57058">
        <ele>2362.8000488281</ele>
        <time>2014-01-31T13:29:09.000Z</time>
      </trkpt>
      <trkpt lat="45.57798" lon="6.57058">
        <ele>2362.8000488281</ele>
        <time>2014-01-31T13:29:10.000Z</time>
      </trkpt>
      <trkpt lat="45.57798" lon="6.57058">
        <ele>2362.8000488281</ele>
        <time>2014-01-31T13:29:11.000Z</time>
      </trkpt>
      <trkpt lat="45.57798" lon="6.57058">
        <ele>2363.1999511719</ele>
        <time>2014-01-31T13:29:12.000Z</time>
      </trkpt>
      <trkpt lat="45.57798" lon="6.57058">
        <ele>2363.6000976562</ele>
        <time>2014-01-31T13:29:13.000Z</time>
      </trkpt>
      <trkpt lat="45.57798" lon="6.57058">
        <ele>2363.8000488281</ele>
        <time>2014-01-31T13:29:14.000Z</time>
      </trkpt>
      <trkpt lat="45.57798" lon="6.57058">
        <ele>2363.8000488281</ele>
        <time>2014-01-31T13:29:15.000Z</time>
      </trkpt>
      <trkpt lat="45.57799" lon="6.5706">
        <ele>2364</ele>
        <time>2014-01-31T13:29:16.000Z</time>
      </trkpt>
      <trkpt lat="45.57799" lon="6.57062">
        <ele>2364</ele>
        <time>2014-01-31T13:29:17.000Z</time>
      </trkpt>
      <trkpt lat="45.57799" lon="6.57063">
        <ele>2363.8000488281</ele>
        <time>2014-01-31T13:29:20.000Z</time>
      </trkpt>
      <trkpt lat="45.57799" lon="6.57063">
        <ele>2363.8000488281</ele>
        <time>2014-01-31T13:29:21.000Z</time>
      </trkpt>
      <trkpt lat="45.578" lon="6.57064">
        <ele>2363.8000488281</ele>
        <time>2014-01-31T13:29:22.000Z</time>
      </trkpt>
      <trkpt lat="45.578" lon="6.57065">
        <ele>2363.8000488281</ele>
        <time>2014-01-31T13:29:23.000Z</time>
      </trkpt>
      <trkpt lat="45.578" lon="6.57065">
        <ele>2363.8000488281</ele>
        <time>2014-01-31T13:29:24.000Z</time>
      </trkpt>
      <trkpt lat="45.578" lon="6.57066">
        <ele>2363.8000488281</ele>
        <time>2014-01-31T13:29:25.000Z</time>
      </trkpt>
      <trkpt lat="45.578" lon="6.57066">
        <ele>2363.8000488281</ele>
        <time>2014-01-31T13:29:26.000Z</time>
      </trkpt>
      <trkpt lat="45.578" lon="6.57067">
        <ele>2363.8000488281</ele>
        <time>2014-01-31T13:29:27.000Z</time>
      </trkpt>
      <trkpt lat="45.57801" lon="6.57068">
        <ele>2364</ele>
        <time>2014-01-31T13:29:28.000Z</time>
      </trkpt>
      <trkpt lat="45.57801" lon="6.57068">
        <ele>2364</ele>
        <time>2014-01-31T13:29:29.000Z</time>
      </trkpt>
      <trkpt lat="45.57801" lon="6.57069">
        <ele>2364.1999511719</ele>
        <time>2014-01-31T13:29:30.000Z</time>
      </trkpt>
      <trkpt lat="45.57801" lon="6.57069">
        <ele>2364.3999023438</ele>
        <time>2014-01-31T13:29:31.000Z</time>
      </trkpt>
      <trkpt lat="45.57801" lon="6.57069">
        <ele>2364.3999023438</ele>
        <time>2014-01-31T13:29:32.000Z</time>
      </trkpt>
      <trkpt lat="45.57801" lon="6.5707">
        <ele>2364.6000976562</ele>
        <time>2014-01-31T13:29:33.000Z</time>
      </trkpt>
      <trkpt lat="45.57801" lon="6.5707">
        <ele>2364.6000976562</ele>
        <time>2014-01-31T13:29:34.000Z</time>
      </trkpt>
      <trkpt lat="45.57801" lon="6.57071">
        <ele>2364.6000976562</ele>
        <time>2014-01-31T13:29:35.000Z</time>
      </trkpt>
      <trkpt lat="45.57802" lon="6.57072">
        <ele>2364.8000488281</ele>
        <time>2014-01-31T13:29:36.000Z</time>
      </trkpt>
      <trkpt lat="45.57802" lon="6.57073">
        <ele>2365</ele>
        <time>2014-01-31T13:29:37.000Z</time>
      </trkpt>
      <trkpt lat="45.57802" lon="6.57074">
        <ele>2365.3999023438</ele>
        <time>2014-01-31T13:29:38.000Z</time>
      </trkpt>
      <trkpt lat="45.57803" lon="6.57075">
        <ele>2365.6000976562</ele>
        <time>2014-01-31T13:29:39.000Z</time>
      </trkpt>
      <trkpt lat="45.57803" lon="6.57076">
        <ele>2365.8000488281</ele>
        <time>2014-01-31T13:29:40.000Z</time>
      </trkpt>
      <trkpt lat="45.57803" lon="6.57076">
        <ele>2366</ele>
        <time>2014-01-31T13:29:41.000Z</time>
      </trkpt>
      <trkpt lat="45.57804" lon="6.57076">
        <ele>2366</ele>
        <time>2014-01-31T13:29:42.000Z</time>
      </trkpt>
      <trkpt lat="45.57804" lon="6.57076">
        <ele>2366</ele>
        <time>2014-01-31T13:29:43.000Z</time>
      </trkpt>
      <trkpt lat="45.57804" lon="6.57076">
        <ele>2366</ele>
        <time>2014-01-31T13:29:44.000Z</time>
      </trkpt>
      <trkpt lat="45.57804" lon="6.57076">
        <ele>2366</ele>
        <time>2014-01-31T13:29:47.000Z</time>
      </trkpt>
      <trkpt lat="45.57804" lon="6.57076">
        <ele>2366</ele>
        <time>2014-01-31T13:29:48.000Z</time>
      </trkpt>
      <trkpt lat="45.57804" lon="6.57076">
        <ele>2366</ele>
        <time>2014-01-31T13:29:49.000Z</time>
      </trkpt>
      <trkpt lat="45.57804" lon="6.57076">
        <ele>2366.1999511719</ele>
        <time>2014-01-31T13:29:50.000Z</time>
      </trkpt>
      <trkpt lat="45.57804" lon="6.57076">
        <ele>2366.1999511719</ele>
        <time>2014-01-31T13:29:51.000Z</time>
      </trkpt>
      <trkpt lat="45.57804" lon="6.57076">
        <ele>2366.1999511719</ele>
        <time>2014-01-31T13:29:53.000Z</time>
      </trkpt>
      <trkpt lat="45.57804" lon="6.57076">
        <ele>2366.1999511719</ele>
        <time>2014-01-31T13:29:54.000Z</time>
      </trkpt>
      <trkpt lat="45.57804" lon="6.57076">
        <ele>2366.1999511719</ele>
        <time>2014-01-31T13:29:55.000Z</time>
      </trkpt>
      <trkpt lat="45.57804" lon="6.57076">
        <ele>2366.1999511719</ele>
        <time>2014-01-31T13:29:56.000Z</time>
      </trkpt>
      <trkpt lat="45.57804" lon="6.57076">
        <ele>2366.1999511719</ele>
        <time>2014-01-31T13:29:57.000Z</time>
      </trkpt>
      <trkpt lat="45.57804" lon="6.57076">
        <ele>2366.1999511719</ele>
        <time>2014-01-31T13:29:59.000Z</time>
      </trkpt>
      <trkpt lat="45.57804" lon="6.57076">
        <ele>2366.3999023438</ele>
        <time>2014-01-31T13:30:00.000Z</time>
      </trkpt>
      <trkpt lat="45.57804" lon="6.57076">
        <ele>2366.3999023438</ele>
        <time>2014-01-31T13:30:01.000Z</time>
      </trkpt>
      <trkpt lat="45.57804" lon="6.57076">
        <ele>2366.3999023438</ele>
        <time>2014-01-31T13:30:02.000Z</time>
      </trkpt>
      <trkpt lat="45.57804" lon="6.57076">
        <ele>2366.3999023438</ele>
        <time>2014-01-31T13:30:03.000Z</time>
      </trkpt>
      <trkpt lat="45.57804" lon="6.57076">
        <ele>2366.3999023438</ele>
        <time>2014-01-31T13:30:05.000Z</time>
      </trkpt>
      <trkpt lat="45.57804" lon="6.57076">
        <ele>2366.3999023438</ele>
        <time>2014-01-31T13:30:06.000Z</time>
      </trkpt>
      <trkpt lat="45.57804" lon="6.57076">
        <ele>2366.3999023438</ele>
        <time>2014-01-31T13:30:08.000Z</time>
      </trkpt>
      <trkpt lat="45.57804" lon="6.57076">
        <ele>2366.6000976562</ele>
        <time>2014-01-31T13:30:09.000Z</time>
      </trkpt>
      <trkpt lat="45.57804" lon="6.57076">
        <ele>2366.6000976562</ele>
        <time>2014-01-31T13:30:10.000Z</time>
      </trkpt>
      <trkpt lat="45.57804" lon="6.57076">
        <ele>2366.6000976562</ele>
        <time>2014-01-31T13:30:11.000Z</time>
      </trkpt>
      <trkpt lat="45.57804" lon="6.57076">
        <ele>2366.6000976562</ele>
        <time>2014-01-31T13:30:12.000Z</time>
      </trkpt>
      <trkpt lat="45.57804" lon="6.57076">
        <ele>2366.6000976562</ele>
        <time>2014-01-31T13:30:14.000Z</time>
      </trkpt>
      <trkpt lat="45.57804" lon="6.57076">
        <ele>2366.6000976562</ele>
        <time>2014-01-31T13:30:15.000Z</time>
      </trkpt>
      <trkpt lat="45.57804" lon="6.57076">
        <ele>2366.6000976562</ele>
        <time>2014-01-31T13:30:16.000Z</time>
      </trkpt>
      <trkpt lat="45.57804" lon="6.57076">
        <ele>2366.6000976562</ele>
        <time>2014-01-31T13:30:21.000Z</time>
      </trkpt>
      <trkpt lat="45.57804" lon="6.57076">
        <ele>2366.6000976562</ele>
        <time>2014-01-31T13:30:22.000Z</time>
      </trkpt>
      <trkpt lat="45.57804" lon="6.57076">
        <ele>2366.6000976562</ele>
        <time>2014-01-31T13:30:23.000Z</time>
      </trkpt>
      <trkpt lat="45.57804" lon="6.57076">
        <ele>2366.6000976562</ele>
        <time>2014-01-31T13:30:26.000Z</time>
      </trkpt>
      <trkpt lat="45.57804" lon="6.57076">
        <ele>2366.6000976562</ele>
        <time>2014-01-31T13:30:27.000Z</time>
      </trkpt>
      <trkpt lat="45.57804" lon="6.57076">
        <ele>2366.6000976562</ele>
        <time>2014-01-31T13:30:28.000Z</time>
      </trkpt>
      <trkpt lat="45.57804" lon="6.57076">
        <ele>2366.6000976562</ele>
        <time>2014-01-31T13:30:29.000Z</time>
      </trkpt>
      <trkpt lat="45.57804" lon="6.57076">
        <ele>2366.3999023438</ele>
        <time>2014-01-31T13:30:30.000Z</time>
      </trkpt>
      <trkpt lat="45.57804" lon="6.57076">
        <ele>2366.3999023438</ele>
        <time>2014-01-31T13:30:31.000Z</time>
      </trkpt>
      <trkpt lat="45.57804" lon="6.57076">
        <ele>2366.1999511719</ele>
        <time>2014-01-31T13:30:32.000Z</time>
      </trkpt>
      <trkpt lat="45.57804" lon="6.57076">
        <ele>2366.1999511719</ele>
        <time>2014-01-31T13:30:33.000Z</time>
      </trkpt>
      <trkpt lat="45.57804" lon="6.57076">
        <ele>2366</ele>
        <time>2014-01-31T13:30:34.000Z</time>
      </trkpt>
      <trkpt lat="45.57804" lon="6.57076">
        <ele>2366.1999511719</ele>
        <time>2014-01-31T13:30:35.000Z</time>
      </trkpt>
      <trkpt lat="45.57804" lon="6.57076">
        <ele>2366.3999023438</ele>
        <time>2014-01-31T13:30:36.000Z</time>
      </trkpt>
      <trkpt lat="45.57804" lon="6.57076">
        <ele>2366.6000976562</ele>
        <time>2014-01-31T13:30:37.000Z</time>
      </trkpt>
      <trkpt lat="45.57804" lon="6.57076">
        <ele>2366.8000488281</ele>
        <time>2014-01-31T13:30:38.000Z</time>
      </trkpt>
      <trkpt lat="45.57804" lon="6.57076">
        <ele>2366.8000488281</ele>
        <time>2014-01-31T13:30:39.000Z</time>
      </trkpt>
      <trkpt lat="45.57804" lon="6.57076">
        <ele>2367</ele>
        <time>2014-01-31T13:30:40.000Z</time>
      </trkpt>
      <trkpt lat="45.57804" lon="6.57076">
        <ele>2367</ele>
        <time>2014-01-31T13:30:41.000Z</time>
      </trkpt>
      <trkpt lat="45.57804" lon="6.57076">
        <ele>2366.8000488281</ele>
        <time>2014-01-31T13:30:42.000Z</time>
      </trkpt>
      <trkpt lat="45.57804" lon="6.57076">
        <ele>2366.8000488281</ele>
        <time>2014-01-31T13:30:43.000Z</time>
      </trkpt>
      <trkpt lat="45.57804" lon="6.57076">
        <ele>2366.8000488281</ele>
        <time>2014-01-31T13:30:44.000Z</time>
      </trkpt>
      <trkpt lat="45.57804" lon="6.57076">
        <ele>2366.8000488281</ele>
        <time>2014-01-31T13:30:47.000Z</time>
      </trkpt>
      <trkpt lat="45.57804" lon="6.57076">
        <ele>2366.8000488281</ele>
        <time>2014-01-31T13:30:48.000Z</time>
      </trkpt>
      <trkpt lat="45.57804" lon="6.57076">
        <ele>2366.8000488281</ele>
        <time>2014-01-31T13:30:50.000Z</time>
      </trkpt>
      <trkpt lat="45.57804" lon="6.57076">
        <ele>2366.8000488281</ele>
        <time>2014-01-31T13:30:51.000Z</time>
      </trkpt>
      <trkpt lat="45.57804" lon="6.57076">
        <ele>2366.6000976562</ele>
        <time>2014-01-31T13:30:52.000Z</time>
      </trkpt>
      <trkpt lat="45.57804" lon="6.57076">
        <ele>2366.6000976562</ele>
        <time>2014-01-31T13:30:53.000Z</time>
      </trkpt>
      <trkpt lat="45.57804" lon="6.57076">
        <ele>2366.6000976562</ele>
        <time>2014-01-31T13:30:54.000Z</time>
      </trkpt>
      <trkpt lat="45.57804" lon="6.57076">
        <ele>2366.6000976562</ele>
        <time>2014-01-31T13:30:55.000Z</time>
      </trkpt>
      <trkpt lat="45.57804" lon="6.57076">
        <ele>2366.6000976562</ele>
        <time>2014-01-31T13:30:56.000Z</time>
      </trkpt>
      <trkpt lat="45.57804" lon="6.57076">
        <ele>2366.6000976562</ele>
        <time>2014-01-31T13:30:59.000Z</time>
      </trkpt>
      <trkpt lat="45.57804" lon="6.57076">
        <ele>2366.3999023438</ele>
        <time>2014-01-31T13:31:00.000Z</time>
      </trkpt>
      <trkpt lat="45.57804" lon="6.57076">
        <ele>2366.3999023438</ele>
        <time>2014-01-31T13:31:01.000Z</time>
      </trkpt>
      <trkpt lat="45.57804" lon="6.57076">
        <ele>2366.1999511719</ele>
        <time>2014-01-31T13:31:02.000Z</time>
      </trkpt>
      <trkpt lat="45.57804" lon="6.57076">
        <ele>2366.1999511719</ele>
        <time>2014-01-31T13:31:03.000Z</time>
      </trkpt>
      <trkpt lat="45.57804" lon="6.57076">
        <ele>2366.1999511719</ele>
        <time>2014-01-31T13:31:04.000Z</time>
      </trkpt>
      <trkpt lat="45.57804" lon="6.57076">
        <ele>2366</ele>
        <time>2014-01-31T13:31:05.000Z</time>
      </trkpt>
      <trkpt lat="45.57804" lon="6.57076">
        <ele>2366</ele>
        <time>2014-01-31T13:31:06.000Z</time>
      </trkpt>
      <trkpt lat="45.57804" lon="6.57076">
        <ele>2366</ele>
        <time>2014-01-31T13:31:07.000Z</time>
      </trkpt>
      <trkpt lat="45.57804" lon="6.57076">
        <ele>2366</ele>
        <time>2014-01-31T13:31:08.000Z</time>
      </trkpt>
      <trkpt lat="45.57804" lon="6.57076">
        <ele>2366</ele>
        <time>2014-01-31T13:31:14.000Z</time>
      </trkpt>
      <trkpt lat="45.57804" lon="6.57076">
        <ele>2366</ele>
        <time>2014-01-31T13:31:15.000Z</time>
      </trkpt>
      <trkpt lat="45.57804" lon="6.57076">
        <ele>2366</ele>
        <time>2014-01-31T13:31:16.000Z</time>
      </trkpt>
      <trkpt lat="45.57804" lon="6.57076">
        <ele>2366</ele>
        <time>2014-01-31T13:31:18.000Z</time>
      </trkpt>
      <trkpt lat="45.57804" lon="6.57076">
        <ele>2366.1999511719</ele>
        <time>2014-01-31T13:31:19.000Z</time>
      </trkpt>
      <trkpt lat="45.57804" lon="6.57076">
        <ele>2366.3999023438</ele>
        <time>2014-01-31T13:31:20.000Z</time>
      </trkpt>
      <trkpt lat="45.57804" lon="6.57076">
        <ele>2366.3999023438</ele>
        <time>2014-01-31T13:31:21.000Z</time>
      </trkpt>
      <trkpt lat="45.57804" lon="6.57076">
        <ele>2366.6000976562</ele>
        <time>2014-01-31T13:31:22.000Z</time>
      </trkpt>
      <trkpt lat="45.57804" lon="6.57076">
        <ele>2366.8000488281</ele>
        <time>2014-01-31T13:31:23.000Z</time>
      </trkpt>
      <trkpt lat="45.57804" lon="6.57076">
        <ele>2367</ele>
        <time>2014-01-31T13:31:24.000Z</time>
      </trkpt>
      <trkpt lat="45.57804" lon="6.57076">
        <ele>2367</ele>
        <time>2014-01-31T13:31:25.000Z</time>
      </trkpt>
      <trkpt lat="45.57804" lon="6.57076">
        <ele>2367.1999511719</ele>
        <time>2014-01-31T13:31:26.000Z</time>
      </trkpt>
      <trkpt lat="45.57804" lon="6.57076">
        <ele>2367.1999511719</ele>
        <time>2014-01-31T13:31:27.000Z</time>
      </trkpt>
      <trkpt lat="45.57804" lon="6.57076">
        <ele>2367.1999511719</ele>
        <time>2014-01-31T13:31:28.000Z</time>
      </trkpt>
      <trkpt lat="45.57804" lon="6.57076">
        <ele>2367</ele>
        <time>2014-01-31T13:31:29.000Z</time>
      </trkpt>
      <trkpt lat="45.57804" lon="6.57076">
        <ele>2367</ele>
        <time>2014-01-31T13:31:30.000Z</time>
      </trkpt>
      <trkpt lat="45.57804" lon="6.57076">
        <ele>2367</ele>
        <time>2014-01-31T13:31:31.000Z</time>
      </trkpt>
      <trkpt lat="45.57804" lon="6.57076">
        <ele>2367</ele>
        <time>2014-01-31T13:31:32.000Z</time>
      </trkpt>
      <trkpt lat="45.57804" lon="6.57076">
        <ele>2367</ele>
        <time>2014-01-31T13:31:33.000Z</time>
      </trkpt>
      <trkpt lat="45.57804" lon="6.57076">
        <ele>2366.8000488281</ele>
        <time>2014-01-31T13:31:34.000Z</time>
      </trkpt>
      <trkpt lat="45.57804" lon="6.57076">
        <ele>2366.8000488281</ele>
        <time>2014-01-31T13:31:35.000Z</time>
      </trkpt>
      <trkpt lat="45.57804" lon="6.57076">
        <ele>2366.8000488281</ele>
        <time>2014-01-31T13:31:38.000Z</time>
      </trkpt>
      <trkpt lat="45.57804" lon="6.57076">
        <ele>2367</ele>
        <time>2014-01-31T13:31:39.000Z</time>
      </trkpt>
      <trkpt lat="45.57804" lon="6.57076">
        <ele>2367</ele>
        <time>2014-01-31T13:31:40.000Z</time>
      </trkpt>
      <trkpt lat="45.57804" lon="6.57076">
        <ele>2367</ele>
        <time>2014-01-31T13:31:41.000Z</time>
      </trkpt>
      <trkpt lat="45.57804" lon="6.57076">
        <ele>2367</ele>
        <time>2014-01-31T13:31:42.000Z</time>
      </trkpt>
      <trkpt lat="45.57804" lon="6.57076">
        <ele>2367</ele>
        <time>2014-01-31T13:31:43.000Z</time>
      </trkpt>
      <trkpt lat="45.57804" lon="6.57076">
        <ele>2367</ele>
        <time>2014-01-31T13:31:44.000Z</time>
      </trkpt>
      <trkpt lat="45.57804" lon="6.57076">
        <ele>2367</ele>
        <time>2014-01-31T13:31:47.000Z</time>
      </trkpt>
      <trkpt lat="45.57804" lon="6.57076">
        <ele>2367</ele>
        <time>2014-01-31T13:31:48.000Z</time>
      </trkpt>
      <trkpt lat="45.57804" lon="6.57076">
        <ele>2367</ele>
        <time>2014-01-31T13:31:49.000Z</time>
      </trkpt>
      <trkpt lat="45.57804" lon="6.57076">
        <ele>2367</ele>
        <time>2014-01-31T13:31:51.000Z</time>
      </trkpt>
      <trkpt lat="45.57804" lon="6.57076">
        <ele>2366.8000488281</ele>
        <time>2014-01-31T13:31:52.000Z</time>
      </trkpt>
      <trkpt lat="45.57804" lon="6.57076">
        <ele>2366.8000488281</ele>
        <time>2014-01-31T13:31:53.000Z</time>
      </trkpt>
      <trkpt lat="45.57804" lon="6.57076">
        <ele>2366.8000488281</ele>
        <time>2014-01-31T13:31:54.000Z</time>
      </trkpt>
      <trkpt lat="45.57804" lon="6.57076">
        <ele>2366.8000488281</ele>
        <time>2014-01-31T13:31:55.000Z</time>
      </trkpt>
      <trkpt lat="45.57804" lon="6.57076">
        <ele>2366.8000488281</ele>
        <time>2014-01-31T13:31:56.000Z</time>
      </trkpt>
      <trkpt lat="45.57804" lon="6.57076">
        <ele>2366.8000488281</ele>
        <time>2014-01-31T13:31:57.000Z</time>
      </trkpt>
      <trkpt lat="45.57804" lon="6.57076">
        <ele>2366.8000488281</ele>
        <time>2014-01-31T13:31:58.000Z</time>
      </trkpt>
      <trkpt lat="45.57804" lon="6.57076">
        <ele>2366.8000488281</ele>
        <time>2014-01-31T13:32:00.000Z</time>
      </trkpt>
      <trkpt lat="45.57804" lon="6.57076">
        <ele>2366.8000488281</ele>
        <time>2014-01-31T13:32:01.000Z</time>
      </trkpt>
      <trkpt lat="45.57804" lon="6.57076">
        <ele>2366.8000488281</ele>
        <time>2014-01-31T13:32:02.000Z</time>
      </trkpt>
      <trkpt lat="45.57804" lon="6.57076">
        <ele>2366.8000488281</ele>
        <time>2014-01-31T13:32:03.000Z</time>
      </trkpt>
      <trkpt lat="45.57804" lon="6.57076">
        <ele>2366.8000488281</ele>
        <time>2014-01-31T13:32:04.000Z</time>
      </trkpt>
      <trkpt lat="45.57804" lon="6.57076">
        <ele>2366.8000488281</ele>
        <time>2014-01-31T13:32:05.000Z</time>
      </trkpt>
      <trkpt lat="45.57804" lon="6.57076">
        <ele>2366.8000488281</ele>
        <time>2014-01-31T13:32:07.000Z</time>
      </trkpt>
      <trkpt lat="45.57804" lon="6.57076">
        <ele>2366.8000488281</ele>
        <time>2014-01-31T13:32:08.000Z</time>
      </trkpt>
      <trkpt lat="45.57804" lon="6.57076">
        <ele>2366.8000488281</ele>
        <time>2014-01-31T13:32:09.000Z</time>
      </trkpt>
      <trkpt lat="45.57804" lon="6.57076">
        <ele>2367</ele>
        <time>2014-01-31T13:32:10.000Z</time>
      </trkpt>
      <trkpt lat="45.57804" lon="6.57076">
        <ele>2367</ele>
        <time>2014-01-31T13:32:11.000Z</time>
      </trkpt>
      <trkpt lat="45.57804" lon="6.57076">
        <ele>2367</ele>
        <time>2014-01-31T13:32:12.000Z</time>
      </trkpt>
      <trkpt lat="45.57804" lon="6.57076">
        <ele>2367</ele>
        <time>2014-01-31T13:32:13.000Z</time>
      </trkpt>
      <trkpt lat="45.57804" lon="6.57076">
        <ele>2367</ele>
        <time>2014-01-31T13:32:14.000Z</time>
      </trkpt>
      <trkpt lat="45.57804" lon="6.57076">
        <ele>2367</ele>
        <time>2014-01-31T13:32:15.000Z</time>
      </trkpt>
      <trkpt lat="45.57804" lon="6.57076">
        <ele>2367</ele>
        <time>2014-01-31T13:32:16.000Z</time>
      </trkpt>
      <trkpt lat="45.57804" lon="6.57076">
        <ele>2366.8000488281</ele>
        <time>2014-01-31T13:32:17.000Z</time>
      </trkpt>
      <trkpt lat="45.57804" lon="6.57076">
        <ele>2366.8000488281</ele>
        <time>2014-01-31T13:32:18.000Z</time>
      </trkpt>
      <trkpt lat="45.57804" lon="6.57076">
        <ele>2366.8000488281</ele>
        <time>2014-01-31T13:32:19.000Z</time>
      </trkpt>
      <trkpt lat="45.57804" lon="6.57076">
        <ele>2366.8000488281</ele>
        <time>2014-01-31T13:32:20.000Z</time>
      </trkpt>
      <trkpt lat="45.57804" lon="6.57076">
        <ele>2366.8000488281</ele>
        <time>2014-01-31T13:32:21.000Z</time>
      </trkpt>
      <trkpt lat="45.57804" lon="6.57076">
        <ele>2367</ele>
        <time>2014-01-31T13:32:22.000Z</time>
      </trkpt>
      <trkpt lat="45.57804" lon="6.57076">
        <ele>2367</ele>
        <time>2014-01-31T13:32:23.000Z</time>
      </trkpt>
      <trkpt lat="45.57804" lon="6.57076">
        <ele>2367.1999511719</ele>
        <time>2014-01-31T13:32:24.000Z</time>
      </trkpt>
      <trkpt lat="45.57804" lon="6.57076">
        <ele>2367.1999511719</ele>
        <time>2014-01-31T13:32:25.000Z</time>
      </trkpt>
      <trkpt lat="45.57804" lon="6.57076">
        <ele>2367.1999511719</ele>
        <time>2014-01-31T13:32:26.000Z</time>
      </trkpt>
      <trkpt lat="45.57804" lon="6.57076">
        <ele>2367.1999511719</ele>
        <time>2014-01-31T13:32:27.000Z</time>
      </trkpt>
      <trkpt lat="45.57804" lon="6.57076">
        <ele>2367.1999511719</ele>
        <time>2014-01-31T13:32:28.000Z</time>
      </trkpt>
      <trkpt lat="45.57804" lon="6.57076">
        <ele>2367.1999511719</ele>
        <time>2014-01-31T13:32:29.000Z</time>
      </trkpt>
      <trkpt lat="45.57804" lon="6.57076">
        <ele>2367</ele>
        <time>2014-01-31T13:32:30.000Z</time>
      </trkpt>
      <trkpt lat="45.57804" lon="6.57076">
        <ele>2366.8000488281</ele>
        <time>2014-01-31T13:32:31.000Z</time>
      </trkpt>
      <trkpt lat="45.57804" lon="6.57076">
        <ele>2366.8000488281</ele>
        <time>2014-01-31T13:32:32.000Z</time>
      </trkpt>
      <trkpt lat="45.57804" lon="6.57076">
        <ele>2366.8000488281</ele>
        <time>2014-01-31T13:32:33.000Z</time>
      </trkpt>
      <trkpt lat="45.57804" lon="6.57076">
        <ele>2366.8000488281</ele>
        <time>2014-01-31T13:32:34.000Z</time>
      </trkpt>
      <trkpt lat="45.57804" lon="6.57076">
        <ele>2366.8000488281</ele>
        <time>2014-01-31T13:32:35.000Z</time>
      </trkpt>
      <trkpt lat="45.57804" lon="6.57076">
        <ele>2366.8000488281</ele>
        <time>2014-01-31T13:32:36.000Z</time>
      </trkpt>
      <trkpt lat="45.57804" lon="6.57076">
        <ele>2366.8000488281</ele>
        <time>2014-01-31T13:32:37.000Z</time>
      </trkpt>
      <trkpt lat="45.57804" lon="6.57076">
        <ele>2366.8000488281</ele>
        <time>2014-01-31T13:32:38.000Z</time>
      </trkpt>
      <trkpt lat="45.57804" lon="6.57076">
        <ele>2367</ele>
        <time>2014-01-31T13:32:39.000Z</time>
      </trkpt>
      <trkpt lat="45.57804" lon="6.57076">
        <ele>2367</ele>
        <time>2014-01-31T13:32:40.000Z</time>
      </trkpt>
      <trkpt lat="45.57804" lon="6.57076">
        <ele>2367</ele>
        <time>2014-01-31T13:32:41.000Z</time>
      </trkpt>
      <trkpt lat="45.57804" lon="6.57076">
        <ele>2367</ele>
        <time>2014-01-31T13:32:42.000Z</time>
      </trkpt>
      <trkpt lat="45.57804" lon="6.57076">
        <ele>2367</ele>
        <time>2014-01-31T13:32:43.000Z</time>
      </trkpt>
      <trkpt lat="45.57804" lon="6.57076">
        <ele>2367</ele>
        <time>2014-01-31T13:32:45.000Z</time>
      </trkpt>
      <trkpt lat="45.57804" lon="6.57076">
        <ele>2367</ele>
        <time>2014-01-31T13:32:46.000Z</time>
      </trkpt>
      <trkpt lat="45.57804" lon="6.57076">
        <ele>2367.1999511719</ele>
        <time>2014-01-31T13:32:47.000Z</time>
      </trkpt>
      <trkpt lat="45.57804" lon="6.57076">
        <ele>2367.1999511719</ele>
        <time>2014-01-31T13:32:48.000Z</time>
      </trkpt>
      <trkpt lat="45.57804" lon="6.57076">
        <ele>2367.1999511719</ele>
        <time>2014-01-31T13:32:50.000Z</time>
      </trkpt>
      <trkpt lat="45.57804" lon="6.57076">
        <ele>2367</ele>
        <time>2014-01-31T13:32:51.000Z</time>
      </trkpt>
      <trkpt lat="45.57804" lon="6.57076">
        <ele>2367</ele>
        <time>2014-01-31T13:32:52.000Z</time>
      </trkpt>
      <trkpt lat="45.57804" lon="6.57076">
        <ele>2367</ele>
        <time>2014-01-31T13:32:54.000Z</time>
      </trkpt>
      <trkpt lat="45.57804" lon="6.57076">
        <ele>2367</ele>
        <time>2014-01-31T13:32:55.000Z</time>
      </trkpt>
      <trkpt lat="45.57804" lon="6.57076">
        <ele>2367</ele>
        <time>2014-01-31T13:32:56.000Z</time>
      </trkpt>
      <trkpt lat="45.57804" lon="6.57076">
        <ele>2367</ele>
        <time>2014-01-31T13:32:57.000Z</time>
      </trkpt>
      <trkpt lat="45.57804" lon="6.57076">
        <ele>2367</ele>
        <time>2014-01-31T13:32:58.000Z</time>
      </trkpt>
      <trkpt lat="45.57804" lon="6.57076">
        <ele>2367</ele>
        <time>2014-01-31T13:32:59.000Z</time>
      </trkpt>
      <trkpt lat="45.57804" lon="6.57076">
        <ele>2367</ele>
        <time>2014-01-31T13:33:00.000Z</time>
      </trkpt>
      <trkpt lat="45.57804" lon="6.57076">
        <ele>2367</ele>
        <time>2014-01-31T13:33:03.000Z</time>
      </trkpt>
      <trkpt lat="45.57804" lon="6.57076">
        <ele>2366.8000488281</ele>
        <time>2014-01-31T13:33:04.000Z</time>
      </trkpt>
      <trkpt lat="45.57804" lon="6.57076">
        <ele>2366.8000488281</ele>
        <time>2014-01-31T13:33:05.000Z</time>
      </trkpt>
      <trkpt lat="45.57804" lon="6.57076">
        <ele>2366.8000488281</ele>
        <time>2014-01-31T13:33:06.000Z</time>
      </trkpt>
      <trkpt lat="45.57804" lon="6.57076">
        <ele>2366.8000488281</ele>
        <time>2014-01-31T13:33:07.000Z</time>
      </trkpt>
      <trkpt lat="45.57804" lon="6.57076">
        <ele>2366.8000488281</ele>
        <time>2014-01-31T13:33:10.000Z</time>
      </trkpt>
      <trkpt lat="45.57804" lon="6.57076">
        <ele>2366.8000488281</ele>
        <time>2014-01-31T13:33:12.000Z</time>
      </trkpt>
      <trkpt lat="45.57804" lon="6.57076">
        <ele>2366.8000488281</ele>
        <time>2014-01-31T13:33:13.000Z</time>
      </trkpt>
      <trkpt lat="45.57804" lon="6.57076">
        <ele>2367</ele>
        <time>2014-01-31T13:33:14.000Z</time>
      </trkpt>
      <trkpt lat="45.57804" lon="6.57076">
        <ele>2367</ele>
        <time>2014-01-31T13:33:15.000Z</time>
      </trkpt>
      <trkpt lat="45.57804" lon="6.57076">
        <ele>2367</ele>
        <time>2014-01-31T13:33:16.000Z</time>
      </trkpt>
      <trkpt lat="45.57804" lon="6.57076">
        <ele>2367</ele>
        <time>2014-01-31T13:33:17.000Z</time>
      </trkpt>
      <trkpt lat="45.57804" lon="6.57076">
        <ele>2367</ele>
        <time>2014-01-31T13:33:19.000Z</time>
      </trkpt>
      <trkpt lat="45.57804" lon="6.57076">
        <ele>2367</ele>
        <time>2014-01-31T13:33:20.000Z</time>
      </trkpt>
      <trkpt lat="45.57804" lon="6.57076">
        <ele>2367</ele>
        <time>2014-01-31T13:33:21.000Z</time>
      </trkpt>
      <trkpt lat="45.57804" lon="6.57076">
        <ele>2367</ele>
        <time>2014-01-31T13:33:22.000Z</time>
      </trkpt>
      <trkpt lat="45.57804" lon="6.57076">
        <ele>2366.8000488281</ele>
        <time>2014-01-31T13:33:23.000Z</time>
      </trkpt>
      <trkpt lat="45.57804" lon="6.57076">
        <ele>2366.8000488281</ele>
        <time>2014-01-31T13:33:24.000Z</time>
      </trkpt>
      <trkpt lat="45.57804" lon="6.57076">
        <ele>2366.8000488281</ele>
        <time>2014-01-31T13:33:25.000Z</time>
      </trkpt>
      <trkpt lat="45.57804" lon="6.57076">
        <ele>2366.8000488281</ele>
        <time>2014-01-31T13:33:29.000Z</time>
      </trkpt>
      <trkpt lat="45.57804" lon="6.57076">
        <ele>2366.8000488281</ele>
        <time>2014-01-31T13:33:31.000Z</time>
      </trkpt>
      <trkpt lat="45.57804" lon="6.57076">
        <ele>2366.8000488281</ele>
        <time>2014-01-31T13:33:32.000Z</time>
      </trkpt>
      <trkpt lat="45.57804" lon="6.57076">
        <ele>2366.8000488281</ele>
        <time>2014-01-31T13:33:33.000Z</time>
      </trkpt>
      <trkpt lat="45.57804" lon="6.57076">
        <ele>2366.6000976562</ele>
        <time>2014-01-31T13:33:34.000Z</time>
      </trkpt>
      <trkpt lat="45.57804" lon="6.57076">
        <ele>2366.6000976562</ele>
        <time>2014-01-31T13:33:35.000Z</time>
      </trkpt>
      <trkpt lat="45.57804" lon="6.57076">
        <ele>2366.6000976562</ele>
        <time>2014-01-31T13:33:36.000Z</time>
      </trkpt>
      <trkpt lat="45.57804" lon="6.57076">
        <ele>2366.6000976562</ele>
        <time>2014-01-31T13:33:37.000Z</time>
      </trkpt>
      <trkpt lat="45.57804" lon="6.57076">
        <ele>2367</ele>
        <time>2014-01-31T13:33:38.000Z</time>
      </trkpt>
      <trkpt lat="45.57804" lon="6.57076">
        <ele>2367.1999511719</ele>
        <time>2014-01-31T13:33:39.000Z</time>
      </trkpt>
      <trkpt lat="45.57804" lon="6.57076">
        <ele>2367.1999511719</ele>
        <time>2014-01-31T13:33:40.000Z</time>
      </trkpt>
      <trkpt lat="45.57804" lon="6.57076">
        <ele>2367.1999511719</ele>
        <time>2014-01-31T13:33:41.000Z</time>
      </trkpt>
      <trkpt lat="45.57804" lon="6.57076">
        <ele>2367.1999511719</ele>
        <time>2014-01-31T13:33:42.000Z</time>
      </trkpt>
      <trkpt lat="45.57804" lon="6.57076">
        <ele>2367.1999511719</ele>
        <time>2014-01-31T13:33:43.000Z</time>
      </trkpt>
      <trkpt lat="45.57804" lon="6.57076">
        <ele>2367.1999511719</ele>
        <time>2014-01-31T13:33:44.000Z</time>
      </trkpt>
      <trkpt lat="45.57804" lon="6.57076">
        <ele>2367.1999511719</ele>
        <time>2014-01-31T13:33:45.000Z</time>
      </trkpt>
      <trkpt lat="45.57804" lon="6.57076">
        <ele>2367</ele>
        <time>2014-01-31T13:33:46.000Z</time>
      </trkpt>
      <trkpt lat="45.57804" lon="6.57076">
        <ele>2367</ele>
        <time>2014-01-31T13:33:47.000Z</time>
      </trkpt>
      <trkpt lat="45.57804" lon="6.57076">
        <ele>2366.8000488281</ele>
        <time>2014-01-31T13:33:48.000Z</time>
      </trkpt>
      <trkpt lat="45.57804" lon="6.57076">
        <ele>2366.8000488281</ele>
        <time>2014-01-31T13:33:49.000Z</time>
      </trkpt>
      <trkpt lat="45.57804" lon="6.57076">
        <ele>2366.8000488281</ele>
        <time>2014-01-31T13:33:50.000Z</time>
      </trkpt>
      <trkpt lat="45.57804" lon="6.57076">
        <ele>2366.8000488281</ele>
        <time>2014-01-31T13:33:51.000Z</time>
      </trkpt>
      <trkpt lat="45.57804" lon="6.57076">
        <ele>2367</ele>
        <time>2014-01-31T13:33:52.000Z</time>
      </trkpt>
      <trkpt lat="45.57804" lon="6.57076">
        <ele>2367</ele>
        <time>2014-01-31T13:33:53.000Z</time>
      </trkpt>
      <trkpt lat="45.57804" lon="6.57076">
        <ele>2367</ele>
        <time>2014-01-31T13:33:54.000Z</time>
      </trkpt>
      <trkpt lat="45.57804" lon="6.57076">
        <ele>2367</ele>
        <time>2014-01-31T13:33:55.000Z</time>
      </trkpt>
      <trkpt lat="45.57804" lon="6.57076">
        <ele>2366.8000488281</ele>
        <time>2014-01-31T13:33:56.000Z</time>
      </trkpt>
      <trkpt lat="45.57804" lon="6.57076">
        <ele>2366.8000488281</ele>
        <time>2014-01-31T13:33:57.000Z</time>
      </trkpt>
      <trkpt lat="45.57804" lon="6.57076">
        <ele>2366.8000488281</ele>
        <time>2014-01-31T13:33:58.000Z</time>
      </trkpt>
      <trkpt lat="45.57804" lon="6.57076">
        <ele>2366.6000976562</ele>
        <time>2014-01-31T13:33:59.000Z</time>
      </trkpt>
      <trkpt lat="45.57804" lon="6.57076">
        <ele>2366.6000976562</ele>
        <time>2014-01-31T13:34:00.000Z</time>
      </trkpt>
      <trkpt lat="45.57804" lon="6.57076">
        <ele>2366.8000488281</ele>
        <time>2014-01-31T13:34:04.000Z</time>
      </trkpt>
      <trkpt lat="45.57804" lon="6.57076">
        <ele>2366.8000488281</ele>
        <time>2014-01-31T13:34:05.000Z</time>
      </trkpt>
      <trkpt lat="45.57804" lon="6.57076">
        <ele>2367</ele>
        <time>2014-01-31T13:34:06.000Z</time>
      </trkpt>
      <trkpt lat="45.57804" lon="6.57076">
        <ele>2367</ele>
        <time>2014-01-31T13:34:07.000Z</time>
      </trkpt>
      <trkpt lat="45.57804" lon="6.57076">
        <ele>2367</ele>
        <time>2014-01-31T13:34:08.000Z</time>
      </trkpt>
      <trkpt lat="45.57804" lon="6.57076">
        <ele>2367</ele>
        <time>2014-01-31T13:34:09.000Z</time>
      </trkpt>
      <trkpt lat="45.57804" lon="6.57076">
        <ele>2367</ele>
        <time>2014-01-31T13:34:10.000Z</time>
      </trkpt>
      <trkpt lat="45.57804" lon="6.57076">
        <ele>2367</ele>
        <time>2014-01-31T13:34:11.000Z</time>
      </trkpt>
      <trkpt lat="45.57804" lon="6.57076">
        <ele>2366.8000488281</ele>
        <time>2014-01-31T13:34:12.000Z</time>
      </trkpt>
      <trkpt lat="45.57804" lon="6.57076">
        <ele>2366.8000488281</ele>
        <time>2014-01-31T13:34:13.000Z</time>
      </trkpt>
      <trkpt lat="45.57804" lon="6.57076">
        <ele>2366.6000976562</ele>
        <time>2014-01-31T13:34:14.000Z</time>
      </trkpt>
      <trkpt lat="45.57804" lon="6.57076">
        <ele>2366.6000976562</ele>
        <time>2014-01-31T13:34:15.000Z</time>
      </trkpt>
      <trkpt lat="45.57804" lon="6.57076">
        <ele>2366.3999023438</ele>
        <time>2014-01-31T13:34:16.000Z</time>
      </trkpt>
      <trkpt lat="45.57804" lon="6.57076">
        <ele>2366.3999023438</ele>
        <time>2014-01-31T13:34:17.000Z</time>
      </trkpt>
      <trkpt lat="45.57804" lon="6.57076">
        <ele>2366.1999511719</ele>
        <time>2014-01-31T13:34:18.000Z</time>
      </trkpt>
      <trkpt lat="45.57804" lon="6.57076">
        <ele>2366</ele>
        <time>2014-01-31T13:34:19.000Z</time>
      </trkpt>
      <trkpt lat="45.57804" lon="6.57076">
        <ele>2365.8000488281</ele>
        <time>2014-01-31T13:34:20.000Z</time>
      </trkpt>
      <trkpt lat="45.57804" lon="6.57076">
        <ele>2366</ele>
        <time>2014-01-31T13:34:21.000Z</time>
      </trkpt>
      <trkpt lat="45.57804" lon="6.57076">
        <ele>2366</ele>
        <time>2014-01-31T13:34:22.000Z</time>
      </trkpt>
      <trkpt lat="45.57804" lon="6.57076">
        <ele>2366.1999511719</ele>
        <time>2014-01-31T13:34:23.000Z</time>
      </trkpt>
      <trkpt lat="45.57804" lon="6.57076">
        <ele>2366.1999511719</ele>
        <time>2014-01-31T13:34:24.000Z</time>
      </trkpt>
      <trkpt lat="45.57804" lon="6.57076">
        <ele>2366.1999511719</ele>
        <time>2014-01-31T13:34:25.000Z</time>
      </trkpt>
      <trkpt lat="45.57804" lon="6.57076">
        <ele>2366.3999023438</ele>
        <time>2014-01-31T13:34:26.000Z</time>
      </trkpt>
      <trkpt lat="45.57804" lon="6.57076">
        <ele>2366.3999023438</ele>
        <time>2014-01-31T13:34:27.000Z</time>
      </trkpt>
      <trkpt lat="45.57804" lon="6.57076">
        <ele>2366.3999023438</ele>
        <time>2014-01-31T13:34:28.000Z</time>
      </trkpt>
      <trkpt lat="45.57804" lon="6.57076">
        <ele>2366.1999511719</ele>
        <time>2014-01-31T13:34:29.000Z</time>
      </trkpt>
      <trkpt lat="45.57804" lon="6.57076">
        <ele>2366.1999511719</ele>
        <time>2014-01-31T13:34:30.000Z</time>
      </trkpt>
      <trkpt lat="45.57804" lon="6.57076">
        <ele>2366.1999511719</ele>
        <time>2014-01-31T13:34:31.000Z</time>
      </trkpt>
      <trkpt lat="45.57804" lon="6.57076">
        <ele>2366.1999511719</ele>
        <time>2014-01-31T13:34:32.000Z</time>
      </trkpt>
      <trkpt lat="45.57804" lon="6.57076">
        <ele>2366.1999511719</ele>
        <time>2014-01-31T13:34:33.000Z</time>
      </trkpt>
      <trkpt lat="45.57804" lon="6.57076">
        <ele>2366.1999511719</ele>
        <time>2014-01-31T13:34:34.000Z</time>
      </trkpt>
      <trkpt lat="45.57804" lon="6.57076">
        <ele>2366.3999023438</ele>
        <time>2014-01-31T13:34:35.000Z</time>
      </trkpt>
      <trkpt lat="45.57804" lon="6.57076">
        <ele>2366.8000488281</ele>
        <time>2014-01-31T13:34:36.000Z</time>
      </trkpt>
      <trkpt lat="45.57804" lon="6.57076">
        <ele>2367</ele>
        <time>2014-01-31T13:34:37.000Z</time>
      </trkpt>
      <trkpt lat="45.57804" lon="6.57076">
        <ele>2367</ele>
        <time>2014-01-31T13:34:38.000Z</time>
      </trkpt>
      <trkpt lat="45.57804" lon="6.57076">
        <ele>2367.1999511719</ele>
        <time>2014-01-31T13:34:39.000Z</time>
      </trkpt>
      <trkpt lat="45.57804" lon="6.57076">
        <ele>2367</ele>
        <time>2014-01-31T13:34:40.000Z</time>
      </trkpt>
      <trkpt lat="45.57804" lon="6.57076">
        <ele>2366.8000488281</ele>
        <time>2014-01-31T13:34:41.000Z</time>
      </trkpt>
      <trkpt lat="45.57804" lon="6.57076">
        <ele>2366.8000488281</ele>
        <time>2014-01-31T13:34:42.000Z</time>
      </trkpt>
      <trkpt lat="45.57804" lon="6.57076">
        <ele>2366.6000976562</ele>
        <time>2014-01-31T13:34:43.000Z</time>
      </trkpt>
      <trkpt lat="45.57804" lon="6.57076">
        <ele>2366.6000976562</ele>
        <time>2014-01-31T13:34:44.000Z</time>
      </trkpt>
      <trkpt lat="45.57804" lon="6.57076">
        <ele>2366.6000976562</ele>
        <time>2014-01-31T13:34:45.000Z</time>
      </trkpt>
      <trkpt lat="45.57804" lon="6.57076">
        <ele>2366.6000976562</ele>
        <time>2014-01-31T13:34:46.000Z</time>
      </trkpt>
      <trkpt lat="45.57804" lon="6.57076">
        <ele>2366.3999023438</ele>
        <time>2014-01-31T13:34:47.000Z</time>
      </trkpt>
      <trkpt lat="45.57804" lon="6.57076">
        <ele>2366.3999023438</ele>
        <time>2014-01-31T13:34:48.000Z</time>
      </trkpt>
      <trkpt lat="45.57804" lon="6.57076">
        <ele>2366.3999023438</ele>
        <time>2014-01-31T13:34:49.000Z</time>
      </trkpt>
      <trkpt lat="45.57804" lon="6.57076">
        <ele>2366.3999023438</ele>
        <time>2014-01-31T13:34:52.000Z</time>
      </trkpt>
      <trkpt lat="45.57804" lon="6.57076">
        <ele>2366.3999023438</ele>
        <time>2014-01-31T13:34:53.000Z</time>
      </trkpt>
      <trkpt lat="45.57804" lon="6.57076">
        <ele>2366.1999511719</ele>
        <time>2014-01-31T13:34:54.000Z</time>
      </trkpt>
      <trkpt lat="45.57804" lon="6.57076">
        <ele>2366.1999511719</ele>
        <time>2014-01-31T13:34:55.000Z</time>
      </trkpt>
      <trkpt lat="45.57804" lon="6.57076">
        <ele>2366</ele>
        <time>2014-01-31T13:34:56.000Z</time>
      </trkpt>
      <trkpt lat="45.57804" lon="6.57076">
        <ele>2366</ele>
        <time>2014-01-31T13:34:57.000Z</time>
      </trkpt>
      <trkpt lat="45.57804" lon="6.57076">
        <ele>2365.8000488281</ele>
        <time>2014-01-31T13:34:58.000Z</time>
      </trkpt>
      <trkpt lat="45.57804" lon="6.57076">
        <ele>2365.8000488281</ele>
        <time>2014-01-31T13:34:59.000Z</time>
      </trkpt>
      <trkpt lat="45.57804" lon="6.57076">
        <ele>2365.8000488281</ele>
        <time>2014-01-31T13:35:00.000Z</time>
      </trkpt>
      <trkpt lat="45.57804" lon="6.57076">
        <ele>2365.8000488281</ele>
        <time>2014-01-31T13:35:01.000Z</time>
      </trkpt>
      <trkpt lat="45.57804" lon="6.57077">
        <ele>2365.6000976562</ele>
        <time>2014-01-31T13:35:02.000Z</time>
      </trkpt>
      <trkpt lat="45.57804" lon="6.57077">
        <ele>2365.6000976562</ele>
        <time>2014-01-31T13:35:03.000Z</time>
      </trkpt>
      <trkpt lat="45.57805" lon="6.57077">
        <ele>2365.6000976562</ele>
        <time>2014-01-31T13:35:04.000Z</time>
      </trkpt>
      <trkpt lat="45.57805" lon="6.57077">
        <ele>2365.6000976562</ele>
        <time>2014-01-31T13:35:05.000Z</time>
      </trkpt>
      <trkpt lat="45.57805" lon="6.57077">
        <ele>2365.6000976562</ele>
        <time>2014-01-31T13:35:06.000Z</time>
      </trkpt>
      <trkpt lat="45.57805" lon="6.57077">
        <ele>2365.8000488281</ele>
        <time>2014-01-31T13:35:07.000Z</time>
      </trkpt>
      <trkpt lat="45.57805" lon="6.57077">
        <ele>2365.8000488281</ele>
        <time>2014-01-31T13:35:08.000Z</time>
      </trkpt>
      <trkpt lat="45.57805" lon="6.57077">
        <ele>2365.8000488281</ele>
        <time>2014-01-31T13:35:09.000Z</time>
      </trkpt>
      <trkpt lat="45.57805" lon="6.57077">
        <ele>2366</ele>
        <time>2014-01-31T13:35:10.000Z</time>
      </trkpt>
      <trkpt lat="45.57805" lon="6.57077">
        <ele>2366</ele>
        <time>2014-01-31T13:35:11.000Z</time>
      </trkpt>
      <trkpt lat="45.57805" lon="6.57077">
        <ele>2366</ele>
        <time>2014-01-31T13:35:12.000Z</time>
      </trkpt>
      <trkpt lat="45.57805" lon="6.57077">
        <ele>2366</ele>
        <time>2014-01-31T13:35:13.000Z</time>
      </trkpt>
      <trkpt lat="45.57805" lon="6.57077">
        <ele>2366</ele>
        <time>2014-01-31T13:35:18.000Z</time>
      </trkpt>
      <trkpt lat="45.57805" lon="6.57077">
        <ele>2366</ele>
        <time>2014-01-31T13:35:19.000Z</time>
      </trkpt>
      <trkpt lat="45.57805" lon="6.57077">
        <ele>2366</ele>
        <time>2014-01-31T13:35:20.000Z</time>
      </trkpt>
      <trkpt lat="45.57805" lon="6.57077">
        <ele>2366</ele>
        <time>2014-01-31T13:35:21.000Z</time>
      </trkpt>
      <trkpt lat="45.57805" lon="6.57077">
        <ele>2366</ele>
        <time>2014-01-31T13:35:22.000Z</time>
      </trkpt>
      <trkpt lat="45.57805" lon="6.57077">
        <ele>2365.8000488281</ele>
        <time>2014-01-31T13:35:23.000Z</time>
      </trkpt>
      <trkpt lat="45.57805" lon="6.57077">
        <ele>2365.8000488281</ele>
        <time>2014-01-31T13:35:25.000Z</time>
      </trkpt>
      <trkpt lat="45.57805" lon="6.57077">
        <ele>2365.8000488281</ele>
        <time>2014-01-31T13:35:26.000Z</time>
      </trkpt>
      <trkpt lat="45.57805" lon="6.57077">
        <ele>2365.8000488281</ele>
        <time>2014-01-31T13:35:27.000Z</time>
      </trkpt>
      <trkpt lat="45.57805" lon="6.57077">
        <ele>2365.8000488281</ele>
        <time>2014-01-31T13:35:28.000Z</time>
      </trkpt>
      <trkpt lat="45.57805" lon="6.57077">
        <ele>2365.8000488281</ele>
        <time>2014-01-31T13:35:29.000Z</time>
      </trkpt>
      <trkpt lat="45.57805" lon="6.57077">
        <ele>2365.8000488281</ele>
        <time>2014-01-31T13:35:30.000Z</time>
      </trkpt>
      <trkpt lat="45.57805" lon="6.57077">
        <ele>2365.6000976562</ele>
        <time>2014-01-31T13:35:31.000Z</time>
      </trkpt>
      <trkpt lat="45.57805" lon="6.57077">
        <ele>2365.6000976562</ele>
        <time>2014-01-31T13:35:32.000Z</time>
      </trkpt>
      <trkpt lat="45.57805" lon="6.57077">
        <ele>2365.6000976562</ele>
        <time>2014-01-31T13:35:33.000Z</time>
      </trkpt>
      <trkpt lat="45.57805" lon="6.57077">
        <ele>2365.6000976562</ele>
        <time>2014-01-31T13:35:34.000Z</time>
      </trkpt>
      <trkpt lat="45.57805" lon="6.57077">
        <ele>2365.6000976562</ele>
        <time>2014-01-31T13:35:35.000Z</time>
      </trkpt>
      <trkpt lat="45.57805" lon="6.57077">
        <ele>2365.6000976562</ele>
        <time>2014-01-31T13:35:36.000Z</time>
      </trkpt>
      <trkpt lat="45.57805" lon="6.57077">
        <ele>2365.3999023438</ele>
        <time>2014-01-31T13:35:37.000Z</time>
      </trkpt>
      <trkpt lat="45.57805" lon="6.57077">
        <ele>2365.1999511719</ele>
        <time>2014-01-31T13:35:38.000Z</time>
      </trkpt>
      <trkpt lat="45.57805" lon="6.57077">
        <ele>2365.1999511719</ele>
        <time>2014-01-31T13:35:39.000Z</time>
      </trkpt>
      <trkpt lat="45.57805" lon="6.57077">
        <ele>2365.1999511719</ele>
        <time>2014-01-31T13:35:40.000Z</time>
      </trkpt>
      <trkpt lat="45.57805" lon="6.57077">
        <ele>2365.1999511719</ele>
        <time>2014-01-31T13:35:41.000Z</time>
      </trkpt>
      <trkpt lat="45.57805" lon="6.57077">
        <ele>2365.3999023438</ele>
        <time>2014-01-31T13:35:42.000Z</time>
      </trkpt>
      <trkpt lat="45.57805" lon="6.57077">
        <ele>2365.3999023438</ele>
        <time>2014-01-31T13:35:43.000Z</time>
      </trkpt>
      <trkpt lat="45.57804" lon="6.57077">
        <ele>2365.6000976562</ele>
        <time>2014-01-31T13:35:44.000Z</time>
      </trkpt>
      <trkpt lat="45.57804" lon="6.57077">
        <ele>2365.6000976562</ele>
        <time>2014-01-31T13:35:45.000Z</time>
      </trkpt>
      <trkpt lat="45.57804" lon="6.57077">
        <ele>2365.6000976562</ele>
        <time>2014-01-31T13:35:46.000Z</time>
      </trkpt>
      <trkpt lat="45.57804" lon="6.57077">
        <ele>2365.3999023438</ele>
        <time>2014-01-31T13:35:47.000Z</time>
      </trkpt>
      <trkpt lat="45.57804" lon="6.57077">
        <ele>2365.3999023438</ele>
        <time>2014-01-31T13:35:48.000Z</time>
      </trkpt>
      <trkpt lat="45.57804" lon="6.57077">
        <ele>2365.3999023438</ele>
        <time>2014-01-31T13:35:49.000Z</time>
      </trkpt>
      <trkpt lat="45.57804" lon="6.57077">
        <ele>2365.3999023438</ele>
        <time>2014-01-31T13:35:50.000Z</time>
      </trkpt>
      <trkpt lat="45.57804" lon="6.57077">
        <ele>2365.3999023438</ele>
        <time>2014-01-31T13:35:51.000Z</time>
      </trkpt>
      <trkpt lat="45.57804" lon="6.57077">
        <ele>2365.3999023438</ele>
        <time>2014-01-31T13:35:52.000Z</time>
      </trkpt>
      <trkpt lat="45.57804" lon="6.57077">
        <ele>2365.3999023438</ele>
        <time>2014-01-31T13:35:53.000Z</time>
      </trkpt>
      <trkpt lat="45.57804" lon="6.57077">
        <ele>2365.6000976562</ele>
        <time>2014-01-31T13:35:54.000Z</time>
      </trkpt>
      <trkpt lat="45.57804" lon="6.57077">
        <ele>2365.6000976562</ele>
        <time>2014-01-31T13:35:55.000Z</time>
      </trkpt>
      <trkpt lat="45.57804" lon="6.57077">
        <ele>2365.6000976562</ele>
        <time>2014-01-31T13:35:56.000Z</time>
      </trkpt>
      <trkpt lat="45.57804" lon="6.57077">
        <ele>2366</ele>
        <time>2014-01-31T13:35:57.000Z</time>
      </trkpt>
      <trkpt lat="45.57804" lon="6.57077">
        <ele>2366</ele>
        <time>2014-01-31T13:35:58.000Z</time>
      </trkpt>
      <trkpt lat="45.57804" lon="6.57077">
        <ele>2366.1999511719</ele>
        <time>2014-01-31T13:35:59.000Z</time>
      </trkpt>
      <trkpt lat="45.57804" lon="6.57077">
        <ele>2366.1999511719</ele>
        <time>2014-01-31T13:36:00.000Z</time>
      </trkpt>
      <trkpt lat="45.57804" lon="6.57077">
        <ele>2366.1999511719</ele>
        <time>2014-01-31T13:36:01.000Z</time>
      </trkpt>
      <trkpt lat="45.57804" lon="6.57077">
        <ele>2366.1999511719</ele>
        <time>2014-01-31T13:36:02.000Z</time>
      </trkpt>
      <trkpt lat="45.57804" lon="6.57077">
        <ele>2366</ele>
        <time>2014-01-31T13:36:03.000Z</time>
      </trkpt>
      <trkpt lat="45.57804" lon="6.57077">
        <ele>2366</ele>
        <time>2014-01-31T13:36:04.000Z</time>
      </trkpt>
      <trkpt lat="45.57804" lon="6.57077">
        <ele>2366</ele>
        <time>2014-01-31T13:36:05.000Z</time>
      </trkpt>
      <trkpt lat="45.57804" lon="6.57077">
        <ele>2366</ele>
        <time>2014-01-31T13:36:06.000Z</time>
      </trkpt>
      <trkpt lat="45.57804" lon="6.57077">
        <ele>2366</ele>
        <time>2014-01-31T13:36:07.000Z</time>
      </trkpt>
      <trkpt lat="45.57804" lon="6.57077">
        <ele>2365.8000488281</ele>
        <time>2014-01-31T13:36:08.000Z</time>
      </trkpt>
      <trkpt lat="45.57804" lon="6.57077">
        <ele>2365.8000488281</ele>
        <time>2014-01-31T13:36:09.000Z</time>
      </trkpt>
      <trkpt lat="45.57804" lon="6.57077">
        <ele>2365.8000488281</ele>
        <time>2014-01-31T13:36:10.000Z</time>
      </trkpt>
      <trkpt lat="45.57804" lon="6.57077">
        <ele>2365.8000488281</ele>
        <time>2014-01-31T13:36:11.000Z</time>
      </trkpt>
      <trkpt lat="45.57804" lon="6.57077">
        <ele>2365.8000488281</ele>
        <time>2014-01-31T13:36:12.000Z</time>
      </trkpt>
      <trkpt lat="45.57804" lon="6.57077">
        <ele>2365.6000976562</ele>
        <time>2014-01-31T13:36:13.000Z</time>
      </trkpt>
      <trkpt lat="45.57804" lon="6.57077">
        <ele>2365.6000976562</ele>
        <time>2014-01-31T13:36:14.000Z</time>
      </trkpt>
      <trkpt lat="45.57804" lon="6.57077">
        <ele>2365.6000976562</ele>
        <time>2014-01-31T13:36:15.000Z</time>
      </trkpt>
      <trkpt lat="45.57804" lon="6.57077">
        <ele>2365.6000976562</ele>
        <time>2014-01-31T13:36:16.000Z</time>
      </trkpt>
      <trkpt lat="45.57804" lon="6.57077">
        <ele>2365.6000976562</ele>
        <time>2014-01-31T13:36:17.000Z</time>
      </trkpt>
      <trkpt lat="45.57804" lon="6.57077">
        <ele>2365.6000976562</ele>
        <time>2014-01-31T13:36:18.000Z</time>
      </trkpt>
      <trkpt lat="45.57804" lon="6.57077">
        <ele>2365.6000976562</ele>
        <time>2014-01-31T13:36:19.000Z</time>
      </trkpt>
      <trkpt lat="45.57804" lon="6.57077">
        <ele>2365.6000976562</ele>
        <time>2014-01-31T13:36:21.000Z</time>
      </trkpt>
      <trkpt lat="45.57804" lon="6.57077">
        <ele>2365.6000976562</ele>
        <time>2014-01-31T13:36:22.000Z</time>
      </trkpt>
      <trkpt lat="45.57804" lon="6.57077">
        <ele>2365.6000976562</ele>
        <time>2014-01-31T13:36:23.000Z</time>
      </trkpt>
      <trkpt lat="45.57804" lon="6.57077">
        <ele>2365.6000976562</ele>
        <time>2014-01-31T13:36:24.000Z</time>
      </trkpt>
      <trkpt lat="45.57804" lon="6.57077">
        <ele>2365.6000976562</ele>
        <time>2014-01-31T13:36:25.000Z</time>
      </trkpt>
      <trkpt lat="45.57804" lon="6.57077">
        <ele>2365.6000976562</ele>
        <time>2014-01-31T13:36:27.000Z</time>
      </trkpt>
      <trkpt lat="45.57804" lon="6.57077">
        <ele>2365.6000976562</ele>
        <time>2014-01-31T13:36:28.000Z</time>
      </trkpt>
      <trkpt lat="45.57804" lon="6.57077">
        <ele>2365.6000976562</ele>
        <time>2014-01-31T13:36:29.000Z</time>
      </trkpt>
      <trkpt lat="45.57804" lon="6.57077">
        <ele>2365.6000976562</ele>
        <time>2014-01-31T13:36:30.000Z</time>
      </trkpt>
      <trkpt lat="45.57804" lon="6.57077">
        <ele>2365.6000976562</ele>
        <time>2014-01-31T13:36:31.000Z</time>
      </trkpt>
      <trkpt lat="45.57804" lon="6.57077">
        <ele>2365.8000488281</ele>
        <time>2014-01-31T13:36:32.000Z</time>
      </trkpt>
      <trkpt lat="45.57804" lon="6.57077">
        <ele>2365.6000976562</ele>
        <time>2014-01-31T13:36:35.000Z</time>
      </trkpt>
      <trkpt lat="45.57804" lon="6.57077">
        <ele>2365.6000976562</ele>
        <time>2014-01-31T13:36:36.000Z</time>
      </trkpt>
      <trkpt lat="45.57804" lon="6.57077">
        <ele>2365.6000976562</ele>
        <time>2014-01-31T13:36:37.000Z</time>
      </trkpt>
      <trkpt lat="45.57804" lon="6.57077">
        <ele>2365.6000976562</ele>
        <time>2014-01-31T13:36:38.000Z</time>
      </trkpt>
      <trkpt lat="45.57804" lon="6.57077">
        <ele>2365.6000976562</ele>
        <time>2014-01-31T13:36:39.000Z</time>
      </trkpt>
      <trkpt lat="45.57804" lon="6.57077">
        <ele>2365.3999023438</ele>
        <time>2014-01-31T13:36:40.000Z</time>
      </trkpt>
      <trkpt lat="45.57804" lon="6.57077">
        <ele>2365.3999023438</ele>
        <time>2014-01-31T13:36:41.000Z</time>
      </trkpt>
      <trkpt lat="45.57804" lon="6.57077">
        <ele>2365.3999023438</ele>
        <time>2014-01-31T13:36:42.000Z</time>
      </trkpt>
      <trkpt lat="45.57804" lon="6.57077">
        <ele>2365.6000976562</ele>
        <time>2014-01-31T13:36:43.000Z</time>
      </trkpt>
      <trkpt lat="45.57804" lon="6.57077">
        <ele>2365.6000976562</ele>
        <time>2014-01-31T13:36:44.000Z</time>
      </trkpt>
      <trkpt lat="45.57804" lon="6.57077">
        <ele>2365.6000976562</ele>
        <time>2014-01-31T13:36:45.000Z</time>
      </trkpt>
      <trkpt lat="45.57804" lon="6.57077">
        <ele>2365.8000488281</ele>
        <time>2014-01-31T13:36:46.000Z</time>
      </trkpt>
      <trkpt lat="45.57804" lon="6.57077">
        <ele>2365.8000488281</ele>
        <time>2014-01-31T13:36:47.000Z</time>
      </trkpt>
      <trkpt lat="45.57804" lon="6.57077">
        <ele>2365.8000488281</ele>
        <time>2014-01-31T13:36:48.000Z</time>
      </trkpt>
      <trkpt lat="45.57804" lon="6.57077">
        <ele>2365.8000488281</ele>
        <time>2014-01-31T13:36:49.000Z</time>
      </trkpt>
      <trkpt lat="45.57804" lon="6.57077">
        <ele>2365.8000488281</ele>
        <time>2014-01-31T13:36:50.000Z</time>
      </trkpt>
      <trkpt lat="45.57804" lon="6.57077">
        <ele>2366</ele>
        <time>2014-01-31T13:36:51.000Z</time>
      </trkpt>
      <trkpt lat="45.57804" lon="6.57077">
        <ele>2366</ele>
        <time>2014-01-31T13:36:52.000Z</time>
      </trkpt>
      <trkpt lat="45.57804" lon="6.57077">
        <ele>2366</ele>
        <time>2014-01-31T13:36:53.000Z</time>
      </trkpt>
      <trkpt lat="45.57804" lon="6.57077">
        <ele>2366</ele>
        <time>2014-01-31T13:36:54.000Z</time>
      </trkpt>
      <trkpt lat="45.57804" lon="6.57077">
        <ele>2365.8000488281</ele>
        <time>2014-01-31T13:36:55.000Z</time>
      </trkpt>
      <trkpt lat="45.57804" lon="6.57077">
        <ele>2365.8000488281</ele>
        <time>2014-01-31T13:36:56.000Z</time>
      </trkpt>
      <trkpt lat="45.57804" lon="6.57077">
        <ele>2365.8000488281</ele>
        <time>2014-01-31T13:36:57.000Z</time>
      </trkpt>
      <trkpt lat="45.57804" lon="6.57077">
        <ele>2365.8000488281</ele>
        <time>2014-01-31T13:36:58.000Z</time>
      </trkpt>
      <trkpt lat="45.57804" lon="6.57077">
        <ele>2365.8000488281</ele>
        <time>2014-01-31T13:36:59.000Z</time>
      </trkpt>
      <trkpt lat="45.57804" lon="6.57077">
        <ele>2365.8000488281</ele>
        <time>2014-01-31T13:37:00.000Z</time>
      </trkpt>
      <trkpt lat="45.57804" lon="6.57077">
        <ele>2365.6000976562</ele>
        <time>2014-01-31T13:37:01.000Z</time>
      </trkpt>
      <trkpt lat="45.57804" lon="6.57077">
        <ele>2365.6000976562</ele>
        <time>2014-01-31T13:37:02.000Z</time>
      </trkpt>
      <trkpt lat="45.57804" lon="6.57077">
        <ele>2365.6000976562</ele>
        <time>2014-01-31T13:37:03.000Z</time>
      </trkpt>
      <trkpt lat="45.57804" lon="6.57076">
        <ele>2365.6000976562</ele>
        <time>2014-01-31T13:37:04.000Z</time>
      </trkpt>
      <trkpt lat="45.57804" lon="6.57076">
        <ele>2365.8000488281</ele>
        <time>2014-01-31T13:37:05.000Z</time>
      </trkpt>
      <trkpt lat="45.57804" lon="6.57076">
        <ele>2365.8000488281</ele>
        <time>2014-01-31T13:37:06.000Z</time>
      </trkpt>
      <trkpt lat="45.57804" lon="6.57076">
        <ele>2365.8000488281</ele>
        <time>2014-01-31T13:37:07.000Z</time>
      </trkpt>
      <trkpt lat="45.57804" lon="6.57076">
        <ele>2365.8000488281</ele>
        <time>2014-01-31T13:37:08.000Z</time>
      </trkpt>
      <trkpt lat="45.57804" lon="6.57076">
        <ele>2365.8000488281</ele>
        <time>2014-01-31T13:37:09.000Z</time>
      </trkpt>
      <trkpt lat="45.57804" lon="6.57076">
        <ele>2365.8000488281</ele>
        <time>2014-01-31T13:37:10.000Z</time>
      </trkpt>
      <trkpt lat="45.57804" lon="6.57076">
        <ele>2365.8000488281</ele>
        <time>2014-01-31T13:37:11.000Z</time>
      </trkpt>
      <trkpt lat="45.57804" lon="6.57076">
        <ele>2365.8000488281</ele>
        <time>2014-01-31T13:37:12.000Z</time>
      </trkpt>
      <trkpt lat="45.57804" lon="6.57076">
        <ele>2365.6000976562</ele>
        <time>2014-01-31T13:37:13.000Z</time>
      </trkpt>
      <trkpt lat="45.57804" lon="6.57076">
        <ele>2365.6000976562</ele>
        <time>2014-01-31T13:37:14.000Z</time>
      </trkpt>
      <trkpt lat="45.57804" lon="6.57076">
        <ele>2365.6000976562</ele>
        <time>2014-01-31T13:37:15.000Z</time>
      </trkpt>
      <trkpt lat="45.57804" lon="6.57076">
        <ele>2365.8000488281</ele>
        <time>2014-01-31T13:37:16.000Z</time>
      </trkpt>
      <trkpt lat="45.57804" lon="6.57076">
        <ele>2365.8000488281</ele>
        <time>2014-01-31T13:37:17.000Z</time>
      </trkpt>
      <trkpt lat="45.57804" lon="6.57076">
        <ele>2365.8000488281</ele>
        <time>2014-01-31T13:37:18.000Z</time>
      </trkpt>
      <trkpt lat="45.57804" lon="6.57076">
        <ele>2365.8000488281</ele>
        <time>2014-01-31T13:37:19.000Z</time>
      </trkpt>
      <trkpt lat="45.57804" lon="6.57076">
        <ele>2365.8000488281</ele>
        <time>2014-01-31T13:37:20.000Z</time>
      </trkpt>
      <trkpt lat="45.57804" lon="6.57076">
        <ele>2365.8000488281</ele>
        <time>2014-01-31T13:37:21.000Z</time>
      </trkpt>
      <trkpt lat="45.57804" lon="6.57076">
        <ele>2365.6000976562</ele>
        <time>2014-01-31T13:37:22.000Z</time>
      </trkpt>
      <trkpt lat="45.57804" lon="6.57076">
        <ele>2365.6000976562</ele>
        <time>2014-01-31T13:37:23.000Z</time>
      </trkpt>
      <trkpt lat="45.57804" lon="6.57076">
        <ele>2365.6000976562</ele>
        <time>2014-01-31T13:37:24.000Z</time>
      </trkpt>
      <trkpt lat="45.57804" lon="6.57076">
        <ele>2365.3999023438</ele>
        <time>2014-01-31T13:37:25.000Z</time>
      </trkpt>
      <trkpt lat="45.57804" lon="6.57076">
        <ele>2365.3999023438</ele>
        <time>2014-01-31T13:37:26.000Z</time>
      </trkpt>
      <trkpt lat="45.57804" lon="6.57076">
        <ele>2365.3999023438</ele>
        <time>2014-01-31T13:37:27.000Z</time>
      </trkpt>
      <trkpt lat="45.57804" lon="6.57076">
        <ele>2365.3999023438</ele>
        <time>2014-01-31T13:37:28.000Z</time>
      </trkpt>
      <trkpt lat="45.57804" lon="6.57076">
        <ele>2365.3999023438</ele>
        <time>2014-01-31T13:37:29.000Z</time>
      </trkpt>
      <trkpt lat="45.57804" lon="6.57076">
        <ele>2365.8000488281</ele>
        <time>2014-01-31T13:37:30.000Z</time>
      </trkpt>
      <trkpt lat="45.57804" lon="6.57076">
        <ele>2366</ele>
        <time>2014-01-31T13:37:31.000Z</time>
      </trkpt>
      <trkpt lat="45.57804" lon="6.57076">
        <ele>2366</ele>
        <time>2014-01-31T13:37:32.000Z</time>
      </trkpt>
      <trkpt lat="45.57804" lon="6.57076">
        <ele>2366.1999511719</ele>
        <time>2014-01-31T13:37:33.000Z</time>
      </trkpt>
      <trkpt lat="45.57804" lon="6.57076">
        <ele>2366.1999511719</ele>
        <time>2014-01-31T13:37:34.000Z</time>
      </trkpt>
      <trkpt lat="45.57804" lon="6.57076">
        <ele>2366</ele>
        <time>2014-01-31T13:37:35.000Z</time>
      </trkpt>
      <trkpt lat="45.57804" lon="6.57076">
        <ele>2365.8000488281</ele>
        <time>2014-01-31T13:37:36.000Z</time>
      </trkpt>
      <trkpt lat="45.57804" lon="6.57076">
        <ele>2365.8000488281</ele>
        <time>2014-01-31T13:37:37.000Z</time>
      </trkpt>
      <trkpt lat="45.57804" lon="6.57076">
        <ele>2365.8000488281</ele>
        <time>2014-01-31T13:37:38.000Z</time>
      </trkpt>
      <trkpt lat="45.57804" lon="6.57076">
        <ele>2365.8000488281</ele>
        <time>2014-01-31T13:37:39.000Z</time>
      </trkpt>
      <trkpt lat="45.57804" lon="6.57076">
        <ele>2365.8000488281</ele>
        <time>2014-01-31T13:37:40.000Z</time>
      </trkpt>
      <trkpt lat="45.57804" lon="6.57076">
        <ele>2365.8000488281</ele>
        <time>2014-01-31T13:37:41.000Z</time>
      </trkpt>
      <trkpt lat="45.57804" lon="6.57076">
        <ele>2365.6000976562</ele>
        <time>2014-01-31T13:37:44.000Z</time>
      </trkpt>
      <trkpt lat="45.57804" lon="6.57076">
        <ele>2365.6000976562</ele>
        <time>2014-01-31T13:37:45.000Z</time>
      </trkpt>
      <trkpt lat="45.57804" lon="6.57076">
        <ele>2365.6000976562</ele>
        <time>2014-01-31T13:37:47.000Z</time>
      </trkpt>
      <trkpt lat="45.57804" lon="6.57076">
        <ele>2365.8000488281</ele>
        <time>2014-01-31T13:37:48.000Z</time>
      </trkpt>
      <trkpt lat="45.57804" lon="6.57076">
        <ele>2365.8000488281</ele>
        <time>2014-01-31T13:37:49.000Z</time>
      </trkpt>
      <trkpt lat="45.57804" lon="6.57076">
        <ele>2366</ele>
        <time>2014-01-31T13:37:50.000Z</time>
      </trkpt>
      <trkpt lat="45.57804" lon="6.57076">
        <ele>2366</ele>
        <time>2014-01-31T13:37:51.000Z</time>
      </trkpt>
      <trkpt lat="45.57804" lon="6.57076">
        <ele>2366</ele>
        <time>2014-01-31T13:37:52.000Z</time>
      </trkpt>
      <trkpt lat="45.57804" lon="6.57076">
        <ele>2366</ele>
        <time>2014-01-31T13:37:53.000Z</time>
      </trkpt>
      <trkpt lat="45.57804" lon="6.57076">
        <ele>2366</ele>
        <time>2014-01-31T13:37:55.000Z</time>
      </trkpt>
      <trkpt lat="45.57804" lon="6.57076">
        <ele>2366</ele>
        <time>2014-01-31T13:37:56.000Z</time>
      </trkpt>
      <trkpt lat="45.57804" lon="6.57076">
        <ele>2366</ele>
        <time>2014-01-31T13:37:57.000Z</time>
      </trkpt>
      <trkpt lat="45.57804" lon="6.57076">
        <ele>2366</ele>
        <time>2014-01-31T13:37:58.000Z</time>
      </trkpt>
      <trkpt lat="45.57804" lon="6.57076">
        <ele>2366</ele>
        <time>2014-01-31T13:37:59.000Z</time>
      </trkpt>
      <trkpt lat="45.57804" lon="6.57076">
        <ele>2366</ele>
        <time>2014-01-31T13:38:00.000Z</time>
      </trkpt>
      <trkpt lat="45.57804" lon="6.57076">
        <ele>2366</ele>
        <time>2014-01-31T13:38:02.000Z</time>
      </trkpt>
      <trkpt lat="45.57804" lon="6.57076">
        <ele>2366</ele>
        <time>2014-01-31T13:38:03.000Z</time>
      </trkpt>
      <trkpt lat="45.57804" lon="6.57076">
        <ele>2366</ele>
        <time>2014-01-31T13:38:04.000Z</time>
      </trkpt>
      <trkpt lat="45.57804" lon="6.57076">
        <ele>2366</ele>
        <time>2014-01-31T13:38:05.000Z</time>
      </trkpt>
      <trkpt lat="45.57804" lon="6.57076">
        <ele>2366</ele>
        <time>2014-01-31T13:38:06.000Z</time>
      </trkpt>
      <trkpt lat="45.57804" lon="6.57076">
        <ele>2366</ele>
        <time>2014-01-31T13:38:07.000Z</time>
      </trkpt>
      <trkpt lat="45.57804" lon="6.57076">
        <ele>2366</ele>
        <time>2014-01-31T13:38:08.000Z</time>
      </trkpt>
      <trkpt lat="45.57804" lon="6.57076">
        <ele>2366</ele>
        <time>2014-01-31T13:38:09.000Z</time>
      </trkpt>
      <trkpt lat="45.57804" lon="6.57076">
        <ele>2366.1999511719</ele>
        <time>2014-01-31T13:38:10.000Z</time>
      </trkpt>
      <trkpt lat="45.57804" lon="6.57076">
        <ele>2366.1999511719</ele>
        <time>2014-01-31T13:38:11.000Z</time>
      </trkpt>
      <trkpt lat="45.57804" lon="6.57076">
        <ele>2366.1999511719</ele>
        <time>2014-01-31T13:38:12.000Z</time>
      </trkpt>
      <trkpt lat="45.57804" lon="6.57076">
        <ele>2366.1999511719</ele>
        <time>2014-01-31T13:38:13.000Z</time>
      </trkpt>
      <trkpt lat="45.57804" lon="6.57076">
        <ele>2366.1999511719</ele>
        <time>2014-01-31T13:38:14.000Z</time>
      </trkpt>
      <trkpt lat="45.57804" lon="6.57076">
        <ele>2366.1999511719</ele>
        <time>2014-01-31T13:38:15.000Z</time>
      </trkpt>
      <trkpt lat="45.57804" lon="6.57076">
        <ele>2366.1999511719</ele>
        <time>2014-01-31T13:38:16.000Z</time>
      </trkpt>
      <trkpt lat="45.57804" lon="6.57076">
        <ele>2366.1999511719</ele>
        <time>2014-01-31T13:38:18.000Z</time>
      </trkpt>
      <trkpt lat="45.57804" lon="6.57076">
        <ele>2366.1999511719</ele>
        <time>2014-01-31T13:38:19.000Z</time>
      </trkpt>
      <trkpt lat="45.57804" lon="6.57076">
        <ele>2366.1999511719</ele>
        <time>2014-01-31T13:38:20.000Z</time>
      </trkpt>
      <trkpt lat="45.57804" lon="6.57076">
        <ele>2366.1999511719</ele>
        <time>2014-01-31T13:38:21.000Z</time>
      </trkpt>
      <trkpt lat="45.57804" lon="6.57076">
        <ele>2366.1999511719</ele>
        <time>2014-01-31T13:38:22.000Z</time>
      </trkpt>
      <trkpt lat="45.57804" lon="6.57076">
        <ele>2366.1999511719</ele>
        <time>2014-01-31T13:38:23.000Z</time>
      </trkpt>
      <trkpt lat="45.57804" lon="6.57076">
        <ele>2366.1999511719</ele>
        <time>2014-01-31T13:38:24.000Z</time>
      </trkpt>
      <trkpt lat="45.57804" lon="6.57076">
        <ele>2366.1999511719</ele>
        <time>2014-01-31T13:38:28.000Z</time>
      </trkpt>
      <trkpt lat="45.57804" lon="6.57076">
        <ele>2366.1999511719</ele>
        <time>2014-01-31T13:38:29.000Z</time>
      </trkpt>
      <trkpt lat="45.57804" lon="6.57076">
        <ele>2366</ele>
        <time>2014-01-31T13:38:30.000Z</time>
      </trkpt>
      <trkpt lat="45.57804" lon="6.57076">
        <ele>2366</ele>
        <time>2014-01-31T13:38:31.000Z</time>
      </trkpt>
      <trkpt lat="45.57804" lon="6.57076">
        <ele>2366</ele>
        <time>2014-01-31T13:38:32.000Z</time>
      </trkpt>
      <trkpt lat="45.57804" lon="6.57076">
        <ele>2366</ele>
        <time>2014-01-31T13:38:33.000Z</time>
      </trkpt>
      <trkpt lat="45.57804" lon="6.57076">
        <ele>2366</ele>
        <time>2014-01-31T13:38:34.000Z</time>
      </trkpt>
      <trkpt lat="45.57804" lon="6.57076">
        <ele>2366</ele>
        <time>2014-01-31T13:38:35.000Z</time>
      </trkpt>
      <trkpt lat="45.57804" lon="6.57076">
        <ele>2365.8000488281</ele>
        <time>2014-01-31T13:38:36.000Z</time>
      </trkpt>
      <trkpt lat="45.57804" lon="6.57076">
        <ele>2365.8000488281</ele>
        <time>2014-01-31T13:38:37.000Z</time>
      </trkpt>
      <trkpt lat="45.57804" lon="6.57076">
        <ele>2365.8000488281</ele>
        <time>2014-01-31T13:38:38.000Z</time>
      </trkpt>
      <trkpt lat="45.57804" lon="6.57076">
        <ele>2365.8000488281</ele>
        <time>2014-01-31T13:38:40.000Z</time>
      </trkpt>
      <trkpt lat="45.57804" lon="6.57076">
        <ele>2365.8000488281</ele>
        <time>2014-01-31T13:38:43.000Z</time>
      </trkpt>
      <trkpt lat="45.57804" lon="6.57076">
        <ele>2365.8000488281</ele>
        <time>2014-01-31T13:38:44.000Z</time>
      </trkpt>
      <trkpt lat="45.57804" lon="6.57076">
        <ele>2365.8000488281</ele>
        <time>2014-01-31T13:38:45.000Z</time>
      </trkpt>
      <trkpt lat="45.57804" lon="6.57076">
        <ele>2366</ele>
        <time>2014-01-31T13:38:46.000Z</time>
      </trkpt>
      <trkpt lat="45.57804" lon="6.57076">
        <ele>2366</ele>
        <time>2014-01-31T13:38:47.000Z</time>
      </trkpt>
      <trkpt lat="45.57804" lon="6.57076">
        <ele>2366</ele>
        <time>2014-01-31T13:38:48.000Z</time>
      </trkpt>
      <trkpt lat="45.57804" lon="6.57076">
        <ele>2366</ele>
        <time>2014-01-31T13:38:49.000Z</time>
      </trkpt>
      <trkpt lat="45.57804" lon="6.57076">
        <ele>2366</ele>
        <time>2014-01-31T13:38:50.000Z</time>
      </trkpt>
      <trkpt lat="45.57804" lon="6.57076">
        <ele>2366</ele>
        <time>2014-01-31T13:38:52.000Z</time>
      </trkpt>
      <trkpt lat="45.57804" lon="6.57076">
        <ele>2366</ele>
        <time>2014-01-31T13:38:53.000Z</time>
      </trkpt>
      <trkpt lat="45.57804" lon="6.57076">
        <ele>2366</ele>
        <time>2014-01-31T13:38:54.000Z</time>
      </trkpt>
      <trkpt lat="45.57804" lon="6.57076">
        <ele>2366</ele>
        <time>2014-01-31T13:38:55.000Z</time>
      </trkpt>
      <trkpt lat="45.57804" lon="6.57076">
        <ele>2366.1999511719</ele>
        <time>2014-01-31T13:38:56.000Z</time>
      </trkpt>
      <trkpt lat="45.57804" lon="6.57076">
        <ele>2366.1999511719</ele>
        <time>2014-01-31T13:38:57.000Z</time>
      </trkpt>
      <trkpt lat="45.57804" lon="6.57076">
        <ele>2366.1999511719</ele>
        <time>2014-01-31T13:38:58.000Z</time>
      </trkpt>
      <trkpt lat="45.57804" lon="6.57076">
        <ele>2366.1999511719</ele>
        <time>2014-01-31T13:38:59.000Z</time>
      </trkpt>
      <trkpt lat="45.57804" lon="6.57076">
        <ele>2366.1999511719</ele>
        <time>2014-01-31T13:39:00.000Z</time>
      </trkpt>
      <trkpt lat="45.57804" lon="6.57076">
        <ele>2366.1999511719</ele>
        <time>2014-01-31T13:39:01.000Z</time>
      </trkpt>
      <trkpt lat="45.57804" lon="6.57076">
        <ele>2366.1999511719</ele>
        <time>2014-01-31T13:39:02.000Z</time>
      </trkpt>
      <trkpt lat="45.57804" lon="6.57076">
        <ele>2366.3999023438</ele>
        <time>2014-01-31T13:39:04.000Z</time>
      </trkpt>
      <trkpt lat="45.57804" lon="6.57076">
        <ele>2366.1999511719</ele>
        <time>2014-01-31T13:39:05.000Z</time>
      </trkpt>
      <trkpt lat="45.57804" lon="6.57076">
        <ele>2366.1999511719</ele>
        <time>2014-01-31T13:39:06.000Z</time>
      </trkpt>
      <trkpt lat="45.57804" lon="6.57076">
        <ele>2366.1999511719</ele>
        <time>2014-01-31T13:39:08.000Z</time>
      </trkpt>
      <trkpt lat="45.57804" lon="6.57076">
        <ele>2366.1999511719</ele>
        <time>2014-01-31T13:39:09.000Z</time>
      </trkpt>
      <trkpt lat="45.57804" lon="6.57076">
        <ele>2366.1999511719</ele>
        <time>2014-01-31T13:39:11.000Z</time>
      </trkpt>
      <trkpt lat="45.57804" lon="6.57076">
        <ele>2366.1999511719</ele>
        <time>2014-01-31T13:39:12.000Z</time>
      </trkpt>
      <trkpt lat="45.57804" lon="6.57076">
        <ele>2366.1999511719</ele>
        <time>2014-01-31T13:39:13.000Z</time>
      </trkpt>
      <trkpt lat="45.57804" lon="6.57076">
        <ele>2366</ele>
        <time>2014-01-31T13:39:14.000Z</time>
      </trkpt>
      <trkpt lat="45.57804" lon="6.57076">
        <ele>2366</ele>
        <time>2014-01-31T13:39:15.000Z</time>
      </trkpt>
      <trkpt lat="45.57804" lon="6.57076">
        <ele>2366</ele>
        <time>2014-01-31T13:39:16.000Z</time>
      </trkpt>
      <trkpt lat="45.57804" lon="6.57076">
        <ele>2366</ele>
        <time>2014-01-31T13:39:17.000Z</time>
      </trkpt>
      <trkpt lat="45.57804" lon="6.57076">
        <ele>2366</ele>
        <time>2014-01-31T13:39:18.000Z</time>
      </trkpt>
      <trkpt lat="45.57804" lon="6.57076">
        <ele>2366</ele>
        <time>2014-01-31T13:39:19.000Z</time>
      </trkpt>
      <trkpt lat="45.57804" lon="6.57076">
        <ele>2366</ele>
        <time>2014-01-31T13:39:20.000Z</time>
      </trkpt>
      <trkpt lat="45.57804" lon="6.57076">
        <ele>2366</ele>
        <time>2014-01-31T13:39:21.000Z</time>
      </trkpt>
      <trkpt lat="45.57804" lon="6.57076">
        <ele>2366</ele>
        <time>2014-01-31T13:39:22.000Z</time>
      </trkpt>
      <trkpt lat="45.57804" lon="6.57076">
        <ele>2366.1999511719</ele>
        <time>2014-01-31T13:39:23.000Z</time>
      </trkpt>
      <trkpt lat="45.57804" lon="6.57076">
        <ele>2366</ele>
        <time>2014-01-31T13:39:28.000Z</time>
      </trkpt>
      <trkpt lat="45.57804" lon="6.57076">
        <ele>2366</ele>
        <time>2014-01-31T13:39:29.000Z</time>
      </trkpt>
      <trkpt lat="45.57804" lon="6.57076">
        <ele>2365.8000488281</ele>
        <time>2014-01-31T13:39:30.000Z</time>
      </trkpt>
      <trkpt lat="45.57804" lon="6.57076">
        <ele>2365.8000488281</ele>
        <time>2014-01-31T13:39:31.000Z</time>
      </trkpt>
      <trkpt lat="45.57804" lon="6.57076">
        <ele>2365.6000976562</ele>
        <time>2014-01-31T13:39:32.000Z</time>
      </trkpt>
      <trkpt lat="45.57804" lon="6.57076">
        <ele>2365.3999023438</ele>
        <time>2014-01-31T13:39:33.000Z</time>
      </trkpt>
      <trkpt lat="45.57804" lon="6.57076">
        <ele>2365.1999511719</ele>
        <time>2014-01-31T13:39:34.000Z</time>
      </trkpt>
      <trkpt lat="45.57804" lon="6.57076">
        <ele>2365.1999511719</ele>
        <time>2014-01-31T13:39:35.000Z</time>
      </trkpt>
      <trkpt lat="45.57804" lon="6.57076">
        <ele>2365.3999023438</ele>
        <time>2014-01-31T13:39:36.000Z</time>
      </trkpt>
      <trkpt lat="45.57804" lon="6.57076">
        <ele>2365.6000976562</ele>
        <time>2014-01-31T13:39:37.000Z</time>
      </trkpt>
      <trkpt lat="45.57804" lon="6.57076">
        <ele>2365.6000976562</ele>
        <time>2014-01-31T13:39:38.000Z</time>
      </trkpt>
      <trkpt lat="45.57804" lon="6.57076">
        <ele>2365.8000488281</ele>
        <time>2014-01-31T13:39:39.000Z</time>
      </trkpt>
      <trkpt lat="45.57804" lon="6.57076">
        <ele>2366</ele>
        <time>2014-01-31T13:39:40.000Z</time>
      </trkpt>
      <trkpt lat="45.57804" lon="6.57076">
        <ele>2366.1999511719</ele>
        <time>2014-01-31T13:39:41.000Z</time>
      </trkpt>
      <trkpt lat="45.57804" lon="6.57076">
        <ele>2366.3999023438</ele>
        <time>2014-01-31T13:39:42.000Z</time>
      </trkpt>
      <trkpt lat="45.57804" lon="6.57076">
        <ele>2366.1999511719</ele>
        <time>2014-01-31T13:39:43.000Z</time>
      </trkpt>
      <trkpt lat="45.57804" lon="6.57076">
        <ele>2366.1999511719</ele>
        <time>2014-01-31T13:39:44.000Z</time>
      </trkpt>
      <trkpt lat="45.57804" lon="6.57076">
        <ele>2366.1999511719</ele>
        <time>2014-01-31T13:39:45.000Z</time>
      </trkpt>
      <trkpt lat="45.57804" lon="6.57076">
        <ele>2366</ele>
        <time>2014-01-31T13:39:46.000Z</time>
      </trkpt>
      <trkpt lat="45.57804" lon="6.57076">
        <ele>2365.6000976562</ele>
        <time>2014-01-31T13:39:47.000Z</time>
      </trkpt>
      <trkpt lat="45.57804" lon="6.57076">
        <ele>2365.1999511719</ele>
        <time>2014-01-31T13:39:48.000Z</time>
      </trkpt>
      <trkpt lat="45.57804" lon="6.57076">
        <ele>2364.8000488281</ele>
        <time>2014-01-31T13:39:49.000Z</time>
      </trkpt>
      <trkpt lat="45.57804" lon="6.57076">
        <ele>2364.8000488281</ele>
        <time>2014-01-31T13:39:50.000Z</time>
      </trkpt>
      <trkpt lat="45.57804" lon="6.57076">
        <ele>2364.8000488281</ele>
        <time>2014-01-31T13:39:51.000Z</time>
      </trkpt>
      <trkpt lat="45.57804" lon="6.57076">
        <ele>2365</ele>
        <time>2014-01-31T13:39:52.000Z</time>
      </trkpt>
      <trkpt lat="45.57804" lon="6.57076">
        <ele>2365.1999511719</ele>
        <time>2014-01-31T13:39:53.000Z</time>
      </trkpt>
      <trkpt lat="45.57804" lon="6.57076">
        <ele>2365.3999023438</ele>
        <time>2014-01-31T13:39:54.000Z</time>
      </trkpt>
      <trkpt lat="45.57804" lon="6.57076">
        <ele>2365.6000976562</ele>
        <time>2014-01-31T13:39:55.000Z</time>
      </trkpt>
      <trkpt lat="45.57804" lon="6.57076">
        <ele>2365.6000976562</ele>
        <time>2014-01-31T13:39:56.000Z</time>
      </trkpt>
      <trkpt lat="45.57804" lon="6.57076">
        <ele>2365.6000976562</ele>
        <time>2014-01-31T13:39:57.000Z</time>
      </trkpt>
      <trkpt lat="45.57804" lon="6.57076">
        <ele>2365.6000976562</ele>
        <time>2014-01-31T13:39:58.000Z</time>
      </trkpt>
      <trkpt lat="45.57804" lon="6.57076">
        <ele>2365.6000976562</ele>
        <time>2014-01-31T13:39:59.000Z</time>
      </trkpt>
      <trkpt lat="45.57804" lon="6.57076">
        <ele>2365.3999023438</ele>
        <time>2014-01-31T13:40:00.000Z</time>
      </trkpt>
      <trkpt lat="45.57804" lon="6.57076">
        <ele>2365.3999023438</ele>
        <time>2014-01-31T13:40:01.000Z</time>
      </trkpt>
      <trkpt lat="45.57804" lon="6.57076">
        <ele>2365.3999023438</ele>
        <time>2014-01-31T13:40:02.000Z</time>
      </trkpt>
      <trkpt lat="45.57804" lon="6.57076">
        <ele>2365.3999023438</ele>
        <time>2014-01-31T13:40:03.000Z</time>
      </trkpt>
      <trkpt lat="45.57804" lon="6.57076">
        <ele>2365.3999023438</ele>
        <time>2014-01-31T13:40:04.000Z</time>
      </trkpt>
      <trkpt lat="45.57804" lon="6.57076">
        <ele>2365.3999023438</ele>
        <time>2014-01-31T13:40:06.000Z</time>
      </trkpt>
      <trkpt lat="45.57804" lon="6.57076">
        <ele>2365.1999511719</ele>
        <time>2014-01-31T13:40:07.000Z</time>
      </trkpt>
      <trkpt lat="45.57804" lon="6.57076">
        <ele>2365.1999511719</ele>
        <time>2014-01-31T13:40:08.000Z</time>
      </trkpt>
      <trkpt lat="45.57804" lon="6.57076">
        <ele>2365.1999511719</ele>
        <time>2014-01-31T13:40:09.000Z</time>
      </trkpt>
      <trkpt lat="45.57804" lon="6.57076">
        <ele>2365</ele>
        <time>2014-01-31T13:40:10.000Z</time>
      </trkpt>
      <trkpt lat="45.57804" lon="6.57076">
        <ele>2365</ele>
        <time>2014-01-31T13:40:11.000Z</time>
      </trkpt>
      <trkpt lat="45.57804" lon="6.57076">
        <ele>2365</ele>
        <time>2014-01-31T13:40:12.000Z</time>
      </trkpt>
      <trkpt lat="45.57804" lon="6.57076">
        <ele>2364.8000488281</ele>
        <time>2014-01-31T13:40:14.000Z</time>
      </trkpt>
      <trkpt lat="45.57804" lon="6.57076">
        <ele>2364.8000488281</ele>
        <time>2014-01-31T13:40:15.000Z</time>
      </trkpt>
      <trkpt lat="45.57804" lon="6.57076">
        <ele>2364.8000488281</ele>
        <time>2014-01-31T13:40:16.000Z</time>
      </trkpt>
      <trkpt lat="45.57804" lon="6.57076">
        <ele>2364.8000488281</ele>
        <time>2014-01-31T13:40:17.000Z</time>
      </trkpt>
      <trkpt lat="45.57804" lon="6.57076">
        <ele>2364.8000488281</ele>
        <time>2014-01-31T13:40:18.000Z</time>
      </trkpt>
      <trkpt lat="45.57804" lon="6.57076">
        <ele>2364.8000488281</ele>
        <time>2014-01-31T13:40:19.000Z</time>
      </trkpt>
      <trkpt lat="45.57804" lon="6.57076">
        <ele>2364.8000488281</ele>
        <time>2014-01-31T13:40:20.000Z</time>
      </trkpt>
      <trkpt lat="45.57804" lon="6.57076">
        <ele>2364.6000976562</ele>
        <time>2014-01-31T13:40:21.000Z</time>
      </trkpt>
      <trkpt lat="45.57804" lon="6.57076">
        <ele>2364.6000976562</ele>
        <time>2014-01-31T13:40:22.000Z</time>
      </trkpt>
      <trkpt lat="45.57804" lon="6.57076">
        <ele>2364.6000976562</ele>
        <time>2014-01-31T13:40:23.000Z</time>
      </trkpt>
      <trkpt lat="45.57804" lon="6.57076">
        <ele>2364.6000976562</ele>
        <time>2014-01-31T13:40:24.000Z</time>
      </trkpt>
      <trkpt lat="45.57804" lon="6.57076">
        <ele>2364.6000976562</ele>
        <time>2014-01-31T13:40:25.000Z</time>
      </trkpt>
      <trkpt lat="45.57804" lon="6.57076">
        <ele>2364.6000976562</ele>
        <time>2014-01-31T13:40:26.000Z</time>
      </trkpt>
      <trkpt lat="45.57804" lon="6.57076">
        <ele>2364.8000488281</ele>
        <time>2014-01-31T13:40:27.000Z</time>
      </trkpt>
      <trkpt lat="45.57804" lon="6.57076">
        <ele>2364.8000488281</ele>
        <time>2014-01-31T13:40:28.000Z</time>
      </trkpt>
      <trkpt lat="45.57804" lon="6.57076">
        <ele>2364.8000488281</ele>
        <time>2014-01-31T13:40:29.000Z</time>
      </trkpt>
      <trkpt lat="45.57804" lon="6.57076">
        <ele>2365</ele>
        <time>2014-01-31T13:40:30.000Z</time>
      </trkpt>
      <trkpt lat="45.57804" lon="6.57076">
        <ele>2365</ele>
        <time>2014-01-31T13:40:31.000Z</time>
      </trkpt>
      <trkpt lat="45.57804" lon="6.57076">
        <ele>2365</ele>
        <time>2014-01-31T13:40:32.000Z</time>
      </trkpt>
      <trkpt lat="45.57804" lon="6.57076">
        <ele>2365</ele>
        <time>2014-01-31T13:40:33.000Z</time>
      </trkpt>
      <trkpt lat="45.57804" lon="6.57076">
        <ele>2365</ele>
        <time>2014-01-31T13:40:34.000Z</time>
      </trkpt>
      <trkpt lat="45.57804" lon="6.57076">
        <ele>2365</ele>
        <time>2014-01-31T13:40:35.000Z</time>
      </trkpt>
      <trkpt lat="45.57804" lon="6.57076">
        <ele>2365.1999511719</ele>
        <time>2014-01-31T13:40:36.000Z</time>
      </trkpt>
      <trkpt lat="45.57804" lon="6.57076">
        <ele>2365.1999511719</ele>
        <time>2014-01-31T13:40:37.000Z</time>
      </trkpt>
      <trkpt lat="45.57804" lon="6.57076">
        <ele>2365</ele>
        <time>2014-01-31T13:40:38.000Z</time>
      </trkpt>
      <trkpt lat="45.57804" lon="6.57076">
        <ele>2365.1999511719</ele>
        <time>2014-01-31T13:40:39.000Z</time>
      </trkpt>
      <trkpt lat="45.57804" lon="6.57076">
        <ele>2365.6000976562</ele>
        <time>2014-01-31T13:40:40.000Z</time>
      </trkpt>
      <trkpt lat="45.57804" lon="6.57076">
        <ele>2365.6000976562</ele>
        <time>2014-01-31T13:40:41.000Z</time>
      </trkpt>
      <trkpt lat="45.57804" lon="6.57076">
        <ele>2365.6000976562</ele>
        <time>2014-01-31T13:40:42.000Z</time>
      </trkpt>
      <trkpt lat="45.57804" lon="6.57076">
        <ele>2365.8000488281</ele>
        <time>2014-01-31T13:40:43.000Z</time>
      </trkpt>
      <trkpt lat="45.57804" lon="6.57076">
        <ele>2365.8000488281</ele>
        <time>2014-01-31T13:40:44.000Z</time>
      </trkpt>
      <trkpt lat="45.57804" lon="6.57076">
        <ele>2365.8000488281</ele>
        <time>2014-01-31T13:40:45.000Z</time>
      </trkpt>
      <trkpt lat="45.57804" lon="6.57076">
        <ele>2365.8000488281</ele>
        <time>2014-01-31T13:40:47.000Z</time>
      </trkpt>
      <trkpt lat="45.57804" lon="6.57076">
        <ele>2365.6000976562</ele>
        <time>2014-01-31T13:40:48.000Z</time>
      </trkpt>
      <trkpt lat="45.57804" lon="6.57076">
        <ele>2365.6000976562</ele>
        <time>2014-01-31T13:40:49.000Z</time>
      </trkpt>
      <trkpt lat="45.57804" lon="6.57076">
        <ele>2365.6000976562</ele>
        <time>2014-01-31T13:40:50.000Z</time>
      </trkpt>
      <trkpt lat="45.57804" lon="6.57076">
        <ele>2365.6000976562</ele>
        <time>2014-01-31T13:40:51.000Z</time>
      </trkpt>
      <trkpt lat="45.57804" lon="6.57076">
        <ele>2365.6000976562</ele>
        <time>2014-01-31T13:40:52.000Z</time>
      </trkpt>
      <trkpt lat="45.57804" lon="6.57076">
        <ele>2365.6000976562</ele>
        <time>2014-01-31T13:40:53.000Z</time>
      </trkpt>
      <trkpt lat="45.57804" lon="6.57076">
        <ele>2365.6000976562</ele>
        <time>2014-01-31T13:40:54.000Z</time>
      </trkpt>
      <trkpt lat="45.57804" lon="6.57076">
        <ele>2365.6000976562</ele>
        <time>2014-01-31T13:40:55.000Z</time>
      </trkpt>
      <trkpt lat="45.57804" lon="6.57076">
        <ele>2365.6000976562</ele>
        <time>2014-01-31T13:40:57.000Z</time>
      </trkpt>
      <trkpt lat="45.57804" lon="6.57076">
        <ele>2365.6000976562</ele>
        <time>2014-01-31T13:40:58.000Z</time>
      </trkpt>
      <trkpt lat="45.57804" lon="6.57076">
        <ele>2365.3999023438</ele>
        <time>2014-01-31T13:40:59.000Z</time>
      </trkpt>
      <trkpt lat="45.57804" lon="6.57076">
        <ele>2365.3999023438</ele>
        <time>2014-01-31T13:41:00.000Z</time>
      </trkpt>
      <trkpt lat="45.57804" lon="6.57076">
        <ele>2365.6000976562</ele>
        <time>2014-01-31T13:41:01.000Z</time>
      </trkpt>
      <trkpt lat="45.57804" lon="6.57076">
        <ele>2365.6000976562</ele>
        <time>2014-01-31T13:41:02.000Z</time>
      </trkpt>
      <trkpt lat="45.57804" lon="6.57076">
        <ele>2365.6000976562</ele>
        <time>2014-01-31T13:41:03.000Z</time>
      </trkpt>
      <trkpt lat="45.57804" lon="6.57076">
        <ele>2365.6000976562</ele>
        <time>2014-01-31T13:41:04.000Z</time>
      </trkpt>
      <trkpt lat="45.57804" lon="6.57076">
        <ele>2365.3999023438</ele>
        <time>2014-01-31T13:41:05.000Z</time>
      </trkpt>
      <trkpt lat="45.57804" lon="6.57076">
        <ele>2365.3999023438</ele>
        <time>2014-01-31T13:41:06.000Z</time>
      </trkpt>
      <trkpt lat="45.57804" lon="6.57076">
        <ele>2365.3999023438</ele>
        <time>2014-01-31T13:41:07.000Z</time>
      </trkpt>
      <trkpt lat="45.57804" lon="6.57076">
        <ele>2365.3999023438</ele>
        <time>2014-01-31T13:41:08.000Z</time>
      </trkpt>
      <trkpt lat="45.57804" lon="6.57076">
        <ele>2365.6000976562</ele>
        <time>2014-01-31T13:41:09.000Z</time>
      </trkpt>
      <trkpt lat="45.57804" lon="6.57076">
        <ele>2365.8000488281</ele>
        <time>2014-01-31T13:41:10.000Z</time>
      </trkpt>
      <trkpt lat="45.57804" lon="6.57076">
        <ele>2366</ele>
        <time>2014-01-31T13:41:11.000Z</time>
      </trkpt>
      <trkpt lat="45.57804" lon="6.57076">
        <ele>2366</ele>
        <time>2014-01-31T13:41:12.000Z</time>
      </trkpt>
      <trkpt lat="45.57804" lon="6.57076">
        <ele>2366.1999511719</ele>
        <time>2014-01-31T13:41:13.000Z</time>
      </trkpt>
      <trkpt lat="45.57804" lon="6.57076">
        <ele>2366.1999511719</ele>
        <time>2014-01-31T13:41:14.000Z</time>
      </trkpt>
      <trkpt lat="45.57804" lon="6.57076">
        <ele>2366.1999511719</ele>
        <time>2014-01-31T13:41:15.000Z</time>
      </trkpt>
      <trkpt lat="45.57804" lon="6.57076">
        <ele>2366.3999023438</ele>
        <time>2014-01-31T13:41:16.000Z</time>
      </trkpt>
      <trkpt lat="45.57804" lon="6.57076">
        <ele>2366.3999023438</ele>
        <time>2014-01-31T13:41:19.000Z</time>
      </trkpt>
      <trkpt lat="45.57804" lon="6.57076">
        <ele>2366.3999023438</ele>
        <time>2014-01-31T13:41:20.000Z</time>
      </trkpt>
      <trkpt lat="45.57804" lon="6.57076">
        <ele>2366.3999023438</ele>
        <time>2014-01-31T13:41:21.000Z</time>
      </trkpt>
      <trkpt lat="45.57804" lon="6.57076">
        <ele>2366.3999023438</ele>
        <time>2014-01-31T13:41:22.000Z</time>
      </trkpt>
      <trkpt lat="45.57804" lon="6.57076">
        <ele>2366.1999511719</ele>
        <time>2014-01-31T13:41:23.000Z</time>
      </trkpt>
      <trkpt lat="45.57804" lon="6.57076">
        <ele>2366.1999511719</ele>
        <time>2014-01-31T13:41:24.000Z</time>
      </trkpt>
      <trkpt lat="45.57804" lon="6.57076">
        <ele>2366.1999511719</ele>
        <time>2014-01-31T13:41:25.000Z</time>
      </trkpt>
      <trkpt lat="45.57804" lon="6.57076">
        <ele>2366</ele>
        <time>2014-01-31T13:41:26.000Z</time>
      </trkpt>
      <trkpt lat="45.57804" lon="6.57076">
        <ele>2366</ele>
        <time>2014-01-31T13:41:27.000Z</time>
      </trkpt>
      <trkpt lat="45.57804" lon="6.57076">
        <ele>2366</ele>
        <time>2014-01-31T13:41:28.000Z</time>
      </trkpt>
      <trkpt lat="45.57804" lon="6.57076">
        <ele>2366</ele>
        <time>2014-01-31T13:41:29.000Z</time>
      </trkpt>
      <trkpt lat="45.57804" lon="6.57076">
        <ele>2366</ele>
        <time>2014-01-31T13:41:31.000Z</time>
      </trkpt>
      <trkpt lat="45.57804" lon="6.57076">
        <ele>2366</ele>
        <time>2014-01-31T13:41:32.000Z</time>
      </trkpt>
      <trkpt lat="45.57804" lon="6.57076">
        <ele>2366</ele>
        <time>2014-01-31T13:41:33.000Z</time>
      </trkpt>
      <trkpt lat="45.57804" lon="6.57076">
        <ele>2365.8000488281</ele>
        <time>2014-01-31T13:41:34.000Z</time>
      </trkpt>
      <trkpt lat="45.57804" lon="6.57076">
        <ele>2365.8000488281</ele>
        <time>2014-01-31T13:41:35.000Z</time>
      </trkpt>
      <trkpt lat="45.57804" lon="6.57076">
        <ele>2365.8000488281</ele>
        <time>2014-01-31T13:41:36.000Z</time>
      </trkpt>
      <trkpt lat="45.57804" lon="6.57076">
        <ele>2365.6000976562</ele>
        <time>2014-01-31T13:41:37.000Z</time>
      </trkpt>
      <trkpt lat="45.57804" lon="6.57076">
        <ele>2365.6000976562</ele>
        <time>2014-01-31T13:41:38.000Z</time>
      </trkpt>
      <trkpt lat="45.57804" lon="6.57076">
        <ele>2365.6000976562</ele>
        <time>2014-01-31T13:41:39.000Z</time>
      </trkpt>
      <trkpt lat="45.57804" lon="6.57076">
        <ele>2365.3999023438</ele>
        <time>2014-01-31T13:41:40.000Z</time>
      </trkpt>
      <trkpt lat="45.57804" lon="6.57076">
        <ele>2365.3999023438</ele>
        <time>2014-01-31T13:41:41.000Z</time>
      </trkpt>
      <trkpt lat="45.57804" lon="6.57076">
        <ele>2365.3999023438</ele>
        <time>2014-01-31T13:41:42.000Z</time>
      </trkpt>
      <trkpt lat="45.57804" lon="6.57076">
        <ele>2365.3999023438</ele>
        <time>2014-01-31T13:41:43.000Z</time>
      </trkpt>
      <trkpt lat="45.57804" lon="6.57076">
        <ele>2365.3999023438</ele>
        <time>2014-01-31T13:41:44.000Z</time>
      </trkpt>
      <trkpt lat="45.57804" lon="6.57076">
        <ele>2365.3999023438</ele>
        <time>2014-01-31T13:41:45.000Z</time>
      </trkpt>
      <trkpt lat="45.57804" lon="6.57076">
        <ele>2365.1999511719</ele>
        <time>2014-01-31T13:41:47.000Z</time>
      </trkpt>
      <trkpt lat="45.57804" lon="6.57076">
        <ele>2365.1999511719</ele>
        <time>2014-01-31T13:41:48.000Z</time>
      </trkpt>
      <trkpt lat="45.57804" lon="6.57076">
        <ele>2365</ele>
        <time>2014-01-31T13:41:49.000Z</time>
      </trkpt>
      <trkpt lat="45.57804" lon="6.57076">
        <ele>2365</ele>
        <time>2014-01-31T13:41:50.000Z</time>
      </trkpt>
      <trkpt lat="45.57804" lon="6.57076">
        <ele>2365</ele>
        <time>2014-01-31T13:41:51.000Z</time>
      </trkpt>
      <trkpt lat="45.57804" lon="6.57076">
        <ele>2365</ele>
        <time>2014-01-31T13:41:52.000Z</time>
      </trkpt>
      <trkpt lat="45.57804" lon="6.57076">
        <ele>2365</ele>
        <time>2014-01-31T13:41:53.000Z</time>
      </trkpt>
      <trkpt lat="45.57804" lon="6.57076">
        <ele>2365.1999511719</ele>
        <time>2014-01-31T13:41:54.000Z</time>
      </trkpt>
      <trkpt lat="45.57804" lon="6.57076">
        <ele>2365.1999511719</ele>
        <time>2014-01-31T13:41:55.000Z</time>
      </trkpt>
      <trkpt lat="45.57804" lon="6.57076">
        <ele>2365.1999511719</ele>
        <time>2014-01-31T13:41:56.000Z</time>
      </trkpt>
      <trkpt lat="45.57804" lon="6.57076">
        <ele>2365.1999511719</ele>
        <time>2014-01-31T13:41:57.000Z</time>
      </trkpt>
      <trkpt lat="45.57804" lon="6.57076">
        <ele>2365.1999511719</ele>
        <time>2014-01-31T13:41:58.000Z</time>
      </trkpt>
      <trkpt lat="45.57804" lon="6.57076">
        <ele>2365.1999511719</ele>
        <time>2014-01-31T13:41:59.000Z</time>
      </trkpt>
      <trkpt lat="45.57804" lon="6.57076">
        <ele>2365.1999511719</ele>
        <time>2014-01-31T13:42:00.000Z</time>
      </trkpt>
      <trkpt lat="45.57804" lon="6.57076">
        <ele>2365</ele>
        <time>2014-01-31T13:42:01.000Z</time>
      </trkpt>
      <trkpt lat="45.57804" lon="6.57076">
        <ele>2365</ele>
        <time>2014-01-31T13:42:02.000Z</time>
      </trkpt>
      <trkpt lat="45.57804" lon="6.57076">
        <ele>2365</ele>
        <time>2014-01-31T13:42:03.000Z</time>
      </trkpt>
      <trkpt lat="45.57804" lon="6.57076">
        <ele>2365</ele>
        <time>2014-01-31T13:42:04.000Z</time>
      </trkpt>
      <trkpt lat="45.57804" lon="6.57076">
        <ele>2364.8000488281</ele>
        <time>2014-01-31T13:42:05.000Z</time>
      </trkpt>
      <trkpt lat="45.57804" lon="6.57076">
        <ele>2364.8000488281</ele>
        <time>2014-01-31T13:42:06.000Z</time>
      </trkpt>
      <trkpt lat="45.57804" lon="6.57076">
        <ele>2364.8000488281</ele>
        <time>2014-01-31T13:42:07.000Z</time>
      </trkpt>
      <trkpt lat="45.57804" lon="6.57076">
        <ele>2364.6000976562</ele>
        <time>2014-01-31T13:42:08.000Z</time>
      </trkpt>
      <trkpt lat="45.57804" lon="6.57076">
        <ele>2364.8000488281</ele>
        <time>2014-01-31T13:42:09.000Z</time>
      </trkpt>
      <trkpt lat="45.57804" lon="6.57076">
        <ele>2364.8000488281</ele>
        <time>2014-01-31T13:42:10.000Z</time>
      </trkpt>
      <trkpt lat="45.57804" lon="6.57076">
        <ele>2365</ele>
        <time>2014-01-31T13:42:11.000Z</time>
      </trkpt>
      <trkpt lat="45.57804" lon="6.57076">
        <ele>2365.1999511719</ele>
        <time>2014-01-31T13:42:12.000Z</time>
      </trkpt>
      <trkpt lat="45.57804" lon="6.57076">
        <ele>2365.3999023438</ele>
        <time>2014-01-31T13:42:13.000Z</time>
      </trkpt>
      <trkpt lat="45.57804" lon="6.57076">
        <ele>2365.6000976562</ele>
        <time>2014-01-31T13:42:14.000Z</time>
      </trkpt>
      <trkpt lat="45.57804" lon="6.57076">
        <ele>2365.6000976562</ele>
        <time>2014-01-31T13:42:15.000Z</time>
      </trkpt>
      <trkpt lat="45.57804" lon="6.57076">
        <ele>2365.8000488281</ele>
        <time>2014-01-31T13:42:16.000Z</time>
      </trkpt>
      <trkpt lat="45.57804" lon="6.57076">
        <ele>2365.8000488281</ele>
        <time>2014-01-31T13:42:17.000Z</time>
      </trkpt>
      <trkpt lat="45.57804" lon="6.57076">
        <ele>2365.8000488281</ele>
        <time>2014-01-31T13:42:18.000Z</time>
      </trkpt>
      <trkpt lat="45.57804" lon="6.57076">
        <ele>2365.8000488281</ele>
        <time>2014-01-31T13:42:19.000Z</time>
      </trkpt>
      <trkpt lat="45.57804" lon="6.57076">
        <ele>2365.8000488281</ele>
        <time>2014-01-31T13:42:20.000Z</time>
      </trkpt>
      <trkpt lat="45.57804" lon="6.57076">
        <ele>2365.8000488281</ele>
        <time>2014-01-31T13:42:21.000Z</time>
      </trkpt>
      <trkpt lat="45.57804" lon="6.57076">
        <ele>2365.6000976562</ele>
        <time>2014-01-31T13:42:22.000Z</time>
      </trkpt>
      <trkpt lat="45.57804" lon="6.57076">
        <ele>2365.6000976562</ele>
        <time>2014-01-31T13:42:23.000Z</time>
      </trkpt>
      <trkpt lat="45.57804" lon="6.57076">
        <ele>2365.6000976562</ele>
        <time>2014-01-31T13:42:24.000Z</time>
      </trkpt>
      <trkpt lat="45.57804" lon="6.57076">
        <ele>2365.3999023438</ele>
        <time>2014-01-31T13:42:25.000Z</time>
      </trkpt>
      <trkpt lat="45.57804" lon="6.57076">
        <ele>2365.3999023438</ele>
        <time>2014-01-31T13:42:26.000Z</time>
      </trkpt>
      <trkpt lat="45.57804" lon="6.57076">
        <ele>2365.3999023438</ele>
        <time>2014-01-31T13:42:27.000Z</time>
      </trkpt>
      <trkpt lat="45.57804" lon="6.57076">
        <ele>2365.1999511719</ele>
        <time>2014-01-31T13:42:28.000Z</time>
      </trkpt>
      <trkpt lat="45.57804" lon="6.57076">
        <ele>2365.1999511719</ele>
        <time>2014-01-31T13:42:29.000Z</time>
      </trkpt>
      <trkpt lat="45.57804" lon="6.57076">
        <ele>2365.3999023438</ele>
        <time>2014-01-31T13:42:30.000Z</time>
      </trkpt>
      <trkpt lat="45.57804" lon="6.57076">
        <ele>2365.3999023438</ele>
        <time>2014-01-31T13:42:31.000Z</time>
      </trkpt>
      <trkpt lat="45.57804" lon="6.57076">
        <ele>2365.3999023438</ele>
        <time>2014-01-31T13:42:32.000Z</time>
      </trkpt>
      <trkpt lat="45.57804" lon="6.57076">
        <ele>2365.3999023438</ele>
        <time>2014-01-31T13:42:33.000Z</time>
      </trkpt>
      <trkpt lat="45.57804" lon="6.57076">
        <ele>2365.3999023438</ele>
        <time>2014-01-31T13:42:35.000Z</time>
      </trkpt>
      <trkpt lat="45.57804" lon="6.57076">
        <ele>2365.3999023438</ele>
        <time>2014-01-31T13:42:36.000Z</time>
      </trkpt>
      <trkpt lat="45.57804" lon="6.57076">
        <ele>2365.3999023438</ele>
        <time>2014-01-31T13:42:37.000Z</time>
      </trkpt>
      <trkpt lat="45.57804" lon="6.57076">
        <ele>2365.3999023438</ele>
        <time>2014-01-31T13:42:38.000Z</time>
      </trkpt>
      <trkpt lat="45.57804" lon="6.57076">
        <ele>2365.1999511719</ele>
        <time>2014-01-31T13:42:39.000Z</time>
      </trkpt>
      <trkpt lat="45.57804" lon="6.57076">
        <ele>2365</ele>
        <time>2014-01-31T13:42:40.000Z</time>
      </trkpt>
      <trkpt lat="45.57804" lon="6.57076">
        <ele>2365</ele>
        <time>2014-01-31T13:42:41.000Z</time>
      </trkpt>
      <trkpt lat="45.57804" lon="6.57076">
        <ele>2365.1999511719</ele>
        <time>2014-01-31T13:42:43.000Z</time>
      </trkpt>
      <trkpt lat="45.57804" lon="6.57076">
        <ele>2365.1999511719</ele>
        <time>2014-01-31T13:42:44.000Z</time>
      </trkpt>
      <trkpt lat="45.57804" lon="6.57076">
        <ele>2365.3999023438</ele>
        <time>2014-01-31T13:42:45.000Z</time>
      </trkpt>
      <trkpt lat="45.57804" lon="6.57076">
        <ele>2365.3999023438</ele>
        <time>2014-01-31T13:42:46.000Z</time>
      </trkpt>
      <trkpt lat="45.57804" lon="6.57076">
        <ele>2365.3999023438</ele>
        <time>2014-01-31T13:42:47.000Z</time>
      </trkpt>
      <trkpt lat="45.57804" lon="6.57076">
        <ele>2365.6000976562</ele>
        <time>2014-01-31T13:42:48.000Z</time>
      </trkpt>
      <trkpt lat="45.57804" lon="6.57076">
        <ele>2365.6000976562</ele>
        <time>2014-01-31T13:42:49.000Z</time>
      </trkpt>
      <trkpt lat="45.57804" lon="6.57076">
        <ele>2365.6000976562</ele>
        <time>2014-01-31T13:42:50.000Z</time>
      </trkpt>
      <trkpt lat="45.57804" lon="6.57076">
        <ele>2365.6000976562</ele>
        <time>2014-01-31T13:42:51.000Z</time>
      </trkpt>
      <trkpt lat="45.57804" lon="6.57076">
        <ele>2365.3999023438</ele>
        <time>2014-01-31T13:42:52.000Z</time>
      </trkpt>
      <trkpt lat="45.57804" lon="6.57076">
        <ele>2365.3999023438</ele>
        <time>2014-01-31T13:42:53.000Z</time>
      </trkpt>
      <trkpt lat="45.57804" lon="6.57077">
        <ele>2365.3999023438</ele>
        <time>2014-01-31T13:42:54.000Z</time>
      </trkpt>
      <trkpt lat="45.57804" lon="6.57077">
        <ele>2365.3999023438</ele>
        <time>2014-01-31T13:42:55.000Z</time>
      </trkpt>
      <trkpt lat="45.57804" lon="6.57077">
        <ele>2365.3999023438</ele>
        <time>2014-01-31T13:42:56.000Z</time>
      </trkpt>
      <trkpt lat="45.57804" lon="6.57077">
        <ele>2365.3999023438</ele>
        <time>2014-01-31T13:42:57.000Z</time>
      </trkpt>
      <trkpt lat="45.57804" lon="6.57077">
        <ele>2365.1999511719</ele>
        <time>2014-01-31T13:42:58.000Z</time>
      </trkpt>
      <trkpt lat="45.57804" lon="6.57077">
        <ele>2365.3999023438</ele>
        <time>2014-01-31T13:42:59.000Z</time>
      </trkpt>
      <trkpt lat="45.57804" lon="6.57077">
        <ele>2365.3999023438</ele>
        <time>2014-01-31T13:43:00.000Z</time>
      </trkpt>
      <trkpt lat="45.57804" lon="6.57077">
        <ele>2365.1999511719</ele>
        <time>2014-01-31T13:43:01.000Z</time>
      </trkpt>
      <trkpt lat="45.57804" lon="6.57077">
        <ele>2365.1999511719</ele>
        <time>2014-01-31T13:43:02.000Z</time>
      </trkpt>
      <trkpt lat="45.57804" lon="6.57077">
        <ele>2365.3999023438</ele>
        <time>2014-01-31T13:43:03.000Z</time>
      </trkpt>
      <trkpt lat="45.57804" lon="6.57077">
        <ele>2365.6000976562</ele>
        <time>2014-01-31T13:43:04.000Z</time>
      </trkpt>
      <trkpt lat="45.57804" lon="6.57077">
        <ele>2365.3999023438</ele>
        <time>2014-01-31T13:43:05.000Z</time>
      </trkpt>
      <trkpt lat="45.57804" lon="6.57077">
        <ele>2365.6000976562</ele>
        <time>2014-01-31T13:43:06.000Z</time>
      </trkpt>
      <trkpt lat="45.57804" lon="6.57077">
        <ele>2365.6000976562</ele>
        <time>2014-01-31T13:43:07.000Z</time>
      </trkpt>
      <trkpt lat="45.57804" lon="6.57077">
        <ele>2365.6000976562</ele>
        <time>2014-01-31T13:43:08.000Z</time>
      </trkpt>
      <trkpt lat="45.57804" lon="6.57077">
        <ele>2365.6000976562</ele>
        <time>2014-01-31T13:43:13.000Z</time>
      </trkpt>
      <trkpt lat="45.57804" lon="6.57077">
        <ele>2365.3999023438</ele>
        <time>2014-01-31T13:43:14.000Z</time>
      </trkpt>
      <trkpt lat="45.57804" lon="6.57077">
        <ele>2365.3999023438</ele>
        <time>2014-01-31T13:43:15.000Z</time>
      </trkpt>
      <trkpt lat="45.57804" lon="6.57077">
        <ele>2365.3999023438</ele>
        <time>2014-01-31T13:43:16.000Z</time>
      </trkpt>
      <trkpt lat="45.57804" lon="6.57077">
        <ele>2365.1999511719</ele>
        <time>2014-01-31T13:43:17.000Z</time>
      </trkpt>
      <trkpt lat="45.57804" lon="6.57077">
        <ele>2365.1999511719</ele>
        <time>2014-01-31T13:43:18.000Z</time>
      </trkpt>
      <trkpt lat="45.57804" lon="6.57077">
        <ele>2365.1999511719</ele>
        <time>2014-01-31T13:43:19.000Z</time>
      </trkpt>
      <trkpt lat="45.57804" lon="6.57077">
        <ele>2365.3999023438</ele>
        <time>2014-01-31T13:43:20.000Z</time>
      </trkpt>
      <trkpt lat="45.57804" lon="6.57077">
        <ele>2365.3999023438</ele>
        <time>2014-01-31T13:43:21.000Z</time>
      </trkpt>
      <trkpt lat="45.57804" lon="6.57077">
        <ele>2365.3999023438</ele>
        <time>2014-01-31T13:43:22.000Z</time>
      </trkpt>
      <trkpt lat="45.57804" lon="6.57077">
        <ele>2365.3999023438</ele>
        <time>2014-01-31T13:43:23.000Z</time>
      </trkpt>
      <trkpt lat="45.57804" lon="6.57077">
        <ele>2365.3999023438</ele>
        <time>2014-01-31T13:43:25.000Z</time>
      </trkpt>
      <trkpt lat="45.57804" lon="6.57077">
        <ele>2365.3999023438</ele>
        <time>2014-01-31T13:43:28.000Z</time>
      </trkpt>
      <trkpt lat="45.57804" lon="6.57077">
        <ele>2365.6000976562</ele>
        <time>2014-01-31T13:43:29.000Z</time>
      </trkpt>
      <trkpt lat="45.57804" lon="6.57077">
        <ele>2365.6000976562</ele>
        <time>2014-01-31T13:43:30.000Z</time>
      </trkpt>
      <trkpt lat="45.57804" lon="6.57077">
        <ele>2365.6000976562</ele>
        <time>2014-01-31T13:43:31.000Z</time>
      </trkpt>
      <trkpt lat="45.57804" lon="6.57077">
        <ele>2365.8000488281</ele>
        <time>2014-01-31T13:43:32.000Z</time>
      </trkpt>
      <trkpt lat="45.57804" lon="6.57077">
        <ele>2365.8000488281</ele>
        <time>2014-01-31T13:43:33.000Z</time>
      </trkpt>
      <trkpt lat="45.57804" lon="6.57077">
        <ele>2365.6000976562</ele>
        <time>2014-01-31T13:43:34.000Z</time>
      </trkpt>
      <trkpt lat="45.57804" lon="6.57077">
        <ele>2365.8000488281</ele>
        <time>2014-01-31T13:43:36.000Z</time>
      </trkpt>
      <trkpt lat="45.57804" lon="6.57077">
        <ele>2365.6000976562</ele>
        <time>2014-01-31T13:43:38.000Z</time>
      </trkpt>
      <trkpt lat="45.57804" lon="6.57077">
        <ele>2365.6000976562</ele>
        <time>2014-01-31T13:43:39.000Z</time>
      </trkpt>
      <trkpt lat="45.57804" lon="6.57077">
        <ele>2365.6000976562</ele>
        <time>2014-01-31T13:43:40.000Z</time>
      </trkpt>
      <trkpt lat="45.57804" lon="6.57077">
        <ele>2365.6000976562</ele>
        <time>2014-01-31T13:43:41.000Z</time>
      </trkpt>
      <trkpt lat="45.57804" lon="6.57077">
        <ele>2365.3999023438</ele>
        <time>2014-01-31T13:43:42.000Z</time>
      </trkpt>
      <trkpt lat="45.57804" lon="6.57077">
        <ele>2365.3999023438</ele>
        <time>2014-01-31T13:43:43.000Z</time>
      </trkpt>
      <trkpt lat="45.57804" lon="6.57077">
        <ele>2365.1999511719</ele>
        <time>2014-01-31T13:43:44.000Z</time>
      </trkpt>
      <trkpt lat="45.57804" lon="6.57077">
        <ele>2365</ele>
        <time>2014-01-31T13:43:45.000Z</time>
      </trkpt>
      <trkpt lat="45.57804" lon="6.57077">
        <ele>2364.8000488281</ele>
        <time>2014-01-31T13:43:46.000Z</time>
      </trkpt>
      <trkpt lat="45.57804" lon="6.57077">
        <ele>2364.8000488281</ele>
        <time>2014-01-31T13:43:47.000Z</time>
      </trkpt>
      <trkpt lat="45.57804" lon="6.57077">
        <ele>2365</ele>
        <time>2014-01-31T13:43:48.000Z</time>
      </trkpt>
      <trkpt lat="45.57804" lon="6.57077">
        <ele>2365</ele>
        <time>2014-01-31T13:43:49.000Z</time>
      </trkpt>
      <trkpt lat="45.57804" lon="6.57077">
        <ele>2365.1999511719</ele>
        <time>2014-01-31T13:43:50.000Z</time>
      </trkpt>
      <trkpt lat="45.57804" lon="6.57077">
        <ele>2365.3999023438</ele>
        <time>2014-01-31T13:43:51.000Z</time>
      </trkpt>
      <trkpt lat="45.57804" lon="6.57077">
        <ele>2365.3999023438</ele>
        <time>2014-01-31T13:43:52.000Z</time>
      </trkpt>
      <trkpt lat="45.57804" lon="6.57077">
        <ele>2365.3999023438</ele>
        <time>2014-01-31T13:43:53.000Z</time>
      </trkpt>
      <trkpt lat="45.57804" lon="6.57077">
        <ele>2365.3999023438</ele>
        <time>2014-01-31T13:43:54.000Z</time>
      </trkpt>
      <trkpt lat="45.57804" lon="6.57077">
        <ele>2365.3999023438</ele>
        <time>2014-01-31T13:43:59.000Z</time>
      </trkpt>
      <trkpt lat="45.57804" lon="6.57077">
        <ele>2365.1999511719</ele>
        <time>2014-01-31T13:44:00.000Z</time>
      </trkpt>
      <trkpt lat="45.57804" lon="6.57077">
        <ele>2365.1999511719</ele>
        <time>2014-01-31T13:44:01.000Z</time>
      </trkpt>
      <trkpt lat="45.57804" lon="6.57077">
        <ele>2365.1999511719</ele>
        <time>2014-01-31T13:44:02.000Z</time>
      </trkpt>
      <trkpt lat="45.57804" lon="6.57077">
        <ele>2365.3999023438</ele>
        <time>2014-01-31T13:44:03.000Z</time>
      </trkpt>
      <trkpt lat="45.57804" lon="6.57077">
        <ele>2365.3999023438</ele>
        <time>2014-01-31T13:44:04.000Z</time>
      </trkpt>
      <trkpt lat="45.57804" lon="6.57077">
        <ele>2365.6000976562</ele>
        <time>2014-01-31T13:44:05.000Z</time>
      </trkpt>
      <trkpt lat="45.57804" lon="6.57077">
        <ele>2365.8000488281</ele>
        <time>2014-01-31T13:44:06.000Z</time>
      </trkpt>
      <trkpt lat="45.57804" lon="6.57077">
        <ele>2365.8000488281</ele>
        <time>2014-01-31T13:44:07.000Z</time>
      </trkpt>
      <trkpt lat="45.57804" lon="6.57077">
        <ele>2365.8000488281</ele>
        <time>2014-01-31T13:44:09.000Z</time>
      </trkpt>
      <trkpt lat="45.57804" lon="6.57077">
        <ele>2365.6000976562</ele>
        <time>2014-01-31T13:44:10.000Z</time>
      </trkpt>
      <trkpt lat="45.57804" lon="6.57077">
        <ele>2365.6000976562</ele>
        <time>2014-01-31T13:44:11.000Z</time>
      </trkpt>
      <trkpt lat="45.57804" lon="6.57077">
        <ele>2365.6000976562</ele>
        <time>2014-01-31T13:44:12.000Z</time>
      </trkpt>
      <trkpt lat="45.57804" lon="6.57077">
        <ele>2365.6000976562</ele>
        <time>2014-01-31T13:44:13.000Z</time>
      </trkpt>
      <trkpt lat="45.57804" lon="6.57077">
        <ele>2365.3999023438</ele>
        <time>2014-01-31T13:44:14.000Z</time>
      </trkpt>
      <trkpt lat="45.57804" lon="6.57077">
        <ele>2365.3999023438</ele>
        <time>2014-01-31T13:44:15.000Z</time>
      </trkpt>
      <trkpt lat="45.57804" lon="6.57077">
        <ele>2365.3999023438</ele>
        <time>2014-01-31T13:44:16.000Z</time>
      </trkpt>
      <trkpt lat="45.57804" lon="6.57077">
        <ele>2365.3999023438</ele>
        <time>2014-01-31T13:44:17.000Z</time>
      </trkpt>
      <trkpt lat="45.57804" lon="6.57077">
        <ele>2365.3999023438</ele>
        <time>2014-01-31T13:44:19.000Z</time>
      </trkpt>
      <trkpt lat="45.57804" lon="6.57077">
        <ele>2365.1999511719</ele>
        <time>2014-01-31T13:44:20.000Z</time>
      </trkpt>
      <trkpt lat="45.57804" lon="6.57077">
        <ele>2365.1999511719</ele>
        <time>2014-01-31T13:44:21.000Z</time>
      </trkpt>
      <trkpt lat="45.57804" lon="6.57077">
        <ele>2365.1999511719</ele>
        <time>2014-01-31T13:44:22.000Z</time>
      </trkpt>
      <trkpt lat="45.57804" lon="6.57077">
        <ele>2365.3999023438</ele>
        <time>2014-01-31T13:44:24.000Z</time>
      </trkpt>
      <trkpt lat="45.57804" lon="6.57077">
        <ele>2365.3999023438</ele>
        <time>2014-01-31T13:44:25.000Z</time>
      </trkpt>
      <trkpt lat="45.57804" lon="6.57077">
        <ele>2365.3999023438</ele>
        <time>2014-01-31T13:44:26.000Z</time>
      </trkpt>
      <trkpt lat="45.57804" lon="6.57077">
        <ele>2365.6000976562</ele>
        <time>2014-01-31T13:44:27.000Z</time>
      </trkpt>
      <trkpt lat="45.57804" lon="6.57077">
        <ele>2365.6000976562</ele>
        <time>2014-01-31T13:44:28.000Z</time>
      </trkpt>
      <trkpt lat="45.57804" lon="6.57077">
        <ele>2365.6000976562</ele>
        <time>2014-01-31T13:44:29.000Z</time>
      </trkpt>
      <trkpt lat="45.57804" lon="6.57077">
        <ele>2365.6000976562</ele>
        <time>2014-01-31T13:44:30.000Z</time>
      </trkpt>
      <trkpt lat="45.57804" lon="6.57077">
        <ele>2365.6000976562</ele>
        <time>2014-01-31T13:44:31.000Z</time>
      </trkpt>
      <trkpt lat="45.57804" lon="6.57077">
        <ele>2365.8000488281</ele>
        <time>2014-01-31T13:44:32.000Z</time>
      </trkpt>
      <trkpt lat="45.57804" lon="6.57077">
        <ele>2365.8000488281</ele>
        <time>2014-01-31T13:44:33.000Z</time>
      </trkpt>
      <trkpt lat="45.57804" lon="6.57077">
        <ele>2365.8000488281</ele>
        <time>2014-01-31T13:44:34.000Z</time>
      </trkpt>
      <trkpt lat="45.57804" lon="6.57077">
        <ele>2365.6000976562</ele>
        <time>2014-01-31T13:44:35.000Z</time>
      </trkpt>
      <trkpt lat="45.57804" lon="6.57077">
        <ele>2365.6000976562</ele>
        <time>2014-01-31T13:44:36.000Z</time>
      </trkpt>
      <trkpt lat="45.57804" lon="6.57077">
        <ele>2365.6000976562</ele>
        <time>2014-01-31T13:44:37.000Z</time>
      </trkpt>
      <trkpt lat="45.57803" lon="6.57077">
        <ele>2365.3999023438</ele>
        <time>2014-01-31T13:44:38.000Z</time>
      </trkpt>
      <trkpt lat="45.57803" lon="6.57077">
        <ele>2365.3999023438</ele>
        <time>2014-01-31T13:44:39.000Z</time>
      </trkpt>
      <trkpt lat="45.57803" lon="6.57077">
        <ele>2365.3999023438</ele>
        <time>2014-01-31T13:44:40.000Z</time>
      </trkpt>
      <trkpt lat="45.57803" lon="6.57077">
        <ele>2365.3999023438</ele>
        <time>2014-01-31T13:44:41.000Z</time>
      </trkpt>
      <trkpt lat="45.57803" lon="6.57077">
        <ele>2365.3999023438</ele>
        <time>2014-01-31T13:44:43.000Z</time>
      </trkpt>
      <trkpt lat="45.57803" lon="6.57077">
        <ele>2365.3999023438</ele>
        <time>2014-01-31T13:44:44.000Z</time>
      </trkpt>
      <trkpt lat="45.57803" lon="6.57077">
        <ele>2365.6000976562</ele>
        <time>2014-01-31T13:44:45.000Z</time>
      </trkpt>
      <trkpt lat="45.57803" lon="6.57077">
        <ele>2365.6000976562</ele>
        <time>2014-01-31T13:44:46.000Z</time>
      </trkpt>
      <trkpt lat="45.57803" lon="6.57077">
        <ele>2365.6000976562</ele>
        <time>2014-01-31T13:44:47.000Z</time>
      </trkpt>
      <trkpt lat="45.57803" lon="6.57077">
        <ele>2365.6000976562</ele>
        <time>2014-01-31T13:44:48.000Z</time>
      </trkpt>
      <trkpt lat="45.57803" lon="6.57077">
        <ele>2365.6000976562</ele>
        <time>2014-01-31T13:44:49.000Z</time>
      </trkpt>
      <trkpt lat="45.57803" lon="6.57077">
        <ele>2365.6000976562</ele>
        <time>2014-01-31T13:44:51.000Z</time>
      </trkpt>
      <trkpt lat="45.57803" lon="6.57077">
        <ele>2365.6000976562</ele>
        <time>2014-01-31T13:44:52.000Z</time>
      </trkpt>
      <trkpt lat="45.57803" lon="6.57077">
        <ele>2365.6000976562</ele>
        <time>2014-01-31T13:44:53.000Z</time>
      </trkpt>
      <trkpt lat="45.57803" lon="6.57077">
        <ele>2365.6000976562</ele>
        <time>2014-01-31T13:44:54.000Z</time>
      </trkpt>
      <trkpt lat="45.57803" lon="6.57077">
        <ele>2365.6000976562</ele>
        <time>2014-01-31T13:44:55.000Z</time>
      </trkpt>
      <trkpt lat="45.57803" lon="6.57077">
        <ele>2365.6000976562</ele>
        <time>2014-01-31T13:44:56.000Z</time>
      </trkpt>
      <trkpt lat="45.57803" lon="6.57077">
        <ele>2365.8000488281</ele>
        <time>2014-01-31T13:44:57.000Z</time>
      </trkpt>
      <trkpt lat="45.57803" lon="6.57077">
        <ele>2365.8000488281</ele>
        <time>2014-01-31T13:44:58.000Z</time>
      </trkpt>
      <trkpt lat="45.57803" lon="6.57077">
        <ele>2365.8000488281</ele>
        <time>2014-01-31T13:44:59.000Z</time>
      </trkpt>
      <trkpt lat="45.57803" lon="6.57077">
        <ele>2365.8000488281</ele>
        <time>2014-01-31T13:45:01.000Z</time>
      </trkpt>
      <trkpt lat="45.57803" lon="6.57077">
        <ele>2365.6000976562</ele>
        <time>2014-01-31T13:45:02.000Z</time>
      </trkpt>
      <trkpt lat="45.57803" lon="6.57077">
        <ele>2365.6000976562</ele>
        <time>2014-01-31T13:45:03.000Z</time>
      </trkpt>
      <trkpt lat="45.57803" lon="6.57077">
        <ele>2365.6000976562</ele>
        <time>2014-01-31T13:45:04.000Z</time>
      </trkpt>
      <trkpt lat="45.57803" lon="6.57077">
        <ele>2365.3999023438</ele>
        <time>2014-01-31T13:45:05.000Z</time>
      </trkpt>
      <trkpt lat="45.57803" lon="6.57077">
        <ele>2365.3999023438</ele>
        <time>2014-01-31T13:45:06.000Z</time>
      </trkpt>
      <trkpt lat="45.57803" lon="6.57077">
        <ele>2365.3999023438</ele>
        <time>2014-01-31T13:45:07.000Z</time>
      </trkpt>
      <trkpt lat="45.57803" lon="6.57077">
        <ele>2365.3999023438</ele>
        <time>2014-01-31T13:45:09.000Z</time>
      </trkpt>
      <trkpt lat="45.57803" lon="6.57077">
        <ele>2365.3999023438</ele>
        <time>2014-01-31T13:45:10.000Z</time>
      </trkpt>
      <trkpt lat="45.57803" lon="6.57077">
        <ele>2365.1999511719</ele>
        <time>2014-01-31T13:45:11.000Z</time>
      </trkpt>
      <trkpt lat="45.57803" lon="6.57077">
        <ele>2365.1999511719</ele>
        <time>2014-01-31T13:45:12.000Z</time>
      </trkpt>
      <trkpt lat="45.57803" lon="6.57077">
        <ele>2365.3999023438</ele>
        <time>2014-01-31T13:45:13.000Z</time>
      </trkpt>
      <trkpt lat="45.57803" lon="6.57077">
        <ele>2365.3999023438</ele>
        <time>2014-01-31T13:45:14.000Z</time>
      </trkpt>
      <trkpt lat="45.57803" lon="6.57077">
        <ele>2365.3999023438</ele>
        <time>2014-01-31T13:45:15.000Z</time>
      </trkpt>
      <trkpt lat="45.57803" lon="6.57077">
        <ele>2365.3999023438</ele>
        <time>2014-01-31T13:45:16.000Z</time>
      </trkpt>
      <trkpt lat="45.57803" lon="6.57077">
        <ele>2365.3999023438</ele>
        <time>2014-01-31T13:45:17.000Z</time>
      </trkpt>
      <trkpt lat="45.57804" lon="6.57077">
        <ele>2365.3999023438</ele>
        <time>2014-01-31T13:45:18.000Z</time>
      </trkpt>
      <trkpt lat="45.57804" lon="6.57077">
        <ele>2365.6000976562</ele>
        <time>2014-01-31T13:45:22.000Z</time>
      </trkpt>
      <trkpt lat="45.57804" lon="6.57077">
        <ele>2365.6000976562</ele>
        <time>2014-01-31T13:45:23.000Z</time>
      </trkpt>
      <trkpt lat="45.57804" lon="6.57077">
        <ele>2365.6000976562</ele>
        <time>2014-01-31T13:45:24.000Z</time>
      </trkpt>
      <trkpt lat="45.57804" lon="6.57077">
        <ele>2365.6000976562</ele>
        <time>2014-01-31T13:45:25.000Z</time>
      </trkpt>
      <trkpt lat="45.57804" lon="6.57077">
        <ele>2365.6000976562</ele>
        <time>2014-01-31T13:45:26.000Z</time>
      </trkpt>
      <trkpt lat="45.57804" lon="6.57077">
        <ele>2365.6000976562</ele>
        <time>2014-01-31T13:45:28.000Z</time>
      </trkpt>
      <trkpt lat="45.57804" lon="6.57077">
        <ele>2365.6000976562</ele>
        <time>2014-01-31T13:45:29.000Z</time>
      </trkpt>
      <trkpt lat="45.57804" lon="6.57077">
        <ele>2365.3999023438</ele>
        <time>2014-01-31T13:45:30.000Z</time>
      </trkpt>
      <trkpt lat="45.57804" lon="6.57077">
        <ele>2365.3999023438</ele>
        <time>2014-01-31T13:45:31.000Z</time>
      </trkpt>
      <trkpt lat="45.57804" lon="6.57077">
        <ele>2365.3999023438</ele>
        <time>2014-01-31T13:45:32.000Z</time>
      </trkpt>
      <trkpt lat="45.57804" lon="6.57077">
        <ele>2365.3999023438</ele>
        <time>2014-01-31T13:45:33.000Z</time>
      </trkpt>
      <trkpt lat="45.57804" lon="6.57077">
        <ele>2365.3999023438</ele>
        <time>2014-01-31T13:45:34.000Z</time>
      </trkpt>
      <trkpt lat="45.57804" lon="6.57077">
        <ele>2365.1999511719</ele>
        <time>2014-01-31T13:45:35.000Z</time>
      </trkpt>
      <trkpt lat="45.57804" lon="6.57077">
        <ele>2365.1999511719</ele>
        <time>2014-01-31T13:45:36.000Z</time>
      </trkpt>
      <trkpt lat="45.57804" lon="6.57077">
        <ele>2365.3999023438</ele>
        <time>2014-01-31T13:45:38.000Z</time>
      </trkpt>
      <trkpt lat="45.57804" lon="6.57077">
        <ele>2365.3999023438</ele>
        <time>2014-01-31T13:45:39.000Z</time>
      </trkpt>
      <trkpt lat="45.57804" lon="6.57077">
        <ele>2365.3999023438</ele>
        <time>2014-01-31T13:45:40.000Z</time>
      </trkpt>
      <trkpt lat="45.57804" lon="6.57077">
        <ele>2365.3999023438</ele>
        <time>2014-01-31T13:45:41.000Z</time>
      </trkpt>
      <trkpt lat="45.57804" lon="6.57077">
        <ele>2365.3999023438</ele>
        <time>2014-01-31T13:45:42.000Z</time>
      </trkpt>
      <trkpt lat="45.57804" lon="6.57077">
        <ele>2365.3999023438</ele>
        <time>2014-01-31T13:45:43.000Z</time>
      </trkpt>
      <trkpt lat="45.57804" lon="6.57077">
        <ele>2365.3999023438</ele>
        <time>2014-01-31T13:45:44.000Z</time>
      </trkpt>
      <trkpt lat="45.57804" lon="6.57077">
        <ele>2365.3999023438</ele>
        <time>2014-01-31T13:45:45.000Z</time>
      </trkpt>
      <trkpt lat="45.57804" lon="6.57077">
        <ele>2365.3999023438</ele>
        <time>2014-01-31T13:45:46.000Z</time>
      </trkpt>
      <trkpt lat="45.57804" lon="6.57077">
        <ele>2365.3999023438</ele>
        <time>2014-01-31T13:45:47.000Z</time>
      </trkpt>
      <trkpt lat="45.57804" lon="6.57077">
        <ele>2365.6000976562</ele>
        <time>2014-01-31T13:45:48.000Z</time>
      </trkpt>
      <trkpt lat="45.57804" lon="6.57077">
        <ele>2365.6000976562</ele>
        <time>2014-01-31T13:45:49.000Z</time>
      </trkpt>
      <trkpt lat="45.57804" lon="6.57077">
        <ele>2365.6000976562</ele>
        <time>2014-01-31T13:45:50.000Z</time>
      </trkpt>
      <trkpt lat="45.57804" lon="6.57077">
        <ele>2365.6000976562</ele>
        <time>2014-01-31T13:45:51.000Z</time>
      </trkpt>
      <trkpt lat="45.57804" lon="6.57077">
        <ele>2365.6000976562</ele>
        <time>2014-01-31T13:45:52.000Z</time>
      </trkpt>
      <trkpt lat="45.57804" lon="6.57077">
        <ele>2365.3999023438</ele>
        <time>2014-01-31T13:45:53.000Z</time>
      </trkpt>
      <trkpt lat="45.57804" lon="6.57077">
        <ele>2365.3999023438</ele>
        <time>2014-01-31T13:45:54.000Z</time>
      </trkpt>
      <trkpt lat="45.57804" lon="6.57077">
        <ele>2365.1999511719</ele>
        <time>2014-01-31T13:45:55.000Z</time>
      </trkpt>
      <trkpt lat="45.57804" lon="6.57077">
        <ele>2365.1999511719</ele>
        <time>2014-01-31T13:45:56.000Z</time>
      </trkpt>
      <trkpt lat="45.57804" lon="6.57077">
        <ele>2365.1999511719</ele>
        <time>2014-01-31T13:45:57.000Z</time>
      </trkpt>
      <trkpt lat="45.57803" lon="6.57077">
        <ele>2365.1999511719</ele>
        <time>2014-01-31T13:45:58.000Z</time>
      </trkpt>
      <trkpt lat="45.57803" lon="6.57077">
        <ele>2365.1999511719</ele>
        <time>2014-01-31T13:46:03.000Z</time>
      </trkpt>
      <trkpt lat="45.57803" lon="6.57077">
        <ele>2365.1999511719</ele>
        <time>2014-01-31T13:46:04.000Z</time>
      </trkpt>
      <trkpt lat="45.57803" lon="6.57077">
        <ele>2365</ele>
        <time>2014-01-31T13:46:05.000Z</time>
      </trkpt>
      <trkpt lat="45.57803" lon="6.57077">
        <ele>2365</ele>
        <time>2014-01-31T13:46:06.000Z</time>
      </trkpt>
      <trkpt lat="45.57803" lon="6.57077">
        <ele>2365</ele>
        <time>2014-01-31T13:46:07.000Z</time>
      </trkpt>
      <trkpt lat="45.57803" lon="6.57077">
        <ele>2365</ele>
        <time>2014-01-31T13:46:08.000Z</time>
      </trkpt>
      <trkpt lat="45.57803" lon="6.57077">
        <ele>2365</ele>
        <time>2014-01-31T13:46:09.000Z</time>
      </trkpt>
      <trkpt lat="45.57803" lon="6.57077">
        <ele>2365</ele>
        <time>2014-01-31T13:46:11.000Z</time>
      </trkpt>
      <trkpt lat="45.57803" lon="6.57077">
        <ele>2365</ele>
        <time>2014-01-31T13:46:12.000Z</time>
      </trkpt>
      <trkpt lat="45.57803" lon="6.57077">
        <ele>2365</ele>
        <time>2014-01-31T13:46:13.000Z</time>
      </trkpt>
      <trkpt lat="45.57803" lon="6.57077">
        <ele>2365</ele>
        <time>2014-01-31T13:46:14.000Z</time>
      </trkpt>
      <trkpt lat="45.57803" lon="6.57077">
        <ele>2365</ele>
        <time>2014-01-31T13:46:16.000Z</time>
      </trkpt>
      <trkpt lat="45.57803" lon="6.57077">
        <ele>2365</ele>
        <time>2014-01-31T13:46:17.000Z</time>
      </trkpt>
      <trkpt lat="45.57803" lon="6.57077">
        <ele>2365</ele>
        <time>2014-01-31T13:46:18.000Z</time>
      </trkpt>
      <trkpt lat="45.57803" lon="6.57077">
        <ele>2365</ele>
        <time>2014-01-31T13:46:19.000Z</time>
      </trkpt>
      <trkpt lat="45.57803" lon="6.57077">
        <ele>2365</ele>
        <time>2014-01-31T13:46:20.000Z</time>
      </trkpt>
      <trkpt lat="45.57803" lon="6.57077">
        <ele>2365.1999511719</ele>
        <time>2014-01-31T13:46:21.000Z</time>
      </trkpt>
      <trkpt lat="45.57803" lon="6.57077">
        <ele>2365.1999511719</ele>
        <time>2014-01-31T13:46:22.000Z</time>
      </trkpt>
      <trkpt lat="45.57803" lon="6.57077">
        <ele>2365.1999511719</ele>
        <time>2014-01-31T13:46:23.000Z</time>
      </trkpt>
      <trkpt lat="45.57803" lon="6.57077">
        <ele>2365.1999511719</ele>
        <time>2014-01-31T13:46:24.000Z</time>
      </trkpt>
      <trkpt lat="45.57803" lon="6.57077">
        <ele>2365.1999511719</ele>
        <time>2014-01-31T13:46:25.000Z</time>
      </trkpt>
      <trkpt lat="45.57803" lon="6.57077">
        <ele>2365.1999511719</ele>
        <time>2014-01-31T13:46:26.000Z</time>
      </trkpt>
      <trkpt lat="45.57803" lon="6.57077">
        <ele>2365.1999511719</ele>
        <time>2014-01-31T13:46:27.000Z</time>
      </trkpt>
      <trkpt lat="45.57803" lon="6.57077">
        <ele>2365.3999023438</ele>
        <time>2014-01-31T13:46:28.000Z</time>
      </trkpt>
      <trkpt lat="45.57803" lon="6.57077">
        <ele>2365.3999023438</ele>
        <time>2014-01-31T13:46:29.000Z</time>
      </trkpt>
      <trkpt lat="45.57803" lon="6.57077">
        <ele>2365.3999023438</ele>
        <time>2014-01-31T13:46:30.000Z</time>
      </trkpt>
      <trkpt lat="45.57803" lon="6.57077">
        <ele>2365.6000976562</ele>
        <time>2014-01-31T13:46:31.000Z</time>
      </trkpt>
      <trkpt lat="45.57803" lon="6.57077">
        <ele>2365.6000976562</ele>
        <time>2014-01-31T13:46:32.000Z</time>
      </trkpt>
      <trkpt lat="45.57803" lon="6.57077">
        <ele>2365.8000488281</ele>
        <time>2014-01-31T13:46:33.000Z</time>
      </trkpt>
      <trkpt lat="45.57803" lon="6.57077">
        <ele>2365.8000488281</ele>
        <time>2014-01-31T13:46:34.000Z</time>
      </trkpt>
      <trkpt lat="45.57803" lon="6.57077">
        <ele>2365.8000488281</ele>
        <time>2014-01-31T13:46:35.000Z</time>
      </trkpt>
      <trkpt lat="45.57803" lon="6.57077">
        <ele>2365.8000488281</ele>
        <time>2014-01-31T13:46:36.000Z</time>
      </trkpt>
      <trkpt lat="45.57803" lon="6.57077">
        <ele>2365.8000488281</ele>
        <time>2014-01-31T13:46:37.000Z</time>
      </trkpt>
      <trkpt lat="45.57803" lon="6.57077">
        <ele>2365.8000488281</ele>
        <time>2014-01-31T13:46:38.000Z</time>
      </trkpt>
      <trkpt lat="45.57803" lon="6.57077">
        <ele>2365.8000488281</ele>
        <time>2014-01-31T13:46:39.000Z</time>
      </trkpt>
      <trkpt lat="45.57803" lon="6.57077">
        <ele>2365.8000488281</ele>
        <time>2014-01-31T13:46:40.000Z</time>
      </trkpt>
      <trkpt lat="45.57803" lon="6.57077">
        <ele>2365.3999023438</ele>
        <time>2014-01-31T13:46:41.000Z</time>
      </trkpt>
      <trkpt lat="45.57803" lon="6.57077">
        <ele>2365.3999023438</ele>
        <time>2014-01-31T13:46:42.000Z</time>
      </trkpt>
      <trkpt lat="45.57803" lon="6.57077">
        <ele>2365.1999511719</ele>
        <time>2014-01-31T13:46:43.000Z</time>
      </trkpt>
      <trkpt lat="45.57803" lon="6.57077">
        <ele>2365.1999511719</ele>
        <time>2014-01-31T13:46:44.000Z</time>
      </trkpt>
      <trkpt lat="45.57803" lon="6.57077">
        <ele>2365.1999511719</ele>
        <time>2014-01-31T13:46:45.000Z</time>
      </trkpt>
      <trkpt lat="45.57803" lon="6.57077">
        <ele>2365.1999511719</ele>
        <time>2014-01-31T13:46:46.000Z</time>
      </trkpt>
      <trkpt lat="45.57803" lon="6.57077">
        <ele>2365.1999511719</ele>
        <time>2014-01-31T13:46:47.000Z</time>
      </trkpt>
      <trkpt lat="45.57803" lon="6.57077">
        <ele>2365.1999511719</ele>
        <time>2014-01-31T13:46:48.000Z</time>
      </trkpt>
      <trkpt lat="45.57803" lon="6.57077">
        <ele>2365</ele>
        <time>2014-01-31T13:46:49.000Z</time>
      </trkpt>
      <trkpt lat="45.57803" lon="6.57077">
        <ele>2365</ele>
        <time>2014-01-31T13:46:50.000Z</time>
      </trkpt>
      <trkpt lat="45.57803" lon="6.57077">
        <ele>2365</ele>
        <time>2014-01-31T13:46:51.000Z</time>
      </trkpt>
      <trkpt lat="45.57803" lon="6.57077">
        <ele>2365</ele>
        <time>2014-01-31T13:46:52.000Z</time>
      </trkpt>
      <trkpt lat="45.57803" lon="6.57077">
        <ele>2365.1999511719</ele>
        <time>2014-01-31T13:46:53.000Z</time>
      </trkpt>
      <trkpt lat="45.57803" lon="6.57077">
        <ele>2365.1999511719</ele>
        <time>2014-01-31T13:46:54.000Z</time>
      </trkpt>
      <trkpt lat="45.57803" lon="6.57077">
        <ele>2365.1999511719</ele>
        <time>2014-01-31T13:46:55.000Z</time>
      </trkpt>
      <trkpt lat="45.57803" lon="6.57077">
        <ele>2365.3999023438</ele>
        <time>2014-01-31T13:46:56.000Z</time>
      </trkpt>
      <trkpt lat="45.57803" lon="6.57077">
        <ele>2365.3999023438</ele>
        <time>2014-01-31T13:46:57.000Z</time>
      </trkpt>
      <trkpt lat="45.57803" lon="6.57077">
        <ele>2365.3999023438</ele>
        <time>2014-01-31T13:46:58.000Z</time>
      </trkpt>
      <trkpt lat="45.57803" lon="6.57077">
        <ele>2365.1999511719</ele>
        <time>2014-01-31T13:46:59.000Z</time>
      </trkpt>
      <trkpt lat="45.57803" lon="6.57077">
        <ele>2365.1999511719</ele>
        <time>2014-01-31T13:47:00.000Z</time>
      </trkpt>
      <trkpt lat="45.57803" lon="6.57077">
        <ele>2365.3999023438</ele>
        <time>2014-01-31T13:47:01.000Z</time>
      </trkpt>
      <trkpt lat="45.57803" lon="6.57077">
        <ele>2365.3999023438</ele>
        <time>2014-01-31T13:47:02.000Z</time>
      </trkpt>
      <trkpt lat="45.57803" lon="6.57077">
        <ele>2365.3999023438</ele>
        <time>2014-01-31T13:47:03.000Z</time>
      </trkpt>
      <trkpt lat="45.57803" lon="6.57077">
        <ele>2365.1999511719</ele>
        <time>2014-01-31T13:47:04.000Z</time>
      </trkpt>
      <trkpt lat="45.57803" lon="6.57077">
        <ele>2365.1999511719</ele>
        <time>2014-01-31T13:47:05.000Z</time>
      </trkpt>
      <trkpt lat="45.57804" lon="6.57078">
        <ele>2365.1999511719</ele>
        <time>2014-01-31T13:47:06.000Z</time>
      </trkpt>
      <trkpt lat="45.57804" lon="6.57078">
        <ele>2365</ele>
        <time>2014-01-31T13:47:07.000Z</time>
      </trkpt>
      <trkpt lat="45.57804" lon="6.57078">
        <ele>2364.8000488281</ele>
        <time>2014-01-31T13:47:08.000Z</time>
      </trkpt>
      <trkpt lat="45.57804" lon="6.57078">
        <ele>2364.8000488281</ele>
        <time>2014-01-31T13:47:09.000Z</time>
      </trkpt>
      <trkpt lat="45.57806" lon="6.5708">
        <ele>2364.6000976562</ele>
        <time>2014-01-31T13:47:10.000Z</time>
      </trkpt>
      <trkpt lat="45.57807" lon="6.57082">
        <ele>2364.3999023438</ele>
        <time>2014-01-31T13:47:11.000Z</time>
      </trkpt>
      <trkpt lat="45.5781" lon="6.57086">
        <ele>2364</ele>
        <time>2014-01-31T13:47:12.000Z</time>
      </trkpt>
      <trkpt lat="45.57813" lon="6.57089">
        <ele>2363.8000488281</ele>
        <time>2014-01-31T13:47:13.000Z</time>
      </trkpt>
      <trkpt lat="45.57815" lon="6.57091">
        <ele>2363.6000976562</ele>
        <time>2014-01-31T13:47:14.000Z</time>
      </trkpt>
      <trkpt lat="45.57816" lon="6.57092">
        <ele>2363.1999511719</ele>
        <time>2014-01-31T13:47:15.000Z</time>
      </trkpt>
      <trkpt lat="45.57815" lon="6.57095">
        <ele>2362.8000488281</ele>
        <time>2014-01-31T13:47:16.000Z</time>
      </trkpt>
      <trkpt lat="45.57811" lon="6.57098">
        <ele>2362.1999511719</ele>
        <time>2014-01-31T13:47:17.000Z</time>
      </trkpt>
      <trkpt lat="45.57805" lon="6.571">
        <ele>2362</ele>
        <time>2014-01-31T13:47:18.000Z</time>
      </trkpt>
      <trkpt lat="45.578" lon="6.57103">
        <ele>2361.8000488281</ele>
        <time>2014-01-31T13:47:19.000Z</time>
      </trkpt>
      <trkpt lat="45.57798" lon="6.57109">
        <ele>2361.6000976562</ele>
        <time>2014-01-31T13:47:20.000Z</time>
      </trkpt>
      <trkpt lat="45.57795" lon="6.57115">
        <ele>2361.1999511719</ele>
        <time>2014-01-31T13:47:21.000Z</time>
      </trkpt>
      <trkpt lat="45.57793" lon="6.57122">
        <ele>2360.8000488281</ele>
        <time>2014-01-31T13:47:22.000Z</time>
      </trkpt>
      <trkpt lat="45.57794" lon="6.57132">
        <ele>2359.8000488281</ele>
        <time>2014-01-31T13:47:23.000Z</time>
      </trkpt>
      <trkpt lat="45.57794" lon="6.57141">
        <ele>2358.3999023438</ele>
        <time>2014-01-31T13:47:24.000Z</time>
      </trkpt>
      <trkpt lat="45.57793" lon="6.57151">
        <ele>2356.8000488281</ele>
        <time>2014-01-31T13:47:25.000Z</time>
      </trkpt>
      <trkpt lat="45.57793" lon="6.57159">
        <ele>2355.3999023438</ele>
        <time>2014-01-31T13:47:26.000Z</time>
      </trkpt>
      <trkpt lat="45.57794" lon="6.57166">
        <ele>2353.8000488281</ele>
        <time>2014-01-31T13:47:27.000Z</time>
      </trkpt>
      <trkpt lat="45.57795" lon="6.57171">
        <ele>2352</ele>
        <time>2014-01-31T13:47:28.000Z</time>
      </trkpt>
      <trkpt lat="45.57795" lon="6.57175">
        <ele>2349.8000488281</ele>
        <time>2014-01-31T13:47:29.000Z</time>
      </trkpt>
      <trkpt lat="45.57796" lon="6.57177">
        <ele>2349.1999511719</ele>
        <time>2014-01-31T13:47:30.000Z</time>
      </trkpt>
      <trkpt lat="45.57796" lon="6.57177">
        <ele>2348.3999023438</ele>
        <time>2014-01-31T13:47:31.000Z</time>
      </trkpt>
      <trkpt lat="45.57796" lon="6.57177">
        <ele>2347.3999023438</ele>
        <time>2014-01-31T13:47:32.000Z</time>
      </trkpt>
      <trkpt lat="45.57796" lon="6.57177">
        <ele>2346.3999023438</ele>
        <time>2014-01-31T13:47:33.000Z</time>
      </trkpt>
      <trkpt lat="45.57796" lon="6.57177">
        <ele>2345.8000488281</ele>
        <time>2014-01-31T13:47:34.000Z</time>
      </trkpt>
      <trkpt lat="45.57796" lon="6.57177">
        <ele>2345.6000976562</ele>
        <time>2014-01-31T13:47:35.000Z</time>
      </trkpt>
      <trkpt lat="45.57796" lon="6.57177">
        <ele>2345.3999023438</ele>
        <time>2014-01-31T13:47:36.000Z</time>
      </trkpt>
      <trkpt lat="45.57796" lon="6.57177">
        <ele>2345.1999511719</ele>
        <time>2014-01-31T13:47:37.000Z</time>
      </trkpt>
      <trkpt lat="45.57796" lon="6.57177">
        <ele>2345.1999511719</ele>
        <time>2014-01-31T13:47:38.000Z</time>
      </trkpt>
      <trkpt lat="45.57796" lon="6.57177">
        <ele>2345.1999511719</ele>
        <time>2014-01-31T13:47:39.000Z</time>
      </trkpt>
      <trkpt lat="45.57796" lon="6.57177">
        <ele>2345.1999511719</ele>
        <time>2014-01-31T13:47:40.000Z</time>
      </trkpt>
      <trkpt lat="45.57796" lon="6.57177">
        <ele>2345.1999511719</ele>
        <time>2014-01-31T13:47:41.000Z</time>
      </trkpt>
      <trkpt lat="45.57796" lon="6.57177">
        <ele>2345</ele>
        <time>2014-01-31T13:47:42.000Z</time>
      </trkpt>
      <trkpt lat="45.57796" lon="6.57177">
        <ele>2345</ele>
        <time>2014-01-31T13:47:43.000Z</time>
      </trkpt>
      <trkpt lat="45.57796" lon="6.57177">
        <ele>2345</ele>
        <time>2014-01-31T13:47:44.000Z</time>
      </trkpt>
      <trkpt lat="45.57797" lon="6.57178">
        <ele>2345</ele>
        <time>2014-01-31T13:47:45.000Z</time>
      </trkpt>
      <trkpt lat="45.57798" lon="6.57181">
        <ele>2345</ele>
        <time>2014-01-31T13:47:47.000Z</time>
      </trkpt>
      <trkpt lat="45.57799" lon="6.57182">
        <ele>2345</ele>
        <time>2014-01-31T13:47:48.000Z</time>
      </trkpt>
      <trkpt lat="45.578" lon="6.57183">
        <ele>2345</ele>
        <time>2014-01-31T13:47:51.000Z</time>
      </trkpt>
      <trkpt lat="45.578" lon="6.57183">
        <ele>2344.8000488281</ele>
        <time>2014-01-31T13:47:52.000Z</time>
      </trkpt>
      <trkpt lat="45.578" lon="6.57183">
        <ele>2344.1999511719</ele>
        <time>2014-01-31T13:47:53.000Z</time>
      </trkpt>
      <trkpt lat="45.578" lon="6.57183">
        <ele>2343.8000488281</ele>
        <time>2014-01-31T13:47:54.000Z</time>
      </trkpt>
      <trkpt lat="45.578" lon="6.57183">
        <ele>2343.6000976562</ele>
        <time>2014-01-31T13:47:55.000Z</time>
      </trkpt>
      <trkpt lat="45.578" lon="6.57183">
        <ele>2343.6000976562</ele>
        <time>2014-01-31T13:47:56.000Z</time>
      </trkpt>
      <trkpt lat="45.578" lon="6.57183">
        <ele>2343.6000976562</ele>
        <time>2014-01-31T13:47:57.000Z</time>
      </trkpt>
      <trkpt lat="45.578" lon="6.57183">
        <ele>2343.8000488281</ele>
        <time>2014-01-31T13:47:58.000Z</time>
      </trkpt>
      <trkpt lat="45.578" lon="6.57183">
        <ele>2344</ele>
        <time>2014-01-31T13:47:59.000Z</time>
      </trkpt>
      <trkpt lat="45.57798" lon="6.57185">
        <ele>2344.1999511719</ele>
        <time>2014-01-31T13:48:00.000Z</time>
      </trkpt>
      <trkpt lat="45.57795" lon="6.57185">
        <ele>2344.3999023438</ele>
        <time>2014-01-31T13:48:01.000Z</time>
      </trkpt>
      <trkpt lat="45.57792" lon="6.57184">
        <ele>2344.3999023438</ele>
        <time>2014-01-31T13:48:02.000Z</time>
      </trkpt>
      <trkpt lat="45.5779" lon="6.57181">
        <ele>2344.3999023438</ele>
        <time>2014-01-31T13:48:03.000Z</time>
      </trkpt>
      <trkpt lat="45.57788" lon="6.57179">
        <ele>2344.1999511719</ele>
        <time>2014-01-31T13:48:04.000Z</time>
      </trkpt>
      <trkpt lat="45.57787" lon="6.57177">
        <ele>2343.3999023438</ele>
        <time>2014-01-31T13:48:05.000Z</time>
      </trkpt>
      <trkpt lat="45.57785" lon="6.57175">
        <ele>2342.6000976562</ele>
        <time>2014-01-31T13:48:06.000Z</time>
      </trkpt>
      <trkpt lat="45.57783" lon="6.57173">
        <ele>2342</ele>
        <time>2014-01-31T13:48:07.000Z</time>
      </trkpt>
      <trkpt lat="45.57782" lon="6.57173">
        <ele>2341.6000976562</ele>
        <time>2014-01-31T13:48:08.000Z</time>
      </trkpt>
      <trkpt lat="45.57781" lon="6.57176">
        <ele>2341</ele>
        <time>2014-01-31T13:48:09.000Z</time>
      </trkpt>
      <trkpt lat="45.57782" lon="6.57178">
        <ele>2340.3999023438</ele>
        <time>2014-01-31T13:48:10.000Z</time>
      </trkpt>
      <trkpt lat="45.57781" lon="6.5718">
        <ele>2340</ele>
        <time>2014-01-31T13:48:11.000Z</time>
      </trkpt>
      <trkpt lat="45.57781" lon="6.57182">
        <ele>2339.6000976562</ele>
        <time>2014-01-31T13:48:12.000Z</time>
      </trkpt>
      <trkpt lat="45.5778" lon="6.57184">
        <ele>2339.3999023438</ele>
        <time>2014-01-31T13:48:13.000Z</time>
      </trkpt>
      <trkpt lat="45.5778" lon="6.57185">
        <ele>2338.8000488281</ele>
        <time>2014-01-31T13:48:14.000Z</time>
      </trkpt>
      <trkpt lat="45.57778" lon="6.57184">
        <ele>2338</ele>
        <time>2014-01-31T13:48:15.000Z</time>
      </trkpt>
      <trkpt lat="45.57776" lon="6.57183">
        <ele>2337.3999023438</ele>
        <time>2014-01-31T13:48:16.000Z</time>
      </trkpt>
      <trkpt lat="45.57774" lon="6.57183">
        <ele>2336.1999511719</ele>
        <time>2014-01-31T13:48:17.000Z</time>
      </trkpt>
      <trkpt lat="45.57775" lon="6.57185">
        <ele>2335.8000488281</ele>
        <time>2014-01-31T13:48:18.000Z</time>
      </trkpt>
      <trkpt lat="45.57775" lon="6.57188">
        <ele>2335.3999023438</ele>
        <time>2014-01-31T13:48:19.000Z</time>
      </trkpt>
      <trkpt lat="45.57776" lon="6.57191">
        <ele>2335.1999511719</ele>
        <time>2014-01-31T13:48:20.000Z</time>
      </trkpt>
      <trkpt lat="45.57776" lon="6.57195">
        <ele>2334.8000488281</ele>
        <time>2014-01-31T13:48:21.000Z</time>
      </trkpt>
      <trkpt lat="45.57778" lon="6.57198">
        <ele>2334.1999511719</ele>
        <time>2014-01-31T13:48:22.000Z</time>
      </trkpt>
      <trkpt lat="45.57778" lon="6.572">
        <ele>2333.3999023438</ele>
        <time>2014-01-31T13:48:23.000Z</time>
      </trkpt>
      <trkpt lat="45.57778" lon="6.572">
        <ele>2332.6000976562</ele>
        <time>2014-01-31T13:48:24.000Z</time>
      </trkpt>
      <trkpt lat="45.57778" lon="6.572">
        <ele>2331.8000488281</ele>
        <time>2014-01-31T13:48:25.000Z</time>
      </trkpt>
      <trkpt lat="45.57778" lon="6.572">
        <ele>2331.1999511719</ele>
        <time>2014-01-31T13:48:26.000Z</time>
      </trkpt>
      <trkpt lat="45.57778" lon="6.572">
        <ele>2330.6000976562</ele>
        <time>2014-01-31T13:48:27.000Z</time>
      </trkpt>
      <trkpt lat="45.57778" lon="6.572">
        <ele>2330</ele>
        <time>2014-01-31T13:48:28.000Z</time>
      </trkpt>
      <trkpt lat="45.57778" lon="6.572">
        <ele>2329.8000488281</ele>
        <time>2014-01-31T13:48:29.000Z</time>
      </trkpt>
      <trkpt lat="45.57778" lon="6.572">
        <ele>2329.6000976562</ele>
        <time>2014-01-31T13:48:30.000Z</time>
      </trkpt>
      <trkpt lat="45.57778" lon="6.572">
        <ele>2329.6000976562</ele>
        <time>2014-01-31T13:48:31.000Z</time>
      </trkpt>
      <trkpt lat="45.57778" lon="6.572">
        <ele>2329.6000976562</ele>
        <time>2014-01-31T13:48:32.000Z</time>
      </trkpt>
      <trkpt lat="45.57778" lon="6.572">
        <ele>2329.3999023438</ele>
        <time>2014-01-31T13:48:33.000Z</time>
      </trkpt>
      <trkpt lat="45.57778" lon="6.572">
        <ele>2329.3999023438</ele>
        <time>2014-01-31T13:48:35.000Z</time>
      </trkpt>
      <trkpt lat="45.57778" lon="6.572">
        <ele>2329.3999023438</ele>
        <time>2014-01-31T13:48:36.000Z</time>
      </trkpt>
      <trkpt lat="45.57778" lon="6.57201">
        <ele>2329.3999023438</ele>
        <time>2014-01-31T13:48:37.000Z</time>
      </trkpt>
      <trkpt lat="45.57778" lon="6.57203">
        <ele>2329.3999023438</ele>
        <time>2014-01-31T13:48:38.000Z</time>
      </trkpt>
      <trkpt lat="45.57777" lon="6.57203">
        <ele>2329.3999023438</ele>
        <time>2014-01-31T13:48:39.000Z</time>
      </trkpt>
      <trkpt lat="45.57774" lon="6.57206">
        <ele>2329.3999023438</ele>
        <time>2014-01-31T13:48:40.000Z</time>
      </trkpt>
      <trkpt lat="45.57773" lon="6.57208">
        <ele>2328.6000976562</ele>
        <time>2014-01-31T13:48:41.000Z</time>
      </trkpt>
      <trkpt lat="45.57771" lon="6.57211">
        <ele>2328.1999511719</ele>
        <time>2014-01-31T13:48:42.000Z</time>
      </trkpt>
      <trkpt lat="45.5777" lon="6.57212">
        <ele>2327.8000488281</ele>
        <time>2014-01-31T13:48:43.000Z</time>
      </trkpt>
      <trkpt lat="45.57769" lon="6.57213">
        <ele>2327.6000976562</ele>
        <time>2014-01-31T13:48:44.000Z</time>
      </trkpt>
      <trkpt lat="45.57769" lon="6.57214">
        <ele>2327</ele>
        <time>2014-01-31T13:48:45.000Z</time>
      </trkpt>
      <trkpt lat="45.57769" lon="6.57214">
        <ele>2326</ele>
        <time>2014-01-31T13:48:46.000Z</time>
      </trkpt>
      <trkpt lat="45.57768" lon="6.57215">
        <ele>2325</ele>
        <time>2014-01-31T13:48:47.000Z</time>
      </trkpt>
      <trkpt lat="45.57768" lon="6.57215">
        <ele>2324.3999023438</ele>
        <time>2014-01-31T13:48:48.000Z</time>
      </trkpt>
      <trkpt lat="45.57768" lon="6.57215">
        <ele>2324.1999511719</ele>
        <time>2014-01-31T13:48:49.000Z</time>
      </trkpt>
      <trkpt lat="45.57768" lon="6.57215">
        <ele>2324</ele>
        <time>2014-01-31T13:48:50.000Z</time>
      </trkpt>
      <trkpt lat="45.57768" lon="6.57215">
        <ele>2324</ele>
        <time>2014-01-31T13:48:51.000Z</time>
      </trkpt>
      <trkpt lat="45.57768" lon="6.57215">
        <ele>2324</ele>
        <time>2014-01-31T13:48:52.000Z</time>
      </trkpt>
      <trkpt lat="45.57768" lon="6.57215">
        <ele>2324</ele>
        <time>2014-01-31T13:48:53.000Z</time>
      </trkpt>
      <trkpt lat="45.57768" lon="6.57215">
        <ele>2324</ele>
        <time>2014-01-31T13:48:54.000Z</time>
      </trkpt>
      <trkpt lat="45.57768" lon="6.57215">
        <ele>2324</ele>
        <time>2014-01-31T13:48:56.000Z</time>
      </trkpt>
      <trkpt lat="45.57768" lon="6.57215">
        <ele>2324</ele>
        <time>2014-01-31T13:48:57.000Z</time>
      </trkpt>
      <trkpt lat="45.57768" lon="6.57215">
        <ele>2324</ele>
        <time>2014-01-31T13:48:58.000Z</time>
      </trkpt>
      <trkpt lat="45.57768" lon="6.57215">
        <ele>2324</ele>
        <time>2014-01-31T13:48:59.000Z</time>
      </trkpt>
      <trkpt lat="45.57768" lon="6.57215">
        <ele>2324</ele>
        <time>2014-01-31T13:49:00.000Z</time>
      </trkpt>
      <trkpt lat="45.57768" lon="6.57215">
        <ele>2324</ele>
        <time>2014-01-31T13:49:03.000Z</time>
      </trkpt>
      <trkpt lat="45.57768" lon="6.57215">
        <ele>2324</ele>
        <time>2014-01-31T13:49:04.000Z</time>
      </trkpt>
      <trkpt lat="45.57768" lon="6.57215">
        <ele>2324</ele>
        <time>2014-01-31T13:49:05.000Z</time>
      </trkpt>
      <trkpt lat="45.57768" lon="6.57215">
        <ele>2324</ele>
        <time>2014-01-31T13:49:06.000Z</time>
      </trkpt>
      <trkpt lat="45.57768" lon="6.57215">
        <ele>2324</ele>
        <time>2014-01-31T13:49:07.000Z</time>
      </trkpt>
      <trkpt lat="45.57768" lon="6.57215">
        <ele>2324</ele>
        <time>2014-01-31T13:49:10.000Z</time>
      </trkpt>
      <trkpt lat="45.57768" lon="6.57215">
        <ele>2324</ele>
        <time>2014-01-31T13:49:11.000Z</time>
      </trkpt>
      <trkpt lat="45.57769" lon="6.57216">
        <ele>2324</ele>
        <time>2014-01-31T13:49:12.000Z</time>
      </trkpt>
      <trkpt lat="45.5777" lon="6.57218">
        <ele>2324</ele>
        <time>2014-01-31T13:49:13.000Z</time>
      </trkpt>
      <trkpt lat="45.5777" lon="6.5722">
        <ele>2324</ele>
        <time>2014-01-31T13:49:14.000Z</time>
      </trkpt>
      <trkpt lat="45.5777" lon="6.57221">
        <ele>2324</ele>
        <time>2014-01-31T13:49:15.000Z</time>
      </trkpt>
      <trkpt lat="45.57769" lon="6.57222">
        <ele>2323.8000488281</ele>
        <time>2014-01-31T13:49:16.000Z</time>
      </trkpt>
      <trkpt lat="45.57768" lon="6.57223">
        <ele>2323.6000976562</ele>
        <time>2014-01-31T13:49:17.000Z</time>
      </trkpt>
      <trkpt lat="45.57768" lon="6.57225">
        <ele>2322.8000488281</ele>
        <time>2014-01-31T13:49:18.000Z</time>
      </trkpt>
      <trkpt lat="45.57769" lon="6.57226">
        <ele>2322</ele>
        <time>2014-01-31T13:49:19.000Z</time>
      </trkpt>
      <trkpt lat="45.57769" lon="6.57228">
        <ele>2321.3999023438</ele>
        <time>2014-01-31T13:49:20.000Z</time>
      </trkpt>
      <trkpt lat="45.57769" lon="6.57231">
        <ele>2321.1999511719</ele>
        <time>2014-01-31T13:49:21.000Z</time>
      </trkpt>
      <trkpt lat="45.57769" lon="6.57233">
        <ele>2321</ele>
        <time>2014-01-31T13:49:22.000Z</time>
      </trkpt>
      <trkpt lat="45.57768" lon="6.57234">
        <ele>2320.8000488281</ele>
        <time>2014-01-31T13:49:23.000Z</time>
      </trkpt>
      <trkpt lat="45.57768" lon="6.57235">
        <ele>2320.6000976562</ele>
        <time>2014-01-31T13:49:24.000Z</time>
      </trkpt>
      <trkpt lat="45.57768" lon="6.57235">
        <ele>2320.1999511719</ele>
        <time>2014-01-31T13:49:25.000Z</time>
      </trkpt>
      <trkpt lat="45.57767" lon="6.57237">
        <ele>2319.8000488281</ele>
        <time>2014-01-31T13:49:26.000Z</time>
      </trkpt>
      <trkpt lat="45.57766" lon="6.57236">
        <ele>2319.3999023438</ele>
        <time>2014-01-31T13:49:27.000Z</time>
      </trkpt>
      <trkpt lat="45.57766" lon="6.57235">
        <ele>2319</ele>
        <time>2014-01-31T13:49:28.000Z</time>
      </trkpt>
      <trkpt lat="45.57765" lon="6.57234">
        <ele>2317.8000488281</ele>
        <time>2014-01-31T13:49:29.000Z</time>
      </trkpt>
      <trkpt lat="45.57765" lon="6.57235">
        <ele>2317.1999511719</ele>
        <time>2014-01-31T13:49:30.000Z</time>
      </trkpt>
      <trkpt lat="45.57764" lon="6.57237">
        <ele>2316.6000976562</ele>
        <time>2014-01-31T13:49:31.000Z</time>
      </trkpt>
      <trkpt lat="45.57763" lon="6.57238">
        <ele>2316.1999511719</ele>
        <time>2014-01-31T13:49:32.000Z</time>
      </trkpt>
      <trkpt lat="45.57761" lon="6.5724">
        <ele>2315.3999023438</ele>
        <time>2014-01-31T13:49:33.000Z</time>
      </trkpt>
      <trkpt lat="45.57759" lon="6.57241">
        <ele>2314.3999023438</ele>
        <time>2014-01-31T13:49:34.000Z</time>
      </trkpt>
      <trkpt lat="45.57759" lon="6.57238">
        <ele>2312.8000488281</ele>
        <time>2014-01-31T13:49:35.000Z</time>
      </trkpt>
      <trkpt lat="45.57758" lon="6.57239">
        <ele>2311.3999023438</ele>
        <time>2014-01-31T13:49:36.000Z</time>
      </trkpt>
      <trkpt lat="45.57757" lon="6.57241">
        <ele>2310.3999023438</ele>
        <time>2014-01-31T13:49:37.000Z</time>
      </trkpt>
      <trkpt lat="45.57756" lon="6.57242">
        <ele>2309.8000488281</ele>
        <time>2014-01-31T13:49:38.000Z</time>
      </trkpt>
      <trkpt lat="45.57755" lon="6.57243">
        <ele>2309.3999023438</ele>
        <time>2014-01-31T13:49:39.000Z</time>
      </trkpt>
      <trkpt lat="45.57753" lon="6.57243">
        <ele>2309</ele>
        <time>2014-01-31T13:49:40.000Z</time>
      </trkpt>
      <trkpt lat="45.57751" lon="6.57243">
        <ele>2308.1999511719</ele>
        <time>2014-01-31T13:49:41.000Z</time>
      </trkpt>
      <trkpt lat="45.5775" lon="6.57242">
        <ele>2307</ele>
        <time>2014-01-31T13:49:42.000Z</time>
      </trkpt>
      <trkpt lat="45.57749" lon="6.57244">
        <ele>2305.8000488281</ele>
        <time>2014-01-31T13:49:43.000Z</time>
      </trkpt>
      <trkpt lat="45.57748" lon="6.57247">
        <ele>2304.8000488281</ele>
        <time>2014-01-31T13:49:44.000Z</time>
      </trkpt>
      <trkpt lat="45.57747" lon="6.5725">
        <ele>2304.1999511719</ele>
        <time>2014-01-31T13:49:45.000Z</time>
      </trkpt>
      <trkpt lat="45.57746" lon="6.57251">
        <ele>2303.8000488281</ele>
        <time>2014-01-31T13:49:46.000Z</time>
      </trkpt>
      <trkpt lat="45.57744" lon="6.5725">
        <ele>2303.1999511719</ele>
        <time>2014-01-31T13:49:47.000Z</time>
      </trkpt>
      <trkpt lat="45.57741" lon="6.57249">
        <ele>2302.1999511719</ele>
        <time>2014-01-31T13:49:48.000Z</time>
      </trkpt>
      <trkpt lat="45.57741" lon="6.57245">
        <ele>2300.8000488281</ele>
        <time>2014-01-31T13:49:49.000Z</time>
      </trkpt>
      <trkpt lat="45.57741" lon="6.57243">
        <ele>2299.1999511719</ele>
        <time>2014-01-31T13:49:50.000Z</time>
      </trkpt>
      <trkpt lat="45.57741" lon="6.57243">
        <ele>2297.8000488281</ele>
        <time>2014-01-31T13:49:51.000Z</time>
      </trkpt>
      <trkpt lat="45.57741" lon="6.57243">
        <ele>2296.8000488281</ele>
        <time>2014-01-31T13:49:52.000Z</time>
      </trkpt>
      <trkpt lat="45.5774" lon="6.57244">
        <ele>2295.3999023438</ele>
        <time>2014-01-31T13:49:53.000Z</time>
      </trkpt>
      <trkpt lat="45.57739" lon="6.57246">
        <ele>2294.8000488281</ele>
        <time>2014-01-31T13:49:54.000Z</time>
      </trkpt>
      <trkpt lat="45.57738" lon="6.57247">
        <ele>2294.3999023438</ele>
        <time>2014-01-31T13:49:55.000Z</time>
      </trkpt>
      <trkpt lat="45.57736" lon="6.57246">
        <ele>2294.1999511719</ele>
        <time>2014-01-31T13:49:56.000Z</time>
      </trkpt>
      <trkpt lat="45.57734" lon="6.57243">
        <ele>2293.8000488281</ele>
        <time>2014-01-31T13:49:57.000Z</time>
      </trkpt>
      <trkpt lat="45.57733" lon="6.57241">
        <ele>2293.1999511719</ele>
        <time>2014-01-31T13:49:58.000Z</time>
      </trkpt>
      <trkpt lat="45.57732" lon="6.57241">
        <ele>2292</ele>
        <time>2014-01-31T13:49:59.000Z</time>
      </trkpt>
      <trkpt lat="45.57732" lon="6.57244">
        <ele>2291</ele>
        <time>2014-01-31T13:50:00.000Z</time>
      </trkpt>
      <trkpt lat="45.5773" lon="6.57245">
        <ele>2290.1999511719</ele>
        <time>2014-01-31T13:50:01.000Z</time>
      </trkpt>
      <trkpt lat="45.57728" lon="6.57248">
        <ele>2289.8000488281</ele>
        <time>2014-01-31T13:50:02.000Z</time>
      </trkpt>
      <trkpt lat="45.57727" lon="6.5725">
        <ele>2289</ele>
        <time>2014-01-31T13:50:03.000Z</time>
      </trkpt>
      <trkpt lat="45.57726" lon="6.57252">
        <ele>2287.8000488281</ele>
        <time>2014-01-31T13:50:04.000Z</time>
      </trkpt>
      <trkpt lat="45.57723" lon="6.57252">
        <ele>2286.6000976562</ele>
        <time>2014-01-31T13:50:05.000Z</time>
      </trkpt>
      <trkpt lat="45.57721" lon="6.57252">
        <ele>2285.3999023438</ele>
        <time>2014-01-31T13:50:06.000Z</time>
      </trkpt>
      <trkpt lat="45.57719" lon="6.57252">
        <ele>2284.1999511719</ele>
        <time>2014-01-31T13:50:07.000Z</time>
      </trkpt>
      <trkpt lat="45.57715" lon="6.57253">
        <ele>2282.8000488281</ele>
        <time>2014-01-31T13:50:08.000Z</time>
      </trkpt>
      <trkpt lat="45.57712" lon="6.57254">
        <ele>2281.8000488281</ele>
        <time>2014-01-31T13:50:09.000Z</time>
      </trkpt>
      <trkpt lat="45.5771" lon="6.57254">
        <ele>2281</ele>
        <time>2014-01-31T13:50:10.000Z</time>
      </trkpt>
      <trkpt lat="45.57709" lon="6.57254">
        <ele>2280.1999511719</ele>
        <time>2014-01-31T13:50:11.000Z</time>
      </trkpt>
      <trkpt lat="45.57709" lon="6.57254">
        <ele>2279.3999023438</ele>
        <time>2014-01-31T13:50:12.000Z</time>
      </trkpt>
      <trkpt lat="45.57709" lon="6.57254">
        <ele>2278.6000976562</ele>
        <time>2014-01-31T13:50:13.000Z</time>
      </trkpt>
      <trkpt lat="45.57709" lon="6.57254">
        <ele>2277.8000488281</ele>
        <time>2014-01-31T13:50:14.000Z</time>
      </trkpt>
      <trkpt lat="45.57709" lon="6.57254">
        <ele>2277.3999023438</ele>
        <time>2014-01-31T13:50:15.000Z</time>
      </trkpt>
      <trkpt lat="45.57709" lon="6.57254">
        <ele>2277</ele>
        <time>2014-01-31T13:50:16.000Z</time>
      </trkpt>
      <trkpt lat="45.57709" lon="6.57255">
        <ele>2276.8000488281</ele>
        <time>2014-01-31T13:50:17.000Z</time>
      </trkpt>
      <trkpt lat="45.57709" lon="6.57255">
        <ele>2276.8000488281</ele>
        <time>2014-01-31T13:50:18.000Z</time>
      </trkpt>
      <trkpt lat="45.57709" lon="6.57256">
        <ele>2276.8000488281</ele>
        <time>2014-01-31T13:50:19.000Z</time>
      </trkpt>
      <trkpt lat="45.57709" lon="6.57256">
        <ele>2276.8000488281</ele>
        <time>2014-01-31T13:50:20.000Z</time>
      </trkpt>
      <trkpt lat="45.57709" lon="6.57258">
        <ele>2276.6000976562</ele>
        <time>2014-01-31T13:50:21.000Z</time>
      </trkpt>
      <trkpt lat="45.57709" lon="6.57261">
        <ele>2276.6000976562</ele>
        <time>2014-01-31T13:50:22.000Z</time>
      </trkpt>
      <trkpt lat="45.57709" lon="6.57263">
        <ele>2276.6000976562</ele>
        <time>2014-01-31T13:50:23.000Z</time>
      </trkpt>
      <trkpt lat="45.57707" lon="6.57267">
        <ele>2276.6000976562</ele>
        <time>2014-01-31T13:50:24.000Z</time>
      </trkpt>
      <trkpt lat="45.57705" lon="6.5727">
        <ele>2276.3999023438</ele>
        <time>2014-01-31T13:50:25.000Z</time>
      </trkpt>
      <trkpt lat="45.57705" lon="6.57274">
        <ele>2276</ele>
        <time>2014-01-31T13:50:26.000Z</time>
      </trkpt>
      <trkpt lat="45.57705" lon="6.57278">
        <ele>2275.1999511719</ele>
        <time>2014-01-31T13:50:27.000Z</time>
      </trkpt>
      <trkpt lat="45.57705" lon="6.57279">
        <ele>2274.1999511719</ele>
        <time>2014-01-31T13:50:28.000Z</time>
      </trkpt>
      <trkpt lat="45.57701" lon="6.57282">
        <ele>2273</ele>
        <time>2014-01-31T13:50:29.000Z</time>
      </trkpt>
      <trkpt lat="45.577" lon="6.57284">
        <ele>2271.3999023438</ele>
        <time>2014-01-31T13:50:30.000Z</time>
      </trkpt>
      <trkpt lat="45.57699" lon="6.57287">
        <ele>2269.1999511719</ele>
        <time>2014-01-31T13:50:31.000Z</time>
      </trkpt>
      <trkpt lat="45.57698" lon="6.5729">
        <ele>2267.6000976562</ele>
        <time>2014-01-31T13:50:32.000Z</time>
      </trkpt>
      <trkpt lat="45.57698" lon="6.57292">
        <ele>2266.3999023438</ele>
        <time>2014-01-31T13:50:33.000Z</time>
      </trkpt>
      <trkpt lat="45.57695" lon="6.57292">
        <ele>2265.1999511719</ele>
        <time>2014-01-31T13:50:34.000Z</time>
      </trkpt>
      <trkpt lat="45.57693" lon="6.57291">
        <ele>2263.6000976562</ele>
        <time>2014-01-31T13:50:35.000Z</time>
      </trkpt>
      <trkpt lat="45.57691" lon="6.5729">
        <ele>2261.6000976562</ele>
        <time>2014-01-31T13:50:36.000Z</time>
      </trkpt>
      <trkpt lat="45.5769" lon="6.57289">
        <ele>2260.1999511719</ele>
        <time>2014-01-31T13:50:37.000Z</time>
      </trkpt>
      <trkpt lat="45.5769" lon="6.57288">
        <ele>2259</ele>
        <time>2014-01-31T13:50:38.000Z</time>
      </trkpt>
      <trkpt lat="45.5769" lon="6.57287">
        <ele>2258.3999023438</ele>
        <time>2014-01-31T13:50:39.000Z</time>
      </trkpt>
      <trkpt lat="45.5769" lon="6.57287">
        <ele>2257.8000488281</ele>
        <time>2014-01-31T13:50:40.000Z</time>
      </trkpt>
      <trkpt lat="45.5769" lon="6.57287">
        <ele>2256.8000488281</ele>
        <time>2014-01-31T13:50:41.000Z</time>
      </trkpt>
      <trkpt lat="45.5769" lon="6.57287">
        <ele>2256.3999023438</ele>
        <time>2014-01-31T13:50:42.000Z</time>
      </trkpt>
      <trkpt lat="45.5769" lon="6.57287">
        <ele>2256.1999511719</ele>
        <time>2014-01-31T13:50:43.000Z</time>
      </trkpt>
      <trkpt lat="45.5769" lon="6.57288">
        <ele>2256</ele>
        <time>2014-01-31T13:50:44.000Z</time>
      </trkpt>
      <trkpt lat="45.5769" lon="6.57288">
        <ele>2256</ele>
        <time>2014-01-31T13:50:45.000Z</time>
      </trkpt>
      <trkpt lat="45.5769" lon="6.57288">
        <ele>2255.8000488281</ele>
        <time>2014-01-31T13:50:46.000Z</time>
      </trkpt>
      <trkpt lat="45.5769" lon="6.57287">
        <ele>2255.8000488281</ele>
        <time>2014-01-31T13:50:47.000Z</time>
      </trkpt>
      <trkpt lat="45.5769" lon="6.57287">
        <ele>2255.8000488281</ele>
        <time>2014-01-31T13:50:48.000Z</time>
      </trkpt>
      <trkpt lat="45.57689" lon="6.57288">
        <ele>2255.6000976562</ele>
        <time>2014-01-31T13:50:49.000Z</time>
      </trkpt>
      <trkpt lat="45.57687" lon="6.5729">
        <ele>2255.6000976562</ele>
        <time>2014-01-31T13:50:50.000Z</time>
      </trkpt>
      <trkpt lat="45.57687" lon="6.57292">
        <ele>2255.6000976562</ele>
        <time>2014-01-31T13:50:51.000Z</time>
      </trkpt>
      <trkpt lat="45.57687" lon="6.57295">
        <ele>2255.3999023438</ele>
        <time>2014-01-31T13:50:52.000Z</time>
      </trkpt>
      <trkpt lat="45.57685" lon="6.57297">
        <ele>2255.1999511719</ele>
        <time>2014-01-31T13:50:53.000Z</time>
      </trkpt>
      <trkpt lat="45.57684" lon="6.57301">
        <ele>2255</ele>
        <time>2014-01-31T13:50:54.000Z</time>
      </trkpt>
      <trkpt lat="45.57684" lon="6.57304">
        <ele>2254.3999023438</ele>
        <time>2014-01-31T13:50:55.000Z</time>
      </trkpt>
      <trkpt lat="45.57681" lon="6.57308">
        <ele>2253.1999511719</ele>
        <time>2014-01-31T13:50:56.000Z</time>
      </trkpt>
      <trkpt lat="45.57677" lon="6.57312">
        <ele>2252</ele>
        <time>2014-01-31T13:50:57.000Z</time>
      </trkpt>
      <trkpt lat="45.57676" lon="6.57317">
        <ele>2250.8000488281</ele>
        <time>2014-01-31T13:50:58.000Z</time>
      </trkpt>
      <trkpt lat="45.57674" lon="6.57321">
        <ele>2249.1999511719</ele>
        <time>2014-01-31T13:50:59.000Z</time>
      </trkpt>
      <trkpt lat="45.57673" lon="6.57325">
        <ele>2247.1999511719</ele>
        <time>2014-01-31T13:51:00.000Z</time>
      </trkpt>
      <trkpt lat="45.57672" lon="6.57329">
        <ele>2244.6000976562</ele>
        <time>2014-01-31T13:51:01.000Z</time>
      </trkpt>
      <trkpt lat="45.57672" lon="6.57332">
        <ele>2242.1999511719</ele>
        <time>2014-01-31T13:51:02.000Z</time>
      </trkpt>
      <trkpt lat="45.5767" lon="6.57335">
        <ele>2239.8000488281</ele>
        <time>2014-01-31T13:51:03.000Z</time>
      </trkpt>
      <trkpt lat="45.5767" lon="6.57338">
        <ele>2237.6000976562</ele>
        <time>2014-01-31T13:51:04.000Z</time>
      </trkpt>
      <trkpt lat="45.57669" lon="6.57341">
        <ele>2233.8000488281</ele>
        <time>2014-01-31T13:51:05.000Z</time>
      </trkpt>
      <trkpt lat="45.57667" lon="6.57344">
        <ele>2231.8000488281</ele>
        <time>2014-01-31T13:51:06.000Z</time>
      </trkpt>
      <trkpt lat="45.57665" lon="6.57346">
        <ele>2229.6000976562</ele>
        <time>2014-01-31T13:51:07.000Z</time>
      </trkpt>
      <trkpt lat="45.57664" lon="6.57348">
        <ele>2227.6000976562</ele>
        <time>2014-01-31T13:51:08.000Z</time>
      </trkpt>
      <trkpt lat="45.57662" lon="6.57349">
        <ele>2226.1999511719</ele>
        <time>2014-01-31T13:51:09.000Z</time>
      </trkpt>
      <trkpt lat="45.57661" lon="6.5735">
        <ele>2225.3999023438</ele>
        <time>2014-01-31T13:51:10.000Z</time>
      </trkpt>
      <trkpt lat="45.5766" lon="6.57351">
        <ele>2224.8000488281</ele>
        <time>2014-01-31T13:51:11.000Z</time>
      </trkpt>
      <trkpt lat="45.57662" lon="6.57347">
        <ele>2224.6000976562</ele>
        <time>2014-01-31T13:51:12.000Z</time>
      </trkpt>
      <trkpt lat="45.57662" lon="6.57347">
        <ele>2224.3999023438</ele>
        <time>2014-01-31T13:51:13.000Z</time>
      </trkpt>
      <trkpt lat="45.57662" lon="6.57347">
        <ele>2224.1999511719</ele>
        <time>2014-01-31T13:51:14.000Z</time>
      </trkpt>
      <trkpt lat="45.57663" lon="6.57344">
        <ele>2224.1999511719</ele>
        <time>2014-01-31T13:51:15.000Z</time>
      </trkpt>
      <trkpt lat="45.57663" lon="6.57344">
        <ele>2224</ele>
        <time>2014-01-31T13:51:16.000Z</time>
      </trkpt>
      <trkpt lat="45.57664" lon="6.57343">
        <ele>2224</ele>
        <time>2014-01-31T13:51:17.000Z</time>
      </trkpt>
      <trkpt lat="45.57665" lon="6.57343">
        <ele>2224</ele>
        <time>2014-01-31T13:51:18.000Z</time>
      </trkpt>
      <trkpt lat="45.57665" lon="6.57344">
        <ele>2224</ele>
        <time>2014-01-31T13:51:19.000Z</time>
      </trkpt>
      <trkpt lat="45.57665" lon="6.57344">
        <ele>2224</ele>
        <time>2014-01-31T13:51:20.000Z</time>
      </trkpt>
      <trkpt lat="45.57666" lon="6.57345">
        <ele>2223.8000488281</ele>
        <time>2014-01-31T13:51:21.000Z</time>
      </trkpt>
      <trkpt lat="45.57666" lon="6.57345">
        <ele>2223.8000488281</ele>
        <time>2014-01-31T13:51:22.000Z</time>
      </trkpt>
      <trkpt lat="45.57667" lon="6.57346">
        <ele>2223.8000488281</ele>
        <time>2014-01-31T13:51:24.000Z</time>
      </trkpt>
      <trkpt lat="45.57667" lon="6.57346">
        <ele>2223.8000488281</ele>
        <time>2014-01-31T13:51:29.000Z</time>
      </trkpt>
      <trkpt lat="45.57668" lon="6.57347">
        <ele>2223.8000488281</ele>
        <time>2014-01-31T13:51:31.000Z</time>
      </trkpt>
      <trkpt lat="45.57668" lon="6.57347">
        <ele>2224</ele>
        <time>2014-01-31T13:51:32.000Z</time>
      </trkpt>
      <trkpt lat="45.57668" lon="6.57347">
        <ele>2224</ele>
        <time>2014-01-31T13:51:33.000Z</time>
      </trkpt>
      <trkpt lat="45.57669" lon="6.57347">
        <ele>2224</ele>
        <time>2014-01-31T13:51:34.000Z</time>
      </trkpt>
      <trkpt lat="45.57669" lon="6.57348">
        <ele>2224</ele>
        <time>2014-01-31T13:51:35.000Z</time>
      </trkpt>
      <trkpt lat="45.57669" lon="6.57347">
        <ele>2224</ele>
        <time>2014-01-31T13:51:36.000Z</time>
      </trkpt>
      <trkpt lat="45.57669" lon="6.57346">
        <ele>2224</ele>
        <time>2014-01-31T13:51:37.000Z</time>
      </trkpt>
      <trkpt lat="45.57669" lon="6.57346">
        <ele>2224</ele>
        <time>2014-01-31T13:51:38.000Z</time>
      </trkpt>
      <trkpt lat="45.57669" lon="6.57347">
        <ele>2224</ele>
        <time>2014-01-31T13:51:42.000Z</time>
      </trkpt>
      <trkpt lat="45.57669" lon="6.57347">
        <ele>2224</ele>
        <time>2014-01-31T13:51:47.000Z</time>
      </trkpt>
      <trkpt lat="45.57669" lon="6.57347">
        <ele>2224</ele>
        <time>2014-01-31T13:51:48.000Z</time>
      </trkpt>
      <trkpt lat="45.57669" lon="6.57347">
        <ele>2224</ele>
        <time>2014-01-31T13:51:49.000Z</time>
      </trkpt>
      <trkpt lat="45.57669" lon="6.57347">
        <ele>2224</ele>
        <time>2014-01-31T13:51:50.000Z</time>
      </trkpt>
      <trkpt lat="45.57669" lon="6.57347">
        <ele>2224</ele>
        <time>2014-01-31T13:51:51.000Z</time>
      </trkpt>
      <trkpt lat="45.57669" lon="6.57347">
        <ele>2224</ele>
        <time>2014-01-31T13:51:52.000Z</time>
      </trkpt>
      <trkpt lat="45.57669" lon="6.57347">
        <ele>2224</ele>
        <time>2014-01-31T13:51:53.000Z</time>
      </trkpt>
      <trkpt lat="45.57669" lon="6.57347">
        <ele>2223.8000488281</ele>
        <time>2014-01-31T13:51:55.000Z</time>
      </trkpt>
      <trkpt lat="45.57669" lon="6.57347">
        <ele>2223.8000488281</ele>
        <time>2014-01-31T13:51:58.000Z</time>
      </trkpt>
      <trkpt lat="45.57666" lon="6.57347">
        <ele>2223.8000488281</ele>
        <time>2014-01-31T13:52:00.000Z</time>
      </trkpt>
      <trkpt lat="45.57666" lon="6.57348">
        <ele>2223.8000488281</ele>
        <time>2014-01-31T13:52:02.000Z</time>
      </trkpt>
      <trkpt lat="45.57662" lon="6.57348">
        <ele>2223.6000976562</ele>
        <time>2014-01-31T13:52:03.000Z</time>
      </trkpt>
      <trkpt lat="45.57658" lon="6.57351">
        <ele>2223.3999023438</ele>
        <time>2014-01-31T13:52:04.000Z</time>
      </trkpt>
      <trkpt lat="45.57657" lon="6.57354">
        <ele>2222.8000488281</ele>
        <time>2014-01-31T13:52:05.000Z</time>
      </trkpt>
      <trkpt lat="45.57654" lon="6.57357">
        <ele>2221.6000976562</ele>
        <time>2014-01-31T13:52:06.000Z</time>
      </trkpt>
      <trkpt lat="45.57649" lon="6.57358">
        <ele>2220.6000976562</ele>
        <time>2014-01-31T13:52:07.000Z</time>
      </trkpt>
      <trkpt lat="45.57645" lon="6.57357">
        <ele>2219.3999023438</ele>
        <time>2014-01-31T13:52:08.000Z</time>
      </trkpt>
      <trkpt lat="45.57641" lon="6.57355">
        <ele>2217.8000488281</ele>
        <time>2014-01-31T13:52:09.000Z</time>
      </trkpt>
      <trkpt lat="45.57637" lon="6.57354">
        <ele>2215.8000488281</ele>
        <time>2014-01-31T13:52:10.000Z</time>
      </trkpt>
      <trkpt lat="45.57632" lon="6.57352">
        <ele>2214</ele>
        <time>2014-01-31T13:52:11.000Z</time>
      </trkpt>
      <trkpt lat="45.57628" lon="6.57351">
        <ele>2212.3999023438</ele>
        <time>2014-01-31T13:52:12.000Z</time>
      </trkpt>
      <trkpt lat="45.57623" lon="6.57349">
        <ele>2211.3999023438</ele>
        <time>2014-01-31T13:52:13.000Z</time>
      </trkpt>
      <trkpt lat="45.57618" lon="6.57347">
        <ele>2210.3999023438</ele>
        <time>2014-01-31T13:52:14.000Z</time>
      </trkpt>
      <trkpt lat="45.57612" lon="6.57345">
        <ele>2209.3999023438</ele>
        <time>2014-01-31T13:52:15.000Z</time>
      </trkpt>
      <trkpt lat="45.57608" lon="6.57343">
        <ele>2208.6000976562</ele>
        <time>2014-01-31T13:52:16.000Z</time>
      </trkpt>
      <trkpt lat="45.57601" lon="6.57343">
        <ele>2207.6000976562</ele>
        <time>2014-01-31T13:52:17.000Z</time>
      </trkpt>
      <trkpt lat="45.57595" lon="6.57341">
        <ele>2205.3999023438</ele>
        <time>2014-01-31T13:52:18.000Z</time>
      </trkpt>
      <trkpt lat="45.5759" lon="6.57338">
        <ele>2204.1999511719</ele>
        <time>2014-01-31T13:52:19.000Z</time>
      </trkpt>
      <trkpt lat="45.57584" lon="6.57332">
        <ele>2202.8000488281</ele>
        <time>2014-01-31T13:52:20.000Z</time>
      </trkpt>
      <trkpt lat="45.57579" lon="6.57326">
        <ele>2201.3999023438</ele>
        <time>2014-01-31T13:52:21.000Z</time>
      </trkpt>
      <trkpt lat="45.57574" lon="6.57321">
        <ele>2200</ele>
        <time>2014-01-31T13:52:22.000Z</time>
      </trkpt>
      <trkpt lat="45.57571" lon="6.57315">
        <ele>2198.8000488281</ele>
        <time>2014-01-31T13:52:23.000Z</time>
      </trkpt>
      <trkpt lat="45.57568" lon="6.57312">
        <ele>2197.3999023438</ele>
        <time>2014-01-31T13:52:24.000Z</time>
      </trkpt>
      <trkpt lat="45.57567" lon="6.57311">
        <ele>2195.8000488281</ele>
        <time>2014-01-31T13:52:25.000Z</time>
      </trkpt>
      <trkpt lat="45.57565" lon="6.57312">
        <ele>2194.6000976562</ele>
        <time>2014-01-31T13:52:26.000Z</time>
      </trkpt>
      <trkpt lat="45.57563" lon="6.57314">
        <ele>2193.6000976562</ele>
        <time>2014-01-31T13:52:27.000Z</time>
      </trkpt>
      <trkpt lat="45.5756" lon="6.57317">
        <ele>2192.6000976562</ele>
        <time>2014-01-31T13:52:28.000Z</time>
      </trkpt>
      <trkpt lat="45.57557" lon="6.57318">
        <ele>2191.6000976562</ele>
        <time>2014-01-31T13:52:29.000Z</time>
      </trkpt>
      <trkpt lat="45.57552" lon="6.57318">
        <ele>2190.3999023438</ele>
        <time>2014-01-31T13:52:30.000Z</time>
      </trkpt>
      <trkpt lat="45.57547" lon="6.57319">
        <ele>2189.1999511719</ele>
        <time>2014-01-31T13:52:31.000Z</time>
      </trkpt>
      <trkpt lat="45.57541" lon="6.57319">
        <ele>2187.6000976562</ele>
        <time>2014-01-31T13:52:32.000Z</time>
      </trkpt>
      <trkpt lat="45.57535" lon="6.5732">
        <ele>2185.6000976562</ele>
        <time>2014-01-31T13:52:33.000Z</time>
      </trkpt>
      <trkpt lat="45.57529" lon="6.57321">
        <ele>2183.8000488281</ele>
        <time>2014-01-31T13:52:34.000Z</time>
      </trkpt>
      <trkpt lat="45.57522" lon="6.57322">
        <ele>2182</ele>
        <time>2014-01-31T13:52:35.000Z</time>
      </trkpt>
      <trkpt lat="45.57516" lon="6.57324">
        <ele>2180.3999023438</ele>
        <time>2014-01-31T13:52:36.000Z</time>
      </trkpt>
      <trkpt lat="45.5751" lon="6.57327">
        <ele>2178.6000976562</ele>
        <time>2014-01-31T13:52:37.000Z</time>
      </trkpt>
      <trkpt lat="45.57504" lon="6.57329">
        <ele>2176.8000488281</ele>
        <time>2014-01-31T13:52:38.000Z</time>
      </trkpt>
      <trkpt lat="45.57498" lon="6.57333">
        <ele>2174.8000488281</ele>
        <time>2014-01-31T13:52:39.000Z</time>
      </trkpt>
      <trkpt lat="45.57491" lon="6.57336">
        <ele>2172.8000488281</ele>
        <time>2014-01-31T13:52:40.000Z</time>
      </trkpt>
      <trkpt lat="45.57485" lon="6.57341">
        <ele>2170.8000488281</ele>
        <time>2014-01-31T13:52:41.000Z</time>
      </trkpt>
      <trkpt lat="45.57479" lon="6.57342">
        <ele>2168.6000976562</ele>
        <time>2014-01-31T13:52:42.000Z</time>
      </trkpt>
      <trkpt lat="45.57473" lon="6.57345">
        <ele>2164.8000488281</ele>
        <time>2014-01-31T13:52:43.000Z</time>
      </trkpt>
      <trkpt lat="45.57466" lon="6.57345">
        <ele>2163.1999511719</ele>
        <time>2014-01-31T13:52:44.000Z</time>
      </trkpt>
      <trkpt lat="45.57462" lon="6.57344">
        <ele>2161.3999023438</ele>
        <time>2014-01-31T13:52:45.000Z</time>
      </trkpt>
      <trkpt lat="45.5746" lon="6.57342">
        <ele>2159.8000488281</ele>
        <time>2014-01-31T13:52:46.000Z</time>
      </trkpt>
      <trkpt lat="45.57458" lon="6.57341">
        <ele>2158.1999511719</ele>
        <time>2014-01-31T13:52:47.000Z</time>
      </trkpt>
      <trkpt lat="45.57456" lon="6.5734">
        <ele>2156.3999023438</ele>
        <time>2014-01-31T13:52:48.000Z</time>
      </trkpt>
      <trkpt lat="45.57455" lon="6.57339">
        <ele>2155</ele>
        <time>2014-01-31T13:52:49.000Z</time>
      </trkpt>
      <trkpt lat="45.57454" lon="6.5734">
        <ele>2154</ele>
        <time>2014-01-31T13:52:50.000Z</time>
      </trkpt>
      <trkpt lat="45.57453" lon="6.57341">
        <ele>2153.1999511719</ele>
        <time>2014-01-31T13:52:51.000Z</time>
      </trkpt>
      <trkpt lat="45.57451" lon="6.57342">
        <ele>2152.6000976562</ele>
        <time>2014-01-31T13:52:52.000Z</time>
      </trkpt>
      <trkpt lat="45.5745" lon="6.57344">
        <ele>2152.1999511719</ele>
        <time>2014-01-31T13:52:53.000Z</time>
      </trkpt>
      <trkpt lat="45.57445" lon="6.57348">
        <ele>2152</ele>
        <time>2014-01-31T13:52:54.000Z</time>
      </trkpt>
      <trkpt lat="45.57439" lon="6.57351">
        <ele>2151.6000976562</ele>
        <time>2014-01-31T13:52:55.000Z</time>
      </trkpt>
      <trkpt lat="45.57433" lon="6.57353">
        <ele>2151.3999023438</ele>
        <time>2014-01-31T13:52:56.000Z</time>
      </trkpt>
      <trkpt lat="45.57427" lon="6.57355">
        <ele>2151.1999511719</ele>
        <time>2014-01-31T13:52:57.000Z</time>
      </trkpt>
      <trkpt lat="45.57421" lon="6.57358">
        <ele>2150.6000976562</ele>
        <time>2014-01-31T13:52:58.000Z</time>
      </trkpt>
      <trkpt lat="45.57414" lon="6.57359">
        <ele>2149.8000488281</ele>
        <time>2014-01-31T13:52:59.000Z</time>
      </trkpt>
      <trkpt lat="45.57407" lon="6.57361">
        <ele>2148.6000976562</ele>
        <time>2014-01-31T13:53:00.000Z</time>
      </trkpt>
      <trkpt lat="45.57401" lon="6.57364">
        <ele>2147</ele>
        <time>2014-01-31T13:53:01.000Z</time>
      </trkpt>
      <trkpt lat="45.57394" lon="6.57366">
        <ele>2145.3999023438</ele>
        <time>2014-01-31T13:53:02.000Z</time>
      </trkpt>
      <trkpt lat="45.57388" lon="6.57369">
        <ele>2143.6000976562</ele>
        <time>2014-01-31T13:53:03.000Z</time>
      </trkpt>
      <trkpt lat="45.57381" lon="6.5737">
        <ele>2142</ele>
        <time>2014-01-31T13:53:04.000Z</time>
      </trkpt>
      <trkpt lat="45.57375" lon="6.57375">
        <ele>2140.3999023438</ele>
        <time>2014-01-31T13:53:05.000Z</time>
      </trkpt>
      <trkpt lat="45.57368" lon="6.57376">
        <ele>2138.8000488281</ele>
        <time>2014-01-31T13:53:06.000Z</time>
      </trkpt>
      <trkpt lat="45.57362" lon="6.57376">
        <ele>2134.8000488281</ele>
        <time>2014-01-31T13:53:07.000Z</time>
      </trkpt>
      <trkpt lat="45.57355" lon="6.57376">
        <ele>2132.8000488281</ele>
        <time>2014-01-31T13:53:08.000Z</time>
      </trkpt>
      <trkpt lat="45.57352" lon="6.57381">
        <ele>2130.8000488281</ele>
        <time>2014-01-31T13:53:09.000Z</time>
      </trkpt>
      <trkpt lat="45.5735" lon="6.57385">
        <ele>2129.1999511719</ele>
        <time>2014-01-31T13:53:10.000Z</time>
      </trkpt>
      <trkpt lat="45.57348" lon="6.57389">
        <ele>2127.8000488281</ele>
        <time>2014-01-31T13:53:11.000Z</time>
      </trkpt>
      <trkpt lat="45.57346" lon="6.57391">
        <ele>2126.3999023438</ele>
        <time>2014-01-31T13:53:12.000Z</time>
      </trkpt>
      <trkpt lat="45.57345" lon="6.57392">
        <ele>2124.8000488281</ele>
        <time>2014-01-31T13:53:13.000Z</time>
      </trkpt>
      <trkpt lat="45.57344" lon="6.57392">
        <ele>2123.3999023438</ele>
        <time>2014-01-31T13:53:14.000Z</time>
      </trkpt>
      <trkpt lat="45.57344" lon="6.57391">
        <ele>2122.1999511719</ele>
        <time>2014-01-31T13:53:15.000Z</time>
      </trkpt>
      <trkpt lat="45.57343" lon="6.57391">
        <ele>2121.3999023438</ele>
        <time>2014-01-31T13:53:16.000Z</time>
      </trkpt>
      <trkpt lat="45.57343" lon="6.57391">
        <ele>2121</ele>
        <time>2014-01-31T13:53:17.000Z</time>
      </trkpt>
      <trkpt lat="45.57343" lon="6.57391">
        <ele>2120.8000488281</ele>
        <time>2014-01-31T13:53:18.000Z</time>
      </trkpt>
      <trkpt lat="45.57343" lon="6.57391">
        <ele>2120.6000976562</ele>
        <time>2014-01-31T13:53:19.000Z</time>
      </trkpt>
      <trkpt lat="45.57343" lon="6.57391">
        <ele>2120.6000976562</ele>
        <time>2014-01-31T13:53:20.000Z</time>
      </trkpt>
      <trkpt lat="45.57343" lon="6.57389">
        <ele>2120.6000976562</ele>
        <time>2014-01-31T13:53:21.000Z</time>
      </trkpt>
      <trkpt lat="45.57343" lon="6.57388">
        <ele>2120.3999023438</ele>
        <time>2014-01-31T13:53:22.000Z</time>
      </trkpt>
      <trkpt lat="45.57344" lon="6.57387">
        <ele>2120.3999023438</ele>
        <time>2014-01-31T13:53:23.000Z</time>
      </trkpt>
      <trkpt lat="45.57344" lon="6.57387">
        <ele>2120.3999023438</ele>
        <time>2014-01-31T13:53:24.000Z</time>
      </trkpt>
      <trkpt lat="45.57344" lon="6.57387">
        <ele>2120.3999023438</ele>
        <time>2014-01-31T13:53:25.000Z</time>
      </trkpt>
      <trkpt lat="45.57344" lon="6.57387">
        <ele>2120.3999023438</ele>
        <time>2014-01-31T13:53:26.000Z</time>
      </trkpt>
      <trkpt lat="45.57344" lon="6.57387">
        <ele>2120.3999023438</ele>
        <time>2014-01-31T13:53:27.000Z</time>
      </trkpt>
      <trkpt lat="45.57344" lon="6.57387">
        <ele>2120.3999023438</ele>
        <time>2014-01-31T13:53:28.000Z</time>
      </trkpt>
      <trkpt lat="45.57344" lon="6.57387">
        <ele>2120.3999023438</ele>
        <time>2014-01-31T13:53:29.000Z</time>
      </trkpt>
      <trkpt lat="45.57344" lon="6.57387">
        <ele>2120.6000976562</ele>
        <time>2014-01-31T13:53:30.000Z</time>
      </trkpt>
      <trkpt lat="45.57344" lon="6.57387">
        <ele>2120.6000976562</ele>
        <time>2014-01-31T13:53:35.000Z</time>
      </trkpt>
      <trkpt lat="45.57344" lon="6.57387">
        <ele>2120.6000976562</ele>
        <time>2014-01-31T13:53:36.000Z</time>
      </trkpt>
      <trkpt lat="45.57344" lon="6.57387">
        <ele>2120.6000976562</ele>
        <time>2014-01-31T13:53:39.000Z</time>
      </trkpt>
      <trkpt lat="45.57344" lon="6.57387">
        <ele>2120.3999023438</ele>
        <time>2014-01-31T13:53:40.000Z</time>
      </trkpt>
      <trkpt lat="45.57344" lon="6.57387">
        <ele>2120.3999023438</ele>
        <time>2014-01-31T13:53:41.000Z</time>
      </trkpt>
      <trkpt lat="45.57344" lon="6.57387">
        <ele>2120.3999023438</ele>
        <time>2014-01-31T13:53:42.000Z</time>
      </trkpt>
      <trkpt lat="45.57344" lon="6.57387">
        <ele>2120.3999023438</ele>
        <time>2014-01-31T13:53:43.000Z</time>
      </trkpt>
      <trkpt lat="45.57344" lon="6.57387">
        <ele>2120.3999023438</ele>
        <time>2014-01-31T13:53:44.000Z</time>
      </trkpt>
      <trkpt lat="45.57344" lon="6.57387">
        <ele>2120.3999023438</ele>
        <time>2014-01-31T13:53:47.000Z</time>
      </trkpt>
      <trkpt lat="45.57344" lon="6.57387">
        <ele>2120.3999023438</ele>
        <time>2014-01-31T13:53:51.000Z</time>
      </trkpt>
      <trkpt lat="45.57344" lon="6.57387">
        <ele>2120.3999023438</ele>
        <time>2014-01-31T13:53:53.000Z</time>
      </trkpt>
      <trkpt lat="45.57344" lon="6.57387">
        <ele>2120.3999023438</ele>
        <time>2014-01-31T13:53:54.000Z</time>
      </trkpt>
      <trkpt lat="45.57344" lon="6.57387">
        <ele>2120.3999023438</ele>
        <time>2014-01-31T13:53:55.000Z</time>
      </trkpt>
      <trkpt lat="45.57344" lon="6.57387">
        <ele>2120.3999023438</ele>
        <time>2014-01-31T13:54:00.000Z</time>
      </trkpt>
      <trkpt lat="45.57344" lon="6.57387">
        <ele>2120.3999023438</ele>
        <time>2014-01-31T13:54:01.000Z</time>
      </trkpt>
      <trkpt lat="45.57344" lon="6.57387">
        <ele>2120.3999023438</ele>
        <time>2014-01-31T13:54:02.000Z</time>
      </trkpt>
      <trkpt lat="45.57344" lon="6.57386">
        <ele>2120.3999023438</ele>
        <time>2014-01-31T13:54:10.000Z</time>
      </trkpt>
      <trkpt lat="45.57344" lon="6.57386">
        <ele>2120.3999023438</ele>
        <time>2014-01-31T13:54:11.000Z</time>
      </trkpt>
      <trkpt lat="45.57344" lon="6.57386">
        <ele>2120.3999023438</ele>
        <time>2014-01-31T13:54:12.000Z</time>
      </trkpt>
      <trkpt lat="45.57344" lon="6.57386">
        <ele>2120.3999023438</ele>
        <time>2014-01-31T13:54:13.000Z</time>
      </trkpt>
      <trkpt lat="45.57344" lon="6.57386">
        <ele>2120.3999023438</ele>
        <time>2014-01-31T13:54:14.000Z</time>
      </trkpt>
      <trkpt lat="45.57344" lon="6.57386">
        <ele>2120.3999023438</ele>
        <time>2014-01-31T13:54:15.000Z</time>
      </trkpt>
      <trkpt lat="45.57345" lon="6.57388">
        <ele>2120.3999023438</ele>
        <time>2014-01-31T13:54:16.000Z</time>
      </trkpt>
      <trkpt lat="45.57346" lon="6.5739">
        <ele>2120.3999023438</ele>
        <time>2014-01-31T13:54:17.000Z</time>
      </trkpt>
      <trkpt lat="45.57346" lon="6.5739">
        <ele>2120.3999023438</ele>
        <time>2014-01-31T13:54:18.000Z</time>
      </trkpt>
      <trkpt lat="45.57346" lon="6.57389">
        <ele>2120.1999511719</ele>
        <time>2014-01-31T13:54:19.000Z</time>
      </trkpt>
      <trkpt lat="45.57347" lon="6.57388">
        <ele>2119.8000488281</ele>
        <time>2014-01-31T13:54:20.000Z</time>
      </trkpt>
      <trkpt lat="45.57347" lon="6.57388">
        <ele>2119.1999511719</ele>
        <time>2014-01-31T13:54:21.000Z</time>
      </trkpt>
      <trkpt lat="45.57347" lon="6.57388">
        <ele>2118.8000488281</ele>
        <time>2014-01-31T13:54:22.000Z</time>
      </trkpt>
      <trkpt lat="45.57347" lon="6.57388">
        <ele>2118.3999023438</ele>
        <time>2014-01-31T13:54:23.000Z</time>
      </trkpt>
      <trkpt lat="45.57347" lon="6.57388">
        <ele>2118.1999511719</ele>
        <time>2014-01-31T13:54:24.000Z</time>
      </trkpt>
      <trkpt lat="45.57347" lon="6.57388">
        <ele>2118.1999511719</ele>
        <time>2014-01-31T13:54:25.000Z</time>
      </trkpt>
      <trkpt lat="45.57347" lon="6.57388">
        <ele>2118.1999511719</ele>
        <time>2014-01-31T13:54:26.000Z</time>
      </trkpt>
      <trkpt lat="45.57347" lon="6.57388">
        <ele>2118</ele>
        <time>2014-01-31T13:54:27.000Z</time>
      </trkpt>
      <trkpt lat="45.57347" lon="6.57388">
        <ele>2118</ele>
        <time>2014-01-31T13:54:28.000Z</time>
      </trkpt>
      <trkpt lat="45.57347" lon="6.57388">
        <ele>2118</ele>
        <time>2014-01-31T13:54:29.000Z</time>
      </trkpt>
      <trkpt lat="45.57347" lon="6.57388">
        <ele>2118</ele>
        <time>2014-01-31T13:54:30.000Z</time>
      </trkpt>
      <trkpt lat="45.57347" lon="6.57388">
        <ele>2118</ele>
        <time>2014-01-31T13:54:41.000Z</time>
      </trkpt>
      <trkpt lat="45.57347" lon="6.57388">
        <ele>2118</ele>
        <time>2014-01-31T13:54:43.000Z</time>
      </trkpt>
      <trkpt lat="45.57347" lon="6.57388">
        <ele>2118</ele>
        <time>2014-01-31T13:54:44.000Z</time>
      </trkpt>
      <trkpt lat="45.57347" lon="6.57388">
        <ele>2118.1999511719</ele>
        <time>2014-01-31T13:54:45.000Z</time>
      </trkpt>
      <trkpt lat="45.57347" lon="6.57388">
        <ele>2118.1999511719</ele>
        <time>2014-01-31T13:54:46.000Z</time>
      </trkpt>
      <trkpt lat="45.57347" lon="6.57388">
        <ele>2118.1999511719</ele>
        <time>2014-01-31T13:54:47.000Z</time>
      </trkpt>
      <trkpt lat="45.57347" lon="6.57388">
        <ele>2118</ele>
        <time>2014-01-31T13:54:48.000Z</time>
      </trkpt>
      <trkpt lat="45.57347" lon="6.57388">
        <ele>2118</ele>
        <time>2014-01-31T13:54:49.000Z</time>
      </trkpt>
      <trkpt lat="45.57347" lon="6.57388">
        <ele>2118</ele>
        <time>2014-01-31T13:54:50.000Z</time>
      </trkpt>
      <trkpt lat="45.57347" lon="6.57388">
        <ele>2118</ele>
        <time>2014-01-31T13:54:51.000Z</time>
      </trkpt>
      <trkpt lat="45.57347" lon="6.57388">
        <ele>2118</ele>
        <time>2014-01-31T13:54:52.000Z</time>
      </trkpt>
      <trkpt lat="45.57347" lon="6.57388">
        <ele>2118</ele>
        <time>2014-01-31T13:54:53.000Z</time>
      </trkpt>
      <trkpt lat="45.57347" lon="6.57388">
        <ele>2118</ele>
        <time>2014-01-31T13:54:54.000Z</time>
      </trkpt>
      <trkpt lat="45.57347" lon="6.57388">
        <ele>2118</ele>
        <time>2014-01-31T13:54:55.000Z</time>
      </trkpt>
      <trkpt lat="45.57347" lon="6.57388">
        <ele>2118</ele>
        <time>2014-01-31T13:54:56.000Z</time>
      </trkpt>
      <trkpt lat="45.57347" lon="6.57388">
        <ele>2118</ele>
        <time>2014-01-31T13:54:57.000Z</time>
      </trkpt>
      <trkpt lat="45.57347" lon="6.57388">
        <ele>2118</ele>
        <time>2014-01-31T13:54:58.000Z</time>
      </trkpt>
      <trkpt lat="45.57347" lon="6.57388">
        <ele>2118</ele>
        <time>2014-01-31T13:54:59.000Z</time>
      </trkpt>
      <trkpt lat="45.57347" lon="6.57387">
        <ele>2118</ele>
        <time>2014-01-31T13:55:02.000Z</time>
      </trkpt>
      <trkpt lat="45.57347" lon="6.57387">
        <ele>2118</ele>
        <time>2014-01-31T13:55:03.000Z</time>
      </trkpt>
      <trkpt lat="45.57347" lon="6.57387">
        <ele>2118</ele>
        <time>2014-01-31T13:55:04.000Z</time>
      </trkpt>
      <trkpt lat="45.57347" lon="6.57387">
        <ele>2118</ele>
        <time>2014-01-31T13:55:05.000Z</time>
      </trkpt>
      <trkpt lat="45.57347" lon="6.57387">
        <ele>2118</ele>
        <time>2014-01-31T13:55:06.000Z</time>
      </trkpt>
      <trkpt lat="45.57347" lon="6.57387">
        <ele>2118</ele>
        <time>2014-01-31T13:55:07.000Z</time>
      </trkpt>
      <trkpt lat="45.57347" lon="6.57387">
        <ele>2118</ele>
        <time>2014-01-31T13:55:08.000Z</time>
      </trkpt>
      <trkpt lat="45.57347" lon="6.57387">
        <ele>2118</ele>
        <time>2014-01-31T13:55:09.000Z</time>
      </trkpt>
      <trkpt lat="45.57347" lon="6.57387">
        <ele>2118</ele>
        <time>2014-01-31T13:55:10.000Z</time>
      </trkpt>
      <trkpt lat="45.57347" lon="6.57387">
        <ele>2118</ele>
        <time>2014-01-31T13:55:12.000Z</time>
      </trkpt>
      <trkpt lat="45.57347" lon="6.57387">
        <ele>2118</ele>
        <time>2014-01-31T13:55:15.000Z</time>
      </trkpt>
      <trkpt lat="45.57347" lon="6.57387">
        <ele>2118</ele>
        <time>2014-01-31T13:55:16.000Z</time>
      </trkpt>
      <trkpt lat="45.57347" lon="6.57387">
        <ele>2118</ele>
        <time>2014-01-31T13:55:17.000Z</time>
      </trkpt>
      <trkpt lat="45.57347" lon="6.57387">
        <ele>2118</ele>
        <time>2014-01-31T13:55:18.000Z</time>
      </trkpt>
      <trkpt lat="45.57347" lon="6.57387">
        <ele>2118</ele>
        <time>2014-01-31T13:55:22.000Z</time>
      </trkpt>
      <trkpt lat="45.57347" lon="6.57387">
        <ele>2118</ele>
        <time>2014-01-31T13:55:23.000Z</time>
      </trkpt>
      <trkpt lat="45.57347" lon="6.57387">
        <ele>2118</ele>
        <time>2014-01-31T13:55:24.000Z</time>
      </trkpt>
      <trkpt lat="45.57347" lon="6.57387">
        <ele>2118</ele>
        <time>2014-01-31T13:55:25.000Z</time>
      </trkpt>
      <trkpt lat="45.57347" lon="6.57387">
        <ele>2118</ele>
        <time>2014-01-31T13:55:26.000Z</time>
      </trkpt>
      <trkpt lat="45.57347" lon="6.57387">
        <ele>2118</ele>
        <time>2014-01-31T13:55:29.000Z</time>
      </trkpt>
      <trkpt lat="45.57345" lon="6.57388">
        <ele>2118</ele>
        <time>2014-01-31T13:55:30.000Z</time>
      </trkpt>
      <trkpt lat="45.57343" lon="6.5739">
        <ele>2117.8000488281</ele>
        <time>2014-01-31T13:55:31.000Z</time>
      </trkpt>
      <trkpt lat="45.57339" lon="6.57394">
        <ele>2117.8000488281</ele>
        <time>2014-01-31T13:55:32.000Z</time>
      </trkpt>
      <trkpt lat="45.57333" lon="6.57396">
        <ele>2117.8000488281</ele>
        <time>2014-01-31T13:55:33.000Z</time>
      </trkpt>
      <trkpt lat="45.57327" lon="6.57401">
        <ele>2117.8000488281</ele>
        <time>2014-01-31T13:55:34.000Z</time>
      </trkpt>
      <trkpt lat="45.57321" lon="6.57405">
        <ele>2117.6000976562</ele>
        <time>2014-01-31T13:55:35.000Z</time>
      </trkpt>
      <trkpt lat="45.57314" lon="6.57409">
        <ele>2117.3999023438</ele>
        <time>2014-01-31T13:55:36.000Z</time>
      </trkpt>
      <trkpt lat="45.57307" lon="6.57411">
        <ele>2117</ele>
        <time>2014-01-31T13:55:37.000Z</time>
      </trkpt>
      <trkpt lat="45.573" lon="6.57415">
        <ele>2116.3999023438</ele>
        <time>2014-01-31T13:55:38.000Z</time>
      </trkpt>
      <trkpt lat="45.57292" lon="6.57417">
        <ele>2115.1999511719</ele>
        <time>2014-01-31T13:55:39.000Z</time>
      </trkpt>
      <trkpt lat="45.57284" lon="6.57422">
        <ele>2114</ele>
        <time>2014-01-31T13:55:40.000Z</time>
      </trkpt>
      <trkpt lat="45.57276" lon="6.57425">
        <ele>2112.3999023438</ele>
        <time>2014-01-31T13:55:41.000Z</time>
      </trkpt>
      <trkpt lat="45.57269" lon="6.5743">
        <ele>2111</ele>
        <time>2014-01-31T13:55:42.000Z</time>
      </trkpt>
      <trkpt lat="45.57261" lon="6.57434">
        <ele>2109.1999511719</ele>
        <time>2014-01-31T13:55:43.000Z</time>
      </trkpt>
      <trkpt lat="45.57255" lon="6.5744">
        <ele>2107.3999023438</ele>
        <time>2014-01-31T13:55:44.000Z</time>
      </trkpt>
      <trkpt lat="45.57248" lon="6.57446">
        <ele>2105.1999511719</ele>
        <time>2014-01-31T13:55:45.000Z</time>
      </trkpt>
      <trkpt lat="45.57241" lon="6.5745">
        <ele>2103.1999511719</ele>
        <time>2014-01-31T13:55:46.000Z</time>
      </trkpt>
      <trkpt lat="45.57236" lon="6.57454">
        <ele>2101.1999511719</ele>
        <time>2014-01-31T13:55:47.000Z</time>
      </trkpt>
      <trkpt lat="45.57233" lon="6.57457">
        <ele>2099.1999511719</ele>
        <time>2014-01-31T13:55:48.000Z</time>
      </trkpt>
      <trkpt lat="45.57233" lon="6.57456">
        <ele>2096.8000488281</ele>
        <time>2014-01-31T13:55:49.000Z</time>
      </trkpt>
      <trkpt lat="45.57234" lon="6.57455">
        <ele>2094</ele>
        <time>2014-01-31T13:55:50.000Z</time>
      </trkpt>
      <trkpt lat="45.57234" lon="6.57454">
        <ele>2091.6000976562</ele>
        <time>2014-01-31T13:55:51.000Z</time>
      </trkpt>
      <trkpt lat="45.57234" lon="6.57453">
        <ele>2090.1999511719</ele>
        <time>2014-01-31T13:55:52.000Z</time>
      </trkpt>
      <trkpt lat="45.57234" lon="6.57453">
        <ele>2089.3999023438</ele>
        <time>2014-01-31T13:55:53.000Z</time>
      </trkpt>
      <trkpt lat="45.57235" lon="6.57452">
        <ele>2088.6000976562</ele>
        <time>2014-01-31T13:55:54.000Z</time>
      </trkpt>
      <trkpt lat="45.57235" lon="6.57452">
        <ele>2087.8000488281</ele>
        <time>2014-01-31T13:55:55.000Z</time>
      </trkpt>
      <trkpt lat="45.57235" lon="6.57452">
        <ele>2087.6000976562</ele>
        <time>2014-01-31T13:55:56.000Z</time>
      </trkpt>
      <trkpt lat="45.57235" lon="6.57451">
        <ele>2087.3999023438</ele>
        <time>2014-01-31T13:55:57.000Z</time>
      </trkpt>
      <trkpt lat="45.57235" lon="6.57451">
        <ele>2087.3999023438</ele>
        <time>2014-01-31T13:55:58.000Z</time>
      </trkpt>
      <trkpt lat="45.57234" lon="6.57451">
        <ele>2087.3999023438</ele>
        <time>2014-01-31T13:55:59.000Z</time>
      </trkpt>
      <trkpt lat="45.57234" lon="6.5745">
        <ele>2087.3999023438</ele>
        <time>2014-01-31T13:56:00.000Z</time>
      </trkpt>
      <trkpt lat="45.57234" lon="6.5745">
        <ele>2087.3999023438</ele>
        <time>2014-01-31T13:56:01.000Z</time>
      </trkpt>
      <trkpt lat="45.57234" lon="6.57451">
        <ele>2087.3999023438</ele>
        <time>2014-01-31T13:56:02.000Z</time>
      </trkpt>
      <trkpt lat="45.57234" lon="6.57451">
        <ele>2087.3999023438</ele>
        <time>2014-01-31T13:56:03.000Z</time>
      </trkpt>
      <trkpt lat="45.57234" lon="6.57451">
        <ele>2087.3999023438</ele>
        <time>2014-01-31T13:56:06.000Z</time>
      </trkpt>
      <trkpt lat="45.57234" lon="6.57451">
        <ele>2087.3999023438</ele>
        <time>2014-01-31T13:56:07.000Z</time>
      </trkpt>
      <trkpt lat="45.57234" lon="6.57451">
        <ele>2087.3999023438</ele>
        <time>2014-01-31T13:56:08.000Z</time>
      </trkpt>
      <trkpt lat="45.57234" lon="6.57451">
        <ele>2087.3999023438</ele>
        <time>2014-01-31T13:56:09.000Z</time>
      </trkpt>
      <trkpt lat="45.57234" lon="6.57451">
        <ele>2087.3999023438</ele>
        <time>2014-01-31T13:56:10.000Z</time>
      </trkpt>
      <trkpt lat="45.57234" lon="6.57451">
        <ele>2087.3999023438</ele>
        <time>2014-01-31T13:56:11.000Z</time>
      </trkpt>
      <trkpt lat="45.57234" lon="6.57451">
        <ele>2087.3999023438</ele>
        <time>2014-01-31T13:56:12.000Z</time>
      </trkpt>
      <trkpt lat="45.57234" lon="6.57451">
        <ele>2087.3999023438</ele>
        <time>2014-01-31T13:56:13.000Z</time>
      </trkpt>
      <trkpt lat="45.57234" lon="6.57451">
        <ele>2087.3999023438</ele>
        <time>2014-01-31T13:56:15.000Z</time>
      </trkpt>
      <trkpt lat="45.57234" lon="6.57451">
        <ele>2087.3999023438</ele>
        <time>2014-01-31T13:56:16.000Z</time>
      </trkpt>
      <trkpt lat="45.57234" lon="6.57451">
        <ele>2087.3999023438</ele>
        <time>2014-01-31T13:56:17.000Z</time>
      </trkpt>
      <trkpt lat="45.57234" lon="6.57451">
        <ele>2087.3999023438</ele>
        <time>2014-01-31T13:56:18.000Z</time>
      </trkpt>
      <trkpt lat="45.57234" lon="6.57451">
        <ele>2087.3999023438</ele>
        <time>2014-01-31T13:56:19.000Z</time>
      </trkpt>
      <trkpt lat="45.57234" lon="6.57451">
        <ele>2087.3999023438</ele>
        <time>2014-01-31T13:56:22.000Z</time>
      </trkpt>
      <trkpt lat="45.57234" lon="6.57451">
        <ele>2087.3999023438</ele>
        <time>2014-01-31T13:56:23.000Z</time>
      </trkpt>
      <trkpt lat="45.57234" lon="6.57451">
        <ele>2087.3999023438</ele>
        <time>2014-01-31T13:56:24.000Z</time>
      </trkpt>
      <trkpt lat="45.57234" lon="6.57451">
        <ele>2087.3999023438</ele>
        <time>2014-01-31T13:56:26.000Z</time>
      </trkpt>
      <trkpt lat="45.57234" lon="6.57451">
        <ele>2087.3999023438</ele>
        <time>2014-01-31T13:56:27.000Z</time>
      </trkpt>
      <trkpt lat="45.57234" lon="6.57451">
        <ele>2087.3999023438</ele>
        <time>2014-01-31T13:56:28.000Z</time>
      </trkpt>
      <trkpt lat="45.57234" lon="6.57451">
        <ele>2087.6000976562</ele>
        <time>2014-01-31T13:56:29.000Z</time>
      </trkpt>
      <trkpt lat="45.57234" lon="6.57451">
        <ele>2087.6000976562</ele>
        <time>2014-01-31T13:56:30.000Z</time>
      </trkpt>
      <trkpt lat="45.57234" lon="6.57451">
        <ele>2087.6000976562</ele>
        <time>2014-01-31T13:56:33.000Z</time>
      </trkpt>
      <trkpt lat="45.57234" lon="6.57451">
        <ele>2087.3999023438</ele>
        <time>2014-01-31T13:56:34.000Z</time>
      </trkpt>
      <trkpt lat="45.57234" lon="6.57451">
        <ele>2087.3999023438</ele>
        <time>2014-01-31T13:56:35.000Z</time>
      </trkpt>
      <trkpt lat="45.57234" lon="6.57451">
        <ele>2087.3999023438</ele>
        <time>2014-01-31T13:56:36.000Z</time>
      </trkpt>
      <trkpt lat="45.57234" lon="6.57451">
        <ele>2087.3999023438</ele>
        <time>2014-01-31T13:56:37.000Z</time>
      </trkpt>
      <trkpt lat="45.57234" lon="6.57451">
        <ele>2087.3999023438</ele>
        <time>2014-01-31T13:56:38.000Z</time>
      </trkpt>
      <trkpt lat="45.57234" lon="6.57451">
        <ele>2087.3999023438</ele>
        <time>2014-01-31T13:56:39.000Z</time>
      </trkpt>
      <trkpt lat="45.57234" lon="6.57451">
        <ele>2087.3999023438</ele>
        <time>2014-01-31T13:56:43.000Z</time>
      </trkpt>
      <trkpt lat="45.57234" lon="6.57451">
        <ele>2087.3999023438</ele>
        <time>2014-01-31T13:56:44.000Z</time>
      </trkpt>
      <trkpt lat="45.57234" lon="6.57451">
        <ele>2087.6000976562</ele>
        <time>2014-01-31T13:56:45.000Z</time>
      </trkpt>
      <trkpt lat="45.57234" lon="6.57451">
        <ele>2087.6000976562</ele>
        <time>2014-01-31T13:56:46.000Z</time>
      </trkpt>
      <trkpt lat="45.57241" lon="6.57452">
        <ele>2087.3999023438</ele>
        <time>2014-01-31T13:56:47.000Z</time>
      </trkpt>
      <trkpt lat="45.57239" lon="6.57452">
        <ele>2087.3999023438</ele>
        <time>2014-01-31T13:56:48.000Z</time>
      </trkpt>
      <trkpt lat="45.57236" lon="6.57451">
        <ele>2087.3999023438</ele>
        <time>2014-01-31T13:56:49.000Z</time>
      </trkpt>
      <trkpt lat="45.57231" lon="6.57452">
        <ele>2087.1999511719</ele>
        <time>2014-01-31T13:56:50.000Z</time>
      </trkpt>
      <trkpt lat="45.57226" lon="6.57451">
        <ele>2087.1999511719</ele>
        <time>2014-01-31T13:56:51.000Z</time>
      </trkpt>
      <trkpt lat="45.5722" lon="6.5745">
        <ele>2087</ele>
        <time>2014-01-31T13:56:52.000Z</time>
      </trkpt>
      <trkpt lat="45.57214" lon="6.57447">
        <ele>2086.8000488281</ele>
        <time>2014-01-31T13:56:53.000Z</time>
      </trkpt>
      <trkpt lat="45.57211" lon="6.57442">
        <ele>2086.3999023438</ele>
        <time>2014-01-31T13:56:54.000Z</time>
      </trkpt>
      <trkpt lat="45.57209" lon="6.57435">
        <ele>2085.6000976562</ele>
        <time>2014-01-31T13:56:55.000Z</time>
      </trkpt>
      <trkpt lat="45.57207" lon="6.57429">
        <ele>2084.8000488281</ele>
        <time>2014-01-31T13:56:56.000Z</time>
      </trkpt>
      <trkpt lat="45.57206" lon="6.57424">
        <ele>2083.8000488281</ele>
        <time>2014-01-31T13:56:57.000Z</time>
      </trkpt>
      <trkpt lat="45.57205" lon="6.57421">
        <ele>2082.8000488281</ele>
        <time>2014-01-31T13:56:58.000Z</time>
      </trkpt>
      <trkpt lat="45.57205" lon="6.57418">
        <ele>2081.8000488281</ele>
        <time>2014-01-31T13:56:59.000Z</time>
      </trkpt>
      <trkpt lat="45.57204" lon="6.57416">
        <ele>2081</ele>
        <time>2014-01-31T13:57:00.000Z</time>
      </trkpt>
      <trkpt lat="45.57203" lon="6.57413">
        <ele>2080.3999023438</ele>
        <time>2014-01-31T13:57:01.000Z</time>
      </trkpt>
      <trkpt lat="45.57202" lon="6.57411">
        <ele>2079.8000488281</ele>
        <time>2014-01-31T13:57:02.000Z</time>
      </trkpt>
      <trkpt lat="45.57201" lon="6.57408">
        <ele>2079.3999023438</ele>
        <time>2014-01-31T13:57:03.000Z</time>
      </trkpt>
      <trkpt lat="45.57199" lon="6.57405">
        <ele>2079</ele>
        <time>2014-01-31T13:57:04.000Z</time>
      </trkpt>
      <trkpt lat="45.57196" lon="6.57401">
        <ele>2078.8000488281</ele>
        <time>2014-01-31T13:57:05.000Z</time>
      </trkpt>
      <trkpt lat="45.57194" lon="6.57396">
        <ele>2078.3999023438</ele>
        <time>2014-01-31T13:57:06.000Z</time>
      </trkpt>
      <trkpt lat="45.57192" lon="6.57394">
        <ele>2077</ele>
        <time>2014-01-31T13:57:07.000Z</time>
      </trkpt>
      <trkpt lat="45.57188" lon="6.57391">
        <ele>2075.8000488281</ele>
        <time>2014-01-31T13:57:08.000Z</time>
      </trkpt>
      <trkpt lat="45.57179" lon="6.5739">
        <ele>2074.6000976562</ele>
        <time>2014-01-31T13:57:09.000Z</time>
      </trkpt>
      <trkpt lat="45.57173" lon="6.57385">
        <ele>2073</ele>
        <time>2014-01-31T13:57:10.000Z</time>
      </trkpt>
      <trkpt lat="45.57165" lon="6.57383">
        <ele>2070.6000976562</ele>
        <time>2014-01-31T13:57:11.000Z</time>
      </trkpt>
      <trkpt lat="45.5716" lon="6.57381">
        <ele>2068.3999023438</ele>
        <time>2014-01-31T13:57:12.000Z</time>
      </trkpt>
      <trkpt lat="45.57152" lon="6.57381">
        <ele>2066.3999023438</ele>
        <time>2014-01-31T13:57:13.000Z</time>
      </trkpt>
      <trkpt lat="45.57147" lon="6.5738">
        <ele>2064</ele>
        <time>2014-01-31T13:57:14.000Z</time>
      </trkpt>
      <trkpt lat="45.57142" lon="6.57379">
        <ele>2061</ele>
        <time>2014-01-31T13:57:15.000Z</time>
      </trkpt>
      <trkpt lat="45.57134" lon="6.57376">
        <ele>2058</ele>
        <time>2014-01-31T13:57:16.000Z</time>
      </trkpt>
      <trkpt lat="45.57126" lon="6.5737">
        <ele>2055.1999511719</ele>
        <time>2014-01-31T13:57:17.000Z</time>
      </trkpt>
      <trkpt lat="45.5712" lon="6.57367">
        <ele>2052.6000976562</ele>
        <time>2014-01-31T13:57:18.000Z</time>
      </trkpt>
      <trkpt lat="45.57114" lon="6.57368">
        <ele>2049.3999023438</ele>
        <time>2014-01-31T13:57:19.000Z</time>
      </trkpt>
      <trkpt lat="45.5711" lon="6.57373">
        <ele>2046.4000244141</ele>
        <time>2014-01-31T13:57:20.000Z</time>
      </trkpt>
      <trkpt lat="45.57102" lon="6.5738">
        <ele>2043.5999755859</ele>
        <time>2014-01-31T13:57:21.000Z</time>
      </trkpt>
      <trkpt lat="45.57093" lon="6.57387">
        <ele>2040.8000488281</ele>
        <time>2014-01-31T13:57:22.000Z</time>
      </trkpt>
      <trkpt lat="45.57084" lon="6.57395">
        <ele>2037.8000488281</ele>
        <time>2014-01-31T13:57:23.000Z</time>
      </trkpt>
      <trkpt lat="45.57073" lon="6.57402">
        <ele>2035</ele>
        <time>2014-01-31T13:57:24.000Z</time>
      </trkpt>
      <trkpt lat="45.57063" lon="6.5741">
        <ele>2033</ele>
        <time>2014-01-31T13:57:25.000Z</time>
      </trkpt>
      <trkpt lat="45.57054" lon="6.57424">
        <ele>2030.8000488281</ele>
        <time>2014-01-31T13:57:26.000Z</time>
      </trkpt>
      <trkpt lat="45.57045" lon="6.57436">
        <ele>2028.1999511719</ele>
        <time>2014-01-31T13:57:27.000Z</time>
      </trkpt>
      <trkpt lat="45.57036" lon="6.57443">
        <ele>2025.1999511719</ele>
        <time>2014-01-31T13:57:28.000Z</time>
      </trkpt>
      <trkpt lat="45.57028" lon="6.57455">
        <ele>2022.5999755859</ele>
        <time>2014-01-31T13:57:29.000Z</time>
      </trkpt>
      <trkpt lat="45.57019" lon="6.57464">
        <ele>2020</ele>
        <time>2014-01-31T13:57:30.000Z</time>
      </trkpt>
      <trkpt lat="45.57013" lon="6.57473">
        <ele>2014</ele>
        <time>2014-01-31T13:57:31.000Z</time>
      </trkpt>
      <trkpt lat="45.57008" lon="6.57482">
        <ele>2011.4000244141</ele>
        <time>2014-01-31T13:57:32.000Z</time>
      </trkpt>
      <trkpt lat="45.57007" lon="6.57492">
        <ele>2009</ele>
        <time>2014-01-31T13:57:33.000Z</time>
      </trkpt>
      <trkpt lat="45.57004" lon="6.57501">
        <ele>2007.1999511719</ele>
        <time>2014-01-31T13:57:34.000Z</time>
      </trkpt>
      <trkpt lat="45.57004" lon="6.57509">
        <ele>2005.4000244141</ele>
        <time>2014-01-31T13:57:35.000Z</time>
      </trkpt>
      <trkpt lat="45.57004" lon="6.57516">
        <ele>2003.5999755859</ele>
        <time>2014-01-31T13:57:36.000Z</time>
      </trkpt>
      <trkpt lat="45.57003" lon="6.57521">
        <ele>2002</ele>
        <time>2014-01-31T13:57:37.000Z</time>
      </trkpt>
      <trkpt lat="45.57003" lon="6.57525">
        <ele>2000.5999755859</ele>
        <time>2014-01-31T13:57:38.000Z</time>
      </trkpt>
      <trkpt lat="45.57003" lon="6.57528">
        <ele>1999.1999511719</ele>
        <time>2014-01-31T13:57:39.000Z</time>
      </trkpt>
      <trkpt lat="45.57003" lon="6.5753">
        <ele>1998</ele>
        <time>2014-01-31T13:57:40.000Z</time>
      </trkpt>
      <trkpt lat="45.57002" lon="6.57532">
        <ele>1996.8000488281</ele>
        <time>2014-01-31T13:57:41.000Z</time>
      </trkpt>
      <trkpt lat="45.57002" lon="6.57532">
        <ele>1996</ele>
        <time>2014-01-31T13:57:42.000Z</time>
      </trkpt>
      <trkpt lat="45.57002" lon="6.57532">
        <ele>1995.5999755859</ele>
        <time>2014-01-31T13:57:43.000Z</time>
      </trkpt>
      <trkpt lat="45.57002" lon="6.57532">
        <ele>1995.1999511719</ele>
        <time>2014-01-31T13:57:44.000Z</time>
      </trkpt>
      <trkpt lat="45.57002" lon="6.57532">
        <ele>1995</ele>
        <time>2014-01-31T13:57:45.000Z</time>
      </trkpt>
      <trkpt lat="45.57002" lon="6.57532">
        <ele>1994.8000488281</ele>
        <time>2014-01-31T13:57:46.000Z</time>
      </trkpt>
      <trkpt lat="45.57002" lon="6.57532">
        <ele>1994.8000488281</ele>
        <time>2014-01-31T13:57:47.000Z</time>
      </trkpt>
      <trkpt lat="45.57002" lon="6.57532">
        <ele>1994.8000488281</ele>
        <time>2014-01-31T13:57:48.000Z</time>
      </trkpt>
      <trkpt lat="45.57002" lon="6.57532">
        <ele>1994.8000488281</ele>
        <time>2014-01-31T13:57:49.000Z</time>
      </trkpt>
      <trkpt lat="45.57002" lon="6.57532">
        <ele>1994.8000488281</ele>
        <time>2014-01-31T13:57:50.000Z</time>
      </trkpt>
      <trkpt lat="45.57002" lon="6.57532">
        <ele>1994.8000488281</ele>
        <time>2014-01-31T13:57:51.000Z</time>
      </trkpt>
      <trkpt lat="45.57002" lon="6.57532">
        <ele>1995</ele>
        <time>2014-01-31T13:57:52.000Z</time>
      </trkpt>
      <trkpt lat="45.57002" lon="6.57532">
        <ele>1995</ele>
        <time>2014-01-31T13:57:53.000Z</time>
      </trkpt>
      <trkpt lat="45.57002" lon="6.57532">
        <ele>1995</ele>
        <time>2014-01-31T13:57:54.000Z</time>
      </trkpt>
      <trkpt lat="45.57002" lon="6.57532">
        <ele>1995</ele>
        <time>2014-01-31T13:57:55.000Z</time>
      </trkpt>
      <trkpt lat="45.57003" lon="6.57531">
        <ele>1995</ele>
        <time>2014-01-31T13:57:56.000Z</time>
      </trkpt>
      <trkpt lat="45.57003" lon="6.5753">
        <ele>1995</ele>
        <time>2014-01-31T13:57:57.000Z</time>
      </trkpt>
      <trkpt lat="45.57003" lon="6.5753">
        <ele>1995</ele>
        <time>2014-01-31T13:57:58.000Z</time>
      </trkpt>
      <trkpt lat="45.57003" lon="6.57529">
        <ele>1994.8000488281</ele>
        <time>2014-01-31T13:57:59.000Z</time>
      </trkpt>
      <trkpt lat="45.57004" lon="6.57529">
        <ele>1994.8000488281</ele>
        <time>2014-01-31T13:58:00.000Z</time>
      </trkpt>
      <trkpt lat="45.57004" lon="6.57528">
        <ele>1994.8000488281</ele>
        <time>2014-01-31T13:58:01.000Z</time>
      </trkpt>
      <trkpt lat="45.57004" lon="6.57528">
        <ele>1994.8000488281</ele>
        <time>2014-01-31T13:58:02.000Z</time>
      </trkpt>
      <trkpt lat="45.57004" lon="6.57528">
        <ele>1994.8000488281</ele>
        <time>2014-01-31T13:58:03.000Z</time>
      </trkpt>
      <trkpt lat="45.57004" lon="6.57528">
        <ele>1994.8000488281</ele>
        <time>2014-01-31T13:58:04.000Z</time>
      </trkpt>
      <trkpt lat="45.57004" lon="6.57528">
        <ele>1994.8000488281</ele>
        <time>2014-01-31T13:58:05.000Z</time>
      </trkpt>
      <trkpt lat="45.57004" lon="6.57528">
        <ele>1994.8000488281</ele>
        <time>2014-01-31T13:58:06.000Z</time>
      </trkpt>
      <trkpt lat="45.57003" lon="6.57529">
        <ele>1994.8000488281</ele>
        <time>2014-01-31T13:58:07.000Z</time>
      </trkpt>
      <trkpt lat="45.57001" lon="6.5753">
        <ele>1994.8000488281</ele>
        <time>2014-01-31T13:58:08.000Z</time>
      </trkpt>
      <trkpt lat="45.57001" lon="6.5753">
        <ele>1994.5999755859</ele>
        <time>2014-01-31T13:58:09.000Z</time>
      </trkpt>
      <trkpt lat="45.57001" lon="6.5753">
        <ele>1994.5999755859</ele>
        <time>2014-01-31T13:58:10.000Z</time>
      </trkpt>
      <trkpt lat="45.57001" lon="6.5753">
        <ele>1994.5999755859</ele>
        <time>2014-01-31T13:58:11.000Z</time>
      </trkpt>
      <trkpt lat="45.57001" lon="6.5753">
        <ele>1994.4000244141</ele>
        <time>2014-01-31T13:58:12.000Z</time>
      </trkpt>
      <trkpt lat="45.57001" lon="6.5753">
        <ele>1994.4000244141</ele>
        <time>2014-01-31T13:58:13.000Z</time>
      </trkpt>
      <trkpt lat="45.57001" lon="6.5753">
        <ele>1994.4000244141</ele>
        <time>2014-01-31T13:58:14.000Z</time>
      </trkpt>
      <trkpt lat="45.57001" lon="6.5753">
        <ele>1994.4000244141</ele>
        <time>2014-01-31T13:58:15.000Z</time>
      </trkpt>
      <trkpt lat="45.57" lon="6.57531">
        <ele>1994.4000244141</ele>
        <time>2014-01-31T13:58:16.000Z</time>
      </trkpt>
      <trkpt lat="45.57" lon="6.57531">
        <ele>1994.4000244141</ele>
        <time>2014-01-31T13:58:17.000Z</time>
      </trkpt>
      <trkpt lat="45.57" lon="6.57531">
        <ele>1994.4000244141</ele>
        <time>2014-01-31T13:58:18.000Z</time>
      </trkpt>
      <trkpt lat="45.56998" lon="6.5753">
        <ele>1994.4000244141</ele>
        <time>2014-01-31T13:58:19.000Z</time>
      </trkpt>
      <trkpt lat="45.56997" lon="6.5753">
        <ele>1994.4000244141</ele>
        <time>2014-01-31T13:58:20.000Z</time>
      </trkpt>
      <trkpt lat="45.56993" lon="6.5753">
        <ele>1994.1999511719</ele>
        <time>2014-01-31T13:58:21.000Z</time>
      </trkpt>
      <trkpt lat="45.56989" lon="6.5753">
        <ele>1994.1999511719</ele>
        <time>2014-01-31T13:58:22.000Z</time>
      </trkpt>
      <trkpt lat="45.56983" lon="6.57529">
        <ele>1994.1999511719</ele>
        <time>2014-01-31T13:58:23.000Z</time>
      </trkpt>
      <trkpt lat="45.56979" lon="6.57533">
        <ele>1994</ele>
        <time>2014-01-31T13:58:24.000Z</time>
      </trkpt>
      <trkpt lat="45.56974" lon="6.57537">
        <ele>1993.5999755859</ele>
        <time>2014-01-31T13:58:25.000Z</time>
      </trkpt>
      <trkpt lat="45.56969" lon="6.57543">
        <ele>1993</ele>
        <time>2014-01-31T13:58:26.000Z</time>
      </trkpt>
      <trkpt lat="45.56964" lon="6.5755">
        <ele>1992</ele>
        <time>2014-01-31T13:58:27.000Z</time>
      </trkpt>
      <trkpt lat="45.56958" lon="6.57555">
        <ele>1990.5999755859</ele>
        <time>2014-01-31T13:58:28.000Z</time>
      </trkpt>
      <trkpt lat="45.56954" lon="6.57563">
        <ele>1989</ele>
        <time>2014-01-31T13:58:29.000Z</time>
      </trkpt>
      <trkpt lat="45.5695" lon="6.57569">
        <ele>1987.1999511719</ele>
        <time>2014-01-31T13:58:30.000Z</time>
      </trkpt>
      <trkpt lat="45.56945" lon="6.57574">
        <ele>1985.4000244141</ele>
        <time>2014-01-31T13:58:31.000Z</time>
      </trkpt>
      <trkpt lat="45.56942" lon="6.57579">
        <ele>1983.4000244141</ele>
        <time>2014-01-31T13:58:32.000Z</time>
      </trkpt>
      <trkpt lat="45.56944" lon="6.57576">
        <ele>1981.1999511719</ele>
        <time>2014-01-31T13:58:33.000Z</time>
      </trkpt>
      <trkpt lat="45.56945" lon="6.57575">
        <ele>1979.1999511719</ele>
        <time>2014-01-31T13:58:34.000Z</time>
      </trkpt>
      <trkpt lat="45.56946" lon="6.57572">
        <ele>1977.5999755859</ele>
        <time>2014-01-31T13:58:35.000Z</time>
      </trkpt>
      <trkpt lat="45.56946" lon="6.57572">
        <ele>1976.5999755859</ele>
        <time>2014-01-31T13:58:36.000Z</time>
      </trkpt>
      <trkpt lat="45.56946" lon="6.57572">
        <ele>1976</ele>
        <time>2014-01-31T13:58:37.000Z</time>
      </trkpt>
      <trkpt lat="45.56946" lon="6.57572">
        <ele>1975.4000244141</ele>
        <time>2014-01-31T13:58:38.000Z</time>
      </trkpt>
      <trkpt lat="45.56946" lon="6.57572">
        <ele>1975</ele>
        <time>2014-01-31T13:58:39.000Z</time>
      </trkpt>
      <trkpt lat="45.56946" lon="6.57572">
        <ele>1974.8000488281</ele>
        <time>2014-01-31T13:58:40.000Z</time>
      </trkpt>
      <trkpt lat="45.56946" lon="6.57572">
        <ele>1974.5999755859</ele>
        <time>2014-01-31T13:58:41.000Z</time>
      </trkpt>
      <trkpt lat="45.56945" lon="6.57571">
        <ele>1974.5999755859</ele>
        <time>2014-01-31T13:58:42.000Z</time>
      </trkpt>
      <trkpt lat="45.56943" lon="6.57573">
        <ele>1974.5999755859</ele>
        <time>2014-01-31T13:58:43.000Z</time>
      </trkpt>
      <trkpt lat="45.56942" lon="6.57577">
        <ele>1974.5999755859</ele>
        <time>2014-01-31T13:58:44.000Z</time>
      </trkpt>
      <trkpt lat="45.56941" lon="6.57582">
        <ele>1974.4000244141</ele>
        <time>2014-01-31T13:58:45.000Z</time>
      </trkpt>
      <trkpt lat="45.56941" lon="6.5759">
        <ele>1974.1999511719</ele>
        <time>2014-01-31T13:58:46.000Z</time>
      </trkpt>
      <trkpt lat="45.5694" lon="6.57598">
        <ele>1973.8000488281</ele>
        <time>2014-01-31T13:58:47.000Z</time>
      </trkpt>
      <trkpt lat="45.5694" lon="6.57608">
        <ele>1973</ele>
        <time>2014-01-31T13:58:48.000Z</time>
      </trkpt>
      <trkpt lat="45.5694" lon="6.57617">
        <ele>1972</ele>
        <time>2014-01-31T13:58:49.000Z</time>
      </trkpt>
      <trkpt lat="45.5694" lon="6.57624">
        <ele>1971</ele>
        <time>2014-01-31T13:58:50.000Z</time>
      </trkpt>
      <trkpt lat="45.56939" lon="6.57629">
        <ele>1970</ele>
        <time>2014-01-31T13:58:51.000Z</time>
      </trkpt>
      <trkpt lat="45.56937" lon="6.57634">
        <ele>1968.8000488281</ele>
        <time>2014-01-31T13:58:52.000Z</time>
      </trkpt>
      <trkpt lat="45.56934" lon="6.57639">
        <ele>1967.8000488281</ele>
        <time>2014-01-31T13:58:53.000Z</time>
      </trkpt>
      <trkpt lat="45.5693" lon="6.57646">
        <ele>1967</ele>
        <time>2014-01-31T13:58:54.000Z</time>
      </trkpt>
      <trkpt lat="45.56925" lon="6.57654">
        <ele>1966.1999511719</ele>
        <time>2014-01-31T13:58:55.000Z</time>
      </trkpt>
      <trkpt lat="45.56921" lon="6.57662">
        <ele>1965.5999755859</ele>
        <time>2014-01-31T13:58:56.000Z</time>
      </trkpt>
      <trkpt lat="45.5692" lon="6.57668">
        <ele>1964.8000488281</ele>
        <time>2014-01-31T13:58:57.000Z</time>
      </trkpt>
      <trkpt lat="45.56919" lon="6.57674">
        <ele>1963.5999755859</ele>
        <time>2014-01-31T13:58:58.000Z</time>
      </trkpt>
      <trkpt lat="45.56918" lon="6.57679">
        <ele>1962.1999511719</ele>
        <time>2014-01-31T13:58:59.000Z</time>
      </trkpt>
      <trkpt lat="45.56916" lon="6.57685">
        <ele>1960.5999755859</ele>
        <time>2014-01-31T13:59:00.000Z</time>
      </trkpt>
      <trkpt lat="45.56911" lon="6.57689">
        <ele>1959.1999511719</ele>
        <time>2014-01-31T13:59:01.000Z</time>
      </trkpt>
      <trkpt lat="45.56907" lon="6.57694">
        <ele>1958</ele>
        <time>2014-01-31T13:59:02.000Z</time>
      </trkpt>
      <trkpt lat="45.56901" lon="6.577">
        <ele>1957</ele>
        <time>2014-01-31T13:59:03.000Z</time>
      </trkpt>
      <trkpt lat="45.56896" lon="6.57705">
        <ele>1956</ele>
        <time>2014-01-31T13:59:04.000Z</time>
      </trkpt>
      <trkpt lat="45.56889" lon="6.57705">
        <ele>1954.8000488281</ele>
        <time>2014-01-31T13:59:05.000Z</time>
      </trkpt>
      <trkpt lat="45.56883" lon="6.57708">
        <ele>1953.1999511719</ele>
        <time>2014-01-31T13:59:06.000Z</time>
      </trkpt>
      <trkpt lat="45.56877" lon="6.57712">
        <ele>1948.5999755859</ele>
        <time>2014-01-31T13:59:07.000Z</time>
      </trkpt>
      <trkpt lat="45.56875" lon="6.57717">
        <ele>1946.1999511719</ele>
        <time>2014-01-31T13:59:08.000Z</time>
      </trkpt>
      <trkpt lat="45.56871" lon="6.57719">
        <ele>1944</ele>
        <time>2014-01-31T13:59:09.000Z</time>
      </trkpt>
      <trkpt lat="45.56869" lon="6.5772">
        <ele>1941.5999755859</ele>
        <time>2014-01-31T13:59:10.000Z</time>
      </trkpt>
      <trkpt lat="45.5687" lon="6.57718">
        <ele>1939.4000244141</ele>
        <time>2014-01-31T13:59:11.000Z</time>
      </trkpt>
      <trkpt lat="45.5687" lon="6.57717">
        <ele>1937.5999755859</ele>
        <time>2014-01-31T13:59:12.000Z</time>
      </trkpt>
      <trkpt lat="45.5687" lon="6.57715">
        <ele>1936.1999511719</ele>
        <time>2014-01-31T13:59:13.000Z</time>
      </trkpt>
      <trkpt lat="45.5687" lon="6.57715">
        <ele>1935.5999755859</ele>
        <time>2014-01-31T13:59:14.000Z</time>
      </trkpt>
      <trkpt lat="45.5687" lon="6.57715">
        <ele>1935</ele>
        <time>2014-01-31T13:59:15.000Z</time>
      </trkpt>
      <trkpt lat="45.5687" lon="6.57715">
        <ele>1934.8000488281</ele>
        <time>2014-01-31T13:59:16.000Z</time>
      </trkpt>
      <trkpt lat="45.5687" lon="6.57714">
        <ele>1934.4000244141</ele>
        <time>2014-01-31T13:59:17.000Z</time>
      </trkpt>
      <trkpt lat="45.5687" lon="6.57714">
        <ele>1934.1999511719</ele>
        <time>2014-01-31T13:59:18.000Z</time>
      </trkpt>
      <trkpt lat="45.5687" lon="6.57713">
        <ele>1934</ele>
        <time>2014-01-31T13:59:19.000Z</time>
      </trkpt>
      <trkpt lat="45.56868" lon="6.57711">
        <ele>1933.8000488281</ele>
        <time>2014-01-31T13:59:20.000Z</time>
      </trkpt>
      <trkpt lat="45.56865" lon="6.57708">
        <ele>1933.5999755859</ele>
        <time>2014-01-31T13:59:21.000Z</time>
      </trkpt>
      <trkpt lat="45.56861" lon="6.57704">
        <ele>1933.4000244141</ele>
        <time>2014-01-31T13:59:22.000Z</time>
      </trkpt>
      <trkpt lat="45.56858" lon="6.57699">
        <ele>1933.4000244141</ele>
        <time>2014-01-31T13:59:23.000Z</time>
      </trkpt>
      <trkpt lat="45.56857" lon="6.57693">
        <ele>1933</ele>
        <time>2014-01-31T13:59:24.000Z</time>
      </trkpt>
      <trkpt lat="45.56857" lon="6.57687">
        <ele>1932.5999755859</ele>
        <time>2014-01-31T13:59:25.000Z</time>
      </trkpt>
      <trkpt lat="45.56856" lon="6.57683">
        <ele>1932</ele>
        <time>2014-01-31T13:59:26.000Z</time>
      </trkpt>
      <trkpt lat="45.56855" lon="6.5768">
        <ele>1931.5999755859</ele>
        <time>2014-01-31T13:59:27.000Z</time>
      </trkpt>
      <trkpt lat="45.56854" lon="6.57678">
        <ele>1931</ele>
        <time>2014-01-31T13:59:28.000Z</time>
      </trkpt>
      <trkpt lat="45.56854" lon="6.57682">
        <ele>1930.4000244141</ele>
        <time>2014-01-31T13:59:29.000Z</time>
      </trkpt>
      <trkpt lat="45.56853" lon="6.57684">
        <ele>1929.8000488281</ele>
        <time>2014-01-31T13:59:30.000Z</time>
      </trkpt>
      <trkpt lat="45.56852" lon="6.57686">
        <ele>1928.4000244141</ele>
        <time>2014-01-31T13:59:31.000Z</time>
      </trkpt>
      <trkpt lat="45.56852" lon="6.57687">
        <ele>1927.5999755859</ele>
        <time>2014-01-31T13:59:32.000Z</time>
      </trkpt>
      <trkpt lat="45.56852" lon="6.57687">
        <ele>1927</ele>
        <time>2014-01-31T13:59:33.000Z</time>
      </trkpt>
      <trkpt lat="45.5685" lon="6.57688">
        <ele>1926.5999755859</ele>
        <time>2014-01-31T13:59:34.000Z</time>
      </trkpt>
      <trkpt lat="45.56847" lon="6.57689">
        <ele>1926.4000244141</ele>
        <time>2014-01-31T13:59:35.000Z</time>
      </trkpt>
      <trkpt lat="45.56842" lon="6.57691">
        <ele>1926</ele>
        <time>2014-01-31T13:59:36.000Z</time>
      </trkpt>
      <trkpt lat="45.56838" lon="6.57694">
        <ele>1925.8000488281</ele>
        <time>2014-01-31T13:59:37.000Z</time>
      </trkpt>
      <trkpt lat="45.56834" lon="6.57697">
        <ele>1925</ele>
        <time>2014-01-31T13:59:38.000Z</time>
      </trkpt>
      <trkpt lat="45.5683" lon="6.57699">
        <ele>1924.1999511719</ele>
        <time>2014-01-31T13:59:39.000Z</time>
      </trkpt>
      <trkpt lat="45.56827" lon="6.57702">
        <ele>1923.1999511719</ele>
        <time>2014-01-31T13:59:40.000Z</time>
      </trkpt>
      <trkpt lat="45.56824" lon="6.57704">
        <ele>1922.4000244141</ele>
        <time>2014-01-31T13:59:41.000Z</time>
      </trkpt>
      <trkpt lat="45.56821" lon="6.57706">
        <ele>1922</ele>
        <time>2014-01-31T13:59:42.000Z</time>
      </trkpt>
      <trkpt lat="45.56818" lon="6.57709">
        <ele>1921.5999755859</ele>
        <time>2014-01-31T13:59:43.000Z</time>
      </trkpt>
      <trkpt lat="45.56814" lon="6.5771">
        <ele>1921.1999511719</ele>
        <time>2014-01-31T13:59:44.000Z</time>
      </trkpt>
      <trkpt lat="45.56811" lon="6.57711">
        <ele>1920.5999755859</ele>
        <time>2014-01-31T13:59:45.000Z</time>
      </trkpt>
      <trkpt lat="45.56809" lon="6.57711">
        <ele>1920.1999511719</ele>
        <time>2014-01-31T13:59:46.000Z</time>
      </trkpt>
      <trkpt lat="45.56807" lon="6.57711">
        <ele>1919.8000488281</ele>
        <time>2014-01-31T13:59:47.000Z</time>
      </trkpt>
      <trkpt lat="45.56804" lon="6.57712">
        <ele>1919.4000244141</ele>
        <time>2014-01-31T13:59:48.000Z</time>
      </trkpt>
      <trkpt lat="45.56801" lon="6.57713">
        <ele>1919</ele>
        <time>2014-01-31T13:59:49.000Z</time>
      </trkpt>
      <trkpt lat="45.56796" lon="6.57714">
        <ele>1918.5999755859</ele>
        <time>2014-01-31T13:59:50.000Z</time>
      </trkpt>
      <trkpt lat="45.56792" lon="6.57715">
        <ele>1918.1999511719</ele>
        <time>2014-01-31T13:59:51.000Z</time>
      </trkpt>
      <trkpt lat="45.56787" lon="6.57718">
        <ele>1917.8000488281</ele>
        <time>2014-01-31T13:59:52.000Z</time>
      </trkpt>
      <trkpt lat="45.56782" lon="6.5772">
        <ele>1917.5999755859</ele>
        <time>2014-01-31T13:59:53.000Z</time>
      </trkpt>
      <trkpt lat="45.56778" lon="6.57723">
        <ele>1917.4000244141</ele>
        <time>2014-01-31T13:59:54.000Z</time>
      </trkpt>
      <trkpt lat="45.56773" lon="6.57726">
        <ele>1916</ele>
        <time>2014-01-31T13:59:55.000Z</time>
      </trkpt>
      <trkpt lat="45.56769" lon="6.57729">
        <ele>1915</ele>
        <time>2014-01-31T13:59:56.000Z</time>
      </trkpt>
      <trkpt lat="45.56766" lon="6.57732">
        <ele>1914.1999511719</ele>
        <time>2014-01-31T13:59:57.000Z</time>
      </trkpt>
      <trkpt lat="45.56764" lon="6.57734">
        <ele>1913.4000244141</ele>
        <time>2014-01-31T13:59:58.000Z</time>
      </trkpt>
      <trkpt lat="45.56762" lon="6.57736">
        <ele>1912.8000488281</ele>
        <time>2014-01-31T13:59:59.000Z</time>
      </trkpt>
      <trkpt lat="45.56761" lon="6.57739">
        <ele>1912.1999511719</ele>
        <time>2014-01-31T14:00:00.000Z</time>
      </trkpt>
      <trkpt lat="45.5676" lon="6.57741">
        <ele>1911.8000488281</ele>
        <time>2014-01-31T14:00:01.000Z</time>
      </trkpt>
      <trkpt lat="45.56759" lon="6.57743">
        <ele>1911.4000244141</ele>
        <time>2014-01-31T14:00:02.000Z</time>
      </trkpt>
      <trkpt lat="45.56757" lon="6.57745">
        <ele>1911</ele>
        <time>2014-01-31T14:00:03.000Z</time>
      </trkpt>
      <trkpt lat="45.56755" lon="6.57747">
        <ele>1910.8000488281</ele>
        <time>2014-01-31T14:00:04.000Z</time>
      </trkpt>
      <trkpt lat="45.56753" lon="6.57749">
        <ele>1910.5999755859</ele>
        <time>2014-01-31T14:00:05.000Z</time>
      </trkpt>
      <trkpt lat="45.5675" lon="6.57751">
        <ele>1910.1999511719</ele>
        <time>2014-01-31T14:00:06.000Z</time>
      </trkpt>
      <trkpt lat="45.56747" lon="6.57755">
        <ele>1910</ele>
        <time>2014-01-31T14:00:07.000Z</time>
      </trkpt>
      <trkpt lat="45.56743" lon="6.57759">
        <ele>1909.5999755859</ele>
        <time>2014-01-31T14:00:08.000Z</time>
      </trkpt>
      <trkpt lat="45.56739" lon="6.57762">
        <ele>1909.4000244141</ele>
        <time>2014-01-31T14:00:09.000Z</time>
      </trkpt>
      <trkpt lat="45.56736" lon="6.57766">
        <ele>1909.1999511719</ele>
        <time>2014-01-31T14:00:10.000Z</time>
      </trkpt>
      <trkpt lat="45.56732" lon="6.57768">
        <ele>1908.8000488281</ele>
        <time>2014-01-31T14:00:11.000Z</time>
      </trkpt>
      <trkpt lat="45.56729" lon="6.5777">
        <ele>1908</ele>
        <time>2014-01-31T14:00:12.000Z</time>
      </trkpt>
      <trkpt lat="45.56726" lon="6.57773">
        <ele>1907.4000244141</ele>
        <time>2014-01-31T14:00:13.000Z</time>
      </trkpt>
      <trkpt lat="45.56723" lon="6.57774">
        <ele>1906.8000488281</ele>
        <time>2014-01-31T14:00:14.000Z</time>
      </trkpt>
      <trkpt lat="45.56721" lon="6.57776">
        <ele>1906.4000244141</ele>
        <time>2014-01-31T14:00:15.000Z</time>
      </trkpt>
      <trkpt lat="45.56719" lon="6.57777">
        <ele>1906</ele>
        <time>2014-01-31T14:00:16.000Z</time>
      </trkpt>
      <trkpt lat="45.56717" lon="6.57779">
        <ele>1905.5999755859</ele>
        <time>2014-01-31T14:00:17.000Z</time>
      </trkpt>
      <trkpt lat="45.56715" lon="6.5778">
        <ele>1905</ele>
        <time>2014-01-31T14:00:18.000Z</time>
      </trkpt>
      <trkpt lat="45.56713" lon="6.57781">
        <ele>1904</ele>
        <time>2014-01-31T14:00:19.000Z</time>
      </trkpt>
      <trkpt lat="45.56711" lon="6.57782">
        <ele>1903.5999755859</ele>
        <time>2014-01-31T14:00:20.000Z</time>
      </trkpt>
      <trkpt lat="45.56708" lon="6.57783">
        <ele>1903.4000244141</ele>
        <time>2014-01-31T14:00:21.000Z</time>
      </trkpt>
      <trkpt lat="45.56705" lon="6.57785">
        <ele>1903.1999511719</ele>
        <time>2014-01-31T14:00:22.000Z</time>
      </trkpt>
      <trkpt lat="45.56702" lon="6.57786">
        <ele>1902.8000488281</ele>
        <time>2014-01-31T14:00:23.000Z</time>
      </trkpt>
      <trkpt lat="45.56699" lon="6.57787">
        <ele>1902.4000244141</ele>
        <time>2014-01-31T14:00:24.000Z</time>
      </trkpt>
      <trkpt lat="45.56695" lon="6.57789">
        <ele>1902</ele>
        <time>2014-01-31T14:00:25.000Z</time>
      </trkpt>
      <trkpt lat="45.56692" lon="6.57791">
        <ele>1901.5999755859</ele>
        <time>2014-01-31T14:00:26.000Z</time>
      </trkpt>
      <trkpt lat="45.56689" lon="6.57793">
        <ele>1901.1999511719</ele>
        <time>2014-01-31T14:00:27.000Z</time>
      </trkpt>
      <trkpt lat="45.56686" lon="6.57795">
        <ele>1900.5999755859</ele>
        <time>2014-01-31T14:00:28.000Z</time>
      </trkpt>
      <trkpt lat="45.56684" lon="6.57797">
        <ele>1900</ele>
        <time>2014-01-31T14:00:29.000Z</time>
      </trkpt>
      <trkpt lat="45.56684" lon="6.57803">
        <ele>1899.4000244141</ele>
        <time>2014-01-31T14:00:30.000Z</time>
      </trkpt>
      <trkpt lat="45.56685" lon="6.57809">
        <ele>1898.8000488281</ele>
        <time>2014-01-31T14:00:31.000Z</time>
      </trkpt>
      <trkpt lat="45.56684" lon="6.57816">
        <ele>1898</ele>
        <time>2014-01-31T14:00:32.000Z</time>
      </trkpt>
      <trkpt lat="45.56685" lon="6.57824">
        <ele>1897</ele>
        <time>2014-01-31T14:00:33.000Z</time>
      </trkpt>
      <trkpt lat="45.56686" lon="6.57832">
        <ele>1896</ele>
        <time>2014-01-31T14:00:34.000Z</time>
      </trkpt>
      <trkpt lat="45.56688" lon="6.57841">
        <ele>1894.8000488281</ele>
        <time>2014-01-31T14:00:35.000Z</time>
      </trkpt>
      <trkpt lat="45.56687" lon="6.57849">
        <ele>1893.4000244141</ele>
        <time>2014-01-31T14:00:36.000Z</time>
      </trkpt>
      <trkpt lat="45.56686" lon="6.57857">
        <ele>1891.5999755859</ele>
        <time>2014-01-31T14:00:37.000Z</time>
      </trkpt>
      <trkpt lat="45.56683" lon="6.57862">
        <ele>1889.5999755859</ele>
        <time>2014-01-31T14:00:38.000Z</time>
      </trkpt>
      <trkpt lat="45.56677" lon="6.57869">
        <ele>1887</ele>
        <time>2014-01-31T14:00:39.000Z</time>
      </trkpt>
      <trkpt lat="45.56671" lon="6.57874">
        <ele>1884.5999755859</ele>
        <time>2014-01-31T14:00:40.000Z</time>
      </trkpt>
      <trkpt lat="45.56664" lon="6.57876">
        <ele>1882.1999511719</ele>
        <time>2014-01-31T14:00:41.000Z</time>
      </trkpt>
      <trkpt lat="45.56659" lon="6.5788">
        <ele>1880.4000244141</ele>
        <time>2014-01-31T14:00:42.000Z</time>
      </trkpt>
      <trkpt lat="45.56654" lon="6.57884">
        <ele>1876.8000488281</ele>
        <time>2014-01-31T14:00:43.000Z</time>
      </trkpt>
      <trkpt lat="45.56649" lon="6.57887">
        <ele>1875</ele>
        <time>2014-01-31T14:00:44.000Z</time>
      </trkpt>
      <trkpt lat="45.56643" lon="6.5789">
        <ele>1873.1999511719</ele>
        <time>2014-01-31T14:00:45.000Z</time>
      </trkpt>
      <trkpt lat="45.56639" lon="6.57895">
        <ele>1871.4000244141</ele>
        <time>2014-01-31T14:00:46.000Z</time>
      </trkpt>
      <trkpt lat="45.56639" lon="6.57898">
        <ele>1870.1999511719</ele>
        <time>2014-01-31T14:00:47.000Z</time>
      </trkpt>
      <trkpt lat="45.56639" lon="6.57898">
        <ele>1869.1999511719</ele>
        <time>2014-01-31T14:00:48.000Z</time>
      </trkpt>
      <trkpt lat="45.56639" lon="6.57898">
        <ele>1868</ele>
        <time>2014-01-31T14:00:49.000Z</time>
      </trkpt>
      <trkpt lat="45.56639" lon="6.57898">
        <ele>1866.8000488281</ele>
        <time>2014-01-31T14:00:50.000Z</time>
      </trkpt>
      <trkpt lat="45.5664" lon="6.57899">
        <ele>1865.5999755859</ele>
        <time>2014-01-31T14:00:51.000Z</time>
      </trkpt>
      <trkpt lat="45.56641" lon="6.57899">
        <ele>1864.5999755859</ele>
        <time>2014-01-31T14:00:52.000Z</time>
      </trkpt>
      <trkpt lat="45.56642" lon="6.57899">
        <ele>1864</ele>
        <time>2014-01-31T14:00:53.000Z</time>
      </trkpt>
      <trkpt lat="45.56643" lon="6.57901">
        <ele>1863.5999755859</ele>
        <time>2014-01-31T14:00:54.000Z</time>
      </trkpt>
      <trkpt lat="45.56644" lon="6.57905">
        <ele>1863.4000244141</ele>
        <time>2014-01-31T14:00:55.000Z</time>
      </trkpt>
      <trkpt lat="45.56647" lon="6.57908">
        <ele>1863.1999511719</ele>
        <time>2014-01-31T14:00:56.000Z</time>
      </trkpt>
      <trkpt lat="45.5665" lon="6.5791">
        <ele>1863</ele>
        <time>2014-01-31T14:00:57.000Z</time>
      </trkpt>
      <trkpt lat="45.56654" lon="6.57915">
        <ele>1862.8000488281</ele>
        <time>2014-01-31T14:00:58.000Z</time>
      </trkpt>
      <trkpt lat="45.56657" lon="6.5792">
        <ele>1862.4000244141</ele>
        <time>2014-01-31T14:00:59.000Z</time>
      </trkpt>
      <trkpt lat="45.5666" lon="6.57926">
        <ele>1861.8000488281</ele>
        <time>2014-01-31T14:01:00.000Z</time>
      </trkpt>
      <trkpt lat="45.56662" lon="6.57932">
        <ele>1860.8000488281</ele>
        <time>2014-01-31T14:01:01.000Z</time>
      </trkpt>
      <trkpt lat="45.56663" lon="6.57938">
        <ele>1859.5999755859</ele>
        <time>2014-01-31T14:01:02.000Z</time>
      </trkpt>
      <trkpt lat="45.56661" lon="6.57943">
        <ele>1858.1999511719</ele>
        <time>2014-01-31T14:01:03.000Z</time>
      </trkpt>
      <trkpt lat="45.56657" lon="6.57947">
        <ele>1856.8000488281</ele>
        <time>2014-01-31T14:01:04.000Z</time>
      </trkpt>
      <trkpt lat="45.5665" lon="6.57951">
        <ele>1855.5999755859</ele>
        <time>2014-01-31T14:01:05.000Z</time>
      </trkpt>
      <trkpt lat="45.56633" lon="6.57955">
        <ele>1854.1999511719</ele>
        <time>2014-01-31T14:01:06.000Z</time>
      </trkpt>
      <trkpt lat="45.5662" lon="6.57955">
        <ele>1852.1999511719</ele>
        <time>2014-01-31T14:01:07.000Z</time>
      </trkpt>
      <trkpt lat="45.56616" lon="6.57955">
        <ele>1851</ele>
        <time>2014-01-31T14:01:08.000Z</time>
      </trkpt>
      <trkpt lat="45.56615" lon="6.57955">
        <ele>1849.8000488281</ele>
        <time>2014-01-31T14:01:09.000Z</time>
      </trkpt>
      <trkpt lat="45.56615" lon="6.57955">
        <ele>1848.5999755859</ele>
        <time>2014-01-31T14:01:10.000Z</time>
      </trkpt>
      <trkpt lat="45.56612" lon="6.57954">
        <ele>1847.8000488281</ele>
        <time>2014-01-31T14:01:11.000Z</time>
      </trkpt>
      <trkpt lat="45.56612" lon="6.57954">
        <ele>1847.1999511719</ele>
        <time>2014-01-31T14:01:12.000Z</time>
      </trkpt>
      <trkpt lat="45.56612" lon="6.57954">
        <ele>1847</ele>
        <time>2014-01-31T14:01:13.000Z</time>
      </trkpt>
      <trkpt lat="45.56612" lon="6.57954">
        <ele>1846.5999755859</ele>
        <time>2014-01-31T14:01:14.000Z</time>
      </trkpt>
      <trkpt lat="45.56612" lon="6.57954">
        <ele>1846.4000244141</ele>
        <time>2014-01-31T14:01:15.000Z</time>
      </trkpt>
      <trkpt lat="45.56612" lon="6.57954">
        <ele>1846.4000244141</ele>
        <time>2014-01-31T14:01:16.000Z</time>
      </trkpt>
      <trkpt lat="45.56612" lon="6.57954">
        <ele>1846.4000244141</ele>
        <time>2014-01-31T14:01:17.000Z</time>
      </trkpt>
      <trkpt lat="45.56612" lon="6.57954">
        <ele>1846.1999511719</ele>
        <time>2014-01-31T14:01:18.000Z</time>
      </trkpt>
      <trkpt lat="45.56612" lon="6.57954">
        <ele>1846.1999511719</ele>
        <time>2014-01-31T14:01:19.000Z</time>
      </trkpt>
      <trkpt lat="45.56612" lon="6.57954">
        <ele>1846.1999511719</ele>
        <time>2014-01-31T14:01:20.000Z</time>
      </trkpt>
      <trkpt lat="45.56612" lon="6.57954">
        <ele>1846.1999511719</ele>
        <time>2014-01-31T14:01:21.000Z</time>
      </trkpt>
      <trkpt lat="45.56612" lon="6.57954">
        <ele>1846.1999511719</ele>
        <time>2014-01-31T14:01:23.000Z</time>
      </trkpt>
      <trkpt lat="45.56612" lon="6.57954">
        <ele>1846.1999511719</ele>
        <time>2014-01-31T14:01:24.000Z</time>
      </trkpt>
      <trkpt lat="45.56612" lon="6.57954">
        <ele>1846.1999511719</ele>
        <time>2014-01-31T14:01:25.000Z</time>
      </trkpt>
      <trkpt lat="45.56612" lon="6.57954">
        <ele>1846.1999511719</ele>
        <time>2014-01-31T14:01:26.000Z</time>
      </trkpt>
      <trkpt lat="45.56612" lon="6.57954">
        <ele>1846</ele>
        <time>2014-01-31T14:01:27.000Z</time>
      </trkpt>
      <trkpt lat="45.56612" lon="6.57954">
        <ele>1846</ele>
        <time>2014-01-31T14:01:28.000Z</time>
      </trkpt>
      <trkpt lat="45.56612" lon="6.57954">
        <ele>1846.1999511719</ele>
        <time>2014-01-31T14:01:30.000Z</time>
      </trkpt>
      <trkpt lat="45.56612" lon="6.57954">
        <ele>1846.1999511719</ele>
        <time>2014-01-31T14:01:31.000Z</time>
      </trkpt>
      <trkpt lat="45.56612" lon="6.57954">
        <ele>1846</ele>
        <time>2014-01-31T14:01:33.000Z</time>
      </trkpt>
      <trkpt lat="45.56612" lon="6.57955">
        <ele>1846</ele>
        <time>2014-01-31T14:01:34.000Z</time>
      </trkpt>
      <trkpt lat="45.56607" lon="6.57959">
        <ele>1845.8000488281</ele>
        <time>2014-01-31T14:01:35.000Z</time>
      </trkpt>
      <trkpt lat="45.56606" lon="6.57964">
        <ele>1845.8000488281</ele>
        <time>2014-01-31T14:01:36.000Z</time>
      </trkpt>
      <trkpt lat="45.56609" lon="6.57967">
        <ele>1845.5999755859</ele>
        <time>2014-01-31T14:01:37.000Z</time>
      </trkpt>
      <trkpt lat="45.56612" lon="6.57968">
        <ele>1845.4000244141</ele>
        <time>2014-01-31T14:01:38.000Z</time>
      </trkpt>
      <trkpt lat="45.56615" lon="6.57968">
        <ele>1845</ele>
        <time>2014-01-31T14:01:39.000Z</time>
      </trkpt>
      <trkpt lat="45.56619" lon="6.57969">
        <ele>1844.1999511719</ele>
        <time>2014-01-31T14:01:40.000Z</time>
      </trkpt>
      <trkpt lat="45.56623" lon="6.5797">
        <ele>1843.1999511719</ele>
        <time>2014-01-31T14:01:41.000Z</time>
      </trkpt>
      <trkpt lat="45.56628" lon="6.57976">
        <ele>1842.1999511719</ele>
        <time>2014-01-31T14:01:42.000Z</time>
      </trkpt>
      <trkpt lat="45.5663" lon="6.57982">
        <ele>1841.4000244141</ele>
        <time>2014-01-31T14:01:43.000Z</time>
      </trkpt>
      <trkpt lat="45.56629" lon="6.57989">
        <ele>1840.8000488281</ele>
        <time>2014-01-31T14:01:44.000Z</time>
      </trkpt>
      <trkpt lat="45.56629" lon="6.57996">
        <ele>1840</ele>
        <time>2014-01-31T14:01:45.000Z</time>
      </trkpt>
      <trkpt lat="45.56628" lon="6.58003">
        <ele>1839.1999511719</ele>
        <time>2014-01-31T14:01:46.000Z</time>
      </trkpt>
      <trkpt lat="45.56628" lon="6.58012">
        <ele>1838.5999755859</ele>
        <time>2014-01-31T14:01:47.000Z</time>
      </trkpt>
      <trkpt lat="45.56628" lon="6.58022">
        <ele>1838</ele>
        <time>2014-01-31T14:01:48.000Z</time>
      </trkpt>
      <trkpt lat="45.56627" lon="6.58032">
        <ele>1837.1999511719</ele>
        <time>2014-01-31T14:01:49.000Z</time>
      </trkpt>
      <trkpt lat="45.56625" lon="6.58042">
        <ele>1836.4000244141</ele>
        <time>2014-01-31T14:01:50.000Z</time>
      </trkpt>
      <trkpt lat="45.56623" lon="6.58053">
        <ele>1835.5999755859</ele>
        <time>2014-01-31T14:01:51.000Z</time>
      </trkpt>
      <trkpt lat="45.56621" lon="6.58065">
        <ele>1834.8000488281</ele>
        <time>2014-01-31T14:01:52.000Z</time>
      </trkpt>
      <trkpt lat="45.56618" lon="6.58076">
        <ele>1834</ele>
        <time>2014-01-31T14:01:53.000Z</time>
      </trkpt>
      <trkpt lat="45.56614" lon="6.58088">
        <ele>1833</ele>
        <time>2014-01-31T14:01:54.000Z</time>
      </trkpt>
      <trkpt lat="45.56609" lon="6.58098">
        <ele>1831.8000488281</ele>
        <time>2014-01-31T14:01:55.000Z</time>
      </trkpt>
      <trkpt lat="45.56605" lon="6.58109">
        <ele>1831</ele>
        <time>2014-01-31T14:01:56.000Z</time>
      </trkpt>
      <trkpt lat="45.566" lon="6.5812">
        <ele>1830.4000244141</ele>
        <time>2014-01-31T14:01:57.000Z</time>
      </trkpt>
      <trkpt lat="45.56595" lon="6.58131">
        <ele>1829.4000244141</ele>
        <time>2014-01-31T14:01:58.000Z</time>
      </trkpt>
      <trkpt lat="45.56591" lon="6.58142">
        <ele>1828.5999755859</ele>
        <time>2014-01-31T14:01:59.000Z</time>
      </trkpt>
      <trkpt lat="45.56587" lon="6.58152">
        <ele>1827.4000244141</ele>
        <time>2014-01-31T14:02:00.000Z</time>
      </trkpt>
      <trkpt lat="45.56583" lon="6.58162">
        <ele>1826.4000244141</ele>
        <time>2014-01-31T14:02:01.000Z</time>
      </trkpt>
      <trkpt lat="45.56579" lon="6.58172">
        <ele>1825.4000244141</ele>
        <time>2014-01-31T14:02:02.000Z</time>
      </trkpt>
      <trkpt lat="45.56574" lon="6.58183">
        <ele>1824.4000244141</ele>
        <time>2014-01-31T14:02:03.000Z</time>
      </trkpt>
      <trkpt lat="45.56569" lon="6.58193">
        <ele>1823.4000244141</ele>
        <time>2014-01-31T14:02:04.000Z</time>
      </trkpt>
      <trkpt lat="45.56565" lon="6.58203">
        <ele>1822.4000244141</ele>
        <time>2014-01-31T14:02:05.000Z</time>
      </trkpt>
      <trkpt lat="45.56562" lon="6.58213">
        <ele>1821.1999511719</ele>
        <time>2014-01-31T14:02:06.000Z</time>
      </trkpt>
      <trkpt lat="45.56559" lon="6.58222">
        <ele>1820.1999511719</ele>
        <time>2014-01-31T14:02:07.000Z</time>
      </trkpt>
      <trkpt lat="45.56557" lon="6.58228">
        <ele>1819.1999511719</ele>
        <time>2014-01-31T14:02:08.000Z</time>
      </trkpt>
      <trkpt lat="45.56555" lon="6.58233">
        <ele>1818</ele>
        <time>2014-01-31T14:02:09.000Z</time>
      </trkpt>
      <trkpt lat="45.56554" lon="6.58235">
        <ele>1816.8000488281</ele>
        <time>2014-01-31T14:02:10.000Z</time>
      </trkpt>
      <trkpt lat="45.56553" lon="6.58236">
        <ele>1815.4000244141</ele>
        <time>2014-01-31T14:02:11.000Z</time>
      </trkpt>
      <trkpt lat="45.56552" lon="6.58237">
        <ele>1814.4000244141</ele>
        <time>2014-01-31T14:02:12.000Z</time>
      </trkpt>
      <trkpt lat="45.56552" lon="6.58237">
        <ele>1813.5999755859</ele>
        <time>2014-01-31T14:02:13.000Z</time>
      </trkpt>
      <trkpt lat="45.56551" lon="6.58238">
        <ele>1813.1999511719</ele>
        <time>2014-01-31T14:02:14.000Z</time>
      </trkpt>
      <trkpt lat="45.5655" lon="6.58238">
        <ele>1812.8000488281</ele>
        <time>2014-01-31T14:02:15.000Z</time>
      </trkpt>
      <trkpt lat="45.5655" lon="6.58239">
        <ele>1812.8000488281</ele>
        <time>2014-01-31T14:02:16.000Z</time>
      </trkpt>
      <trkpt lat="45.56549" lon="6.58239">
        <ele>1812.5999755859</ele>
        <time>2014-01-31T14:02:17.000Z</time>
      </trkpt>
      <trkpt lat="45.56549" lon="6.58239">
        <ele>1812.5999755859</ele>
        <time>2014-01-31T14:02:18.000Z</time>
      </trkpt>
      <trkpt lat="45.56549" lon="6.58239">
        <ele>1812.5999755859</ele>
        <time>2014-01-31T14:02:19.000Z</time>
      </trkpt>
      <trkpt lat="45.56549" lon="6.58239">
        <ele>1812.4000244141</ele>
        <time>2014-01-31T14:02:20.000Z</time>
      </trkpt>
      <trkpt lat="45.56549" lon="6.58239">
        <ele>1812.4000244141</ele>
        <time>2014-01-31T14:02:21.000Z</time>
      </trkpt>
      <trkpt lat="45.56549" lon="6.58239">
        <ele>1812.4000244141</ele>
        <time>2014-01-31T14:02:22.000Z</time>
      </trkpt>
      <trkpt lat="45.56548" lon="6.58232">
        <ele>1812.4000244141</ele>
        <time>2014-01-31T14:02:23.000Z</time>
      </trkpt>
      <trkpt lat="45.56546" lon="6.58228">
        <ele>1812.1999511719</ele>
        <time>2014-01-31T14:02:24.000Z</time>
      </trkpt>
      <trkpt lat="45.56542" lon="6.58229">
        <ele>1812</ele>
        <time>2014-01-31T14:02:25.000Z</time>
      </trkpt>
      <trkpt lat="45.56539" lon="6.58233">
        <ele>1811.8000488281</ele>
        <time>2014-01-31T14:02:26.000Z</time>
      </trkpt>
      <trkpt lat="45.56534" lon="6.58236">
        <ele>1811.5999755859</ele>
        <time>2014-01-31T14:02:27.000Z</time>
      </trkpt>
      <trkpt lat="45.56528" lon="6.58236">
        <ele>1811</ele>
        <time>2014-01-31T14:02:28.000Z</time>
      </trkpt>
      <trkpt lat="45.56521" lon="6.58238">
        <ele>1810</ele>
        <time>2014-01-31T14:02:29.000Z</time>
      </trkpt>
      <trkpt lat="45.56513" lon="6.58237">
        <ele>1808.5999755859</ele>
        <time>2014-01-31T14:02:30.000Z</time>
      </trkpt>
      <trkpt lat="45.56507" lon="6.5824">
        <ele>1807.1999511719</ele>
        <time>2014-01-31T14:02:31.000Z</time>
      </trkpt>
      <trkpt lat="45.56502" lon="6.58247">
        <ele>1805.5999755859</ele>
        <time>2014-01-31T14:02:32.000Z</time>
      </trkpt>
      <trkpt lat="45.56499" lon="6.58254">
        <ele>1804</ele>
        <time>2014-01-31T14:02:33.000Z</time>
      </trkpt>
      <trkpt lat="45.56494" lon="6.58258">
        <ele>1802.1999511719</ele>
        <time>2014-01-31T14:02:34.000Z</time>
      </trkpt>
      <trkpt lat="45.56489" lon="6.58261">
        <ele>1800.1999511719</ele>
        <time>2014-01-31T14:02:35.000Z</time>
      </trkpt>
      <trkpt lat="45.56483" lon="6.58263">
        <ele>1798</ele>
        <time>2014-01-31T14:02:36.000Z</time>
      </trkpt>
      <trkpt lat="45.56476" lon="6.58264">
        <ele>1795.5999755859</ele>
        <time>2014-01-31T14:02:37.000Z</time>
      </trkpt>
      <trkpt lat="45.5647" lon="6.58271">
        <ele>1793.5999755859</ele>
        <time>2014-01-31T14:02:38.000Z</time>
      </trkpt>
      <trkpt lat="45.56468" lon="6.58278">
        <ele>1791.8000488281</ele>
        <time>2014-01-31T14:02:39.000Z</time>
      </trkpt>
      <trkpt lat="45.56466" lon="6.58286">
        <ele>1790</ele>
        <time>2014-01-31T14:02:40.000Z</time>
      </trkpt>
      <trkpt lat="45.56463" lon="6.58293">
        <ele>1788.1999511719</ele>
        <time>2014-01-31T14:02:41.000Z</time>
      </trkpt>
      <trkpt lat="45.56459" lon="6.583">
        <ele>1785.8000488281</ele>
        <time>2014-01-31T14:02:42.000Z</time>
      </trkpt>
      <trkpt lat="45.56456" lon="6.58306">
        <ele>1780.8000488281</ele>
        <time>2014-01-31T14:02:43.000Z</time>
      </trkpt>
      <trkpt lat="45.56452" lon="6.58312">
        <ele>1778.8000488281</ele>
        <time>2014-01-31T14:02:44.000Z</time>
      </trkpt>
      <trkpt lat="45.5645" lon="6.58319">
        <ele>1777.4000244141</ele>
        <time>2014-01-31T14:02:45.000Z</time>
      </trkpt>
      <trkpt lat="45.56446" lon="6.58323">
        <ele>1776.1999511719</ele>
        <time>2014-01-31T14:02:46.000Z</time>
      </trkpt>
      <trkpt lat="45.56444" lon="6.58329">
        <ele>1775</ele>
        <time>2014-01-31T14:02:47.000Z</time>
      </trkpt>
      <trkpt lat="45.56442" lon="6.58335">
        <ele>1773.4000244141</ele>
        <time>2014-01-31T14:02:48.000Z</time>
      </trkpt>
      <trkpt lat="45.5644" lon="6.58341">
        <ele>1772.1999511719</ele>
        <time>2014-01-31T14:02:49.000Z</time>
      </trkpt>
      <trkpt lat="45.56437" lon="6.58347">
        <ele>1770.8000488281</ele>
        <time>2014-01-31T14:02:50.000Z</time>
      </trkpt>
      <trkpt lat="45.56435" lon="6.58352">
        <ele>1769.8000488281</ele>
        <time>2014-01-31T14:02:51.000Z</time>
      </trkpt>
      <trkpt lat="45.56433" lon="6.58358">
        <ele>1769</ele>
        <time>2014-01-31T14:02:52.000Z</time>
      </trkpt>
      <trkpt lat="45.56431" lon="6.58364">
        <ele>1768.1999511719</ele>
        <time>2014-01-31T14:02:53.000Z</time>
      </trkpt>
      <trkpt lat="45.56429" lon="6.5837">
        <ele>1767.5999755859</ele>
        <time>2014-01-31T14:02:54.000Z</time>
      </trkpt>
      <trkpt lat="45.56427" lon="6.58374">
        <ele>1767</ele>
        <time>2014-01-31T14:02:55.000Z</time>
      </trkpt>
      <trkpt lat="45.56425" lon="6.58377">
        <ele>1766.4000244141</ele>
        <time>2014-01-31T14:02:56.000Z</time>
      </trkpt>
      <trkpt lat="45.56421" lon="6.58376">
        <ele>1765.8000488281</ele>
        <time>2014-01-31T14:02:57.000Z</time>
      </trkpt>
      <trkpt lat="45.56417" lon="6.58374">
        <ele>1765.1999511719</ele>
        <time>2014-01-31T14:02:58.000Z</time>
      </trkpt>
      <trkpt lat="45.56415" lon="6.58373">
        <ele>1764.4000244141</ele>
        <time>2014-01-31T14:02:59.000Z</time>
      </trkpt>
      <trkpt lat="45.56413" lon="6.58378">
        <ele>1763.8000488281</ele>
        <time>2014-01-31T14:03:00.000Z</time>
      </trkpt>
      <trkpt lat="45.56412" lon="6.58381">
        <ele>1763.1999511719</ele>
        <time>2014-01-31T14:03:01.000Z</time>
      </trkpt>
      <trkpt lat="45.56409" lon="6.58385">
        <ele>1762.4000244141</ele>
        <time>2014-01-31T14:03:02.000Z</time>
      </trkpt>
      <trkpt lat="45.56406" lon="6.58387">
        <ele>1761.4000244141</ele>
        <time>2014-01-31T14:03:03.000Z</time>
      </trkpt>
      <trkpt lat="45.56402" lon="6.58392">
        <ele>1760.4000244141</ele>
        <time>2014-01-31T14:03:04.000Z</time>
      </trkpt>
      <trkpt lat="45.56398" lon="6.58398">
        <ele>1759.1999511719</ele>
        <time>2014-01-31T14:03:05.000Z</time>
      </trkpt>
      <trkpt lat="45.56393" lon="6.58405">
        <ele>1758.1999511719</ele>
        <time>2014-01-31T14:03:06.000Z</time>
      </trkpt>
      <trkpt lat="45.56388" lon="6.58412">
        <ele>1756.1999511719</ele>
        <time>2014-01-31T14:03:07.000Z</time>
      </trkpt>
      <trkpt lat="45.56384" lon="6.58421">
        <ele>1755</ele>
        <time>2014-01-31T14:03:08.000Z</time>
      </trkpt>
      <trkpt lat="45.56381" lon="6.5843">
        <ele>1753.8000488281</ele>
        <time>2014-01-31T14:03:09.000Z</time>
      </trkpt>
      <trkpt lat="45.56378" lon="6.58438">
        <ele>1752.1999511719</ele>
        <time>2014-01-31T14:03:10.000Z</time>
      </trkpt>
      <trkpt lat="45.56374" lon="6.58446">
        <ele>1750.5999755859</ele>
        <time>2014-01-31T14:03:11.000Z</time>
      </trkpt>
      <trkpt lat="45.56372" lon="6.58455">
        <ele>1748.8000488281</ele>
        <time>2014-01-31T14:03:12.000Z</time>
      </trkpt>
      <trkpt lat="45.56369" lon="6.58463">
        <ele>1747.4000244141</ele>
        <time>2014-01-31T14:03:13.000Z</time>
      </trkpt>
      <trkpt lat="45.56366" lon="6.58472">
        <ele>1746.4000244141</ele>
        <time>2014-01-31T14:03:14.000Z</time>
      </trkpt>
      <trkpt lat="45.56362" lon="6.5848">
        <ele>1745.4000244141</ele>
        <time>2014-01-31T14:03:15.000Z</time>
      </trkpt>
      <trkpt lat="45.56357" lon="6.58487">
        <ele>1744.8000488281</ele>
        <time>2014-01-31T14:03:16.000Z</time>
      </trkpt>
      <trkpt lat="45.56353" lon="6.58494">
        <ele>1744</ele>
        <time>2014-01-31T14:03:17.000Z</time>
      </trkpt>
      <trkpt lat="45.56351" lon="6.58501">
        <ele>1743.1999511719</ele>
        <time>2014-01-31T14:03:18.000Z</time>
      </trkpt>
      <trkpt lat="45.56347" lon="6.58506">
        <ele>1742.4000244141</ele>
        <time>2014-01-31T14:03:19.000Z</time>
      </trkpt>
      <trkpt lat="45.56344" lon="6.58511">
        <ele>1741.4000244141</ele>
        <time>2014-01-31T14:03:20.000Z</time>
      </trkpt>
      <trkpt lat="45.5634" lon="6.58513">
        <ele>1740.5999755859</ele>
        <time>2014-01-31T14:03:21.000Z</time>
      </trkpt>
      <trkpt lat="45.56337" lon="6.58516">
        <ele>1739.5999755859</ele>
        <time>2014-01-31T14:03:22.000Z</time>
      </trkpt>
      <trkpt lat="45.56335" lon="6.58519">
        <ele>1738.8000488281</ele>
        <time>2014-01-31T14:03:23.000Z</time>
      </trkpt>
      <trkpt lat="45.56332" lon="6.58523">
        <ele>1738.4000244141</ele>
        <time>2014-01-31T14:03:24.000Z</time>
      </trkpt>
      <trkpt lat="45.5633" lon="6.58526">
        <ele>1738</ele>
        <time>2014-01-31T14:03:25.000Z</time>
      </trkpt>
      <trkpt lat="45.56328" lon="6.5853">
        <ele>1737.5999755859</ele>
        <time>2014-01-31T14:03:26.000Z</time>
      </trkpt>
      <trkpt lat="45.56326" lon="6.58534">
        <ele>1737.1999511719</ele>
        <time>2014-01-31T14:03:27.000Z</time>
      </trkpt>
      <trkpt lat="45.56323" lon="6.58537">
        <ele>1737</ele>
        <time>2014-01-31T14:03:28.000Z</time>
      </trkpt>
      <trkpt lat="45.56321" lon="6.5854">
        <ele>1737</ele>
        <time>2014-01-31T14:03:29.000Z</time>
      </trkpt>
      <trkpt lat="45.5632" lon="6.58543">
        <ele>1736.8000488281</ele>
        <time>2014-01-31T14:03:30.000Z</time>
      </trkpt>
      <trkpt lat="45.56319" lon="6.58545">
        <ele>1736.8000488281</ele>
        <time>2014-01-31T14:03:31.000Z</time>
      </trkpt>
      <trkpt lat="45.56318" lon="6.58547">
        <ele>1736.8000488281</ele>
        <time>2014-01-31T14:03:32.000Z</time>
      </trkpt>
      <trkpt lat="45.56317" lon="6.58549">
        <ele>1736.8000488281</ele>
        <time>2014-01-31T14:03:33.000Z</time>
      </trkpt>
      <trkpt lat="45.56316" lon="6.58551">
        <ele>1736.8000488281</ele>
        <time>2014-01-31T14:03:34.000Z</time>
      </trkpt>
      <trkpt lat="45.56318" lon="6.58551">
        <ele>1736.8000488281</ele>
        <time>2014-01-31T14:03:39.000Z</time>
      </trkpt>
      <trkpt lat="45.56318" lon="6.58551">
        <ele>1736.8000488281</ele>
        <time>2014-01-31T14:03:40.000Z</time>
      </trkpt>
      <trkpt lat="45.56318" lon="6.58551">
        <ele>1736.8000488281</ele>
        <time>2014-01-31T14:03:44.000Z</time>
      </trkpt>
      <trkpt lat="45.56318" lon="6.58551">
        <ele>1736.8000488281</ele>
        <time>2014-01-31T14:03:45.000Z</time>
      </trkpt>
      <trkpt lat="45.56318" lon="6.58551">
        <ele>1736.8000488281</ele>
        <time>2014-01-31T14:03:46.000Z</time>
      </trkpt>
      <trkpt lat="45.56318" lon="6.58551">
        <ele>1736.8000488281</ele>
        <time>2014-01-31T14:03:47.000Z</time>
      </trkpt>
      <trkpt lat="45.56318" lon="6.58551">
        <ele>1736.8000488281</ele>
        <time>2014-01-31T14:03:48.000Z</time>
      </trkpt>
      <trkpt lat="45.56318" lon="6.58551">
        <ele>1736.8000488281</ele>
        <time>2014-01-31T14:03:49.000Z</time>
      </trkpt>
      <trkpt lat="45.56318" lon="6.58551">
        <ele>1736.8000488281</ele>
        <time>2014-01-31T14:03:50.000Z</time>
      </trkpt>
      <trkpt lat="45.56318" lon="6.58551">
        <ele>1736.8000488281</ele>
        <time>2014-01-31T14:03:51.000Z</time>
      </trkpt>
      <trkpt lat="45.56318" lon="6.58551">
        <ele>1736.8000488281</ele>
        <time>2014-01-31T14:03:52.000Z</time>
      </trkpt>
      <trkpt lat="45.56318" lon="6.58551">
        <ele>1736.8000488281</ele>
        <time>2014-01-31T14:03:53.000Z</time>
      </trkpt>
      <trkpt lat="45.56318" lon="6.58551">
        <ele>1737</ele>
        <time>2014-01-31T14:03:54.000Z</time>
      </trkpt>
      <trkpt lat="45.56318" lon="6.58551">
        <ele>1737</ele>
        <time>2014-01-31T14:03:55.000Z</time>
      </trkpt>
      <trkpt lat="45.56318" lon="6.58551">
        <ele>1737</ele>
        <time>2014-01-31T14:03:56.000Z</time>
      </trkpt>
      <trkpt lat="45.56318" lon="6.58551">
        <ele>1736.8000488281</ele>
        <time>2014-01-31T14:03:57.000Z</time>
      </trkpt>
      <trkpt lat="45.56318" lon="6.58551">
        <ele>1736.8000488281</ele>
        <time>2014-01-31T14:03:58.000Z</time>
      </trkpt>
      <trkpt lat="45.56318" lon="6.58551">
        <ele>1736.8000488281</ele>
        <time>2014-01-31T14:03:59.000Z</time>
      </trkpt>
      <trkpt lat="45.56318" lon="6.58551">
        <ele>1736.8000488281</ele>
        <time>2014-01-31T14:04:00.000Z</time>
      </trkpt>
      <trkpt lat="45.56318" lon="6.58551">
        <ele>1736.8000488281</ele>
        <time>2014-01-31T14:04:01.000Z</time>
      </trkpt>
      <trkpt lat="45.56318" lon="6.58551">
        <ele>1736.8000488281</ele>
        <time>2014-01-31T14:04:02.000Z</time>
      </trkpt>
      <trkpt lat="45.56318" lon="6.58551">
        <ele>1736.8000488281</ele>
        <time>2014-01-31T14:04:04.000Z</time>
      </trkpt>
      <trkpt lat="45.56318" lon="6.58551">
        <ele>1736.8000488281</ele>
        <time>2014-01-31T14:04:08.000Z</time>
      </trkpt>
      <trkpt lat="45.56318" lon="6.58551">
        <ele>1736.8000488281</ele>
        <time>2014-01-31T14:04:09.000Z</time>
      </trkpt>
      <trkpt lat="45.56318" lon="6.58551">
        <ele>1736.8000488281</ele>
        <time>2014-01-31T14:04:10.000Z</time>
      </trkpt>
      <trkpt lat="45.56318" lon="6.58551">
        <ele>1736.8000488281</ele>
        <time>2014-01-31T14:04:11.000Z</time>
      </trkpt>
      <trkpt lat="45.56318" lon="6.58551">
        <ele>1736.8000488281</ele>
        <time>2014-01-31T14:04:13.000Z</time>
      </trkpt>
      <trkpt lat="45.56318" lon="6.58551">
        <ele>1736.8000488281</ele>
        <time>2014-01-31T14:04:14.000Z</time>
      </trkpt>
      <trkpt lat="45.56318" lon="6.58551">
        <ele>1736.8000488281</ele>
        <time>2014-01-31T14:04:15.000Z</time>
      </trkpt>
      <trkpt lat="45.56318" lon="6.58551">
        <ele>1736.8000488281</ele>
        <time>2014-01-31T14:04:18.000Z</time>
      </trkpt>
      <trkpt lat="45.56324" lon="6.58537">
        <ele>1736.5999755859</ele>
        <time>2014-01-31T14:04:19.000Z</time>
      </trkpt>
      <trkpt lat="45.56324" lon="6.58537">
        <ele>1736.5999755859</ele>
        <time>2014-01-31T14:04:20.000Z</time>
      </trkpt>
      <trkpt lat="45.56324" lon="6.58537">
        <ele>1736.5999755859</ele>
        <time>2014-01-31T14:04:21.000Z</time>
      </trkpt>
      <trkpt lat="45.56324" lon="6.58537">
        <ele>1736.5999755859</ele>
        <time>2014-01-31T14:04:22.000Z</time>
      </trkpt>
      <trkpt lat="45.56324" lon="6.58537">
        <ele>1736.5999755859</ele>
        <time>2014-01-31T14:04:23.000Z</time>
      </trkpt>
      <trkpt lat="45.56324" lon="6.58537">
        <ele>1736.5999755859</ele>
        <time>2014-01-31T14:04:24.000Z</time>
      </trkpt>
      <trkpt lat="45.56324" lon="6.58538">
        <ele>1736.5999755859</ele>
        <time>2014-01-31T14:04:25.000Z</time>
      </trkpt>
      <trkpt lat="45.56333" lon="6.58529">
        <ele>1736.5999755859</ele>
        <time>2014-01-31T14:04:26.000Z</time>
      </trkpt>
      <trkpt lat="45.56333" lon="6.58529">
        <ele>1736.5999755859</ele>
        <time>2014-01-31T14:04:27.000Z</time>
      </trkpt>
      <trkpt lat="45.56333" lon="6.58529">
        <ele>1736.4000244141</ele>
        <time>2014-01-31T14:04:28.000Z</time>
      </trkpt>
      <trkpt lat="45.56333" lon="6.58529">
        <ele>1736.4000244141</ele>
        <time>2014-01-31T14:04:29.000Z</time>
      </trkpt>
      <trkpt lat="45.56333" lon="6.58529">
        <ele>1736.4000244141</ele>
        <time>2014-01-31T14:04:30.000Z</time>
      </trkpt>
      <trkpt lat="45.56333" lon="6.58529">
        <ele>1736.5999755859</ele>
        <time>2014-01-31T14:04:31.000Z</time>
      </trkpt>
      <trkpt lat="45.56333" lon="6.5853">
        <ele>1736.4000244141</ele>
        <time>2014-01-31T14:04:32.000Z</time>
      </trkpt>
      <trkpt lat="45.56336" lon="6.58531">
        <ele>1736.4000244141</ele>
        <time>2014-01-31T14:04:33.000Z</time>
      </trkpt>
      <trkpt lat="45.56338" lon="6.58532">
        <ele>1736.4000244141</ele>
        <time>2014-01-31T14:04:34.000Z</time>
      </trkpt>
      <trkpt lat="45.5634" lon="6.58534">
        <ele>1736.4000244141</ele>
        <time>2014-01-31T14:04:35.000Z</time>
      </trkpt>
      <trkpt lat="45.56342" lon="6.58537">
        <ele>1736.4000244141</ele>
        <time>2014-01-31T14:04:36.000Z</time>
      </trkpt>
      <trkpt lat="45.56345" lon="6.58541">
        <ele>1736.1999511719</ele>
        <time>2014-01-31T14:04:37.000Z</time>
      </trkpt>
      <trkpt lat="45.56348" lon="6.58544">
        <ele>1736</ele>
        <time>2014-01-31T14:04:38.000Z</time>
      </trkpt>
      <trkpt lat="45.56351" lon="6.58547">
        <ele>1735.8000488281</ele>
        <time>2014-01-31T14:04:39.000Z</time>
      </trkpt>
      <trkpt lat="45.56355" lon="6.5855">
        <ele>1735.5999755859</ele>
        <time>2014-01-31T14:04:40.000Z</time>
      </trkpt>
      <trkpt lat="45.56358" lon="6.58554">
        <ele>1735.1999511719</ele>
        <time>2014-01-31T14:04:41.000Z</time>
      </trkpt>
      <trkpt lat="45.56363" lon="6.58559">
        <ele>1735</ele>
        <time>2014-01-31T14:04:42.000Z</time>
      </trkpt>
      <trkpt lat="45.56367" lon="6.58564">
        <ele>1734.8000488281</ele>
        <time>2014-01-31T14:04:43.000Z</time>
      </trkpt>
      <trkpt lat="45.56371" lon="6.58569">
        <ele>1734.4000244141</ele>
        <time>2014-01-31T14:04:44.000Z</time>
      </trkpt>
      <trkpt lat="45.56376" lon="6.58575">
        <ele>1734</ele>
        <time>2014-01-31T14:04:45.000Z</time>
      </trkpt>
      <trkpt lat="45.5638" lon="6.58581">
        <ele>1733.5999755859</ele>
        <time>2014-01-31T14:04:46.000Z</time>
      </trkpt>
      <trkpt lat="45.56385" lon="6.58587">
        <ele>1733</ele>
        <time>2014-01-31T14:04:47.000Z</time>
      </trkpt>
      <trkpt lat="45.56389" lon="6.58593">
        <ele>1732.4000244141</ele>
        <time>2014-01-31T14:04:48.000Z</time>
      </trkpt>
      <trkpt lat="45.56393" lon="6.586">
        <ele>1732</ele>
        <time>2014-01-31T14:04:49.000Z</time>
      </trkpt>
      <trkpt lat="45.56398" lon="6.58606">
        <ele>1731.5999755859</ele>
        <time>2014-01-31T14:04:50.000Z</time>
      </trkpt>
      <trkpt lat="45.56403" lon="6.58613">
        <ele>1731</ele>
        <time>2014-01-31T14:04:51.000Z</time>
      </trkpt>
      <trkpt lat="45.56408" lon="6.5862">
        <ele>1730.4000244141</ele>
        <time>2014-01-31T14:04:52.000Z</time>
      </trkpt>
      <trkpt lat="45.56413" lon="6.58626">
        <ele>1729.5999755859</ele>
        <time>2014-01-31T14:04:53.000Z</time>
      </trkpt>
      <trkpt lat="45.56418" lon="6.58632">
        <ele>1728.8000488281</ele>
        <time>2014-01-31T14:04:54.000Z</time>
      </trkpt>
      <trkpt lat="45.56424" lon="6.58639">
        <ele>1727.8000488281</ele>
        <time>2014-01-31T14:04:55.000Z</time>
      </trkpt>
      <trkpt lat="45.56429" lon="6.58646">
        <ele>1727</ele>
        <time>2014-01-31T14:04:56.000Z</time>
      </trkpt>
      <trkpt lat="45.56435" lon="6.58652">
        <ele>1726.4000244141</ele>
        <time>2014-01-31T14:04:57.000Z</time>
      </trkpt>
      <trkpt lat="45.5644" lon="6.58658">
        <ele>1725.5999755859</ele>
        <time>2014-01-31T14:04:58.000Z</time>
      </trkpt>
      <trkpt lat="45.56444" lon="6.58665">
        <ele>1724.5999755859</ele>
        <time>2014-01-31T14:04:59.000Z</time>
      </trkpt>
      <trkpt lat="45.56448" lon="6.58672">
        <ele>1723.5999755859</ele>
        <time>2014-01-31T14:05:00.000Z</time>
      </trkpt>
      <trkpt lat="45.5645" lon="6.58679">
        <ele>1722.5999755859</ele>
        <time>2014-01-31T14:05:01.000Z</time>
      </trkpt>
      <trkpt lat="45.5645" lon="6.58685">
        <ele>1721.8000488281</ele>
        <time>2014-01-31T14:05:02.000Z</time>
      </trkpt>
      <trkpt lat="45.56448" lon="6.58693">
        <ele>1720.8000488281</ele>
        <time>2014-01-31T14:05:03.000Z</time>
      </trkpt>
      <trkpt lat="45.56446" lon="6.58698">
        <ele>1719.5999755859</ele>
        <time>2014-01-31T14:05:04.000Z</time>
      </trkpt>
      <trkpt lat="45.56445" lon="6.58701">
        <ele>1718.1999511719</ele>
        <time>2014-01-31T14:05:05.000Z</time>
      </trkpt>
      <trkpt lat="45.56444" lon="6.58702">
        <ele>1716.5999755859</ele>
        <time>2014-01-31T14:05:06.000Z</time>
      </trkpt>
      <trkpt lat="45.56444" lon="6.58704">
        <ele>1714.5999755859</ele>
        <time>2014-01-31T14:05:07.000Z</time>
      </trkpt>
      <trkpt lat="45.56444" lon="6.58704">
        <ele>1714</ele>
        <time>2014-01-31T14:05:08.000Z</time>
      </trkpt>
      <trkpt lat="45.56444" lon="6.58704">
        <ele>1713.5999755859</ele>
        <time>2014-01-31T14:05:09.000Z</time>
      </trkpt>
      <trkpt lat="45.56444" lon="6.58704">
        <ele>1713.4000244141</ele>
        <time>2014-01-31T14:05:10.000Z</time>
      </trkpt>
      <trkpt lat="45.56444" lon="6.58704">
        <ele>1713.4000244141</ele>
        <time>2014-01-31T14:05:11.000Z</time>
      </trkpt>
      <trkpt lat="45.56444" lon="6.58704">
        <ele>1713.1999511719</ele>
        <time>2014-01-31T14:05:12.000Z</time>
      </trkpt>
      <trkpt lat="45.56444" lon="6.58704">
        <ele>1713.1999511719</ele>
        <time>2014-01-31T14:05:13.000Z</time>
      </trkpt>
      <trkpt lat="45.56444" lon="6.58704">
        <ele>1713.1999511719</ele>
        <time>2014-01-31T14:05:14.000Z</time>
      </trkpt>
      <trkpt lat="45.56444" lon="6.58704">
        <ele>1713</ele>
        <time>2014-01-31T14:05:15.000Z</time>
      </trkpt>
      <trkpt lat="45.56444" lon="6.58704">
        <ele>1713</ele>
        <time>2014-01-31T14:05:16.000Z</time>
      </trkpt>
      <trkpt lat="45.56444" lon="6.58704">
        <ele>1713</ele>
        <time>2014-01-31T14:05:17.000Z</time>
      </trkpt>
      <trkpt lat="45.56444" lon="6.58704">
        <ele>1713</ele>
        <time>2014-01-31T14:05:18.000Z</time>
      </trkpt>
      <trkpt lat="45.56444" lon="6.58704">
        <ele>1713</ele>
        <time>2014-01-31T14:05:19.000Z</time>
      </trkpt>
      <trkpt lat="45.56444" lon="6.58704">
        <ele>1713</ele>
        <time>2014-01-31T14:05:20.000Z</time>
      </trkpt>
      <trkpt lat="45.56444" lon="6.58704">
        <ele>1713</ele>
        <time>2014-01-31T14:05:21.000Z</time>
      </trkpt>
      <trkpt lat="45.56444" lon="6.58704">
        <ele>1713</ele>
        <time>2014-01-31T14:05:22.000Z</time>
      </trkpt>
      <trkpt lat="45.56442" lon="6.58707">
        <ele>1712.8000488281</ele>
        <time>2014-01-31T14:05:23.000Z</time>
      </trkpt>
      <trkpt lat="45.56441" lon="6.5871">
        <ele>1712.8000488281</ele>
        <time>2014-01-31T14:05:24.000Z</time>
      </trkpt>
      <trkpt lat="45.56439" lon="6.58712">
        <ele>1712.8000488281</ele>
        <time>2014-01-31T14:05:25.000Z</time>
      </trkpt>
      <trkpt lat="45.56437" lon="6.58714">
        <ele>1712.8000488281</ele>
        <time>2014-01-31T14:05:26.000Z</time>
      </trkpt>
      <trkpt lat="45.56435" lon="6.58716">
        <ele>1712.8000488281</ele>
        <time>2014-01-31T14:05:27.000Z</time>
      </trkpt>
      <trkpt lat="45.56434" lon="6.58718">
        <ele>1712.5999755859</ele>
        <time>2014-01-31T14:05:28.000Z</time>
      </trkpt>
      <trkpt lat="45.56433" lon="6.58719">
        <ele>1712.5999755859</ele>
        <time>2014-01-31T14:05:29.000Z</time>
      </trkpt>
      <trkpt lat="45.56432" lon="6.5872">
        <ele>1712.4000244141</ele>
        <time>2014-01-31T14:05:30.000Z</time>
      </trkpt>
      <trkpt lat="45.56432" lon="6.5872">
        <ele>1711.8000488281</ele>
        <time>2014-01-31T14:05:31.000Z</time>
      </trkpt>
      <trkpt lat="45.56432" lon="6.5872">
        <ele>1711.5999755859</ele>
        <time>2014-01-31T14:05:32.000Z</time>
      </trkpt>
      <trkpt lat="45.56432" lon="6.5872">
        <ele>1711.4000244141</ele>
        <time>2014-01-31T14:05:33.000Z</time>
      </trkpt>
      <trkpt lat="45.56432" lon="6.5872">
        <ele>1711.4000244141</ele>
        <time>2014-01-31T14:05:34.000Z</time>
      </trkpt>
      <trkpt lat="45.56432" lon="6.5872">
        <ele>1711.4000244141</ele>
        <time>2014-01-31T14:05:35.000Z</time>
      </trkpt>
      <trkpt lat="45.56432" lon="6.5872">
        <ele>1711.4000244141</ele>
        <time>2014-01-31T14:05:36.000Z</time>
      </trkpt>
      <trkpt lat="45.56432" lon="6.5872">
        <ele>1711.4000244141</ele>
        <time>2014-01-31T14:05:37.000Z</time>
      </trkpt>
      <trkpt lat="45.56432" lon="6.5872">
        <ele>1711.4000244141</ele>
        <time>2014-01-31T14:05:38.000Z</time>
      </trkpt>
      <trkpt lat="45.56432" lon="6.5872">
        <ele>1711.4000244141</ele>
        <time>2014-01-31T14:05:40.000Z</time>
      </trkpt>
      <trkpt lat="45.56432" lon="6.5872">
        <ele>1711.4000244141</ele>
        <time>2014-01-31T14:05:41.000Z</time>
      </trkpt>
      <trkpt lat="45.56432" lon="6.5872">
        <ele>1711.4000244141</ele>
        <time>2014-01-31T14:05:42.000Z</time>
      </trkpt>
      <trkpt lat="45.56431" lon="6.58721">
        <ele>1711.4000244141</ele>
        <time>2014-01-31T14:05:43.000Z</time>
      </trkpt>
      <trkpt lat="45.56429" lon="6.58723">
        <ele>1711.4000244141</ele>
        <time>2014-01-31T14:05:44.000Z</time>
      </trkpt>
      <trkpt lat="45.56427" lon="6.58725">
        <ele>1711.1999511719</ele>
        <time>2014-01-31T14:05:45.000Z</time>
      </trkpt>
      <trkpt lat="45.56425" lon="6.58727">
        <ele>1711.1999511719</ele>
        <time>2014-01-31T14:05:46.000Z</time>
      </trkpt>
      <trkpt lat="45.56422" lon="6.5873">
        <ele>1711.1999511719</ele>
        <time>2014-01-31T14:05:47.000Z</time>
      </trkpt>
      <trkpt lat="45.5642" lon="6.58733">
        <ele>1711</ele>
        <time>2014-01-31T14:05:48.000Z</time>
      </trkpt>
      <trkpt lat="45.56416" lon="6.58736">
        <ele>1711</ele>
        <time>2014-01-31T14:05:49.000Z</time>
      </trkpt>
      <trkpt lat="45.56412" lon="6.58739">
        <ele>1710.5999755859</ele>
        <time>2014-01-31T14:05:50.000Z</time>
      </trkpt>
      <trkpt lat="45.56406" lon="6.58742">
        <ele>1710.1999511719</ele>
        <time>2014-01-31T14:05:51.000Z</time>
      </trkpt>
      <trkpt lat="45.564" lon="6.58745">
        <ele>1710</ele>
        <time>2014-01-31T14:05:52.000Z</time>
      </trkpt>
      <trkpt lat="45.56394" lon="6.58748">
        <ele>1709.8000488281</ele>
        <time>2014-01-31T14:05:53.000Z</time>
      </trkpt>
      <trkpt lat="45.56388" lon="6.5875">
        <ele>1709.4000244141</ele>
        <time>2014-01-31T14:05:54.000Z</time>
      </trkpt>
      <trkpt lat="45.56384" lon="6.58754">
        <ele>1708.4000244141</ele>
        <time>2014-01-31T14:05:55.000Z</time>
      </trkpt>
      <trkpt lat="45.5638" lon="6.5876">
        <ele>1708</ele>
        <time>2014-01-31T14:05:56.000Z</time>
      </trkpt>
      <trkpt lat="45.56374" lon="6.58765">
        <ele>1707.8000488281</ele>
        <time>2014-01-31T14:05:57.000Z</time>
      </trkpt>
      <trkpt lat="45.56368" lon="6.58767">
        <ele>1707.1999511719</ele>
        <time>2014-01-31T14:05:58.000Z</time>
      </trkpt>
      <trkpt lat="45.56362" lon="6.58769">
        <ele>1706.5999755859</ele>
        <time>2014-01-31T14:05:59.000Z</time>
      </trkpt>
      <trkpt lat="45.56359" lon="6.5877">
        <ele>1706</ele>
        <time>2014-01-31T14:06:00.000Z</time>
      </trkpt>
      <trkpt lat="45.56357" lon="6.58768">
        <ele>1705</ele>
        <time>2014-01-31T14:06:01.000Z</time>
      </trkpt>
      <trkpt lat="45.56356" lon="6.58767">
        <ele>1704</ele>
        <time>2014-01-31T14:06:02.000Z</time>
      </trkpt>
      <trkpt lat="45.56355" lon="6.58767">
        <ele>1702.8000488281</ele>
        <time>2014-01-31T14:06:03.000Z</time>
      </trkpt>
      <trkpt lat="45.56355" lon="6.58766">
        <ele>1701.8000488281</ele>
        <time>2014-01-31T14:06:04.000Z</time>
      </trkpt>
      <trkpt lat="45.56355" lon="6.58766">
        <ele>1701</ele>
        <time>2014-01-31T14:06:05.000Z</time>
      </trkpt>
      <trkpt lat="45.56355" lon="6.58766">
        <ele>1700.4000244141</ele>
        <time>2014-01-31T14:06:06.000Z</time>
      </trkpt>
      <trkpt lat="45.56355" lon="6.58766">
        <ele>1700.1999511719</ele>
        <time>2014-01-31T14:06:07.000Z</time>
      </trkpt>
      <trkpt lat="45.56355" lon="6.58766">
        <ele>1700</ele>
        <time>2014-01-31T14:06:08.000Z</time>
      </trkpt>
      <trkpt lat="45.56355" lon="6.58766">
        <ele>1699.8000488281</ele>
        <time>2014-01-31T14:06:09.000Z</time>
      </trkpt>
      <trkpt lat="45.56355" lon="6.58766">
        <ele>1699.8000488281</ele>
        <time>2014-01-31T14:06:10.000Z</time>
      </trkpt>
      <trkpt lat="45.56355" lon="6.58766">
        <ele>1699.5999755859</ele>
        <time>2014-01-31T14:06:11.000Z</time>
      </trkpt>
      <trkpt lat="45.56355" lon="6.58765">
        <ele>1699.5999755859</ele>
        <time>2014-01-31T14:06:12.000Z</time>
      </trkpt>
      <trkpt lat="45.56355" lon="6.5876">
        <ele>1699.4000244141</ele>
        <time>2014-01-31T14:06:13.000Z</time>
      </trkpt>
      <trkpt lat="45.56356" lon="6.5875">
        <ele>1699.4000244141</ele>
        <time>2014-01-31T14:06:14.000Z</time>
      </trkpt>
      <trkpt lat="45.56357" lon="6.58743">
        <ele>1699.4000244141</ele>
        <time>2014-01-31T14:06:15.000Z</time>
      </trkpt>
      <trkpt lat="45.56353" lon="6.5874">
        <ele>1699.1999511719</ele>
        <time>2014-01-31T14:06:16.000Z</time>
      </trkpt>
      <trkpt lat="45.56347" lon="6.58738">
        <ele>1698.8000488281</ele>
        <time>2014-01-31T14:06:17.000Z</time>
      </trkpt>
      <trkpt lat="45.56343" lon="6.5873">
        <ele>1697.8000488281</ele>
        <time>2014-01-31T14:06:18.000Z</time>
      </trkpt>
      <trkpt lat="45.56341" lon="6.58721">
        <ele>1694</ele>
        <time>2014-01-31T14:06:19.000Z</time>
      </trkpt>
      <trkpt lat="45.56338" lon="6.58714">
        <ele>1691.5999755859</ele>
        <time>2014-01-31T14:06:20.000Z</time>
      </trkpt>
      <trkpt lat="45.56333" lon="6.58708">
        <ele>1689.1999511719</ele>
        <time>2014-01-31T14:06:21.000Z</time>
      </trkpt>
      <trkpt lat="45.56331" lon="6.58698">
        <ele>1687.1999511719</ele>
        <time>2014-01-31T14:06:22.000Z</time>
      </trkpt>
      <trkpt lat="45.56327" lon="6.58689">
        <ele>1685.1999511719</ele>
        <time>2014-01-31T14:06:23.000Z</time>
      </trkpt>
      <trkpt lat="45.56326" lon="6.58681">
        <ele>1682.8000488281</ele>
        <time>2014-01-31T14:06:24.000Z</time>
      </trkpt>
      <trkpt lat="45.56324" lon="6.58677">
        <ele>1680.5999755859</ele>
        <time>2014-01-31T14:06:25.000Z</time>
      </trkpt>
      <trkpt lat="45.56322" lon="6.58673">
        <ele>1678.8000488281</ele>
        <time>2014-01-31T14:06:26.000Z</time>
      </trkpt>
      <trkpt lat="45.56317" lon="6.58672">
        <ele>1676.8000488281</ele>
        <time>2014-01-31T14:06:27.000Z</time>
      </trkpt>
      <trkpt lat="45.56314" lon="6.5867">
        <ele>1674.8000488281</ele>
        <time>2014-01-31T14:06:28.000Z</time>
      </trkpt>
      <trkpt lat="45.56312" lon="6.58671">
        <ele>1672.8000488281</ele>
        <time>2014-01-31T14:06:29.000Z</time>
      </trkpt>
      <trkpt lat="45.5631" lon="6.58672">
        <ele>1671.1999511719</ele>
        <time>2014-01-31T14:06:30.000Z</time>
      </trkpt>
      <trkpt lat="45.56307" lon="6.58677">
        <ele>1669.8000488281</ele>
        <time>2014-01-31T14:06:31.000Z</time>
      </trkpt>
      <trkpt lat="45.56307" lon="6.5868">
        <ele>1668.4000244141</ele>
        <time>2014-01-31T14:06:32.000Z</time>
      </trkpt>
      <trkpt lat="45.56307" lon="6.5868">
        <ele>1667</ele>
        <time>2014-01-31T14:06:33.000Z</time>
      </trkpt>
      <trkpt lat="45.56307" lon="6.5868">
        <ele>1665.5999755859</ele>
        <time>2014-01-31T14:06:34.000Z</time>
      </trkpt>
      <trkpt lat="45.56306" lon="6.5868">
        <ele>1664.5999755859</ele>
        <time>2014-01-31T14:06:35.000Z</time>
      </trkpt>
      <trkpt lat="45.56303" lon="6.58684">
        <ele>1663.8000488281</ele>
        <time>2014-01-31T14:06:36.000Z</time>
      </trkpt>
      <trkpt lat="45.56302" lon="6.58686">
        <ele>1663.4000244141</ele>
        <time>2014-01-31T14:06:37.000Z</time>
      </trkpt>
      <trkpt lat="45.56302" lon="6.58686">
        <ele>1663.1999511719</ele>
        <time>2014-01-31T14:06:38.000Z</time>
      </trkpt>
      <trkpt lat="45.56302" lon="6.58686">
        <ele>1663</ele>
        <time>2014-01-31T14:06:39.000Z</time>
      </trkpt>
      <trkpt lat="45.56301" lon="6.58686">
        <ele>1662.5999755859</ele>
        <time>2014-01-31T14:06:40.000Z</time>
      </trkpt>
      <trkpt lat="45.56298" lon="6.58687">
        <ele>1662</ele>
        <time>2014-01-31T14:06:41.000Z</time>
      </trkpt>
      <trkpt lat="45.56295" lon="6.58687">
        <ele>1661.5999755859</ele>
        <time>2014-01-31T14:06:42.000Z</time>
      </trkpt>
      <trkpt lat="45.56293" lon="6.58682">
        <ele>1661.1999511719</ele>
        <time>2014-01-31T14:06:43.000Z</time>
      </trkpt>
      <trkpt lat="45.5629" lon="6.58679">
        <ele>1660.8000488281</ele>
        <time>2014-01-31T14:06:44.000Z</time>
      </trkpt>
      <trkpt lat="45.56285" lon="6.58679">
        <ele>1660.4000244141</ele>
        <time>2014-01-31T14:06:45.000Z</time>
      </trkpt>
      <trkpt lat="45.5628" lon="6.58675">
        <ele>1659.8000488281</ele>
        <time>2014-01-31T14:06:46.000Z</time>
      </trkpt>
      <trkpt lat="45.56277" lon="6.58668">
        <ele>1659</ele>
        <time>2014-01-31T14:06:47.000Z</time>
      </trkpt>
      <trkpt lat="45.56276" lon="6.58661">
        <ele>1657.5999755859</ele>
        <time>2014-01-31T14:06:48.000Z</time>
      </trkpt>
      <trkpt lat="45.56274" lon="6.58651">
        <ele>1656.1999511719</ele>
        <time>2014-01-31T14:06:49.000Z</time>
      </trkpt>
      <trkpt lat="45.56272" lon="6.5864">
        <ele>1655.1999511719</ele>
        <time>2014-01-31T14:06:50.000Z</time>
      </trkpt>
      <trkpt lat="45.56269" lon="6.58631">
        <ele>1654.1999511719</ele>
        <time>2014-01-31T14:06:51.000Z</time>
      </trkpt>
      <trkpt lat="45.56265" lon="6.58625">
        <ele>1653</ele>
        <time>2014-01-31T14:06:52.000Z</time>
      </trkpt>
      <trkpt lat="45.56263" lon="6.58621">
        <ele>1652</ele>
        <time>2014-01-31T14:06:53.000Z</time>
      </trkpt>
      <trkpt lat="45.56262" lon="6.58621">
        <ele>1650.8000488281</ele>
        <time>2014-01-31T14:06:54.000Z</time>
      </trkpt>
      <trkpt lat="45.56259" lon="6.58622">
        <ele>1649.1999511719</ele>
        <time>2014-01-31T14:06:55.000Z</time>
      </trkpt>
      <trkpt lat="45.56257" lon="6.58624">
        <ele>1647.5999755859</ele>
        <time>2014-01-31T14:06:56.000Z</time>
      </trkpt>
      <trkpt lat="45.56255" lon="6.58625">
        <ele>1646.1999511719</ele>
        <time>2014-01-31T14:06:57.000Z</time>
      </trkpt>
      <trkpt lat="45.56254" lon="6.58625">
        <ele>1645</ele>
        <time>2014-01-31T14:06:58.000Z</time>
      </trkpt>
      <trkpt lat="45.56253" lon="6.58625">
        <ele>1644.1999511719</ele>
        <time>2014-01-31T14:06:59.000Z</time>
      </trkpt>
      <trkpt lat="45.56251" lon="6.58624">
        <ele>1643.8000488281</ele>
        <time>2014-01-31T14:07:00.000Z</time>
      </trkpt>
      <trkpt lat="45.56249" lon="6.58623">
        <ele>1643.5999755859</ele>
        <time>2014-01-31T14:07:01.000Z</time>
      </trkpt>
      <trkpt lat="45.56244" lon="6.58621">
        <ele>1643.4000244141</ele>
        <time>2014-01-31T14:07:02.000Z</time>
      </trkpt>
      <trkpt lat="45.56239" lon="6.58616">
        <ele>1643.1999511719</ele>
        <time>2014-01-31T14:07:03.000Z</time>
      </trkpt>
      <trkpt lat="45.56233" lon="6.58612">
        <ele>1643</ele>
        <time>2014-01-31T14:07:04.000Z</time>
      </trkpt>
      <trkpt lat="45.56228" lon="6.58606">
        <ele>1642.5999755859</ele>
        <time>2014-01-31T14:07:05.000Z</time>
      </trkpt>
      <trkpt lat="45.56224" lon="6.58603">
        <ele>1641.8000488281</ele>
        <time>2014-01-31T14:07:06.000Z</time>
      </trkpt>
      <trkpt lat="45.56223" lon="6.58602">
        <ele>1639.5999755859</ele>
        <time>2014-01-31T14:07:07.000Z</time>
      </trkpt>
      <trkpt lat="45.56219" lon="6.58604">
        <ele>1638.5999755859</ele>
        <time>2014-01-31T14:07:08.000Z</time>
      </trkpt>
      <trkpt lat="45.56216" lon="6.58603">
        <ele>1637.4000244141</ele>
        <time>2014-01-31T14:07:09.000Z</time>
      </trkpt>
      <trkpt lat="45.56212" lon="6.58603">
        <ele>1636.1999511719</ele>
        <time>2014-01-31T14:07:10.000Z</time>
      </trkpt>
      <trkpt lat="45.56211" lon="6.58606">
        <ele>1635.1999511719</ele>
        <time>2014-01-31T14:07:11.000Z</time>
      </trkpt>
      <trkpt lat="45.56209" lon="6.58609">
        <ele>1634.1999511719</ele>
        <time>2014-01-31T14:07:12.000Z</time>
      </trkpt>
      <trkpt lat="45.56208" lon="6.58612">
        <ele>1633.5999755859</ele>
        <time>2014-01-31T14:07:13.000Z</time>
      </trkpt>
      <trkpt lat="45.56206" lon="6.58614">
        <ele>1632.5999755859</ele>
        <time>2014-01-31T14:07:14.000Z</time>
      </trkpt>
      <trkpt lat="45.562" lon="6.58616">
        <ele>1631.4000244141</ele>
        <time>2014-01-31T14:07:15.000Z</time>
      </trkpt>
      <trkpt lat="45.56194" lon="6.58621">
        <ele>1630.1999511719</ele>
        <time>2014-01-31T14:07:16.000Z</time>
      </trkpt>
      <trkpt lat="45.56189" lon="6.58626">
        <ele>1629</ele>
        <time>2014-01-31T14:07:17.000Z</time>
      </trkpt>
      <trkpt lat="45.56186" lon="6.5863">
        <ele>1628</ele>
        <time>2014-01-31T14:07:18.000Z</time>
      </trkpt>
      <trkpt lat="45.56182" lon="6.58633">
        <ele>1626.8000488281</ele>
        <time>2014-01-31T14:07:19.000Z</time>
      </trkpt>
      <trkpt lat="45.56178" lon="6.58635">
        <ele>1625.4000244141</ele>
        <time>2014-01-31T14:07:20.000Z</time>
      </trkpt>
      <trkpt lat="45.56176" lon="6.58633">
        <ele>1624.1999511719</ele>
        <time>2014-01-31T14:07:21.000Z</time>
      </trkpt>
      <trkpt lat="45.56173" lon="6.58629">
        <ele>1623.5999755859</ele>
        <time>2014-01-31T14:07:22.000Z</time>
      </trkpt>
      <trkpt lat="45.5617" lon="6.58627">
        <ele>1623</ele>
        <time>2014-01-31T14:07:23.000Z</time>
      </trkpt>
      <trkpt lat="45.56168" lon="6.58626">
        <ele>1622.4000244141</ele>
        <time>2014-01-31T14:07:24.000Z</time>
      </trkpt>
      <trkpt lat="45.56166" lon="6.58626">
        <ele>1621.5999755859</ele>
        <time>2014-01-31T14:07:25.000Z</time>
      </trkpt>
      <trkpt lat="45.56163" lon="6.58625">
        <ele>1620.8000488281</ele>
        <time>2014-01-31T14:07:26.000Z</time>
      </trkpt>
      <trkpt lat="45.56158" lon="6.58628">
        <ele>1620.1999511719</ele>
        <time>2014-01-31T14:07:27.000Z</time>
      </trkpt>
      <trkpt lat="45.56154" lon="6.58627">
        <ele>1619.4000244141</ele>
        <time>2014-01-31T14:07:28.000Z</time>
      </trkpt>
      <trkpt lat="45.56152" lon="6.58623">
        <ele>1618.8000488281</ele>
        <time>2014-01-31T14:07:29.000Z</time>
      </trkpt>
      <trkpt lat="45.5615" lon="6.58616">
        <ele>1618.4000244141</ele>
        <time>2014-01-31T14:07:30.000Z</time>
      </trkpt>
      <trkpt lat="45.56149" lon="6.5861">
        <ele>1617.8000488281</ele>
        <time>2014-01-31T14:07:31.000Z</time>
      </trkpt>
      <trkpt lat="45.56145" lon="6.58601">
        <ele>1617</ele>
        <time>2014-01-31T14:07:32.000Z</time>
      </trkpt>
      <trkpt lat="45.56143" lon="6.58595">
        <ele>1616.1999511719</ele>
        <time>2014-01-31T14:07:33.000Z</time>
      </trkpt>
      <trkpt lat="45.56142" lon="6.58592">
        <ele>1615.4000244141</ele>
        <time>2014-01-31T14:07:34.000Z</time>
      </trkpt>
      <trkpt lat="45.56139" lon="6.58592">
        <ele>1614.1999511719</ele>
        <time>2014-01-31T14:07:35.000Z</time>
      </trkpt>
      <trkpt lat="45.56136" lon="6.5859">
        <ele>1612.8000488281</ele>
        <time>2014-01-31T14:07:36.000Z</time>
      </trkpt>
      <trkpt lat="45.56132" lon="6.58591">
        <ele>1611.5999755859</ele>
        <time>2014-01-31T14:07:37.000Z</time>
      </trkpt>
      <trkpt lat="45.56128" lon="6.58592">
        <ele>1610.4000244141</ele>
        <time>2014-01-31T14:07:38.000Z</time>
      </trkpt>
      <trkpt lat="45.56124" lon="6.58593">
        <ele>1609.5999755859</ele>
        <time>2014-01-31T14:07:39.000Z</time>
      </trkpt>
      <trkpt lat="45.5612" lon="6.58594">
        <ele>1608.8000488281</ele>
        <time>2014-01-31T14:07:40.000Z</time>
      </trkpt>
      <trkpt lat="45.56111" lon="6.58598">
        <ele>1608</ele>
        <time>2014-01-31T14:07:41.000Z</time>
      </trkpt>
      <trkpt lat="45.56104" lon="6.58607">
        <ele>1607.4000244141</ele>
        <time>2014-01-31T14:07:42.000Z</time>
      </trkpt>
      <trkpt lat="45.56097" lon="6.58615">
        <ele>1606.8000488281</ele>
        <time>2014-01-31T14:07:43.000Z</time>
      </trkpt>
      <trkpt lat="45.5609" lon="6.58621">
        <ele>1606.4000244141</ele>
        <time>2014-01-31T14:07:44.000Z</time>
      </trkpt>
      <trkpt lat="45.56086" lon="6.58625">
        <ele>1605.8000488281</ele>
        <time>2014-01-31T14:07:45.000Z</time>
      </trkpt>
      <trkpt lat="45.56081" lon="6.58633">
        <ele>1605.4000244141</ele>
        <time>2014-01-31T14:07:46.000Z</time>
      </trkpt>
      <trkpt lat="45.56076" lon="6.5864">
        <ele>1604.8000488281</ele>
        <time>2014-01-31T14:07:47.000Z</time>
      </trkpt>
      <trkpt lat="45.5607" lon="6.58649">
        <ele>1604.1999511719</ele>
        <time>2014-01-31T14:07:48.000Z</time>
      </trkpt>
      <trkpt lat="45.56065" lon="6.58658">
        <ele>1603.5999755859</ele>
        <time>2014-01-31T14:07:49.000Z</time>
      </trkpt>
      <trkpt lat="45.5606" lon="6.58666">
        <ele>1603</ele>
        <time>2014-01-31T14:07:50.000Z</time>
      </trkpt>
      <trkpt lat="45.56056" lon="6.58674">
        <ele>1602.4000244141</ele>
        <time>2014-01-31T14:07:51.000Z</time>
      </trkpt>
      <trkpt lat="45.5605" lon="6.58683">
        <ele>1601.5999755859</ele>
        <time>2014-01-31T14:07:52.000Z</time>
      </trkpt>
      <trkpt lat="45.56043" lon="6.58691">
        <ele>1601</ele>
        <time>2014-01-31T14:07:53.000Z</time>
      </trkpt>
      <trkpt lat="45.56038" lon="6.587">
        <ele>1600.1999511719</ele>
        <time>2014-01-31T14:07:54.000Z</time>
      </trkpt>
      <trkpt lat="45.56032" lon="6.58707">
        <ele>1598.5999755859</ele>
        <time>2014-01-31T14:07:55.000Z</time>
      </trkpt>
      <trkpt lat="45.56027" lon="6.58714">
        <ele>1597.8000488281</ele>
        <time>2014-01-31T14:07:56.000Z</time>
      </trkpt>
      <trkpt lat="45.56022" lon="6.58721">
        <ele>1596.8000488281</ele>
        <time>2014-01-31T14:07:57.000Z</time>
      </trkpt>
      <trkpt lat="45.56018" lon="6.58726">
        <ele>1595.5999755859</ele>
        <time>2014-01-31T14:07:58.000Z</time>
      </trkpt>
      <trkpt lat="45.56015" lon="6.58731">
        <ele>1594.8000488281</ele>
        <time>2014-01-31T14:07:59.000Z</time>
      </trkpt>
      <trkpt lat="45.56012" lon="6.58734">
        <ele>1594.1999511719</ele>
        <time>2014-01-31T14:08:00.000Z</time>
      </trkpt>
      <trkpt lat="45.56009" lon="6.58737">
        <ele>1593.4000244141</ele>
        <time>2014-01-31T14:08:01.000Z</time>
      </trkpt>
      <trkpt lat="45.56007" lon="6.5874">
        <ele>1592.5999755859</ele>
        <time>2014-01-31T14:08:02.000Z</time>
      </trkpt>
      <trkpt lat="45.56005" lon="6.58742">
        <ele>1592</ele>
        <time>2014-01-31T14:08:03.000Z</time>
      </trkpt>
      <trkpt lat="45.56002" lon="6.58744">
        <ele>1591.5999755859</ele>
        <time>2014-01-31T14:08:04.000Z</time>
      </trkpt>
      <trkpt lat="45.56" lon="6.58746">
        <ele>1591.1999511719</ele>
        <time>2014-01-31T14:08:05.000Z</time>
      </trkpt>
      <trkpt lat="45.55997" lon="6.58748">
        <ele>1591</ele>
        <time>2014-01-31T14:08:06.000Z</time>
      </trkpt>
      <trkpt lat="45.55994" lon="6.5875">
        <ele>1590.8000488281</ele>
        <time>2014-01-31T14:08:07.000Z</time>
      </trkpt>
      <trkpt lat="45.55991" lon="6.58752">
        <ele>1590.5999755859</ele>
        <time>2014-01-31T14:08:08.000Z</time>
      </trkpt>
      <trkpt lat="45.55987" lon="6.58755">
        <ele>1590.4000244141</ele>
        <time>2014-01-31T14:08:09.000Z</time>
      </trkpt>
      <trkpt lat="45.55984" lon="6.58758">
        <ele>1590.4000244141</ele>
        <time>2014-01-31T14:08:10.000Z</time>
      </trkpt>
      <trkpt lat="45.55981" lon="6.58762">
        <ele>1590.4000244141</ele>
        <time>2014-01-31T14:08:11.000Z</time>
      </trkpt>
      <trkpt lat="45.55977" lon="6.58766">
        <ele>1590.1999511719</ele>
        <time>2014-01-31T14:08:12.000Z</time>
      </trkpt>
      <trkpt lat="45.55973" lon="6.5877">
        <ele>1590</ele>
        <time>2014-01-31T14:08:13.000Z</time>
      </trkpt>
      <trkpt lat="45.55969" lon="6.58773">
        <ele>1589.8000488281</ele>
        <time>2014-01-31T14:08:14.000Z</time>
      </trkpt>
      <trkpt lat="45.55965" lon="6.58776">
        <ele>1589.8000488281</ele>
        <time>2014-01-31T14:08:15.000Z</time>
      </trkpt>
      <trkpt lat="45.5596" lon="6.58782">
        <ele>1589.5999755859</ele>
        <time>2014-01-31T14:08:16.000Z</time>
      </trkpt>
      <trkpt lat="45.55955" lon="6.58787">
        <ele>1589.1999511719</ele>
        <time>2014-01-31T14:08:17.000Z</time>
      </trkpt>
      <trkpt lat="45.55949" lon="6.58792">
        <ele>1588.5999755859</ele>
        <time>2014-01-31T14:08:18.000Z</time>
      </trkpt>
      <trkpt lat="45.55945" lon="6.58796">
        <ele>1587.8000488281</ele>
        <time>2014-01-31T14:08:19.000Z</time>
      </trkpt>
      <trkpt lat="45.55939" lon="6.58802">
        <ele>1587.1999511719</ele>
        <time>2014-01-31T14:08:20.000Z</time>
      </trkpt>
      <trkpt lat="45.55934" lon="6.58807">
        <ele>1586.5999755859</ele>
        <time>2014-01-31T14:08:21.000Z</time>
      </trkpt>
      <trkpt lat="45.55928" lon="6.58813">
        <ele>1586</ele>
        <time>2014-01-31T14:08:22.000Z</time>
      </trkpt>
      <trkpt lat="45.55923" lon="6.58819">
        <ele>1585.1999511719</ele>
        <time>2014-01-31T14:08:23.000Z</time>
      </trkpt>
      <trkpt lat="45.55917" lon="6.58825">
        <ele>1584.5999755859</ele>
        <time>2014-01-31T14:08:24.000Z</time>
      </trkpt>
      <trkpt lat="45.55911" lon="6.5883">
        <ele>1583.8000488281</ele>
        <time>2014-01-31T14:08:25.000Z</time>
      </trkpt>
      <trkpt lat="45.55906" lon="6.58835">
        <ele>1582.8000488281</ele>
        <time>2014-01-31T14:08:26.000Z</time>
      </trkpt>
      <trkpt lat="45.55901" lon="6.5884">
        <ele>1582</ele>
        <time>2014-01-31T14:08:27.000Z</time>
      </trkpt>
      <trkpt lat="45.55895" lon="6.58846">
        <ele>1581</ele>
        <time>2014-01-31T14:08:28.000Z</time>
      </trkpt>
      <trkpt lat="45.55889" lon="6.58852">
        <ele>1580.1999511719</ele>
        <time>2014-01-31T14:08:29.000Z</time>
      </trkpt>
      <trkpt lat="45.55883" lon="6.58859">
        <ele>1579.5999755859</ele>
        <time>2014-01-31T14:08:30.000Z</time>
      </trkpt>
      <trkpt lat="45.5588" lon="6.58867">
        <ele>1579</ele>
        <time>2014-01-31T14:08:31.000Z</time>
      </trkpt>
      <trkpt lat="45.55878" lon="6.58875">
        <ele>1578.5999755859</ele>
        <time>2014-01-31T14:08:32.000Z</time>
      </trkpt>
      <trkpt lat="45.55876" lon="6.58883">
        <ele>1577.8000488281</ele>
        <time>2014-01-31T14:08:33.000Z</time>
      </trkpt>
      <trkpt lat="45.55873" lon="6.5889">
        <ele>1576.8000488281</ele>
        <time>2014-01-31T14:08:34.000Z</time>
      </trkpt>
      <trkpt lat="45.55869" lon="6.58897">
        <ele>1575.5999755859</ele>
        <time>2014-01-31T14:08:35.000Z</time>
      </trkpt>
      <trkpt lat="45.55864" lon="6.58904">
        <ele>1574.5999755859</ele>
        <time>2014-01-31T14:08:36.000Z</time>
      </trkpt>
      <trkpt lat="45.55859" lon="6.58909">
        <ele>1574</ele>
        <time>2014-01-31T14:08:37.000Z</time>
      </trkpt>
      <trkpt lat="45.55852" lon="6.58916">
        <ele>1573.5999755859</ele>
        <time>2014-01-31T14:08:38.000Z</time>
      </trkpt>
      <trkpt lat="45.55846" lon="6.5892">
        <ele>1573.1999511719</ele>
        <time>2014-01-31T14:08:39.000Z</time>
      </trkpt>
      <trkpt lat="45.55839" lon="6.58925">
        <ele>1573</ele>
        <time>2014-01-31T14:08:40.000Z</time>
      </trkpt>
      <trkpt lat="45.55833" lon="6.5893">
        <ele>1572.5999755859</ele>
        <time>2014-01-31T14:08:41.000Z</time>
      </trkpt>
      <trkpt lat="45.55826" lon="6.58935">
        <ele>1572</ele>
        <time>2014-01-31T14:08:42.000Z</time>
      </trkpt>
      <trkpt lat="45.55823" lon="6.58943">
        <ele>1570.1999511719</ele>
        <time>2014-01-31T14:08:43.000Z</time>
      </trkpt>
      <trkpt lat="45.55824" lon="6.58952">
        <ele>1569.4000244141</ele>
        <time>2014-01-31T14:08:44.000Z</time>
      </trkpt>
      <trkpt lat="45.55827" lon="6.58963">
        <ele>1568.4000244141</ele>
        <time>2014-01-31T14:08:45.000Z</time>
      </trkpt>
      <trkpt lat="45.5583" lon="6.58972">
        <ele>1567.4000244141</ele>
        <time>2014-01-31T14:08:46.000Z</time>
      </trkpt>
      <trkpt lat="45.55833" lon="6.5898">
        <ele>1566.4000244141</ele>
        <time>2014-01-31T14:08:47.000Z</time>
      </trkpt>
      <trkpt lat="45.55836" lon="6.58989">
        <ele>1565.1999511719</ele>
        <time>2014-01-31T14:08:48.000Z</time>
      </trkpt>
      <trkpt lat="45.5584" lon="6.58997">
        <ele>1564</ele>
        <time>2014-01-31T14:08:49.000Z</time>
      </trkpt>
      <trkpt lat="45.55845" lon="6.59004">
        <ele>1562.8000488281</ele>
        <time>2014-01-31T14:08:50.000Z</time>
      </trkpt>
      <trkpt lat="45.55849" lon="6.59013">
        <ele>1561.8000488281</ele>
        <time>2014-01-31T14:08:51.000Z</time>
      </trkpt>
      <trkpt lat="45.55854" lon="6.59021">
        <ele>1561.1999511719</ele>
        <time>2014-01-31T14:08:52.000Z</time>
      </trkpt>
      <trkpt lat="45.55858" lon="6.59028">
        <ele>1560.8000488281</ele>
        <time>2014-01-31T14:08:53.000Z</time>
      </trkpt>
      <trkpt lat="45.55863" lon="6.59034">
        <ele>1560.1999511719</ele>
        <time>2014-01-31T14:08:54.000Z</time>
      </trkpt>
      <trkpt lat="45.55868" lon="6.59041">
        <ele>1559.4000244141</ele>
        <time>2014-01-31T14:08:55.000Z</time>
      </trkpt>
      <trkpt lat="45.55871" lon="6.59048">
        <ele>1558.8000488281</ele>
        <time>2014-01-31T14:08:56.000Z</time>
      </trkpt>
      <trkpt lat="45.55874" lon="6.59056">
        <ele>1558.1999511719</ele>
        <time>2014-01-31T14:08:57.000Z</time>
      </trkpt>
      <trkpt lat="45.55877" lon="6.59064">
        <ele>1557.4000244141</ele>
        <time>2014-01-31T14:08:58.000Z</time>
      </trkpt>
      <trkpt lat="45.5588" lon="6.59072">
        <ele>1556.5999755859</ele>
        <time>2014-01-31T14:08:59.000Z</time>
      </trkpt>
      <trkpt lat="45.55882" lon="6.59081">
        <ele>1556</ele>
        <time>2014-01-31T14:09:00.000Z</time>
      </trkpt>
      <trkpt lat="45.55885" lon="6.5909">
        <ele>1555.4000244141</ele>
        <time>2014-01-31T14:09:01.000Z</time>
      </trkpt>
      <trkpt lat="45.55887" lon="6.59099">
        <ele>1554.5999755859</ele>
        <time>2014-01-31T14:09:02.000Z</time>
      </trkpt>
      <trkpt lat="45.5589" lon="6.59108">
        <ele>1553.8000488281</ele>
        <time>2014-01-31T14:09:03.000Z</time>
      </trkpt>
      <trkpt lat="45.5589" lon="6.59116">
        <ele>1552.8000488281</ele>
        <time>2014-01-31T14:09:04.000Z</time>
      </trkpt>
      <trkpt lat="45.55891" lon="6.59126">
        <ele>1552</ele>
        <time>2014-01-31T14:09:05.000Z</time>
      </trkpt>
      <trkpt lat="45.55892" lon="6.59137">
        <ele>1551.4000244141</ele>
        <time>2014-01-31T14:09:06.000Z</time>
      </trkpt>
      <trkpt lat="45.55893" lon="6.59146">
        <ele>1549.8000488281</ele>
        <time>2014-01-31T14:09:07.000Z</time>
      </trkpt>
      <trkpt lat="45.55894" lon="6.59156">
        <ele>1548.8000488281</ele>
        <time>2014-01-31T14:09:08.000Z</time>
      </trkpt>
      <trkpt lat="45.55894" lon="6.59166">
        <ele>1547.8000488281</ele>
        <time>2014-01-31T14:09:09.000Z</time>
      </trkpt>
      <trkpt lat="45.55893" lon="6.59176">
        <ele>1547</ele>
        <time>2014-01-31T14:09:10.000Z</time>
      </trkpt>
      <trkpt lat="45.55892" lon="6.59185">
        <ele>1546.4000244141</ele>
        <time>2014-01-31T14:09:11.000Z</time>
      </trkpt>
      <trkpt lat="45.55891" lon="6.59195">
        <ele>1545.8000488281</ele>
        <time>2014-01-31T14:09:12.000Z</time>
      </trkpt>
      <trkpt lat="45.55889" lon="6.59205">
        <ele>1544.8000488281</ele>
        <time>2014-01-31T14:09:13.000Z</time>
      </trkpt>
      <trkpt lat="45.55887" lon="6.59213">
        <ele>1543.5999755859</ele>
        <time>2014-01-31T14:09:14.000Z</time>
      </trkpt>
      <trkpt lat="45.55884" lon="6.59223">
        <ele>1542.4000244141</ele>
        <time>2014-01-31T14:09:15.000Z</time>
      </trkpt>
      <trkpt lat="45.55882" lon="6.59231">
        <ele>1541.1999511719</ele>
        <time>2014-01-31T14:09:16.000Z</time>
      </trkpt>
      <trkpt lat="45.5588" lon="6.59238">
        <ele>1540.1999511719</ele>
        <time>2014-01-31T14:09:17.000Z</time>
      </trkpt>
      <trkpt lat="45.55879" lon="6.59246">
        <ele>1539.1999511719</ele>
        <time>2014-01-31T14:09:18.000Z</time>
      </trkpt>
      <trkpt lat="45.55878" lon="6.59253">
        <ele>1538</ele>
        <time>2014-01-31T14:09:19.000Z</time>
      </trkpt>
      <trkpt lat="45.55877" lon="6.59259">
        <ele>1536.5999755859</ele>
        <time>2014-01-31T14:09:20.000Z</time>
      </trkpt>
      <trkpt lat="45.55878" lon="6.59267">
        <ele>1535.5999755859</ele>
        <time>2014-01-31T14:09:21.000Z</time>
      </trkpt>
      <trkpt lat="45.55878" lon="6.59274">
        <ele>1534.8000488281</ele>
        <time>2014-01-31T14:09:22.000Z</time>
      </trkpt>
      <trkpt lat="45.55879" lon="6.59282">
        <ele>1533.8000488281</ele>
        <time>2014-01-31T14:09:23.000Z</time>
      </trkpt>
      <trkpt lat="45.55881" lon="6.59291">
        <ele>1533</ele>
        <time>2014-01-31T14:09:24.000Z</time>
      </trkpt>
      <trkpt lat="45.55882" lon="6.59299">
        <ele>1532.1999511719</ele>
        <time>2014-01-31T14:09:25.000Z</time>
      </trkpt>
      <trkpt lat="45.55882" lon="6.59308">
        <ele>1531.4000244141</ele>
        <time>2014-01-31T14:09:26.000Z</time>
      </trkpt>
      <trkpt lat="45.55883" lon="6.59317">
        <ele>1530.8000488281</ele>
        <time>2014-01-31T14:09:27.000Z</time>
      </trkpt>
      <trkpt lat="45.55883" lon="6.59325">
        <ele>1530.1999511719</ele>
        <time>2014-01-31T14:09:28.000Z</time>
      </trkpt>
      <trkpt lat="45.55881" lon="6.59333">
        <ele>1529.4000244141</ele>
        <time>2014-01-31T14:09:29.000Z</time>
      </trkpt>
      <trkpt lat="45.55879" lon="6.59341">
        <ele>1528.8000488281</ele>
        <time>2014-01-31T14:09:30.000Z</time>
      </trkpt>
      <trkpt lat="45.55878" lon="6.59349">
        <ele>1527.4000244141</ele>
        <time>2014-01-31T14:09:31.000Z</time>
      </trkpt>
      <trkpt lat="45.55876" lon="6.59356">
        <ele>1526.8000488281</ele>
        <time>2014-01-31T14:09:32.000Z</time>
      </trkpt>
      <trkpt lat="45.55876" lon="6.59363">
        <ele>1526.1999511719</ele>
        <time>2014-01-31T14:09:33.000Z</time>
      </trkpt>
      <trkpt lat="45.55875" lon="6.59369">
        <ele>1525.4000244141</ele>
        <time>2014-01-31T14:09:34.000Z</time>
      </trkpt>
      <trkpt lat="45.55875" lon="6.59376">
        <ele>1524.8000488281</ele>
        <time>2014-01-31T14:09:35.000Z</time>
      </trkpt>
      <trkpt lat="45.55876" lon="6.59383">
        <ele>1524.1999511719</ele>
        <time>2014-01-31T14:09:36.000Z</time>
      </trkpt>
      <trkpt lat="45.55876" lon="6.59391">
        <ele>1523.5999755859</ele>
        <time>2014-01-31T14:09:37.000Z</time>
      </trkpt>
      <trkpt lat="45.55873" lon="6.59397">
        <ele>1523</ele>
        <time>2014-01-31T14:09:38.000Z</time>
      </trkpt>
      <trkpt lat="45.5587" lon="6.59402">
        <ele>1522.4000244141</ele>
        <time>2014-01-31T14:09:39.000Z</time>
      </trkpt>
      <trkpt lat="45.55867" lon="6.59406">
        <ele>1521.8000488281</ele>
        <time>2014-01-31T14:09:40.000Z</time>
      </trkpt>
      <trkpt lat="45.55863" lon="6.59409">
        <ele>1521.1999511719</ele>
        <time>2014-01-31T14:09:41.000Z</time>
      </trkpt>
      <trkpt lat="45.5586" lon="6.59413">
        <ele>1520.5999755859</ele>
        <time>2014-01-31T14:09:42.000Z</time>
      </trkpt>
      <trkpt lat="45.55857" lon="6.59415">
        <ele>1519.8000488281</ele>
        <time>2014-01-31T14:09:43.000Z</time>
      </trkpt>
      <trkpt lat="45.55853" lon="6.59418">
        <ele>1519.1999511719</ele>
        <time>2014-01-31T14:09:44.000Z</time>
      </trkpt>
      <trkpt lat="45.5585" lon="6.59419">
        <ele>1518.5999755859</ele>
        <time>2014-01-31T14:09:45.000Z</time>
      </trkpt>
      <trkpt lat="45.55849" lon="6.59405">
        <ele>1518</ele>
        <time>2014-01-31T14:09:46.000Z</time>
      </trkpt>
      <trkpt lat="45.55847" lon="6.594">
        <ele>1517.5999755859</ele>
        <time>2014-01-31T14:09:47.000Z</time>
      </trkpt>
      <trkpt lat="45.55844" lon="6.59394">
        <ele>1517.1999511719</ele>
        <time>2014-01-31T14:09:48.000Z</time>
      </trkpt>
      <trkpt lat="45.55843" lon="6.59381">
        <ele>1516.8000488281</ele>
        <time>2014-01-31T14:09:49.000Z</time>
      </trkpt>
      <trkpt lat="45.55842" lon="6.5937">
        <ele>1516.4000244141</ele>
        <time>2014-01-31T14:09:50.000Z</time>
      </trkpt>
      <trkpt lat="45.5584" lon="6.59357">
        <ele>1516</ele>
        <time>2014-01-31T14:09:51.000Z</time>
      </trkpt>
      <trkpt lat="45.55838" lon="6.59346">
        <ele>1515.4000244141</ele>
        <time>2014-01-31T14:09:52.000Z</time>
      </trkpt>
      <trkpt lat="45.55836" lon="6.59336">
        <ele>1514.5999755859</ele>
        <time>2014-01-31T14:09:53.000Z</time>
      </trkpt>
      <trkpt lat="45.55834" lon="6.59328">
        <ele>1513.8000488281</ele>
        <time>2014-01-31T14:09:54.000Z</time>
      </trkpt>
      <trkpt lat="45.55834" lon="6.59318">
        <ele>1512.1999511719</ele>
        <time>2014-01-31T14:09:55.000Z</time>
      </trkpt>
      <trkpt lat="45.55833" lon="6.59309">
        <ele>1511.4000244141</ele>
        <time>2014-01-31T14:09:56.000Z</time>
      </trkpt>
      <trkpt lat="45.55832" lon="6.593">
        <ele>1510.4000244141</ele>
        <time>2014-01-31T14:09:57.000Z</time>
      </trkpt>
      <trkpt lat="45.55831" lon="6.59293">
        <ele>1509.8000488281</ele>
        <time>2014-01-31T14:09:58.000Z</time>
      </trkpt>
      <trkpt lat="45.5583" lon="6.59287">
        <ele>1509</ele>
        <time>2014-01-31T14:09:59.000Z</time>
      </trkpt>
      <trkpt lat="45.5583" lon="6.59283">
        <ele>1508.1999511719</ele>
        <time>2014-01-31T14:10:00.000Z</time>
      </trkpt>
      <trkpt lat="45.5583" lon="6.59281">
        <ele>1507.4000244141</ele>
        <time>2014-01-31T14:10:01.000Z</time>
      </trkpt>
      <trkpt lat="45.55831" lon="6.59279">
        <ele>1506.8000488281</ele>
        <time>2014-01-31T14:10:02.000Z</time>
      </trkpt>
      <trkpt lat="45.55831" lon="6.59277">
        <ele>1506.4000244141</ele>
        <time>2014-01-31T14:10:03.000Z</time>
      </trkpt>
      <trkpt lat="45.55832" lon="6.59278">
        <ele>1506.1999511719</ele>
        <time>2014-01-31T14:10:04.000Z</time>
      </trkpt>
      <trkpt lat="45.55832" lon="6.59278">
        <ele>1505.8000488281</ele>
        <time>2014-01-31T14:10:05.000Z</time>
      </trkpt>
      <trkpt lat="45.55832" lon="6.59278">
        <ele>1505.8000488281</ele>
        <time>2014-01-31T14:10:06.000Z</time>
      </trkpt>
      <trkpt lat="45.55832" lon="6.59278">
        <ele>1505.5999755859</ele>
        <time>2014-01-31T14:10:07.000Z</time>
      </trkpt>
      <trkpt lat="45.55832" lon="6.59278">
        <ele>1505.4000244141</ele>
        <time>2014-01-31T14:10:08.000Z</time>
      </trkpt>
      <trkpt lat="45.55832" lon="6.59278">
        <ele>1505.4000244141</ele>
        <time>2014-01-31T14:10:09.000Z</time>
      </trkpt>
      <trkpt lat="45.55832" lon="6.59278">
        <ele>1505.4000244141</ele>
        <time>2014-01-31T14:10:10.000Z</time>
      </trkpt>
      <trkpt lat="45.55832" lon="6.59278">
        <ele>1505.4000244141</ele>
        <time>2014-01-31T14:10:11.000Z</time>
      </trkpt>
      <trkpt lat="45.55832" lon="6.59278">
        <ele>1505.4000244141</ele>
        <time>2014-01-31T14:10:13.000Z</time>
      </trkpt>
      <trkpt lat="45.55832" lon="6.59278">
        <ele>1505.4000244141</ele>
        <time>2014-01-31T14:10:14.000Z</time>
      </trkpt>
      <trkpt lat="45.55832" lon="6.59275">
        <ele>1505.4000244141</ele>
        <time>2014-01-31T14:10:15.000Z</time>
      </trkpt>
      <trkpt lat="45.55832" lon="6.59275">
        <ele>1505.5999755859</ele>
        <time>2014-01-31T14:10:16.000Z</time>
      </trkpt>
      <trkpt lat="45.55833" lon="6.59274">
        <ele>1505.8000488281</ele>
        <time>2014-01-31T14:10:17.000Z</time>
      </trkpt>
      <trkpt lat="45.55833" lon="6.59274">
        <ele>1505.8000488281</ele>
        <time>2014-01-31T14:10:18.000Z</time>
      </trkpt>
      <trkpt lat="45.55833" lon="6.59274">
        <ele>1506</ele>
        <time>2014-01-31T14:10:19.000Z</time>
      </trkpt>
      <trkpt lat="45.55833" lon="6.59274">
        <ele>1506.1999511719</ele>
        <time>2014-01-31T14:10:20.000Z</time>
      </trkpt>
      <trkpt lat="45.55833" lon="6.59274">
        <ele>1506.1999511719</ele>
        <time>2014-01-31T14:10:21.000Z</time>
      </trkpt>
      <trkpt lat="45.55833" lon="6.59274">
        <ele>1506</ele>
        <time>2014-01-31T14:10:22.000Z</time>
      </trkpt>
      <trkpt lat="45.55833" lon="6.59274">
        <ele>1505.8000488281</ele>
        <time>2014-01-31T14:10:23.000Z</time>
      </trkpt>
      <trkpt lat="45.55833" lon="6.59274">
        <ele>1505.4000244141</ele>
        <time>2014-01-31T14:10:24.000Z</time>
      </trkpt>
      <trkpt lat="45.55833" lon="6.59274">
        <ele>1505.4000244141</ele>
        <time>2014-01-31T14:10:25.000Z</time>
      </trkpt>
      <trkpt lat="45.55833" lon="6.59274">
        <ele>1505.1999511719</ele>
        <time>2014-01-31T14:10:26.000Z</time>
      </trkpt>
      <trkpt lat="45.55833" lon="6.59274">
        <ele>1505.1999511719</ele>
        <time>2014-01-31T14:10:27.000Z</time>
      </trkpt>
      <trkpt lat="45.55833" lon="6.59274">
        <ele>1505.1999511719</ele>
        <time>2014-01-31T14:10:28.000Z</time>
      </trkpt>
      <trkpt lat="45.55833" lon="6.59274">
        <ele>1505.1999511719</ele>
        <time>2014-01-31T14:10:29.000Z</time>
      </trkpt>
      <trkpt lat="45.55833" lon="6.59271">
        <ele>1505.1999511719</ele>
        <time>2014-01-31T14:10:30.000Z</time>
      </trkpt>
      <trkpt lat="45.55835" lon="6.59266">
        <ele>1505</ele>
        <time>2014-01-31T14:10:31.000Z</time>
      </trkpt>
      <trkpt lat="45.55836" lon="6.59263">
        <ele>1505</ele>
        <time>2014-01-31T14:10:32.000Z</time>
      </trkpt>
      <trkpt lat="45.55837" lon="6.59259">
        <ele>1505</ele>
        <time>2014-01-31T14:10:33.000Z</time>
      </trkpt>
      <trkpt lat="45.55837" lon="6.59255">
        <ele>1505</ele>
        <time>2014-01-31T14:10:34.000Z</time>
      </trkpt>
      <trkpt lat="45.55838" lon="6.5925">
        <ele>1505</ele>
        <time>2014-01-31T14:10:35.000Z</time>
      </trkpt>
      <trkpt lat="45.55838" lon="6.59246">
        <ele>1505</ele>
        <time>2014-01-31T14:10:36.000Z</time>
      </trkpt>
      <trkpt lat="45.55839" lon="6.59242">
        <ele>1505</ele>
        <time>2014-01-31T14:10:37.000Z</time>
      </trkpt>
      <trkpt lat="45.55839" lon="6.59237">
        <ele>1505</ele>
        <time>2014-01-31T14:10:38.000Z</time>
      </trkpt>
      <trkpt lat="45.55839" lon="6.59231">
        <ele>1504.8000488281</ele>
        <time>2014-01-31T14:10:39.000Z</time>
      </trkpt>
      <trkpt lat="45.55839" lon="6.59224">
        <ele>1504.5999755859</ele>
        <time>2014-01-31T14:10:40.000Z</time>
      </trkpt>
      <trkpt lat="45.55839" lon="6.59217">
        <ele>1504.5999755859</ele>
        <time>2014-01-31T14:10:41.000Z</time>
      </trkpt>
      <trkpt lat="45.55839" lon="6.5921">
        <ele>1504.4000244141</ele>
        <time>2014-01-31T14:10:42.000Z</time>
      </trkpt>
      <trkpt lat="45.55839" lon="6.59202">
        <ele>1503.8000488281</ele>
        <time>2014-01-31T14:10:43.000Z</time>
      </trkpt>
      <trkpt lat="45.55838" lon="6.59194">
        <ele>1503.4000244141</ele>
        <time>2014-01-31T14:10:44.000Z</time>
      </trkpt>
      <trkpt lat="45.55838" lon="6.59186">
        <ele>1502.8000488281</ele>
        <time>2014-01-31T14:10:45.000Z</time>
      </trkpt>
      <trkpt lat="45.55834" lon="6.59179">
        <ele>1502.1999511719</ele>
        <time>2014-01-31T14:10:46.000Z</time>
      </trkpt>
      <trkpt lat="45.55831" lon="6.59172">
        <ele>1501.5999755859</ele>
        <time>2014-01-31T14:10:47.000Z</time>
      </trkpt>
      <trkpt lat="45.55828" lon="6.59165">
        <ele>1500.8000488281</ele>
        <time>2014-01-31T14:10:48.000Z</time>
      </trkpt>
      <trkpt lat="45.55826" lon="6.59157">
        <ele>1500.1999511719</ele>
        <time>2014-01-31T14:10:49.000Z</time>
      </trkpt>
      <trkpt lat="45.55822" lon="6.59149">
        <ele>1499.4000244141</ele>
        <time>2014-01-31T14:10:50.000Z</time>
      </trkpt>
      <trkpt lat="45.55818" lon="6.59142">
        <ele>1498.8000488281</ele>
        <time>2014-01-31T14:10:51.000Z</time>
      </trkpt>
      <trkpt lat="45.55816" lon="6.59135">
        <ele>1498.1999511719</ele>
        <time>2014-01-31T14:10:52.000Z</time>
      </trkpt>
      <trkpt lat="45.55817" lon="6.59131">
        <ele>1497.5999755859</ele>
        <time>2014-01-31T14:10:53.000Z</time>
      </trkpt>
      <trkpt lat="45.55818" lon="6.59129">
        <ele>1496.8000488281</ele>
        <time>2014-01-31T14:10:54.000Z</time>
      </trkpt>
      <trkpt lat="45.55821" lon="6.59132">
        <ele>1495.5999755859</ele>
        <time>2014-01-31T14:10:55.000Z</time>
      </trkpt>
      <trkpt lat="45.55824" lon="6.59136">
        <ele>1494.4000244141</ele>
        <time>2014-01-31T14:10:56.000Z</time>
      </trkpt>
      <trkpt lat="45.55829" lon="6.59144">
        <ele>1493.4000244141</ele>
        <time>2014-01-31T14:10:57.000Z</time>
      </trkpt>
      <trkpt lat="45.55832" lon="6.5915">
        <ele>1492.4000244141</ele>
        <time>2014-01-31T14:10:58.000Z</time>
      </trkpt>
      <trkpt lat="45.55834" lon="6.59156">
        <ele>1491.8000488281</ele>
        <time>2014-01-31T14:10:59.000Z</time>
      </trkpt>
      <trkpt lat="45.55833" lon="6.59167">
        <ele>1491.1999511719</ele>
        <time>2014-01-31T14:11:00.000Z</time>
      </trkpt>
      <trkpt lat="45.55832" lon="6.59174">
        <ele>1490.8000488281</ele>
        <time>2014-01-31T14:11:01.000Z</time>
      </trkpt>
      <trkpt lat="45.55832" lon="6.59182">
        <ele>1490.5999755859</ele>
        <time>2014-01-31T14:11:02.000Z</time>
      </trkpt>
      <trkpt lat="45.55831" lon="6.59189">
        <ele>1490.4000244141</ele>
        <time>2014-01-31T14:11:03.000Z</time>
      </trkpt>
      <trkpt lat="45.55827" lon="6.59201">
        <ele>1490</ele>
        <time>2014-01-31T14:11:04.000Z</time>
      </trkpt>
      <trkpt lat="45.55825" lon="6.59211">
        <ele>1489.4000244141</ele>
        <time>2014-01-31T14:11:05.000Z</time>
      </trkpt>
      <trkpt lat="45.55822" lon="6.59222">
        <ele>1488.4000244141</ele>
        <time>2014-01-31T14:11:06.000Z</time>
      </trkpt>
      <trkpt lat="45.55819" lon="6.59234">
        <ele>1486.4000244141</ele>
        <time>2014-01-31T14:11:07.000Z</time>
      </trkpt>
      <trkpt lat="45.55816" lon="6.59244">
        <ele>1485.5999755859</ele>
        <time>2014-01-31T14:11:08.000Z</time>
      </trkpt>
      <trkpt lat="45.55814" lon="6.59253">
        <ele>1484.5999755859</ele>
        <time>2014-01-31T14:11:09.000Z</time>
      </trkpt>
      <trkpt lat="45.55813" lon="6.59263">
        <ele>1483.5999755859</ele>
        <time>2014-01-31T14:11:10.000Z</time>
      </trkpt>
      <trkpt lat="45.55812" lon="6.59274">
        <ele>1482.5999755859</ele>
        <time>2014-01-31T14:11:11.000Z</time>
      </trkpt>
      <trkpt lat="45.5581" lon="6.59285">
        <ele>1481.8000488281</ele>
        <time>2014-01-31T14:11:12.000Z</time>
      </trkpt>
      <trkpt lat="45.55808" lon="6.59296">
        <ele>1481</ele>
        <time>2014-01-31T14:11:13.000Z</time>
      </trkpt>
      <trkpt lat="45.55807" lon="6.59308">
        <ele>1480.4000244141</ele>
        <time>2014-01-31T14:11:14.000Z</time>
      </trkpt>
      <trkpt lat="45.55807" lon="6.59322">
        <ele>1479.4000244141</ele>
        <time>2014-01-31T14:11:15.000Z</time>
      </trkpt>
      <trkpt lat="45.55808" lon="6.59336">
        <ele>1478.5999755859</ele>
        <time>2014-01-31T14:11:16.000Z</time>
      </trkpt>
      <trkpt lat="45.55809" lon="6.59348">
        <ele>1477.5999755859</ele>
        <time>2014-01-31T14:11:17.000Z</time>
      </trkpt>
      <trkpt lat="45.55809" lon="6.5936">
        <ele>1476.5999755859</ele>
        <time>2014-01-31T14:11:18.000Z</time>
      </trkpt>
      <trkpt lat="45.5581" lon="6.59371">
        <ele>1475.4000244141</ele>
        <time>2014-01-31T14:11:19.000Z</time>
      </trkpt>
      <trkpt lat="45.55811" lon="6.59381">
        <ele>1474.4000244141</ele>
        <time>2014-01-31T14:11:20.000Z</time>
      </trkpt>
      <trkpt lat="45.5581" lon="6.59391">
        <ele>1473.4000244141</ele>
        <time>2014-01-31T14:11:21.000Z</time>
      </trkpt>
      <trkpt lat="45.5581" lon="6.594">
        <ele>1472.1999511719</ele>
        <time>2014-01-31T14:11:22.000Z</time>
      </trkpt>
      <trkpt lat="45.55809" lon="6.5941">
        <ele>1471.1999511719</ele>
        <time>2014-01-31T14:11:23.000Z</time>
      </trkpt>
      <trkpt lat="45.55808" lon="6.5942">
        <ele>1470</ele>
        <time>2014-01-31T14:11:24.000Z</time>
      </trkpt>
      <trkpt lat="45.55807" lon="6.59429">
        <ele>1469</ele>
        <time>2014-01-31T14:11:25.000Z</time>
      </trkpt>
      <trkpt lat="45.55806" lon="6.59439">
        <ele>1468.4000244141</ele>
        <time>2014-01-31T14:11:26.000Z</time>
      </trkpt>
      <trkpt lat="45.55805" lon="6.5945">
        <ele>1467.8000488281</ele>
        <time>2014-01-31T14:11:27.000Z</time>
      </trkpt>
      <trkpt lat="45.55804" lon="6.59461">
        <ele>1467</ele>
        <time>2014-01-31T14:11:28.000Z</time>
      </trkpt>
      <trkpt lat="45.55804" lon="6.59473">
        <ele>1466.1999511719</ele>
        <time>2014-01-31T14:11:29.000Z</time>
      </trkpt>
      <trkpt lat="45.55804" lon="6.59484">
        <ele>1465.4000244141</ele>
        <time>2014-01-31T14:11:30.000Z</time>
      </trkpt>
      <trkpt lat="45.55803" lon="6.59495">
        <ele>1463.5999755859</ele>
        <time>2014-01-31T14:11:31.000Z</time>
      </trkpt>
      <trkpt lat="45.55801" lon="6.59505">
        <ele>1463</ele>
        <time>2014-01-31T14:11:32.000Z</time>
      </trkpt>
      <trkpt lat="45.55799" lon="6.59515">
        <ele>1462.4000244141</ele>
        <time>2014-01-31T14:11:33.000Z</time>
      </trkpt>
      <trkpt lat="45.55796" lon="6.59525">
        <ele>1461.4000244141</ele>
        <time>2014-01-31T14:11:34.000Z</time>
      </trkpt>
      <trkpt lat="45.55795" lon="6.59536">
        <ele>1460.5999755859</ele>
        <time>2014-01-31T14:11:35.000Z</time>
      </trkpt>
      <trkpt lat="45.55793" lon="6.59546">
        <ele>1459.5999755859</ele>
        <time>2014-01-31T14:11:36.000Z</time>
      </trkpt>
      <trkpt lat="45.55792" lon="6.59557">
        <ele>1458.5999755859</ele>
        <time>2014-01-31T14:11:37.000Z</time>
      </trkpt>
      <trkpt lat="45.5579" lon="6.59567">
        <ele>1457.5999755859</ele>
        <time>2014-01-31T14:11:38.000Z</time>
      </trkpt>
      <trkpt lat="45.5579" lon="6.59578">
        <ele>1456.1999511719</ele>
        <time>2014-01-31T14:11:39.000Z</time>
      </trkpt>
      <trkpt lat="45.55789" lon="6.59588">
        <ele>1455.1999511719</ele>
        <time>2014-01-31T14:11:40.000Z</time>
      </trkpt>
      <trkpt lat="45.55789" lon="6.59598">
        <ele>1454.1999511719</ele>
        <time>2014-01-31T14:11:41.000Z</time>
      </trkpt>
      <trkpt lat="45.55788" lon="6.59608">
        <ele>1453.4000244141</ele>
        <time>2014-01-31T14:11:42.000Z</time>
      </trkpt>
      <trkpt lat="45.55786" lon="6.59617">
        <ele>1452.5999755859</ele>
        <time>2014-01-31T14:11:43.000Z</time>
      </trkpt>
      <trkpt lat="45.55785" lon="6.59627">
        <ele>1452</ele>
        <time>2014-01-31T14:11:44.000Z</time>
      </trkpt>
      <trkpt lat="45.55785" lon="6.59637">
        <ele>1451.5999755859</ele>
        <time>2014-01-31T14:11:45.000Z</time>
      </trkpt>
      <trkpt lat="45.55785" lon="6.59648">
        <ele>1451</ele>
        <time>2014-01-31T14:11:46.000Z</time>
      </trkpt>
      <trkpt lat="45.55786" lon="6.59658">
        <ele>1450.4000244141</ele>
        <time>2014-01-31T14:11:47.000Z</time>
      </trkpt>
      <trkpt lat="45.55788" lon="6.59669">
        <ele>1449.5999755859</ele>
        <time>2014-01-31T14:11:48.000Z</time>
      </trkpt>
      <trkpt lat="45.55789" lon="6.59678">
        <ele>1448.5999755859</ele>
        <time>2014-01-31T14:11:49.000Z</time>
      </trkpt>
      <trkpt lat="45.55791" lon="6.59686">
        <ele>1447.5999755859</ele>
        <time>2014-01-31T14:11:50.000Z</time>
      </trkpt>
      <trkpt lat="45.55794" lon="6.59693">
        <ele>1446.5999755859</ele>
        <time>2014-01-31T14:11:51.000Z</time>
      </trkpt>
      <trkpt lat="45.55797" lon="6.597">
        <ele>1446</ele>
        <time>2014-01-31T14:11:52.000Z</time>
      </trkpt>
      <trkpt lat="45.55801" lon="6.59706">
        <ele>1445.4000244141</ele>
        <time>2014-01-31T14:11:53.000Z</time>
      </trkpt>
      <trkpt lat="45.55805" lon="6.59713">
        <ele>1445.1999511719</ele>
        <time>2014-01-31T14:11:54.000Z</time>
      </trkpt>
      <trkpt lat="45.55809" lon="6.59718">
        <ele>1444</ele>
        <time>2014-01-31T14:11:55.000Z</time>
      </trkpt>
      <trkpt lat="45.55811" lon="6.59721">
        <ele>1443.1999511719</ele>
        <time>2014-01-31T14:11:56.000Z</time>
      </trkpt>
      <trkpt lat="45.55813" lon="6.59724">
        <ele>1442.1999511719</ele>
        <time>2014-01-31T14:11:57.000Z</time>
      </trkpt>
      <trkpt lat="45.55814" lon="6.59726">
        <ele>1441.1999511719</ele>
        <time>2014-01-31T14:11:58.000Z</time>
      </trkpt>
      <trkpt lat="45.55815" lon="6.59727">
        <ele>1440.4000244141</ele>
        <time>2014-01-31T14:11:59.000Z</time>
      </trkpt>
      <trkpt lat="45.55816" lon="6.59729">
        <ele>1439.8000488281</ele>
        <time>2014-01-31T14:12:00.000Z</time>
      </trkpt>
      <trkpt lat="45.55817" lon="6.59731">
        <ele>1439.1999511719</ele>
        <time>2014-01-31T14:12:01.000Z</time>
      </trkpt>
      <trkpt lat="45.55818" lon="6.59734">
        <ele>1438.8000488281</ele>
        <time>2014-01-31T14:12:02.000Z</time>
      </trkpt>
      <trkpt lat="45.5582" lon="6.59737">
        <ele>1438.4000244141</ele>
        <time>2014-01-31T14:12:03.000Z</time>
      </trkpt>
      <trkpt lat="45.5582" lon="6.5974">
        <ele>1438.1999511719</ele>
        <time>2014-01-31T14:12:04.000Z</time>
      </trkpt>
      <trkpt lat="45.55821" lon="6.59743">
        <ele>1438</ele>
        <time>2014-01-31T14:12:05.000Z</time>
      </trkpt>
      <trkpt lat="45.55821" lon="6.59747">
        <ele>1437.8000488281</ele>
        <time>2014-01-31T14:12:06.000Z</time>
      </trkpt>
      <trkpt lat="45.55821" lon="6.5975">
        <ele>1437.5999755859</ele>
        <time>2014-01-31T14:12:07.000Z</time>
      </trkpt>
      <trkpt lat="45.55821" lon="6.59754">
        <ele>1437.4000244141</ele>
        <time>2014-01-31T14:12:08.000Z</time>
      </trkpt>
      <trkpt lat="45.55819" lon="6.5976">
        <ele>1437</ele>
        <time>2014-01-31T14:12:09.000Z</time>
      </trkpt>
      <trkpt lat="45.55817" lon="6.59764">
        <ele>1436.8000488281</ele>
        <time>2014-01-31T14:12:10.000Z</time>
      </trkpt>
      <trkpt lat="45.55814" lon="6.59767">
        <ele>1436.1999511719</ele>
        <time>2014-01-31T14:12:11.000Z</time>
      </trkpt>
      <trkpt lat="45.55811" lon="6.59768">
        <ele>1436</ele>
        <time>2014-01-31T14:12:12.000Z</time>
      </trkpt>
      <trkpt lat="45.55808" lon="6.59768">
        <ele>1435.8000488281</ele>
        <time>2014-01-31T14:12:13.000Z</time>
      </trkpt>
      <trkpt lat="45.55807" lon="6.59762">
        <ele>1435.5999755859</ele>
        <time>2014-01-31T14:12:14.000Z</time>
      </trkpt>
      <trkpt lat="45.55805" lon="6.59757">
        <ele>1435.4000244141</ele>
        <time>2014-01-31T14:12:15.000Z</time>
      </trkpt>
      <trkpt lat="45.55804" lon="6.59752">
        <ele>1435.1999511719</ele>
        <time>2014-01-31T14:12:16.000Z</time>
      </trkpt>
      <trkpt lat="45.55802" lon="6.59747">
        <ele>1435</ele>
        <time>2014-01-31T14:12:17.000Z</time>
      </trkpt>
      <trkpt lat="45.55801" lon="6.59742">
        <ele>1434.5999755859</ele>
        <time>2014-01-31T14:12:18.000Z</time>
      </trkpt>
      <trkpt lat="45.55799" lon="6.59739">
        <ele>1433.4000244141</ele>
        <time>2014-01-31T14:12:19.000Z</time>
      </trkpt>
      <trkpt lat="45.55796" lon="6.59736">
        <ele>1432.8000488281</ele>
        <time>2014-01-31T14:12:20.000Z</time>
      </trkpt>
      <trkpt lat="45.55793" lon="6.59732">
        <ele>1432.4000244141</ele>
        <time>2014-01-31T14:12:21.000Z</time>
      </trkpt>
      <trkpt lat="45.5579" lon="6.59729">
        <ele>1432.1999511719</ele>
        <time>2014-01-31T14:12:22.000Z</time>
      </trkpt>
      <trkpt lat="45.55786" lon="6.59726">
        <ele>1432</ele>
        <time>2014-01-31T14:12:23.000Z</time>
      </trkpt>
      <trkpt lat="45.55782" lon="6.59722">
        <ele>1431.5999755859</ele>
        <time>2014-01-31T14:12:24.000Z</time>
      </trkpt>
      <trkpt lat="45.55779" lon="6.59719">
        <ele>1431.4000244141</ele>
        <time>2014-01-31T14:12:25.000Z</time>
      </trkpt>
      <trkpt lat="45.55775" lon="6.59715">
        <ele>1431</ele>
        <time>2014-01-31T14:12:26.000Z</time>
      </trkpt>
      <trkpt lat="45.55771" lon="6.59711">
        <ele>1430.5999755859</ele>
        <time>2014-01-31T14:12:27.000Z</time>
      </trkpt>
      <trkpt lat="45.55767" lon="6.59705">
        <ele>1430</ele>
        <time>2014-01-31T14:12:28.000Z</time>
      </trkpt>
      <trkpt lat="45.55764" lon="6.597">
        <ele>1429.4000244141</ele>
        <time>2014-01-31T14:12:29.000Z</time>
      </trkpt>
      <trkpt lat="45.55761" lon="6.59694">
        <ele>1429</ele>
        <time>2014-01-31T14:12:30.000Z</time>
      </trkpt>
      <trkpt lat="45.55759" lon="6.59688">
        <ele>1428.4000244141</ele>
        <time>2014-01-31T14:12:31.000Z</time>
      </trkpt>
      <trkpt lat="45.55757" lon="6.59682">
        <ele>1428.1999511719</ele>
        <time>2014-01-31T14:12:32.000Z</time>
      </trkpt>
      <trkpt lat="45.55752" lon="6.59673">
        <ele>1427.8000488281</ele>
        <time>2014-01-31T14:12:33.000Z</time>
      </trkpt>
      <trkpt lat="45.5575" lon="6.59666">
        <ele>1427.1999511719</ele>
        <time>2014-01-31T14:12:34.000Z</time>
      </trkpt>
      <trkpt lat="45.55749" lon="6.5966">
        <ele>1426.5999755859</ele>
        <time>2014-01-31T14:12:35.000Z</time>
      </trkpt>
      <trkpt lat="45.5575" lon="6.59662">
        <ele>1425.8000488281</ele>
        <time>2014-01-31T14:12:36.000Z</time>
      </trkpt>
      <trkpt lat="45.55751" lon="6.59665">
        <ele>1424.8000488281</ele>
        <time>2014-01-31T14:12:37.000Z</time>
      </trkpt>
      <trkpt lat="45.55752" lon="6.59669">
        <ele>1423.8000488281</ele>
        <time>2014-01-31T14:12:38.000Z</time>
      </trkpt>
      <trkpt lat="45.55753" lon="6.59674">
        <ele>1423</ele>
        <time>2014-01-31T14:12:39.000Z</time>
      </trkpt>
      <trkpt lat="45.55755" lon="6.59678">
        <ele>1422.4000244141</ele>
        <time>2014-01-31T14:12:40.000Z</time>
      </trkpt>
      <trkpt lat="45.55756" lon="6.59683">
        <ele>1422.1999511719</ele>
        <time>2014-01-31T14:12:41.000Z</time>
      </trkpt>
      <trkpt lat="45.55758" lon="6.59688">
        <ele>1421.8000488281</ele>
        <time>2014-01-31T14:12:42.000Z</time>
      </trkpt>
      <trkpt lat="45.55758" lon="6.59695">
        <ele>1421.4000244141</ele>
        <time>2014-01-31T14:12:43.000Z</time>
      </trkpt>
      <trkpt lat="45.5576" lon="6.59702">
        <ele>1421.1999511719</ele>
        <time>2014-01-31T14:12:44.000Z</time>
      </trkpt>
      <trkpt lat="45.55761" lon="6.59709">
        <ele>1420.8000488281</ele>
        <time>2014-01-31T14:12:45.000Z</time>
      </trkpt>
      <trkpt lat="45.55763" lon="6.59716">
        <ele>1420.5999755859</ele>
        <time>2014-01-31T14:12:46.000Z</time>
      </trkpt>
      <trkpt lat="45.55764" lon="6.59723">
        <ele>1420.1999511719</ele>
        <time>2014-01-31T14:12:47.000Z</time>
      </trkpt>
      <trkpt lat="45.55765" lon="6.59728">
        <ele>1419.8000488281</ele>
        <time>2014-01-31T14:12:48.000Z</time>
      </trkpt>
      <trkpt lat="45.55765" lon="6.59734">
        <ele>1419.4000244141</ele>
        <time>2014-01-31T14:12:49.000Z</time>
      </trkpt>
      <trkpt lat="45.55765" lon="6.59741">
        <ele>1419.1999511719</ele>
        <time>2014-01-31T14:12:50.000Z</time>
      </trkpt>
      <trkpt lat="45.55765" lon="6.59747">
        <ele>1419</ele>
        <time>2014-01-31T14:12:51.000Z</time>
      </trkpt>
      <trkpt lat="45.55765" lon="6.59753">
        <ele>1418.8000488281</ele>
        <time>2014-01-31T14:12:52.000Z</time>
      </trkpt>
      <trkpt lat="45.55764" lon="6.59759">
        <ele>1418.5999755859</ele>
        <time>2014-01-31T14:12:53.000Z</time>
      </trkpt>
      <trkpt lat="45.55765" lon="6.59765">
        <ele>1418.1999511719</ele>
        <time>2014-01-31T14:12:54.000Z</time>
      </trkpt>
      <trkpt lat="45.55765" lon="6.59772">
        <ele>1417.8000488281</ele>
        <time>2014-01-31T14:12:55.000Z</time>
      </trkpt>
      <trkpt lat="45.55765" lon="6.59778">
        <ele>1417.4000244141</ele>
        <time>2014-01-31T14:12:56.000Z</time>
      </trkpt>
      <trkpt lat="45.55764" lon="6.59785">
        <ele>1417</ele>
        <time>2014-01-31T14:12:57.000Z</time>
      </trkpt>
      <trkpt lat="45.55764" lon="6.59791">
        <ele>1416.5999755859</ele>
        <time>2014-01-31T14:12:58.000Z</time>
      </trkpt>
      <trkpt lat="45.55763" lon="6.59799">
        <ele>1416.1999511719</ele>
        <time>2014-01-31T14:12:59.000Z</time>
      </trkpt>
      <trkpt lat="45.55762" lon="6.59806">
        <ele>1416</ele>
        <time>2014-01-31T14:13:00.000Z</time>
      </trkpt>
      <trkpt lat="45.5576" lon="6.59813">
        <ele>1415.5999755859</ele>
        <time>2014-01-31T14:13:01.000Z</time>
      </trkpt>
      <trkpt lat="45.55758" lon="6.59819">
        <ele>1415.1999511719</ele>
        <time>2014-01-31T14:13:02.000Z</time>
      </trkpt>
      <trkpt lat="45.55756" lon="6.59827">
        <ele>1414.8000488281</ele>
        <time>2014-01-31T14:13:03.000Z</time>
      </trkpt>
      <trkpt lat="45.55753" lon="6.59835">
        <ele>1414.4000244141</ele>
        <time>2014-01-31T14:13:04.000Z</time>
      </trkpt>
      <trkpt lat="45.55751" lon="6.59843">
        <ele>1414.1999511719</ele>
        <time>2014-01-31T14:13:05.000Z</time>
      </trkpt>
      <trkpt lat="45.55749" lon="6.59852">
        <ele>1413.8000488281</ele>
        <time>2014-01-31T14:13:06.000Z</time>
      </trkpt>
      <trkpt lat="45.55747" lon="6.5986">
        <ele>1413</ele>
        <time>2014-01-31T14:13:07.000Z</time>
      </trkpt>
      <trkpt lat="45.55747" lon="6.59869">
        <ele>1412.4000244141</ele>
        <time>2014-01-31T14:13:08.000Z</time>
      </trkpt>
      <trkpt lat="45.55746" lon="6.59876">
        <ele>1411.8000488281</ele>
        <time>2014-01-31T14:13:09.000Z</time>
      </trkpt>
      <trkpt lat="45.55747" lon="6.59885">
        <ele>1411.1999511719</ele>
        <time>2014-01-31T14:13:10.000Z</time>
      </trkpt>
      <trkpt lat="45.55748" lon="6.59893">
        <ele>1410.8000488281</ele>
        <time>2014-01-31T14:13:11.000Z</time>
      </trkpt>
      <trkpt lat="45.55748" lon="6.59902">
        <ele>1410.1999511719</ele>
        <time>2014-01-31T14:13:12.000Z</time>
      </trkpt>
      <trkpt lat="45.55749" lon="6.59911">
        <ele>1409.8000488281</ele>
        <time>2014-01-31T14:13:13.000Z</time>
      </trkpt>
      <trkpt lat="45.5575" lon="6.5992">
        <ele>1409.1999511719</ele>
        <time>2014-01-31T14:13:14.000Z</time>
      </trkpt>
      <trkpt lat="45.55751" lon="6.59929">
        <ele>1409</ele>
        <time>2014-01-31T14:13:15.000Z</time>
      </trkpt>
      <trkpt lat="45.55753" lon="6.59937">
        <ele>1408.5999755859</ele>
        <time>2014-01-31T14:13:16.000Z</time>
      </trkpt>
      <trkpt lat="45.55756" lon="6.59946">
        <ele>1408.1999511719</ele>
        <time>2014-01-31T14:13:17.000Z</time>
      </trkpt>
      <trkpt lat="45.55758" lon="6.59953">
        <ele>1407.8000488281</ele>
        <time>2014-01-31T14:13:18.000Z</time>
      </trkpt>
      <trkpt lat="45.5576" lon="6.59961">
        <ele>1407.1999511719</ele>
        <time>2014-01-31T14:13:19.000Z</time>
      </trkpt>
      <trkpt lat="45.55763" lon="6.59969">
        <ele>1406.5999755859</ele>
        <time>2014-01-31T14:13:20.000Z</time>
      </trkpt>
      <trkpt lat="45.55765" lon="6.59976">
        <ele>1406.1999511719</ele>
        <time>2014-01-31T14:13:21.000Z</time>
      </trkpt>
      <trkpt lat="45.55768" lon="6.59983">
        <ele>1405.5999755859</ele>
        <time>2014-01-31T14:13:22.000Z</time>
      </trkpt>
      <trkpt lat="45.55771" lon="6.59991">
        <ele>1405.1999511719</ele>
        <time>2014-01-31T14:13:23.000Z</time>
      </trkpt>
      <trkpt lat="45.55774" lon="6.59999">
        <ele>1404.5999755859</ele>
        <time>2014-01-31T14:13:24.000Z</time>
      </trkpt>
      <trkpt lat="45.55777" lon="6.60007">
        <ele>1403.8000488281</ele>
        <time>2014-01-31T14:13:25.000Z</time>
      </trkpt>
      <trkpt lat="45.55779" lon="6.60014">
        <ele>1403.1999511719</ele>
        <time>2014-01-31T14:13:26.000Z</time>
      </trkpt>
      <trkpt lat="45.55781" lon="6.60021">
        <ele>1402.5999755859</ele>
        <time>2014-01-31T14:13:27.000Z</time>
      </trkpt>
      <trkpt lat="45.55783" lon="6.60027">
        <ele>1402</ele>
        <time>2014-01-31T14:13:28.000Z</time>
      </trkpt>
      <trkpt lat="45.55786" lon="6.60033">
        <ele>1401.5999755859</ele>
        <time>2014-01-31T14:13:29.000Z</time>
      </trkpt>
      <trkpt lat="45.55787" lon="6.6004">
        <ele>1401.1999511719</ele>
        <time>2014-01-31T14:13:30.000Z</time>
      </trkpt>
      <trkpt lat="45.55789" lon="6.60047">
        <ele>1400.5999755859</ele>
        <time>2014-01-31T14:13:31.000Z</time>
      </trkpt>
      <trkpt lat="45.55791" lon="6.60053">
        <ele>1399.8000488281</ele>
        <time>2014-01-31T14:13:32.000Z</time>
      </trkpt>
      <trkpt lat="45.55794" lon="6.6006">
        <ele>1399.4000244141</ele>
        <time>2014-01-31T14:13:33.000Z</time>
      </trkpt>
      <trkpt lat="45.55797" lon="6.60066">
        <ele>1399</ele>
        <time>2014-01-31T14:13:34.000Z</time>
      </trkpt>
      <trkpt lat="45.558" lon="6.60071">
        <ele>1398.4000244141</ele>
        <time>2014-01-31T14:13:35.000Z</time>
      </trkpt>
      <trkpt lat="45.55804" lon="6.60076">
        <ele>1397.8000488281</ele>
        <time>2014-01-31T14:13:36.000Z</time>
      </trkpt>
      <trkpt lat="45.55809" lon="6.6008">
        <ele>1397.1999511719</ele>
        <time>2014-01-31T14:13:37.000Z</time>
      </trkpt>
      <trkpt lat="45.55815" lon="6.60084">
        <ele>1396.5999755859</ele>
        <time>2014-01-31T14:13:38.000Z</time>
      </trkpt>
      <trkpt lat="45.5582" lon="6.6009">
        <ele>1396.1999511719</ele>
        <time>2014-01-31T14:13:39.000Z</time>
      </trkpt>
      <trkpt lat="45.55825" lon="6.60097">
        <ele>1395.8000488281</ele>
        <time>2014-01-31T14:13:40.000Z</time>
      </trkpt>
      <trkpt lat="45.55829" lon="6.60104">
        <ele>1395.4000244141</ele>
        <time>2014-01-31T14:13:41.000Z</time>
      </trkpt>
      <trkpt lat="45.55833" lon="6.60112">
        <ele>1395.1999511719</ele>
        <time>2014-01-31T14:13:42.000Z</time>
      </trkpt>
      <trkpt lat="45.55837" lon="6.6012">
        <ele>1395</ele>
        <time>2014-01-31T14:13:43.000Z</time>
      </trkpt>
      <trkpt lat="45.55841" lon="6.60129">
        <ele>1394.5999755859</ele>
        <time>2014-01-31T14:13:44.000Z</time>
      </trkpt>
      <trkpt lat="45.55846" lon="6.60137">
        <ele>1394.1999511719</ele>
        <time>2014-01-31T14:13:45.000Z</time>
      </trkpt>
      <trkpt lat="45.5585" lon="6.60144">
        <ele>1393.4000244141</ele>
        <time>2014-01-31T14:13:46.000Z</time>
      </trkpt>
      <trkpt lat="45.55855" lon="6.60152">
        <ele>1392.5999755859</ele>
        <time>2014-01-31T14:13:47.000Z</time>
      </trkpt>
      <trkpt lat="45.5586" lon="6.60159">
        <ele>1391.8000488281</ele>
        <time>2014-01-31T14:13:48.000Z</time>
      </trkpt>
      <trkpt lat="45.55865" lon="6.60166">
        <ele>1390.8000488281</ele>
        <time>2014-01-31T14:13:49.000Z</time>
      </trkpt>
      <trkpt lat="45.55869" lon="6.60174">
        <ele>1390.1999511719</ele>
        <time>2014-01-31T14:13:50.000Z</time>
      </trkpt>
      <trkpt lat="45.55874" lon="6.60181">
        <ele>1389.5999755859</ele>
        <time>2014-01-31T14:13:51.000Z</time>
      </trkpt>
      <trkpt lat="45.55878" lon="6.6019">
        <ele>1389</ele>
        <time>2014-01-31T14:13:52.000Z</time>
      </trkpt>
      <trkpt lat="45.55883" lon="6.60197">
        <ele>1388.5999755859</ele>
        <time>2014-01-31T14:13:53.000Z</time>
      </trkpt>
      <trkpt lat="45.55887" lon="6.60205">
        <ele>1388.1999511719</ele>
        <time>2014-01-31T14:13:54.000Z</time>
      </trkpt>
      <trkpt lat="45.55891" lon="6.60212">
        <ele>1388</ele>
        <time>2014-01-31T14:13:55.000Z</time>
      </trkpt>
      <trkpt lat="45.55895" lon="6.6022">
        <ele>1386.8000488281</ele>
        <time>2014-01-31T14:13:56.000Z</time>
      </trkpt>
      <trkpt lat="45.55899" lon="6.60228">
        <ele>1386</ele>
        <time>2014-01-31T14:13:57.000Z</time>
      </trkpt>
      <trkpt lat="45.55903" lon="6.60235">
        <ele>1385.1999511719</ele>
        <time>2014-01-31T14:13:58.000Z</time>
      </trkpt>
      <trkpt lat="45.55907" lon="6.60244">
        <ele>1384.5999755859</ele>
        <time>2014-01-31T14:13:59.000Z</time>
      </trkpt>
      <trkpt lat="45.55911" lon="6.60253">
        <ele>1384</ele>
        <time>2014-01-31T14:14:00.000Z</time>
      </trkpt>
      <trkpt lat="45.55915" lon="6.60263">
        <ele>1383.1999511719</ele>
        <time>2014-01-31T14:14:01.000Z</time>
      </trkpt>
      <trkpt lat="45.55918" lon="6.60273">
        <ele>1382.5999755859</ele>
        <time>2014-01-31T14:14:02.000Z</time>
      </trkpt>
      <trkpt lat="45.5592" lon="6.60283">
        <ele>1381.8000488281</ele>
        <time>2014-01-31T14:14:03.000Z</time>
      </trkpt>
      <trkpt lat="45.55923" lon="6.60294">
        <ele>1380.8000488281</ele>
        <time>2014-01-31T14:14:04.000Z</time>
      </trkpt>
      <trkpt lat="45.55927" lon="6.60303">
        <ele>1380</ele>
        <time>2014-01-31T14:14:05.000Z</time>
      </trkpt>
      <trkpt lat="45.55931" lon="6.60313">
        <ele>1379.1999511719</ele>
        <time>2014-01-31T14:14:06.000Z</time>
      </trkpt>
      <trkpt lat="45.55934" lon="6.60324">
        <ele>1378.4000244141</ele>
        <time>2014-01-31T14:14:07.000Z</time>
      </trkpt>
      <trkpt lat="45.55938" lon="6.60333">
        <ele>1377.5999755859</ele>
        <time>2014-01-31T14:14:08.000Z</time>
      </trkpt>
      <trkpt lat="45.55941" lon="6.60343">
        <ele>1376.8000488281</ele>
        <time>2014-01-31T14:14:09.000Z</time>
      </trkpt>
      <trkpt lat="45.55945" lon="6.60351">
        <ele>1376.1999511719</ele>
        <time>2014-01-31T14:14:10.000Z</time>
      </trkpt>
      <trkpt lat="45.5595" lon="6.6036">
        <ele>1375.5999755859</ele>
        <time>2014-01-31T14:14:11.000Z</time>
      </trkpt>
      <trkpt lat="45.55953" lon="6.6037">
        <ele>1375</ele>
        <time>2014-01-31T14:14:12.000Z</time>
      </trkpt>
      <trkpt lat="45.55956" lon="6.60378">
        <ele>1374.1999511719</ele>
        <time>2014-01-31T14:14:13.000Z</time>
      </trkpt>
      <trkpt lat="45.5596" lon="6.60385">
        <ele>1373.4000244141</ele>
        <time>2014-01-31T14:14:14.000Z</time>
      </trkpt>
      <trkpt lat="45.55964" lon="6.60392">
        <ele>1372.5999755859</ele>
        <time>2014-01-31T14:14:15.000Z</time>
      </trkpt>
      <trkpt lat="45.55967" lon="6.60398">
        <ele>1371.5999755859</ele>
        <time>2014-01-31T14:14:16.000Z</time>
      </trkpt>
      <trkpt lat="45.55969" lon="6.60406">
        <ele>1371</ele>
        <time>2014-01-31T14:14:17.000Z</time>
      </trkpt>
      <trkpt lat="45.55971" lon="6.60414">
        <ele>1370.4000244141</ele>
        <time>2014-01-31T14:14:18.000Z</time>
      </trkpt>
      <trkpt lat="45.55974" lon="6.60422">
        <ele>1369.8000488281</ele>
        <time>2014-01-31T14:14:19.000Z</time>
      </trkpt>
      <trkpt lat="45.55978" lon="6.6043">
        <ele>1368.1999511719</ele>
        <time>2014-01-31T14:14:20.000Z</time>
      </trkpt>
      <trkpt lat="45.55983" lon="6.60436">
        <ele>1367.4000244141</ele>
        <time>2014-01-31T14:14:21.000Z</time>
      </trkpt>
      <trkpt lat="45.55988" lon="6.60443">
        <ele>1366.5999755859</ele>
        <time>2014-01-31T14:14:22.000Z</time>
      </trkpt>
      <trkpt lat="45.55993" lon="6.60449">
        <ele>1366</ele>
        <time>2014-01-31T14:14:23.000Z</time>
      </trkpt>
      <trkpt lat="45.55998" lon="6.60454">
        <ele>1365.1999511719</ele>
        <time>2014-01-31T14:14:24.000Z</time>
      </trkpt>
      <trkpt lat="45.56003" lon="6.60461">
        <ele>1364.4000244141</ele>
        <time>2014-01-31T14:14:25.000Z</time>
      </trkpt>
      <trkpt lat="45.56009" lon="6.60468">
        <ele>1363.8000488281</ele>
        <time>2014-01-31T14:14:26.000Z</time>
      </trkpt>
      <trkpt lat="45.56014" lon="6.60475">
        <ele>1363.1999511719</ele>
        <time>2014-01-31T14:14:27.000Z</time>
      </trkpt>
      <trkpt lat="45.56018" lon="6.60483">
        <ele>1362.5999755859</ele>
        <time>2014-01-31T14:14:28.000Z</time>
      </trkpt>
      <trkpt lat="45.56023" lon="6.60491">
        <ele>1362.1999511719</ele>
        <time>2014-01-31T14:14:29.000Z</time>
      </trkpt>
      <trkpt lat="45.56028" lon="6.60497">
        <ele>1361.8000488281</ele>
        <time>2014-01-31T14:14:30.000Z</time>
      </trkpt>
      <trkpt lat="45.56033" lon="6.60505">
        <ele>1361</ele>
        <time>2014-01-31T14:14:31.000Z</time>
      </trkpt>
      <trkpt lat="45.56037" lon="6.60513">
        <ele>1360.1999511719</ele>
        <time>2014-01-31T14:14:32.000Z</time>
      </trkpt>
      <trkpt lat="45.56041" lon="6.60521">
        <ele>1359.1999511719</ele>
        <time>2014-01-31T14:14:33.000Z</time>
      </trkpt>
      <trkpt lat="45.56044" lon="6.6053">
        <ele>1358.4000244141</ele>
        <time>2014-01-31T14:14:34.000Z</time>
      </trkpt>
      <trkpt lat="45.56046" lon="6.60539">
        <ele>1357.5999755859</ele>
        <time>2014-01-31T14:14:35.000Z</time>
      </trkpt>
      <trkpt lat="45.56047" lon="6.60546">
        <ele>1357</ele>
        <time>2014-01-31T14:14:36.000Z</time>
      </trkpt>
      <trkpt lat="45.56047" lon="6.60552">
        <ele>1356.4000244141</ele>
        <time>2014-01-31T14:14:37.000Z</time>
      </trkpt>
      <trkpt lat="45.56051" lon="6.60549">
        <ele>1355.5999755859</ele>
        <time>2014-01-31T14:14:38.000Z</time>
      </trkpt>
      <trkpt lat="45.56049" lon="6.60553">
        <ele>1354.8000488281</ele>
        <time>2014-01-31T14:14:39.000Z</time>
      </trkpt>
      <trkpt lat="45.56047" lon="6.60556">
        <ele>1354</ele>
        <time>2014-01-31T14:14:40.000Z</time>
      </trkpt>
      <trkpt lat="45.56045" lon="6.60557">
        <ele>1353</ele>
        <time>2014-01-31T14:14:41.000Z</time>
      </trkpt>
      <trkpt lat="45.56044" lon="6.60558">
        <ele>1352.4000244141</ele>
        <time>2014-01-31T14:14:42.000Z</time>
      </trkpt>
      <trkpt lat="45.56042" lon="6.6056">
        <ele>1351.8000488281</ele>
        <time>2014-01-31T14:14:43.000Z</time>
      </trkpt>
      <trkpt lat="45.56041" lon="6.60561">
        <ele>1350.5999755859</ele>
        <time>2014-01-31T14:14:44.000Z</time>
      </trkpt>
      <trkpt lat="45.5604" lon="6.60561">
        <ele>1350.4000244141</ele>
        <time>2014-01-31T14:14:45.000Z</time>
      </trkpt>
      <trkpt lat="45.56039" lon="6.60562">
        <ele>1350.1999511719</ele>
        <time>2014-01-31T14:14:46.000Z</time>
      </trkpt>
      <trkpt lat="45.56038" lon="6.60563">
        <ele>1350</ele>
        <time>2014-01-31T14:14:47.000Z</time>
      </trkpt>
      <trkpt lat="45.56036" lon="6.60564">
        <ele>1350</ele>
        <time>2014-01-31T14:14:48.000Z</time>
      </trkpt>
      <trkpt lat="45.56035" lon="6.60565">
        <ele>1350</ele>
        <time>2014-01-31T14:14:50.000Z</time>
      </trkpt>
      <trkpt lat="45.56034" lon="6.60566">
        <ele>1350.1999511719</ele>
        <time>2014-01-31T14:14:51.000Z</time>
      </trkpt>
      <trkpt lat="45.56034" lon="6.60566">
        <ele>1350.1999511719</ele>
        <time>2014-01-31T14:14:52.000Z</time>
      </trkpt>
      <trkpt lat="45.56033" lon="6.60565">
        <ele>1350.1999511719</ele>
        <time>2014-01-31T14:14:53.000Z</time>
      </trkpt>
      <trkpt lat="45.56049" lon="6.60542">
        <ele>1350.1999511719</ele>
        <time>2014-01-31T14:14:54.000Z</time>
      </trkpt>
      <trkpt lat="45.56049" lon="6.60542">
        <ele>1350.1999511719</ele>
        <time>2014-01-31T14:14:55.000Z</time>
      </trkpt>
      <trkpt lat="45.56052" lon="6.60539">
        <ele>1350.1999511719</ele>
        <time>2014-01-31T14:14:58.000Z</time>
      </trkpt>
      <trkpt lat="45.56052" lon="6.6054">
        <ele>1350.1999511719</ele>
        <time>2014-01-31T14:14:59.000Z</time>
      </trkpt>
      <trkpt lat="45.56053" lon="6.6054">
        <ele>1350.1999511719</ele>
        <time>2014-01-31T14:15:00.000Z</time>
      </trkpt>
      <trkpt lat="45.56053" lon="6.60541">
        <ele>1350</ele>
        <time>2014-01-31T14:15:01.000Z</time>
      </trkpt>
      <trkpt lat="45.56053" lon="6.60541">
        <ele>1350</ele>
        <time>2014-01-31T14:15:02.000Z</time>
      </trkpt>
      <trkpt lat="45.56054" lon="6.60543">
        <ele>1350</ele>
        <time>2014-01-31T14:15:03.000Z</time>
      </trkpt>
      <trkpt lat="45.56054" lon="6.60542">
        <ele>1350</ele>
        <time>2014-01-31T14:15:04.000Z</time>
      </trkpt>
      <trkpt lat="45.56054" lon="6.60542">
        <ele>1350</ele>
        <time>2014-01-31T14:15:05.000Z</time>
      </trkpt>
      <trkpt lat="45.56054" lon="6.60542">
        <ele>1350</ele>
        <time>2014-01-31T14:15:06.000Z</time>
      </trkpt>
      <trkpt lat="45.56054" lon="6.60542">
        <ele>1350</ele>
        <time>2014-01-31T14:15:07.000Z</time>
      </trkpt>
      <trkpt lat="45.56054" lon="6.60542">
        <ele>1350</ele>
        <time>2014-01-31T14:15:08.000Z</time>
      </trkpt>
      <trkpt lat="45.56054" lon="6.60542">
        <ele>1350</ele>
        <time>2014-01-31T14:15:09.000Z</time>
      </trkpt>
      <trkpt lat="45.56054" lon="6.60542">
        <ele>1350</ele>
        <time>2014-01-31T14:15:12.000Z</time>
      </trkpt>
      <trkpt lat="45.56054" lon="6.60542">
        <ele>1350</ele>
        <time>2014-01-31T14:15:13.000Z</time>
      </trkpt>
      <trkpt lat="45.56054" lon="6.60542">
        <ele>1350</ele>
        <time>2014-01-31T14:15:14.000Z</time>
      </trkpt>
      <trkpt lat="45.56054" lon="6.60542">
        <ele>1350</ele>
        <time>2014-01-31T14:15:15.000Z</time>
      </trkpt>
      <trkpt lat="45.56054" lon="6.60542">
        <ele>1350</ele>
        <time>2014-01-31T14:15:16.000Z</time>
      </trkpt>
      <trkpt lat="45.56053" lon="6.60542">
        <ele>1350</ele>
        <time>2014-01-31T14:15:17.000Z</time>
      </trkpt>
      <trkpt lat="45.56054" lon="6.60541">
        <ele>1350</ele>
        <time>2014-01-31T14:15:18.000Z</time>
      </trkpt>
      <trkpt lat="45.56054" lon="6.60541">
        <ele>1350</ele>
        <time>2014-01-31T14:15:19.000Z</time>
      </trkpt>
      <trkpt lat="45.56055" lon="6.6054">
        <ele>1350</ele>
        <time>2014-01-31T14:15:21.000Z</time>
      </trkpt>
      <trkpt lat="45.56055" lon="6.6054">
        <ele>1350</ele>
        <time>2014-01-31T14:15:22.000Z</time>
      </trkpt>
      <trkpt lat="45.56055" lon="6.6054">
        <ele>1350</ele>
        <time>2014-01-31T14:15:23.000Z</time>
      </trkpt>
      <trkpt lat="45.56054" lon="6.60539">
        <ele>1350</ele>
        <time>2014-01-31T14:15:24.000Z</time>
      </trkpt>
      <trkpt lat="45.56057" lon="6.60539">
        <ele>1350</ele>
        <time>2014-01-31T14:15:25.000Z</time>
      </trkpt>
      <trkpt lat="45.56056" lon="6.60539">
        <ele>1350</ele>
        <time>2014-01-31T14:15:26.000Z</time>
      </trkpt>
      <trkpt lat="45.56056" lon="6.60539">
        <ele>1350</ele>
        <time>2014-01-31T14:15:27.000Z</time>
      </trkpt>
      <trkpt lat="45.56056" lon="6.60539">
        <ele>1350</ele>
        <time>2014-01-31T14:15:29.000Z</time>
      </trkpt>
      <trkpt lat="45.56056" lon="6.60539">
        <ele>1350</ele>
        <time>2014-01-31T14:15:30.000Z</time>
      </trkpt>
      <trkpt lat="45.56056" lon="6.60539">
        <ele>1350</ele>
        <time>2014-01-31T14:15:31.000Z</time>
      </trkpt>
      <trkpt lat="45.56056" lon="6.60539">
        <ele>1349.8000488281</ele>
        <time>2014-01-31T14:15:32.000Z</time>
      </trkpt>
      <trkpt lat="45.56056" lon="6.60539">
        <ele>1349.8000488281</ele>
        <time>2014-01-31T14:15:33.000Z</time>
      </trkpt>
      <trkpt lat="45.56056" lon="6.60538">
        <ele>1349.8000488281</ele>
        <time>2014-01-31T14:15:34.000Z</time>
      </trkpt>
      <trkpt lat="45.56058" lon="6.60536">
        <ele>1349.8000488281</ele>
        <time>2014-01-31T14:15:35.000Z</time>
      </trkpt>
      <trkpt lat="45.56059" lon="6.60535">
        <ele>1349.5999755859</ele>
        <time>2014-01-31T14:15:36.000Z</time>
      </trkpt>
      <trkpt lat="45.5606" lon="6.60534">
        <ele>1349.5999755859</ele>
        <time>2014-01-31T14:15:37.000Z</time>
      </trkpt>
      <trkpt lat="45.5606" lon="6.60533">
        <ele>1349.5999755859</ele>
        <time>2014-01-31T14:15:38.000Z</time>
      </trkpt>
      <trkpt lat="45.5606" lon="6.60534">
        <ele>1349.4000244141</ele>
        <time>2014-01-31T14:15:39.000Z</time>
      </trkpt>
      <trkpt lat="45.5606" lon="6.60534">
        <ele>1349.1999511719</ele>
        <time>2014-01-31T14:15:40.000Z</time>
      </trkpt>
      <trkpt lat="45.5606" lon="6.60535">
        <ele>1349.1999511719</ele>
        <time>2014-01-31T14:15:41.000Z</time>
      </trkpt>
      <trkpt lat="45.56059" lon="6.60538">
        <ele>1349.1999511719</ele>
        <time>2014-01-31T14:15:42.000Z</time>
      </trkpt>
      <trkpt lat="45.56059" lon="6.60541">
        <ele>1349.1999511719</ele>
        <time>2014-01-31T14:15:43.000Z</time>
      </trkpt>
      <trkpt lat="45.56058" lon="6.60544">
        <ele>1349</ele>
        <time>2014-01-31T14:15:44.000Z</time>
      </trkpt>
      <trkpt lat="45.56057" lon="6.60548">
        <ele>1349</ele>
        <time>2014-01-31T14:15:45.000Z</time>
      </trkpt>
      <trkpt lat="45.56055" lon="6.60553">
        <ele>1349</ele>
        <time>2014-01-31T14:15:46.000Z</time>
      </trkpt>
      <trkpt lat="45.56052" lon="6.60558">
        <ele>1348.8000488281</ele>
        <time>2014-01-31T14:15:47.000Z</time>
      </trkpt>
      <trkpt lat="45.56049" lon="6.60563">
        <ele>1348.5999755859</ele>
        <time>2014-01-31T14:15:48.000Z</time>
      </trkpt>
      <trkpt lat="45.56046" lon="6.60568">
        <ele>1348.4000244141</ele>
        <time>2014-01-31T14:15:49.000Z</time>
      </trkpt>
      <trkpt lat="45.56042" lon="6.60574">
        <ele>1348.1999511719</ele>
        <time>2014-01-31T14:15:50.000Z</time>
      </trkpt>
      <trkpt lat="45.56038" lon="6.60579">
        <ele>1348</ele>
        <time>2014-01-31T14:15:51.000Z</time>
      </trkpt>
      <trkpt lat="45.56034" lon="6.60585">
        <ele>1347.8000488281</ele>
        <time>2014-01-31T14:15:52.000Z</time>
      </trkpt>
      <trkpt lat="45.56031" lon="6.6059">
        <ele>1347.4000244141</ele>
        <time>2014-01-31T14:15:53.000Z</time>
      </trkpt>
      <trkpt lat="45.56028" lon="6.60597">
        <ele>1347</ele>
        <time>2014-01-31T14:15:54.000Z</time>
      </trkpt>
      <trkpt lat="45.56026" lon="6.60604">
        <ele>1346.5999755859</ele>
        <time>2014-01-31T14:15:55.000Z</time>
      </trkpt>
      <trkpt lat="45.56024" lon="6.60611">
        <ele>1346.1999511719</ele>
        <time>2014-01-31T14:15:56.000Z</time>
      </trkpt>
      <trkpt lat="45.56027" lon="6.60617">
        <ele>1345.1999511719</ele>
        <time>2014-01-31T14:15:57.000Z</time>
      </trkpt>
      <trkpt lat="45.56028" lon="6.60623">
        <ele>1344.5999755859</ele>
        <time>2014-01-31T14:15:58.000Z</time>
      </trkpt>
      <trkpt lat="45.5603" lon="6.60629">
        <ele>1344.1999511719</ele>
        <time>2014-01-31T14:15:59.000Z</time>
      </trkpt>
      <trkpt lat="45.56033" lon="6.60635">
        <ele>1343.8000488281</ele>
        <time>2014-01-31T14:16:00.000Z</time>
      </trkpt>
      <trkpt lat="45.56035" lon="6.60642">
        <ele>1343.4000244141</ele>
        <time>2014-01-31T14:16:01.000Z</time>
      </trkpt>
      <trkpt lat="45.56039" lon="6.60648">
        <ele>1343</ele>
        <time>2014-01-31T14:16:02.000Z</time>
      </trkpt>
      <trkpt lat="45.56043" lon="6.60655">
        <ele>1342.4000244141</ele>
        <time>2014-01-31T14:16:03.000Z</time>
      </trkpt>
      <trkpt lat="45.56048" lon="6.60661">
        <ele>1342</ele>
        <time>2014-01-31T14:16:04.000Z</time>
      </trkpt>
      <trkpt lat="45.56052" lon="6.60668">
        <ele>1341.5999755859</ele>
        <time>2014-01-31T14:16:05.000Z</time>
      </trkpt>
      <trkpt lat="45.56057" lon="6.60675">
        <ele>1341</ele>
        <time>2014-01-31T14:16:06.000Z</time>
      </trkpt>
      <trkpt lat="45.56062" lon="6.60682">
        <ele>1340.5999755859</ele>
        <time>2014-01-31T14:16:07.000Z</time>
      </trkpt>
      <trkpt lat="45.56066" lon="6.60689">
        <ele>1340.1999511719</ele>
        <time>2014-01-31T14:16:08.000Z</time>
      </trkpt>
      <trkpt lat="45.56071" lon="6.60695">
        <ele>1339.8000488281</ele>
        <time>2014-01-31T14:16:09.000Z</time>
      </trkpt>
      <trkpt lat="45.56077" lon="6.607">
        <ele>1339.5999755859</ele>
        <time>2014-01-31T14:16:10.000Z</time>
      </trkpt>
      <trkpt lat="45.56083" lon="6.60705">
        <ele>1339</ele>
        <time>2014-01-31T14:16:11.000Z</time>
      </trkpt>
      <trkpt lat="45.56088" lon="6.6071">
        <ele>1338.4000244141</ele>
        <time>2014-01-31T14:16:12.000Z</time>
      </trkpt>
      <trkpt lat="45.56095" lon="6.60714">
        <ele>1337.5999755859</ele>
        <time>2014-01-31T14:16:13.000Z</time>
      </trkpt>
      <trkpt lat="45.56101" lon="6.60717">
        <ele>1336.5999755859</ele>
        <time>2014-01-31T14:16:14.000Z</time>
      </trkpt>
      <trkpt lat="45.56108" lon="6.6072">
        <ele>1336</ele>
        <time>2014-01-31T14:16:15.000Z</time>
      </trkpt>
      <trkpt lat="45.56114" lon="6.60723">
        <ele>1335.4000244141</ele>
        <time>2014-01-31T14:16:16.000Z</time>
      </trkpt>
      <trkpt lat="45.56119" lon="6.60724">
        <ele>1334.5999755859</ele>
        <time>2014-01-31T14:16:17.000Z</time>
      </trkpt>
      <trkpt lat="45.56124" lon="6.60725">
        <ele>1334</ele>
        <time>2014-01-31T14:16:18.000Z</time>
      </trkpt>
      <trkpt lat="45.56129" lon="6.60726">
        <ele>1333.4000244141</ele>
        <time>2014-01-31T14:16:19.000Z</time>
      </trkpt>
      <trkpt lat="45.56131" lon="6.60728">
        <ele>1332.8000488281</ele>
        <time>2014-01-31T14:16:20.000Z</time>
      </trkpt>
      <trkpt lat="45.56128" lon="6.60731">
        <ele>1331.5999755859</ele>
        <time>2014-01-31T14:16:21.000Z</time>
      </trkpt>
      <trkpt lat="45.56125" lon="6.60734">
        <ele>1331</ele>
        <time>2014-01-31T14:16:22.000Z</time>
      </trkpt>
      <trkpt lat="45.56122" lon="6.60735">
        <ele>1330.8000488281</ele>
        <time>2014-01-31T14:16:23.000Z</time>
      </trkpt>
      <trkpt lat="45.56119" lon="6.60736">
        <ele>1330.4000244141</ele>
        <time>2014-01-31T14:16:24.000Z</time>
      </trkpt>
      <trkpt lat="45.56115" lon="6.60737">
        <ele>1330.1999511719</ele>
        <time>2014-01-31T14:16:25.000Z</time>
      </trkpt>
      <trkpt lat="45.56111" lon="6.60739">
        <ele>1329.8000488281</ele>
        <time>2014-01-31T14:16:26.000Z</time>
      </trkpt>
      <trkpt lat="45.56106" lon="6.6074">
        <ele>1329.5999755859</ele>
        <time>2014-01-31T14:16:27.000Z</time>
      </trkpt>
      <trkpt lat="45.56102" lon="6.60743">
        <ele>1329.1999511719</ele>
        <time>2014-01-31T14:16:28.000Z</time>
      </trkpt>
      <trkpt lat="45.56097" lon="6.60745">
        <ele>1328.8000488281</ele>
        <time>2014-01-31T14:16:29.000Z</time>
      </trkpt>
      <trkpt lat="45.56092" lon="6.60747">
        <ele>1328.4000244141</ele>
        <time>2014-01-31T14:16:30.000Z</time>
      </trkpt>
      <trkpt lat="45.56086" lon="6.60749">
        <ele>1328</ele>
        <time>2014-01-31T14:16:31.000Z</time>
      </trkpt>
      <trkpt lat="45.56081" lon="6.60751">
        <ele>1327.8000488281</ele>
        <time>2014-01-31T14:16:32.000Z</time>
      </trkpt>
      <trkpt lat="45.56075" lon="6.60751">
        <ele>1327.4000244141</ele>
        <time>2014-01-31T14:16:33.000Z</time>
      </trkpt>
      <trkpt lat="45.56069" lon="6.6075">
        <ele>1327.1999511719</ele>
        <time>2014-01-31T14:16:34.000Z</time>
      </trkpt>
      <trkpt lat="45.56063" lon="6.60748">
        <ele>1326.8000488281</ele>
        <time>2014-01-31T14:16:35.000Z</time>
      </trkpt>
      <trkpt lat="45.56058" lon="6.60744">
        <ele>1326.1999511719</ele>
        <time>2014-01-31T14:16:36.000Z</time>
      </trkpt>
      <trkpt lat="45.56053" lon="6.6074">
        <ele>1325.8000488281</ele>
        <time>2014-01-31T14:16:37.000Z</time>
      </trkpt>
      <trkpt lat="45.56048" lon="6.60734">
        <ele>1325.5999755859</ele>
        <time>2014-01-31T14:16:38.000Z</time>
      </trkpt>
      <trkpt lat="45.56043" lon="6.60728">
        <ele>1325.1999511719</ele>
        <time>2014-01-31T14:16:39.000Z</time>
      </trkpt>
      <trkpt lat="45.56038" lon="6.60723">
        <ele>1324.8000488281</ele>
        <time>2014-01-31T14:16:40.000Z</time>
      </trkpt>
      <trkpt lat="45.56032" lon="6.60717">
        <ele>1324.1999511719</ele>
        <time>2014-01-31T14:16:41.000Z</time>
      </trkpt>
      <trkpt lat="45.56027" lon="6.60712">
        <ele>1323.4000244141</ele>
        <time>2014-01-31T14:16:42.000Z</time>
      </trkpt>
      <trkpt lat="45.56021" lon="6.60707">
        <ele>1322.8000488281</ele>
        <time>2014-01-31T14:16:43.000Z</time>
      </trkpt>
      <trkpt lat="45.56016" lon="6.60702">
        <ele>1322.1999511719</ele>
        <time>2014-01-31T14:16:44.000Z</time>
      </trkpt>
      <trkpt lat="45.5601" lon="6.60698">
        <ele>1320.8000488281</ele>
        <time>2014-01-31T14:16:45.000Z</time>
      </trkpt>
      <trkpt lat="45.56004" lon="6.60694">
        <ele>1320.1999511719</ele>
        <time>2014-01-31T14:16:46.000Z</time>
      </trkpt>
      <trkpt lat="45.55999" lon="6.60688">
        <ele>1319.4000244141</ele>
        <time>2014-01-31T14:16:47.000Z</time>
      </trkpt>
      <trkpt lat="45.55994" lon="6.60683">
        <ele>1318.8000488281</ele>
        <time>2014-01-31T14:16:48.000Z</time>
      </trkpt>
      <trkpt lat="45.55989" lon="6.60677">
        <ele>1318.1999511719</ele>
        <time>2014-01-31T14:16:49.000Z</time>
      </trkpt>
      <trkpt lat="45.55984" lon="6.60671">
        <ele>1317.8000488281</ele>
        <time>2014-01-31T14:16:50.000Z</time>
      </trkpt>
      <trkpt lat="45.5598" lon="6.60665">
        <ele>1317.4000244141</ele>
        <time>2014-01-31T14:16:51.000Z</time>
      </trkpt>
      <trkpt lat="45.55975" lon="6.6066">
        <ele>1316.5999755859</ele>
        <time>2014-01-31T14:16:52.000Z</time>
      </trkpt>
      <trkpt lat="45.5597" lon="6.60654">
        <ele>1315.8000488281</ele>
        <time>2014-01-31T14:16:53.000Z</time>
      </trkpt>
      <trkpt lat="45.55965" lon="6.60648">
        <ele>1315</ele>
        <time>2014-01-31T14:16:54.000Z</time>
      </trkpt>
      <trkpt lat="45.5596" lon="6.60644">
        <ele>1314.1999511719</ele>
        <time>2014-01-31T14:16:55.000Z</time>
      </trkpt>
      <trkpt lat="45.55953" lon="6.60641">
        <ele>1313.5999755859</ele>
        <time>2014-01-31T14:16:56.000Z</time>
      </trkpt>
      <trkpt lat="45.55946" lon="6.60637">
        <ele>1312.8000488281</ele>
        <time>2014-01-31T14:16:57.000Z</time>
      </trkpt>
      <trkpt lat="45.55939" lon="6.60633">
        <ele>1312.1999511719</ele>
        <time>2014-01-31T14:16:58.000Z</time>
      </trkpt>
      <trkpt lat="45.55932" lon="6.60629">
        <ele>1311.8000488281</ele>
        <time>2014-01-31T14:16:59.000Z</time>
      </trkpt>
      <trkpt lat="45.55926" lon="6.60624">
        <ele>1311.1999511719</ele>
        <time>2014-01-31T14:17:00.000Z</time>
      </trkpt>
      <trkpt lat="45.55919" lon="6.60621">
        <ele>1310.8000488281</ele>
        <time>2014-01-31T14:17:01.000Z</time>
      </trkpt>
      <trkpt lat="45.55913" lon="6.60616">
        <ele>1310.4000244141</ele>
        <time>2014-01-31T14:17:02.000Z</time>
      </trkpt>
      <trkpt lat="45.55906" lon="6.60613">
        <ele>1309.8000488281</ele>
        <time>2014-01-31T14:17:03.000Z</time>
      </trkpt>
      <trkpt lat="45.559" lon="6.60607">
        <ele>1309</ele>
        <time>2014-01-31T14:17:04.000Z</time>
      </trkpt>
      <trkpt lat="45.55894" lon="6.60601">
        <ele>1308.4000244141</ele>
        <time>2014-01-31T14:17:05.000Z</time>
      </trkpt>
      <trkpt lat="45.5589" lon="6.60594">
        <ele>1307.8000488281</ele>
        <time>2014-01-31T14:17:06.000Z</time>
      </trkpt>
      <trkpt lat="45.55886" lon="6.60588">
        <ele>1307.1999511719</ele>
        <time>2014-01-31T14:17:07.000Z</time>
      </trkpt>
      <trkpt lat="45.55882" lon="6.60582">
        <ele>1306.5999755859</ele>
        <time>2014-01-31T14:17:08.000Z</time>
      </trkpt>
      <trkpt lat="45.55877" lon="6.60576">
        <ele>1305.1999511719</ele>
        <time>2014-01-31T14:17:09.000Z</time>
      </trkpt>
      <trkpt lat="45.55873" lon="6.60571">
        <ele>1304.5999755859</ele>
        <time>2014-01-31T14:17:10.000Z</time>
      </trkpt>
      <trkpt lat="45.55868" lon="6.60567">
        <ele>1304</ele>
        <time>2014-01-31T14:17:11.000Z</time>
      </trkpt>
      <trkpt lat="45.55864" lon="6.60563">
        <ele>1303.4000244141</ele>
        <time>2014-01-31T14:17:12.000Z</time>
      </trkpt>
      <trkpt lat="45.5586" lon="6.60558">
        <ele>1302.5999755859</ele>
        <time>2014-01-31T14:17:13.000Z</time>
      </trkpt>
      <trkpt lat="45.55857" lon="6.60552">
        <ele>1301.5999755859</ele>
        <time>2014-01-31T14:17:14.000Z</time>
      </trkpt>
      <trkpt lat="45.55854" lon="6.60546">
        <ele>1300.8000488281</ele>
        <time>2014-01-31T14:17:15.000Z</time>
      </trkpt>
      <trkpt lat="45.5585" lon="6.60538">
        <ele>1300.1999511719</ele>
        <time>2014-01-31T14:17:16.000Z</time>
      </trkpt>
      <trkpt lat="45.55847" lon="6.6053">
        <ele>1300</ele>
        <time>2014-01-31T14:17:17.000Z</time>
      </trkpt>
      <trkpt lat="45.55845" lon="6.60521">
        <ele>1299.5999755859</ele>
        <time>2014-01-31T14:17:18.000Z</time>
      </trkpt>
      <trkpt lat="45.55843" lon="6.60511">
        <ele>1299.1999511719</ele>
        <time>2014-01-31T14:17:19.000Z</time>
      </trkpt>
      <trkpt lat="45.55841" lon="6.605">
        <ele>1298.5999755859</ele>
        <time>2014-01-31T14:17:20.000Z</time>
      </trkpt>
      <trkpt lat="45.55838" lon="6.60491">
        <ele>1298</ele>
        <time>2014-01-31T14:17:21.000Z</time>
      </trkpt>
      <trkpt lat="45.55834" lon="6.6048">
        <ele>1297.4000244141</ele>
        <time>2014-01-31T14:17:22.000Z</time>
      </trkpt>
      <trkpt lat="45.55831" lon="6.6047">
        <ele>1296.8000488281</ele>
        <time>2014-01-31T14:17:23.000Z</time>
      </trkpt>
      <trkpt lat="45.55828" lon="6.6046">
        <ele>1296.1999511719</ele>
        <time>2014-01-31T14:17:24.000Z</time>
      </trkpt>
      <trkpt lat="45.55824" lon="6.60452">
        <ele>1295.5999755859</ele>
        <time>2014-01-31T14:17:25.000Z</time>
      </trkpt>
      <trkpt lat="45.5582" lon="6.60443">
        <ele>1294.8000488281</ele>
        <time>2014-01-31T14:17:26.000Z</time>
      </trkpt>
      <trkpt lat="45.55815" lon="6.60434">
        <ele>1294</ele>
        <time>2014-01-31T14:17:27.000Z</time>
      </trkpt>
      <trkpt lat="45.55811" lon="6.60424">
        <ele>1293.1999511719</ele>
        <time>2014-01-31T14:17:28.000Z</time>
      </trkpt>
      <trkpt lat="45.55807" lon="6.60414">
        <ele>1292.1999511719</ele>
        <time>2014-01-31T14:17:29.000Z</time>
      </trkpt>
      <trkpt lat="45.55802" lon="6.60404">
        <ele>1291.4000244141</ele>
        <time>2014-01-31T14:17:30.000Z</time>
      </trkpt>
      <trkpt lat="45.55797" lon="6.60396">
        <ele>1290.5999755859</ele>
        <time>2014-01-31T14:17:31.000Z</time>
      </trkpt>
      <trkpt lat="45.55792" lon="6.60387">
        <ele>1289.8000488281</ele>
        <time>2014-01-31T14:17:32.000Z</time>
      </trkpt>
      <trkpt lat="45.55786" lon="6.6038">
        <ele>1288.1999511719</ele>
        <time>2014-01-31T14:17:33.000Z</time>
      </trkpt>
      <trkpt lat="45.55779" lon="6.60373">
        <ele>1287.1999511719</ele>
        <time>2014-01-31T14:17:34.000Z</time>
      </trkpt>
      <trkpt lat="45.55773" lon="6.60367">
        <ele>1286.4000244141</ele>
        <time>2014-01-31T14:17:35.000Z</time>
      </trkpt>
      <trkpt lat="45.55766" lon="6.60361">
        <ele>1285.4000244141</ele>
        <time>2014-01-31T14:17:36.000Z</time>
      </trkpt>
      <trkpt lat="45.55759" lon="6.60355">
        <ele>1284.4000244141</ele>
        <time>2014-01-31T14:17:37.000Z</time>
      </trkpt>
      <trkpt lat="45.55753" lon="6.60349">
        <ele>1283.4000244141</ele>
        <time>2014-01-31T14:17:38.000Z</time>
      </trkpt>
      <trkpt lat="45.55749" lon="6.6034">
        <ele>1282.8000488281</ele>
        <time>2014-01-31T14:17:39.000Z</time>
      </trkpt>
      <trkpt lat="45.55746" lon="6.60331">
        <ele>1282</ele>
        <time>2014-01-31T14:17:40.000Z</time>
      </trkpt>
      <trkpt lat="45.55742" lon="6.60322">
        <ele>1281.4000244141</ele>
        <time>2014-01-31T14:17:41.000Z</time>
      </trkpt>
      <trkpt lat="45.55739" lon="6.60313">
        <ele>1281</ele>
        <time>2014-01-31T14:17:42.000Z</time>
      </trkpt>
      <trkpt lat="45.55735" lon="6.60306">
        <ele>1280.4000244141</ele>
        <time>2014-01-31T14:17:43.000Z</time>
      </trkpt>
      <trkpt lat="45.5573" lon="6.60298">
        <ele>1279.5999755859</ele>
        <time>2014-01-31T14:17:44.000Z</time>
      </trkpt>
      <trkpt lat="45.55726" lon="6.60289">
        <ele>1278.8000488281</ele>
        <time>2014-01-31T14:17:45.000Z</time>
      </trkpt>
      <trkpt lat="45.55723" lon="6.6028">
        <ele>1278.1999511719</ele>
        <time>2014-01-31T14:17:46.000Z</time>
      </trkpt>
      <trkpt lat="45.55719" lon="6.6027">
        <ele>1277.4000244141</ele>
        <time>2014-01-31T14:17:47.000Z</time>
      </trkpt>
      <trkpt lat="45.55716" lon="6.60259">
        <ele>1277</ele>
        <time>2014-01-31T14:17:48.000Z</time>
      </trkpt>
      <trkpt lat="45.55712" lon="6.60249">
        <ele>1276.1999511719</ele>
        <time>2014-01-31T14:17:49.000Z</time>
      </trkpt>
      <trkpt lat="45.55707" lon="6.60239">
        <ele>1275.4000244141</ele>
        <time>2014-01-31T14:17:50.000Z</time>
      </trkpt>
      <trkpt lat="45.55701" lon="6.60229">
        <ele>1274.4000244141</ele>
        <time>2014-01-31T14:17:51.000Z</time>
      </trkpt>
      <trkpt lat="45.55696" lon="6.6022">
        <ele>1273.4000244141</ele>
        <time>2014-01-31T14:17:52.000Z</time>
      </trkpt>
      <trkpt lat="45.5569" lon="6.60211">
        <ele>1272.1999511719</ele>
        <time>2014-01-31T14:17:53.000Z</time>
      </trkpt>
      <trkpt lat="45.55686" lon="6.60203">
        <ele>1271.1999511719</ele>
        <time>2014-01-31T14:17:54.000Z</time>
      </trkpt>
      <trkpt lat="45.55682" lon="6.60196">
        <ele>1270.4000244141</ele>
        <time>2014-01-31T14:17:55.000Z</time>
      </trkpt>
      <trkpt lat="45.55679" lon="6.60189">
        <ele>1269.5999755859</ele>
        <time>2014-01-31T14:17:56.000Z</time>
      </trkpt>
      <trkpt lat="45.55675" lon="6.60183">
        <ele>1267.1999511719</ele>
        <time>2014-01-31T14:17:57.000Z</time>
      </trkpt>
      <trkpt lat="45.55672" lon="6.60177">
        <ele>1266</ele>
        <time>2014-01-31T14:17:58.000Z</time>
      </trkpt>
      <trkpt lat="45.55669" lon="6.60171">
        <ele>1265.4000244141</ele>
        <time>2014-01-31T14:17:59.000Z</time>
      </trkpt>
      <trkpt lat="45.55665" lon="6.60167">
        <ele>1264.5999755859</ele>
        <time>2014-01-31T14:18:00.000Z</time>
      </trkpt>
      <trkpt lat="45.55661" lon="6.60161">
        <ele>1264</ele>
        <time>2014-01-31T14:18:01.000Z</time>
      </trkpt>
      <trkpt lat="45.55657" lon="6.60156">
        <ele>1263.1999511719</ele>
        <time>2014-01-31T14:18:02.000Z</time>
      </trkpt>
      <trkpt lat="45.55652" lon="6.60151">
        <ele>1262.4000244141</ele>
        <time>2014-01-31T14:18:03.000Z</time>
      </trkpt>
      <trkpt lat="45.55647" lon="6.60146">
        <ele>1261.8000488281</ele>
        <time>2014-01-31T14:18:04.000Z</time>
      </trkpt>
      <trkpt lat="45.55643" lon="6.60141">
        <ele>1261.1999511719</ele>
        <time>2014-01-31T14:18:05.000Z</time>
      </trkpt>
      <trkpt lat="45.55637" lon="6.60137">
        <ele>1260.4000244141</ele>
        <time>2014-01-31T14:18:06.000Z</time>
      </trkpt>
      <trkpt lat="45.55632" lon="6.60132">
        <ele>1259.8000488281</ele>
        <time>2014-01-31T14:18:07.000Z</time>
      </trkpt>
      <trkpt lat="45.55627" lon="6.60128">
        <ele>1259.1999511719</ele>
        <time>2014-01-31T14:18:08.000Z</time>
      </trkpt>
      <trkpt lat="45.55622" lon="6.60124">
        <ele>1258.8000488281</ele>
        <time>2014-01-31T14:18:09.000Z</time>
      </trkpt>
      <trkpt lat="45.55616" lon="6.60119">
        <ele>1258.1999511719</ele>
        <time>2014-01-31T14:18:10.000Z</time>
      </trkpt>
      <trkpt lat="45.55611" lon="6.60115">
        <ele>1257.4000244141</ele>
        <time>2014-01-31T14:18:11.000Z</time>
      </trkpt>
      <trkpt lat="45.55606" lon="6.60111">
        <ele>1256.4000244141</ele>
        <time>2014-01-31T14:18:12.000Z</time>
      </trkpt>
      <trkpt lat="45.55601" lon="6.60106">
        <ele>1255.5999755859</ele>
        <time>2014-01-31T14:18:13.000Z</time>
      </trkpt>
      <trkpt lat="45.55596" lon="6.60102">
        <ele>1254.8000488281</ele>
        <time>2014-01-31T14:18:14.000Z</time>
      </trkpt>
      <trkpt lat="45.55591" lon="6.60098">
        <ele>1254</ele>
        <time>2014-01-31T14:18:15.000Z</time>
      </trkpt>
      <trkpt lat="45.55587" lon="6.60094">
        <ele>1253.1999511719</ele>
        <time>2014-01-31T14:18:16.000Z</time>
      </trkpt>
      <trkpt lat="45.55582" lon="6.6009">
        <ele>1252.5999755859</ele>
        <time>2014-01-31T14:18:17.000Z</time>
      </trkpt>
      <trkpt lat="45.55579" lon="6.60086">
        <ele>1252.1999511719</ele>
        <time>2014-01-31T14:18:18.000Z</time>
      </trkpt>
      <trkpt lat="45.55575" lon="6.60082">
        <ele>1251.5999755859</ele>
        <time>2014-01-31T14:18:19.000Z</time>
      </trkpt>
      <trkpt lat="45.55572" lon="6.60079">
        <ele>1250.8000488281</ele>
        <time>2014-01-31T14:18:20.000Z</time>
      </trkpt>
      <trkpt lat="45.55568" lon="6.60075">
        <ele>1249.1999511719</ele>
        <time>2014-01-31T14:18:21.000Z</time>
      </trkpt>
      <trkpt lat="45.55565" lon="6.60071">
        <ele>1248.5999755859</ele>
        <time>2014-01-31T14:18:22.000Z</time>
      </trkpt>
      <trkpt lat="45.55562" lon="6.60067">
        <ele>1248.1999511719</ele>
        <time>2014-01-31T14:18:23.000Z</time>
      </trkpt>
      <trkpt lat="45.55558" lon="6.60063">
        <ele>1247.8000488281</ele>
        <time>2014-01-31T14:18:24.000Z</time>
      </trkpt>
      <trkpt lat="45.55555" lon="6.60058">
        <ele>1247.5999755859</ele>
        <time>2014-01-31T14:18:25.000Z</time>
      </trkpt>
      <trkpt lat="45.55552" lon="6.60053">
        <ele>1247</ele>
        <time>2014-01-31T14:18:26.000Z</time>
      </trkpt>
      <trkpt lat="45.55549" lon="6.60048">
        <ele>1246.4000244141</ele>
        <time>2014-01-31T14:18:27.000Z</time>
      </trkpt>
      <trkpt lat="45.55545" lon="6.60043">
        <ele>1245.5999755859</ele>
        <time>2014-01-31T14:18:28.000Z</time>
      </trkpt>
      <trkpt lat="45.55541" lon="6.60039">
        <ele>1245</ele>
        <time>2014-01-31T14:18:29.000Z</time>
      </trkpt>
      <trkpt lat="45.55538" lon="6.60035">
        <ele>1244.1999511719</ele>
        <time>2014-01-31T14:18:30.000Z</time>
      </trkpt>
      <trkpt lat="45.55534" lon="6.60031">
        <ele>1243.4000244141</ele>
        <time>2014-01-31T14:18:31.000Z</time>
      </trkpt>
      <trkpt lat="45.5553" lon="6.60028">
        <ele>1242.8000488281</ele>
        <time>2014-01-31T14:18:32.000Z</time>
      </trkpt>
      <trkpt lat="45.55526" lon="6.60025">
        <ele>1242.1999511719</ele>
        <time>2014-01-31T14:18:33.000Z</time>
      </trkpt>
      <trkpt lat="45.55522" lon="6.60022">
        <ele>1241.8000488281</ele>
        <time>2014-01-31T14:18:34.000Z</time>
      </trkpt>
      <trkpt lat="45.55518" lon="6.60019">
        <ele>1241.1999511719</ele>
        <time>2014-01-31T14:18:35.000Z</time>
      </trkpt>
      <trkpt lat="45.55515" lon="6.60016">
        <ele>1240.5999755859</ele>
        <time>2014-01-31T14:18:36.000Z</time>
      </trkpt>
      <trkpt lat="45.55512" lon="6.60013">
        <ele>1240.1999511719</ele>
        <time>2014-01-31T14:18:37.000Z</time>
      </trkpt>
      <trkpt lat="45.55509" lon="6.60011">
        <ele>1240</ele>
        <time>2014-01-31T14:18:38.000Z</time>
      </trkpt>
      <trkpt lat="45.55505" lon="6.60009">
        <ele>1239.4000244141</ele>
        <time>2014-01-31T14:18:39.000Z</time>
      </trkpt>
      <trkpt lat="45.55501" lon="6.60007">
        <ele>1239</ele>
        <time>2014-01-31T14:18:40.000Z</time>
      </trkpt>
      <trkpt lat="45.55498" lon="6.60003">
        <ele>1238.4000244141</ele>
        <time>2014-01-31T14:18:41.000Z</time>
      </trkpt>
      <trkpt lat="45.55494" lon="6.6">
        <ele>1237.8000488281</ele>
        <time>2014-01-31T14:18:42.000Z</time>
      </trkpt>
      <trkpt lat="45.55492" lon="6.59994">
        <ele>1237.1999511719</ele>
        <time>2014-01-31T14:18:43.000Z</time>
      </trkpt>
      <trkpt lat="45.5549" lon="6.59989">
        <ele>1236</ele>
        <time>2014-01-31T14:18:44.000Z</time>
      </trkpt>
      <trkpt lat="45.55488" lon="6.59985">
        <ele>1235.1999511719</ele>
        <time>2014-01-31T14:18:45.000Z</time>
      </trkpt>
      <trkpt lat="45.55487" lon="6.59982">
        <ele>1234.4000244141</ele>
        <time>2014-01-31T14:18:46.000Z</time>
      </trkpt>
      <trkpt lat="45.55486" lon="6.59979">
        <ele>1233.8000488281</ele>
        <time>2014-01-31T14:18:47.000Z</time>
      </trkpt>
      <trkpt lat="45.55485" lon="6.59978">
        <ele>1233.1999511719</ele>
        <time>2014-01-31T14:18:48.000Z</time>
      </trkpt>
      <trkpt lat="45.55485" lon="6.59976">
        <ele>1232.8000488281</ele>
        <time>2014-01-31T14:18:49.000Z</time>
      </trkpt>
      <trkpt lat="45.55484" lon="6.59977">
        <ele>1232.4000244141</ele>
        <time>2014-01-31T14:18:50.000Z</time>
      </trkpt>
      <trkpt lat="45.55484" lon="6.59977">
        <ele>1232</ele>
        <time>2014-01-31T14:18:51.000Z</time>
      </trkpt>
      <trkpt lat="45.55484" lon="6.59977">
        <ele>1231.8000488281</ele>
        <time>2014-01-31T14:18:52.000Z</time>
      </trkpt>
      <trkpt lat="45.55484" lon="6.59977">
        <ele>1231.4000244141</ele>
        <time>2014-01-31T14:18:53.000Z</time>
      </trkpt>
      <trkpt lat="45.55484" lon="6.59977">
        <ele>1231.1999511719</ele>
        <time>2014-01-31T14:18:54.000Z</time>
      </trkpt>
      <trkpt lat="45.55484" lon="6.59977">
        <ele>1231.1999511719</ele>
        <time>2014-01-31T14:18:55.000Z</time>
      </trkpt>
      <trkpt lat="45.55484" lon="6.59977">
        <ele>1231</ele>
        <time>2014-01-31T14:18:56.000Z</time>
      </trkpt>
      <trkpt lat="45.55484" lon="6.59977">
        <ele>1230.8000488281</ele>
        <time>2014-01-31T14:18:57.000Z</time>
      </trkpt>
      <trkpt lat="45.55484" lon="6.59977">
        <ele>1230.5999755859</ele>
        <time>2014-01-31T14:18:58.000Z</time>
      </trkpt>
      <trkpt lat="45.55484" lon="6.59977">
        <ele>1230.5999755859</ele>
        <time>2014-01-31T14:18:59.000Z</time>
      </trkpt>
      <trkpt lat="45.55484" lon="6.59977">
        <ele>1230.4000244141</ele>
        <time>2014-01-31T14:19:00.000Z</time>
      </trkpt>
      <trkpt lat="45.55484" lon="6.59977">
        <ele>1230.5999755859</ele>
        <time>2014-01-31T14:19:01.000Z</time>
      </trkpt>
      <trkpt lat="45.55484" lon="6.59977">
        <ele>1230.8000488281</ele>
        <time>2014-01-31T14:19:02.000Z</time>
      </trkpt>
      <trkpt lat="45.55484" lon="6.59977">
        <ele>1231</ele>
        <time>2014-01-31T14:19:03.000Z</time>
      </trkpt>
      <trkpt lat="45.55484" lon="6.59977">
        <ele>1231.1999511719</ele>
        <time>2014-01-31T14:19:04.000Z</time>
      </trkpt>
      <trkpt lat="45.55484" lon="6.59977">
        <ele>1231.1999511719</ele>
        <time>2014-01-31T14:19:05.000Z</time>
      </trkpt>
      <trkpt lat="45.55484" lon="6.59977">
        <ele>1231.1999511719</ele>
        <time>2014-01-31T14:19:06.000Z</time>
      </trkpt>
      <trkpt lat="45.55484" lon="6.59977">
        <ele>1231.1999511719</ele>
        <time>2014-01-31T14:19:07.000Z</time>
      </trkpt>
      <trkpt lat="45.55484" lon="6.59977">
        <ele>1231.1999511719</ele>
        <time>2014-01-31T14:19:08.000Z</time>
      </trkpt>
      <trkpt lat="45.55484" lon="6.59977">
        <ele>1231.4000244141</ele>
        <time>2014-01-31T14:19:09.000Z</time>
      </trkpt>
      <trkpt lat="45.55484" lon="6.59977">
        <ele>1231.4000244141</ele>
        <time>2014-01-31T14:19:10.000Z</time>
      </trkpt>
      <trkpt lat="45.55484" lon="6.59977">
        <ele>1231.4000244141</ele>
        <time>2014-01-31T14:19:11.000Z</time>
      </trkpt>
      <trkpt lat="45.55484" lon="6.59977">
        <ele>1231.4000244141</ele>
        <time>2014-01-31T14:19:12.000Z</time>
      </trkpt>
      <trkpt lat="45.55484" lon="6.59977">
        <ele>1231.1999511719</ele>
        <time>2014-01-31T14:19:14.000Z</time>
      </trkpt>
      <trkpt lat="45.55484" lon="6.59977">
        <ele>1231.1999511719</ele>
        <time>2014-01-31T14:19:15.000Z</time>
      </trkpt>
      <trkpt lat="45.55484" lon="6.59977">
        <ele>1231</ele>
        <time>2014-01-31T14:19:16.000Z</time>
      </trkpt>
      <trkpt lat="45.55484" lon="6.59977">
        <ele>1231</ele>
        <time>2014-01-31T14:19:17.000Z</time>
      </trkpt>
      <trkpt lat="45.55484" lon="6.59977">
        <ele>1230.8000488281</ele>
        <time>2014-01-31T14:19:18.000Z</time>
      </trkpt>
      <trkpt lat="45.55484" lon="6.59977">
        <ele>1230.5999755859</ele>
        <time>2014-01-31T14:19:19.000Z</time>
      </trkpt>
      <trkpt lat="45.55484" lon="6.59977">
        <ele>1230.5999755859</ele>
        <time>2014-01-31T14:19:20.000Z</time>
      </trkpt>
      <trkpt lat="45.55484" lon="6.59977">
        <ele>1230.5999755859</ele>
        <time>2014-01-31T14:19:21.000Z</time>
      </trkpt>
      <trkpt lat="45.55484" lon="6.59977">
        <ele>1230.8000488281</ele>
        <time>2014-01-31T14:19:23.000Z</time>
      </trkpt>
      <trkpt lat="45.55484" lon="6.59977">
        <ele>1231</ele>
        <time>2014-01-31T14:19:24.000Z</time>
      </trkpt>
      <trkpt lat="45.55484" lon="6.59977">
        <ele>1231.1999511719</ele>
        <time>2014-01-31T14:19:25.000Z</time>
      </trkpt>
      <trkpt lat="45.55484" lon="6.59977">
        <ele>1231.1999511719</ele>
        <time>2014-01-31T14:19:26.000Z</time>
      </trkpt>
      <trkpt lat="45.55484" lon="6.59977">
        <ele>1231.1999511719</ele>
        <time>2014-01-31T14:19:27.000Z</time>
      </trkpt>
      <trkpt lat="45.55484" lon="6.59977">
        <ele>1231.1999511719</ele>
        <time>2014-01-31T14:19:28.000Z</time>
      </trkpt>
      <trkpt lat="45.55484" lon="6.59977">
        <ele>1231</ele>
        <time>2014-01-31T14:19:29.000Z</time>
      </trkpt>
      <trkpt lat="45.55482" lon="6.5998">
        <ele>1231</ele>
        <time>2014-01-31T14:19:30.000Z</time>
      </trkpt>
      <trkpt lat="45.55482" lon="6.5998">
        <ele>1231</ele>
        <time>2014-01-31T14:19:31.000Z</time>
      </trkpt>
      <trkpt lat="45.55482" lon="6.5998">
        <ele>1231.1999511719</ele>
        <time>2014-01-31T14:19:32.000Z</time>
      </trkpt>
      <trkpt lat="45.55482" lon="6.59978">
        <ele>1231.1999511719</ele>
        <time>2014-01-31T14:19:33.000Z</time>
      </trkpt>
      <trkpt lat="45.55481" lon="6.59976">
        <ele>1231.1999511719</ele>
        <time>2014-01-31T14:19:34.000Z</time>
      </trkpt>
      <trkpt lat="45.55481" lon="6.59974">
        <ele>1231.1999511719</ele>
        <time>2014-01-31T14:19:35.000Z</time>
      </trkpt>
      <trkpt lat="45.55481" lon="6.59971">
        <ele>1231.1999511719</ele>
        <time>2014-01-31T14:19:36.000Z</time>
      </trkpt>
      <trkpt lat="45.55481" lon="6.59969">
        <ele>1231</ele>
        <time>2014-01-31T14:19:37.000Z</time>
      </trkpt>
      <trkpt lat="45.55481" lon="6.59966">
        <ele>1231</ele>
        <time>2014-01-31T14:19:38.000Z</time>
      </trkpt>
      <trkpt lat="45.55481" lon="6.59963">
        <ele>1230.8000488281</ele>
        <time>2014-01-31T14:19:39.000Z</time>
      </trkpt>
      <trkpt lat="45.55482" lon="6.59961">
        <ele>1230.5999755859</ele>
        <time>2014-01-31T14:19:40.000Z</time>
      </trkpt>
      <trkpt lat="45.55482" lon="6.59958">
        <ele>1230.5999755859</ele>
        <time>2014-01-31T14:19:41.000Z</time>
      </trkpt>
      <trkpt lat="45.55482" lon="6.59955">
        <ele>1230.4000244141</ele>
        <time>2014-01-31T14:19:42.000Z</time>
      </trkpt>
      <trkpt lat="45.55483" lon="6.59953">
        <ele>1230.1999511719</ele>
        <time>2014-01-31T14:19:43.000Z</time>
      </trkpt>
      <trkpt lat="45.55483" lon="6.59951">
        <ele>1230.1999511719</ele>
        <time>2014-01-31T14:19:44.000Z</time>
      </trkpt>
      <trkpt lat="45.55483" lon="6.59951">
        <ele>1230</ele>
        <time>2014-01-31T14:19:45.000Z</time>
      </trkpt>
      <trkpt lat="45.55483" lon="6.59951">
        <ele>1229.8000488281</ele>
        <time>2014-01-31T14:19:46.000Z</time>
      </trkpt>
      <trkpt lat="45.55483" lon="6.59951">
        <ele>1229.4000244141</ele>
        <time>2014-01-31T14:19:47.000Z</time>
      </trkpt>
      <trkpt lat="45.55482" lon="6.59948">
        <ele>1229</ele>
        <time>2014-01-31T14:19:48.000Z</time>
      </trkpt>
      <trkpt lat="45.55481" lon="6.59945">
        <ele>1228.5999755859</ele>
        <time>2014-01-31T14:19:49.000Z</time>
      </trkpt>
      <trkpt lat="45.55481" lon="6.59945">
        <ele>1228.1999511719</ele>
        <time>2014-01-31T14:19:50.000Z</time>
      </trkpt>
      <trkpt lat="45.55481" lon="6.59945">
        <ele>1228</ele>
        <time>2014-01-31T14:19:51.000Z</time>
      </trkpt>
      <trkpt lat="45.55481" lon="6.59945">
        <ele>1227.8000488281</ele>
        <time>2014-01-31T14:19:52.000Z</time>
      </trkpt>
      <trkpt lat="45.55481" lon="6.59945">
        <ele>1227.5999755859</ele>
        <time>2014-01-31T14:19:53.000Z</time>
      </trkpt>
      <trkpt lat="45.55481" lon="6.59945">
        <ele>1227.4000244141</ele>
        <time>2014-01-31T14:19:54.000Z</time>
      </trkpt>
      <trkpt lat="45.55481" lon="6.59945">
        <ele>1227</ele>
        <time>2014-01-31T14:19:55.000Z</time>
      </trkpt>
      <trkpt lat="45.55481" lon="6.59945">
        <ele>1226.5999755859</ele>
        <time>2014-01-31T14:19:56.000Z</time>
      </trkpt>
      <trkpt lat="45.55481" lon="6.59945">
        <ele>1226.1999511719</ele>
        <time>2014-01-31T14:19:57.000Z</time>
      </trkpt>
      <trkpt lat="45.55481" lon="6.59945">
        <ele>1226.1999511719</ele>
        <time>2014-01-31T14:19:58.000Z</time>
      </trkpt>
      <trkpt lat="45.55481" lon="6.59945">
        <ele>1226.4000244141</ele>
        <time>2014-01-31T14:19:59.000Z</time>
      </trkpt>
      <trkpt lat="45.55481" lon="6.59945">
        <ele>1226.4000244141</ele>
        <time>2014-01-31T14:20:00.000Z</time>
      </trkpt>
      <trkpt lat="45.55481" lon="6.59945">
        <ele>1226.5999755859</ele>
        <time>2014-01-31T14:20:01.000Z</time>
      </trkpt>
      <trkpt lat="45.55481" lon="6.59945">
        <ele>1226.5999755859</ele>
        <time>2014-01-31T14:20:02.000Z</time>
      </trkpt>
      <trkpt lat="45.55481" lon="6.59945">
        <ele>1226.5999755859</ele>
        <time>2014-01-31T14:20:03.000Z</time>
      </trkpt>
      <trkpt lat="45.55481" lon="6.59945">
        <ele>1226.8000488281</ele>
        <time>2014-01-31T14:20:04.000Z</time>
      </trkpt>
      <trkpt lat="45.55481" lon="6.59945">
        <ele>1226.8000488281</ele>
        <time>2014-01-31T14:20:05.000Z</time>
      </trkpt>
      <trkpt lat="45.55481" lon="6.59945">
        <ele>1226.8000488281</ele>
        <time>2014-01-31T14:20:06.000Z</time>
      </trkpt>
      <trkpt lat="45.55481" lon="6.59945">
        <ele>1227</ele>
        <time>2014-01-31T14:20:07.000Z</time>
      </trkpt>
      <trkpt lat="45.55481" lon="6.59945">
        <ele>1227</ele>
        <time>2014-01-31T14:20:08.000Z</time>
      </trkpt>
      <trkpt lat="45.55481" lon="6.59945">
        <ele>1227</ele>
        <time>2014-01-31T14:20:09.000Z</time>
      </trkpt>
      <trkpt lat="45.55481" lon="6.59945">
        <ele>1227</ele>
        <time>2014-01-31T14:20:10.000Z</time>
      </trkpt>
      <trkpt lat="45.55481" lon="6.59945">
        <ele>1227</ele>
        <time>2014-01-31T14:20:11.000Z</time>
      </trkpt>
      <trkpt lat="45.55481" lon="6.59945">
        <ele>1227</ele>
        <time>2014-01-31T14:20:12.000Z</time>
      </trkpt>
      <trkpt lat="45.55481" lon="6.59945">
        <ele>1226.8000488281</ele>
        <time>2014-01-31T14:20:13.000Z</time>
      </trkpt>
      <trkpt lat="45.55481" lon="6.59945">
        <ele>1226.8000488281</ele>
        <time>2014-01-31T14:20:14.000Z</time>
      </trkpt>
      <trkpt lat="45.55481" lon="6.59944">
        <ele>1226.8000488281</ele>
        <time>2014-01-31T14:20:15.000Z</time>
      </trkpt>
      <trkpt lat="45.5548" lon="6.59944">
        <ele>1226.8000488281</ele>
        <time>2014-01-31T14:20:16.000Z</time>
      </trkpt>
      <trkpt lat="45.55478" lon="6.5994">
        <ele>1226.8000488281</ele>
        <time>2014-01-31T14:20:17.000Z</time>
      </trkpt>
      <trkpt lat="45.55477" lon="6.59936">
        <ele>1226.5999755859</ele>
        <time>2014-01-31T14:20:18.000Z</time>
      </trkpt>
      <trkpt lat="45.55476" lon="6.59931">
        <ele>1226.5999755859</ele>
        <time>2014-01-31T14:20:19.000Z</time>
      </trkpt>
      <trkpt lat="45.55475" lon="6.59926">
        <ele>1226.4000244141</ele>
        <time>2014-01-31T14:20:20.000Z</time>
      </trkpt>
      <trkpt lat="45.55474" lon="6.59921">
        <ele>1226</ele>
        <time>2014-01-31T14:20:21.000Z</time>
      </trkpt>
      <trkpt lat="45.55473" lon="6.59916">
        <ele>1225.8000488281</ele>
        <time>2014-01-31T14:20:22.000Z</time>
      </trkpt>
      <trkpt lat="45.55472" lon="6.59911">
        <ele>1225.5999755859</ele>
        <time>2014-01-31T14:20:23.000Z</time>
      </trkpt>
      <trkpt lat="45.55471" lon="6.59906">
        <ele>1225.4000244141</ele>
        <time>2014-01-31T14:20:24.000Z</time>
      </trkpt>
      <trkpt lat="45.55471" lon="6.59902">
        <ele>1225</ele>
        <time>2014-01-31T14:20:25.000Z</time>
      </trkpt>
      <trkpt lat="45.5547" lon="6.59898">
        <ele>1224.8000488281</ele>
        <time>2014-01-31T14:20:26.000Z</time>
      </trkpt>
      <trkpt lat="45.55469" lon="6.59896">
        <ele>1224.4000244141</ele>
        <time>2014-01-31T14:20:27.000Z</time>
      </trkpt>
      <trkpt lat="45.55471" lon="6.59895">
        <ele>1224</ele>
        <time>2014-01-31T14:20:28.000Z</time>
      </trkpt>
      <trkpt lat="45.55472" lon="6.59896">
        <ele>1223.5999755859</ele>
        <time>2014-01-31T14:20:29.000Z</time>
      </trkpt>
      <trkpt lat="45.5547" lon="6.59892">
        <ele>1223</ele>
        <time>2014-01-31T14:20:30.000Z</time>
      </trkpt>
      <trkpt lat="45.55471" lon="6.59896">
        <ele>1222.5999755859</ele>
        <time>2014-01-31T14:20:31.000Z</time>
      </trkpt>
      <trkpt lat="45.55471" lon="6.59897">
        <ele>1222.1999511719</ele>
        <time>2014-01-31T14:20:32.000Z</time>
      </trkpt>
      <trkpt lat="45.55472" lon="6.599">
        <ele>1222</ele>
        <time>2014-01-31T14:20:33.000Z</time>
      </trkpt>
      <trkpt lat="45.55474" lon="6.59904">
        <ele>1221.5999755859</ele>
        <time>2014-01-31T14:20:34.000Z</time>
      </trkpt>
      <trkpt lat="45.55476" lon="6.59908">
        <ele>1221.1999511719</ele>
        <time>2014-01-31T14:20:35.000Z</time>
      </trkpt>
      <trkpt lat="45.55478" lon="6.59914">
        <ele>1220.8000488281</ele>
        <time>2014-01-31T14:20:36.000Z</time>
      </trkpt>
      <trkpt lat="45.55481" lon="6.59919">
        <ele>1220.5999755859</ele>
        <time>2014-01-31T14:20:37.000Z</time>
      </trkpt>
      <trkpt lat="45.55483" lon="6.59925">
        <ele>1220.1999511719</ele>
        <time>2014-01-31T14:20:38.000Z</time>
      </trkpt>
      <trkpt lat="45.55485" lon="6.59931">
        <ele>1219.8000488281</ele>
        <time>2014-01-31T14:20:39.000Z</time>
      </trkpt>
      <trkpt lat="45.55486" lon="6.59938">
        <ele>1219.4000244141</ele>
        <time>2014-01-31T14:20:40.000Z</time>
      </trkpt>
      <trkpt lat="45.55487" lon="6.59944">
        <ele>1219</ele>
        <time>2014-01-31T14:20:41.000Z</time>
      </trkpt>
      <trkpt lat="45.55489" lon="6.59949">
        <ele>1218.5999755859</ele>
        <time>2014-01-31T14:20:42.000Z</time>
      </trkpt>
      <trkpt lat="45.55488" lon="6.59956">
        <ele>1218</ele>
        <time>2014-01-31T14:20:43.000Z</time>
      </trkpt>
      <trkpt lat="45.55488" lon="6.59962">
        <ele>1217.4000244141</ele>
        <time>2014-01-31T14:20:44.000Z</time>
      </trkpt>
      <trkpt lat="45.55488" lon="6.59969">
        <ele>1216.5999755859</ele>
        <time>2014-01-31T14:20:45.000Z</time>
      </trkpt>
      <trkpt lat="45.55488" lon="6.59975">
        <ele>1216</ele>
        <time>2014-01-31T14:20:46.000Z</time>
      </trkpt>
      <trkpt lat="45.55488" lon="6.59981">
        <ele>1215.5999755859</ele>
        <time>2014-01-31T14:20:47.000Z</time>
      </trkpt>
      <trkpt lat="45.55488" lon="6.5999">
        <ele>1215.1999511719</ele>
        <time>2014-01-31T14:20:48.000Z</time>
      </trkpt>
      <trkpt lat="45.55489" lon="6.59999">
        <ele>1214.5999755859</ele>
        <time>2014-01-31T14:20:49.000Z</time>
      </trkpt>
      <trkpt lat="45.55492" lon="6.60005">
        <ele>1214</ele>
        <time>2014-01-31T14:20:50.000Z</time>
      </trkpt>
      <trkpt lat="45.55494" lon="6.60012">
        <ele>1213.1999511719</ele>
        <time>2014-01-31T14:20:51.000Z</time>
      </trkpt>
      <trkpt lat="45.55497" lon="6.60019">
        <ele>1212.5999755859</ele>
        <time>2014-01-31T14:20:52.000Z</time>
      </trkpt>
      <trkpt lat="45.55501" lon="6.60025">
        <ele>1212</ele>
        <time>2014-01-31T14:20:53.000Z</time>
      </trkpt>
      <trkpt lat="45.55505" lon="6.60032">
        <ele>1211.5999755859</ele>
        <time>2014-01-31T14:20:54.000Z</time>
      </trkpt>
      <trkpt lat="45.55508" lon="6.6004">
        <ele>1211.1999511719</ele>
        <time>2014-01-31T14:20:55.000Z</time>
      </trkpt>
      <trkpt lat="45.55511" lon="6.60048">
        <ele>1210.5999755859</ele>
        <time>2014-01-31T14:20:56.000Z</time>
      </trkpt>
      <trkpt lat="45.55514" lon="6.60056">
        <ele>1210</ele>
        <time>2014-01-31T14:20:57.000Z</time>
      </trkpt>
      <trkpt lat="45.55517" lon="6.60065">
        <ele>1209.4000244141</ele>
        <time>2014-01-31T14:20:58.000Z</time>
      </trkpt>
      <trkpt lat="45.55519" lon="6.60074">
        <ele>1208.8000488281</ele>
        <time>2014-01-31T14:20:59.000Z</time>
      </trkpt>
      <trkpt lat="45.5552" lon="6.60084">
        <ele>1208.1999511719</ele>
        <time>2014-01-31T14:21:00.000Z</time>
      </trkpt>
      <trkpt lat="45.5552" lon="6.60093">
        <ele>1207.5999755859</ele>
        <time>2014-01-31T14:21:01.000Z</time>
      </trkpt>
      <trkpt lat="45.55521" lon="6.60103">
        <ele>1207</ele>
        <time>2014-01-31T14:21:02.000Z</time>
      </trkpt>
      <trkpt lat="45.55523" lon="6.60112">
        <ele>1206.1999511719</ele>
        <time>2014-01-31T14:21:03.000Z</time>
      </trkpt>
      <trkpt lat="45.55526" lon="6.60119">
        <ele>1205.4000244141</ele>
        <time>2014-01-31T14:21:04.000Z</time>
      </trkpt>
      <trkpt lat="45.55529" lon="6.60128">
        <ele>1204.4000244141</ele>
        <time>2014-01-31T14:21:05.000Z</time>
      </trkpt>
      <trkpt lat="45.55533" lon="6.60136">
        <ele>1203.4000244141</ele>
        <time>2014-01-31T14:21:06.000Z</time>
      </trkpt>
      <trkpt lat="45.55536" lon="6.60144">
        <ele>1202.4000244141</ele>
        <time>2014-01-31T14:21:07.000Z</time>
      </trkpt>
      <trkpt lat="45.5554" lon="6.60153">
        <ele>1201.5999755859</ele>
        <time>2014-01-31T14:21:08.000Z</time>
      </trkpt>
      <trkpt lat="45.55541" lon="6.60165">
        <ele>1200</ele>
        <time>2014-01-31T14:21:09.000Z</time>
      </trkpt>
      <trkpt lat="45.55542" lon="6.60176">
        <ele>1199.5999755859</ele>
        <time>2014-01-31T14:21:10.000Z</time>
      </trkpt>
      <trkpt lat="45.55543" lon="6.60188">
        <ele>1199.1999511719</ele>
        <time>2014-01-31T14:21:11.000Z</time>
      </trkpt>
      <trkpt lat="45.55544" lon="6.60199">
        <ele>1198.5999755859</ele>
        <time>2014-01-31T14:21:12.000Z</time>
      </trkpt>
      <trkpt lat="45.55545" lon="6.60209">
        <ele>1197.5999755859</ele>
        <time>2014-01-31T14:21:13.000Z</time>
      </trkpt>
      <trkpt lat="45.55548" lon="6.60218">
        <ele>1196.4000244141</ele>
        <time>2014-01-31T14:21:14.000Z</time>
      </trkpt>
      <trkpt lat="45.5555" lon="6.60226">
        <ele>1195.4000244141</ele>
        <time>2014-01-31T14:21:15.000Z</time>
      </trkpt>
      <trkpt lat="45.55554" lon="6.60232">
        <ele>1194.4000244141</ele>
        <time>2014-01-31T14:21:16.000Z</time>
      </trkpt>
      <trkpt lat="45.55557" lon="6.60239">
        <ele>1193.8000488281</ele>
        <time>2014-01-31T14:21:17.000Z</time>
      </trkpt>
      <trkpt lat="45.55561" lon="6.60245">
        <ele>1193.1999511719</ele>
        <time>2014-01-31T14:21:18.000Z</time>
      </trkpt>
      <trkpt lat="45.55565" lon="6.6025">
        <ele>1192.8000488281</ele>
        <time>2014-01-31T14:21:19.000Z</time>
      </trkpt>
      <trkpt lat="45.5557" lon="6.60255">
        <ele>1192.1999511719</ele>
        <time>2014-01-31T14:21:20.000Z</time>
      </trkpt>
      <trkpt lat="45.55574" lon="6.60259">
        <ele>1191.8000488281</ele>
        <time>2014-01-31T14:21:21.000Z</time>
      </trkpt>
      <trkpt lat="45.55579" lon="6.60264">
        <ele>1191.1999511719</ele>
        <time>2014-01-31T14:21:22.000Z</time>
      </trkpt>
      <trkpt lat="45.55584" lon="6.60269">
        <ele>1190.5999755859</ele>
        <time>2014-01-31T14:21:23.000Z</time>
      </trkpt>
      <trkpt lat="45.55589" lon="6.60274">
        <ele>1189.8000488281</ele>
        <time>2014-01-31T14:21:24.000Z</time>
      </trkpt>
      <trkpt lat="45.55594" lon="6.6028">
        <ele>1189</ele>
        <time>2014-01-31T14:21:25.000Z</time>
      </trkpt>
      <trkpt lat="45.556" lon="6.60286">
        <ele>1188.1999511719</ele>
        <time>2014-01-31T14:21:26.000Z</time>
      </trkpt>
      <trkpt lat="45.55606" lon="6.60293">
        <ele>1187.4000244141</ele>
        <time>2014-01-31T14:21:27.000Z</time>
      </trkpt>
      <trkpt lat="45.55612" lon="6.60301">
        <ele>1186.8000488281</ele>
        <time>2014-01-31T14:21:28.000Z</time>
      </trkpt>
      <trkpt lat="45.55616" lon="6.60308">
        <ele>1186.4000244141</ele>
        <time>2014-01-31T14:21:29.000Z</time>
      </trkpt>
      <trkpt lat="45.5562" lon="6.60316">
        <ele>1185.8000488281</ele>
        <time>2014-01-31T14:21:30.000Z</time>
      </trkpt>
      <trkpt lat="45.55619" lon="6.60323">
        <ele>1185.1999511719</ele>
        <time>2014-01-31T14:21:31.000Z</time>
      </trkpt>
      <trkpt lat="45.55618" lon="6.60331">
        <ele>1184.4000244141</ele>
        <time>2014-01-31T14:21:32.000Z</time>
      </trkpt>
      <trkpt lat="45.55615" lon="6.60339">
        <ele>1182.8000488281</ele>
        <time>2014-01-31T14:21:33.000Z</time>
      </trkpt>
      <trkpt lat="45.55611" lon="6.60348">
        <ele>1182.1999511719</ele>
        <time>2014-01-31T14:21:34.000Z</time>
      </trkpt>
      <trkpt lat="45.55607" lon="6.60356">
        <ele>1181.4000244141</ele>
        <time>2014-01-31T14:21:35.000Z</time>
      </trkpt>
      <trkpt lat="45.55603" lon="6.60364">
        <ele>1180.5999755859</ele>
        <time>2014-01-31T14:21:36.000Z</time>
      </trkpt>
      <trkpt lat="45.556" lon="6.60372">
        <ele>1179.5999755859</ele>
        <time>2014-01-31T14:21:37.000Z</time>
      </trkpt>
      <trkpt lat="45.55598" lon="6.60382">
        <ele>1178.5999755859</ele>
        <time>2014-01-31T14:21:38.000Z</time>
      </trkpt>
      <trkpt lat="45.55597" lon="6.60391">
        <ele>1177.8000488281</ele>
        <time>2014-01-31T14:21:39.000Z</time>
      </trkpt>
      <trkpt lat="45.55597" lon="6.60401">
        <ele>1177</ele>
        <time>2014-01-31T14:21:40.000Z</time>
      </trkpt>
      <trkpt lat="45.55597" lon="6.6041">
        <ele>1176.1999511719</ele>
        <time>2014-01-31T14:21:41.000Z</time>
      </trkpt>
      <trkpt lat="45.55598" lon="6.60419">
        <ele>1175.1999511719</ele>
        <time>2014-01-31T14:21:42.000Z</time>
      </trkpt>
      <trkpt lat="45.55599" lon="6.60428">
        <ele>1174.4000244141</ele>
        <time>2014-01-31T14:21:43.000Z</time>
      </trkpt>
      <trkpt lat="45.556" lon="6.60437">
        <ele>1173.5999755859</ele>
        <time>2014-01-31T14:21:44.000Z</time>
      </trkpt>
      <trkpt lat="45.55602" lon="6.60447">
        <ele>1173</ele>
        <time>2014-01-31T14:21:45.000Z</time>
      </trkpt>
      <trkpt lat="45.55603" lon="6.60457">
        <ele>1172.4000244141</ele>
        <time>2014-01-31T14:21:46.000Z</time>
      </trkpt>
      <trkpt lat="45.55604" lon="6.60467">
        <ele>1172</ele>
        <time>2014-01-31T14:21:47.000Z</time>
      </trkpt>
      <trkpt lat="45.55604" lon="6.60477">
        <ele>1171.4000244141</ele>
        <time>2014-01-31T14:21:48.000Z</time>
      </trkpt>
      <trkpt lat="45.55604" lon="6.60487">
        <ele>1170.8000488281</ele>
        <time>2014-01-31T14:21:49.000Z</time>
      </trkpt>
      <trkpt lat="45.55605" lon="6.60497">
        <ele>1170.1999511719</ele>
        <time>2014-01-31T14:21:50.000Z</time>
      </trkpt>
      <trkpt lat="45.55606" lon="6.60507">
        <ele>1169.8000488281</ele>
        <time>2014-01-31T14:21:51.000Z</time>
      </trkpt>
      <trkpt lat="45.55606" lon="6.60518">
        <ele>1169.1999511719</ele>
        <time>2014-01-31T14:21:52.000Z</time>
      </trkpt>
      <trkpt lat="45.55607" lon="6.60528">
        <ele>1168.5999755859</ele>
        <time>2014-01-31T14:21:53.000Z</time>
      </trkpt>
      <trkpt lat="45.55608" lon="6.60538">
        <ele>1167.5999755859</ele>
        <time>2014-01-31T14:21:54.000Z</time>
      </trkpt>
      <trkpt lat="45.55609" lon="6.60548">
        <ele>1166.5999755859</ele>
        <time>2014-01-31T14:21:55.000Z</time>
      </trkpt>
      <trkpt lat="45.5561" lon="6.60557">
        <ele>1165.5999755859</ele>
        <time>2014-01-31T14:21:56.000Z</time>
      </trkpt>
      <trkpt lat="45.55612" lon="6.60565">
        <ele>1163.5999755859</ele>
        <time>2014-01-31T14:21:57.000Z</time>
      </trkpt>
      <trkpt lat="45.55615" lon="6.60574">
        <ele>1162.8000488281</ele>
        <time>2014-01-31T14:21:58.000Z</time>
      </trkpt>
      <trkpt lat="45.55618" lon="6.60583">
        <ele>1162</ele>
        <time>2014-01-31T14:21:59.000Z</time>
      </trkpt>
      <trkpt lat="45.5562" lon="6.60591">
        <ele>1161.1999511719</ele>
        <time>2014-01-31T14:22:00.000Z</time>
      </trkpt>
      <trkpt lat="45.55622" lon="6.60599">
        <ele>1160.4000244141</ele>
        <time>2014-01-31T14:22:01.000Z</time>
      </trkpt>
      <trkpt lat="45.55624" lon="6.60606">
        <ele>1159.5999755859</ele>
        <time>2014-01-31T14:22:02.000Z</time>
      </trkpt>
      <trkpt lat="45.55625" lon="6.60611">
        <ele>1159</ele>
        <time>2014-01-31T14:22:03.000Z</time>
      </trkpt>
      <trkpt lat="45.55626" lon="6.60614">
        <ele>1158.1999511719</ele>
        <time>2014-01-31T14:22:04.000Z</time>
      </trkpt>
      <trkpt lat="45.55625" lon="6.60615">
        <ele>1157.4000244141</ele>
        <time>2014-01-31T14:22:05.000Z</time>
      </trkpt>
      <trkpt lat="45.55625" lon="6.60615">
        <ele>1156.5999755859</ele>
        <time>2014-01-31T14:22:06.000Z</time>
      </trkpt>
      <trkpt lat="45.55626" lon="6.60613">
        <ele>1156</ele>
        <time>2014-01-31T14:22:07.000Z</time>
      </trkpt>
      <trkpt lat="45.55626" lon="6.60612">
        <ele>1155.5999755859</ele>
        <time>2014-01-31T14:22:08.000Z</time>
      </trkpt>
      <trkpt lat="45.55626" lon="6.60612">
        <ele>1155.4000244141</ele>
        <time>2014-01-31T14:22:09.000Z</time>
      </trkpt>
      <trkpt lat="45.55626" lon="6.60612">
        <ele>1155.1999511719</ele>
        <time>2014-01-31T14:22:10.000Z</time>
      </trkpt>
      <trkpt lat="45.55626" lon="6.60612">
        <ele>1155</ele>
        <time>2014-01-31T14:22:11.000Z</time>
      </trkpt>
      <trkpt lat="45.55626" lon="6.60612">
        <ele>1155</ele>
        <time>2014-01-31T14:22:12.000Z</time>
      </trkpt>
      <trkpt lat="45.55626" lon="6.60612">
        <ele>1155</ele>
        <time>2014-01-31T14:22:13.000Z</time>
      </trkpt>
      <trkpt lat="45.55627" lon="6.6061">
        <ele>1155</ele>
        <time>2014-01-31T14:22:14.000Z</time>
      </trkpt>
      <trkpt lat="45.55628" lon="6.60608">
        <ele>1155</ele>
        <time>2014-01-31T14:22:15.000Z</time>
      </trkpt>
      <trkpt lat="45.55628" lon="6.60608">
        <ele>1155</ele>
        <time>2014-01-31T14:22:16.000Z</time>
      </trkpt>
      <trkpt lat="45.55628" lon="6.60609">
        <ele>1154.8000488281</ele>
        <time>2014-01-31T14:22:17.000Z</time>
      </trkpt>
      <trkpt lat="45.55629" lon="6.60608">
        <ele>1154.8000488281</ele>
        <time>2014-01-31T14:22:18.000Z</time>
      </trkpt>
      <trkpt lat="45.55629" lon="6.60608">
        <ele>1154.8000488281</ele>
        <time>2014-01-31T14:22:19.000Z</time>
      </trkpt>
      <trkpt lat="45.55629" lon="6.60608">
        <ele>1154.8000488281</ele>
        <time>2014-01-31T14:22:20.000Z</time>
      </trkpt>
      <trkpt lat="45.55629" lon="6.60608">
        <ele>1154.8000488281</ele>
        <time>2014-01-31T14:22:21.000Z</time>
      </trkpt>
      <trkpt lat="45.55629" lon="6.60608">
        <ele>1154.8000488281</ele>
        <time>2014-01-31T14:22:22.000Z</time>
      </trkpt>
      <trkpt lat="45.55629" lon="6.60608">
        <ele>1154.5999755859</ele>
        <time>2014-01-31T14:22:23.000Z</time>
      </trkpt>
      <trkpt lat="45.55629" lon="6.60608">
        <ele>1154.5999755859</ele>
        <time>2014-01-31T14:22:24.000Z</time>
      </trkpt>
      <trkpt lat="45.55629" lon="6.60608">
        <ele>1154.4000244141</ele>
        <time>2014-01-31T14:22:25.000Z</time>
      </trkpt>
      <trkpt lat="45.55629" lon="6.60608">
        <ele>1154.4000244141</ele>
        <time>2014-01-31T14:22:26.000Z</time>
      </trkpt>
      <trkpt lat="45.55629" lon="6.60608">
        <ele>1154.4000244141</ele>
        <time>2014-01-31T14:22:27.000Z</time>
      </trkpt>
      <trkpt lat="45.55629" lon="6.60608">
        <ele>1154.4000244141</ele>
        <time>2014-01-31T14:22:28.000Z</time>
      </trkpt>
      <trkpt lat="45.55629" lon="6.60608">
        <ele>1154.4000244141</ele>
        <time>2014-01-31T14:22:29.000Z</time>
      </trkpt>
      <trkpt lat="45.55629" lon="6.60608">
        <ele>1154.4000244141</ele>
        <time>2014-01-31T14:22:30.000Z</time>
      </trkpt>
      <trkpt lat="45.55629" lon="6.60608">
        <ele>1154.4000244141</ele>
        <time>2014-01-31T14:22:31.000Z</time>
      </trkpt>
      <trkpt lat="45.55629" lon="6.60608">
        <ele>1154.4000244141</ele>
        <time>2014-01-31T14:22:32.000Z</time>
      </trkpt>
      <trkpt lat="45.55629" lon="6.60608">
        <ele>1154.1999511719</ele>
        <time>2014-01-31T14:22:33.000Z</time>
      </trkpt>
      <trkpt lat="45.55629" lon="6.60608">
        <ele>1154.1999511719</ele>
        <time>2014-01-31T14:22:34.000Z</time>
      </trkpt>
      <trkpt lat="45.55629" lon="6.60608">
        <ele>1154.1999511719</ele>
        <time>2014-01-31T14:22:35.000Z</time>
      </trkpt>
      <trkpt lat="45.55629" lon="6.60608">
        <ele>1154</ele>
        <time>2014-01-31T14:22:36.000Z</time>
      </trkpt>
      <trkpt lat="45.55629" lon="6.60608">
        <ele>1154</ele>
        <time>2014-01-31T14:22:37.000Z</time>
      </trkpt>
      <trkpt lat="45.55629" lon="6.60608">
        <ele>1153.8000488281</ele>
        <time>2014-01-31T14:22:38.000Z</time>
      </trkpt>
      <trkpt lat="45.55629" lon="6.60608">
        <ele>1153.8000488281</ele>
        <time>2014-01-31T14:22:39.000Z</time>
      </trkpt>
      <trkpt lat="45.55629" lon="6.60608">
        <ele>1153.8000488281</ele>
        <time>2014-01-31T14:22:40.000Z</time>
      </trkpt>
      <trkpt lat="45.55629" lon="6.60608">
        <ele>1154</ele>
        <time>2014-01-31T14:22:41.000Z</time>
      </trkpt>
      <trkpt lat="45.55629" lon="6.60608">
        <ele>1154</ele>
        <time>2014-01-31T14:22:42.000Z</time>
      </trkpt>
      <trkpt lat="45.55629" lon="6.60608">
        <ele>1154</ele>
        <time>2014-01-31T14:22:43.000Z</time>
      </trkpt>
      <trkpt lat="45.55629" lon="6.60608">
        <ele>1154</ele>
        <time>2014-01-31T14:22:45.000Z</time>
      </trkpt>
      <trkpt lat="45.55629" lon="6.60608">
        <ele>1154</ele>
        <time>2014-01-31T14:22:46.000Z</time>
      </trkpt>
      <trkpt lat="45.55629" lon="6.60608">
        <ele>1154</ele>
        <time>2014-01-31T14:22:47.000Z</time>
      </trkpt>
      <trkpt lat="45.55629" lon="6.60608">
        <ele>1154.1999511719</ele>
        <time>2014-01-31T14:22:48.000Z</time>
      </trkpt>
      <trkpt lat="45.55629" lon="6.60608">
        <ele>1154.1999511719</ele>
        <time>2014-01-31T14:22:49.000Z</time>
      </trkpt>
      <trkpt lat="45.55629" lon="6.60608">
        <ele>1154.4000244141</ele>
        <time>2014-01-31T14:22:50.000Z</time>
      </trkpt>
      <trkpt lat="45.55629" lon="6.60608">
        <ele>1154.4000244141</ele>
        <time>2014-01-31T14:22:52.000Z</time>
      </trkpt>
      <trkpt lat="45.55629" lon="6.60608">
        <ele>1154.4000244141</ele>
        <time>2014-01-31T14:22:53.000Z</time>
      </trkpt>
      <trkpt lat="45.55629" lon="6.60608">
        <ele>1154.4000244141</ele>
        <time>2014-01-31T14:22:54.000Z</time>
      </trkpt>
      <trkpt lat="45.55629" lon="6.60608">
        <ele>1154.4000244141</ele>
        <time>2014-01-31T14:22:56.000Z</time>
      </trkpt>
      <trkpt lat="45.55629" lon="6.60608">
        <ele>1154.5999755859</ele>
        <time>2014-01-31T14:22:57.000Z</time>
      </trkpt>
      <trkpt lat="45.55629" lon="6.60608">
        <ele>1154.5999755859</ele>
        <time>2014-01-31T14:22:58.000Z</time>
      </trkpt>
      <trkpt lat="45.55629" lon="6.60608">
        <ele>1154.5999755859</ele>
        <time>2014-01-31T14:22:59.000Z</time>
      </trkpt>
      <trkpt lat="45.55629" lon="6.60608">
        <ele>1154.5999755859</ele>
        <time>2014-01-31T14:23:00.000Z</time>
      </trkpt>
      <trkpt lat="45.55629" lon="6.60608">
        <ele>1154.4000244141</ele>
        <time>2014-01-31T14:23:01.000Z</time>
      </trkpt>
      <trkpt lat="45.55629" lon="6.60608">
        <ele>1154.4000244141</ele>
        <time>2014-01-31T14:23:02.000Z</time>
      </trkpt>
      <trkpt lat="45.55629" lon="6.60608">
        <ele>1154.4000244141</ele>
        <time>2014-01-31T14:23:03.000Z</time>
      </trkpt>
      <trkpt lat="45.55629" lon="6.60608">
        <ele>1154.4000244141</ele>
        <time>2014-01-31T14:23:04.000Z</time>
      </trkpt>
      <trkpt lat="45.55629" lon="6.60608">
        <ele>1154.1999511719</ele>
        <time>2014-01-31T14:23:05.000Z</time>
      </trkpt>
      <trkpt lat="45.55629" lon="6.60608">
        <ele>1154.1999511719</ele>
        <time>2014-01-31T14:23:06.000Z</time>
      </trkpt>
      <trkpt lat="45.55629" lon="6.60608">
        <ele>1154.1999511719</ele>
        <time>2014-01-31T14:23:07.000Z</time>
      </trkpt>
      <trkpt lat="45.55629" lon="6.60608">
        <ele>1154.1999511719</ele>
        <time>2014-01-31T14:23:08.000Z</time>
      </trkpt>
      <trkpt lat="45.55629" lon="6.60608">
        <ele>1154.1999511719</ele>
        <time>2014-01-31T14:23:10.000Z</time>
      </trkpt>
      <trkpt lat="45.55629" lon="6.60608">
        <ele>1154.1999511719</ele>
        <time>2014-01-31T14:23:11.000Z</time>
      </trkpt>
      <trkpt lat="45.55629" lon="6.60608">
        <ele>1154.1999511719</ele>
        <time>2014-01-31T14:23:12.000Z</time>
      </trkpt>
      <trkpt lat="45.55629" lon="6.60608">
        <ele>1154.1999511719</ele>
        <time>2014-01-31T14:23:13.000Z</time>
      </trkpt>
      <trkpt lat="45.55629" lon="6.60608">
        <ele>1154.1999511719</ele>
        <time>2014-01-31T14:23:15.000Z</time>
      </trkpt>
      <trkpt lat="45.55629" lon="6.60608">
        <ele>1154.1999511719</ele>
        <time>2014-01-31T14:23:16.000Z</time>
      </trkpt>
      <trkpt lat="45.5563" lon="6.60608">
        <ele>1154.1999511719</ele>
        <time>2014-01-31T14:23:17.000Z</time>
      </trkpt>
      <trkpt lat="45.55634" lon="6.60603">
        <ele>1154.1999511719</ele>
        <time>2014-01-31T14:23:18.000Z</time>
      </trkpt>
      <trkpt lat="45.55635" lon="6.60602">
        <ele>1154.1999511719</ele>
        <time>2014-01-31T14:23:19.000Z</time>
      </trkpt>
      <trkpt lat="45.55636" lon="6.60603">
        <ele>1154.1999511719</ele>
        <time>2014-01-31T14:23:20.000Z</time>
      </trkpt>
      <trkpt lat="45.55637" lon="6.60604">
        <ele>1154.1999511719</ele>
        <time>2014-01-31T14:23:21.000Z</time>
      </trkpt>
      <trkpt lat="45.55637" lon="6.60605">
        <ele>1154.1999511719</ele>
        <time>2014-01-31T14:23:22.000Z</time>
      </trkpt>
      <trkpt lat="45.55638" lon="6.60606">
        <ele>1154</ele>
        <time>2014-01-31T14:23:23.000Z</time>
      </trkpt>
      <trkpt lat="45.55638" lon="6.60608">
        <ele>1153.8000488281</ele>
        <time>2014-01-31T14:23:24.000Z</time>
      </trkpt>
      <trkpt lat="45.55639" lon="6.60609">
        <ele>1153.5999755859</ele>
        <time>2014-01-31T14:23:25.000Z</time>
      </trkpt>
      <trkpt lat="45.5564" lon="6.60609">
        <ele>1153.4000244141</ele>
        <time>2014-01-31T14:23:26.000Z</time>
      </trkpt>
      <trkpt lat="45.5564" lon="6.60609">
        <ele>1153.4000244141</ele>
        <time>2014-01-31T14:23:27.000Z</time>
      </trkpt>
      <trkpt lat="45.5564" lon="6.60609">
        <ele>1153.1999511719</ele>
        <time>2014-01-31T14:23:28.000Z</time>
      </trkpt>
      <trkpt lat="45.5564" lon="6.60609">
        <ele>1153.1999511719</ele>
        <time>2014-01-31T14:23:29.000Z</time>
      </trkpt>
      <trkpt lat="45.5564" lon="6.60609">
        <ele>1153</ele>
        <time>2014-01-31T14:23:30.000Z</time>
      </trkpt>
      <trkpt lat="45.5564" lon="6.60609">
        <ele>1152.8000488281</ele>
        <time>2014-01-31T14:23:31.000Z</time>
      </trkpt>
      <trkpt lat="45.5564" lon="6.60609">
        <ele>1152.8000488281</ele>
        <time>2014-01-31T14:23:32.000Z</time>
      </trkpt>
      <trkpt lat="45.5564" lon="6.60609">
        <ele>1152.5999755859</ele>
        <time>2014-01-31T14:23:33.000Z</time>
      </trkpt>
      <trkpt lat="45.5564" lon="6.60609">
        <ele>1152.4000244141</ele>
        <time>2014-01-31T14:23:34.000Z</time>
      </trkpt>
      <trkpt lat="45.5564" lon="6.60609">
        <ele>1152.4000244141</ele>
        <time>2014-01-31T14:23:35.000Z</time>
      </trkpt>
      <trkpt lat="45.5564" lon="6.60609">
        <ele>1152.4000244141</ele>
        <time>2014-01-31T14:23:36.000Z</time>
      </trkpt>
      <trkpt lat="45.5564" lon="6.60609">
        <ele>1152.4000244141</ele>
        <time>2014-01-31T14:23:37.000Z</time>
      </trkpt>
      <trkpt lat="45.5564" lon="6.60609">
        <ele>1152.4000244141</ele>
        <time>2014-01-31T14:23:38.000Z</time>
      </trkpt>
      <trkpt lat="45.5564" lon="6.60609">
        <ele>1152.4000244141</ele>
        <time>2014-01-31T14:23:39.000Z</time>
      </trkpt>
      <trkpt lat="45.5564" lon="6.60609">
        <ele>1152.4000244141</ele>
        <time>2014-01-31T14:23:40.000Z</time>
      </trkpt>
      <trkpt lat="45.5564" lon="6.60609">
        <ele>1152.4000244141</ele>
        <time>2014-01-31T14:23:41.000Z</time>
      </trkpt>
      <trkpt lat="45.5564" lon="6.60609">
        <ele>1152.4000244141</ele>
        <time>2014-01-31T14:23:42.000Z</time>
      </trkpt>
      <trkpt lat="45.5564" lon="6.60609">
        <ele>1152.4000244141</ele>
        <time>2014-01-31T14:23:43.000Z</time>
      </trkpt>
      <trkpt lat="45.5564" lon="6.60609">
        <ele>1152.4000244141</ele>
        <time>2014-01-31T14:23:44.000Z</time>
      </trkpt>
      <trkpt lat="45.5564" lon="6.60609">
        <ele>1152.4000244141</ele>
        <time>2014-01-31T14:23:45.000Z</time>
      </trkpt>
      <trkpt lat="45.5564" lon="6.60609">
        <ele>1152.1999511719</ele>
        <time>2014-01-31T14:23:46.000Z</time>
      </trkpt>
      <trkpt lat="45.5564" lon="6.60609">
        <ele>1152.1999511719</ele>
        <time>2014-01-31T14:23:47.000Z</time>
      </trkpt>
      <trkpt lat="45.5564" lon="6.60609">
        <ele>1152.1999511719</ele>
        <time>2014-01-31T14:23:48.000Z</time>
      </trkpt>
      <trkpt lat="45.5564" lon="6.60609">
        <ele>1152.4000244141</ele>
        <time>2014-01-31T14:23:49.000Z</time>
      </trkpt>
      <trkpt lat="45.5564" lon="6.60609">
        <ele>1152.4000244141</ele>
        <time>2014-01-31T14:23:50.000Z</time>
      </trkpt>
      <trkpt lat="45.5564" lon="6.60609">
        <ele>1152.5999755859</ele>
        <time>2014-01-31T14:23:51.000Z</time>
      </trkpt>
      <trkpt lat="45.5564" lon="6.60609">
        <ele>1152.5999755859</ele>
        <time>2014-01-31T14:23:52.000Z</time>
      </trkpt>
      <trkpt lat="45.5564" lon="6.60609">
        <ele>1152.8000488281</ele>
        <time>2014-01-31T14:23:53.000Z</time>
      </trkpt>
      <trkpt lat="45.5564" lon="6.60609">
        <ele>1152.5999755859</ele>
        <time>2014-01-31T14:23:55.000Z</time>
      </trkpt>
      <trkpt lat="45.5564" lon="6.60609">
        <ele>1152.5999755859</ele>
        <time>2014-01-31T14:23:56.000Z</time>
      </trkpt>
      <trkpt lat="45.5564" lon="6.60608">
        <ele>1152.4000244141</ele>
        <time>2014-01-31T14:23:57.000Z</time>
      </trkpt>
      <trkpt lat="45.5564" lon="6.60608">
        <ele>1152.4000244141</ele>
        <time>2014-01-31T14:23:58.000Z</time>
      </trkpt>
      <trkpt lat="45.55641" lon="6.60607">
        <ele>1152.4000244141</ele>
        <time>2014-01-31T14:23:59.000Z</time>
      </trkpt>
      <trkpt lat="45.55641" lon="6.60607">
        <ele>1152.4000244141</ele>
        <time>2014-01-31T14:24:00.000Z</time>
      </trkpt>
      <trkpt lat="45.55641" lon="6.60607">
        <ele>1152.1999511719</ele>
        <time>2014-01-31T14:24:01.000Z</time>
      </trkpt>
      <trkpt lat="45.55641" lon="6.60607">
        <ele>1152.1999511719</ele>
        <time>2014-01-31T14:24:02.000Z</time>
      </trkpt>
      <trkpt lat="45.55641" lon="6.60607">
        <ele>1152.1999511719</ele>
        <time>2014-01-31T14:24:03.000Z</time>
      </trkpt>
      <trkpt lat="45.55641" lon="6.60607">
        <ele>1152.4000244141</ele>
        <time>2014-01-31T14:24:04.000Z</time>
      </trkpt>
      <trkpt lat="45.55641" lon="6.60607">
        <ele>1152.4000244141</ele>
        <time>2014-01-31T14:24:07.000Z</time>
      </trkpt>
      <trkpt lat="45.55641" lon="6.60607">
        <ele>1152.4000244141</ele>
        <time>2014-01-31T14:24:08.000Z</time>
      </trkpt>
      <trkpt lat="45.55641" lon="6.60607">
        <ele>1152.4000244141</ele>
        <time>2014-01-31T14:24:09.000Z</time>
      </trkpt>
      <trkpt lat="45.5564" lon="6.60606">
        <ele>1152.5999755859</ele>
        <time>2014-01-31T14:24:10.000Z</time>
      </trkpt>
      <trkpt lat="45.5564" lon="6.60604">
        <ele>1152.5999755859</ele>
        <time>2014-01-31T14:24:11.000Z</time>
      </trkpt>
      <trkpt lat="45.55639" lon="6.60603">
        <ele>1152.5999755859</ele>
        <time>2014-01-31T14:24:12.000Z</time>
      </trkpt>
      <trkpt lat="45.55639" lon="6.60603">
        <ele>1152.5999755859</ele>
        <time>2014-01-31T14:24:13.000Z</time>
      </trkpt>
      <trkpt lat="45.55639" lon="6.60603">
        <ele>1152.8000488281</ele>
        <time>2014-01-31T14:24:14.000Z</time>
      </trkpt>
      <trkpt lat="45.5564" lon="6.60602">
        <ele>1152.8000488281</ele>
        <time>2014-01-31T14:24:15.000Z</time>
      </trkpt>
      <trkpt lat="45.5564" lon="6.60601">
        <ele>1152.8000488281</ele>
        <time>2014-01-31T14:24:16.000Z</time>
      </trkpt>
      <trkpt lat="45.55641" lon="6.60601">
        <ele>1152.8000488281</ele>
        <time>2014-01-31T14:24:17.000Z</time>
      </trkpt>
      <trkpt lat="45.55641" lon="6.60601">
        <ele>1152.8000488281</ele>
        <time>2014-01-31T14:24:18.000Z</time>
      </trkpt>
      <trkpt lat="45.55641" lon="6.60601">
        <ele>1152.5999755859</ele>
        <time>2014-01-31T14:24:19.000Z</time>
      </trkpt>
      <trkpt lat="45.55641" lon="6.60601">
        <ele>1152.5999755859</ele>
        <time>2014-01-31T14:24:20.000Z</time>
      </trkpt>
      <trkpt lat="45.55641" lon="6.60601">
        <ele>1152.5999755859</ele>
        <time>2014-01-31T14:24:21.000Z</time>
      </trkpt>
      <trkpt lat="45.55642" lon="6.60602">
        <ele>1152.4000244141</ele>
        <time>2014-01-31T14:24:22.000Z</time>
      </trkpt>
      <trkpt lat="45.55642" lon="6.60602">
        <ele>1152.4000244141</ele>
        <time>2014-01-31T14:24:23.000Z</time>
      </trkpt>
      <trkpt lat="45.55643" lon="6.60603">
        <ele>1152.4000244141</ele>
        <time>2014-01-31T14:24:24.000Z</time>
      </trkpt>
      <trkpt lat="45.55643" lon="6.60603">
        <ele>1152.4000244141</ele>
        <time>2014-01-31T14:24:25.000Z</time>
      </trkpt>
      <trkpt lat="45.55643" lon="6.60603">
        <ele>1152.4000244141</ele>
        <time>2014-01-31T14:24:26.000Z</time>
      </trkpt>
      <trkpt lat="45.55643" lon="6.60603">
        <ele>1152.4000244141</ele>
        <time>2014-01-31T14:24:29.000Z</time>
      </trkpt>
      <trkpt lat="45.55643" lon="6.60603">
        <ele>1152.4000244141</ele>
        <time>2014-01-31T14:24:30.000Z</time>
      </trkpt>
      <trkpt lat="45.55643" lon="6.60603">
        <ele>1152.5999755859</ele>
        <time>2014-01-31T14:24:31.000Z</time>
      </trkpt>
      <trkpt lat="45.55643" lon="6.60603">
        <ele>1152.5999755859</ele>
        <time>2014-01-31T14:24:32.000Z</time>
      </trkpt>
      <trkpt lat="45.55643" lon="6.60603">
        <ele>1152.5999755859</ele>
        <time>2014-01-31T14:24:33.000Z</time>
      </trkpt>
      <trkpt lat="45.55643" lon="6.60603">
        <ele>1152.5999755859</ele>
        <time>2014-01-31T14:24:34.000Z</time>
      </trkpt>
      <trkpt lat="45.55643" lon="6.60603">
        <ele>1152.5999755859</ele>
        <time>2014-01-31T14:24:35.000Z</time>
      </trkpt>
      <trkpt lat="45.55643" lon="6.60603">
        <ele>1152.5999755859</ele>
        <time>2014-01-31T14:24:36.000Z</time>
      </trkpt>
    </trkseg>
  </trk>
</gpx>